<?xml version='1.0' encoding='UTF-8'?><gpx version="1.1" creator="JPX - https://github.com/jenetics/jpx" xmlns="http://www.topografix.com/GPX/1/1"><trk><trkseg><trkpt lat="44.3174967" lon="11.4032767"><ele>228.0</ele><time>2026-04-18T07:14:28.791Z</time></trkpt><trkpt lat="44.3173883" lon="11.4032783"><ele>228.0</ele><time>2026-04-18T07:14:29.79Z</time></trkpt><trkpt lat="44.3172883" lon="11.4032883"><ele>228.0</ele><time>2026-04-18T07:14:30.79Z</time></trkpt><trkpt lat="44.3171733" lon="11.403315"><ele>228.0</ele><time>2026-04-18T07:14:31.791Z</time></trkpt><trkpt lat="44.3170467" lon="11.4033567"><ele>227.5</ele><time>2026-04-18T07:14:32.79Z</time></trkpt><trkpt lat="44.3169117" lon="11.4033983"><ele>227.0</ele><time>2026-04-18T07:14:33.79Z</time></trkpt><trkpt lat="44.3167733" lon="11.4034533"><ele>226.5</ele><time>2026-04-18T07:14:34.791Z</time></trkpt><trkpt lat="44.3166383" lon="11.40351"><ele>226.0</ele><time>2026-04-18T07:14:35.791Z</time></trkpt><trkpt lat="44.3165083" lon="11.4035383"><ele>228.75</ele><time>2026-04-18T07:14:36.79Z</time></trkpt><trkpt lat="44.3163833" lon="11.4035467"><ele>231.5</ele><time>2026-04-18T07:14:37.791Z</time></trkpt><trkpt lat="44.3162683" lon="11.40351"><ele>234.25</ele><time>2026-04-18T07:14:38.791Z</time></trkpt><trkpt lat="44.3161567" lon="11.4034217"><ele>237.0</ele><time>2026-04-18T07:14:39.79Z</time></trkpt><trkpt lat="44.31605" lon="11.4032917"><ele>237.0</ele><time>2026-04-18T07:14:40.79Z</time></trkpt><trkpt lat="44.3159483" lon="11.4031417"><ele>237.0</ele><time>2026-04-18T07:14:41.791Z</time></trkpt><trkpt lat="44.3158517" lon="11.4029883"><ele>237.0</ele><time>2026-04-18T07:14:42.791Z</time></trkpt><trkpt lat="44.3157467" lon="11.4028383"><ele>237.0</ele><time>2026-04-18T07:14:43.79Z</time></trkpt><trkpt lat="44.315635" lon="11.4026967"><ele>233.33333333333331</ele><time>2026-04-18T07:14:44.79Z</time></trkpt><trkpt lat="44.3155033" lon="11.4025583"><ele>229.66666666666666</ele><time>2026-04-18T07:14:45.791Z</time></trkpt><trkpt lat="44.3153733" lon="11.4024367"><ele>226.0</ele><time>2026-04-18T07:14:46.791Z</time></trkpt><trkpt lat="44.3152533" lon="11.4023317"><ele>226.0</ele><time>2026-04-18T07:14:47.791Z</time></trkpt><trkpt lat="44.3151117" lon="11.4022567"><ele>226.0</ele><time>2026-04-18T07:14:48.791Z</time></trkpt><trkpt lat="44.3149667" lon="11.4022467"><ele>226.0</ele><time>2026-04-18T07:14:49.79Z</time></trkpt><trkpt lat="44.314815" lon="11.4022617"><ele>226.0</ele><time>2026-04-18T07:14:50.79Z</time></trkpt><trkpt lat="44.3146533" lon="11.4022933"><ele>225.33333333333331</ele><time>2026-04-18T07:14:51.79Z</time></trkpt><trkpt lat="44.3144883" lon="11.4023033"><ele>224.66666666666669</ele><time>2026-04-18T07:14:52.791Z</time></trkpt><trkpt lat="44.3143317" lon="11.4023"><ele>224.0</ele><time>2026-04-18T07:14:53.79Z</time></trkpt><trkpt lat="44.3141767" lon="11.40227"><ele>224.0</ele><time>2026-04-18T07:14:54.79Z</time></trkpt><trkpt lat="44.3140317" lon="11.402215"><ele>224.0</ele><time>2026-04-18T07:14:55.791Z</time></trkpt><trkpt lat="44.3138867" lon="11.4021367"><ele>224.0</ele><time>2026-04-18T07:14:56.791Z</time></trkpt><trkpt lat="44.3137433" lon="11.4020417"><ele>224.33333333333334</ele><time>2026-04-18T07:14:57.79Z</time></trkpt><trkpt lat="44.313615" lon="11.4019217"><ele>224.66666666666669</ele><time>2026-04-18T07:14:58.791Z</time></trkpt><trkpt lat="44.3135067" lon="11.4017683"><ele>225.0</ele><time>2026-04-18T07:14:59.791Z</time></trkpt><trkpt lat="44.3134067" lon="11.4015817"><ele>225.0</ele><time>2026-04-18T07:15:00.79Z</time></trkpt><trkpt lat="44.31331" lon="11.4013967"><ele>225.0</ele><time>2026-04-18T07:15:01.79Z</time></trkpt><trkpt lat="44.3132183" lon="11.40121"><ele>225.0</ele><time>2026-04-18T07:15:02.79Z</time></trkpt><trkpt lat="44.3131067" lon="11.401065"><ele>225.33333333333331</ele><time>2026-04-18T07:15:03.79Z</time></trkpt><trkpt lat="44.3129667" lon="11.40094"><ele>225.66666666666666</ele><time>2026-04-18T07:15:04.79Z</time></trkpt><trkpt lat="44.3128133" lon="11.4008467"><ele>226.0</ele><time>2026-04-18T07:15:05.79Z</time></trkpt><trkpt lat="44.3126583" lon="11.4007717"><ele>226.0</ele><time>2026-04-18T07:15:06.79Z</time></trkpt><trkpt lat="44.3125133" lon="11.4006983"><ele>226.0</ele><time>2026-04-18T07:15:07.79Z</time></trkpt><trkpt lat="44.3123633" lon="11.40062"><ele>226.0</ele><time>2026-04-18T07:15:08.791Z</time></trkpt><trkpt lat="44.3122217" lon="11.4005517"><ele>225.75</ele><time>2026-04-18T07:15:09.79Z</time></trkpt><trkpt lat="44.3120967" lon="11.4004983"><ele>225.5</ele><time>2026-04-18T07:15:10.79Z</time></trkpt><trkpt lat="44.3119767" lon="11.400455"><ele>225.25</ele><time>2026-04-18T07:15:11.79Z</time></trkpt><trkpt lat="44.31186" lon="11.40043"><ele>225.0</ele><time>2026-04-18T07:15:12.79Z</time></trkpt><trkpt lat="44.31175" lon="11.4004233"><ele>225.0</ele><time>2026-04-18T07:15:13.791Z</time></trkpt><trkpt lat="44.3116433" lon="11.4004433"><ele>225.0</ele><time>2026-04-18T07:15:14.79Z</time></trkpt><trkpt lat="44.3115483" lon="11.40046"><ele>225.0</ele><time>2026-04-18T07:15:15.79Z</time></trkpt><trkpt lat="44.3114717" lon="11.4004917"><ele>225.0</ele><time>2026-04-18T07:15:16.791Z</time></trkpt><trkpt lat="44.311415" lon="11.4005317"><ele>225.0</ele><time>2026-04-18T07:15:17.791Z</time></trkpt><trkpt lat="44.311355" lon="11.4006833"><ele>227.6</ele><time>2026-04-18T07:15:19.79Z</time></trkpt><trkpt lat="44.3113067" lon="11.4007833"><ele>230.2</ele><time>2026-04-18T07:15:20.791Z</time></trkpt><trkpt lat="44.3112417" lon="11.4008833"><ele>232.8</ele><time>2026-04-18T07:15:21.79Z</time></trkpt><trkpt lat="44.3111817" lon="11.4009883"><ele>235.4</ele><time>2026-04-18T07:15:22.79Z</time></trkpt><trkpt lat="44.3111267" lon="11.401105"><ele>238.0</ele><time>2026-04-18T07:15:23.79Z</time></trkpt><trkpt lat="44.3110783" lon="11.4012133"><ele>238.0</ele><time>2026-04-18T07:15:24.791Z</time></trkpt><trkpt lat="44.311045" lon="11.4013217"><ele>238.0</ele><time>2026-04-18T07:15:25.791Z</time></trkpt><trkpt lat="44.3110217" lon="11.4014117"><ele>238.0</ele><time>2026-04-18T07:15:26.79Z</time></trkpt><trkpt lat="44.3110533" lon="11.4015233"><ele>238.0</ele><time>2026-04-18T07:15:28.791Z</time></trkpt><trkpt lat="44.3111317" lon="11.4015467"><ele>238.0</ele><time>2026-04-18T07:15:30.79Z</time></trkpt><trkpt lat="44.3112483" lon="11.401435"><ele>237.99999999999997</ele><time>2026-04-18T07:15:32.79Z</time></trkpt><trkpt lat="44.3113183" lon="11.4013883"><ele>238.0</ele><time>2026-04-18T07:15:33.791Z</time></trkpt><trkpt lat="44.311385" lon="11.4013483"><ele>238.0</ele><time>2026-04-18T07:15:34.79Z</time></trkpt><trkpt lat="44.3114833" lon="11.401285"><ele>238.0</ele><time>2026-04-18T07:15:36.791Z</time></trkpt><trkpt lat="44.3115367" lon="11.4012117"><ele>237.99999999999997</ele><time>2026-04-18T07:15:38.791Z</time></trkpt><trkpt lat="44.3115983" lon="11.4011317"><ele>238.0</ele><time>2026-04-18T07:15:40.79Z</time></trkpt><trkpt lat="44.3116517" lon="11.401215"><ele>240.0</ele><time>2026-04-18T07:15:43.79Z</time></trkpt><trkpt lat="44.31161" lon="11.4013583"><ele>242.0</ele><time>2026-04-18T07:15:45.79Z</time></trkpt><trkpt lat="44.311555" lon="11.40148"><ele>244.0</ele><time>2026-04-18T07:15:47.791Z</time></trkpt><trkpt lat="44.3114817" lon="11.401645"><ele>246.0</ele><time>2026-04-18T07:15:49.79Z</time></trkpt><trkpt lat="44.3114383" lon="11.401745"><ele>248.0</ele><time>2026-04-18T07:15:50.79Z</time></trkpt><trkpt lat="44.3113917" lon="11.401835"><ele>248.0</ele><time>2026-04-18T07:15:51.79Z</time></trkpt><trkpt lat="44.311335" lon="11.4019467"><ele>248.0</ele><time>2026-04-18T07:15:52.791Z</time></trkpt><trkpt lat="44.3112783" lon="11.4020517"><ele>248.0</ele><time>2026-04-18T07:15:53.791Z</time></trkpt><trkpt lat="44.3112117" lon="11.402125"><ele>248.0</ele><time>2026-04-18T07:15:54.79Z</time></trkpt><trkpt lat="44.3111417" lon="11.402205"><ele>248.0</ele><time>2026-04-18T07:15:55.791Z</time></trkpt><trkpt lat="44.3110767" lon="11.4023083"><ele>251.25</ele><time>2026-04-18T07:15:56.79Z</time></trkpt><trkpt lat="44.311015" lon="11.4024717"><ele>254.5</ele><time>2026-04-18T07:15:57.791Z</time></trkpt><trkpt lat="44.3109417" lon="11.402645"><ele>257.75</ele><time>2026-04-18T07:15:58.79Z</time></trkpt><trkpt lat="44.3108383" lon="11.4028133"><ele>261.0</ele><time>2026-04-18T07:15:59.791Z</time></trkpt><trkpt lat="44.3107383" lon="11.40296"><ele>261.75</ele><time>2026-04-18T07:16:00.79Z</time></trkpt><trkpt lat="44.3106567" lon="11.4031317"><ele>262.5</ele><time>2026-04-18T07:16:01.79Z</time></trkpt><trkpt lat="44.310595" lon="11.403295"><ele>263.25</ele><time>2026-04-18T07:16:02.79Z</time></trkpt><trkpt lat="44.3105683" lon="11.4034567"><ele>264.0</ele><time>2026-04-18T07:16:03.791Z</time></trkpt><trkpt lat="44.3105617" lon="11.4036017"><ele>264.0</ele><time>2026-04-18T07:16:04.79Z</time></trkpt><trkpt lat="44.3105417" lon="11.40371"><ele>264.0</ele><time>2026-04-18T07:16:05.791Z</time></trkpt><trkpt lat="44.3105383" lon="11.4038533"><ele>264.0</ele><time>2026-04-18T07:16:07.791Z</time></trkpt><trkpt lat="44.310605" lon="11.4039267"><ele>264.0</ele><time>2026-04-18T07:16:09.791Z</time></trkpt><trkpt lat="44.3107183" lon="11.4038233"><ele>264.0</ele><time>2026-04-18T07:16:11.79Z</time></trkpt><trkpt lat="44.3107867" lon="11.4037533"><ele>266.8333333333333</ele><time>2026-04-18T07:16:12.79Z</time></trkpt><trkpt lat="44.3108583" lon="11.4037183"><ele>269.6666666666667</ele><time>2026-04-18T07:16:13.79Z</time></trkpt><trkpt lat="44.3109383" lon="11.4037167"><ele>272.5</ele><time>2026-04-18T07:16:14.791Z</time></trkpt><trkpt lat="44.3110233" lon="11.4037483"><ele>275.33333333333337</ele><time>2026-04-18T07:16:15.791Z</time></trkpt><trkpt lat="44.3111083" lon="11.4038117"><ele>278.1666666666667</ele><time>2026-04-18T07:16:16.79Z</time></trkpt><trkpt lat="44.3111833" lon="11.4038967"><ele>281.0</ele><time>2026-04-18T07:16:17.791Z</time></trkpt><trkpt lat="44.31126" lon="11.4040017"><ele>285.2</ele><time>2026-04-18T07:16:18.79Z</time></trkpt><trkpt lat="44.3113183" lon="11.4041333"><ele>289.40000000000003</ele><time>2026-04-18T07:16:19.79Z</time></trkpt><trkpt lat="44.311375" lon="11.4042633"><ele>293.6</ele><time>2026-04-18T07:16:20.79Z</time></trkpt><trkpt lat="44.311435" lon="11.4043733"><ele>297.8</ele><time>2026-04-18T07:16:21.791Z</time></trkpt><trkpt lat="44.3115017" lon="11.404485"><ele>302.0</ele><time>2026-04-18T07:16:22.791Z</time></trkpt><trkpt lat="44.31157" lon="11.4045733"><ele>303.33333333333337</ele><time>2026-04-18T07:16:23.79Z</time></trkpt><trkpt lat="44.3116183" lon="11.40465"><ele>304.6666666666667</ele><time>2026-04-18T07:16:24.791Z</time></trkpt><trkpt lat="44.3116567" lon="11.4047367"><ele>306.0</ele><time>2026-04-18T07:16:25.79Z</time></trkpt><trkpt lat="44.31162" lon="11.4048383"><ele>307.3333333333333</ele><time>2026-04-18T07:16:27.79Z</time></trkpt><trkpt lat="44.3115133" lon="11.40479"><ele>308.66666666666663</ele><time>2026-04-18T07:16:29.79Z</time></trkpt><trkpt lat="44.3114283" lon="11.40476"><ele>310.0</ele><time>2026-04-18T07:16:30.791Z</time></trkpt><trkpt lat="44.3113417" lon="11.4047567"><ele>312.16666666666663</ele><time>2026-04-18T07:16:31.79Z</time></trkpt><trkpt lat="44.3112567" lon="11.4047917"><ele>314.3333333333333</ele><time>2026-04-18T07:16:32.79Z</time></trkpt><trkpt lat="44.31119" lon="11.4048533"><ele>316.5</ele><time>2026-04-18T07:16:33.79Z</time></trkpt><trkpt lat="44.311145" lon="11.404935"><ele>318.6666666666667</ele><time>2026-04-18T07:16:34.79Z</time></trkpt><trkpt lat="44.3111233" lon="11.405025"><ele>320.83333333333337</ele><time>2026-04-18T07:16:35.791Z</time></trkpt><trkpt lat="44.3111317" lon="11.4051267"><ele>323.0</ele><time>2026-04-18T07:16:36.791Z</time></trkpt><trkpt lat="44.311155" lon="11.4052317"><ele>323.0</ele><time>2026-04-18T07:16:37.79Z</time></trkpt><trkpt lat="44.31119" lon="11.4053383"><ele>323.0</ele><time>2026-04-18T07:16:38.79Z</time></trkpt><trkpt lat="44.311225" lon="11.405445"><ele>323.0</ele><time>2026-04-18T07:16:39.79Z</time></trkpt><trkpt lat="44.3112517" lon="11.40555"><ele>323.0</ele><time>2026-04-18T07:16:40.79Z</time></trkpt><trkpt lat="44.31127" lon="11.4056483"><ele>323.0</ele><time>2026-04-18T07:16:41.791Z</time></trkpt><trkpt lat="44.3112783" lon="11.4057533"><ele>323.0</ele><time>2026-04-18T07:16:42.79Z</time></trkpt><trkpt lat="44.3112733" lon="11.4058617"><ele>325.1666666666667</ele><time>2026-04-18T07:16:43.791Z</time></trkpt><trkpt lat="44.31127" lon="11.40597"><ele>327.33333333333337</ele><time>2026-04-18T07:16:44.791Z</time></trkpt><trkpt lat="44.311265" lon="11.4060933"><ele>329.5</ele><time>2026-04-18T07:16:45.79Z</time></trkpt><trkpt lat="44.3112583" lon="11.40622"><ele>331.6666666666667</ele><time>2026-04-18T07:16:46.791Z</time></trkpt><trkpt lat="44.3112417" lon="11.4063483"><ele>333.8333333333333</ele><time>2026-04-18T07:16:47.79Z</time></trkpt><trkpt lat="44.3112217" lon="11.4064617"><ele>336.0</ele><time>2026-04-18T07:16:48.79Z</time></trkpt><trkpt lat="44.3111983" lon="11.4065817"><ele>339.8</ele><time>2026-04-18T07:16:49.791Z</time></trkpt><trkpt lat="44.3111683" lon="11.4067117"><ele>343.6</ele><time>2026-04-18T07:16:50.791Z</time></trkpt><trkpt lat="44.311135" lon="11.4068433"><ele>347.4</ele><time>2026-04-18T07:16:51.79Z</time></trkpt><trkpt lat="44.3111017" lon="11.4069733"><ele>351.2</ele><time>2026-04-18T07:16:52.791Z</time></trkpt><trkpt lat="44.311075" lon="11.407115"><ele>355.0</ele><time>2026-04-18T07:16:53.79Z</time></trkpt><trkpt lat="44.311045" lon="11.4072483"><ele>357.1428571428571</ele><time>2026-04-18T07:16:54.79Z</time></trkpt><trkpt lat="44.3110267" lon="11.4073633"><ele>359.2857142857143</ele><time>2026-04-18T07:16:55.79Z</time></trkpt><trkpt lat="44.3110083" lon="11.4074717"><ele>361.42857142857144</ele><time>2026-04-18T07:16:56.79Z</time></trkpt><trkpt lat="44.3109833" lon="11.4075633"><ele>363.57142857142856</ele><time>2026-04-18T07:16:57.79Z</time></trkpt><trkpt lat="44.3109433" lon="11.40764"><ele>365.7142857142857</ele><time>2026-04-18T07:16:58.79Z</time></trkpt><trkpt lat="44.3108917" lon="11.4077067"><ele>367.85714285714283</ele><time>2026-04-18T07:16:59.79Z</time></trkpt><trkpt lat="44.3108383" lon="11.4077583"><ele>370.0</ele><time>2026-04-18T07:17:00.79Z</time></trkpt><trkpt lat="44.310775" lon="11.40781"><ele>370.0</ele><time>2026-04-18T07:17:01.791Z</time></trkpt><trkpt lat="44.3107017" lon="11.4079017"><ele>370.0</ele><time>2026-04-18T07:17:03.79Z</time></trkpt><trkpt lat="44.3106683" lon="11.40804"><ele>370.0</ele><time>2026-04-18T07:17:05.791Z</time></trkpt><trkpt lat="44.3106933" lon="11.4081667"><ele>370.0</ele><time>2026-04-18T07:17:07.79Z</time></trkpt><trkpt lat="44.3107733" lon="11.4082517"><ele>370.0</ele><time>2026-04-18T07:17:09.79Z</time></trkpt><trkpt lat="44.3108333" lon="11.408285"><ele>372.3333333333333</ele><time>2026-04-18T07:17:10.791Z</time></trkpt><trkpt lat="44.31089" lon="11.408335"><ele>374.66666666666663</ele><time>2026-04-18T07:17:11.79Z</time></trkpt><trkpt lat="44.310955" lon="11.4084767"><ele>377.0</ele><time>2026-04-18T07:17:13.79Z</time></trkpt><trkpt lat="44.3109567" lon="11.4085717"><ele>379.3333333333333</ele><time>2026-04-18T07:17:14.79Z</time></trkpt><trkpt lat="44.3109483" lon="11.408675"><ele>381.6666666666667</ele><time>2026-04-18T07:17:15.79Z</time></trkpt><trkpt lat="44.31093" lon="11.4087933"><ele>384.0</ele><time>2026-04-18T07:17:16.79Z</time></trkpt><trkpt lat="44.3109183" lon="11.4089033"><ele>388.4</ele><time>2026-04-18T07:17:17.791Z</time></trkpt><trkpt lat="44.3109417" lon="11.4090633"><ele>392.79999999999995</ele><time>2026-04-18T07:17:19.79Z</time></trkpt><trkpt lat="44.310995" lon="11.4092483"><ele>397.20000000000005</ele><time>2026-04-18T07:17:21.79Z</time></trkpt><trkpt lat="44.3110283" lon="11.4093433"><ele>401.6</ele><time>2026-04-18T07:17:22.791Z</time></trkpt><trkpt lat="44.311055" lon="11.4094383"><ele>406.0</ele><time>2026-04-18T07:17:23.79Z</time></trkpt><trkpt lat="44.3110883" lon="11.4095367"><ele>406.00000000000006</ele><time>2026-04-18T07:17:24.79Z</time></trkpt><trkpt lat="44.3111317" lon="11.4096233"><ele>406.0</ele><time>2026-04-18T07:17:25.79Z</time></trkpt><trkpt lat="44.3111967" lon="11.4096983"><ele>406.0</ele><time>2026-04-18T07:17:26.79Z</time></trkpt><trkpt lat="44.3112617" lon="11.4097717"><ele>406.0</ele><time>2026-04-18T07:17:27.791Z</time></trkpt><trkpt lat="44.3113183" lon="11.4098483"><ele>406.00000000000006</ele><time>2026-04-18T07:17:28.79Z</time></trkpt><trkpt lat="44.311365" lon="11.4099233"><ele>406.0</ele><time>2026-04-18T07:17:29.79Z</time></trkpt><trkpt lat="44.31143" lon="11.4100567"><ele>407.20000000000005</ele><time>2026-04-18T07:17:31.789Z</time></trkpt><trkpt lat="44.311455" lon="11.4101933"><ele>408.40000000000003</ele><time>2026-04-18T07:17:33.79Z</time></trkpt><trkpt lat="44.3114683" lon="11.41034"><ele>409.6</ele><time>2026-04-18T07:17:35.79Z</time></trkpt><trkpt lat="44.3114867" lon="11.410525"><ele>410.8</ele><time>2026-04-18T07:17:37.79Z</time></trkpt><trkpt lat="44.3114983" lon="11.4106217"><ele>412.0</ele><time>2026-04-18T07:17:38.789Z</time></trkpt><trkpt lat="44.3115033" lon="11.4107233"><ele>415.50000000000006</ele><time>2026-04-18T07:17:39.789Z</time></trkpt><trkpt lat="44.311515" lon="11.4108117"><ele>419.0</ele><time>2026-04-18T07:17:40.789Z</time></trkpt><trkpt lat="44.311535" lon="11.410915"><ele>422.5</ele><time>2026-04-18T07:17:41.789Z</time></trkpt><trkpt lat="44.31155" lon="11.41101"><ele>426.0</ele><time>2026-04-18T07:17:42.79Z</time></trkpt><trkpt lat="44.3115617" lon="11.4111083"><ele>429.50000000000006</ele><time>2026-04-18T07:17:43.79Z</time></trkpt><trkpt lat="44.3115617" lon="11.4112733"><ele>433.0</ele><time>2026-04-18T07:17:45.789Z</time></trkpt><trkpt lat="44.31151" lon="11.41143"><ele>433.4285714285714</ele><time>2026-04-18T07:17:47.79Z</time></trkpt><trkpt lat="44.31148" lon="11.4115133"><ele>433.85714285714283</ele><time>2026-04-18T07:17:48.789Z</time></trkpt><trkpt lat="44.3114567" lon="11.41161"><ele>434.2857142857143</ele><time>2026-04-18T07:17:49.789Z</time></trkpt><trkpt lat="44.31145" lon="11.41173"><ele>434.71428571428567</ele><time>2026-04-18T07:17:50.789Z</time></trkpt><trkpt lat="44.31144" lon="11.411835"><ele>435.14285714285717</ele><time>2026-04-18T07:17:51.789Z</time></trkpt><trkpt lat="44.311425" lon="11.4119217"><ele>435.57142857142856</ele><time>2026-04-18T07:17:52.79Z</time></trkpt><trkpt lat="44.3113783" lon="11.412"><ele>436.0</ele><time>2026-04-18T07:17:54.789Z</time></trkpt><trkpt lat="44.3113783" lon="11.412115"><ele>436.1666666666667</ele><time>2026-04-18T07:53:59.78Z</time></trkpt><trkpt lat="44.311375" lon="11.4122217"><ele>436.33333333333337</ele><time>2026-04-18T07:54:01.779Z</time></trkpt><trkpt lat="44.3113467" lon="11.41233"><ele>436.5</ele><time>2026-04-18T07:54:03.78Z</time></trkpt><trkpt lat="44.31133" lon="11.4124683"><ele>436.66666666666663</ele><time>2026-04-18T07:54:05.779Z</time></trkpt><trkpt lat="44.3113183" lon="11.41256"><ele>436.8333333333333</ele><time>2026-04-18T07:54:06.779Z</time></trkpt><trkpt lat="44.3112983" lon="11.4126533"><ele>437.0</ele><time>2026-04-18T07:54:07.779Z</time></trkpt><trkpt lat="44.311255" lon="11.4128033"><ele>437.0</ele><time>2026-04-18T07:54:09.78Z</time></trkpt><trkpt lat="44.3112067" lon="11.4129667"><ele>437.00000000000006</ele><time>2026-04-18T07:54:11.78Z</time></trkpt><trkpt lat="44.3111817" lon="11.4130667"><ele>437.00000000000006</ele><time>2026-04-18T07:54:12.78Z</time></trkpt><trkpt lat="44.3111567" lon="11.4131667"><ele>437.0</ele><time>2026-04-18T07:54:13.779Z</time></trkpt><trkpt lat="44.3111367" lon="11.4132617"><ele>437.0</ele><time>2026-04-18T07:54:14.779Z</time></trkpt><trkpt lat="44.3111033" lon="11.41342"><ele>438.8</ele><time>2026-04-18T07:54:16.779Z</time></trkpt><trkpt lat="44.3110817" lon="11.4135633"><ele>440.6</ele><time>2026-04-18T07:54:18.779Z</time></trkpt><trkpt lat="44.3110683" lon="11.413695"><ele>442.40000000000003</ele><time>2026-04-18T07:54:20.779Z</time></trkpt><trkpt lat="44.3110817" lon="11.4138883"><ele>444.20000000000005</ele><time>2026-04-18T07:54:22.779Z</time></trkpt><trkpt lat="44.311085" lon="11.41401"><ele>446.0</ele><time>2026-04-18T07:54:23.78Z</time></trkpt><trkpt lat="44.3110933" lon="11.4141183"><ele>447.16666666666663</ele><time>2026-04-18T07:54:24.779Z</time></trkpt><trkpt lat="44.311115" lon="11.4142283"><ele>448.3333333333333</ele><time>2026-04-18T07:54:25.779Z</time></trkpt><trkpt lat="44.3111483" lon="11.4143183"><ele>449.5</ele><time>2026-04-18T07:54:26.78Z</time></trkpt><trkpt lat="44.31119" lon="11.4143867"><ele>450.66666666666663</ele><time>2026-04-18T07:54:27.78Z</time></trkpt><trkpt lat="44.311245" lon="11.4144567"><ele>451.8333333333333</ele><time>2026-04-18T07:54:28.779Z</time></trkpt><trkpt lat="44.3113217" lon="11.41452"><ele>453.0</ele><time>2026-04-18T07:54:29.779Z</time></trkpt><trkpt lat="44.3114133" lon="11.4145833"><ele>458.4</ele><time>2026-04-18T07:54:30.779Z</time></trkpt><trkpt lat="44.31149" lon="11.4146517"><ele>463.79999999999995</ele><time>2026-04-18T07:54:31.78Z</time></trkpt><trkpt lat="44.3115467" lon="11.41471"><ele>469.2</ele><time>2026-04-18T07:54:32.779Z</time></trkpt><trkpt lat="44.3116533" lon="11.4147917"><ele>474.6</ele><time>2026-04-18T07:54:34.78Z</time></trkpt><trkpt lat="44.3117317" lon="11.414895"><ele>480.0</ele><time>2026-04-18T07:54:36.779Z</time></trkpt><trkpt lat="44.3117633" lon="11.415015"><ele>480.0</ele><time>2026-04-18T07:54:38.78Z</time></trkpt><trkpt lat="44.31174" lon="11.4151433"><ele>480.0</ele><time>2026-04-18T07:54:40.779Z</time></trkpt><trkpt lat="44.3117117" lon="11.41527"><ele>480.0</ele><time>2026-04-18T07:54:42.779Z</time></trkpt><trkpt lat="44.3117417" lon="11.4153883"><ele>480.0</ele><time>2026-04-18T07:54:44.779Z</time></trkpt><trkpt lat="44.3118233" lon="11.4154983"><ele>480.0</ele><time>2026-04-18T07:54:46.779Z</time></trkpt><trkpt lat="44.311875" lon="11.4155517"><ele>480.6</ele><time>2026-04-18T07:54:47.78Z</time></trkpt><trkpt lat="44.3119467" lon="11.4156"><ele>481.2</ele><time>2026-04-18T07:54:48.78Z</time></trkpt><trkpt lat="44.3120333" lon="11.4156533"><ele>481.79999999999995</ele><time>2026-04-18T07:54:49.779Z</time></trkpt><trkpt lat="44.3121233" lon="11.415715"><ele>482.4</ele><time>2026-04-18T07:54:50.779Z</time></trkpt><trkpt lat="44.3122133" lon="11.4157767"><ele>483.0</ele><time>2026-04-18T07:54:51.78Z</time></trkpt><trkpt lat="44.31229" lon="11.4158467"><ele>483.0</ele><time>2026-04-18T07:54:52.78Z</time></trkpt><trkpt lat="44.3123567" lon="11.4159117"><ele>483.0</ele><time>2026-04-18T07:54:53.779Z</time></trkpt><trkpt lat="44.3124133" lon="11.41598"><ele>483.0</ele><time>2026-04-18T07:54:54.779Z</time></trkpt><trkpt lat="44.3124717" lon="11.416055"><ele>483.0</ele><time>2026-04-18T07:54:55.779Z</time></trkpt><trkpt lat="44.3125217" lon="11.41613"><ele>483.0</ele><time>2026-04-18T07:54:56.779Z</time></trkpt><trkpt lat="44.3125683" lon="11.4162067"><ele>483.0</ele><time>2026-04-18T07:54:57.779Z</time></trkpt><trkpt lat="44.31261" lon="11.4162833"><ele>478.0</ele><time>2026-04-18T07:54:58.779Z</time></trkpt><trkpt lat="44.3126733" lon="11.41642"><ele>472.99999999999994</ele><time>2026-04-18T07:55:00.779Z</time></trkpt><trkpt lat="44.3127067" lon="11.416555"><ele>467.99999999999994</ele><time>2026-04-18T07:55:02.779Z</time></trkpt><trkpt lat="44.3127017" lon="11.4167083"><ele>463.0</ele><time>2026-04-18T07:55:04.779Z</time></trkpt><trkpt lat="44.3127033" lon="11.4168567"><ele>458.0</ele><time>2026-04-18T07:55:06.779Z</time></trkpt><trkpt lat="44.312725" lon="11.4169517"><ele>458.0</ele><time>2026-04-18T07:55:07.779Z</time></trkpt><trkpt lat="44.3127583" lon="11.4170683"><ele>457.99999999999994</ele><time>2026-04-18T07:55:08.78Z</time></trkpt><trkpt lat="44.3128" lon="11.4172083"><ele>457.99999999999994</ele><time>2026-04-18T07:55:09.779Z</time></trkpt><trkpt lat="44.312855" lon="11.4173467"><ele>458.0</ele><time>2026-04-18T07:55:10.779Z</time></trkpt><trkpt lat="44.31289" lon="11.4174783"><ele>458.0</ele><time>2026-04-18T07:55:11.78Z</time></trkpt><trkpt lat="44.3129033" lon="11.4175967"><ele>457.49999999999994</ele><time>2026-04-18T07:55:12.779Z</time></trkpt><trkpt lat="44.312895" lon="11.4177017"><ele>457.0</ele><time>2026-04-18T07:55:13.78Z</time></trkpt><trkpt lat="44.3128917" lon="11.4177933"><ele>456.5</ele><time>2026-04-18T07:55:14.779Z</time></trkpt><trkpt lat="44.3128917" lon="11.4178867"><ele>456.0</ele><time>2026-04-18T07:55:15.78Z</time></trkpt><trkpt lat="44.312895" lon="11.418005"><ele>455.49999999999994</ele><time>2026-04-18T07:55:16.779Z</time></trkpt><trkpt lat="44.3129033" lon="11.418145"><ele>455.0</ele><time>2026-04-18T07:55:17.779Z</time></trkpt><trkpt lat="44.3129117" lon="11.4182883"><ele>455.0</ele><time>2026-04-18T07:55:18.779Z</time></trkpt><trkpt lat="44.3129217" lon="11.4184583"><ele>455.0</ele><time>2026-04-18T07:55:19.779Z</time></trkpt><trkpt lat="44.31294" lon="11.4186433"><ele>455.0</ele><time>2026-04-18T07:55:20.779Z</time></trkpt><trkpt lat="44.3129567" lon="11.41881"><ele>455.0</ele><time>2026-04-18T07:55:21.78Z</time></trkpt><trkpt lat="44.31298" lon="11.4189567"><ele>455.49999999999994</ele><time>2026-04-18T07:55:22.78Z</time></trkpt><trkpt lat="44.312995" lon="11.4190817"><ele>456.0</ele><time>2026-04-18T07:55:23.779Z</time></trkpt><trkpt lat="44.313005" lon="11.4191867"><ele>456.5</ele><time>2026-04-18T07:55:24.779Z</time></trkpt><trkpt lat="44.3130017" lon="11.419285"><ele>457.0</ele><time>2026-04-18T07:55:25.779Z</time></trkpt><trkpt lat="44.3130017" lon="11.4193783"><ele>457.49999999999994</ele><time>2026-04-18T07:55:26.78Z</time></trkpt><trkpt lat="44.3130167" lon="11.41953"><ele>458.0</ele><time>2026-04-18T07:55:28.78Z</time></trkpt><trkpt lat="44.3130183" lon="11.419675"><ele>459.59999999999997</ele><time>2026-04-18T07:55:30.779Z</time></trkpt><trkpt lat="44.3129833" lon="11.4197967"><ele>461.19999999999993</ele><time>2026-04-18T07:55:32.78Z</time></trkpt><trkpt lat="44.3129167" lon="11.4199317"><ele>462.8</ele><time>2026-04-18T07:55:34.78Z</time></trkpt><trkpt lat="44.3128717" lon="11.42002"><ele>464.4</ele><time>2026-04-18T07:55:35.779Z</time></trkpt><trkpt lat="44.3128317" lon="11.42012"><ele>466.0</ele><time>2026-04-18T07:55:36.779Z</time></trkpt><trkpt lat="44.3128" lon="11.4202333"><ele>466.0</ele><time>2026-04-18T07:55:37.78Z</time></trkpt><trkpt lat="44.3127867" lon="11.4203533"><ele>466.0</ele><time>2026-04-18T07:55:38.779Z</time></trkpt><trkpt lat="44.312815" lon="11.4204483"><ele>466.0</ele><time>2026-04-18T07:55:39.78Z</time></trkpt><trkpt lat="44.3128217" lon="11.4205917"><ele>466.0</ele><time>2026-04-18T07:55:40.779Z</time></trkpt><trkpt lat="44.312825" lon="11.42075"><ele>466.0</ele><time>2026-04-18T07:55:41.779Z</time></trkpt><trkpt lat="44.3128183" lon="11.420915"><ele>469.75</ele><time>2026-04-18T07:55:42.779Z</time></trkpt><trkpt lat="44.3128117" lon="11.4210917"><ele>473.5</ele><time>2026-04-18T07:55:43.779Z</time></trkpt><trkpt lat="44.3127967" lon="11.4212683"><ele>477.25</ele><time>2026-04-18T07:55:44.78Z</time></trkpt><trkpt lat="44.3127767" lon="11.421415"><ele>481.0</ele><time>2026-04-18T07:55:45.779Z</time></trkpt><trkpt lat="44.3127483" lon="11.4215533"><ele>483.1666666666667</ele><time>2026-04-18T07:55:46.779Z</time></trkpt><trkpt lat="44.3127333" lon="11.4216617"><ele>485.33333333333337</ele><time>2026-04-18T07:55:47.78Z</time></trkpt><trkpt lat="44.3127217" lon="11.4218367"><ele>487.5</ele><time>2026-04-18T07:55:49.779Z</time></trkpt><trkpt lat="44.312745" lon="11.4219233"><ele>489.66666666666663</ele><time>2026-04-18T07:55:50.779Z</time></trkpt><trkpt lat="44.3127817" lon="11.4220017"><ele>491.8333333333333</ele><time>2026-04-18T07:55:51.779Z</time></trkpt><trkpt lat="44.3128417" lon="11.4220583"><ele>494.0</ele><time>2026-04-18T07:55:52.779Z</time></trkpt><trkpt lat="44.3129317" lon="11.4220983"><ele>494.0</ele><time>2026-04-18T07:55:53.78Z</time></trkpt><trkpt lat="44.3130333" lon="11.4221417"><ele>494.0</ele><time>2026-04-18T07:55:54.779Z</time></trkpt><trkpt lat="44.3131283" lon="11.42218"><ele>494.0</ele><time>2026-04-18T07:55:55.78Z</time></trkpt><trkpt lat="44.3132167" lon="11.4222317"><ele>494.0</ele><time>2026-04-18T07:55:56.779Z</time></trkpt><trkpt lat="44.3133067" lon="11.4222933"><ele>494.0</ele><time>2026-04-18T07:55:57.779Z</time></trkpt><trkpt lat="44.313405" lon="11.4223567"><ele>493.2</ele><time>2026-04-18T07:55:58.779Z</time></trkpt><trkpt lat="44.313505" lon="11.4224267"><ele>492.4</ele><time>2026-04-18T07:55:59.78Z</time></trkpt><trkpt lat="44.3136117" lon="11.4224933"><ele>491.6</ele><time>2026-04-18T07:56:00.779Z</time></trkpt><trkpt lat="44.3137167" lon="11.42255"><ele>490.8</ele><time>2026-04-18T07:56:01.78Z</time></trkpt><trkpt lat="44.31381" lon="11.4226083"><ele>490.0</ele><time>2026-04-18T07:56:02.78Z</time></trkpt><trkpt lat="44.31391" lon="11.42267"><ele>490.00000000000006</ele><time>2026-04-18T07:56:03.779Z</time></trkpt><trkpt lat="44.3139917" lon="11.422705"><ele>490.0</ele><time>2026-04-18T07:56:04.779Z</time></trkpt><trkpt lat="44.3140617" lon="11.42273"><ele>490.0</ele><time>2026-04-18T07:56:05.779Z</time></trkpt><trkpt lat="44.3141817" lon="11.422765"><ele>490.0</ele><time>2026-04-18T07:56:07.779Z</time></trkpt><trkpt lat="44.3142433" lon="11.4228033"><ele>490.00000000000006</ele><time>2026-04-18T07:56:08.779Z</time></trkpt><trkpt lat="44.31431" lon="11.4228633"><ele>490.0</ele><time>2026-04-18T07:56:09.779Z</time></trkpt><trkpt lat="44.3143767" lon="11.4229333"><ele>487.75</ele><time>2026-04-18T07:56:10.78Z</time></trkpt><trkpt lat="44.31445" lon="11.4230217"><ele>485.5</ele><time>2026-04-18T07:56:11.779Z</time></trkpt><trkpt lat="44.3145417" lon="11.4231283"><ele>483.25</ele><time>2026-04-18T07:56:12.779Z</time></trkpt><trkpt lat="44.3146483" lon="11.42325"><ele>481.0</ele><time>2026-04-18T07:56:13.779Z</time></trkpt><trkpt lat="44.314745" lon="11.4233883"><ele>481.0</ele><time>2026-04-18T07:56:14.779Z</time></trkpt><trkpt lat="44.3148283" lon="11.4235133"><ele>481.0</ele><time>2026-04-18T07:56:15.779Z</time></trkpt><trkpt lat="44.3149083" lon="11.42364"><ele>481.0</ele><time>2026-04-18T07:56:16.78Z</time></trkpt><trkpt lat="44.314995" lon="11.4237683"><ele>481.0</ele><time>2026-04-18T07:56:17.779Z</time></trkpt><trkpt lat="44.3150717" lon="11.4238967"><ele>483.1666666666667</ele><time>2026-04-18T07:56:18.78Z</time></trkpt><trkpt lat="44.31515" lon="11.4240167"><ele>485.33333333333337</ele><time>2026-04-18T07:56:19.779Z</time></trkpt><trkpt lat="44.3152217" lon="11.4241283"><ele>487.5</ele><time>2026-04-18T07:56:20.778Z</time></trkpt><trkpt lat="44.3152767" lon="11.4242167"><ele>489.66666666666663</ele><time>2026-04-18T07:56:21.779Z</time></trkpt><trkpt lat="44.3153167" lon="11.424295"><ele>491.8333333333333</ele><time>2026-04-18T07:56:22.779Z</time></trkpt><trkpt lat="44.3153467" lon="11.424385"><ele>494.0</ele><time>2026-04-18T07:56:23.778Z</time></trkpt><trkpt lat="44.31537" lon="11.42447"><ele>493.99999999999994</ele><time>2026-04-18T07:56:24.778Z</time></trkpt><trkpt lat="44.315425" lon="11.424595"><ele>494.0</ele><time>2026-04-18T07:56:26.779Z</time></trkpt><trkpt lat="44.3154817" lon="11.4246867"><ele>494.0</ele><time>2026-04-18T07:56:29.779Z</time></trkpt><trkpt lat="44.3155217" lon="11.42477"><ele>494.0</ele><time>2026-04-18T07:56:32.778Z</time></trkpt><trkpt lat="44.3155583" lon="11.4248483"><ele>493.99999999999994</ele><time>2026-04-18T07:56:36.779Z</time></trkpt><trkpt lat="44.3156133" lon="11.4248917"><ele>494.0</ele><time>2026-04-18T07:56:46.779Z</time></trkpt><trkpt lat="44.3157067" lon="11.4249133"><ele>494.2</ele><time>2026-04-18T07:56:50.778Z</time></trkpt><trkpt lat="44.3157767" lon="11.4249767"><ele>494.4</ele><time>2026-04-18T07:56:53.779Z</time></trkpt><trkpt lat="44.3158267" lon="11.42508"><ele>494.6</ele><time>2026-04-18T07:56:56.778Z</time></trkpt><trkpt lat="44.315875" lon="11.4252"><ele>494.8</ele><time>2026-04-18T07:56:58.778Z</time></trkpt><trkpt lat="44.3159283" lon="11.4253117"><ele>495.0</ele><time>2026-04-18T07:57:00.778Z</time></trkpt><trkpt lat="44.3159817" lon="11.4254383"><ele>499.3333333333333</ele><time>2026-04-18T07:57:02.779Z</time></trkpt><trkpt lat="44.3160117" lon="11.4255167"><ele>503.66666666666663</ele><time>2026-04-18T07:57:03.779Z</time></trkpt><trkpt lat="44.31605" lon="11.4256117"><ele>508.0</ele><time>2026-04-18T07:57:04.778Z</time></trkpt><trkpt lat="44.3161" lon="11.425715"><ele>512.3333333333333</ele><time>2026-04-18T07:57:05.779Z</time></trkpt><trkpt lat="44.3161567" lon="11.42581"><ele>516.6666666666666</ele><time>2026-04-18T07:57:06.778Z</time></trkpt><trkpt lat="44.316225" lon="11.4258833"><ele>521.0</ele><time>2026-04-18T07:57:07.779Z</time></trkpt><trkpt lat="44.3162933" lon="11.42595"><ele>521.0</ele><time>2026-04-18T07:57:08.779Z</time></trkpt><trkpt lat="44.3163583" lon="11.4260183"><ele>521.0</ele><time>2026-04-18T07:57:09.778Z</time></trkpt><trkpt lat="44.3164167" lon="11.426075"><ele>521.0</ele><time>2026-04-18T07:57:10.778Z</time></trkpt><trkpt lat="44.3165033" lon="11.42614"><ele>521.0</ele><time>2026-04-18T07:57:12.779Z</time></trkpt><trkpt lat="44.3165533" lon="11.4262083"><ele>521.0</ele><time>2026-04-18T07:57:14.778Z</time></trkpt><trkpt lat="44.3166817" lon="11.4263933"><ele>521.3333333333333</ele><time>2026-04-18T07:57:35.778Z</time></trkpt><trkpt lat="44.3167633" lon="11.426495"><ele>521.6666666666666</ele><time>2026-04-18T07:57:37.778Z</time></trkpt><trkpt lat="44.3168233" lon="11.4265417"><ele>522.0</ele><time>2026-04-18T07:57:38.779Z</time></trkpt><trkpt lat="44.316885" lon="11.426585"><ele>522.3333333333334</ele><time>2026-04-18T07:57:39.779Z</time></trkpt><trkpt lat="44.316955" lon="11.4266183"><ele>522.6666666666667</ele><time>2026-04-18T07:57:40.778Z</time></trkpt><trkpt lat="44.3170233" lon="11.42665"><ele>523.0</ele><time>2026-04-18T07:57:41.778Z</time></trkpt><trkpt lat="44.3171067" lon="11.426675"><ele>523.0</ele><time>2026-04-18T07:57:42.778Z</time></trkpt><trkpt lat="44.3172017" lon="11.4266817"><ele>523.0</ele><time>2026-04-18T07:57:43.779Z</time></trkpt><trkpt lat="44.3172933" lon="11.426695"><ele>523.0</ele><time>2026-04-18T07:57:44.778Z</time></trkpt><trkpt lat="44.3173733" lon="11.4267167"><ele>523.0</ele><time>2026-04-18T07:57:45.779Z</time></trkpt><trkpt lat="44.317475" lon="11.4267533"><ele>523.0</ele><time>2026-04-18T07:57:47.779Z</time></trkpt><trkpt lat="44.3175583" lon="11.426845"><ele>523.8</ele><time>2026-04-18T07:57:49.778Z</time></trkpt><trkpt lat="44.3176" lon="11.426965"><ele>524.5999999999999</ele><time>2026-04-18T07:57:51.778Z</time></trkpt><trkpt lat="44.317605" lon="11.4271217"><ele>525.4000000000001</ele><time>2026-04-18T07:57:53.778Z</time></trkpt><trkpt lat="44.3176017" lon="11.4272267"><ele>526.2</ele><time>2026-04-18T07:57:54.779Z</time></trkpt><trkpt lat="44.3175667" lon="11.42739"><ele>527.0</ele><time>2026-04-18T07:57:56.779Z</time></trkpt><trkpt lat="44.317495" lon="11.427495"><ele>527.0</ele><time>2026-04-18T07:57:58.778Z</time></trkpt><trkpt lat="44.3174817" lon="11.4276167"><ele>527.0</ele><time>2026-04-18T07:58:01.778Z</time></trkpt><trkpt lat="44.317525" lon="11.4277383"><ele>527.0</ele><time>2026-04-18T07:58:04.779Z</time></trkpt><trkpt lat="44.3175983" lon="11.4277617"><ele>527.0</ele><time>2026-04-18T07:58:06.778Z</time></trkpt><trkpt lat="44.31769" lon="11.4277583"><ele>527.0</ele><time>2026-04-18T07:58:08.778Z</time></trkpt><trkpt lat="44.3177983" lon="11.427755"><ele>527.0</ele><time>2026-04-18T07:58:10.779Z</time></trkpt><trkpt lat="44.3178683" lon="11.4277517"><ele>527.0</ele><time>2026-04-18T07:58:11.779Z</time></trkpt><trkpt lat="44.3179517" lon="11.4277483"><ele>527.0</ele><time>2026-04-18T07:58:12.779Z</time></trkpt><trkpt lat="44.3180567" lon="11.4277733"><ele>527.0</ele><time>2026-04-18T07:58:14.778Z</time></trkpt><trkpt lat="44.31809" lon="11.4278567"><ele>527.0</ele><time>2026-04-18T07:58:16.779Z</time></trkpt><trkpt lat="44.3181383" lon="11.4279667"><ele>527.0</ele><time>2026-04-18T07:58:18.779Z</time></trkpt><trkpt lat="44.318195" lon="11.42809"><ele>530.4</ele><time>2026-04-18T07:58:20.779Z</time></trkpt><trkpt lat="44.3182567" lon="11.4282"><ele>533.8000000000001</ele><time>2026-04-18T07:58:22.778Z</time></trkpt><trkpt lat="44.318355" lon="11.42828"><ele>537.2</ele><time>2026-04-18T07:58:24.779Z</time></trkpt><trkpt lat="44.318435" lon="11.4283267"><ele>540.6</ele><time>2026-04-18T07:58:26.778Z</time></trkpt><trkpt lat="44.3184867" lon="11.42839"><ele>544.0</ele><time>2026-04-18T07:58:28.778Z</time></trkpt><trkpt lat="44.3185083" lon="11.428515"><ele>544.0</ele><time>2026-04-18T07:58:31.778Z</time></trkpt><trkpt lat="44.31852" lon="11.4286067"><ele>544.0</ele><time>2026-04-18T07:58:33.778Z</time></trkpt><trkpt lat="44.318535" lon="11.428745"><ele>544.0</ele><time>2026-04-18T07:58:36.778Z</time></trkpt><trkpt lat="44.3185467" lon="11.4288817"><ele>544.0</ele><time>2026-04-18T07:58:38.779Z</time></trkpt><trkpt lat="44.318575" lon="11.42902"><ele>544.0</ele><time>2026-04-18T07:58:40.778Z</time></trkpt><trkpt lat="44.3186133" lon="11.4291467"><ele>542.6</ele><time>2026-04-18T07:58:42.778Z</time></trkpt><trkpt lat="44.3186283" lon="11.42926"><ele>541.2</ele><time>2026-04-18T07:58:44.778Z</time></trkpt><trkpt lat="44.318565" lon="11.429265"><ele>539.8000000000001</ele><time>2026-04-18T07:58:47.779Z</time></trkpt><trkpt lat="44.31848" lon="11.4291383"><ele>538.4</ele><time>2026-04-18T07:58:49.779Z</time></trkpt><trkpt lat="44.3184083" lon="11.4290417"><ele>537.0</ele><time>2026-04-18T07:58:50.778Z</time></trkpt><trkpt lat="44.3183167" lon="11.4289317"><ele>538.75</ele><time>2026-04-18T07:58:51.778Z</time></trkpt><trkpt lat="44.3182167" lon="11.4287983"><ele>540.5</ele><time>2026-04-18T07:58:52.779Z</time></trkpt><trkpt lat="44.3181267" lon="11.4286733"><ele>542.25</ele><time>2026-04-18T07:58:53.779Z</time></trkpt><trkpt lat="44.3180417" lon="11.4285717"><ele>544.0</ele><time>2026-04-18T07:58:54.779Z</time></trkpt><trkpt lat="44.3179667" lon="11.4284917"><ele>541.0</ele><time>2026-04-18T07:58:55.779Z</time></trkpt><trkpt lat="44.3178917" lon="11.4284167"><ele>538.0</ele><time>2026-04-18T07:58:56.778Z</time></trkpt><trkpt lat="44.3178217" lon="11.42837"><ele>535.0</ele><time>2026-04-18T07:58:57.778Z</time></trkpt><trkpt lat="44.3177483" lon="11.4283217"><ele>532.0</ele><time>2026-04-18T07:58:58.778Z</time></trkpt><trkpt lat="44.3176767" lon="11.42827"><ele>529.0</ele><time>2026-04-18T07:58:59.779Z</time></trkpt><trkpt lat="44.317605" lon="11.4282167"><ele>526.0</ele><time>2026-04-18T07:59:00.778Z</time></trkpt><trkpt lat="44.31753" lon="11.4281683"><ele>526.0</ele><time>2026-04-18T07:59:01.778Z</time></trkpt><trkpt lat="44.3174417" lon="11.4281183"><ele>526.0</ele><time>2026-04-18T07:59:02.779Z</time></trkpt><trkpt lat="44.3173583" lon="11.4280567"><ele>526.0</ele><time>2026-04-18T07:59:03.778Z</time></trkpt><trkpt lat="44.31727" lon="11.427985"><ele>526.0</ele><time>2026-04-18T07:59:04.778Z</time></trkpt><trkpt lat="44.3171783" lon="11.4278967"><ele>526.0</ele><time>2026-04-18T07:59:05.778Z</time></trkpt><trkpt lat="44.3170967" lon="11.42779"><ele>526.0</ele><time>2026-04-18T07:59:06.779Z</time></trkpt><trkpt lat="44.3170117" lon="11.42768"><ele>526.0</ele><time>2026-04-18T07:59:07.778Z</time></trkpt><trkpt lat="44.3169167" lon="11.4275633"><ele>526.0</ele><time>2026-04-18T07:59:08.777Z</time></trkpt><trkpt lat="44.3168283" lon="11.427465"><ele>526.0</ele><time>2026-04-18T07:59:09.777Z</time></trkpt><trkpt lat="44.3167317" lon="11.42738"><ele>526.0</ele><time>2026-04-18T07:59:10.778Z</time></trkpt><trkpt lat="44.31663" lon="11.4272917"><ele>526.0</ele><time>2026-04-18T07:59:11.777Z</time></trkpt><trkpt lat="44.316535" lon="11.4271983"><ele>526.0</ele><time>2026-04-18T07:59:12.777Z</time></trkpt><trkpt lat="44.3164367" lon="11.4270933"><ele>526.0</ele><time>2026-04-18T07:59:13.778Z</time></trkpt><trkpt lat="44.3163233" lon="11.4269783"><ele>526.5</ele><time>2026-04-18T07:59:14.777Z</time></trkpt><trkpt lat="44.3162183" lon="11.426875"><ele>527.0</ele><time>2026-04-18T07:59:15.777Z</time></trkpt><trkpt lat="44.3161117" lon="11.426785"><ele>527.5</ele><time>2026-04-18T07:59:16.778Z</time></trkpt><trkpt lat="44.3160067" lon="11.4266983"><ele>528.0</ele><time>2026-04-18T07:59:17.778Z</time></trkpt><trkpt lat="44.315885" lon="11.4266083"><ele>528.0</ele><time>2026-04-18T07:59:18.777Z</time></trkpt><trkpt lat="44.315775" lon="11.42654"><ele>528.0</ele><time>2026-04-18T07:59:19.778Z</time></trkpt><trkpt lat="44.315685" lon="11.4264717"><ele>528.0</ele><time>2026-04-18T07:59:20.777Z</time></trkpt><trkpt lat="44.3156083" lon="11.4264033"><ele>528.0</ele><time>2026-04-18T07:59:21.778Z</time></trkpt><trkpt lat="44.3155417" lon="11.426345"><ele>528.0</ele><time>2026-04-18T07:59:22.778Z</time></trkpt><trkpt lat="44.3154733" lon="11.426305"><ele>530.1666666666666</ele><time>2026-04-18T07:59:23.777Z</time></trkpt><trkpt lat="44.3153983" lon="11.42628"><ele>532.3333333333334</ele><time>2026-04-18T07:59:24.777Z</time></trkpt><trkpt lat="44.3153167" lon="11.4262683"><ele>534.5</ele><time>2026-04-18T07:59:25.777Z</time></trkpt><trkpt lat="44.315225" lon="11.4262717"><ele>536.6666666666667</ele><time>2026-04-18T07:59:26.777Z</time></trkpt><trkpt lat="44.3151417" lon="11.4262833"><ele>538.8333333333334</ele><time>2026-04-18T07:59:27.777Z</time></trkpt><trkpt lat="44.31505" lon="11.4262933"><ele>541.0</ele><time>2026-04-18T07:59:28.778Z</time></trkpt><trkpt lat="44.3149633" lon="11.4262817"><ele>541.0</ele><time>2026-04-18T07:59:29.778Z</time></trkpt><trkpt lat="44.3148817" lon="11.42627"><ele>541.0</ele><time>2026-04-18T07:59:30.778Z</time></trkpt><trkpt lat="44.314805" lon="11.42626"><ele>541.0</ele><time>2026-04-18T07:59:31.777Z</time></trkpt><trkpt lat="44.314725" lon="11.4262733"><ele>541.0</ele><time>2026-04-18T07:59:32.778Z</time></trkpt><trkpt lat="44.3146517" lon="11.4263"><ele>541.0</ele><time>2026-04-18T07:59:33.778Z</time></trkpt><trkpt lat="44.31458" lon="11.4263383"><ele>541.0</ele><time>2026-04-18T07:59:34.778Z</time></trkpt><trkpt lat="44.314505" lon="11.4263967"><ele>538.3333333333334</ele><time>2026-04-18T07:59:35.778Z</time></trkpt><trkpt lat="44.31444" lon="11.42647"><ele>535.6666666666667</ele><time>2026-04-18T07:59:36.777Z</time></trkpt><trkpt lat="44.31437" lon="11.4265333"><ele>533.0</ele><time>2026-04-18T07:59:37.778Z</time></trkpt><trkpt lat="44.3142933" lon="11.426585"><ele>530.3333333333334</ele><time>2026-04-18T07:59:38.777Z</time></trkpt><trkpt lat="44.3142117" lon="11.4266083"><ele>527.6666666666666</ele><time>2026-04-18T07:59:39.778Z</time></trkpt><trkpt lat="44.3141133" lon="11.42663"><ele>525.0</ele><time>2026-04-18T07:59:40.777Z</time></trkpt><trkpt lat="44.3140117" lon="11.4266583"><ele>525.0</ele><time>2026-04-18T07:59:41.778Z</time></trkpt><trkpt lat="44.313915" lon="11.426695"><ele>525.0</ele><time>2026-04-18T07:59:42.778Z</time></trkpt><trkpt lat="44.3138317" lon="11.4267517"><ele>525.0</ele><time>2026-04-18T07:59:43.777Z</time></trkpt><trkpt lat="44.313755" lon="11.4268017"><ele>525.0</ele><time>2026-04-18T07:59:44.777Z</time></trkpt><trkpt lat="44.3136733" lon="11.4268367"><ele>525.0</ele><time>2026-04-18T07:59:45.778Z</time></trkpt><trkpt lat="44.313585" lon="11.426855"><ele>526.4</ele><time>2026-04-18T07:59:46.778Z</time></trkpt><trkpt lat="44.3134967" lon="11.42688"><ele>527.8</ele><time>2026-04-18T07:59:47.777Z</time></trkpt><trkpt lat="44.3134117" lon="11.426925"><ele>529.2</ele><time>2026-04-18T07:59:48.778Z</time></trkpt><trkpt lat="44.3133167" lon="11.4269783"><ele>530.6</ele><time>2026-04-18T07:59:49.778Z</time></trkpt><trkpt lat="44.3132067" lon="11.4270117"><ele>532.0</ele><time>2026-04-18T07:59:50.777Z</time></trkpt><trkpt lat="44.3130767" lon="11.4270117"><ele>533.0</ele><time>2026-04-18T07:59:51.777Z</time></trkpt><trkpt lat="44.3129517" lon="11.4270267"><ele>534.0</ele><time>2026-04-18T07:59:52.777Z</time></trkpt><trkpt lat="44.3128367" lon="11.4270467"><ele>535.0</ele><time>2026-04-18T07:59:53.778Z</time></trkpt><trkpt lat="44.312725" lon="11.4270967"><ele>536.0</ele><time>2026-04-18T07:59:54.777Z</time></trkpt><trkpt lat="44.3126367" lon="11.4271567"><ele>530.8</ele><time>2026-04-18T07:59:55.778Z</time></trkpt><trkpt lat="44.312555" lon="11.427235"><ele>525.6</ele><time>2026-04-18T07:59:56.777Z</time></trkpt><trkpt lat="44.312485" lon="11.4273267"><ele>520.4</ele><time>2026-04-18T07:59:57.778Z</time></trkpt><trkpt lat="44.3124317" lon="11.427435"><ele>515.2</ele><time>2026-04-18T07:59:58.777Z</time></trkpt><trkpt lat="44.31239" lon="11.4275367"><ele>510.0</ele><time>2026-04-18T07:59:59.777Z</time></trkpt><trkpt lat="44.3123317" lon="11.4276717"><ele>509.2</ele><time>2026-04-18T08:00:01.777Z</time></trkpt><trkpt lat="44.3122333" lon="11.42771"><ele>508.4</ele><time>2026-04-18T08:00:03.778Z</time></trkpt><trkpt lat="44.312165" lon="11.427695"><ele>507.6</ele><time>2026-04-18T08:00:04.777Z</time></trkpt><trkpt lat="44.3120717" lon="11.42767"><ele>506.8</ele><time>2026-04-18T08:00:05.778Z</time></trkpt><trkpt lat="44.3119717" lon="11.42765"><ele>506.0</ele><time>2026-04-18T08:00:06.777Z</time></trkpt><trkpt lat="44.3118633" lon="11.427625"><ele>506.0</ele><time>2026-04-18T08:00:07.777Z</time></trkpt><trkpt lat="44.31176" lon="11.4275833"><ele>506.0</ele><time>2026-04-18T08:00:08.777Z</time></trkpt><trkpt lat="44.3116683" lon="11.4275333"><ele>506.0</ele><time>2026-04-18T08:00:09.777Z</time></trkpt><trkpt lat="44.311565" lon="11.427475"><ele>506.0</ele><time>2026-04-18T08:00:10.778Z</time></trkpt><trkpt lat="44.3114483" lon="11.4274"><ele>506.0</ele><time>2026-04-18T08:00:11.777Z</time></trkpt><trkpt lat="44.31135" lon="11.4273317"><ele>504.4</ele><time>2026-04-18T08:00:12.777Z</time></trkpt><trkpt lat="44.3112633" lon="11.4272483"><ele>502.8</ele><time>2026-04-18T08:00:13.777Z</time></trkpt><trkpt lat="44.3111933" lon="11.4271683"><ele>501.19999999999993</ele><time>2026-04-18T08:00:14.777Z</time></trkpt><trkpt lat="44.3111267" lon="11.4270833"><ele>499.59999999999997</ele><time>2026-04-18T08:00:15.778Z</time></trkpt><trkpt lat="44.3110783" lon="11.4269867"><ele>498.0</ele><time>2026-04-18T08:00:16.778Z</time></trkpt><trkpt lat="44.3110483" lon="11.4268783"><ele>498.0</ele><time>2026-04-18T08:00:17.777Z</time></trkpt><trkpt lat="44.31103" lon="11.42674"><ele>498.0</ele><time>2026-04-18T08:00:18.777Z</time></trkpt><trkpt lat="44.31102" lon="11.4265733"><ele>498.0</ele><time>2026-04-18T08:00:19.778Z</time></trkpt><trkpt lat="44.311015" lon="11.426385"><ele>498.0</ele><time>2026-04-18T08:00:20.777Z</time></trkpt><trkpt lat="44.3110183" lon="11.4262017"><ele>501.75</ele><time>2026-04-18T08:00:21.777Z</time></trkpt><trkpt lat="44.3109983" lon="11.4260717"><ele>505.5</ele><time>2026-04-18T08:00:22.777Z</time></trkpt><trkpt lat="44.31095" lon="11.4259283"><ele>509.25</ele><time>2026-04-18T08:00:23.778Z</time></trkpt><trkpt lat="44.310875" lon="11.4257783"><ele>513.0</ele><time>2026-04-18T08:00:24.778Z</time></trkpt><trkpt lat="44.3107717" lon="11.4256267"><ele>513.6666666666666</ele><time>2026-04-18T08:00:25.777Z</time></trkpt><trkpt lat="44.3106783" lon="11.4254717"><ele>514.3333333333333</ele><time>2026-04-18T08:00:26.778Z</time></trkpt><trkpt lat="44.3105733" lon="11.42531"><ele>515.0</ele><time>2026-04-18T08:00:27.777Z</time></trkpt><trkpt lat="44.3104717" lon="11.4251467"><ele>515.0</ele><time>2026-04-18T08:00:28.778Z</time></trkpt><trkpt lat="44.31036" lon="11.425005"><ele>515.0</ele><time>2026-04-18T08:00:29.777Z</time></trkpt><trkpt lat="44.3102367" lon="11.4248617"><ele>515.0</ele><time>2026-04-18T08:00:30.778Z</time></trkpt><trkpt lat="44.3101133" lon="11.4247283"><ele>515.4</ele><time>2026-04-18T08:00:31.778Z</time></trkpt><trkpt lat="44.309995" lon="11.424605"><ele>515.8</ele><time>2026-04-18T08:00:32.777Z</time></trkpt><trkpt lat="44.3099" lon="11.4245183"><ele>516.2</ele><time>2026-04-18T08:00:33.777Z</time></trkpt><trkpt lat="44.3098233" lon="11.4244583"><ele>516.6</ele><time>2026-04-18T08:00:34.778Z</time></trkpt><trkpt lat="44.3097533" lon="11.4244367"><ele>517.0</ele><time>2026-04-18T08:00:35.778Z</time></trkpt><trkpt lat="44.3096367" lon="11.4244617"><ele>517.0</ele><time>2026-04-18T08:00:37.778Z</time></trkpt><trkpt lat="44.3095817" lon="11.4245283"><ele>517.0</ele><time>2026-04-18T08:00:38.777Z</time></trkpt><trkpt lat="44.309525" lon="11.42462"><ele>517.0</ele><time>2026-04-18T08:00:39.777Z</time></trkpt><trkpt lat="44.30946" lon="11.4247433"><ele>517.0</ele><time>2026-04-18T08:00:40.777Z</time></trkpt><trkpt lat="44.3093767" lon="11.424905"><ele>517.0</ele><time>2026-04-18T08:00:41.778Z</time></trkpt><trkpt lat="44.30927" lon="11.4250867"><ele>514.25</ele><time>2026-04-18T08:00:42.777Z</time></trkpt><trkpt lat="44.309165" lon="11.4252367"><ele>511.5</ele><time>2026-04-18T08:00:43.777Z</time></trkpt><trkpt lat="44.309075" lon="11.4253933"><ele>508.75</ele><time>2026-04-18T08:00:44.777Z</time></trkpt><trkpt lat="44.308995" lon="11.4255433"><ele>506.0</ele><time>2026-04-18T08:00:45.778Z</time></trkpt><trkpt lat="44.3089267" lon="11.4256983"><ele>502.25</ele><time>2026-04-18T08:00:46.778Z</time></trkpt><trkpt lat="44.308855" lon="11.425835"><ele>498.5</ele><time>2026-04-18T08:00:47.778Z</time></trkpt><trkpt lat="44.30878" lon="11.4259683"><ele>494.75</ele><time>2026-04-18T08:00:48.778Z</time></trkpt><trkpt lat="44.3087017" lon="11.4260883"><ele>491.0</ele><time>2026-04-18T08:00:49.777Z</time></trkpt><trkpt lat="44.3086117" lon="11.4262117"><ele>492.0</ele><time>2026-04-18T08:00:50.778Z</time></trkpt><trkpt lat="44.3085133" lon="11.42632"><ele>493.0</ele><time>2026-04-18T08:00:51.777Z</time></trkpt><trkpt lat="44.3084133" lon="11.4264167"><ele>494.0</ele><time>2026-04-18T08:00:52.777Z</time></trkpt><trkpt lat="44.308305" lon="11.4265033"><ele>495.0</ele><time>2026-04-18T08:00:53.778Z</time></trkpt><trkpt lat="44.3082033" lon="11.42659"><ele>495.0</ele><time>2026-04-18T08:00:54.777Z</time></trkpt><trkpt lat="44.30811" lon="11.426675"><ele>495.0</ele><time>2026-04-18T08:00:55.778Z</time></trkpt><trkpt lat="44.3080183" lon="11.4267483"><ele>495.0</ele><time>2026-04-18T08:00:56.778Z</time></trkpt><trkpt lat="44.3079083" lon="11.4268167"><ele>495.0</ele><time>2026-04-18T08:00:57.777Z</time></trkpt><trkpt lat="44.3077883" lon="11.4269"><ele>494.25</ele><time>2026-04-18T08:00:58.777Z</time></trkpt><trkpt lat="44.30766" lon="11.42699"><ele>493.5</ele><time>2026-04-18T08:00:59.778Z</time></trkpt><trkpt lat="44.3075417" lon="11.4270667"><ele>492.75</ele><time>2026-04-18T08:01:00.777Z</time></trkpt><trkpt lat="44.30742" lon="11.4271167"><ele>492.0</ele><time>2026-04-18T08:01:01.778Z</time></trkpt><trkpt lat="44.3072983" lon="11.4271383"><ele>493.0</ele><time>2026-04-18T08:01:02.778Z</time></trkpt><trkpt lat="44.30717" lon="11.42713"><ele>494.0</ele><time>2026-04-18T08:01:03.778Z</time></trkpt><trkpt lat="44.3070333" lon="11.4271017"><ele>495.0</ele><time>2026-04-18T08:01:04.777Z</time></trkpt><trkpt lat="44.3068967" lon="11.4270883"><ele>496.0</ele><time>2026-04-18T08:01:05.778Z</time></trkpt><trkpt lat="44.30677" lon="11.427095"><ele>496.0</ele><time>2026-04-18T08:01:06.777Z</time></trkpt><trkpt lat="44.3066283" lon="11.4271217"><ele>496.0</ele><time>2026-04-18T08:01:07.778Z</time></trkpt><trkpt lat="44.3065" lon="11.4271483"><ele>496.0</ele><time>2026-04-18T08:01:08.777Z</time></trkpt><trkpt lat="44.3063767" lon="11.427165"><ele>496.0</ele><time>2026-04-18T08:01:09.777Z</time></trkpt><trkpt lat="44.3062833" lon="11.4271617"><ele>497.8</ele><time>2026-04-18T08:01:10.777Z</time></trkpt><trkpt lat="44.306195" lon="11.427135"><ele>499.6</ele><time>2026-04-18T08:01:11.778Z</time></trkpt><trkpt lat="44.3061" lon="11.427065"><ele>501.4</ele><time>2026-04-18T08:01:12.778Z</time></trkpt><trkpt lat="44.3060033" lon="11.4269667"><ele>503.2</ele><time>2026-04-18T08:01:13.778Z</time></trkpt><trkpt lat="44.305925" lon="11.4268683"><ele>505.0</ele><time>2026-04-18T08:01:14.777Z</time></trkpt><trkpt lat="44.3058433" lon="11.4267833"><ele>505.0</ele><time>2026-04-18T08:01:15.778Z</time></trkpt><trkpt lat="44.30577" lon="11.4267133"><ele>505.0</ele><time>2026-04-18T08:01:16.778Z</time></trkpt><trkpt lat="44.305685" lon="11.4266717"><ele>505.0</ele><time>2026-04-18T08:01:17.778Z</time></trkpt><trkpt lat="44.3055933" lon="11.42665"><ele>505.0</ele><time>2026-04-18T08:01:18.777Z</time></trkpt><trkpt lat="44.3054967" lon="11.426645"><ele>505.0</ele><time>2026-04-18T08:01:19.778Z</time></trkpt><trkpt lat="44.305395" lon="11.4266417"><ele>507.25</ele><time>2026-04-18T08:01:20.778Z</time></trkpt><trkpt lat="44.30527" lon="11.4266333"><ele>509.5</ele><time>2026-04-18T08:01:21.777Z</time></trkpt><trkpt lat="44.305145" lon="11.4266067"><ele>511.75</ele><time>2026-04-18T08:01:22.778Z</time></trkpt><trkpt lat="44.3050283" lon="11.4265767"><ele>514.0</ele><time>2026-04-18T08:01:23.777Z</time></trkpt><trkpt lat="44.3049233" lon="11.42654"><ele>514.0</ele><time>2026-04-18T08:01:24.777Z</time></trkpt><trkpt lat="44.30482" lon="11.4264833"><ele>514.0</ele><time>2026-04-18T08:01:25.778Z</time></trkpt><trkpt lat="44.30471" lon="11.4263717"><ele>514.0</ele><time>2026-04-18T08:01:26.777Z</time></trkpt><trkpt lat="44.30461" lon="11.4262583"><ele>514.0</ele><time>2026-04-18T08:01:27.777Z</time></trkpt><trkpt lat="44.304525" lon="11.426175"><ele>514.0</ele><time>2026-04-18T08:01:28.778Z</time></trkpt><trkpt lat="44.3044433" lon="11.4261267"><ele>514.0</ele><time>2026-04-18T08:01:29.778Z</time></trkpt><trkpt lat="44.3043567" lon="11.4260983"><ele>514.0</ele><time>2026-04-18T08:01:30.777Z</time></trkpt><trkpt lat="44.3042517" lon="11.426085"><ele>514.0</ele><time>2026-04-18T08:01:31.777Z</time></trkpt><trkpt lat="44.304145" lon="11.4260717"><ele>514.0</ele><time>2026-04-18T08:01:32.778Z</time></trkpt><trkpt lat="44.304055" lon="11.4260517"><ele>514.0</ele><time>2026-04-18T08:01:33.777Z</time></trkpt><trkpt lat="44.3039617" lon="11.42602"><ele>514.0</ele><time>2026-04-18T08:01:34.777Z</time></trkpt><trkpt lat="44.3038767" lon="11.425995"><ele>514.0</ele><time>2026-04-18T08:01:35.777Z</time></trkpt><trkpt lat="44.3037933" lon="11.4259933"><ele>514.0</ele><time>2026-04-18T08:01:36.778Z</time></trkpt><trkpt lat="44.3037117" lon="11.4260033"><ele>514.0</ele><time>2026-04-18T08:01:37.778Z</time></trkpt><trkpt lat="44.30363" lon="11.4260117"><ele>514.0</ele><time>2026-04-18T08:01:38.778Z</time></trkpt><trkpt lat="44.3035567" lon="11.4260283"><ele>512.3333333333334</ele><time>2026-04-18T08:01:39.777Z</time></trkpt><trkpt lat="44.303485" lon="11.4260433"><ele>510.6666666666667</ele><time>2026-04-18T08:01:40.778Z</time></trkpt><trkpt lat="44.3034183" lon="11.4260633"><ele>509.0</ele><time>2026-04-18T08:01:41.778Z</time></trkpt><trkpt lat="44.3033517" lon="11.426075"><ele>507.33333333333337</ele><time>2026-04-18T08:01:42.778Z</time></trkpt><trkpt lat="44.3032883" lon="11.4260717"><ele>505.6666666666667</ele><time>2026-04-18T08:01:43.778Z</time></trkpt><trkpt lat="44.3031783" lon="11.4260033"><ele>504.0</ele><time>2026-04-18T08:01:45.777Z</time></trkpt><trkpt lat="44.3030767" lon="11.425865"><ele>501.6666666666667</ele><time>2026-04-18T08:01:47.778Z</time></trkpt><trkpt lat="44.3030217" lon="11.4257967"><ele>499.33333333333337</ele><time>2026-04-18T08:01:48.777Z</time></trkpt><trkpt lat="44.3029583" lon="11.4257383"><ele>497.0</ele><time>2026-04-18T08:01:49.778Z</time></trkpt><trkpt lat="44.3028917" lon="11.42568"><ele>494.6666666666667</ele><time>2026-04-18T08:01:50.777Z</time></trkpt><trkpt lat="44.30283" lon="11.42563"><ele>492.33333333333337</ele><time>2026-04-18T08:01:51.777Z</time></trkpt><trkpt lat="44.3027417" lon="11.4255383"><ele>490.0</ele><time>2026-04-18T08:01:53.777Z</time></trkpt><trkpt lat="44.30264" lon="11.425465"><ele>490.0</ele><time>2026-04-18T08:01:55.777Z</time></trkpt><trkpt lat="44.3025817" lon="11.4254283"><ele>490.0</ele><time>2026-04-18T08:01:56.778Z</time></trkpt><trkpt lat="44.3025133" lon="11.4253883"><ele>490.0</ele><time>2026-04-18T08:01:57.778Z</time></trkpt><trkpt lat="44.3024267" lon="11.4253483"><ele>490.0</ele><time>2026-04-18T08:01:58.778Z</time></trkpt><trkpt lat="44.30231" lon="11.425315"><ele>490.0</ele><time>2026-04-18T08:01:59.778Z</time></trkpt><trkpt lat="44.30218" lon="11.425275"><ele>488.75</ele><time>2026-04-18T08:02:00.778Z</time></trkpt><trkpt lat="44.3020417" lon="11.4252333"><ele>487.5</ele><time>2026-04-18T08:02:01.777Z</time></trkpt><trkpt lat="44.30191" lon="11.4251967"><ele>486.25</ele><time>2026-04-18T08:02:02.777Z</time></trkpt><trkpt lat="44.301795" lon="11.42516"><ele>485.0</ele><time>2026-04-18T08:02:03.777Z</time></trkpt><trkpt lat="44.3016867" lon="11.4251233"><ele>484.99999999999994</ele><time>2026-04-18T08:02:04.778Z</time></trkpt><trkpt lat="44.3015833" lon="11.4251017"><ele>485.0</ele><time>2026-04-18T08:02:05.778Z</time></trkpt><trkpt lat="44.3014917" lon="11.425095"><ele>485.0</ele><time>2026-04-18T08:02:06.778Z</time></trkpt><trkpt lat="44.3014117" lon="11.4251133"><ele>485.0</ele><time>2026-04-18T08:02:07.777Z</time></trkpt><trkpt lat="44.3013367" lon="11.4251467"><ele>484.99999999999994</ele><time>2026-04-18T08:02:08.777Z</time></trkpt><trkpt lat="44.30126" lon="11.4251867"><ele>485.0</ele><time>2026-04-18T08:02:09.776Z</time></trkpt><trkpt lat="44.301185" lon="11.4252233"><ele>481.8</ele><time>2026-04-18T08:02:10.776Z</time></trkpt><trkpt lat="44.301115" lon="11.4252417"><ele>478.6</ele><time>2026-04-18T08:02:11.777Z</time></trkpt><trkpt lat="44.3010467" lon="11.4252467"><ele>475.4</ele><time>2026-04-18T08:02:12.776Z</time></trkpt><trkpt lat="44.3009583" lon="11.4252333"><ele>472.2</ele><time>2026-04-18T08:02:13.777Z</time></trkpt><trkpt lat="44.3008417" lon="11.425215"><ele>469.0</ele><time>2026-04-18T08:02:14.777Z</time></trkpt><trkpt lat="44.3006883" lon="11.4251867"><ele>465.75</ele><time>2026-04-18T08:02:15.776Z</time></trkpt><trkpt lat="44.30054" lon="11.4251667"><ele>462.5</ele><time>2026-04-18T08:02:16.776Z</time></trkpt><trkpt lat="44.3004" lon="11.4251267"><ele>459.25</ele><time>2026-04-18T08:02:17.776Z</time></trkpt><trkpt lat="44.3002667" lon="11.4250667"><ele>456.0</ele><time>2026-04-18T08:02:18.776Z</time></trkpt><trkpt lat="44.3001417" lon="11.42501"><ele>456.0</ele><time>2026-04-18T08:02:19.777Z</time></trkpt><trkpt lat="44.3000367" lon="11.42497"><ele>456.0</ele><time>2026-04-18T08:02:20.777Z</time></trkpt><trkpt lat="44.29995" lon="11.42493"><ele>456.0</ele><time>2026-04-18T08:02:21.777Z</time></trkpt><trkpt lat="44.2998733" lon="11.4248933"><ele>456.0</ele><time>2026-04-18T08:02:22.776Z</time></trkpt><trkpt lat="44.2997867" lon="11.424865"><ele>456.0</ele><time>2026-04-18T08:02:23.776Z</time></trkpt><trkpt lat="44.2996983" lon="11.4248283"><ele>457.6</ele><time>2026-04-18T08:02:24.777Z</time></trkpt><trkpt lat="44.2996" lon="11.4247983"><ele>459.20000000000005</ele><time>2026-04-18T08:02:25.776Z</time></trkpt><trkpt lat="44.2994817" lon="11.42477"><ele>460.79999999999995</ele><time>2026-04-18T08:02:26.776Z</time></trkpt><trkpt lat="44.299365" lon="11.4247617"><ele>462.4</ele><time>2026-04-18T08:02:27.777Z</time></trkpt><trkpt lat="44.2992533" lon="11.4247517"><ele>464.0</ele><time>2026-04-18T08:02:28.776Z</time></trkpt><trkpt lat="44.2991433" lon="11.4247617"><ele>464.0</ele><time>2026-04-18T08:02:29.776Z</time></trkpt><trkpt lat="44.29904" lon="11.4247767"><ele>464.0</ele><time>2026-04-18T08:02:30.776Z</time></trkpt><trkpt lat="44.2989367" lon="11.4247783"><ele>464.0</ele><time>2026-04-18T08:02:31.777Z</time></trkpt><trkpt lat="44.2988233" lon="11.42476"><ele>464.0</ele><time>2026-04-18T08:02:32.777Z</time></trkpt><trkpt lat="44.2987083" lon="11.4247367"><ele>464.0</ele><time>2026-04-18T08:02:33.776Z</time></trkpt><trkpt lat="44.2985683" lon="11.4247117"><ele>464.0</ele><time>2026-04-18T08:02:34.777Z</time></trkpt><trkpt lat="44.2984233" lon="11.4246917"><ele>464.0</ele><time>2026-04-18T08:02:35.776Z</time></trkpt><trkpt lat="44.298295" lon="11.4246783"><ele>464.0</ele><time>2026-04-18T08:02:36.777Z</time></trkpt><trkpt lat="44.29818" lon="11.4246783"><ele>464.0</ele><time>2026-04-18T08:02:37.776Z</time></trkpt><trkpt lat="44.2980817" lon="11.4246733"><ele>466.0</ele><time>2026-04-18T08:02:38.776Z</time></trkpt><trkpt lat="44.2979917" lon="11.4246883"><ele>468.0</ele><time>2026-04-18T08:02:39.776Z</time></trkpt><trkpt lat="44.297905" lon="11.4247267"><ele>470.0</ele><time>2026-04-18T08:02:40.776Z</time></trkpt><trkpt lat="44.2978117" lon="11.4247783"><ele>472.0</ele><time>2026-04-18T08:02:41.777Z</time></trkpt><trkpt lat="44.2977233" lon="11.424855"><ele>474.0</ele><time>2026-04-18T08:02:42.776Z</time></trkpt><trkpt lat="44.2976467" lon="11.424925"><ele>474.0</ele><time>2026-04-18T08:02:43.777Z</time></trkpt><trkpt lat="44.2975833" lon="11.4249717"><ele>474.0</ele><time>2026-04-18T08:02:44.777Z</time></trkpt><trkpt lat="44.2975133" lon="11.4249967"><ele>474.0</ele><time>2026-04-18T08:02:45.776Z</time></trkpt><trkpt lat="44.2973983" lon="11.4249767"><ele>474.0</ele><time>2026-04-18T08:02:47.776Z</time></trkpt><trkpt lat="44.2972883" lon="11.4249533"><ele>474.0</ele><time>2026-04-18T08:02:49.776Z</time></trkpt><trkpt lat="44.2972017" lon="11.424965"><ele>473.0</ele><time>2026-04-18T08:02:51.776Z</time></trkpt><trkpt lat="44.2971467" lon="11.4250467"><ele>472.0</ele><time>2026-04-18T08:02:53.777Z</time></trkpt><trkpt lat="44.2971183" lon="11.4251583"><ele>471.0</ele><time>2026-04-18T08:02:55.776Z</time></trkpt><trkpt lat="44.297125" lon="11.425275"><ele>470.0</ele><time>2026-04-18T08:02:57.777Z</time></trkpt><trkpt lat="44.297105" lon="11.4254083"><ele>469.0</ele><time>2026-04-18T08:02:59.776Z</time></trkpt><trkpt lat="44.2970383" lon="11.4255533"><ele>470.83333333333337</ele><time>2026-04-18T08:03:01.777Z</time></trkpt><trkpt lat="44.2970033" lon="11.4256267"><ele>472.6666666666667</ele><time>2026-04-18T08:03:02.776Z</time></trkpt><trkpt lat="44.2969017" lon="11.425715"><ele>474.5</ele><time>2026-04-18T08:03:04.776Z</time></trkpt><trkpt lat="44.2968367" lon="11.4257567"><ele>476.33333333333337</ele><time>2026-04-18T08:03:05.776Z</time></trkpt><trkpt lat="44.2967717" lon="11.425785"><ele>478.1666666666667</ele><time>2026-04-18T08:03:06.776Z</time></trkpt><trkpt lat="44.29669" lon="11.4258067"><ele>480.0</ele><time>2026-04-18T08:03:07.776Z</time></trkpt><trkpt lat="44.2965967" lon="11.4258383"><ele>480.0</ele><time>2026-04-18T08:03:08.777Z</time></trkpt><trkpt lat="44.296495" lon="11.425865"><ele>480.0</ele><time>2026-04-18T08:03:09.777Z</time></trkpt><trkpt lat="44.2964067" lon="11.4258917"><ele>480.0</ele><time>2026-04-18T08:03:10.776Z</time></trkpt><trkpt lat="44.2963233" lon="11.425915"><ele>480.0</ele><time>2026-04-18T08:03:11.776Z</time></trkpt><trkpt lat="44.29624" lon="11.4259283"><ele>480.0</ele><time>2026-04-18T08:03:12.777Z</time></trkpt><trkpt lat="44.2961417" lon="11.4259367"><ele>481.0</ele><time>2026-04-18T08:03:13.776Z</time></trkpt><trkpt lat="44.2960467" lon="11.425945"><ele>482.0</ele><time>2026-04-18T08:03:14.776Z</time></trkpt><trkpt lat="44.29596" lon="11.4259567"><ele>483.0</ele><time>2026-04-18T08:03:15.776Z</time></trkpt><trkpt lat="44.2958617" lon="11.4259833"><ele>484.0</ele><time>2026-04-18T08:03:16.777Z</time></trkpt><trkpt lat="44.2957583" lon="11.4260117"><ele>485.0</ele><time>2026-04-18T08:03:17.776Z</time></trkpt><trkpt lat="44.2956567" lon="11.4260417"><ele>486.3333333333333</ele><time>2026-04-18T08:03:18.777Z</time></trkpt><trkpt lat="44.2955667" lon="11.4260783"><ele>487.66666666666663</ele><time>2026-04-18T08:03:19.777Z</time></trkpt><trkpt lat="44.2954933" lon="11.426105"><ele>489.0</ele><time>2026-04-18T08:03:20.777Z</time></trkpt><trkpt lat="44.2954267" lon="11.426135"><ele>490.33333333333337</ele><time>2026-04-18T08:03:21.776Z</time></trkpt><trkpt lat="44.2953567" lon="11.4261467"><ele>491.6666666666667</ele><time>2026-04-18T08:03:22.777Z</time></trkpt><trkpt lat="44.2952733" lon="11.426145"><ele>493.0</ele><time>2026-04-18T08:03:23.776Z</time></trkpt><trkpt lat="44.2951833" lon="11.4261367"><ele>493.0</ele><time>2026-04-18T08:03:24.777Z</time></trkpt><trkpt lat="44.2950917" lon="11.42613"><ele>492.99999999999994</ele><time>2026-04-18T08:03:25.776Z</time></trkpt><trkpt lat="44.295005" lon="11.426135"><ele>492.99999999999994</ele><time>2026-04-18T08:03:26.777Z</time></trkpt><trkpt lat="44.2949233" lon="11.426165"><ele>493.0</ele><time>2026-04-18T08:03:27.776Z</time></trkpt><trkpt lat="44.2948267" lon="11.42621"><ele>493.0</ele><time>2026-04-18T08:03:28.776Z</time></trkpt><trkpt lat="44.2947317" lon="11.4262517"><ele>494.4</ele><time>2026-04-18T08:03:29.776Z</time></trkpt><trkpt lat="44.2946567" lon="11.426265"><ele>495.79999999999995</ele><time>2026-04-18T08:03:30.777Z</time></trkpt><trkpt lat="44.2945833" lon="11.4262783"><ele>497.2</ele><time>2026-04-18T08:03:31.776Z</time></trkpt><trkpt lat="44.294475" lon="11.426335"><ele>498.6</ele><time>2026-04-18T08:03:33.777Z</time></trkpt><trkpt lat="44.294415" lon="11.4264983"><ele>500.0</ele><time>2026-04-18T08:03:35.777Z</time></trkpt><trkpt lat="44.2943933" lon="11.42662"><ele>500.0</ele><time>2026-04-18T08:03:36.776Z</time></trkpt><trkpt lat="44.294355" lon="11.4267733"><ele>500.0</ele><time>2026-04-18T08:03:37.777Z</time></trkpt><trkpt lat="44.2942933" lon="11.426955"><ele>500.0</ele><time>2026-04-18T08:03:38.776Z</time></trkpt><trkpt lat="44.294245" lon="11.4271233"><ele>500.0</ele><time>2026-04-18T08:03:39.776Z</time></trkpt><trkpt lat="44.2942133" lon="11.4272633"><ele>499.66666666666663</ele><time>2026-04-18T08:03:40.776Z</time></trkpt><trkpt lat="44.294175" lon="11.4273733"><ele>499.3333333333333</ele><time>2026-04-18T08:03:41.776Z</time></trkpt><trkpt lat="44.2941183" lon="11.4274467"><ele>499.0</ele><time>2026-04-18T08:03:42.776Z</time></trkpt><trkpt lat="44.2940517" lon="11.4275133"><ele>498.66666666666663</ele><time>2026-04-18T08:03:43.776Z</time></trkpt><trkpt lat="44.29398" lon="11.4275817"><ele>498.3333333333333</ele><time>2026-04-18T08:03:44.777Z</time></trkpt><trkpt lat="44.29389" lon="11.427655"><ele>498.0</ele><time>2026-04-18T08:03:45.776Z</time></trkpt><trkpt lat="44.2937933" lon="11.4277183"><ele>497.0</ele><time>2026-04-18T08:03:46.776Z</time></trkpt><trkpt lat="44.29369" lon="11.4277833"><ele>496.0</ele><time>2026-04-18T08:03:47.777Z</time></trkpt><trkpt lat="44.293575" lon="11.4278483"><ele>495.0</ele><time>2026-04-18T08:03:48.777Z</time></trkpt><trkpt lat="44.2934667" lon="11.4279167"><ele>494.0</ele><time>2026-04-18T08:03:49.776Z</time></trkpt><trkpt lat="44.2933767" lon="11.4279867"><ele>493.99999999999994</ele><time>2026-04-18T08:03:50.776Z</time></trkpt><trkpt lat="44.2933" lon="11.4280383"><ele>494.0</ele><time>2026-04-18T08:03:51.776Z</time></trkpt><trkpt lat="44.29322" lon="11.4280733"><ele>494.0</ele><time>2026-04-18T08:03:52.776Z</time></trkpt><trkpt lat="44.29314" lon="11.42811"><ele>494.0</ele><time>2026-04-18T08:03:53.776Z</time></trkpt><trkpt lat="44.29306" lon="11.4281417"><ele>493.99999999999994</ele><time>2026-04-18T08:03:54.776Z</time></trkpt><trkpt lat="44.2929783" lon="11.4281567"><ele>494.0</ele><time>2026-04-18T08:03:55.776Z</time></trkpt><trkpt lat="44.292885" lon="11.428155"><ele>492.2</ele><time>2026-04-18T08:03:56.777Z</time></trkpt><trkpt lat="44.29279" lon="11.4281317"><ele>490.4</ele><time>2026-04-18T08:03:57.776Z</time></trkpt><trkpt lat="44.2926867" lon="11.4281"><ele>488.6</ele><time>2026-04-18T08:03:58.777Z</time></trkpt><trkpt lat="44.2925917" lon="11.4280733"><ele>486.8</ele><time>2026-04-18T08:03:59.776Z</time></trkpt><trkpt lat="44.2925083" lon="11.428045"><ele>485.0</ele><time>2026-04-18T08:04:00.777Z</time></trkpt><trkpt lat="44.2924333" lon="11.42801"><ele>485.66666666666663</ele><time>2026-04-18T08:04:01.776Z</time></trkpt><trkpt lat="44.292365" lon="11.4279683"><ele>486.3333333333333</ele><time>2026-04-18T08:04:02.777Z</time></trkpt><trkpt lat="44.2923" lon="11.4279217"><ele>487.0</ele><time>2026-04-18T08:04:03.777Z</time></trkpt><trkpt lat="44.29223" lon="11.42785"><ele>487.66666666666663</ele><time>2026-04-18T08:04:04.777Z</time></trkpt><trkpt lat="44.2921667" lon="11.4277533"><ele>488.3333333333333</ele><time>2026-04-18T08:04:05.777Z</time></trkpt><trkpt lat="44.2921117" lon="11.4276383"><ele>489.0</ele><time>2026-04-18T08:04:06.777Z</time></trkpt><trkpt lat="44.2920517" lon="11.4275317"><ele>489.0</ele><time>2026-04-18T08:04:07.776Z</time></trkpt><trkpt lat="44.291985" lon="11.42744"><ele>489.0</ele><time>2026-04-18T08:04:08.776Z</time></trkpt><trkpt lat="44.2919017" lon="11.4273683"><ele>489.0</ele><time>2026-04-18T08:04:09.777Z</time></trkpt><trkpt lat="44.2918133" lon="11.427315"><ele>489.0</ele><time>2026-04-18T08:04:10.776Z</time></trkpt><trkpt lat="44.2917283" lon="11.42727"><ele>489.0</ele><time>2026-04-18T08:04:11.776Z</time></trkpt><trkpt lat="44.2916467" lon="11.42724"><ele>489.0</ele><time>2026-04-18T08:04:12.777Z</time></trkpt><trkpt lat="44.291555" lon="11.42723"><ele>489.0</ele><time>2026-04-18T08:04:13.776Z</time></trkpt><trkpt lat="44.2914667" lon="11.4272433"><ele>489.0</ele><time>2026-04-18T08:04:14.776Z</time></trkpt><trkpt lat="44.2913733" lon="11.4272767"><ele>489.0</ele><time>2026-04-18T08:04:15.777Z</time></trkpt><trkpt lat="44.2912983" lon="11.42733"><ele>489.0</ele><time>2026-04-18T08:04:16.776Z</time></trkpt><trkpt lat="44.29123" lon="11.427395"><ele>489.0</ele><time>2026-04-18T08:04:17.777Z</time></trkpt><trkpt lat="44.2911733" lon="11.427475"><ele>489.5</ele><time>2026-04-18T08:04:18.777Z</time></trkpt><trkpt lat="44.2911217" lon="11.42757"><ele>490.0</ele><time>2026-04-18T08:04:19.776Z</time></trkpt><trkpt lat="44.291065" lon="11.42766"><ele>490.5</ele><time>2026-04-18T08:04:20.776Z</time></trkpt><trkpt lat="44.2910017" lon="11.4277267"><ele>491.0</ele><time>2026-04-18T08:04:21.776Z</time></trkpt><trkpt lat="44.2909367" lon="11.42774"><ele>491.5</ele><time>2026-04-18T08:04:22.776Z</time></trkpt><trkpt lat="44.290855" lon="11.4277217"><ele>492.0</ele><time>2026-04-18T08:04:23.777Z</time></trkpt><trkpt lat="44.2907733" lon="11.4276817"><ele>492.00000000000006</ele><time>2026-04-18T08:04:24.777Z</time></trkpt><trkpt lat="44.290705" lon="11.4276233"><ele>492.0</ele><time>2026-04-18T08:04:25.776Z</time></trkpt><trkpt lat="44.2906467" lon="11.427565"><ele>492.00000000000006</ele><time>2026-04-18T08:04:26.776Z</time></trkpt><trkpt lat="44.290585" lon="11.4275283"><ele>492.00000000000006</ele><time>2026-04-18T08:04:27.777Z</time></trkpt><trkpt lat="44.2905217" lon="11.427515"><ele>492.0</ele><time>2026-04-18T08:04:28.776Z</time></trkpt><trkpt lat="44.2904433" lon="11.42752"><ele>492.00000000000006</ele><time>2026-04-18T08:04:29.777Z</time></trkpt><trkpt lat="44.2903667" lon="11.4275467"><ele>492.00000000000006</ele><time>2026-04-18T08:04:30.776Z</time></trkpt><trkpt lat="44.2902917" lon="11.4275983"><ele>491.0</ele><time>2026-04-18T08:04:31.776Z</time></trkpt><trkpt lat="44.2902183" lon="11.4276933"><ele>490.00000000000006</ele><time>2026-04-18T08:04:32.777Z</time></trkpt><trkpt lat="44.2901517" lon="11.427815"><ele>489.00000000000006</ele><time>2026-04-18T08:04:33.776Z</time></trkpt><trkpt lat="44.290095" lon="11.4279183"><ele>488.0</ele><time>2026-04-18T08:04:34.776Z</time></trkpt><trkpt lat="44.2900267" lon="11.427985"><ele>487.0</ele><time>2026-04-18T08:04:35.777Z</time></trkpt><trkpt lat="44.2899517" lon="11.4280233"><ele>487.0</ele><time>2026-04-18T08:04:36.776Z</time></trkpt><trkpt lat="44.2898517" lon="11.4280317"><ele>487.00000000000006</ele><time>2026-04-18T08:04:37.776Z</time></trkpt><trkpt lat="44.289745" lon="11.42804"><ele>487.00000000000006</ele><time>2026-04-18T08:04:38.776Z</time></trkpt><trkpt lat="44.289645" lon="11.4280583"><ele>487.0</ele><time>2026-04-18T08:04:39.776Z</time></trkpt><trkpt lat="44.2895633" lon="11.4280917"><ele>487.0</ele><time>2026-04-18T08:04:40.776Z</time></trkpt><trkpt lat="44.28948" lon="11.4281217"><ele>488.1666666666667</ele><time>2026-04-18T08:04:41.777Z</time></trkpt><trkpt lat="44.2894017" lon="11.42813"><ele>489.33333333333337</ele><time>2026-04-18T08:04:42.777Z</time></trkpt><trkpt lat="44.289325" lon="11.428115"><ele>490.5</ele><time>2026-04-18T08:04:43.777Z</time></trkpt><trkpt lat="44.2892467" lon="11.4280733"><ele>491.66666666666663</ele><time>2026-04-18T08:04:44.776Z</time></trkpt><trkpt lat="44.2891583" lon="11.428015"><ele>492.8333333333333</ele><time>2026-04-18T08:04:45.777Z</time></trkpt><trkpt lat="44.2890683" lon="11.4279517"><ele>494.0</ele><time>2026-04-18T08:04:46.777Z</time></trkpt><trkpt lat="44.2889883" lon="11.4279183"><ele>493.8333333333333</ele><time>2026-04-18T08:04:47.776Z</time></trkpt><trkpt lat="44.2889117" lon="11.427905"><ele>493.66666666666663</ele><time>2026-04-18T08:04:48.776Z</time></trkpt><trkpt lat="44.288815" lon="11.4278217"><ele>493.5</ele><time>2026-04-18T08:04:50.777Z</time></trkpt><trkpt lat="44.2887833" lon="11.42774"><ele>493.33333333333337</ele><time>2026-04-18T08:04:51.776Z</time></trkpt><trkpt lat="44.2887667" lon="11.4276167"><ele>493.1666666666667</ele><time>2026-04-18T08:04:52.776Z</time></trkpt><trkpt lat="44.28875" lon="11.4274967"><ele>493.0</ele><time>2026-04-18T08:04:53.777Z</time></trkpt><trkpt lat="44.2887217" lon="11.42738"><ele>493.00000000000006</ele><time>2026-04-18T08:04:54.776Z</time></trkpt><trkpt lat="44.2886867" lon="11.42727"><ele>493.0</ele><time>2026-04-18T08:04:55.777Z</time></trkpt><trkpt lat="44.2886467" lon="11.42717"><ele>493.0</ele><time>2026-04-18T08:04:56.777Z</time></trkpt><trkpt lat="44.288595" lon="11.427085"><ele>493.0</ele><time>2026-04-18T08:04:57.777Z</time></trkpt><trkpt lat="44.2885333" lon="11.427015"><ele>493.00000000000006</ele><time>2026-04-18T08:04:58.777Z</time></trkpt><trkpt lat="44.28846" lon="11.4269533"><ele>493.0</ele><time>2026-04-18T08:04:59.777Z</time></trkpt><trkpt lat="44.288375" lon="11.426895"><ele>495.2</ele><time>2026-04-18T08:05:00.776Z</time></trkpt><trkpt lat="44.288295" lon="11.426825"><ele>497.4</ele><time>2026-04-18T08:05:01.776Z</time></trkpt><trkpt lat="44.288205" lon="11.4267617"><ele>499.59999999999997</ele><time>2026-04-18T08:05:02.777Z</time></trkpt><trkpt lat="44.2881083" lon="11.4267233"><ele>501.79999999999995</ele><time>2026-04-18T08:05:03.777Z</time></trkpt><trkpt lat="44.2880083" lon="11.4267017"><ele>504.0</ele><time>2026-04-18T08:05:04.777Z</time></trkpt><trkpt lat="44.2879033" lon="11.4266667"><ele>504.2</ele><time>2026-04-18T08:05:05.776Z</time></trkpt><trkpt lat="44.2878033" lon="11.4266333"><ele>504.4</ele><time>2026-04-18T08:05:06.776Z</time></trkpt><trkpt lat="44.2877183" lon="11.42662"><ele>504.6</ele><time>2026-04-18T08:05:07.776Z</time></trkpt><trkpt lat="44.2876217" lon="11.426635"><ele>504.8</ele><time>2026-04-18T08:05:08.776Z</time></trkpt><trkpt lat="44.2875367" lon="11.42667"><ele>505.0</ele><time>2026-04-18T08:05:09.776Z</time></trkpt><trkpt lat="44.2874633" lon="11.4267183"><ele>505.0</ele><time>2026-04-18T08:05:10.776Z</time></trkpt><trkpt lat="44.28739" lon="11.4267633"><ele>504.99999999999994</ele><time>2026-04-18T08:05:11.776Z</time></trkpt><trkpt lat="44.287325" lon="11.4267967"><ele>505.0</ele><time>2026-04-18T08:05:12.776Z</time></trkpt><trkpt lat="44.2872617" lon="11.42682"><ele>505.0</ele><time>2026-04-18T08:05:13.777Z</time></trkpt><trkpt lat="44.287195" lon="11.4268167"><ele>504.99999999999994</ele><time>2026-04-18T08:05:14.777Z</time></trkpt><trkpt lat="44.2871217" lon="11.4267983"><ele>505.0</ele><time>2026-04-18T08:05:15.777Z</time></trkpt><trkpt lat="44.2870583" lon="11.4267667"><ele>505.0</ele><time>2026-04-18T08:05:16.776Z</time></trkpt><trkpt lat="44.2869817" lon="11.4266917"><ele>503.6</ele><time>2026-04-18T08:05:17.776Z</time></trkpt><trkpt lat="44.28691" lon="11.426605"><ele>502.2</ele><time>2026-04-18T08:05:18.776Z</time></trkpt><trkpt lat="44.2868467" lon="11.426515"><ele>500.79999999999995</ele><time>2026-04-18T08:05:19.776Z</time></trkpt><trkpt lat="44.2867783" lon="11.4264067"><ele>499.4</ele><time>2026-04-18T08:05:20.776Z</time></trkpt><trkpt lat="44.2867133" lon="11.4263083"><ele>498.0</ele><time>2026-04-18T08:05:21.776Z</time></trkpt><trkpt lat="44.2866367" lon="11.426225"><ele>500.79999999999995</ele><time>2026-04-18T08:05:22.776Z</time></trkpt><trkpt lat="44.28655" lon="11.4261667"><ele>503.59999999999997</ele><time>2026-04-18T08:05:23.776Z</time></trkpt><trkpt lat="44.286455" lon="11.4261283"><ele>506.40000000000003</ele><time>2026-04-18T08:05:24.777Z</time></trkpt><trkpt lat="44.2863583" lon="11.4261117"><ele>509.20000000000005</ele><time>2026-04-18T08:05:25.776Z</time></trkpt><trkpt lat="44.2862717" lon="11.4261117"><ele>512.0</ele><time>2026-04-18T08:05:26.777Z</time></trkpt><trkpt lat="44.2861717" lon="11.4261233"><ele>512.0</ele><time>2026-04-18T08:05:27.776Z</time></trkpt><trkpt lat="44.2860717" lon="11.4261183"><ele>512.0</ele><time>2026-04-18T08:05:28.776Z</time></trkpt><trkpt lat="44.2859667" lon="11.4260933"><ele>512.0</ele><time>2026-04-18T08:05:29.775Z</time></trkpt><trkpt lat="44.2858467" lon="11.4260467"><ele>512.0</ele><time>2026-04-18T08:05:30.775Z</time></trkpt><trkpt lat="44.2857283" lon="11.4259983"><ele>512.0</ele><time>2026-04-18T08:05:31.775Z</time></trkpt><trkpt lat="44.2856233" lon="11.425945"><ele>512.0</ele><time>2026-04-18T08:05:32.775Z</time></trkpt><trkpt lat="44.28552" lon="11.425895"><ele>512.0</ele><time>2026-04-18T08:05:33.775Z</time></trkpt><trkpt lat="44.2854217" lon="11.4258483"><ele>512.0</ele><time>2026-04-18T08:05:34.776Z</time></trkpt><trkpt lat="44.28533" lon="11.4258367"><ele>512.0</ele><time>2026-04-18T08:05:35.775Z</time></trkpt><trkpt lat="44.285245" lon="11.4258583"><ele>512.1666666666666</ele><time>2026-04-18T08:05:36.775Z</time></trkpt><trkpt lat="44.2851817" lon="11.425925"><ele>512.3333333333333</ele><time>2026-04-18T08:05:37.775Z</time></trkpt><trkpt lat="44.28513" lon="11.4260267"><ele>512.5</ele><time>2026-04-18T08:05:38.775Z</time></trkpt><trkpt lat="44.2850767" lon="11.4261267"><ele>512.6666666666666</ele><time>2026-04-18T08:05:39.775Z</time></trkpt><trkpt lat="44.2850133" lon="11.4262083"><ele>512.8333333333334</ele><time>2026-04-18T08:05:40.775Z</time></trkpt><trkpt lat="44.28494" lon="11.4262633"><ele>513.0</ele><time>2026-04-18T08:05:41.775Z</time></trkpt><trkpt lat="44.2848683" lon="11.4262767"><ele>513.0</ele><time>2026-04-18T08:05:42.775Z</time></trkpt><trkpt lat="44.2848" lon="11.426255"><ele>513.0</ele><time>2026-04-18T08:05:43.775Z</time></trkpt><trkpt lat="44.2846917" lon="11.4261933"><ele>513.0</ele><time>2026-04-18T08:05:45.776Z</time></trkpt><trkpt lat="44.2846067" lon="11.4261333"><ele>513.0</ele><time>2026-04-18T08:05:47.775Z</time></trkpt><trkpt lat="44.2845483" lon="11.4260783"><ele>513.0</ele><time>2026-04-18T08:13:54.774Z</time></trkpt><trkpt lat="44.28454" lon="11.4259683"><ele>513.0</ele><time>2026-04-18T08:13:56.774Z</time></trkpt><trkpt lat="44.2845733" lon="11.42583"><ele>515.1999999999999</ele><time>2026-04-18T08:13:58.773Z</time></trkpt><trkpt lat="44.2846433" lon="11.4257067"><ele>517.4</ele><time>2026-04-18T08:14:00.773Z</time></trkpt><trkpt lat="44.284695" lon="11.425635"><ele>519.5999999999999</ele><time>2026-04-18T08:14:01.774Z</time></trkpt><trkpt lat="44.2847517" lon="11.425525"><ele>521.8</ele><time>2026-04-18T08:14:02.774Z</time></trkpt><trkpt lat="44.284815" lon="11.42539"><ele>524.0</ele><time>2026-04-18T08:14:03.774Z</time></trkpt><trkpt lat="44.284865" lon="11.42527"><ele>524.2</ele><time>2026-04-18T08:14:04.774Z</time></trkpt><trkpt lat="44.2849233" lon="11.4251667"><ele>524.4</ele><time>2026-04-18T08:14:05.773Z</time></trkpt><trkpt lat="44.2850033" lon="11.4250767"><ele>524.6</ele><time>2026-04-18T08:14:06.774Z</time></trkpt><trkpt lat="44.2851033" lon="11.4249983"><ele>524.8</ele><time>2026-04-18T08:14:07.773Z</time></trkpt><trkpt lat="44.28522" lon="11.4249317"><ele>525.0</ele><time>2026-04-18T08:14:08.774Z</time></trkpt><trkpt lat="44.2853467" lon="11.4248783"><ele>525.0</ele><time>2026-04-18T08:14:09.773Z</time></trkpt><trkpt lat="44.28546" lon="11.4248433"><ele>525.0</ele><time>2026-04-18T08:14:10.773Z</time></trkpt><trkpt lat="44.2855617" lon="11.4248283"><ele>525.0</ele><time>2026-04-18T08:14:11.774Z</time></trkpt><trkpt lat="44.2856533" lon="11.4248233"><ele>525.0</ele><time>2026-04-18T08:14:12.773Z</time></trkpt><trkpt lat="44.28574" lon="11.424825"><ele>525.0</ele><time>2026-04-18T08:14:13.773Z</time></trkpt><trkpt lat="44.2858267" lon="11.424825"><ele>525.3333333333334</ele><time>2026-04-18T08:14:14.773Z</time></trkpt><trkpt lat="44.2859033" lon="11.4248067"><ele>525.6666666666666</ele><time>2026-04-18T08:14:15.774Z</time></trkpt><trkpt lat="44.2859767" lon="11.4247633"><ele>526.0</ele><time>2026-04-18T08:14:16.773Z</time></trkpt><trkpt lat="44.2860367" lon="11.4247083"><ele>526.3333333333333</ele><time>2026-04-18T08:14:17.773Z</time></trkpt><trkpt lat="44.2861267" lon="11.42461"><ele>526.6666666666666</ele><time>2026-04-18T08:14:19.773Z</time></trkpt><trkpt lat="44.2862" lon="11.4245217"><ele>527.0</ele><time>2026-04-18T08:14:21.773Z</time></trkpt><trkpt lat="44.28624" lon="11.4244533"><ele>527.3333333333333</ele><time>2026-04-18T08:14:23.773Z</time></trkpt><trkpt lat="44.2862733" lon="11.424365"><ele>527.6666666666666</ele><time>2026-04-18T08:14:26.773Z</time></trkpt><trkpt lat="44.2862117" lon="11.424305"><ele>528.0</ele><time>2026-04-18T08:14:30.774Z</time></trkpt><trkpt lat="44.286095" lon="11.4243867"><ele>528.3333333333334</ele><time>2026-04-18T08:14:32.774Z</time></trkpt><trkpt lat="44.2860283" lon="11.4244317"><ele>528.6666666666667</ele><time>2026-04-18T08:14:33.773Z</time></trkpt><trkpt lat="44.2859483" lon="11.4244667"><ele>529.0</ele><time>2026-04-18T08:14:34.773Z</time></trkpt><trkpt lat="44.2858483" lon="11.4244833"><ele>529.0</ele><time>2026-04-18T08:14:35.773Z</time></trkpt><trkpt lat="44.2857383" lon="11.42448"><ele>529.0</ele><time>2026-04-18T08:14:36.773Z</time></trkpt><trkpt lat="44.2856083" lon="11.4244617"><ele>529.0</ele><time>2026-04-18T08:14:37.773Z</time></trkpt><trkpt lat="44.2854617" lon="11.4244383"><ele>529.0</ele><time>2026-04-18T08:14:38.774Z</time></trkpt><trkpt lat="44.285305" lon="11.424425"><ele>528.3333333333334</ele><time>2026-04-18T08:14:39.773Z</time></trkpt><trkpt lat="44.2851367" lon="11.4244267"><ele>527.6666666666666</ele><time>2026-04-18T08:14:40.774Z</time></trkpt><trkpt lat="44.284965" lon="11.4244317"><ele>527.0</ele><time>2026-04-18T08:14:41.774Z</time></trkpt><trkpt lat="44.28478" lon="11.4244533"><ele>527.0</ele><time>2026-04-18T08:14:42.773Z</time></trkpt><trkpt lat="44.2845717" lon="11.4244817"><ele>527.0</ele><time>2026-04-18T08:14:43.774Z</time></trkpt><trkpt lat="44.2843767" lon="11.424515"><ele>527.0</ele><time>2026-04-18T08:14:44.773Z</time></trkpt><trkpt lat="44.284205" lon="11.4245617"><ele>527.0</ele><time>2026-04-18T08:14:45.773Z</time></trkpt><trkpt lat="44.2840517" lon="11.424615"><ele>527.0</ele><time>2026-04-18T08:14:46.774Z</time></trkpt><trkpt lat="44.2838933" lon="11.4246633"><ele>527.0</ele><time>2026-04-18T08:14:47.774Z</time></trkpt><trkpt lat="44.2837333" lon="11.4246983"><ele>531.5</ele><time>2026-04-18T08:14:48.774Z</time></trkpt><trkpt lat="44.2835817" lon="11.4247433"><ele>536.0</ele><time>2026-04-18T08:14:49.773Z</time></trkpt><trkpt lat="44.2834383" lon="11.424755"><ele>540.5</ele><time>2026-04-18T08:14:50.773Z</time></trkpt><trkpt lat="44.283295" lon="11.42476"><ele>545.0</ele><time>2026-04-18T08:14:51.774Z</time></trkpt><trkpt lat="44.2831533" lon="11.4247633"><ele>548.0</ele><time>2026-04-18T08:14:52.773Z</time></trkpt><trkpt lat="44.28301" lon="11.4247683"><ele>551.0</ele><time>2026-04-18T08:14:53.773Z</time></trkpt><trkpt lat="44.2828833" lon="11.42476"><ele>554.0</ele><time>2026-04-18T08:14:54.774Z</time></trkpt><trkpt lat="44.2827533" lon="11.4247317"><ele>557.0</ele><time>2026-04-18T08:14:55.774Z</time></trkpt><trkpt lat="44.2826433" lon="11.42468"><ele>556.25</ele><time>2026-04-18T08:14:56.773Z</time></trkpt><trkpt lat="44.2825417" lon="11.4246"><ele>555.5</ele><time>2026-04-18T08:14:57.773Z</time></trkpt><trkpt lat="44.2824333" lon="11.4245383"><ele>554.75</ele><time>2026-04-18T08:14:58.773Z</time></trkpt><trkpt lat="44.282315" lon="11.424515"><ele>554.0</ele><time>2026-04-18T08:14:59.774Z</time></trkpt><trkpt lat="44.2821783" lon="11.4245033"><ele>554.0</ele><time>2026-04-18T08:15:00.774Z</time></trkpt><trkpt lat="44.2820433" lon="11.4244783"><ele>554.0</ele><time>2026-04-18T08:15:01.773Z</time></trkpt><trkpt lat="44.28192" lon="11.4244317"><ele>554.0</ele><time>2026-04-18T08:15:02.773Z</time></trkpt><trkpt lat="44.28181" lon="11.4243117"><ele>554.0</ele><time>2026-04-18T08:15:03.773Z</time></trkpt><trkpt lat="44.2817133" lon="11.4241717"><ele>554.0</ele><time>2026-04-18T08:15:04.772Z</time></trkpt><trkpt lat="44.2816133" lon="11.4240567"><ele>554.0</ele><time>2026-04-18T08:15:05.773Z</time></trkpt><trkpt lat="44.2815183" lon="11.4239667"><ele>554.0</ele><time>2026-04-18T08:15:06.773Z</time></trkpt><trkpt lat="44.28143" lon="11.4238883"><ele>554.0</ele><time>2026-04-18T08:15:07.773Z</time></trkpt><trkpt lat="44.2813417" lon="11.4238333"><ele>554.0</ele><time>2026-04-18T08:15:08.772Z</time></trkpt><trkpt lat="44.281245" lon="11.423805"><ele>555.75</ele><time>2026-04-18T08:15:09.772Z</time></trkpt><trkpt lat="44.2811333" lon="11.4238367"><ele>557.5</ele><time>2026-04-18T08:15:10.772Z</time></trkpt><trkpt lat="44.281015" lon="11.4239"><ele>559.25</ele><time>2026-04-18T08:15:11.773Z</time></trkpt><trkpt lat="44.280895" lon="11.423965"><ele>561.0</ele><time>2026-04-18T08:15:12.772Z</time></trkpt><trkpt lat="44.28076" lon="11.4240267"><ele>561.0</ele><time>2026-04-18T08:15:13.773Z</time></trkpt><trkpt lat="44.2806217" lon="11.4240767"><ele>561.0</ele><time>2026-04-18T08:15:14.772Z</time></trkpt><trkpt lat="44.280495" lon="11.4241167"><ele>561.0</ele><time>2026-04-18T08:15:15.772Z</time></trkpt><trkpt lat="44.2803783" lon="11.4241717"><ele>561.0</ele><time>2026-04-18T08:15:16.772Z</time></trkpt><trkpt lat="44.280255" lon="11.42423"><ele>561.25</ele><time>2026-04-18T08:15:17.772Z</time></trkpt><trkpt lat="44.2801317" lon="11.4242933"><ele>561.5</ele><time>2026-04-18T08:15:18.773Z</time></trkpt><trkpt lat="44.280015" lon="11.4243183"><ele>561.75</ele><time>2026-04-18T08:15:19.772Z</time></trkpt><trkpt lat="44.2799033" lon="11.42431"><ele>562.0</ele><time>2026-04-18T08:15:20.773Z</time></trkpt><trkpt lat="44.279795" lon="11.4242717"><ele>563.25</ele><time>2026-04-18T08:15:21.773Z</time></trkpt><trkpt lat="44.2797" lon="11.4241967"><ele>564.5</ele><time>2026-04-18T08:15:22.772Z</time></trkpt><trkpt lat="44.2795933" lon="11.4241133"><ele>565.75</ele><time>2026-04-18T08:15:23.772Z</time></trkpt><trkpt lat="44.2794833" lon="11.4240517"><ele>567.0</ele><time>2026-04-18T08:15:24.772Z</time></trkpt><trkpt lat="44.2793633" lon="11.4240417"><ele>567.0</ele><time>2026-04-18T08:15:25.773Z</time></trkpt><trkpt lat="44.2792333" lon="11.4240433"><ele>567.0</ele><time>2026-04-18T08:15:26.772Z</time></trkpt><trkpt lat="44.2791133" lon="11.424035"><ele>567.0</ele><time>2026-04-18T08:15:27.772Z</time></trkpt><trkpt lat="44.2789933" lon="11.42401"><ele>567.0</ele><time>2026-04-18T08:15:28.772Z</time></trkpt><trkpt lat="44.2788733" lon="11.4239433"><ele>567.75</ele><time>2026-04-18T08:15:29.772Z</time></trkpt><trkpt lat="44.278775" lon="11.4238633"><ele>568.5</ele><time>2026-04-18T08:15:30.772Z</time></trkpt><trkpt lat="44.2786833" lon="11.42376"><ele>569.25</ele><time>2026-04-18T08:15:31.772Z</time></trkpt><trkpt lat="44.2786167" lon="11.4236367"><ele>570.0</ele><time>2026-04-18T08:15:32.773Z</time></trkpt><trkpt lat="44.2785467" lon="11.4235167"><ele>570.0</ele><time>2026-04-18T08:15:33.772Z</time></trkpt><trkpt lat="44.2784617" lon="11.42342"><ele>570.0</ele><time>2026-04-18T08:15:34.772Z</time></trkpt><trkpt lat="44.2783567" lon="11.4233517"><ele>570.0</ele><time>2026-04-18T08:15:35.772Z</time></trkpt><trkpt lat="44.278255" lon="11.4233033"><ele>570.0</ele><time>2026-04-18T08:15:36.773Z</time></trkpt><trkpt lat="44.27815" lon="11.4232733"><ele>570.0</ele><time>2026-04-18T08:15:37.772Z</time></trkpt><trkpt lat="44.2780417" lon="11.42323"><ele>571.25</ele><time>2026-04-18T08:15:38.773Z</time></trkpt><trkpt lat="44.2779233" lon="11.4231967"><ele>572.5</ele><time>2026-04-18T08:15:39.772Z</time></trkpt><trkpt lat="44.2778083" lon="11.4231517"><ele>573.75</ele><time>2026-04-18T08:15:40.772Z</time></trkpt><trkpt lat="44.2777" lon="11.4231033"><ele>575.0</ele><time>2026-04-18T08:15:41.772Z</time></trkpt><trkpt lat="44.27759" lon="11.4230567"><ele>575.0</ele><time>2026-04-18T08:15:42.772Z</time></trkpt><trkpt lat="44.2774583" lon="11.4230183"><ele>575.0</ele><time>2026-04-18T08:15:43.772Z</time></trkpt><trkpt lat="44.2773367" lon="11.422995"><ele>575.0</ele><time>2026-04-18T08:15:44.772Z</time></trkpt><trkpt lat="44.2772233" lon="11.422975"><ele>575.0</ele><time>2026-04-18T08:15:45.773Z</time></trkpt><trkpt lat="44.2771017" lon="11.4229717"><ele>574.0</ele><time>2026-04-18T08:15:46.772Z</time></trkpt><trkpt lat="44.27698" lon="11.422965"><ele>573.0</ele><time>2026-04-18T08:15:47.772Z</time></trkpt><trkpt lat="44.2768717" lon="11.42295"><ele>572.0</ele><time>2026-04-18T08:15:48.773Z</time></trkpt><trkpt lat="44.2767633" lon="11.422925"><ele>571.0</ele><time>2026-04-18T08:15:49.772Z</time></trkpt><trkpt lat="44.2766567" lon="11.42287"><ele>571.0</ele><time>2026-04-18T08:15:50.772Z</time></trkpt><trkpt lat="44.2765467" lon="11.4228033"><ele>571.0</ele><time>2026-04-18T08:15:51.773Z</time></trkpt><trkpt lat="44.2764333" lon="11.42272"><ele>571.0</ele><time>2026-04-18T08:15:52.772Z</time></trkpt><trkpt lat="44.27631" lon="11.42262"><ele>571.0</ele><time>2026-04-18T08:15:53.772Z</time></trkpt><trkpt lat="44.27619" lon="11.4225217"><ele>571.75</ele><time>2026-04-18T08:15:54.772Z</time></trkpt><trkpt lat="44.2760617" lon="11.42241"><ele>572.5</ele><time>2026-04-18T08:15:55.773Z</time></trkpt><trkpt lat="44.2759383" lon="11.4223083"><ele>573.25</ele><time>2026-04-18T08:15:56.773Z</time></trkpt><trkpt lat="44.2758383" lon="11.4222033"><ele>574.0</ele><time>2026-04-18T08:15:57.772Z</time></trkpt><trkpt lat="44.2757583" lon="11.4220817"><ele>575.25</ele><time>2026-04-18T08:15:58.772Z</time></trkpt><trkpt lat="44.2756783" lon="11.4219433"><ele>576.5</ele><time>2026-04-18T08:15:59.773Z</time></trkpt><trkpt lat="44.2756117" lon="11.4218133"><ele>577.75</ele><time>2026-04-18T08:16:00.772Z</time></trkpt><trkpt lat="44.2755217" lon="11.4217367"><ele>579.0</ele><time>2026-04-18T08:16:01.772Z</time></trkpt><trkpt lat="44.2754167" lon="11.4216883"><ele>580.5</ele><time>2026-04-18T08:16:02.772Z</time></trkpt><trkpt lat="44.27531" lon="11.4216767"><ele>582.0</ele><time>2026-04-18T08:16:03.772Z</time></trkpt><trkpt lat="44.27519" lon="11.421695"><ele>583.5</ele><time>2026-04-18T08:16:04.773Z</time></trkpt><trkpt lat="44.2750633" lon="11.4217233"><ele>585.0</ele><time>2026-04-18T08:16:05.773Z</time></trkpt><trkpt lat="44.2749383" lon="11.421765"><ele>585.0</ele><time>2026-04-18T08:16:06.773Z</time></trkpt><trkpt lat="44.274815" lon="11.4217883"><ele>585.0</ele><time>2026-04-18T08:16:07.773Z</time></trkpt><trkpt lat="44.2746967" lon="11.4218017"><ele>585.0</ele><time>2026-04-18T08:16:08.772Z</time></trkpt><trkpt lat="44.2745833" lon="11.4218417"><ele>585.0</ele><time>2026-04-18T08:16:09.773Z</time></trkpt><trkpt lat="44.2744717" lon="11.421915"><ele>585.25</ele><time>2026-04-18T08:16:10.772Z</time></trkpt><trkpt lat="44.27436" lon="11.4219983"><ele>585.5</ele><time>2026-04-18T08:16:11.772Z</time></trkpt><trkpt lat="44.2742383" lon="11.4220667"><ele>585.75</ele><time>2026-04-18T08:16:12.773Z</time></trkpt><trkpt lat="44.2741283" lon="11.4221167"><ele>586.0</ele><time>2026-04-18T08:16:13.772Z</time></trkpt><trkpt lat="44.2740267" lon="11.42217"><ele>585.4</ele><time>2026-04-18T08:16:14.772Z</time></trkpt><trkpt lat="44.2739267" lon="11.4221883"><ele>584.8</ele><time>2026-04-18T08:16:15.773Z</time></trkpt><trkpt lat="44.2738217" lon="11.4221683"><ele>584.1999999999999</ele><time>2026-04-18T08:16:16.772Z</time></trkpt><trkpt lat="44.2737167" lon="11.422115"><ele>583.6</ele><time>2026-04-18T08:16:17.772Z</time></trkpt><trkpt lat="44.2736017" lon="11.42206"><ele>583.0</ele><time>2026-04-18T08:16:18.772Z</time></trkpt><trkpt lat="44.27348" lon="11.422025"><ele>583.0</ele><time>2026-04-18T08:16:19.772Z</time></trkpt><trkpt lat="44.27335" lon="11.4220133"><ele>583.0</ele><time>2026-04-18T08:16:20.772Z</time></trkpt><trkpt lat="44.27321" lon="11.4220167"><ele>583.0</ele><time>2026-04-18T08:16:21.772Z</time></trkpt><trkpt lat="44.273075" lon="11.42202"><ele>583.0</ele><time>2026-04-18T08:16:22.772Z</time></trkpt><trkpt lat="44.27294" lon="11.4220167"><ele>583.0</ele><time>2026-04-18T08:16:23.773Z</time></trkpt><trkpt lat="44.2728017" lon="11.4220117"><ele>583.0</ele><time>2026-04-18T08:16:24.773Z</time></trkpt><trkpt lat="44.2726617" lon="11.4220167"><ele>583.0</ele><time>2026-04-18T08:16:25.772Z</time></trkpt><trkpt lat="44.272525" lon="11.422025"><ele>583.0</ele><time>2026-04-18T08:16:26.772Z</time></trkpt><trkpt lat="44.27239" lon="11.4220367"><ele>583.5</ele><time>2026-04-18T08:16:27.773Z</time></trkpt><trkpt lat="44.2722583" lon="11.4220533"><ele>584.0</ele><time>2026-04-18T08:16:28.773Z</time></trkpt><trkpt lat="44.27213" lon="11.4220683"><ele>584.5</ele><time>2026-04-18T08:16:29.773Z</time></trkpt><trkpt lat="44.272" lon="11.4220933"><ele>585.0</ele><time>2026-04-18T08:16:30.773Z</time></trkpt><trkpt lat="44.271865" lon="11.422125"><ele>586.25</ele><time>2026-04-18T08:16:31.773Z</time></trkpt><trkpt lat="44.271735" lon="11.422165"><ele>587.5</ele><time>2026-04-18T08:16:32.773Z</time></trkpt><trkpt lat="44.271605" lon="11.4221917"><ele>588.75</ele><time>2026-04-18T08:16:33.772Z</time></trkpt><trkpt lat="44.2714783" lon="11.4222017"><ele>590.0</ele><time>2026-04-18T08:16:34.772Z</time></trkpt><trkpt lat="44.2713433" lon="11.42221"><ele>590.0</ele><time>2026-04-18T08:16:35.772Z</time></trkpt><trkpt lat="44.2712017" lon="11.4222117"><ele>590.0</ele><time>2026-04-18T08:16:36.772Z</time></trkpt><trkpt lat="44.27106" lon="11.4222133"><ele>590.0</ele><time>2026-04-18T08:16:37.773Z</time></trkpt><trkpt lat="44.27092" lon="11.42221"><ele>590.0</ele><time>2026-04-18T08:16:38.772Z</time></trkpt><trkpt lat="44.27077" lon="11.4222067"><ele>590.0</ele><time>2026-04-18T08:16:39.772Z</time></trkpt><trkpt lat="44.2706233" lon="11.4222117"><ele>590.0</ele><time>2026-04-18T08:16:40.773Z</time></trkpt><trkpt lat="44.2704833" lon="11.42223"><ele>590.0</ele><time>2026-04-18T08:16:41.772Z</time></trkpt><trkpt lat="44.2703433" lon="11.4222717"><ele>590.0</ele><time>2026-04-18T08:16:42.773Z</time></trkpt><trkpt lat="44.270215" lon="11.4223417"><ele>591.75</ele><time>2026-04-18T08:16:43.773Z</time></trkpt><trkpt lat="44.2701017" lon="11.422415"><ele>593.5</ele><time>2026-04-18T08:16:44.773Z</time></trkpt><trkpt lat="44.2699967" lon="11.422485"><ele>595.25</ele><time>2026-04-18T08:16:45.773Z</time></trkpt><trkpt lat="44.269885" lon="11.4225483"><ele>597.0</ele><time>2026-04-18T08:16:46.773Z</time></trkpt><trkpt lat="44.26979" lon="11.4226233"><ele>597.8000000000001</ele><time>2026-04-18T08:16:47.772Z</time></trkpt><trkpt lat="44.26973" lon="11.4227183"><ele>598.6</ele><time>2026-04-18T08:16:48.772Z</time></trkpt><trkpt lat="44.2696817" lon="11.4228233"><ele>599.4000000000001</ele><time>2026-04-18T08:16:49.773Z</time></trkpt><trkpt lat="44.2696433" lon="11.4229067"><ele>600.2</ele><time>2026-04-18T08:16:50.773Z</time></trkpt><trkpt lat="44.2695267" lon="11.423"><ele>601.0</ele><time>2026-04-18T08:16:52.773Z</time></trkpt><trkpt lat="44.269435" lon="11.4230083"><ele>601.0</ele><time>2026-04-18T08:16:53.772Z</time></trkpt><trkpt lat="44.2693267" lon="11.4229983"><ele>601.0</ele><time>2026-04-18T08:16:54.772Z</time></trkpt><trkpt lat="44.2692117" lon="11.4229683"><ele>601.0</ele><time>2026-04-18T08:16:55.773Z</time></trkpt><trkpt lat="44.26908" lon="11.42294"><ele>601.0</ele><time>2026-04-18T08:16:56.773Z</time></trkpt><trkpt lat="44.2689417" lon="11.4229117"><ele>602.3333333333334</ele><time>2026-04-18T08:16:57.772Z</time></trkpt><trkpt lat="44.2687883" lon="11.4229"><ele>603.6666666666666</ele><time>2026-04-18T08:16:58.772Z</time></trkpt><trkpt lat="44.26863" lon="11.4228883"><ele>605.0</ele><time>2026-04-18T08:16:59.772Z</time></trkpt><trkpt lat="44.2684717" lon="11.422895"><ele>605.0</ele><time>2026-04-18T08:17:00.772Z</time></trkpt><trkpt lat="44.2682967" lon="11.4229133"><ele>605.0</ele><time>2026-04-18T08:17:01.773Z</time></trkpt><trkpt lat="44.26812" lon="11.4229333"><ele>605.0</ele><time>2026-04-18T08:17:02.773Z</time></trkpt><trkpt lat="44.267965" lon="11.42295"><ele>603.75</ele><time>2026-04-18T08:17:03.773Z</time></trkpt><trkpt lat="44.26782" lon="11.422965"><ele>602.5</ele><time>2026-04-18T08:17:04.772Z</time></trkpt><trkpt lat="44.267685" lon="11.4229933"><ele>601.25</ele><time>2026-04-18T08:17:05.772Z</time></trkpt><trkpt lat="44.2675483" lon="11.4230417"><ele>600.0</ele><time>2026-04-18T08:17:06.772Z</time></trkpt><trkpt lat="44.26742" lon="11.42311"><ele>599.75</ele><time>2026-04-18T08:17:07.773Z</time></trkpt><trkpt lat="44.2673" lon="11.4231933"><ele>599.5</ele><time>2026-04-18T08:17:08.772Z</time></trkpt><trkpt lat="44.2671883" lon="11.4233"><ele>599.25</ele><time>2026-04-18T08:17:09.772Z</time></trkpt><trkpt lat="44.2670733" lon="11.4234117"><ele>599.0</ele><time>2026-04-18T08:17:10.773Z</time></trkpt><trkpt lat="44.2669467" lon="11.4235067"><ele>600.0</ele><time>2026-04-18T08:17:11.772Z</time></trkpt><trkpt lat="44.266805" lon="11.4235883"><ele>601.0</ele><time>2026-04-18T08:17:12.773Z</time></trkpt><trkpt lat="44.266645" lon="11.4236583"><ele>602.0</ele><time>2026-04-18T08:17:13.772Z</time></trkpt><trkpt lat="44.2664833" lon="11.4237117"><ele>603.6666666666666</ele><time>2026-04-18T08:17:14.772Z</time></trkpt><trkpt lat="44.2663183" lon="11.4237467"><ele>605.3333333333334</ele><time>2026-04-18T08:17:15.773Z</time></trkpt><trkpt lat="44.2661467" lon="11.423765"><ele>607.0</ele><time>2026-04-18T08:17:16.773Z</time></trkpt><trkpt lat="44.2659767" lon="11.4237783"><ele>607.0</ele><time>2026-04-18T08:17:17.773Z</time></trkpt><trkpt lat="44.2658233" lon="11.4237783"><ele>607.0</ele><time>2026-04-18T08:17:18.772Z</time></trkpt><trkpt lat="44.265685" lon="11.42379"><ele>607.0</ele><time>2026-04-18T08:17:19.772Z</time></trkpt><trkpt lat="44.2655533" lon="11.4238"><ele>607.0</ele><time>2026-04-18T08:17:20.772Z</time></trkpt><trkpt lat="44.2654233" lon="11.4238117"><ele>610.25</ele><time>2026-04-18T08:17:21.772Z</time></trkpt><trkpt lat="44.265295" lon="11.4238183"><ele>613.5</ele><time>2026-04-18T08:17:22.772Z</time></trkpt><trkpt lat="44.26517" lon="11.4238267"><ele>616.75</ele><time>2026-04-18T08:17:23.772Z</time></trkpt><trkpt lat="44.2650533" lon="11.4238317"><ele>620.0</ele><time>2026-04-18T08:17:24.772Z</time></trkpt><trkpt lat="44.2649333" lon="11.423835"><ele>620.0</ele><time>2026-04-18T08:17:25.772Z</time></trkpt><trkpt lat="44.26481" lon="11.4238417"><ele>620.0</ele><time>2026-04-18T08:17:26.773Z</time></trkpt><trkpt lat="44.2647033" lon="11.4238517"><ele>620.0</ele><time>2026-04-18T08:17:27.772Z</time></trkpt><trkpt lat="44.26461" lon="11.4238467"><ele>620.0</ele><time>2026-04-18T08:17:28.772Z</time></trkpt><trkpt lat="44.2645283" lon="11.4238367"><ele>620.0</ele><time>2026-04-18T08:17:29.773Z</time></trkpt><trkpt lat="44.2644467" lon="11.4238283"><ele>620.5</ele><time>2026-04-18T08:17:30.772Z</time></trkpt><trkpt lat="44.2643767" lon="11.4238167"><ele>621.0</ele><time>2026-04-18T08:17:31.773Z</time></trkpt><trkpt lat="44.26431" lon="11.4238267"><ele>621.5</ele><time>2026-04-18T08:17:32.772Z</time></trkpt><trkpt lat="44.2642467" lon="11.4238483"><ele>622.0</ele><time>2026-04-18T08:17:33.772Z</time></trkpt><trkpt lat="44.264185" lon="11.4238717"><ele>622.5</ele><time>2026-04-18T08:17:34.772Z</time></trkpt><trkpt lat="44.2640633" lon="11.4238967"><ele>623.0</ele><time>2026-04-18T08:17:36.772Z</time></trkpt><trkpt lat="44.263995" lon="11.4239033"><ele>624.0</ele><time>2026-04-18T08:17:37.773Z</time></trkpt><trkpt lat="44.2639233" lon="11.4239017"><ele>625.0</ele><time>2026-04-18T08:17:38.772Z</time></trkpt><trkpt lat="44.2638517" lon="11.4239083"><ele>626.0</ele><time>2026-04-18T08:17:39.773Z</time></trkpt><trkpt lat="44.263775" lon="11.4239133"><ele>627.0</ele><time>2026-04-18T08:17:40.772Z</time></trkpt><trkpt lat="44.2636983" lon="11.4239167"><ele>628.0</ele><time>2026-04-18T08:17:41.772Z</time></trkpt><trkpt lat="44.2636133" lon="11.4239333"><ele>629.0</ele><time>2026-04-18T08:17:42.772Z</time></trkpt><trkpt lat="44.2635267" lon="11.4239583"><ele>629.0</ele><time>2026-04-18T08:17:43.772Z</time></trkpt><trkpt lat="44.263435" lon="11.4239917"><ele>629.0</ele><time>2026-04-18T08:17:44.773Z</time></trkpt><trkpt lat="44.263345" lon="11.42402"><ele>629.0</ele><time>2026-04-18T08:17:45.772Z</time></trkpt><trkpt lat="44.26323" lon="11.4240483"><ele>629.0</ele><time>2026-04-18T08:17:46.773Z</time></trkpt><trkpt lat="44.2631" lon="11.4240833"><ele>629.0</ele><time>2026-04-18T08:17:47.772Z</time></trkpt><trkpt lat="44.2629533" lon="11.424125"><ele>630.5</ele><time>2026-04-18T08:17:48.772Z</time></trkpt><trkpt lat="44.2628117" lon="11.4241717"><ele>632.0</ele><time>2026-04-18T08:17:49.772Z</time></trkpt><trkpt lat="44.26269" lon="11.424215"><ele>633.5</ele><time>2026-04-18T08:17:50.772Z</time></trkpt><trkpt lat="44.26259" lon="11.4242333"><ele>635.0</ele><time>2026-04-18T08:17:51.773Z</time></trkpt><trkpt lat="44.2624917" lon="11.4242333"><ele>635.0</ele><time>2026-04-18T08:17:52.772Z</time></trkpt><trkpt lat="44.2623967" lon="11.4242067"><ele>635.0</ele><time>2026-04-18T08:17:53.771Z</time></trkpt><trkpt lat="44.2623033" lon="11.4241483"><ele>635.0</ele><time>2026-04-18T08:17:54.771Z</time></trkpt><trkpt lat="44.2622" lon="11.4240467"><ele>635.0</ele><time>2026-04-18T08:17:55.771Z</time></trkpt><trkpt lat="44.2620883" lon="11.4239383"><ele>637.3333333333333</ele><time>2026-04-18T08:17:56.771Z</time></trkpt><trkpt lat="44.261965" lon="11.4238233"><ele>639.6666666666666</ele><time>2026-04-18T08:17:57.771Z</time></trkpt><trkpt lat="44.2618317" lon="11.4237183"><ele>642.0</ele><time>2026-04-18T08:17:58.771Z</time></trkpt><trkpt lat="44.2616983" lon="11.4236117"><ele>642.25</ele><time>2026-04-18T08:17:59.771Z</time></trkpt><trkpt lat="44.26157" lon="11.4235033"><ele>642.5</ele><time>2026-04-18T08:18:00.772Z</time></trkpt><trkpt lat="44.2614433" lon="11.42339"><ele>642.75</ele><time>2026-04-18T08:18:01.772Z</time></trkpt><trkpt lat="44.2613217" lon="11.4232833"><ele>643.0</ele><time>2026-04-18T08:18:02.772Z</time></trkpt><trkpt lat="44.2611983" lon="11.4231717"><ele>645.0</ele><time>2026-04-18T08:18:03.771Z</time></trkpt><trkpt lat="44.2610867" lon="11.4230617"><ele>647.0</ele><time>2026-04-18T08:18:04.771Z</time></trkpt><trkpt lat="44.2609917" lon="11.4229667"><ele>649.0</ele><time>2026-04-18T08:18:05.772Z</time></trkpt><trkpt lat="44.260905" lon="11.4228867"><ele>651.0</ele><time>2026-04-18T08:18:06.772Z</time></trkpt><trkpt lat="44.260825" lon="11.4228317"><ele>653.0</ele><time>2026-04-18T08:18:07.772Z</time></trkpt><trkpt lat="44.2607483" lon="11.4228033"><ele>653.0</ele><time>2026-04-18T08:18:08.771Z</time></trkpt><trkpt lat="44.2606667" lon="11.4228"><ele>653.0</ele><time>2026-04-18T08:18:09.772Z</time></trkpt><trkpt lat="44.26058" lon="11.4228017"><ele>653.0</ele><time>2026-04-18T08:18:10.772Z</time></trkpt><trkpt lat="44.2604883" lon="11.4228083"><ele>653.0</ele><time>2026-04-18T08:18:11.771Z</time></trkpt><trkpt lat="44.2604017" lon="11.42281"><ele>653.0</ele><time>2026-04-18T08:18:12.772Z</time></trkpt><trkpt lat="44.26033" lon="11.4228183"><ele>653.0</ele><time>2026-04-18T08:18:13.771Z</time></trkpt><trkpt lat="44.2602583" lon="11.42283"><ele>654.4</ele><time>2026-04-18T08:18:14.772Z</time></trkpt><trkpt lat="44.2601283" lon="11.4228267"><ele>655.8</ele><time>2026-04-18T08:18:16.772Z</time></trkpt><trkpt lat="44.2600533" lon="11.4228267"><ele>657.2</ele><time>2026-04-18T08:18:17.772Z</time></trkpt><trkpt lat="44.2599667" lon="11.4228283"><ele>658.6</ele><time>2026-04-18T08:18:18.771Z</time></trkpt><trkpt lat="44.2598733" lon="11.422825"><ele>660.0</ele><time>2026-04-18T08:18:19.771Z</time></trkpt><trkpt lat="44.2597767" lon="11.4228267"><ele>662.0</ele><time>2026-04-18T08:18:20.772Z</time></trkpt><trkpt lat="44.2596617" lon="11.4228317"><ele>664.0</ele><time>2026-04-18T08:18:21.771Z</time></trkpt><trkpt lat="44.2594983" lon="11.4228383"><ele>666.0</ele><time>2026-04-18T08:18:22.771Z</time></trkpt><trkpt lat="44.259335" lon="11.4228417"><ele>668.0</ele><time>2026-04-18T08:18:23.771Z</time></trkpt><trkpt lat="44.25918" lon="11.42284"><ele>668.0</ele><time>2026-04-18T08:18:24.772Z</time></trkpt><trkpt lat="44.25903" lon="11.4228383"><ele>668.0</ele><time>2026-04-18T08:18:25.772Z</time></trkpt><trkpt lat="44.2588967" lon="11.4228333"><ele>668.0</ele><time>2026-04-18T08:18:26.772Z</time></trkpt><trkpt lat="44.258775" lon="11.4228317"><ele>668.0</ele><time>2026-04-18T08:18:27.771Z</time></trkpt><trkpt lat="44.2586617" lon="11.42283"><ele>669.4</ele><time>2026-04-18T08:18:28.771Z</time></trkpt><trkpt lat="44.2585533" lon="11.42283"><ele>670.8</ele><time>2026-04-18T08:18:29.771Z</time></trkpt><trkpt lat="44.2584517" lon="11.42283"><ele>672.2</ele><time>2026-04-18T08:18:30.771Z</time></trkpt><trkpt lat="44.2583583" lon="11.42282"><ele>673.6</ele><time>2026-04-18T08:18:31.771Z</time></trkpt><trkpt lat="44.2582817" lon="11.4228267"><ele>675.0</ele><time>2026-04-18T08:18:32.772Z</time></trkpt><trkpt lat="44.258185" lon="11.42283"><ele>676.0</ele><time>2026-04-18T08:18:33.771Z</time></trkpt><trkpt lat="44.2580933" lon="11.4228367"><ele>677.0</ele><time>2026-04-18T08:18:34.771Z</time></trkpt><trkpt lat="44.2580117" lon="11.4228433"><ele>678.0</ele><time>2026-04-18T08:18:35.771Z</time></trkpt><trkpt lat="44.257935" lon="11.422855"><ele>679.0</ele><time>2026-04-18T08:18:36.771Z</time></trkpt><trkpt lat="44.2578617" lon="11.4228683"><ele>680.0</ele><time>2026-04-18T08:18:37.771Z</time></trkpt><trkpt lat="44.2577883" lon="11.4228767"><ele>681.0</ele><time>2026-04-18T08:18:38.771Z</time></trkpt><trkpt lat="44.2576717" lon="11.42287"><ele>681.0</ele><time>2026-04-18T08:18:40.772Z</time></trkpt><trkpt lat="44.257565" lon="11.4228567"><ele>681.0</ele><time>2026-04-18T08:18:42.771Z</time></trkpt><trkpt lat="44.2574567" lon="11.422835"><ele>681.0</ele><time>2026-04-18T08:18:44.772Z</time></trkpt><trkpt lat="44.2573833" lon="11.4228167"><ele>681.0</ele><time>2026-04-18T08:18:45.771Z</time></trkpt><trkpt lat="44.2573117" lon="11.4227983"><ele>681.0</ele><time>2026-04-18T08:18:46.771Z</time></trkpt><trkpt lat="44.2572417" lon="11.4227733"><ele>681.0</ele><time>2026-04-18T08:18:47.771Z</time></trkpt><trkpt lat="44.2571633" lon="11.4227483"><ele>681.1428571428572</ele><time>2026-04-18T08:18:48.772Z</time></trkpt><trkpt lat="44.2570867" lon="11.42272"><ele>681.2857142857143</ele><time>2026-04-18T08:18:49.771Z</time></trkpt><trkpt lat="44.2570117" lon="11.4226983"><ele>681.4285714285714</ele><time>2026-04-18T08:18:50.771Z</time></trkpt><trkpt lat="44.2569383" lon="11.4226767"><ele>681.5714285714287</ele><time>2026-04-18T08:18:51.772Z</time></trkpt><trkpt lat="44.2568667" lon="11.4226467"><ele>681.7142857142858</ele><time>2026-04-18T08:18:52.771Z</time></trkpt><trkpt lat="44.2568033" lon="11.4226217"><ele>681.8571428571429</ele><time>2026-04-18T08:18:53.771Z</time></trkpt><trkpt lat="44.2567367" lon="11.4226067"><ele>682.0</ele><time>2026-04-18T08:18:54.772Z</time></trkpt><trkpt lat="44.2566183" lon="11.4226017"><ele>682.0</ele><time>2026-04-18T08:18:56.771Z</time></trkpt><trkpt lat="44.2565483" lon="11.4226183"><ele>682.0</ele><time>2026-04-18T08:18:57.771Z</time></trkpt><trkpt lat="44.2564767" lon="11.4226567"><ele>682.0</ele><time>2026-04-18T08:18:58.772Z</time></trkpt><trkpt lat="44.256415" lon="11.4227033"><ele>682.0</ele><time>2026-04-18T08:18:59.772Z</time></trkpt><trkpt lat="44.2563517" lon="11.4227633"><ele>682.0</ele><time>2026-04-18T08:19:00.771Z</time></trkpt><trkpt lat="44.2563033" lon="11.42283"><ele>682.0</ele><time>2026-04-18T08:19:01.771Z</time></trkpt><trkpt lat="44.25625" lon="11.4229"><ele>682.0</ele><time>2026-04-18T08:19:02.771Z</time></trkpt><trkpt lat="44.2562" lon="11.4229683"><ele>682.6666666666667</ele><time>2026-04-18T08:19:03.772Z</time></trkpt><trkpt lat="44.2561483" lon="11.42304"><ele>683.3333333333334</ele><time>2026-04-18T08:19:04.771Z</time></trkpt><trkpt lat="44.2560867" lon="11.42311"><ele>684.0</ele><time>2026-04-18T08:19:05.771Z</time></trkpt><trkpt lat="44.2560167" lon="11.4231733"><ele>684.6666666666666</ele><time>2026-04-18T08:19:06.771Z</time></trkpt><trkpt lat="44.255955" lon="11.423235"><ele>685.3333333333333</ele><time>2026-04-18T08:19:07.771Z</time></trkpt><trkpt lat="44.2558867" lon="11.423295"><ele>686.0</ele><time>2026-04-18T08:19:08.771Z</time></trkpt><trkpt lat="44.255815" lon="11.4233417"><ele>686.0</ele><time>2026-04-18T08:19:09.772Z</time></trkpt><trkpt lat="44.25574" lon="11.423365"><ele>686.0</ele><time>2026-04-18T08:19:10.772Z</time></trkpt><trkpt lat="44.25566" lon="11.423375"><ele>686.0</ele><time>2026-04-18T08:19:11.772Z</time></trkpt><trkpt lat="44.2555833" lon="11.4233667"><ele>686.0</ele><time>2026-04-18T08:19:12.772Z</time></trkpt><trkpt lat="44.2555167" lon="11.4233433"><ele>686.0</ele><time>2026-04-18T08:19:13.772Z</time></trkpt><trkpt lat="44.2554483" lon="11.4233283"><ele>686.0</ele><time>2026-04-18T08:19:14.772Z</time></trkpt><trkpt lat="44.2553817" lon="11.4233183"><ele>686.0</ele><time>2026-04-18T08:19:15.772Z</time></trkpt><trkpt lat="44.2553133" lon="11.4233217"><ele>686.4285714285714</ele><time>2026-04-18T08:19:16.771Z</time></trkpt><trkpt lat="44.25524" lon="11.4233333"><ele>686.8571428571429</ele><time>2026-04-18T08:19:17.771Z</time></trkpt><trkpt lat="44.2551683" lon="11.4233533"><ele>687.2857142857142</ele><time>2026-04-18T08:19:18.771Z</time></trkpt><trkpt lat="44.2551017" lon="11.4233983"><ele>687.7142857142858</ele><time>2026-04-18T08:19:19.771Z</time></trkpt><trkpt lat="44.2550417" lon="11.423475"><ele>688.1428571428571</ele><time>2026-04-18T08:19:20.771Z</time></trkpt><trkpt lat="44.2549983" lon="11.4235567"><ele>688.5714285714286</ele><time>2026-04-18T08:19:21.771Z</time></trkpt><trkpt lat="44.2549483" lon="11.4236333"><ele>689.0</ele><time>2026-04-18T08:19:22.772Z</time></trkpt><trkpt lat="44.2548917" lon="11.4237033"><ele>689.0</ele><time>2026-04-18T08:19:23.771Z</time></trkpt><trkpt lat="44.2548417" lon="11.4237733"><ele>689.0</ele><time>2026-04-18T08:19:24.772Z</time></trkpt><trkpt lat="44.2547867" lon="11.4238433"><ele>689.0</ele><time>2026-04-18T08:19:25.771Z</time></trkpt><trkpt lat="44.25473" lon="11.4239067"><ele>689.0</ele><time>2026-04-18T08:19:26.771Z</time></trkpt><trkpt lat="44.25467" lon="11.4239733"><ele>689.0</ele><time>2026-04-18T08:19:27.772Z</time></trkpt><trkpt lat="44.2546067" lon="11.424045"><ele>689.0</ele><time>2026-04-18T08:19:28.772Z</time></trkpt><trkpt lat="44.2545417" lon="11.4241133"><ele>691.0</ele><time>2026-04-18T08:19:29.771Z</time></trkpt><trkpt lat="44.2544717" lon="11.4241933"><ele>693.0</ele><time>2026-04-18T08:19:30.772Z</time></trkpt><trkpt lat="44.25439" lon="11.424285"><ele>695.0</ele><time>2026-04-18T08:19:31.772Z</time></trkpt><trkpt lat="44.2543" lon="11.42439"><ele>697.0</ele><time>2026-04-18T08:19:32.771Z</time></trkpt><trkpt lat="44.254195" lon="11.4245033"><ele>699.0</ele><time>2026-04-18T08:19:33.772Z</time></trkpt><trkpt lat="44.254085" lon="11.4246433"><ele>701.25</ele><time>2026-04-18T08:19:34.771Z</time></trkpt><trkpt lat="44.253975" lon="11.424775"><ele>703.5</ele><time>2026-04-18T08:19:35.771Z</time></trkpt><trkpt lat="44.2538783" lon="11.4248967"><ele>705.75</ele><time>2026-04-18T08:19:36.771Z</time></trkpt><trkpt lat="44.2537767" lon="11.425005"><ele>708.0</ele><time>2026-04-18T08:19:37.772Z</time></trkpt><trkpt lat="44.25368" lon="11.4250933"><ele>708.0</ele><time>2026-04-18T08:19:38.771Z</time></trkpt><trkpt lat="44.2535867" lon="11.4251733"><ele>708.0</ele><time>2026-04-18T08:19:39.771Z</time></trkpt><trkpt lat="44.253485" lon="11.42524"><ele>708.0</ele><time>2026-04-18T08:19:40.771Z</time></trkpt><trkpt lat="44.2533633" lon="11.425305"><ele>708.0</ele><time>2026-04-18T08:19:41.772Z</time></trkpt><trkpt lat="44.2532217" lon="11.4253717"><ele>708.75</ele><time>2026-04-18T08:19:42.771Z</time></trkpt><trkpt lat="44.25307" lon="11.42543"><ele>709.5</ele><time>2026-04-18T08:19:43.772Z</time></trkpt><trkpt lat="44.252925" lon="11.425485"><ele>710.25</ele><time>2026-04-18T08:19:44.772Z</time></trkpt><trkpt lat="44.25279" lon="11.42553"><ele>711.0</ele><time>2026-04-18T08:19:45.772Z</time></trkpt><trkpt lat="44.2526617" lon="11.42558"><ele>713.75</ele><time>2026-04-18T08:19:46.771Z</time></trkpt><trkpt lat="44.25253" lon="11.4256333"><ele>716.5</ele><time>2026-04-18T08:19:47.772Z</time></trkpt><trkpt lat="44.25239" lon="11.425695"><ele>719.25</ele><time>2026-04-18T08:19:48.772Z</time></trkpt><trkpt lat="44.2522533" lon="11.425755"><ele>722.0</ele><time>2026-04-18T08:19:49.772Z</time></trkpt><trkpt lat="44.2521367" lon="11.42581"><ele>722.0</ele><time>2026-04-18T08:19:50.771Z</time></trkpt><trkpt lat="44.25202" lon="11.4258733"><ele>722.0</ele><time>2026-04-18T08:19:51.771Z</time></trkpt><trkpt lat="44.2518967" lon="11.4259467"><ele>722.0</ele><time>2026-04-18T08:19:52.771Z</time></trkpt><trkpt lat="44.2517783" lon="11.4260483"><ele>722.0</ele><time>2026-04-18T08:19:53.771Z</time></trkpt><trkpt lat="44.251655" lon="11.4261583"><ele>722.0</ele><time>2026-04-18T08:19:54.771Z</time></trkpt><trkpt lat="44.25153" lon="11.4263017"><ele>722.0</ele><time>2026-04-18T08:19:55.771Z</time></trkpt><trkpt lat="44.251415" lon="11.426445"><ele>722.0</ele><time>2026-04-18T08:19:56.772Z</time></trkpt><trkpt lat="44.25131" lon="11.4265683"><ele>724.0</ele><time>2026-04-18T08:19:57.772Z</time></trkpt><trkpt lat="44.25121" lon="11.4266867"><ele>726.0</ele><time>2026-04-18T08:19:58.771Z</time></trkpt><trkpt lat="44.2511167" lon="11.4267817"><ele>728.0</ele><time>2026-04-18T08:19:59.771Z</time></trkpt><trkpt lat="44.2510233" lon="11.4268767"><ele>730.0</ele><time>2026-04-18T08:20:00.771Z</time></trkpt><trkpt lat="44.2509367" lon="11.42697"><ele>730.0</ele><time>2026-04-18T08:20:01.771Z</time></trkpt><trkpt lat="44.2508633" lon="11.4270683"><ele>730.0</ele><time>2026-04-18T08:20:02.771Z</time></trkpt><trkpt lat="44.2508017" lon="11.427185"><ele>730.0</ele><time>2026-04-18T08:20:03.772Z</time></trkpt><trkpt lat="44.250755" lon="11.4273067"><ele>730.0</ele><time>2026-04-18T08:20:04.772Z</time></trkpt><trkpt lat="44.2507217" lon="11.42741"><ele>730.0</ele><time>2026-04-18T08:20:05.772Z</time></trkpt><trkpt lat="44.2506967" lon="11.4275033"><ele>730.2</ele><time>2026-04-18T08:20:06.772Z</time></trkpt><trkpt lat="44.2506717" lon="11.4275867"><ele>730.4</ele><time>2026-04-18T08:20:07.771Z</time></trkpt><trkpt lat="44.2506483" lon="11.4277"><ele>730.5999999999999</ele><time>2026-04-18T08:20:09.771Z</time></trkpt><trkpt lat="44.2505617" lon="11.4277583"><ele>730.8</ele><time>2026-04-18T08:20:12.771Z</time></trkpt><trkpt lat="44.2504717" lon="11.4277317"><ele>731.0</ele><time>2026-04-18T08:20:14.771Z</time></trkpt><trkpt lat="44.25036" lon="11.4277017"><ele>732.5</ele><time>2026-04-18T08:20:16.772Z</time></trkpt><trkpt lat="44.250295" lon="11.4276983"><ele>734.0</ele><time>2026-04-18T08:20:17.771Z</time></trkpt><trkpt lat="44.2502267" lon="11.4277017"><ele>735.5</ele><time>2026-04-18T08:20:18.772Z</time></trkpt><trkpt lat="44.2501433" lon="11.42771"><ele>737.0</ele><time>2026-04-18T08:20:19.772Z</time></trkpt><trkpt lat="44.2500617" lon="11.4277183"><ele>738.5</ele><time>2026-04-18T08:20:20.771Z</time></trkpt><trkpt lat="44.249985" lon="11.4277217"><ele>740.0</ele><time>2026-04-18T08:20:21.771Z</time></trkpt><trkpt lat="44.2498933" lon="11.42772"><ele>739.9999999999999</ele><time>2026-04-18T08:20:22.771Z</time></trkpt><trkpt lat="44.249805" lon="11.427725"><ele>740.0</ele><time>2026-04-18T08:20:23.772Z</time></trkpt><trkpt lat="44.249725" lon="11.42773"><ele>740.0</ele><time>2026-04-18T08:20:24.772Z</time></trkpt><trkpt lat="44.2496567" lon="11.4277417"><ele>740.0</ele><time>2026-04-18T08:20:25.772Z</time></trkpt><trkpt lat="44.24959" lon="11.4277517"><ele>740.0</ele><time>2026-04-18T08:20:26.771Z</time></trkpt><trkpt lat="44.2495233" lon="11.4277667"><ele>739.9999999999999</ele><time>2026-04-18T08:20:27.771Z</time></trkpt><trkpt lat="44.24945" lon="11.42778"><ele>740.0</ele><time>2026-04-18T08:20:28.771Z</time></trkpt><trkpt lat="44.249375" lon="11.42779"><ele>740.1666666666666</ele><time>2026-04-18T08:20:29.772Z</time></trkpt><trkpt lat="44.2493017" lon="11.427795"><ele>740.3333333333333</ele><time>2026-04-18T08:20:30.771Z</time></trkpt><trkpt lat="44.249225" lon="11.4278083"><ele>740.5</ele><time>2026-04-18T08:20:31.772Z</time></trkpt><trkpt lat="44.2491417" lon="11.427825"><ele>740.6666666666666</ele><time>2026-04-18T08:20:32.771Z</time></trkpt><trkpt lat="44.249055" lon="11.4278383"><ele>740.8333333333334</ele><time>2026-04-18T08:20:33.772Z</time></trkpt><trkpt lat="44.2489717" lon="11.42786"><ele>741.0</ele><time>2026-04-18T08:20:34.772Z</time></trkpt><trkpt lat="44.2488933" lon="11.42788"><ele>739.6666666666666</ele><time>2026-04-18T08:20:35.772Z</time></trkpt><trkpt lat="44.2488117" lon="11.427905"><ele>738.3333333333334</ele><time>2026-04-18T08:20:36.772Z</time></trkpt><trkpt lat="44.248725" lon="11.4279233"><ele>737.0</ele><time>2026-04-18T08:20:37.771Z</time></trkpt><trkpt lat="44.2486483" lon="11.427935"><ele>735.6666666666667</ele><time>2026-04-18T08:20:38.771Z</time></trkpt><trkpt lat="44.2485633" lon="11.4279333"><ele>734.3333333333334</ele><time>2026-04-18T08:20:39.772Z</time></trkpt><trkpt lat="44.24849" lon="11.4279217"><ele>733.0</ele><time>2026-04-18T08:20:40.771Z</time></trkpt><trkpt lat="44.2484183" lon="11.4279"><ele>733.0</ele><time>2026-04-18T08:20:41.771Z</time></trkpt><trkpt lat="44.2483483" lon="11.4278683"><ele>733.0</ele><time>2026-04-18T08:20:42.772Z</time></trkpt><trkpt lat="44.248275" lon="11.4278117"><ele>733.0</ele><time>2026-04-18T08:20:43.772Z</time></trkpt><trkpt lat="44.2482033" lon="11.4277333"><ele>733.0</ele><time>2026-04-18T08:20:44.771Z</time></trkpt><trkpt lat="44.248145" lon="11.427635"><ele>733.0</ele><time>2026-04-18T08:20:45.772Z</time></trkpt><trkpt lat="44.2480983" lon="11.4275033"><ele>733.0</ele><time>2026-04-18T08:20:46.771Z</time></trkpt><trkpt lat="44.2480583" lon="11.4273517"><ele>733.4</ele><time>2026-04-18T08:20:47.771Z</time></trkpt><trkpt lat="44.24802" lon="11.4272"><ele>733.8</ele><time>2026-04-18T08:20:48.771Z</time></trkpt><trkpt lat="44.24798" lon="11.42706"><ele>734.2</ele><time>2026-04-18T08:20:49.771Z</time></trkpt><trkpt lat="44.2479417" lon="11.4269383"><ele>734.6</ele><time>2026-04-18T08:20:50.771Z</time></trkpt><trkpt lat="44.2478933" lon="11.42683"><ele>735.0</ele><time>2026-04-18T08:20:51.772Z</time></trkpt><trkpt lat="44.2478233" lon="11.4267517"><ele>735.0</ele><time>2026-04-18T08:20:52.771Z</time></trkpt><trkpt lat="44.2477383" lon="11.4266833"><ele>735.0</ele><time>2026-04-18T08:20:53.771Z</time></trkpt><trkpt lat="44.247625" lon="11.4266283"><ele>735.0</ele><time>2026-04-18T08:20:54.771Z</time></trkpt><trkpt lat="44.2474967" lon="11.4265933"><ele>735.0</ele><time>2026-04-18T08:20:55.771Z</time></trkpt><trkpt lat="44.2473567" lon="11.42655"><ele>735.3333333333334</ele><time>2026-04-18T08:20:56.771Z</time></trkpt><trkpt lat="44.24722" lon="11.4265017"><ele>735.6666666666667</ele><time>2026-04-18T08:20:57.771Z</time></trkpt><trkpt lat="44.2470767" lon="11.4264317"><ele>736.0</ele><time>2026-04-18T08:20:58.771Z</time></trkpt><trkpt lat="44.2469283" lon="11.42635"><ele>736.0</ele><time>2026-04-18T08:20:59.77Z</time></trkpt><trkpt lat="44.2467817" lon="11.4262767"><ele>736.0</ele><time>2026-04-18T08:21:00.77Z</time></trkpt><trkpt lat="44.2466517" lon="11.426215"><ele>736.0</ele><time>2026-04-18T08:21:01.77Z</time></trkpt><trkpt lat="44.2465317" lon="11.4261667"><ele>736.0</ele><time>2026-04-18T08:21:02.771Z</time></trkpt><trkpt lat="44.2464" lon="11.4261283"><ele>736.75</ele><time>2026-04-18T08:21:03.77Z</time></trkpt><trkpt lat="44.24627" lon="11.4261067"><ele>737.5</ele><time>2026-04-18T08:21:04.771Z</time></trkpt><trkpt lat="44.2461267" lon="11.4261"><ele>738.25</ele><time>2026-04-18T08:21:05.771Z</time></trkpt><trkpt lat="44.2459833" lon="11.42608"><ele>739.0</ele><time>2026-04-18T08:21:06.771Z</time></trkpt><trkpt lat="44.2458533" lon="11.4260667"><ele>739.0</ele><time>2026-04-18T08:21:07.771Z</time></trkpt><trkpt lat="44.2457267" lon="11.4260583"><ele>739.0</ele><time>2026-04-18T08:21:08.771Z</time></trkpt><trkpt lat="44.2455983" lon="11.42605"><ele>739.0</ele><time>2026-04-18T08:21:09.77Z</time></trkpt><trkpt lat="44.2454783" lon="11.4260483"><ele>739.0</ele><time>2026-04-18T08:21:10.771Z</time></trkpt><trkpt lat="44.2453733" lon="11.4260483"><ele>739.25</ele><time>2026-04-18T08:21:11.77Z</time></trkpt><trkpt lat="44.2452517" lon="11.42605"><ele>739.5</ele><time>2026-04-18T08:21:12.771Z</time></trkpt><trkpt lat="44.2451233" lon="11.4260517"><ele>739.75</ele><time>2026-04-18T08:21:13.77Z</time></trkpt><trkpt lat="44.2449867" lon="11.426045"><ele>740.0</ele><time>2026-04-18T08:21:14.771Z</time></trkpt><trkpt lat="44.244855" lon="11.4260367"><ele>739.4</ele><time>2026-04-18T08:21:15.771Z</time></trkpt><trkpt lat="44.244735" lon="11.4260267"><ele>738.8</ele><time>2026-04-18T08:21:16.77Z</time></trkpt><trkpt lat="44.2446267" lon="11.426005"><ele>738.2</ele><time>2026-04-18T08:21:17.77Z</time></trkpt><trkpt lat="44.2445217" lon="11.4259733"><ele>737.6</ele><time>2026-04-18T08:21:18.77Z</time></trkpt><trkpt lat="44.2444233" lon="11.425945"><ele>737.0</ele><time>2026-04-18T08:21:19.77Z</time></trkpt><trkpt lat="44.244325" lon="11.42591"><ele>737.0</ele><time>2026-04-18T08:21:20.771Z</time></trkpt><trkpt lat="44.2442167" lon="11.4258667"><ele>737.0</ele><time>2026-04-18T08:21:21.77Z</time></trkpt><trkpt lat="44.244105" lon="11.42582"><ele>737.0</ele><time>2026-04-18T08:21:22.771Z</time></trkpt><trkpt lat="44.24399" lon="11.425775"><ele>737.0</ele><time>2026-04-18T08:21:23.77Z</time></trkpt><trkpt lat="44.2438633" lon="11.425735"><ele>736.0</ele><time>2026-04-18T08:21:24.77Z</time></trkpt><trkpt lat="44.243735" lon="11.425695"><ele>735.0</ele><time>2026-04-18T08:21:25.77Z</time></trkpt><trkpt lat="44.24358" lon="11.4256533"><ele>734.0</ele><time>2026-04-18T08:21:26.77Z</time></trkpt><trkpt lat="44.2434183" lon="11.4256133"><ele>734.0</ele><time>2026-04-18T08:21:27.771Z</time></trkpt><trkpt lat="44.2432683" lon="11.4255683"><ele>734.0</ele><time>2026-04-18T08:21:28.771Z</time></trkpt><trkpt lat="44.2431383" lon="11.425525"><ele>734.0</ele><time>2026-04-18T08:21:29.771Z</time></trkpt><trkpt lat="44.2430183" lon="11.4254867"><ele>734.0</ele><time>2026-04-18T08:21:30.77Z</time></trkpt><trkpt lat="44.2429017" lon="11.42545"><ele>733.8000000000001</ele><time>2026-04-18T08:21:31.77Z</time></trkpt><trkpt lat="44.2427967" lon="11.425405"><ele>733.6</ele><time>2026-04-18T08:21:32.77Z</time></trkpt><trkpt lat="44.2427017" lon="11.4253533"><ele>733.4</ele><time>2026-04-18T08:21:33.77Z</time></trkpt><trkpt lat="44.2426133" lon="11.4252917"><ele>733.2</ele><time>2026-04-18T08:21:34.771Z</time></trkpt><trkpt lat="44.242535" lon="11.4252183"><ele>733.0</ele><time>2026-04-18T08:21:35.771Z</time></trkpt><trkpt lat="44.24247" lon="11.4251367"><ele>733.0</ele><time>2026-04-18T08:21:36.771Z</time></trkpt><trkpt lat="44.2424167" lon="11.42502"><ele>733.0</ele><time>2026-04-18T08:21:37.771Z</time></trkpt><trkpt lat="44.2423667" lon="11.424905"><ele>733.0</ele><time>2026-04-18T08:21:38.77Z</time></trkpt><trkpt lat="44.2423017" lon="11.424795"><ele>733.0</ele><time>2026-04-18T08:21:39.77Z</time></trkpt><trkpt lat="44.2422317" lon="11.4246883"><ele>733.0</ele><time>2026-04-18T08:21:40.771Z</time></trkpt><trkpt lat="44.24216" lon="11.424595"><ele>733.0</ele><time>2026-04-18T08:21:41.77Z</time></trkpt><trkpt lat="44.242085" lon="11.4245183"><ele>733.0</ele><time>2026-04-18T08:21:42.77Z</time></trkpt><trkpt lat="44.2420083" lon="11.4244517"><ele>733.0</ele><time>2026-04-18T08:21:43.771Z</time></trkpt><trkpt lat="44.24193" lon="11.4243883"><ele>733.0</ele><time>2026-04-18T08:21:44.77Z</time></trkpt><trkpt lat="44.2418417" lon="11.42432"><ele>733.0</ele><time>2026-04-18T08:21:45.771Z</time></trkpt><trkpt lat="44.241755" lon="11.4242533"><ele>733.0</ele><time>2026-04-18T08:21:46.77Z</time></trkpt><trkpt lat="44.2416633" lon="11.42419"><ele>733.0</ele><time>2026-04-18T08:21:47.771Z</time></trkpt><trkpt lat="44.2415633" lon="11.42412"><ele>733.0</ele><time>2026-04-18T08:21:48.771Z</time></trkpt><trkpt lat="44.2414583" lon="11.4240383"><ele>733.0</ele><time>2026-04-18T08:21:49.77Z</time></trkpt><trkpt lat="44.241345" lon="11.4239417"><ele>732.5</ele><time>2026-04-18T08:21:50.771Z</time></trkpt><trkpt lat="44.2412317" lon="11.423845"><ele>732.0</ele><time>2026-04-18T08:21:51.77Z</time></trkpt><trkpt lat="44.2411283" lon="11.4237617"><ele>731.5</ele><time>2026-04-18T08:21:52.77Z</time></trkpt><trkpt lat="44.241035" lon="11.4236817"><ele>731.0</ele><time>2026-04-18T08:21:53.77Z</time></trkpt><trkpt lat="44.240945" lon="11.42361"><ele>731.0</ele><time>2026-04-18T08:21:54.771Z</time></trkpt><trkpt lat="44.240845" lon="11.4235483"><ele>731.0</ele><time>2026-04-18T08:21:55.77Z</time></trkpt><trkpt lat="44.2407367" lon="11.4234767"><ele>731.0</ele><time>2026-04-18T08:21:56.771Z</time></trkpt><trkpt lat="44.2406267" lon="11.4233783"><ele>731.0</ele><time>2026-04-18T08:21:57.77Z</time></trkpt><trkpt lat="44.2405233" lon="11.4232617"><ele>731.5</ele><time>2026-04-18T08:21:58.77Z</time></trkpt><trkpt lat="44.24043" lon="11.42314"><ele>732.0</ele><time>2026-04-18T08:21:59.77Z</time></trkpt><trkpt lat="44.2403483" lon="11.42302"><ele>732.5</ele><time>2026-04-18T08:22:00.771Z</time></trkpt><trkpt lat="44.240275" lon="11.4228783"><ele>733.0</ele><time>2026-04-18T08:22:01.771Z</time></trkpt><trkpt lat="44.2402183" lon="11.422745"><ele>733.0</ele><time>2026-04-18T08:22:02.771Z</time></trkpt><trkpt lat="44.2401717" lon="11.422615"><ele>733.0</ele><time>2026-04-18T08:22:03.77Z</time></trkpt><trkpt lat="44.24013" lon="11.422485"><ele>733.0</ele><time>2026-04-18T08:22:04.77Z</time></trkpt><trkpt lat="44.2400783" lon="11.4223683"><ele>733.0</ele><time>2026-04-18T08:22:05.77Z</time></trkpt><trkpt lat="44.2400067" lon="11.4222417"><ele>733.0</ele><time>2026-04-18T08:22:06.77Z</time></trkpt><trkpt lat="44.23993" lon="11.4220917"><ele>732.4</ele><time>2026-04-18T08:22:07.771Z</time></trkpt><trkpt lat="44.2398617" lon="11.4219467"><ele>731.8</ele><time>2026-04-18T08:22:08.771Z</time></trkpt><trkpt lat="44.2397967" lon="11.4218167"><ele>731.2</ele><time>2026-04-18T08:22:09.77Z</time></trkpt><trkpt lat="44.23972" lon="11.4217183"><ele>730.6</ele><time>2026-04-18T08:22:10.771Z</time></trkpt><trkpt lat="44.23964" lon="11.4216367"><ele>730.0</ele><time>2026-04-18T08:22:11.771Z</time></trkpt><trkpt lat="44.239555" lon="11.421575"><ele>730.0</ele><time>2026-04-18T08:22:12.77Z</time></trkpt><trkpt lat="44.2394717" lon="11.421515"><ele>730.0</ele><time>2026-04-18T08:22:13.771Z</time></trkpt><trkpt lat="44.2393933" lon="11.4214633"><ele>730.0</ele><time>2026-04-18T08:22:14.771Z</time></trkpt><trkpt lat="44.2393133" lon="11.4214267"><ele>730.0</ele><time>2026-04-18T08:22:15.77Z</time></trkpt><trkpt lat="44.2392283" lon="11.4214033"><ele>730.0</ele><time>2026-04-18T08:22:16.77Z</time></trkpt><trkpt lat="44.2391483" lon="11.4213967"><ele>730.0</ele><time>2026-04-18T08:22:17.77Z</time></trkpt><trkpt lat="44.2390583" lon="11.421395"><ele>730.0</ele><time>2026-04-18T08:22:18.77Z</time></trkpt><trkpt lat="44.23898" lon="11.4213833"><ele>730.0</ele><time>2026-04-18T08:22:19.77Z</time></trkpt><trkpt lat="44.2388983" lon="11.4213667"><ele>730.0</ele><time>2026-04-18T08:22:20.77Z</time></trkpt><trkpt lat="44.2388033" lon="11.4213667"><ele>730.0</ele><time>2026-04-18T08:22:21.77Z</time></trkpt><trkpt lat="44.2386967" lon="11.4213683"><ele>730.0</ele><time>2026-04-18T08:22:22.77Z</time></trkpt><trkpt lat="44.2385917" lon="11.4213883"><ele>730.2</ele><time>2026-04-18T08:22:23.77Z</time></trkpt><trkpt lat="44.2384883" lon="11.4214"><ele>730.4</ele><time>2026-04-18T08:22:24.77Z</time></trkpt><trkpt lat="44.2383817" lon="11.4213933"><ele>730.5999999999999</ele><time>2026-04-18T08:22:25.77Z</time></trkpt><trkpt lat="44.2382667" lon="11.4213817"><ele>730.8</ele><time>2026-04-18T08:22:26.77Z</time></trkpt><trkpt lat="44.23816" lon="11.421375"><ele>731.0</ele><time>2026-04-18T08:22:27.77Z</time></trkpt><trkpt lat="44.2380617" lon="11.4214017"><ele>731.1666666666666</ele><time>2026-04-18T08:22:28.771Z</time></trkpt><trkpt lat="44.2379783" lon="11.4214283"><ele>731.3333333333333</ele><time>2026-04-18T08:22:29.77Z</time></trkpt><trkpt lat="44.237895" lon="11.4214367"><ele>731.5</ele><time>2026-04-18T08:22:30.77Z</time></trkpt><trkpt lat="44.2378117" lon="11.421435"><ele>731.6666666666666</ele><time>2026-04-18T08:22:31.77Z</time></trkpt><trkpt lat="44.2377317" lon="11.4214267"><ele>731.8333333333334</ele><time>2026-04-18T08:22:32.77Z</time></trkpt><trkpt lat="44.2376617" lon="11.4213967"><ele>732.0</ele><time>2026-04-18T08:22:33.77Z</time></trkpt><trkpt lat="44.2375533" lon="11.421295"><ele>732.6666666666666</ele><time>2026-04-18T08:22:35.77Z</time></trkpt><trkpt lat="44.2374983" lon="11.4212133"><ele>733.3333333333334</ele><time>2026-04-18T08:22:36.77Z</time></trkpt><trkpt lat="44.237445" lon="11.4211283"><ele>734.0</ele><time>2026-04-18T08:22:37.77Z</time></trkpt><trkpt lat="44.2374017" lon="11.4210617"><ele>734.6666666666667</ele><time>2026-04-18T08:22:38.77Z</time></trkpt><trkpt lat="44.2373533" lon="11.421005"><ele>735.3333333333334</ele><time>2026-04-18T08:22:39.77Z</time></trkpt><trkpt lat="44.237275" lon="11.4209467"><ele>736.0</ele><time>2026-04-18T08:22:41.77Z</time></trkpt><trkpt lat="44.2371983" lon="11.4208933"><ele>737.5</ele><time>2026-04-18T08:22:43.771Z</time></trkpt><trkpt lat="44.2371333" lon="11.4208283"><ele>739.0</ele><time>2026-04-18T08:22:45.77Z</time></trkpt><trkpt lat="44.2370683" lon="11.42079"><ele>740.5</ele><time>2026-04-18T08:25:11.769Z</time></trkpt><trkpt lat="44.2369867" lon="11.4208283"><ele>742.0</ele><time>2026-04-18T08:25:13.769Z</time></trkpt><trkpt lat="44.2368917" lon="11.4208617"><ele>743.5</ele><time>2026-04-18T08:25:15.769Z</time></trkpt><trkpt lat="44.2367867" lon="11.4209067"><ele>745.0</ele><time>2026-04-18T08:25:17.769Z</time></trkpt><trkpt lat="44.2366883" lon="11.4209667"><ele>745.0</ele><time>2026-04-18T08:25:19.769Z</time></trkpt><trkpt lat="44.2365917" lon="11.42102"><ele>745.0</ele><time>2026-04-18T08:25:21.77Z</time></trkpt><trkpt lat="44.23647" lon="11.421105"><ele>745.0</ele><time>2026-04-18T08:25:23.77Z</time></trkpt><trkpt lat="44.2363633" lon="11.4211883"><ele>745.0</ele><time>2026-04-18T08:25:25.769Z</time></trkpt><trkpt lat="44.2363" lon="11.421205"><ele>745.0</ele><time>2026-04-18T08:25:26.77Z</time></trkpt><trkpt lat="44.236205" lon="11.4211983"><ele>746.6</ele><time>2026-04-18T08:25:28.769Z</time></trkpt><trkpt lat="44.2361033" lon="11.4211783"><ele>748.2</ele><time>2026-04-18T08:25:30.769Z</time></trkpt><trkpt lat="44.2359933" lon="11.421185"><ele>749.8</ele><time>2026-04-18T08:25:32.769Z</time></trkpt><trkpt lat="44.2358883" lon="11.421155"><ele>751.4</ele><time>2026-04-18T08:25:34.769Z</time></trkpt><trkpt lat="44.2358233" lon="11.4211433"><ele>753.0</ele><time>2026-04-18T08:25:35.769Z</time></trkpt><trkpt lat="44.2357583" lon="11.4211383"><ele>753.0</ele><time>2026-04-18T08:25:36.769Z</time></trkpt><trkpt lat="44.2356833" lon="11.421155"><ele>753.0</ele><time>2026-04-18T08:25:37.769Z</time></trkpt><trkpt lat="44.2356133" lon="11.4211833"><ele>753.0</ele><time>2026-04-18T08:25:38.77Z</time></trkpt><trkpt lat="44.2355467" lon="11.4212267"><ele>753.0</ele><time>2026-04-18T08:25:39.769Z</time></trkpt><trkpt lat="44.2354833" lon="11.4212667"><ele>753.0</ele><time>2026-04-18T08:25:40.77Z</time></trkpt><trkpt lat="44.2354267" lon="11.4213067"><ele>753.0</ele><time>2026-04-18T08:25:41.77Z</time></trkpt><trkpt lat="44.2353267" lon="11.4213917"><ele>752.3333333333334</ele><time>2026-04-18T08:25:43.769Z</time></trkpt><trkpt lat="44.2352767" lon="11.4214467"><ele>751.6666666666666</ele><time>2026-04-18T08:25:44.77Z</time></trkpt><trkpt lat="44.23519" lon="11.421575"><ele>751.0</ele><time>2026-04-18T08:25:46.769Z</time></trkpt><trkpt lat="44.2351317" lon="11.42163"><ele>750.3333333333333</ele><time>2026-04-18T08:25:47.769Z</time></trkpt><trkpt lat="44.2350683" lon="11.4216617"><ele>749.6666666666666</ele><time>2026-04-18T08:25:48.769Z</time></trkpt><trkpt lat="44.2349967" lon="11.4216933"><ele>749.0</ele><time>2026-04-18T08:25:49.769Z</time></trkpt><trkpt lat="44.2349333" lon="11.4217367"><ele>749.0</ele><time>2026-04-18T08:25:50.769Z</time></trkpt><trkpt lat="44.234865" lon="11.4217917"><ele>749.0</ele><time>2026-04-18T08:25:51.769Z</time></trkpt><trkpt lat="44.2348033" lon="11.4218667"><ele>749.0</ele><time>2026-04-18T08:25:52.77Z</time></trkpt><trkpt lat="44.234735" lon="11.4219533"><ele>749.0</ele><time>2026-04-18T08:25:53.769Z</time></trkpt><trkpt lat="44.234665" lon="11.4220317"><ele>749.0</ele><time>2026-04-18T08:25:54.769Z</time></trkpt><trkpt lat="44.2345867" lon="11.42209"><ele>749.0</ele><time>2026-04-18T08:25:55.77Z</time></trkpt><trkpt lat="44.23451" lon="11.4221567"><ele>747.1666666666666</ele><time>2026-04-18T08:25:56.77Z</time></trkpt><trkpt lat="44.2344483" lon="11.422225"><ele>745.3333333333333</ele><time>2026-04-18T08:25:57.769Z</time></trkpt><trkpt lat="44.234385" lon="11.422295"><ele>743.5</ele><time>2026-04-18T08:25:58.77Z</time></trkpt><trkpt lat="44.2343267" lon="11.42236"><ele>741.6666666666666</ele><time>2026-04-18T08:25:59.769Z</time></trkpt><trkpt lat="44.234275" lon="11.4224267"><ele>739.8333333333334</ele><time>2026-04-18T08:26:00.77Z</time></trkpt><trkpt lat="44.2342267" lon="11.422485"><ele>738.0</ele><time>2026-04-18T08:26:01.769Z</time></trkpt><trkpt lat="44.2341317" lon="11.4225717"><ele>738.0</ele><time>2026-04-18T08:26:03.769Z</time></trkpt><trkpt lat="44.234025" lon="11.4225667"><ele>738.0</ele><time>2026-04-18T08:26:05.769Z</time></trkpt><trkpt lat="44.2339467" lon="11.4224517"><ele>738.0</ele><time>2026-04-18T08:26:07.769Z</time></trkpt><trkpt lat="44.2339417" lon="11.4222733"><ele>738.0</ele><time>2026-04-18T08:26:09.77Z</time></trkpt><trkpt lat="44.2339567" lon="11.4221583"><ele>738.0</ele><time>2026-04-18T08:26:10.769Z</time></trkpt><trkpt lat="44.23396" lon="11.42203"><ele>735.4</ele><time>2026-04-18T08:26:11.77Z</time></trkpt><trkpt lat="44.233945" lon="11.421895"><ele>732.8</ele><time>2026-04-18T08:26:12.77Z</time></trkpt><trkpt lat="44.2339117" lon="11.421755"><ele>730.2</ele><time>2026-04-18T08:26:13.77Z</time></trkpt><trkpt lat="44.2338833" lon="11.4216233"><ele>727.6</ele><time>2026-04-18T08:26:14.769Z</time></trkpt><trkpt lat="44.2338617" lon="11.4214933"><ele>725.0</ele><time>2026-04-18T08:26:15.769Z</time></trkpt><trkpt lat="44.2338367" lon="11.4213583"><ele>725.5</ele><time>2026-04-18T08:26:16.769Z</time></trkpt><trkpt lat="44.2338067" lon="11.4212333"><ele>726.0</ele><time>2026-04-18T08:26:17.77Z</time></trkpt><trkpt lat="44.2337683" lon="11.4211317"><ele>726.5</ele><time>2026-04-18T08:26:18.769Z</time></trkpt><trkpt lat="44.2337133" lon="11.4210617"><ele>727.0</ele><time>2026-04-18T08:26:19.769Z</time></trkpt><trkpt lat="44.2336467" lon="11.4209917"><ele>727.5</ele><time>2026-04-18T08:26:20.77Z</time></trkpt><trkpt lat="44.233585" lon="11.4209217"><ele>728.0</ele><time>2026-04-18T08:26:21.769Z</time></trkpt><trkpt lat="44.2335333" lon="11.4208533"><ele>728.0</ele><time>2026-04-18T08:26:22.769Z</time></trkpt><trkpt lat="44.2334933" lon="11.4207683"><ele>728.0</ele><time>2026-04-18T08:26:23.77Z</time></trkpt><trkpt lat="44.233465" lon="11.4206767"><ele>728.0</ele><time>2026-04-18T08:26:24.77Z</time></trkpt><trkpt lat="44.2334483" lon="11.4205917"><ele>728.0</ele><time>2026-04-18T08:26:25.769Z</time></trkpt><trkpt lat="44.2334433" lon="11.4204967"><ele>728.0</ele><time>2026-04-18T08:26:26.77Z</time></trkpt><trkpt lat="44.2334517" lon="11.420405"><ele>728.0</ele><time>2026-04-18T08:26:27.769Z</time></trkpt><trkpt lat="44.23347" lon="11.4203117"><ele>728.0</ele><time>2026-04-18T08:26:28.77Z</time></trkpt><trkpt lat="44.2335067" lon="11.420225"><ele>727.5</ele><time>2026-04-18T08:26:29.769Z</time></trkpt><trkpt lat="44.2335533" lon="11.42014"><ele>727.0</ele><time>2026-04-18T08:26:30.769Z</time></trkpt><trkpt lat="44.2336033" lon="11.4200433"><ele>726.5</ele><time>2026-04-18T08:26:31.77Z</time></trkpt><trkpt lat="44.2336383" lon="11.4199367"><ele>726.0</ele><time>2026-04-18T08:26:32.77Z</time></trkpt><trkpt lat="44.233665" lon="11.4198333"><ele>725.5</ele><time>2026-04-18T08:26:33.769Z</time></trkpt><trkpt lat="44.233685" lon="11.419725"><ele>725.0</ele><time>2026-04-18T08:26:34.77Z</time></trkpt><trkpt lat="44.2337033" lon="11.4196217"><ele>725.0</ele><time>2026-04-18T08:26:35.769Z</time></trkpt><trkpt lat="44.2337033" lon="11.419525"><ele>725.0</ele><time>2026-04-18T08:26:36.769Z</time></trkpt><trkpt lat="44.2336933" lon="11.4194367"><ele>725.0</ele><time>2026-04-18T08:26:37.77Z</time></trkpt><trkpt lat="44.233675" lon="11.4193517"><ele>725.0</ele><time>2026-04-18T08:26:38.77Z</time></trkpt><trkpt lat="44.2336317" lon="11.419205"><ele>725.0</ele><time>2026-04-18T08:26:40.77Z</time></trkpt><trkpt lat="44.2335717" lon="11.41906"><ele>725.0</ele><time>2026-04-18T08:26:42.769Z</time></trkpt><trkpt lat="44.23349" lon="11.418945"><ele>725.0</ele><time>2026-04-18T08:26:44.769Z</time></trkpt><trkpt lat="44.2333967" lon="11.418865"><ele>725.0</ele><time>2026-04-18T08:26:46.77Z</time></trkpt><trkpt lat="44.233315" lon="11.4188217"><ele>725.0</ele><time>2026-04-18T08:26:48.769Z</time></trkpt><trkpt lat="44.2332433" lon="11.4187817"><ele>725.0</ele><time>2026-04-18T08:26:50.769Z</time></trkpt><trkpt lat="44.2331667" lon="11.4187367"><ele>725.0</ele><time>2026-04-18T08:26:52.77Z</time></trkpt><trkpt lat="44.2330733" lon="11.4187017"><ele>724.5</ele><time>2026-04-18T08:26:54.77Z</time></trkpt><trkpt lat="44.2329617" lon="11.418675"><ele>724.0</ele><time>2026-04-18T08:26:56.769Z</time></trkpt><trkpt lat="44.2328583" lon="11.4186017"><ele>723.5</ele><time>2026-04-18T08:26:58.77Z</time></trkpt><trkpt lat="44.2327467" lon="11.4185017"><ele>723.0</ele><time>2026-04-18T08:27:00.769Z</time></trkpt><trkpt lat="44.2326617" lon="11.4184683"><ele>723.0</ele><time>2026-04-18T08:27:01.769Z</time></trkpt><trkpt lat="44.2325733" lon="11.4184433"><ele>723.0</ele><time>2026-04-18T08:27:02.769Z</time></trkpt><trkpt lat="44.2324783" lon="11.4184183"><ele>723.0</ele><time>2026-04-18T08:27:03.769Z</time></trkpt><trkpt lat="44.2323933" lon="11.418385"><ele>723.0</ele><time>2026-04-18T08:27:04.769Z</time></trkpt><trkpt lat="44.23232" lon="11.4183367"><ele>723.0</ele><time>2026-04-18T08:27:05.769Z</time></trkpt><trkpt lat="44.2322417" lon="11.4182667"><ele>723.0</ele><time>2026-04-18T08:27:06.77Z</time></trkpt><trkpt lat="44.232175" lon="11.4181917"><ele>721.6666666666666</ele><time>2026-04-18T08:27:07.769Z</time></trkpt><trkpt lat="44.2320967" lon="11.418125"><ele>720.3333333333334</ele><time>2026-04-18T08:27:08.77Z</time></trkpt><trkpt lat="44.2320217" lon="11.41807"><ele>719.0</ele><time>2026-04-18T08:27:09.769Z</time></trkpt><trkpt lat="44.23195" lon="11.4180117"><ele>717.6666666666667</ele><time>2026-04-18T08:27:10.77Z</time></trkpt><trkpt lat="44.2318783" lon="11.4179517"><ele>716.3333333333334</ele><time>2026-04-18T08:27:11.769Z</time></trkpt><trkpt lat="44.2318133" lon="11.417885"><ele>715.0</ele><time>2026-04-18T08:27:12.77Z</time></trkpt><trkpt lat="44.2317583" lon="11.41782"><ele>715.0</ele><time>2026-04-18T08:27:13.77Z</time></trkpt><trkpt lat="44.231695" lon="11.4177483"><ele>715.0</ele><time>2026-04-18T08:27:14.769Z</time></trkpt><trkpt lat="44.231645" lon="11.4176767"><ele>715.0</ele><time>2026-04-18T08:27:15.77Z</time></trkpt><trkpt lat="44.2316" lon="11.4176033"><ele>715.0</ele><time>2026-04-18T08:27:16.769Z</time></trkpt><trkpt lat="44.231565" lon="11.41751"><ele>715.0</ele><time>2026-04-18T08:27:17.769Z</time></trkpt><trkpt lat="44.23155" lon="11.4174067"><ele>715.0</ele><time>2026-04-18T08:27:18.769Z</time></trkpt><trkpt lat="44.231535" lon="11.4173"><ele>715.0</ele><time>2026-04-18T08:27:19.769Z</time></trkpt><trkpt lat="44.2315133" lon="11.4172017"><ele>715.0</ele><time>2026-04-18T08:27:20.769Z</time></trkpt><trkpt lat="44.2314783" lon="11.4171133"><ele>715.0</ele><time>2026-04-18T08:27:21.77Z</time></trkpt><trkpt lat="44.2313533" lon="11.4170283"><ele>715.0</ele><time>2026-04-18T08:27:23.769Z</time></trkpt><trkpt lat="44.2312667" lon="11.4170217"><ele>715.0</ele><time>2026-04-18T08:27:24.769Z</time></trkpt><trkpt lat="44.2311783" lon="11.4170367"><ele>714.2</ele><time>2026-04-18T08:27:25.769Z</time></trkpt><trkpt lat="44.2310817" lon="11.4170533"><ele>713.4</ele><time>2026-04-18T08:27:26.769Z</time></trkpt><trkpt lat="44.2309917" lon="11.4170633"><ele>712.5999999999999</ele><time>2026-04-18T08:27:27.769Z</time></trkpt><trkpt lat="44.2308983" lon="11.4170667"><ele>711.8</ele><time>2026-04-18T08:27:28.769Z</time></trkpt><trkpt lat="44.2308067" lon="11.41705"><ele>711.0</ele><time>2026-04-18T08:27:29.77Z</time></trkpt><trkpt lat="44.2307133" lon="11.417015"><ele>708.8</ele><time>2026-04-18T08:27:30.769Z</time></trkpt><trkpt lat="44.2306283" lon="11.4169667"><ele>706.5999999999999</ele><time>2026-04-18T08:27:31.769Z</time></trkpt><trkpt lat="44.23054" lon="11.416915"><ele>704.4</ele><time>2026-04-18T08:27:32.769Z</time></trkpt><trkpt lat="44.23046" lon="11.416855"><ele>702.2</ele><time>2026-04-18T08:27:33.768Z</time></trkpt><trkpt lat="44.2303867" lon="11.4167883"><ele>700.0</ele><time>2026-04-18T08:27:34.768Z</time></trkpt><trkpt lat="44.230315" lon="11.4167233"><ele>700.0</ele><time>2026-04-18T08:27:35.768Z</time></trkpt><trkpt lat="44.2302417" lon="11.41668"><ele>700.0</ele><time>2026-04-18T08:27:36.769Z</time></trkpt><trkpt lat="44.2301433" lon="11.4166467"><ele>700.0</ele><time>2026-04-18T08:27:37.768Z</time></trkpt><trkpt lat="44.230025" lon="11.41662"><ele>700.0</ele><time>2026-04-18T08:27:38.768Z</time></trkpt><trkpt lat="44.2298967" lon="11.4165883"><ele>700.0</ele><time>2026-04-18T08:27:39.768Z</time></trkpt><trkpt lat="44.2297733" lon="11.4165483"><ele>698.0</ele><time>2026-04-18T08:27:40.769Z</time></trkpt><trkpt lat="44.22966" lon="11.4165183"><ele>696.0</ele><time>2026-04-18T08:27:41.769Z</time></trkpt><trkpt lat="44.2295567" lon="11.4164817"><ele>694.0</ele><time>2026-04-18T08:27:42.768Z</time></trkpt><trkpt lat="44.22947" lon="11.41644"><ele>692.0</ele><time>2026-04-18T08:27:43.768Z</time></trkpt><trkpt lat="44.2293983" lon="11.4163983"><ele>690.0</ele><time>2026-04-18T08:27:44.768Z</time></trkpt><trkpt lat="44.2293283" lon="11.4163683"><ele>690.0</ele><time>2026-04-18T08:27:45.768Z</time></trkpt><trkpt lat="44.2292633" lon="11.4163467"><ele>690.0</ele><time>2026-04-18T08:27:46.768Z</time></trkpt><trkpt lat="44.2291533" lon="11.4163533"><ele>690.0</ele><time>2026-04-18T08:27:48.768Z</time></trkpt><trkpt lat="44.2291083" lon="11.41643"><ele>690.0</ele><time>2026-04-18T08:27:50.768Z</time></trkpt><trkpt lat="44.2291517" lon="11.4165367"><ele>690.0</ele><time>2026-04-18T08:27:52.769Z</time></trkpt><trkpt lat="44.2292717" lon="11.4166233"><ele>690.0</ele><time>2026-04-18T08:27:54.768Z</time></trkpt><trkpt lat="44.2293483" lon="11.416665"><ele>690.0</ele><time>2026-04-18T08:27:55.769Z</time></trkpt><trkpt lat="44.2294283" lon="11.4167367"><ele>690.0</ele><time>2026-04-18T08:27:56.769Z</time></trkpt><trkpt lat="44.2294983" lon="11.4168217"><ele>690.0</ele><time>2026-04-18T08:27:57.768Z</time></trkpt><trkpt lat="44.22957" lon="11.4169283"><ele>690.0</ele><time>2026-04-18T08:27:58.768Z</time></trkpt><trkpt lat="44.2296383" lon="11.41703"><ele>690.0</ele><time>2026-04-18T08:27:59.768Z</time></trkpt><trkpt lat="44.2297" lon="11.4171367"><ele>690.0</ele><time>2026-04-18T08:28:00.768Z</time></trkpt><trkpt lat="44.22977" lon="11.4172333"><ele>690.0</ele><time>2026-04-18T08:28:01.768Z</time></trkpt><trkpt lat="44.2298483" lon="11.4173167"><ele>690.0</ele><time>2026-04-18T08:28:02.768Z</time></trkpt><trkpt lat="44.229925" lon="11.41739"><ele>690.0</ele><time>2026-04-18T08:28:03.769Z</time></trkpt><trkpt lat="44.22999" lon="11.41748"><ele>688.5</ele><time>2026-04-18T08:28:04.768Z</time></trkpt><trkpt lat="44.2300533" lon="11.417585"><ele>687.0</ele><time>2026-04-18T08:28:05.768Z</time></trkpt><trkpt lat="44.2301267" lon="11.41772"><ele>685.5</ele><time>2026-04-18T08:28:06.768Z</time></trkpt><trkpt lat="44.2301917" lon="11.4178583"><ele>684.0</ele><time>2026-04-18T08:28:07.768Z</time></trkpt><trkpt lat="44.2302583" lon="11.4179883"><ele>680.25</ele><time>2026-04-18T08:28:08.768Z</time></trkpt><trkpt lat="44.2303367" lon="11.4181"><ele>676.5</ele><time>2026-04-18T08:28:09.769Z</time></trkpt><trkpt lat="44.23043" lon="11.4182117"><ele>672.75</ele><time>2026-04-18T08:28:10.769Z</time></trkpt><trkpt lat="44.2305233" lon="11.4183183"><ele>669.0</ele><time>2026-04-18T08:28:11.768Z</time></trkpt><trkpt lat="44.230615" lon="11.41842"><ele>669.6</ele><time>2026-04-18T08:28:12.768Z</time></trkpt><trkpt lat="44.2306933" lon="11.4185317"><ele>670.2</ele><time>2026-04-18T08:28:13.768Z</time></trkpt><trkpt lat="44.230745" lon="11.4186433"><ele>670.8000000000001</ele><time>2026-04-18T08:28:14.769Z</time></trkpt><trkpt lat="44.2307867" lon="11.41878"><ele>671.4000000000001</ele><time>2026-04-18T08:28:15.769Z</time></trkpt><trkpt lat="44.2308267" lon="11.41893"><ele>672.0</ele><time>2026-04-18T08:28:16.768Z</time></trkpt><trkpt lat="44.230865" lon="11.419065"><ele>672.0</ele><time>2026-04-18T08:28:17.769Z</time></trkpt><trkpt lat="44.2309133" lon="11.4191783"><ele>672.0</ele><time>2026-04-18T08:28:18.769Z</time></trkpt><trkpt lat="44.23097" lon="11.4192967"><ele>672.0</ele><time>2026-04-18T08:28:19.768Z</time></trkpt><trkpt lat="44.23102" lon="11.41941"><ele>672.0</ele><time>2026-04-18T08:28:20.768Z</time></trkpt><trkpt lat="44.2310767" lon="11.4194983"><ele>672.0</ele><time>2026-04-18T08:28:21.769Z</time></trkpt><trkpt lat="44.2311267" lon="11.4195633"><ele>672.0</ele><time>2026-04-18T08:28:22.768Z</time></trkpt><trkpt lat="44.2312133" lon="11.4196517"><ele>673.1666666666666</ele><time>2026-04-18T08:28:24.768Z</time></trkpt><trkpt lat="44.2312833" lon="11.4197333"><ele>674.3333333333334</ele><time>2026-04-18T08:28:26.768Z</time></trkpt><trkpt lat="44.2313833" lon="11.419845"><ele>675.5</ele><time>2026-04-18T08:28:28.769Z</time></trkpt><trkpt lat="44.2314333" lon="11.4199117"><ele>676.6666666666667</ele><time>2026-04-18T08:28:29.768Z</time></trkpt><trkpt lat="44.2314667" lon="11.4199883"><ele>677.8333333333334</ele><time>2026-04-18T08:28:30.768Z</time></trkpt><trkpt lat="44.2314883" lon="11.4200817"><ele>679.0</ele><time>2026-04-18T08:28:31.768Z</time></trkpt><trkpt lat="44.2315" lon="11.4201983"><ele>679.0</ele><time>2026-04-18T08:28:32.768Z</time></trkpt><trkpt lat="44.2315067" lon="11.4203217"><ele>679.0</ele><time>2026-04-18T08:28:33.768Z</time></trkpt><trkpt lat="44.2315017" lon="11.420445"><ele>679.0</ele><time>2026-04-18T08:28:34.768Z</time></trkpt><trkpt lat="44.23148" lon="11.42057"><ele>679.0</ele><time>2026-04-18T08:28:35.769Z</time></trkpt><trkpt lat="44.23144" lon="11.42069"><ele>679.0</ele><time>2026-04-18T08:28:36.768Z</time></trkpt><trkpt lat="44.2313917" lon="11.4208017"><ele>674.6</ele><time>2026-04-18T08:28:37.769Z</time></trkpt><trkpt lat="44.2313367" lon="11.42092"><ele>670.2</ele><time>2026-04-18T08:28:38.768Z</time></trkpt><trkpt lat="44.2312767" lon="11.4210533"><ele>665.8000000000001</ele><time>2026-04-18T08:28:39.768Z</time></trkpt><trkpt lat="44.2312267" lon="11.42119"><ele>661.4000000000001</ele><time>2026-04-18T08:28:40.768Z</time></trkpt><trkpt lat="44.231175" lon="11.4213083"><ele>657.0</ele><time>2026-04-18T08:28:41.768Z</time></trkpt><trkpt lat="44.2311233" lon="11.42142"><ele>657.0</ele><time>2026-04-18T08:28:42.768Z</time></trkpt><trkpt lat="44.23105" lon="11.421535"><ele>657.0</ele><time>2026-04-18T08:28:43.768Z</time></trkpt><trkpt lat="44.2309633" lon="11.4216267"><ele>657.0</ele><time>2026-04-18T08:28:44.769Z</time></trkpt><trkpt lat="44.230865" lon="11.4217067"><ele>657.0</ele><time>2026-04-18T08:28:45.768Z</time></trkpt><trkpt lat="44.2307633" lon="11.42178"><ele>657.0</ele><time>2026-04-18T08:28:46.768Z</time></trkpt><trkpt lat="44.230665" lon="11.4218633"><ele>654.6666666666666</ele><time>2026-04-18T08:28:47.768Z</time></trkpt><trkpt lat="44.2305883" lon="11.4219483"><ele>652.3333333333334</ele><time>2026-04-18T08:28:48.768Z</time></trkpt><trkpt lat="44.2305233" lon="11.4220367"><ele>650.0</ele><time>2026-04-18T08:28:49.768Z</time></trkpt><trkpt lat="44.230475" lon="11.42213"><ele>647.6666666666667</ele><time>2026-04-18T08:28:50.769Z</time></trkpt><trkpt lat="44.230445" lon="11.4222267"><ele>645.3333333333334</ele><time>2026-04-18T08:28:51.768Z</time></trkpt><trkpt lat="44.230425" lon="11.4223233"><ele>643.0</ele><time>2026-04-18T08:28:52.768Z</time></trkpt><trkpt lat="44.2304067" lon="11.4224483"><ele>643.0</ele><time>2026-04-18T08:28:53.768Z</time></trkpt><trkpt lat="44.2304167" lon="11.4225833"><ele>643.0</ele><time>2026-04-18T08:28:54.768Z</time></trkpt><trkpt lat="44.230435" lon="11.422715"><ele>643.0</ele><time>2026-04-18T08:28:55.769Z</time></trkpt><trkpt lat="44.23045" lon="11.4228433"><ele>643.0</ele><time>2026-04-18T08:28:56.769Z</time></trkpt><trkpt lat="44.2304633" lon="11.4229717"><ele>643.0</ele><time>2026-04-18T08:28:57.769Z</time></trkpt><trkpt lat="44.2304733" lon="11.4230983"><ele>643.0</ele><time>2026-04-18T08:28:58.768Z</time></trkpt><trkpt lat="44.2304817" lon="11.4232433"><ele>643.0</ele><time>2026-04-18T08:28:59.768Z</time></trkpt><trkpt lat="44.2304817" lon="11.423375"><ele>643.0</ele><time>2026-04-18T08:29:00.768Z</time></trkpt><trkpt lat="44.2304583" lon="11.423515"><ele>643.0</ele><time>2026-04-18T08:29:01.769Z</time></trkpt><trkpt lat="44.2304217" lon="11.4236317"><ele>643.0</ele><time>2026-04-18T08:29:02.768Z</time></trkpt><trkpt lat="44.2303683" lon="11.423735"><ele>644.8</ele><time>2026-04-18T08:29:03.769Z</time></trkpt><trkpt lat="44.2302867" lon="11.423835"><ele>646.5999999999999</ele><time>2026-04-18T08:29:04.768Z</time></trkpt><trkpt lat="44.2301967" lon="11.4239183"><ele>648.4000000000001</ele><time>2026-04-18T08:29:05.769Z</time></trkpt><trkpt lat="44.2300967" lon="11.4240067"><ele>650.2</ele><time>2026-04-18T08:29:06.768Z</time></trkpt><trkpt lat="44.2300067" lon="11.4240917"><ele>652.0</ele><time>2026-04-18T08:29:07.768Z</time></trkpt><trkpt lat="44.229935" lon="11.424175"><ele>652.0</ele><time>2026-04-18T08:29:08.769Z</time></trkpt><trkpt lat="44.2298683" lon="11.42427"><ele>652.0</ele><time>2026-04-18T08:29:09.768Z</time></trkpt><trkpt lat="44.2298067" lon="11.424375"><ele>652.0</ele><time>2026-04-18T08:29:10.769Z</time></trkpt><trkpt lat="44.2297533" lon="11.424505"><ele>652.0</ele><time>2026-04-18T08:29:11.769Z</time></trkpt><trkpt lat="44.22972" lon="11.4246267"><ele>652.0</ele><time>2026-04-18T08:29:12.769Z</time></trkpt><trkpt lat="44.2296917" lon="11.4247617"><ele>648.2</ele><time>2026-04-18T08:29:13.769Z</time></trkpt><trkpt lat="44.2296683" lon="11.424895"><ele>644.4000000000001</ele><time>2026-04-18T08:29:14.768Z</time></trkpt><trkpt lat="44.229645" lon="11.4250283"><ele>640.5999999999999</ele><time>2026-04-18T08:29:15.768Z</time></trkpt><trkpt lat="44.2296117" lon="11.425155"><ele>636.8</ele><time>2026-04-18T08:29:16.768Z</time></trkpt><trkpt lat="44.2295733" lon="11.4252867"><ele>633.0</ele><time>2026-04-18T08:29:17.768Z</time></trkpt><trkpt lat="44.2295317" lon="11.4254267"><ele>633.0</ele><time>2026-04-18T08:29:18.768Z</time></trkpt><trkpt lat="44.2295" lon="11.425555"><ele>633.0</ele><time>2026-04-18T08:29:19.769Z</time></trkpt><trkpt lat="44.229465" lon="11.4256967"><ele>633.0</ele><time>2026-04-18T08:29:20.768Z</time></trkpt><trkpt lat="44.229435" lon="11.4258417"><ele>633.0</ele><time>2026-04-18T08:29:21.768Z</time></trkpt><trkpt lat="44.229405" lon="11.4260067"><ele>633.0</ele><time>2026-04-18T08:29:22.769Z</time></trkpt><trkpt lat="44.2293683" lon="11.4261733"><ele>633.1999999999999</ele><time>2026-04-18T08:29:23.768Z</time></trkpt><trkpt lat="44.2293317" lon="11.4263183"><ele>633.4</ele><time>2026-04-18T08:29:24.769Z</time></trkpt><trkpt lat="44.229295" lon="11.4264633"><ele>633.5999999999999</ele><time>2026-04-18T08:29:25.768Z</time></trkpt><trkpt lat="44.22925" lon="11.4265833"><ele>633.8</ele><time>2026-04-18T08:29:26.768Z</time></trkpt><trkpt lat="44.2292017" lon="11.4267033"><ele>634.0</ele><time>2026-04-18T08:29:27.769Z</time></trkpt><trkpt lat="44.22916" lon="11.4268183"><ele>634.0</ele><time>2026-04-18T08:29:28.768Z</time></trkpt><trkpt lat="44.2291217" lon="11.4269267"><ele>634.0</ele><time>2026-04-18T08:29:29.769Z</time></trkpt><trkpt lat="44.2290783" lon="11.4270167"><ele>634.0</ele><time>2026-04-18T08:29:30.769Z</time></trkpt><trkpt lat="44.229015" lon="11.4270883"><ele>634.0</ele><time>2026-04-18T08:29:31.768Z</time></trkpt><trkpt lat="44.2289417" lon="11.4271383"><ele>634.0</ele><time>2026-04-18T08:29:32.768Z</time></trkpt><trkpt lat="44.22886" lon="11.42717"><ele>634.0</ele><time>2026-04-18T08:29:33.768Z</time></trkpt><trkpt lat="44.2287733" lon="11.4272133"><ele>632.8333333333334</ele><time>2026-04-18T08:29:34.769Z</time></trkpt><trkpt lat="44.228685" lon="11.427255"><ele>631.6666666666667</ele><time>2026-04-18T08:29:35.769Z</time></trkpt><trkpt lat="44.2286" lon="11.42729"><ele>630.5</ele><time>2026-04-18T08:29:36.768Z</time></trkpt><trkpt lat="44.2285233" lon="11.427305"><ele>629.3333333333334</ele><time>2026-04-18T08:29:37.768Z</time></trkpt><trkpt lat="44.2284467" lon="11.4273183"><ele>628.1666666666666</ele><time>2026-04-18T08:29:38.768Z</time></trkpt><trkpt lat="44.2283633" lon="11.4273383"><ele>627.0</ele><time>2026-04-18T08:29:39.769Z</time></trkpt><trkpt lat="44.2282983" lon="11.4273783"><ele>627.0</ele><time>2026-04-18T08:29:40.768Z</time></trkpt><trkpt lat="44.2282333" lon="11.4274317"><ele>627.0</ele><time>2026-04-18T08:29:41.768Z</time></trkpt><trkpt lat="44.2281633" lon="11.42749"><ele>627.0</ele><time>2026-04-18T08:29:42.769Z</time></trkpt><trkpt lat="44.2280967" lon="11.4275517"><ele>627.0</ele><time>2026-04-18T08:29:43.768Z</time></trkpt><trkpt lat="44.228025" lon="11.4276217"><ele>627.0</ele><time>2026-04-18T08:29:44.769Z</time></trkpt><trkpt lat="44.2279483" lon="11.4277067"><ele>627.0</ele><time>2026-04-18T08:29:45.769Z</time></trkpt><trkpt lat="44.22787" lon="11.4278"><ele>625.0</ele><time>2026-04-18T08:29:46.768Z</time></trkpt><trkpt lat="44.2277867" lon="11.42788"><ele>623.0</ele><time>2026-04-18T08:29:47.769Z</time></trkpt><trkpt lat="44.22771" lon="11.42796"><ele>621.0</ele><time>2026-04-18T08:29:48.769Z</time></trkpt><trkpt lat="44.2276383" lon="11.4280367"><ele>619.0</ele><time>2026-04-18T08:29:49.768Z</time></trkpt><trkpt lat="44.2275667" lon="11.4281217"><ele>617.0</ele><time>2026-04-18T08:29:50.768Z</time></trkpt><trkpt lat="44.2275017" lon="11.428215"><ele>617.0</ele><time>2026-04-18T08:29:51.769Z</time></trkpt><trkpt lat="44.2274417" lon="11.4283167"><ele>617.0</ele><time>2026-04-18T08:29:52.768Z</time></trkpt><trkpt lat="44.2273967" lon="11.428415"><ele>617.0</ele><time>2026-04-18T08:29:53.768Z</time></trkpt><trkpt lat="44.227355" lon="11.4285217"><ele>617.0</ele><time>2026-04-18T08:29:54.769Z</time></trkpt><trkpt lat="44.2273333" lon="11.4286233"><ele>617.0</ele><time>2026-04-18T08:29:55.769Z</time></trkpt><trkpt lat="44.2273133" lon="11.4287483"><ele>617.0</ele><time>2026-04-18T08:29:56.768Z</time></trkpt><trkpt lat="44.2272917" lon="11.4288717"><ele>612.8000000000001</ele><time>2026-04-18T08:29:57.769Z</time></trkpt><trkpt lat="44.2272733" lon="11.4289917"><ele>608.6</ele><time>2026-04-18T08:29:58.769Z</time></trkpt><trkpt lat="44.227255" lon="11.4291183"><ele>604.4000000000001</ele><time>2026-04-18T08:29:59.768Z</time></trkpt><trkpt lat="44.2272333" lon="11.4292483"><ele>600.2</ele><time>2026-04-18T08:30:00.768Z</time></trkpt><trkpt lat="44.2271983" lon="11.4293917"><ele>596.0</ele><time>2026-04-18T08:30:01.769Z</time></trkpt><trkpt lat="44.2271567" lon="11.4295333"><ele>596.8</ele><time>2026-04-18T08:30:02.768Z</time></trkpt><trkpt lat="44.2271117" lon="11.4296633"><ele>597.6</ele><time>2026-04-18T08:30:03.769Z</time></trkpt><trkpt lat="44.2270733" lon="11.4297783"><ele>598.4</ele><time>2026-04-18T08:30:04.768Z</time></trkpt><trkpt lat="44.2270317" lon="11.429885"><ele>599.2</ele><time>2026-04-18T08:30:05.769Z</time></trkpt><trkpt lat="44.2269783" lon="11.4299967"><ele>600.0</ele><time>2026-04-18T08:30:06.769Z</time></trkpt><trkpt lat="44.2269233" lon="11.430105"><ele>600.0</ele><time>2026-04-18T08:30:07.768Z</time></trkpt><trkpt lat="44.226855" lon="11.4302233"><ele>600.0</ele><time>2026-04-18T08:30:08.769Z</time></trkpt><trkpt lat="44.2267917" lon="11.4303367"><ele>600.0</ele><time>2026-04-18T08:30:09.768Z</time></trkpt><trkpt lat="44.2267317" lon="11.4304467"><ele>600.0</ele><time>2026-04-18T08:30:10.768Z</time></trkpt><trkpt lat="44.2266617" lon="11.4305533"><ele>600.0</ele><time>2026-04-18T08:30:11.769Z</time></trkpt><trkpt lat="44.2265867" lon="11.4306567"><ele>598.75</ele><time>2026-04-18T08:30:12.768Z</time></trkpt><trkpt lat="44.2265067" lon="11.4307733"><ele>597.5</ele><time>2026-04-18T08:30:13.768Z</time></trkpt><trkpt lat="44.2264183" lon="11.4309"><ele>596.25</ele><time>2026-04-18T08:30:14.768Z</time></trkpt><trkpt lat="44.226335" lon="11.4310283"><ele>595.0</ele><time>2026-04-18T08:30:15.768Z</time></trkpt><trkpt lat="44.2262467" lon="11.431155"><ele>593.8</ele><time>2026-04-18T08:30:16.769Z</time></trkpt><trkpt lat="44.2261783" lon="11.4312717"><ele>592.6</ele><time>2026-04-18T08:30:17.769Z</time></trkpt><trkpt lat="44.2261067" lon="11.4313767"><ele>591.4</ele><time>2026-04-18T08:30:18.768Z</time></trkpt><trkpt lat="44.2260267" lon="11.43148"><ele>590.2</ele><time>2026-04-18T08:30:19.768Z</time></trkpt><trkpt lat="44.2259333" lon="11.43159"><ele>589.0</ele><time>2026-04-18T08:30:20.768Z</time></trkpt><trkpt lat="44.225845" lon="11.4316833"><ele>589.0</ele><time>2026-04-18T08:30:21.768Z</time></trkpt><trkpt lat="44.2257617" lon="11.4317667"><ele>589.0</ele><time>2026-04-18T08:30:22.769Z</time></trkpt><trkpt lat="44.225675" lon="11.43183"><ele>589.0</ele><time>2026-04-18T08:30:23.769Z</time></trkpt><trkpt lat="44.2255767" lon="11.4318933"><ele>589.0</ele><time>2026-04-18T08:30:24.768Z</time></trkpt><trkpt lat="44.2254567" lon="11.4319467"><ele>589.0</ele><time>2026-04-18T08:30:25.769Z</time></trkpt><trkpt lat="44.2253567" lon="11.43199"><ele>588.5</ele><time>2026-04-18T08:30:26.768Z</time></trkpt><trkpt lat="44.22527" lon="11.4320433"><ele>588.0</ele><time>2026-04-18T08:30:27.768Z</time></trkpt><trkpt lat="44.2251867" lon="11.432105"><ele>587.5</ele><time>2026-04-18T08:30:28.769Z</time></trkpt><trkpt lat="44.225115" lon="11.4321733"><ele>587.0</ele><time>2026-04-18T08:30:29.769Z</time></trkpt><trkpt lat="44.225055" lon="11.432255"><ele>586.5</ele><time>2026-04-18T08:30:30.768Z</time></trkpt><trkpt lat="44.225005" lon="11.4323267"><ele>586.0</ele><time>2026-04-18T08:30:31.768Z</time></trkpt><trkpt lat="44.2249417" lon="11.4323867"><ele>586.0</ele><time>2026-04-18T08:30:32.768Z</time></trkpt><trkpt lat="44.2248733" lon="11.4324383"><ele>586.0</ele><time>2026-04-18T08:30:33.768Z</time></trkpt><trkpt lat="44.224805" lon="11.4325"><ele>586.0</ele><time>2026-04-18T08:30:34.768Z</time></trkpt><trkpt lat="44.2247533" lon="11.4325667"><ele>586.0</ele><time>2026-04-18T08:30:35.769Z</time></trkpt><trkpt lat="44.224715" lon="11.4326417"><ele>586.0</ele><time>2026-04-18T08:30:36.769Z</time></trkpt><trkpt lat="44.2246567" lon="11.4328083"><ele>586.0</ele><time>2026-04-18T08:30:38.768Z</time></trkpt><trkpt lat="44.224625" lon="11.4329067"><ele>584.6</ele><time>2026-04-18T08:30:39.768Z</time></trkpt><trkpt lat="44.2246017" lon="11.433015"><ele>583.2</ele><time>2026-04-18T08:30:40.769Z</time></trkpt><trkpt lat="44.22459" lon="11.4331167"><ele>581.8</ele><time>2026-04-18T08:30:41.768Z</time></trkpt><trkpt lat="44.224585" lon="11.43321"><ele>580.4</ele><time>2026-04-18T08:30:42.768Z</time></trkpt><trkpt lat="44.2246083" lon="11.4333817"><ele>579.0</ele><time>2026-04-18T08:30:44.768Z</time></trkpt><trkpt lat="44.2245983" lon="11.433555"><ele>579.0</ele><time>2026-04-18T08:30:46.768Z</time></trkpt><trkpt lat="44.2245017" lon="11.4336517"><ele>579.0</ele><time>2026-04-18T08:30:48.768Z</time></trkpt><trkpt lat="44.2244317" lon="11.4336617"><ele>579.0</ele><time>2026-04-18T08:30:49.768Z</time></trkpt><trkpt lat="44.2243667" lon="11.4336367"><ele>579.0</ele><time>2026-04-18T08:30:50.768Z</time></trkpt><trkpt lat="44.2242517" lon="11.4336217"><ele>579.0</ele><time>2026-04-18T08:30:52.768Z</time></trkpt><trkpt lat="44.22418" lon="11.43365"><ele>579.0</ele><time>2026-04-18T08:30:53.768Z</time></trkpt><trkpt lat="44.2241167" lon="11.4336883"><ele>579.0</ele><time>2026-04-18T08:30:54.767Z</time></trkpt><trkpt lat="44.2240067" lon="11.4336967"><ele>579.0</ele><time>2026-04-18T08:30:56.767Z</time></trkpt><trkpt lat="44.2239483" lon="11.4335983"><ele>579.0</ele><time>2026-04-18T08:30:58.768Z</time></trkpt><trkpt lat="44.2239467" lon="11.4334983"><ele>579.0</ele><time>2026-04-18T08:30:59.768Z</time></trkpt><trkpt lat="44.2239567" lon="11.43339"><ele>579.0</ele><time>2026-04-18T08:31:00.767Z</time></trkpt><trkpt lat="44.2239883" lon="11.4332733"><ele>579.0</ele><time>2026-04-18T08:31:01.768Z</time></trkpt><trkpt lat="44.2240167" lon="11.4331533"><ele>579.0</ele><time>2026-04-18T08:31:02.767Z</time></trkpt><trkpt lat="44.2240333" lon="11.433025"><ele>579.0</ele><time>2026-04-18T08:31:03.768Z</time></trkpt><trkpt lat="44.2240367" lon="11.432905"><ele>579.0</ele><time>2026-04-18T08:31:04.768Z</time></trkpt><trkpt lat="44.2240183" lon="11.4327867"><ele>579.0</ele><time>2026-04-18T08:31:05.767Z</time></trkpt><trkpt lat="44.2239983" lon="11.4326683"><ele>579.0</ele><time>2026-04-18T08:31:06.768Z</time></trkpt><trkpt lat="44.2239633" lon="11.4325533"><ele>579.0</ele><time>2026-04-18T08:31:07.768Z</time></trkpt><trkpt lat="44.2239267" lon="11.43245"><ele>573.8</ele><time>2026-04-18T08:31:08.767Z</time></trkpt><trkpt lat="44.223905" lon="11.4323317"><ele>568.5999999999999</ele><time>2026-04-18T08:31:09.768Z</time></trkpt><trkpt lat="44.2238867" lon="11.4321983"><ele>563.4</ele><time>2026-04-18T08:31:10.768Z</time></trkpt><trkpt lat="44.2238767" lon="11.4320567"><ele>558.1999999999999</ele><time>2026-04-18T08:31:11.768Z</time></trkpt><trkpt lat="44.223865" lon="11.4319117"><ele>553.0</ele><time>2026-04-18T08:31:12.767Z</time></trkpt><trkpt lat="44.2238667" lon="11.4317517"><ele>552.1999999999999</ele><time>2026-04-18T08:31:13.767Z</time></trkpt><trkpt lat="44.223865" lon="11.4315983"><ele>551.4</ele><time>2026-04-18T08:31:14.767Z</time></trkpt><trkpt lat="44.2238683" lon="11.4314467"><ele>550.5999999999999</ele><time>2026-04-18T08:31:15.767Z</time></trkpt><trkpt lat="44.2238683" lon="11.4313033"><ele>549.8</ele><time>2026-04-18T08:31:16.767Z</time></trkpt><trkpt lat="44.2238617" lon="11.43116"><ele>549.0</ele><time>2026-04-18T08:31:17.768Z</time></trkpt><trkpt lat="44.2238417" lon="11.43102"><ele>547.8</ele><time>2026-04-18T08:31:18.767Z</time></trkpt><trkpt lat="44.2238183" lon="11.4308883"><ele>546.5999999999999</ele><time>2026-04-18T08:31:19.767Z</time></trkpt><trkpt lat="44.22379" lon="11.4307483"><ele>545.4</ele><time>2026-04-18T08:31:20.767Z</time></trkpt><trkpt lat="44.2237733" lon="11.4306"><ele>544.1999999999999</ele><time>2026-04-18T08:31:21.767Z</time></trkpt><trkpt lat="44.2237583" lon="11.4304467"><ele>543.0</ele><time>2026-04-18T08:31:22.768Z</time></trkpt><trkpt lat="44.22374" lon="11.4302967"><ele>541.8</ele><time>2026-04-18T08:31:23.767Z</time></trkpt><trkpt lat="44.223715" lon="11.430165"><ele>540.5999999999999</ele><time>2026-04-18T08:31:24.767Z</time></trkpt><trkpt lat="44.2236983" lon="11.4300333"><ele>539.4000000000001</ele><time>2026-04-18T08:31:25.768Z</time></trkpt><trkpt lat="44.2236817" lon="11.4299017"><ele>538.2</ele><time>2026-04-18T08:31:26.767Z</time></trkpt><trkpt lat="44.22367" lon="11.4297667"><ele>537.0</ele><time>2026-04-18T08:31:27.768Z</time></trkpt><trkpt lat="44.2236533" lon="11.4296367"><ele>536.0</ele><time>2026-04-18T08:31:28.768Z</time></trkpt><trkpt lat="44.22363" lon="11.4295133"><ele>535.0</ele><time>2026-04-18T08:31:29.767Z</time></trkpt><trkpt lat="44.2236017" lon="11.429395"><ele>534.0</ele><time>2026-04-18T08:31:30.767Z</time></trkpt><trkpt lat="44.223575" lon="11.4292833"><ele>533.0</ele><time>2026-04-18T08:31:31.767Z</time></trkpt><trkpt lat="44.2235517" lon="11.4291633"><ele>532.0</ele><time>2026-04-18T08:31:32.768Z</time></trkpt><trkpt lat="44.2235417" lon="11.42905"><ele>531.0</ele><time>2026-04-18T08:31:33.767Z</time></trkpt><trkpt lat="44.2235517" lon="11.4289317"><ele>531.0</ele><time>2026-04-18T08:31:34.767Z</time></trkpt><trkpt lat="44.223565" lon="11.4288117"><ele>531.0</ele><time>2026-04-18T08:31:35.767Z</time></trkpt><trkpt lat="44.2235717" lon="11.4286867"><ele>531.0</ele><time>2026-04-18T08:31:36.767Z</time></trkpt><trkpt lat="44.2235783" lon="11.4285667"><ele>531.0</ele><time>2026-04-18T08:31:37.768Z</time></trkpt><trkpt lat="44.2235933" lon="11.4284383"><ele>531.0</ele><time>2026-04-18T08:31:38.767Z</time></trkpt><trkpt lat="44.2236133" lon="11.4283233"><ele>531.0</ele><time>2026-04-18T08:31:39.767Z</time></trkpt><trkpt lat="44.2236483" lon="11.4282017"><ele>529.4</ele><time>2026-04-18T08:31:40.768Z</time></trkpt><trkpt lat="44.2237" lon="11.4280817"><ele>527.8</ele><time>2026-04-18T08:31:41.768Z</time></trkpt><trkpt lat="44.22375" lon="11.427965"><ele>526.1999999999999</ele><time>2026-04-18T08:31:42.767Z</time></trkpt><trkpt lat="44.2238017" lon="11.4278317"><ele>524.6</ele><time>2026-04-18T08:31:43.768Z</time></trkpt><trkpt lat="44.223855" lon="11.42771"><ele>523.0</ele><time>2026-04-18T08:31:44.767Z</time></trkpt><trkpt lat="44.2239067" lon="11.4276067"><ele>521.8571428571428</ele><time>2026-04-18T08:31:45.767Z</time></trkpt><trkpt lat="44.2239367" lon="11.4275183"><ele>520.7142857142857</ele><time>2026-04-18T08:31:46.767Z</time></trkpt><trkpt lat="44.22395" lon="11.427425"><ele>519.5714285714286</ele><time>2026-04-18T08:31:47.768Z</time></trkpt><trkpt lat="44.223945" lon="11.4273317"><ele>518.4285714285713</ele><time>2026-04-18T08:31:48.768Z</time></trkpt><trkpt lat="44.2239333" lon="11.4272367"><ele>517.2857142857142</ele><time>2026-04-18T08:31:49.768Z</time></trkpt><trkpt lat="44.223915" lon="11.4271433"><ele>516.1428571428571</ele><time>2026-04-18T08:31:50.767Z</time></trkpt><trkpt lat="44.22389" lon="11.4270483"><ele>515.0</ele><time>2026-04-18T08:31:51.767Z</time></trkpt><trkpt lat="44.22386" lon="11.4269567"><ele>514.0</ele><time>2026-04-18T08:31:52.767Z</time></trkpt><trkpt lat="44.2238267" lon="11.426865"><ele>513.0</ele><time>2026-04-18T08:31:53.767Z</time></trkpt><trkpt lat="44.2237617" lon="11.4267"><ele>512.0</ele><time>2026-04-18T08:31:55.768Z</time></trkpt><trkpt lat="44.2237283" lon="11.4266183"><ele>511.0</ele><time>2026-04-18T08:31:56.768Z</time></trkpt><trkpt lat="44.2237033" lon="11.4265317"><ele>509.99999999999994</ele><time>2026-04-18T08:31:57.767Z</time></trkpt><trkpt lat="44.223695" lon="11.4264383"><ele>509.0</ele><time>2026-04-18T08:31:58.768Z</time></trkpt><trkpt lat="44.2237033" lon="11.4263367"><ele>509.2857142857142</ele><time>2026-04-18T08:31:59.768Z</time></trkpt><trkpt lat="44.2237233" lon="11.426235"><ele>509.57142857142856</ele><time>2026-04-18T08:32:00.767Z</time></trkpt><trkpt lat="44.2237483" lon="11.426135"><ele>509.85714285714283</ele><time>2026-04-18T08:32:01.767Z</time></trkpt><trkpt lat="44.2237683" lon="11.426035"><ele>510.1428571428571</ele><time>2026-04-18T08:32:02.767Z</time></trkpt><trkpt lat="44.22378" lon="11.4259333"><ele>510.42857142857144</ele><time>2026-04-18T08:32:03.767Z</time></trkpt><trkpt lat="44.2237883" lon="11.4258367"><ele>510.7142857142857</ele><time>2026-04-18T08:32:04.767Z</time></trkpt><trkpt lat="44.2237683" lon="11.4257333"><ele>511.0</ele><time>2026-04-18T08:32:05.767Z</time></trkpt><trkpt lat="44.2237367" lon="11.4256533"><ele>511.0</ele><time>2026-04-18T08:32:06.767Z</time></trkpt><trkpt lat="44.2236167" lon="11.4255833"><ele>511.0</ele><time>2026-04-18T08:32:08.767Z</time></trkpt><trkpt lat="44.2235183" lon="11.4255867"><ele>511.0</ele><time>2026-04-18T08:32:09.767Z</time></trkpt><trkpt lat="44.223415" lon="11.4256183"><ele>511.0</ele><time>2026-04-18T08:32:10.767Z</time></trkpt><trkpt lat="44.22332" lon="11.4256567"><ele>511.0</ele><time>2026-04-18T08:32:11.767Z</time></trkpt><trkpt lat="44.2232333" lon="11.4256983"><ele>511.00000000000006</ele><time>2026-04-18T08:32:12.768Z</time></trkpt><trkpt lat="44.2231583" lon="11.4257233"><ele>511.0</ele><time>2026-04-18T08:32:13.767Z</time></trkpt><trkpt lat="44.2230917" lon="11.4257167"><ele>511.0</ele><time>2026-04-18T08:32:14.768Z</time></trkpt><trkpt lat="44.2230283" lon="11.4256867"><ele>511.0</ele><time>2026-04-18T08:32:15.767Z</time></trkpt><trkpt lat="44.2229517" lon="11.42566"><ele>511.00000000000006</ele><time>2026-04-18T08:32:16.767Z</time></trkpt><trkpt lat="44.2228617" lon="11.42563"><ele>511.0</ele><time>2026-04-18T08:32:17.767Z</time></trkpt><trkpt lat="44.2227717" lon="11.4255933"><ele>510.20000000000005</ele><time>2026-04-18T08:32:18.767Z</time></trkpt><trkpt lat="44.2226833" lon="11.42555"><ele>509.40000000000003</ele><time>2026-04-18T08:32:19.768Z</time></trkpt><trkpt lat="44.22259" lon="11.425495"><ele>508.6</ele><time>2026-04-18T08:32:20.768Z</time></trkpt><trkpt lat="44.2224983" lon="11.4254417"><ele>507.8</ele><time>2026-04-18T08:32:21.767Z</time></trkpt><trkpt lat="44.2224217" lon="11.4254"><ele>507.0</ele><time>2026-04-18T08:32:22.768Z</time></trkpt><trkpt lat="44.2223483" lon="11.4253867"><ele>507.0</ele><time>2026-04-18T08:32:23.767Z</time></trkpt><trkpt lat="44.2222817" lon="11.4254033"><ele>507.0</ele><time>2026-04-18T08:32:24.767Z</time></trkpt><trkpt lat="44.2222283" lon="11.4254533"><ele>507.0</ele><time>2026-04-18T08:32:25.767Z</time></trkpt><trkpt lat="44.2221767" lon="11.42554"><ele>507.0</ele><time>2026-04-18T08:32:26.768Z</time></trkpt><trkpt lat="44.2221167" lon="11.42566"><ele>507.0</ele><time>2026-04-18T08:32:27.767Z</time></trkpt><trkpt lat="44.2220567" lon="11.4257917"><ele>507.0</ele><time>2026-04-18T08:32:28.767Z</time></trkpt><trkpt lat="44.2220067" lon="11.425915"><ele>507.0</ele><time>2026-04-18T08:32:29.767Z</time></trkpt><trkpt lat="44.2219683" lon="11.4260317"><ele>507.00000000000006</ele><time>2026-04-18T08:32:30.768Z</time></trkpt><trkpt lat="44.2219267" lon="11.42615"><ele>507.00000000000006</ele><time>2026-04-18T08:32:31.768Z</time></trkpt><trkpt lat="44.2218817" lon="11.4262683"><ele>507.0</ele><time>2026-04-18T08:32:32.767Z</time></trkpt><trkpt lat="44.2218433" lon="11.426375"><ele>507.0</ele><time>2026-04-18T08:32:33.767Z</time></trkpt><trkpt lat="44.2218067" lon="11.4264767"><ele>505.5</ele><time>2026-04-18T08:32:34.768Z</time></trkpt><trkpt lat="44.2217683" lon="11.42657"><ele>504.0</ele><time>2026-04-18T08:32:35.768Z</time></trkpt><trkpt lat="44.2217317" lon="11.4266533"><ele>502.5</ele><time>2026-04-18T08:32:36.768Z</time></trkpt><trkpt lat="44.22163" lon="11.42675"><ele>501.0</ele><time>2026-04-18T08:32:38.768Z</time></trkpt><trkpt lat="44.2215617" lon="11.426765"><ele>499.5</ele><time>2026-04-18T08:32:39.767Z</time></trkpt><trkpt lat="44.221485" lon="11.426765"><ele>498.0</ele><time>2026-04-18T08:32:40.767Z</time></trkpt><trkpt lat="44.2213983" lon="11.4267483"><ele>497.59999999999997</ele><time>2026-04-18T08:32:41.767Z</time></trkpt><trkpt lat="44.2213" lon="11.42673"><ele>497.19999999999993</ele><time>2026-04-18T08:32:42.767Z</time></trkpt><trkpt lat="44.2212017" lon="11.4266983"><ele>496.8</ele><time>2026-04-18T08:32:43.768Z</time></trkpt><trkpt lat="44.221105" lon="11.4266667"><ele>496.4</ele><time>2026-04-18T08:32:44.767Z</time></trkpt><trkpt lat="44.2210083" lon="11.4266467"><ele>496.0</ele><time>2026-04-18T08:32:45.768Z</time></trkpt><trkpt lat="44.2209267" lon="11.42665"><ele>496.00000000000006</ele><time>2026-04-18T08:32:46.768Z</time></trkpt><trkpt lat="44.2208533" lon="11.4266733"><ele>496.0</ele><time>2026-04-18T08:32:47.767Z</time></trkpt><trkpt lat="44.220795" lon="11.4267183"><ele>496.0</ele><time>2026-04-18T08:32:48.767Z</time></trkpt><trkpt lat="44.220755" lon="11.4267933"><ele>496.0</ele><time>2026-04-18T08:32:49.768Z</time></trkpt><trkpt lat="44.220735" lon="11.4268783"><ele>496.00000000000006</ele><time>2026-04-18T08:32:50.767Z</time></trkpt><trkpt lat="44.220735" lon="11.4270483"><ele>496.0</ele><time>2026-04-18T08:32:52.767Z</time></trkpt><trkpt lat="44.220765" lon="11.4272233"><ele>494.4</ele><time>2026-04-18T08:32:54.768Z</time></trkpt><trkpt lat="44.2208067" lon="11.42732"><ele>492.8</ele><time>2026-04-18T08:32:55.767Z</time></trkpt><trkpt lat="44.220855" lon="11.4274367"><ele>491.19999999999993</ele><time>2026-04-18T08:32:56.768Z</time></trkpt><trkpt lat="44.22092" lon="11.42756"><ele>489.59999999999997</ele><time>2026-04-18T08:32:57.767Z</time></trkpt><trkpt lat="44.2209817" lon="11.427685"><ele>488.0</ele><time>2026-04-18T08:32:58.768Z</time></trkpt><trkpt lat="44.2210317" lon="11.427805"><ele>487.99999999999994</ele><time>2026-04-18T08:32:59.767Z</time></trkpt><trkpt lat="44.2210783" lon="11.427915"><ele>488.0</ele><time>2026-04-18T08:33:00.767Z</time></trkpt><trkpt lat="44.2211067" lon="11.4280183"><ele>488.0</ele><time>2026-04-18T08:33:01.768Z</time></trkpt><trkpt lat="44.2211133" lon="11.4281067"><ele>488.0</ele><time>2026-04-18T08:33:02.768Z</time></trkpt><trkpt lat="44.2210983" lon="11.4281967"><ele>487.99999999999994</ele><time>2026-04-18T08:33:03.768Z</time></trkpt><trkpt lat="44.221065" lon="11.4282867"><ele>488.0</ele><time>2026-04-18T08:33:04.767Z</time></trkpt><trkpt lat="44.221" lon="11.4284017"><ele>487.2</ele><time>2026-04-18T08:33:05.767Z</time></trkpt><trkpt lat="44.2209317" lon="11.4285317"><ele>486.4</ele><time>2026-04-18T08:33:06.767Z</time></trkpt><trkpt lat="44.2208667" lon="11.4286583"><ele>485.59999999999997</ele><time>2026-04-18T08:33:07.767Z</time></trkpt><trkpt lat="44.2207983" lon="11.4287567"><ele>484.79999999999995</ele><time>2026-04-18T08:33:08.768Z</time></trkpt><trkpt lat="44.2207283" lon="11.4288233"><ele>484.0</ele><time>2026-04-18T08:33:09.768Z</time></trkpt><trkpt lat="44.2206467" lon="11.4288617"><ele>482.6</ele><time>2026-04-18T08:33:10.767Z</time></trkpt><trkpt lat="44.2205533" lon="11.42888"><ele>481.2</ele><time>2026-04-18T08:33:11.768Z</time></trkpt><trkpt lat="44.22046" lon="11.4288717"><ele>479.80000000000007</ele><time>2026-04-18T08:33:12.768Z</time></trkpt><trkpt lat="44.220355" lon="11.4288567"><ele>478.40000000000003</ele><time>2026-04-18T08:33:13.767Z</time></trkpt><trkpt lat="44.220255" lon="11.4288467"><ele>477.0</ele><time>2026-04-18T08:33:14.767Z</time></trkpt><trkpt lat="44.2201517" lon="11.4288167"><ele>477.6</ele><time>2026-04-18T08:33:15.768Z</time></trkpt><trkpt lat="44.2200667" lon="11.428795"><ele>478.20000000000005</ele><time>2026-04-18T08:33:16.768Z</time></trkpt><trkpt lat="44.2199783" lon="11.4287717"><ele>478.8</ele><time>2026-04-18T08:33:17.767Z</time></trkpt><trkpt lat="44.2198883" lon="11.428765"><ele>479.4</ele><time>2026-04-18T08:33:18.768Z</time></trkpt><trkpt lat="44.2198083" lon="11.4287833"><ele>480.0</ele><time>2026-04-18T08:33:19.767Z</time></trkpt><trkpt lat="44.219705" lon="11.4288383"><ele>478.6</ele><time>2026-04-18T08:33:20.768Z</time></trkpt><trkpt lat="44.2196017" lon="11.4289"><ele>477.2</ele><time>2026-04-18T08:33:21.768Z</time></trkpt><trkpt lat="44.2194933" lon="11.4289567"><ele>475.79999999999995</ele><time>2026-04-18T08:33:22.767Z</time></trkpt><trkpt lat="44.2193917" lon="11.4290267"><ele>474.4</ele><time>2026-04-18T08:33:23.767Z</time></trkpt><trkpt lat="44.219305" lon="11.4291067"><ele>473.0</ele><time>2026-04-18T08:33:24.767Z</time></trkpt><trkpt lat="44.219235" lon="11.42919"><ele>473.0</ele><time>2026-04-18T08:33:25.767Z</time></trkpt><trkpt lat="44.2191783" lon="11.429275"><ele>473.0</ele><time>2026-04-18T08:33:26.768Z</time></trkpt><trkpt lat="44.2191233" lon="11.4293517"><ele>473.0</ele><time>2026-04-18T08:33:27.767Z</time></trkpt><trkpt lat="44.219075" lon="11.4294283"><ele>473.0</ele><time>2026-04-18T08:33:28.768Z</time></trkpt><trkpt lat="44.2190267" lon="11.42951"><ele>473.0</ele><time>2026-04-18T08:33:29.767Z</time></trkpt><trkpt lat="44.218985" lon="11.42958"><ele>473.0</ele><time>2026-04-18T08:33:30.767Z</time></trkpt><trkpt lat="44.2189333" lon="11.4296317"><ele>473.0</ele><time>2026-04-18T08:33:31.767Z</time></trkpt><trkpt lat="44.2188583" lon="11.42968"><ele>472.8333333333333</ele><time>2026-04-18T08:33:32.767Z</time></trkpt><trkpt lat="44.21878" lon="11.42972"><ele>472.66666666666663</ele><time>2026-04-18T08:33:33.767Z</time></trkpt><trkpt lat="44.2187033" lon="11.4297483"><ele>472.5</ele><time>2026-04-18T08:33:34.768Z</time></trkpt><trkpt lat="44.2186317" lon="11.4297633"><ele>472.33333333333337</ele><time>2026-04-18T08:33:35.767Z</time></trkpt><trkpt lat="44.2185217" lon="11.429775"><ele>472.1666666666667</ele><time>2026-04-18T08:33:37.767Z</time></trkpt><trkpt lat="44.21844" lon="11.429735"><ele>472.0</ele><time>2026-04-18T08:33:39.768Z</time></trkpt><trkpt lat="44.2183417" lon="11.4296417"><ele>472.0</ele><time>2026-04-18T08:33:41.767Z</time></trkpt><trkpt lat="44.2182517" lon="11.4295583"><ele>472.00000000000006</ele><time>2026-04-18T08:33:43.767Z</time></trkpt><trkpt lat="44.2181783" lon="11.4294417"><ele>472.00000000000006</ele><time>2026-04-18T08:33:45.767Z</time></trkpt><trkpt lat="44.21811" lon="11.429295"><ele>472.0</ele><time>2026-04-18T08:33:47.767Z</time></trkpt><trkpt lat="44.2180717" lon="11.4292"><ele>472.0</ele><time>2026-04-18T08:33:48.767Z</time></trkpt><trkpt lat="44.21804" lon="11.429085"><ele>472.20000000000005</ele><time>2026-04-18T08:33:49.767Z</time></trkpt><trkpt lat="44.217995" lon="11.4289617"><ele>472.40000000000003</ele><time>2026-04-18T08:33:50.767Z</time></trkpt><trkpt lat="44.2179567" lon="11.428865"><ele>472.59999999999997</ele><time>2026-04-18T08:33:51.767Z</time></trkpt><trkpt lat="44.21791" lon="11.4287917"><ele>472.79999999999995</ele><time>2026-04-18T08:33:52.768Z</time></trkpt><trkpt lat="44.2178283" lon="11.4286683"><ele>473.0</ele><time>2026-04-18T08:33:54.768Z</time></trkpt><trkpt lat="44.2177883" lon="11.4285233"><ele>474.99999999999994</ele><time>2026-04-18T08:33:56.767Z</time></trkpt><trkpt lat="44.217775" lon="11.4284367"><ele>477.0</ele><time>2026-04-18T08:33:57.767Z</time></trkpt><trkpt lat="44.217765" lon="11.4283483"><ele>479.0</ele><time>2026-04-18T08:33:58.767Z</time></trkpt><trkpt lat="44.2177417" lon="11.4281767"><ele>481.0</ele><time>2026-04-18T08:34:00.768Z</time></trkpt><trkpt lat="44.2177317" lon="11.4280767"><ele>482.99999999999994</ele><time>2026-04-18T08:34:01.767Z</time></trkpt><trkpt lat="44.2177333" lon="11.42798"><ele>485.0</ele><time>2026-04-18T08:34:02.768Z</time></trkpt><trkpt lat="44.2177383" lon="11.42789"><ele>487.1428571428572</ele><time>2026-04-18T08:34:03.767Z</time></trkpt><trkpt lat="44.2177433" lon="11.4277733"><ele>489.28571428571433</ele><time>2026-04-18T08:34:04.767Z</time></trkpt><trkpt lat="44.2177467" lon="11.42766"><ele>491.42857142857144</ele><time>2026-04-18T08:34:05.767Z</time></trkpt><trkpt lat="44.2177483" lon="11.427545"><ele>493.5714285714286</ele><time>2026-04-18T08:34:06.768Z</time></trkpt><trkpt lat="44.2177567" lon="11.4274483"><ele>495.7142857142858</ele><time>2026-04-18T08:34:07.767Z</time></trkpt><trkpt lat="44.217765" lon="11.42736"><ele>497.85714285714283</ele><time>2026-04-18T08:34:08.768Z</time></trkpt><trkpt lat="44.2177767" lon="11.4272683"><ele>500.0</ele><time>2026-04-18T08:34:09.767Z</time></trkpt><trkpt lat="44.2177867" lon="11.427165"><ele>501.99999999999994</ele><time>2026-04-18T08:34:10.767Z</time></trkpt><trkpt lat="44.217785" lon="11.4270633"><ele>504.0</ele><time>2026-04-18T08:34:11.767Z</time></trkpt><trkpt lat="44.2177867" lon="11.426975"><ele>506.0</ele><time>2026-04-18T08:34:12.768Z</time></trkpt><trkpt lat="44.217785" lon="11.4268067"><ele>508.0</ele><time>2026-04-18T08:34:14.767Z</time></trkpt><trkpt lat="44.21778" lon="11.42671"><ele>509.99999999999994</ele><time>2026-04-18T08:34:15.767Z</time></trkpt><trkpt lat="44.2177683" lon="11.4265967"><ele>512.0</ele><time>2026-04-18T08:34:16.768Z</time></trkpt><trkpt lat="44.217755" lon="11.4264933"><ele>511.99999999999994</ele><time>2026-04-18T08:34:17.768Z</time></trkpt><trkpt lat="44.2177483" lon="11.4264"><ele>512.0</ele><time>2026-04-18T08:34:18.767Z</time></trkpt><trkpt lat="44.21775" lon="11.4263083"><ele>512.0</ele><time>2026-04-18T08:34:19.768Z</time></trkpt><trkpt lat="44.2177617" lon="11.42622"><ele>512.0</ele><time>2026-04-18T08:34:20.767Z</time></trkpt><trkpt lat="44.217815" lon="11.42607"><ele>511.99999999999994</ele><time>2026-04-18T08:34:22.767Z</time></trkpt><trkpt lat="44.2178483" lon="11.42599"><ele>512.0</ele><time>2026-04-18T08:34:23.767Z</time></trkpt><trkpt lat="44.2178967" lon="11.4258383"><ele>514.1666666666666</ele><time>2026-04-18T08:34:25.766Z</time></trkpt><trkpt lat="44.21789" lon="11.42569"><ele>516.3333333333333</ele><time>2026-04-18T08:34:27.766Z</time></trkpt><trkpt lat="44.2178717" lon="11.4255133"><ele>518.5</ele><time>2026-04-18T08:34:29.766Z</time></trkpt><trkpt lat="44.217865" lon="11.4254217"><ele>520.6666666666666</ele><time>2026-04-18T08:34:30.767Z</time></trkpt><trkpt lat="44.2178567" lon="11.4253317"><ele>522.8333333333334</ele><time>2026-04-18T08:34:31.766Z</time></trkpt><trkpt lat="44.2178333" lon="11.42524"><ele>525.0</ele><time>2026-04-18T08:34:32.767Z</time></trkpt><trkpt lat="44.2178133" lon="11.42515"><ele>528.2</ele><time>2026-04-18T08:34:33.767Z</time></trkpt><trkpt lat="44.217795" lon="11.425065"><ele>531.4</ele><time>2026-04-18T08:34:34.766Z</time></trkpt><trkpt lat="44.21776" lon="11.4249183"><ele>534.6</ele><time>2026-04-18T08:34:36.766Z</time></trkpt><trkpt lat="44.2177217" lon="11.4247467"><ele>537.8</ele><time>2026-04-18T08:34:38.767Z</time></trkpt><trkpt lat="44.2176933" lon="11.4246567"><ele>541.0</ele><time>2026-04-18T08:34:39.767Z</time></trkpt><trkpt lat="44.2176467" lon="11.424505"><ele>544.0</ele><time>2026-04-18T08:34:41.766Z</time></trkpt><trkpt lat="44.2176" lon="11.424345"><ele>547.0</ele><time>2026-04-18T08:34:43.766Z</time></trkpt><trkpt lat="44.2175483" lon="11.4241867"><ele>550.0</ele><time>2026-04-18T08:34:45.766Z</time></trkpt><trkpt lat="44.2174933" lon="11.4240383"><ele>553.0</ele><time>2026-04-18T08:34:47.766Z</time></trkpt><trkpt lat="44.2174517" lon="11.4238683"><ele>554.5714285714286</ele><time>2026-04-18T08:34:49.766Z</time></trkpt><trkpt lat="44.2174383" lon="11.4237667"><ele>556.1428571428571</ele><time>2026-04-18T08:34:50.766Z</time></trkpt><trkpt lat="44.2174183" lon="11.4236633"><ele>557.7142857142858</ele><time>2026-04-18T08:34:51.767Z</time></trkpt><trkpt lat="44.217405" lon="11.4235717"><ele>559.2857142857142</ele><time>2026-04-18T08:34:52.766Z</time></trkpt><trkpt lat="44.2174067" lon="11.4234833"><ele>560.8571428571429</ele><time>2026-04-18T08:34:53.766Z</time></trkpt><trkpt lat="44.2174083" lon="11.42339"><ele>562.4285714285714</ele><time>2026-04-18T08:34:54.767Z</time></trkpt><trkpt lat="44.21741" lon="11.423295"><ele>564.0</ele><time>2026-04-18T08:34:55.766Z</time></trkpt><trkpt lat="44.2173933" lon="11.4231483"><ele>564.0</ele><time>2026-04-18T08:34:57.766Z</time></trkpt><trkpt lat="44.2173583" lon="11.422985"><ele>564.0</ele><time>2026-04-18T08:34:59.766Z</time></trkpt><trkpt lat="44.2173417" lon="11.4228933"><ele>564.0</ele><time>2026-04-18T08:35:00.766Z</time></trkpt><trkpt lat="44.2173167" lon="11.4228"><ele>564.0</ele><time>2026-04-18T08:35:01.766Z</time></trkpt><trkpt lat="44.2172883" lon="11.4226467"><ele>564.0</ele><time>2026-04-18T08:35:03.767Z</time></trkpt><trkpt lat="44.2172667" lon="11.4224933"><ele>564.8333333333334</ele><time>2026-04-18T08:35:05.767Z</time></trkpt><trkpt lat="44.2172567" lon="11.4224033"><ele>565.6666666666666</ele><time>2026-04-18T08:35:06.766Z</time></trkpt><trkpt lat="44.2172433" lon="11.422315"><ele>566.5</ele><time>2026-04-18T08:35:07.767Z</time></trkpt><trkpt lat="44.2172267" lon="11.4222267"><ele>567.3333333333333</ele><time>2026-04-18T08:35:08.766Z</time></trkpt><trkpt lat="44.2171833" lon="11.4220533"><ele>568.1666666666666</ele><time>2026-04-18T08:35:10.767Z</time></trkpt><trkpt lat="44.2171667" lon="11.4219667"><ele>569.0</ele><time>2026-04-18T08:35:11.767Z</time></trkpt><trkpt lat="44.217155" lon="11.4218767"><ele>571.0</ele><time>2026-04-18T08:35:12.766Z</time></trkpt><trkpt lat="44.21715" lon="11.4217883"><ele>573.0</ele><time>2026-04-18T08:35:13.766Z</time></trkpt><trkpt lat="44.2171467" lon="11.42168"><ele>575.0</ele><time>2026-04-18T08:35:14.766Z</time></trkpt><trkpt lat="44.217145" lon="11.4215717"><ele>577.0</ele><time>2026-04-18T08:35:15.767Z</time></trkpt><trkpt lat="44.2171467" lon="11.4214783"><ele>579.0</ele><time>2026-04-18T08:35:16.766Z</time></trkpt><trkpt lat="44.21714" lon="11.421385"><ele>581.0</ele><time>2026-04-18T08:35:17.767Z</time></trkpt><trkpt lat="44.21712" lon="11.42123"><ele>582.8</ele><time>2026-04-18T08:35:19.767Z</time></trkpt><trkpt lat="44.2171433" lon="11.4210833"><ele>584.6</ele><time>2026-04-18T08:35:21.766Z</time></trkpt><trkpt lat="44.217185" lon="11.42094"><ele>586.4</ele><time>2026-04-18T08:35:23.766Z</time></trkpt><trkpt lat="44.217235" lon="11.4208067"><ele>588.2</ele><time>2026-04-18T08:35:25.766Z</time></trkpt><trkpt lat="44.2172883" lon="11.4206833"><ele>590.0</ele><time>2026-04-18T08:35:27.767Z</time></trkpt><trkpt lat="44.2173233" lon="11.42056"><ele>591.3333333333333</ele><time>2026-04-18T08:35:29.766Z</time></trkpt><trkpt lat="44.21735" lon="11.420455"><ele>592.6666666666666</ele><time>2026-04-18T08:35:31.766Z</time></trkpt><trkpt lat="44.2173533" lon="11.4203417"><ele>594.0</ele><time>2026-04-18T08:35:33.767Z</time></trkpt><trkpt lat="44.21737" lon="11.4202417"><ele>595.3333333333334</ele><time>2026-04-18T08:35:35.767Z</time></trkpt><trkpt lat="44.21742" lon="11.42018"><ele>596.6666666666667</ele><time>2026-04-18T08:35:37.766Z</time></trkpt><trkpt lat="44.2175083" lon="11.4201283"><ele>598.0</ele><time>2026-04-18T08:35:39.766Z</time></trkpt><trkpt lat="44.217615" lon="11.4200733"><ele>598.0</ele><time>2026-04-18T08:35:41.767Z</time></trkpt><trkpt lat="44.21772" lon="11.4199967"><ele>598.0</ele><time>2026-04-18T08:35:43.767Z</time></trkpt><trkpt lat="44.217805" lon="11.41991"><ele>598.0</ele><time>2026-04-18T08:35:45.766Z</time></trkpt><trkpt lat="44.2178933" lon="11.419825"><ele>598.0</ele><time>2026-04-18T08:35:47.767Z</time></trkpt><trkpt lat="44.2179883" lon="11.41975"><ele>598.0</ele><time>2026-04-18T08:35:49.766Z</time></trkpt><trkpt lat="44.2180883" lon="11.4196733"><ele>596.8</ele><time>2026-04-18T08:35:51.767Z</time></trkpt><trkpt lat="44.2181783" lon="11.4196117"><ele>595.5999999999999</ele><time>2026-04-18T08:35:53.767Z</time></trkpt><trkpt lat="44.2182683" lon="11.4195467"><ele>594.4000000000001</ele><time>2026-04-18T08:35:55.766Z</time></trkpt><trkpt lat="44.2183517" lon="11.419495"><ele>593.2</ele><time>2026-04-18T08:35:57.766Z</time></trkpt><trkpt lat="44.218445" lon="11.419465"><ele>592.0</ele><time>2026-04-18T08:35:59.766Z</time></trkpt><trkpt lat="44.21855" lon="11.41948"><ele>592.0</ele><time>2026-04-18T08:36:01.766Z</time></trkpt><trkpt lat="44.218655" lon="11.4195083"><ele>592.0</ele><time>2026-04-18T08:36:03.766Z</time></trkpt><trkpt lat="44.21878" lon="11.419525"><ele>592.0</ele><time>2026-04-18T08:36:05.766Z</time></trkpt><trkpt lat="44.21889" lon="11.419545"><ele>592.0</ele><time>2026-04-18T08:36:07.766Z</time></trkpt><trkpt lat="44.2190083" lon="11.4195683"><ele>590.8333333333334</ele><time>2026-04-18T08:36:09.766Z</time></trkpt><trkpt lat="44.219075" lon="11.4195733"><ele>589.6666666666667</ele><time>2026-04-18T08:36:10.766Z</time></trkpt><trkpt lat="44.21919" lon="11.4195633"><ele>588.5</ele><time>2026-04-18T08:36:12.766Z</time></trkpt><trkpt lat="44.2192717" lon="11.4194883"><ele>587.3333333333334</ele><time>2026-04-18T08:36:14.766Z</time></trkpt><trkpt lat="44.2193267" lon="11.4194117"><ele>586.1666666666666</ele><time>2026-04-18T08:36:16.766Z</time></trkpt><trkpt lat="44.2193917" lon="11.41934"><ele>585.0</ele><time>2026-04-18T08:36:18.766Z</time></trkpt><trkpt lat="44.219425" lon="11.4192217"><ele>585.0</ele><time>2026-04-18T08:36:20.767Z</time></trkpt><trkpt lat="44.219455" lon="11.419135"><ele>585.0</ele><time>2026-04-18T08:36:22.766Z</time></trkpt><trkpt lat="44.2195467" lon="11.41909"><ele>585.0</ele><time>2026-04-18T08:36:24.766Z</time></trkpt><trkpt lat="44.2196217" lon="11.4190633"><ele>585.0</ele><time>2026-04-18T08:36:26.766Z</time></trkpt><trkpt lat="44.2196967" lon="11.4190517"><ele>585.0</ele><time>2026-04-18T08:36:28.766Z</time></trkpt><trkpt lat="44.2197733" lon="11.41902"><ele>585.0</ele><time>2026-04-18T08:36:30.766Z</time></trkpt><trkpt lat="44.2198417" lon="11.41899"><ele>585.5</ele><time>2026-04-18T08:36:32.767Z</time></trkpt><trkpt lat="44.2199017" lon="11.4189117"><ele>586.0</ele><time>2026-04-18T08:36:35.767Z</time></trkpt><trkpt lat="44.2199" lon="11.4188133"><ele>586.5</ele><time>2026-04-18T08:36:37.766Z</time></trkpt><trkpt lat="44.2198983" lon="11.4186883"><ele>587.0</ele><time>2026-04-18T08:36:39.767Z</time></trkpt><trkpt lat="44.2199133" lon="11.4185267"><ele>587.5</ele><time>2026-04-18T08:36:41.766Z</time></trkpt><trkpt lat="44.2199167" lon="11.4184217"><ele>588.0</ele><time>2026-04-18T08:36:42.766Z</time></trkpt><trkpt lat="44.21992" lon="11.4183033"><ele>588.0</ele><time>2026-04-18T08:36:43.766Z</time></trkpt><trkpt lat="44.2199267" lon="11.4181733"><ele>588.0</ele><time>2026-04-18T08:36:44.766Z</time></trkpt><trkpt lat="44.2199383" lon="11.4180217"><ele>588.0</ele><time>2026-04-18T08:36:45.766Z</time></trkpt><trkpt lat="44.2199417" lon="11.417875"><ele>588.0</ele><time>2026-04-18T08:36:46.766Z</time></trkpt><trkpt lat="44.2199417" lon="11.417745"><ele>588.0</ele><time>2026-04-18T08:36:47.766Z</time></trkpt><trkpt lat="44.21993" lon="11.4176283"><ele>589.0</ele><time>2026-04-18T08:36:48.767Z</time></trkpt><trkpt lat="44.2199133" lon="11.4175283"><ele>590.0</ele><time>2026-04-18T08:36:49.767Z</time></trkpt><trkpt lat="44.2198833" lon="11.4173667"><ele>591.0</ele><time>2026-04-18T08:36:51.767Z</time></trkpt><trkpt lat="44.21985" lon="11.4172217"><ele>592.0</ele><time>2026-04-18T08:36:53.766Z</time></trkpt><trkpt lat="44.219815" lon="11.417055"><ele>593.0</ele><time>2026-04-18T08:36:55.767Z</time></trkpt><trkpt lat="44.2197867" lon="11.4169717"><ele>596.5</ele><time>2026-04-18T08:36:56.767Z</time></trkpt><trkpt lat="44.2197533" lon="11.4168817"><ele>600.0</ele><time>2026-04-18T08:36:57.766Z</time></trkpt><trkpt lat="44.2197183" lon="11.416795"><ele>603.5</ele><time>2026-04-18T08:36:58.767Z</time></trkpt><trkpt lat="44.2196817" lon="11.4167233"><ele>607.0</ele><time>2026-04-18T08:36:59.767Z</time></trkpt><trkpt lat="44.219625" lon="11.4166267"><ele>610.5</ele><time>2026-04-18T08:37:01.766Z</time></trkpt><trkpt lat="44.21956" lon="11.4165367"><ele>614.0</ele><time>2026-04-18T08:37:03.766Z</time></trkpt><trkpt lat="44.219495" lon="11.416425"><ele>614.0</ele><time>2026-04-18T08:37:05.767Z</time></trkpt><trkpt lat="44.21943" lon="11.4163417"><ele>614.0</ele><time>2026-04-18T08:37:07.766Z</time></trkpt><trkpt lat="44.21936" lon="11.416245"><ele>614.0</ele><time>2026-04-18T08:37:09.766Z</time></trkpt><trkpt lat="44.21928" lon="11.4161233"><ele>614.0</ele><time>2026-04-18T08:37:11.766Z</time></trkpt><trkpt lat="44.219235" lon="11.4160617"><ele>614.0</ele><time>2026-04-18T08:37:12.766Z</time></trkpt><trkpt lat="44.2191717" lon="11.4159967"><ele>614.0</ele><time>2026-04-18T08:37:13.767Z</time></trkpt><trkpt lat="44.2191031" lon="11.4159395"><ele>617.0</ele><time>2026-04-18T08:37:14.766Z</time></trkpt><trkpt lat="44.219046" lon="11.4158942"><ele>620.0</ele><time>2026-04-18T08:37:15.766Z</time></trkpt><trkpt lat="44.2189819" lon="11.4157974"><ele>623.0</ele><time>2026-04-18T08:37:17.766Z</time></trkpt><trkpt lat="44.2189519" lon="11.4157106"><ele>626.0</ele><time>2026-04-18T08:37:18.766Z</time></trkpt><trkpt lat="44.2189187" lon="11.4156205"><ele>629.0</ele><time>2026-04-18T08:37:19.766Z</time></trkpt><trkpt lat="44.2188346" lon="11.415504"><ele>632.0</ele><time>2026-04-18T08:37:21.766Z</time></trkpt><trkpt lat="44.2187879" lon="11.4154404"><ele>635.3333333333333</ele><time>2026-04-18T08:37:22.767Z</time></trkpt><trkpt lat="44.2187407" lon="11.4153643"><ele>638.6666666666666</ele><time>2026-04-18T08:37:23.767Z</time></trkpt><trkpt lat="44.218705" lon="11.4152813"><ele>642.0</ele><time>2026-04-18T08:37:24.767Z</time></trkpt><trkpt lat="44.218662" lon="11.4151448"><ele>645.3333333333334</ele><time>2026-04-18T08:37:26.766Z</time></trkpt><trkpt lat="44.2186266" lon="11.4150386"><ele>648.6666666666667</ele><time>2026-04-18T08:37:28.766Z</time></trkpt><trkpt lat="44.2185812" lon="11.4149194"><ele>652.0</ele><time>2026-04-18T08:37:30.766Z</time></trkpt><trkpt lat="44.2185418" lon="11.4147954"><ele>652.0</ele><time>2026-04-18T08:37:32.767Z</time></trkpt><trkpt lat="44.2184959" lon="11.4146628"><ele>652.0</ele><time>2026-04-18T08:37:34.767Z</time></trkpt><trkpt lat="44.2184394" lon="11.4145278"><ele>652.0</ele><time>2026-04-18T08:37:36.766Z</time></trkpt><trkpt lat="44.2183854" lon="11.4144084"><ele>652.0</ele><time>2026-04-18T08:37:38.767Z</time></trkpt><trkpt lat="44.2183268" lon="11.4142841"><ele>652.0</ele><time>2026-04-18T08:37:40.767Z</time></trkpt><trkpt lat="44.2182666" lon="11.4141355"><ele>653.8</ele><time>2026-04-18T08:37:42.766Z</time></trkpt><trkpt lat="44.2182075" lon="11.4140122"><ele>655.6</ele><time>2026-04-18T08:37:44.766Z</time></trkpt><trkpt lat="44.2181475" lon="11.4139099"><ele>657.4</ele><time>2026-04-18T08:37:46.766Z</time></trkpt><trkpt lat="44.2180718" lon="11.4137993"><ele>659.1999999999999</ele><time>2026-04-18T08:37:48.766Z</time></trkpt><trkpt lat="44.2179897" lon="11.4136639"><ele>661.0</ele><time>2026-04-18T08:37:50.767Z</time></trkpt><trkpt lat="44.2179129" lon="11.4135281"><ele>664.5999999999999</ele><time>2026-04-18T08:37:52.766Z</time></trkpt><trkpt lat="44.2178457" lon="11.4133804"><ele>668.2</ele><time>2026-04-18T08:37:54.765Z</time></trkpt><trkpt lat="44.2178156" lon="11.4133011"><ele>671.8</ele><time>2026-04-18T08:37:55.765Z</time></trkpt><trkpt lat="44.2177626" lon="11.4131588"><ele>675.4000000000001</ele><time>2026-04-18T08:37:57.766Z</time></trkpt><trkpt lat="44.2177229" lon="11.4130321"><ele>679.0</ele><time>2026-04-18T08:37:59.765Z</time></trkpt><trkpt lat="44.2176785" lon="11.4129148"><ele>683.0</ele><time>2026-04-18T08:38:01.766Z</time></trkpt><trkpt lat="44.2176306" lon="11.4127875"><ele>687.0</ele><time>2026-04-18T08:38:03.766Z</time></trkpt><trkpt lat="44.2175893" lon="11.4126339"><ele>691.0</ele><time>2026-04-18T08:38:05.765Z</time></trkpt><trkpt lat="44.2175395" lon="11.4124803"><ele>695.0</ele><time>2026-04-18T08:38:07.765Z</time></trkpt><trkpt lat="44.2174915" lon="11.4123395"><ele>695.0</ele><time>2026-04-18T08:38:09.766Z</time></trkpt><trkpt lat="44.2174678" lon="11.4121969"><ele>695.0</ele><time>2026-04-18T08:38:11.765Z</time></trkpt><trkpt lat="44.2174596" lon="11.4120513"><ele>695.0</ele><time>2026-04-18T08:38:13.766Z</time></trkpt><trkpt lat="44.2174458" lon="11.411914"><ele>695.0</ele><time>2026-04-18T08:38:15.765Z</time></trkpt><trkpt lat="44.2174547" lon="11.4117923"><ele>695.0</ele><time>2026-04-18T08:38:17.766Z</time></trkpt><trkpt lat="44.2175009" lon="11.4116688"><ele>696.3333333333333</ele><time>2026-04-18T08:38:19.765Z</time></trkpt><trkpt lat="44.2175668" lon="11.4115208"><ele>697.6666666666666</ele><time>2026-04-18T08:38:21.766Z</time></trkpt><trkpt lat="44.2175999" lon="11.4114415"><ele>699.0</ele><time>2026-04-18T08:38:22.765Z</time></trkpt><trkpt lat="44.2176361" lon="11.4113534"><ele>700.3333333333334</ele><time>2026-04-18T08:38:23.766Z</time></trkpt><trkpt lat="44.2176737" lon="11.4112627"><ele>701.6666666666667</ele><time>2026-04-18T08:38:24.766Z</time></trkpt><trkpt lat="44.2177099" lon="11.4111711"><ele>703.0</ele><time>2026-04-18T08:38:25.766Z</time></trkpt><trkpt lat="44.2177434" lon="11.4110838"><ele>703.8</ele><time>2026-04-18T08:38:26.765Z</time></trkpt><trkpt lat="44.2177924" lon="11.4109288"><ele>704.5999999999999</ele><time>2026-04-18T08:38:28.765Z</time></trkpt><trkpt lat="44.2178446" lon="11.4107769"><ele>705.4000000000001</ele><time>2026-04-18T08:38:30.765Z</time></trkpt><trkpt lat="44.2178797" lon="11.4106955"><ele>706.2</ele><time>2026-04-18T08:38:31.765Z</time></trkpt><trkpt lat="44.2179139" lon="11.4106081"><ele>707.0</ele><time>2026-04-18T08:38:32.765Z</time></trkpt><trkpt lat="44.217949" lon="11.4105224"><ele>706.6</ele><time>2026-04-18T08:38:33.765Z</time></trkpt><trkpt lat="44.2180091" lon="11.4103907"><ele>706.2</ele><time>2026-04-18T08:38:35.766Z</time></trkpt><trkpt lat="44.2180682" lon="11.4102448"><ele>705.8</ele><time>2026-04-18T08:38:37.766Z</time></trkpt><trkpt lat="44.2181033" lon="11.4101443"><ele>705.4</ele><time>2026-04-18T08:38:38.765Z</time></trkpt><trkpt lat="44.2181494" lon="11.4100208"><ele>705.0</ele><time>2026-04-18T08:38:39.766Z</time></trkpt><trkpt lat="44.2182099" lon="11.4098815"><ele>707.75</ele><time>2026-04-18T08:38:40.765Z</time></trkpt><trkpt lat="44.2182834" lon="11.4097444"><ele>710.5</ele><time>2026-04-18T08:38:41.765Z</time></trkpt><trkpt lat="44.2183691" lon="11.4096102"><ele>713.25</ele><time>2026-04-18T08:38:42.766Z</time></trkpt><trkpt lat="44.2184647" lon="11.4094777"><ele>716.0</ele><time>2026-04-18T08:38:43.766Z</time></trkpt><trkpt lat="44.2185643" lon="11.4093461"><ele>716.0</ele><time>2026-04-18T08:38:44.766Z</time></trkpt><trkpt lat="44.2186558" lon="11.4092143"><ele>716.0</ele><time>2026-04-18T08:38:45.765Z</time></trkpt><trkpt lat="44.2187476" lon="11.4090859"><ele>716.0</ele><time>2026-04-18T08:38:46.765Z</time></trkpt><trkpt lat="44.2188365" lon="11.4089556"><ele>716.0</ele><time>2026-04-18T08:38:47.765Z</time></trkpt><trkpt lat="44.2189199" lon="11.4088357"><ele>719.5</ele><time>2026-04-18T08:38:48.766Z</time></trkpt><trkpt lat="44.2190009" lon="11.4087179"><ele>723.0</ele><time>2026-04-18T08:38:49.765Z</time></trkpt><trkpt lat="44.2190764" lon="11.4085975"><ele>726.5</ele><time>2026-04-18T08:38:50.765Z</time></trkpt><trkpt lat="44.2191557" lon="11.4084749"><ele>730.0</ele><time>2026-04-18T08:38:51.765Z</time></trkpt><trkpt lat="44.2192329" lon="11.408361"><ele>730.0</ele><time>2026-04-18T08:38:52.765Z</time></trkpt><trkpt lat="44.2193073" lon="11.4082556"><ele>730.0</ele><time>2026-04-18T08:38:53.766Z</time></trkpt><trkpt lat="44.2193791" lon="11.4081526"><ele>730.0</ele><time>2026-04-18T08:38:54.766Z</time></trkpt><trkpt lat="44.2194534" lon="11.408042"><ele>730.0</ele><time>2026-04-18T08:38:55.765Z</time></trkpt><trkpt lat="44.2195229" lon="11.4079415"><ele>730.0</ele><time>2026-04-18T08:38:56.766Z</time></trkpt><trkpt lat="44.2195871" lon="11.4078546"><ele>730.1666666666667</ele><time>2026-04-18T08:38:57.766Z</time></trkpt><trkpt lat="44.2196409" lon="11.407781"><ele>730.3333333333334</ele><time>2026-04-18T08:38:58.765Z</time></trkpt><trkpt lat="44.2196802" lon="11.4077062"><ele>730.5</ele><time>2026-04-18T08:38:59.765Z</time></trkpt><trkpt lat="44.2197169" lon="11.4075868"><ele>730.6666666666666</ele><time>2026-04-18T08:39:01.765Z</time></trkpt><trkpt lat="44.2197284" lon="11.4074794"><ele>730.8333333333333</ele><time>2026-04-18T08:39:04.765Z</time></trkpt><trkpt lat="44.2197549" lon="11.4073651"><ele>731.0</ele><time>2026-04-18T08:39:07.765Z</time></trkpt><trkpt lat="44.2197863" lon="11.4072767"><ele>731.0</ele><time>2026-04-18T08:39:09.766Z</time></trkpt><trkpt lat="44.2198074" lon="11.4071868"><ele>731.0</ele><time>2026-04-18T08:39:11.766Z</time></trkpt><trkpt lat="44.2198284" lon="11.4070849"><ele>731.0</ele><time>2026-04-18T08:39:14.765Z</time></trkpt><trkpt lat="44.219838" lon="11.4069917"><ele>731.0</ele><time>2026-04-18T08:39:16.766Z</time></trkpt><trkpt lat="44.2198555" lon="11.4068972"><ele>731.0</ele><time>2026-04-18T08:39:18.765Z</time></trkpt><trkpt lat="44.219875" lon="11.4067847"><ele>731.0</ele><time>2026-04-18T08:39:20.765Z</time></trkpt><trkpt lat="44.2198937" lon="11.4066755"><ele>731.0</ele><time>2026-04-18T08:39:22.765Z</time></trkpt><trkpt lat="44.219931" lon="11.406573"><ele>732.3333333333333</ele><time>2026-04-18T08:39:24.765Z</time></trkpt><trkpt lat="44.219963" lon="11.4064601"><ele>733.6666666666666</ele><time>2026-04-18T08:39:26.765Z</time></trkpt><trkpt lat="44.2199974" lon="11.4063449"><ele>735.0</ele><time>2026-04-18T08:39:28.765Z</time></trkpt><trkpt lat="44.2200364" lon="11.4062231"><ele>736.3333333333334</ele><time>2026-04-18T08:39:30.766Z</time></trkpt><trkpt lat="44.2200728" lon="11.4061107"><ele>737.6666666666667</ele><time>2026-04-18T08:39:32.766Z</time></trkpt><trkpt lat="44.2201007" lon="11.4059987"><ele>739.0</ele><time>2026-04-18T08:39:34.766Z</time></trkpt><trkpt lat="44.2201112" lon="11.4058748"><ele>739.8000000000001</ele><time>2026-04-18T08:39:36.765Z</time></trkpt><trkpt lat="44.2201332" lon="11.4057508"><ele>740.6</ele><time>2026-04-18T08:39:38.765Z</time></trkpt><trkpt lat="44.220162" lon="11.4056455"><ele>741.4</ele><time>2026-04-18T08:39:40.765Z</time></trkpt><trkpt lat="44.22019" lon="11.4055258"><ele>742.2</ele><time>2026-04-18T08:39:42.765Z</time></trkpt><trkpt lat="44.2202201" lon="11.405406"><ele>743.0</ele><time>2026-04-18T08:39:44.766Z</time></trkpt><trkpt lat="44.2202625" lon="11.405261"><ele>743.6666666666666</ele><time>2026-04-18T08:39:46.766Z</time></trkpt><trkpt lat="44.2203021" lon="11.4051119"><ele>744.3333333333333</ele><time>2026-04-18T08:39:48.765Z</time></trkpt><trkpt lat="44.2203388" lon="11.4049597"><ele>745.0</ele><time>2026-04-18T08:39:50.765Z</time></trkpt><trkpt lat="44.2203661" lon="11.4048753"><ele>745.6666666666666</ele><time>2026-04-18T08:39:51.766Z</time></trkpt><trkpt lat="44.2203988" lon="11.4047871"><ele>746.3333333333334</ele><time>2026-04-18T08:39:52.766Z</time></trkpt><trkpt lat="44.220429" lon="11.4047095"><ele>747.0</ele><time>2026-04-18T08:39:53.766Z</time></trkpt><trkpt lat="44.2204852" lon="11.4045955"><ele>747.0</ele><time>2026-04-18T08:39:55.766Z</time></trkpt><trkpt lat="44.2205306" lon="11.4044954"><ele>747.0</ele><time>2026-04-18T08:39:57.765Z</time></trkpt><trkpt lat="44.2205671" lon="11.404397"><ele>747.0</ele><time>2026-04-18T08:39:59.765Z</time></trkpt><trkpt lat="44.2206168" lon="11.4042496"><ele>747.0</ele><time>2026-04-18T08:40:01.766Z</time></trkpt><trkpt lat="44.2206486" lon="11.404165"><ele>747.0</ele><time>2026-04-18T08:40:02.765Z</time></trkpt><trkpt lat="44.2206777" lon="11.4040837"><ele>747.0</ele><time>2026-04-18T08:40:03.766Z</time></trkpt><trkpt lat="44.2207297" lon="11.4039543"><ele>750.5</ele><time>2026-04-18T08:40:05.765Z</time></trkpt><trkpt lat="44.2207852" lon="11.4038381"><ele>754.0</ele><time>2026-04-18T08:40:07.765Z</time></trkpt><trkpt lat="44.2208347" lon="11.4037313"><ele>757.5</ele><time>2026-04-18T08:40:09.765Z</time></trkpt><trkpt lat="44.2208738" lon="11.4036556"><ele>761.0</ele><time>2026-04-18T08:40:11.765Z</time></trkpt><trkpt lat="44.2208927" lon="11.4035701"><ele>764.5</ele><time>2026-04-18T08:40:13.765Z</time></trkpt><trkpt lat="44.2209177" lon="11.4034478"><ele>768.0</ele><time>2026-04-18T08:40:15.766Z</time></trkpt><trkpt lat="44.2209536" lon="11.4033329"><ele>768.0</ele><time>2026-04-18T08:40:17.765Z</time></trkpt><trkpt lat="44.2209693" lon="11.4032351"><ele>768.0</ele><time>2026-04-18T08:40:19.766Z</time></trkpt><trkpt lat="44.2209629" lon="11.4031139"><ele>768.0</ele><time>2026-04-18T08:40:21.765Z</time></trkpt><trkpt lat="44.2209496" lon="11.4030069"><ele>768.0</ele><time>2026-04-18T08:40:23.765Z</time></trkpt><trkpt lat="44.220939" lon="11.4028781"><ele>768.0</ele><time>2026-04-18T08:40:25.766Z</time></trkpt><trkpt lat="44.2209273" lon="11.4027474"><ele>768.0</ele><time>2026-04-18T08:40:27.765Z</time></trkpt><trkpt lat="44.2209282" lon="11.4026338"><ele>769.0</ele><time>2026-04-18T08:40:29.765Z</time></trkpt><trkpt lat="44.2209653" lon="11.4025604"><ele>770.0</ele><time>2026-04-18T08:40:31.765Z</time></trkpt><trkpt lat="44.2209835" lon="11.4024499"><ele>771.0</ele><time>2026-04-18T08:40:34.765Z</time></trkpt><trkpt lat="44.2209402" lon="11.4023847"><ele>772.0</ele><time>2026-04-18T08:40:36.765Z</time></trkpt><trkpt lat="44.2208797" lon="11.40231"><ele>773.0</ele><time>2026-04-18T08:40:39.765Z</time></trkpt><trkpt lat="44.2207949" lon="11.4022481"><ele>774.0</ele><time>2026-04-18T08:40:42.766Z</time></trkpt><trkpt lat="44.2207249" lon="11.4022032"><ele>772.8000000000001</ele><time>2026-04-18T08:40:44.765Z</time></trkpt><trkpt lat="44.2206705" lon="11.402133"><ele>771.6</ele><time>2026-04-18T08:40:46.765Z</time></trkpt><trkpt lat="44.2206078" lon="11.4020297"><ele>770.4</ele><time>2026-04-18T08:40:48.765Z</time></trkpt><trkpt lat="44.2205573" lon="11.4018896"><ele>769.2</ele><time>2026-04-18T08:40:50.766Z</time></trkpt><trkpt lat="44.2205395" lon="11.4017441"><ele>768.0</ele><time>2026-04-18T08:40:52.765Z</time></trkpt><trkpt lat="44.220541" lon="11.4016037"><ele>768.0</ele><time>2026-04-18T08:40:54.766Z</time></trkpt><trkpt lat="44.2205161" lon="11.4014778"><ele>768.0</ele><time>2026-04-18T08:40:56.765Z</time></trkpt><trkpt lat="44.2205083" lon="11.4013688"><ele>768.0</ele><time>2026-04-18T08:40:59.765Z</time></trkpt><trkpt lat="44.2205201" lon="11.4012529"><ele>768.0</ele><time>2026-04-18T08:41:03.765Z</time></trkpt><trkpt lat="44.2205303" lon="11.401166"><ele>768.0</ele><time>2026-04-18T08:41:05.765Z</time></trkpt><trkpt lat="44.220542" lon="11.4010778"><ele>768.0</ele><time>2026-04-18T08:41:07.764Z</time></trkpt><trkpt lat="44.220556" lon="11.4009838"><ele>768.0</ele><time>2026-04-18T08:41:09.765Z</time></trkpt><trkpt lat="44.2205778" lon="11.4008882"><ele>768.0</ele><time>2026-04-18T08:41:11.765Z</time></trkpt><trkpt lat="44.2209496" lon="11.4030069"><ele>769.0</ele><time>2026-04-18T08:40:23.765Z</time></trkpt><trkpt lat="44.220939" lon="11.4028781"><ele>770.0</ele><time>2026-04-18T08:40:25.766Z</time></trkpt><trkpt lat="44.2209273" lon="11.4027474"><ele>771.0</ele><time>2026-04-18T08:40:27.765Z</time></trkpt><trkpt lat="44.2209282" lon="11.4026338"><ele>772.0</ele><time>2026-04-18T08:40:29.765Z</time></trkpt><trkpt lat="44.2209653" lon="11.4025604"><ele>773.0</ele><time>2026-04-18T08:40:31.765Z</time></trkpt><trkpt lat="44.2209835" lon="11.4024499"><ele>774.0</ele><time>2026-04-18T08:40:34.765Z</time></trkpt><trkpt lat="44.2209402" lon="11.4023847"><ele>774.0</ele><time>2026-04-18T08:40:36.765Z</time></trkpt><trkpt lat="44.2208797" lon="11.40231"><ele>774.0</ele><time>2026-04-18T08:40:39.765Z</time></trkpt><trkpt lat="44.2207949" lon="11.4022481"><ele>774.0</ele><time>2026-04-18T08:40:42.766Z</time></trkpt><trkpt lat="44.2207249" lon="11.4022032"><ele>774.0</ele><time>2026-04-18T08:40:44.765Z</time></trkpt><trkpt lat="44.2206705" lon="11.402133"><ele>774.0</ele><time>2026-04-18T08:40:46.765Z</time></trkpt><trkpt lat="44.2206078" lon="11.4020297"><ele>774.0</ele><time>2026-04-18T08:40:48.765Z</time></trkpt><trkpt lat="44.2205573" lon="11.4018896"><ele>772.8000000000001</ele><time>2026-04-18T08:40:50.766Z</time></trkpt><trkpt lat="44.2205395" lon="11.4017441"><ele>771.6</ele><time>2026-04-18T08:40:52.765Z</time></trkpt><trkpt lat="44.220541" lon="11.4016037"><ele>770.4</ele><time>2026-04-18T08:40:54.766Z</time></trkpt><trkpt lat="44.2205161" lon="11.4014778"><ele>769.2</ele><time>2026-04-18T08:40:56.765Z</time></trkpt><trkpt lat="44.2205083" lon="11.4013688"><ele>768.0</ele><time>2026-04-18T08:40:59.765Z</time></trkpt><trkpt lat="44.2205201" lon="11.4012529"><ele>767.9999999999999</ele><time>2026-04-18T08:41:03.765Z</time></trkpt><trkpt lat="44.2205303" lon="11.401166"><ele>768.0</ele><time>2026-04-18T08:41:05.765Z</time></trkpt><trkpt lat="44.220542" lon="11.4010778"><ele>768.0</ele><time>2026-04-18T08:41:07.764Z</time></trkpt><trkpt lat="44.220556" lon="11.4009838"><ele>768.0</ele><time>2026-04-18T08:41:09.765Z</time></trkpt><trkpt lat="44.2205778" lon="11.4008882"><ele>768.0</ele><time>2026-04-18T08:41:11.765Z</time></trkpt><trkpt lat="44.2205724" lon="11.4007658"><ele>767.9999999999999</ele><time>2026-04-18T08:41:14.764Z</time></trkpt><trkpt lat="44.2205712" lon="11.4006458"><ele>768.0</ele><time>2026-04-18T08:41:17.764Z</time></trkpt><trkpt lat="44.2205863" lon="11.4005572"><ele>769.1666666666666</ele><time>2026-04-18T08:41:19.764Z</time></trkpt><trkpt lat="44.220618" lon="11.4004581"><ele>770.3333333333333</ele><time>2026-04-18T08:41:21.764Z</time></trkpt><trkpt lat="44.220666" lon="11.4003388"><ele>771.5</ele><time>2026-04-18T08:41:23.765Z</time></trkpt><trkpt lat="44.2206892" lon="11.400209"><ele>772.6666666666666</ele><time>2026-04-18T08:41:25.764Z</time></trkpt><trkpt lat="44.2206896" lon="11.4000894"><ele>773.8333333333333</ele><time>2026-04-18T08:41:27.764Z</time></trkpt><trkpt lat="44.220655" lon="11.3999935"><ele>775.0</ele><time>2026-04-18T08:41:29.765Z</time></trkpt><trkpt lat="44.2205801" lon="11.3999166"><ele>774.9999999999999</ele><time>2026-04-18T08:41:31.764Z</time></trkpt><trkpt lat="44.220501" lon="11.3998785"><ele>775.0</ele><time>2026-04-18T08:41:33.764Z</time></trkpt><trkpt lat="44.2204098" lon="11.3998541"><ele>775.0</ele><time>2026-04-18T08:41:35.764Z</time></trkpt><trkpt lat="44.2203401" lon="11.3997675"><ele>775.0</ele><time>2026-04-18T08:41:37.765Z</time></trkpt><trkpt lat="44.2202974" lon="11.3996624"><ele>774.9999999999999</ele><time>2026-04-18T08:41:39.765Z</time></trkpt><trkpt lat="44.2202382" lon="11.3995627"><ele>775.0</ele><time>2026-04-18T08:41:41.764Z</time></trkpt><trkpt lat="44.2201715" lon="11.3994434"><ele>777.8</ele><time>2026-04-18T08:41:43.764Z</time></trkpt><trkpt lat="44.2201255" lon="11.3993027"><ele>780.6</ele><time>2026-04-18T08:41:45.764Z</time></trkpt><trkpt lat="44.2201399" lon="11.3991887"><ele>783.4000000000001</ele><time>2026-04-18T08:41:47.764Z</time></trkpt><trkpt lat="44.2202178" lon="11.3991097"><ele>786.2</ele><time>2026-04-18T08:41:49.764Z</time></trkpt><trkpt lat="44.2202891" lon="11.3990125"><ele>789.0</ele><time>2026-04-18T08:41:51.764Z</time></trkpt><trkpt lat="44.2203325" lon="11.3989181"><ele>789.0</ele><time>2026-04-18T08:41:53.764Z</time></trkpt><trkpt lat="44.2204135" lon="11.3988836"><ele>789.0</ele><time>2026-04-18T08:41:55.765Z</time></trkpt><trkpt lat="44.2205128" lon="11.3988198"><ele>789.0</ele><time>2026-04-18T08:41:57.764Z</time></trkpt><trkpt lat="44.2205863" lon="11.3986887"><ele>789.0</ele><time>2026-04-18T08:41:59.765Z</time></trkpt><trkpt lat="44.2206333" lon="11.3985372"><ele>789.0</ele><time>2026-04-18T08:42:01.764Z</time></trkpt><trkpt lat="44.2206434" lon="11.3984343"><ele>791.0</ele><time>2026-04-18T08:42:02.765Z</time></trkpt><trkpt lat="44.2206407" lon="11.3983162"><ele>793.0</ele><time>2026-04-18T08:42:03.765Z</time></trkpt><trkpt lat="44.220634" lon="11.3981891"><ele>795.0</ele><time>2026-04-18T08:42:04.764Z</time></trkpt><trkpt lat="44.2206298" lon="11.3980564"><ele>797.0</ele><time>2026-04-18T08:42:05.764Z</time></trkpt><trkpt lat="44.2206238" lon="11.3979337"><ele>799.0</ele><time>2026-04-18T08:42:06.764Z</time></trkpt><trkpt lat="44.2206053" lon="11.3978213"><ele>801.0</ele><time>2026-04-18T08:42:07.764Z</time></trkpt><trkpt lat="44.2205717" lon="11.3977238"><ele>801.0</ele><time>2026-04-18T08:42:08.764Z</time></trkpt><trkpt lat="44.2205316" lon="11.397628"><ele>801.0</ele><time>2026-04-18T08:42:09.764Z</time></trkpt><trkpt lat="44.2205004" lon="11.3975224"><ele>801.0</ele><time>2026-04-18T08:42:10.764Z</time></trkpt><trkpt lat="44.2204756" lon="11.3973936"><ele>801.0</ele><time>2026-04-18T08:42:11.765Z</time></trkpt><trkpt lat="44.2204521" lon="11.3972549"><ele>801.0</ele><time>2026-04-18T08:42:12.765Z</time></trkpt><trkpt lat="44.2204415" lon="11.3971217"><ele>801.5</ele><time>2026-04-18T08:42:13.764Z</time></trkpt><trkpt lat="44.2204381" lon="11.3969903"><ele>802.0</ele><time>2026-04-18T08:42:14.764Z</time></trkpt><trkpt lat="44.2204312" lon="11.3968648"><ele>802.5</ele><time>2026-04-18T08:42:15.765Z</time></trkpt><trkpt lat="44.2204123" lon="11.3967496"><ele>803.0</ele><time>2026-04-18T08:42:16.765Z</time></trkpt><trkpt lat="44.220391" lon="11.3966545"><ele>803.5</ele><time>2026-04-18T08:42:17.764Z</time></trkpt><trkpt lat="44.22037" lon="11.3965683"><ele>804.0</ele><time>2026-04-18T08:42:18.764Z</time></trkpt><trkpt lat="44.22035" lon="11.3964717"><ele>805.2</ele><time>2026-04-18T08:42:19.765Z</time></trkpt><trkpt lat="44.2203233" lon="11.3963067"><ele>806.4000000000001</ele><time>2026-04-18T08:42:21.764Z</time></trkpt><trkpt lat="44.2202733" lon="11.3961733"><ele>807.6</ele><time>2026-04-18T08:42:23.765Z</time></trkpt><trkpt lat="44.22022" lon="11.3960433"><ele>808.8</ele><time>2026-04-18T08:42:25.764Z</time></trkpt><trkpt lat="44.22018" lon="11.3959183"><ele>810.0</ele><time>2026-04-18T08:42:27.764Z</time></trkpt><trkpt lat="44.22013" lon="11.3958233"><ele>810.0</ele><time>2026-04-18T08:42:29.764Z</time></trkpt><trkpt lat="44.2200683" lon="11.3957283"><ele>810.0</ele><time>2026-04-18T08:43:03.764Z</time></trkpt><trkpt lat="44.2200433" lon="11.3956317"><ele>810.0</ele><time>2026-04-18T08:43:05.764Z</time></trkpt><trkpt lat="44.2200133" lon="11.3955167"><ele>810.0</ele><time>2026-04-18T08:43:07.764Z</time></trkpt><trkpt lat="44.2199567" lon="11.3954233"><ele>810.0</ele><time>2026-04-18T08:43:09.765Z</time></trkpt><trkpt lat="44.219865" lon="11.3954183"><ele>810.0</ele><time>2026-04-18T08:43:11.765Z</time></trkpt><trkpt lat="44.2197933" lon="11.3954233"><ele>810.6666666666666</ele><time>2026-04-18T08:43:13.765Z</time></trkpt><trkpt lat="44.2197067" lon="11.3953983"><ele>811.3333333333333</ele><time>2026-04-18T08:43:16.764Z</time></trkpt><trkpt lat="44.21962" lon="11.3953667"><ele>812.0</ele><time>2026-04-18T08:43:19.765Z</time></trkpt><trkpt lat="44.2195367" lon="11.39534"><ele>812.6666666666666</ele><time>2026-04-18T08:43:21.765Z</time></trkpt><trkpt lat="44.21946" lon="11.3953217"><ele>813.3333333333333</ele><time>2026-04-18T08:43:23.764Z</time></trkpt><trkpt lat="44.2193967" lon="11.3953183"><ele>814.0</ele><time>2026-04-18T08:43:25.765Z</time></trkpt><trkpt lat="44.219315" lon="11.3952967"><ele>813.9999999999999</ele><time>2026-04-18T08:43:28.764Z</time></trkpt><trkpt lat="44.21924" lon="11.3952633"><ele>814.0</ele><time>2026-04-18T08:43:30.765Z</time></trkpt><trkpt lat="44.219135" lon="11.3952383"><ele>814.0</ele><time>2026-04-18T08:43:32.764Z</time></trkpt><trkpt lat="44.2190683" lon="11.3952317"><ele>814.0</ele><time>2026-04-18T08:43:33.765Z</time></trkpt><trkpt lat="44.2189983" lon="11.39523"><ele>813.9999999999999</ele><time>2026-04-18T08:43:34.765Z</time></trkpt><trkpt lat="44.218935" lon="11.3952367"><ele>814.0</ele><time>2026-04-18T08:43:35.764Z</time></trkpt><trkpt lat="44.2188233" lon="11.3952683"><ele>815.0</ele><time>2026-04-18T08:43:37.764Z</time></trkpt><trkpt lat="44.2187267" lon="11.395305"><ele>816.0</ele><time>2026-04-18T08:43:39.764Z</time></trkpt><trkpt lat="44.2186483" lon="11.3952617"><ele>817.0</ele><time>2026-04-18T08:43:41.765Z</time></trkpt><trkpt lat="44.2185517" lon="11.39517"><ele>818.0</ele><time>2026-04-18T08:43:43.764Z</time></trkpt><trkpt lat="44.218435" lon="11.395125"><ele>819.0</ele><time>2026-04-18T08:43:45.764Z</time></trkpt><trkpt lat="44.2183683" lon="11.39511"><ele>819.0</ele><time>2026-04-18T08:43:46.764Z</time></trkpt><trkpt lat="44.218305" lon="11.3951033"><ele>819.0</ele><time>2026-04-18T08:43:47.764Z</time></trkpt><trkpt lat="44.218195" lon="11.3950483"><ele>819.0</ele><time>2026-04-18T08:43:49.764Z</time></trkpt><trkpt lat="44.2181067" lon="11.3949333"><ele>819.0</ele><time>2026-04-18T08:43:51.764Z</time></trkpt><trkpt lat="44.2180617" lon="11.3948433"><ele>819.0</ele><time>2026-04-18T08:43:52.765Z</time></trkpt><trkpt lat="44.2180233" lon="11.3947417"><ele>820.6666666666666</ele><time>2026-04-18T08:43:53.765Z</time></trkpt><trkpt lat="44.217985" lon="11.3946333"><ele>822.3333333333333</ele><time>2026-04-18T08:43:54.764Z</time></trkpt><trkpt lat="44.21795" lon="11.3945383"><ele>824.0</ele><time>2026-04-18T08:43:55.765Z</time></trkpt><trkpt lat="44.2179117" lon="11.3944683"><ele>825.6666666666666</ele><time>2026-04-18T08:43:56.765Z</time></trkpt><trkpt lat="44.2178083" lon="11.3943867"><ele>827.3333333333333</ele><time>2026-04-18T08:43:58.764Z</time></trkpt><trkpt lat="44.2177233" lon="11.39436"><ele>829.0</ele><time>2026-04-18T08:43:59.764Z</time></trkpt><trkpt lat="44.21763" lon="11.3943533"><ele>829.0</ele><time>2026-04-18T08:44:00.764Z</time></trkpt><trkpt lat="44.2175283" lon="11.39438"><ele>829.0</ele><time>2026-04-18T08:44:01.765Z</time></trkpt><trkpt lat="44.21742" lon="11.3944383"><ele>829.0</ele><time>2026-04-18T08:44:02.763Z</time></trkpt><trkpt lat="44.2173083" lon="11.3944917"><ele>829.0</ele><time>2026-04-18T08:44:03.764Z</time></trkpt><trkpt lat="44.2172167" lon="11.39453"><ele>829.0</ele><time>2026-04-18T08:44:04.763Z</time></trkpt><trkpt lat="44.2171233" lon="11.3945417"><ele>829.5</ele><time>2026-04-18T08:44:05.764Z</time></trkpt><trkpt lat="44.2170217" lon="11.3945267"><ele>830.0</ele><time>2026-04-18T08:44:06.763Z</time></trkpt><trkpt lat="44.2169133" lon="11.39449"><ele>830.5</ele><time>2026-04-18T08:44:07.764Z</time></trkpt><trkpt lat="44.2167933" lon="11.3944333"><ele>831.0</ele><time>2026-04-18T08:44:08.764Z</time></trkpt><trkpt lat="44.2166767" lon="11.394365"><ele>831.0</ele><time>2026-04-18T08:44:09.763Z</time></trkpt><trkpt lat="44.21656" lon="11.3942883"><ele>831.0</ele><time>2026-04-18T08:44:10.764Z</time></trkpt><trkpt lat="44.21648" lon="11.394215"><ele>831.0</ele><time>2026-04-18T08:44:11.764Z</time></trkpt><trkpt lat="44.2164267" lon="11.3941417"><ele>831.0</ele><time>2026-04-18T08:44:12.764Z</time></trkpt><trkpt lat="44.2163867" lon="11.3940117"><ele>831.0</ele><time>2026-04-18T08:44:14.763Z</time></trkpt><trkpt lat="44.21636" lon="11.3938717"><ele>834.0</ele><time>2026-04-18T08:44:16.763Z</time></trkpt><trkpt lat="44.2163117" lon="11.3937183"><ele>837.0</ele><time>2026-04-18T08:44:18.764Z</time></trkpt><trkpt lat="44.2162433" lon="11.39363"><ele>840.0</ele><time>2026-04-18T08:44:20.763Z</time></trkpt><trkpt lat="44.21615" lon="11.3936567"><ele>843.0</ele><time>2026-04-18T08:44:50.763Z</time></trkpt><trkpt lat="44.2160317" lon="11.39367"><ele>846.0</ele><time>2026-04-18T08:44:52.763Z</time></trkpt><trkpt lat="44.2159533" lon="11.3936483"><ele>846.0</ele><time>2026-04-18T08:44:53.763Z</time></trkpt><trkpt lat="44.21587" lon="11.39361"><ele>846.0</ele><time>2026-04-18T08:44:54.764Z</time></trkpt><trkpt lat="44.2157917" lon="11.3935767"><ele>846.0</ele><time>2026-04-18T08:44:55.764Z</time></trkpt><trkpt lat="44.2157233" lon="11.393555"><ele>846.0</ele><time>2026-04-18T08:44:56.763Z</time></trkpt><trkpt lat="44.2156083" lon="11.39354"><ele>846.0</ele><time>2026-04-18T08:44:58.763Z</time></trkpt><trkpt lat="44.2154917" lon="11.39352"><ele>847.8</ele><time>2026-04-18T08:45:00.763Z</time></trkpt><trkpt lat="44.2154317" lon="11.3934933"><ele>849.5999999999999</ele><time>2026-04-18T08:45:01.764Z</time></trkpt><trkpt lat="44.2153183" lon="11.39347"><ele>851.4</ele><time>2026-04-18T08:45:03.764Z</time></trkpt><trkpt lat="44.2152433" lon="11.3935267"><ele>853.2</ele><time>2026-04-18T08:45:05.764Z</time></trkpt><trkpt lat="44.2151483" lon="11.393565"><ele>855.0</ele><time>2026-04-18T08:45:08.763Z</time></trkpt><trkpt lat="44.2150367" lon="11.3935617"><ele>855.0</ele><time>2026-04-18T08:45:10.763Z</time></trkpt><trkpt lat="44.2149383" lon="11.393545"><ele>855.0</ele><time>2026-04-18T08:45:12.763Z</time></trkpt><trkpt lat="44.214875" lon="11.3935367"><ele>855.0</ele><time>2026-04-18T08:45:14.763Z</time></trkpt><trkpt lat="44.2147867" lon="11.39348"><ele>855.0</ele><time>2026-04-18T08:45:17.763Z</time></trkpt><trkpt lat="44.2147217" lon="11.3934317"><ele>855.0</ele><time>2026-04-18T08:45:19.763Z</time></trkpt><trkpt lat="44.214655" lon="11.3933733"><ele>855.0</ele><time>2026-04-18T08:45:21.763Z</time></trkpt><trkpt lat="44.21458" lon="11.39331"><ele>854.4</ele><time>2026-04-18T08:45:24.763Z</time></trkpt><trkpt lat="44.2145033" lon="11.3932133"><ele>853.8</ele><time>2026-04-18T08:45:26.763Z</time></trkpt><trkpt lat="44.2144567" lon="11.3931433"><ele>853.2</ele><time>2026-04-18T08:45:27.763Z</time></trkpt><trkpt lat="44.2143867" lon="11.3930167"><ele>852.6</ele><time>2026-04-18T08:45:29.763Z</time></trkpt><trkpt lat="44.2143217" lon="11.39291"><ele>852.0</ele><time>2026-04-18T08:45:31.763Z</time></trkpt><trkpt lat="44.2142533" lon="11.3928017"><ele>852.0</ele><time>2026-04-18T08:45:33.763Z</time></trkpt><trkpt lat="44.2141967" lon="11.3926933"><ele>852.0</ele><time>2026-04-18T08:45:35.764Z</time></trkpt><trkpt lat="44.21414" lon="11.3925683"><ele>852.0</ele><time>2026-04-18T08:45:37.763Z</time></trkpt><trkpt lat="44.2140967" lon="11.3924267"><ele>852.0</ele><time>2026-04-18T08:45:39.763Z</time></trkpt><trkpt lat="44.21406" lon="11.3922783"><ele>852.0</ele><time>2026-04-18T08:45:41.763Z</time></trkpt><trkpt lat="44.2140333" lon="11.3921183"><ele>852.0</ele><time>2026-04-18T08:45:43.763Z</time></trkpt><trkpt lat="44.2140067" lon="11.3919567"><ele>852.0</ele><time>2026-04-18T08:45:45.764Z</time></trkpt><trkpt lat="44.21397" lon="11.39183"><ele>852.0</ele><time>2026-04-18T08:45:47.764Z</time></trkpt><trkpt lat="44.2139233" lon="11.3917117"><ele>852.0</ele><time>2026-04-18T08:45:49.763Z</time></trkpt><trkpt lat="44.2138467" lon="11.391595"><ele>852.0</ele><time>2026-04-18T08:45:51.763Z</time></trkpt><trkpt lat="44.2138" lon="11.3915333"><ele>852.4000000000001</ele><time>2026-04-18T08:45:52.764Z</time></trkpt><trkpt lat="44.213705" lon="11.39143"><ele>852.8000000000001</ele><time>2026-04-18T08:45:54.763Z</time></trkpt><trkpt lat="44.2136317" lon="11.3913533"><ele>853.2</ele><time>2026-04-18T08:45:56.763Z</time></trkpt><trkpt lat="44.2135517" lon="11.391275"><ele>853.6</ele><time>2026-04-18T08:56:47.76Z</time></trkpt><trkpt lat="44.2134933" lon="11.3911817"><ele>854.0</ele><time>2026-04-18T08:56:49.759Z</time></trkpt><trkpt lat="44.213415" lon="11.391095"><ele>854.0</ele><time>2026-04-18T08:56:51.759Z</time></trkpt><trkpt lat="44.21334" lon="11.3910117"><ele>854.0000000000001</ele><time>2026-04-18T08:56:53.759Z</time></trkpt><trkpt lat="44.213265" lon="11.3909417"><ele>854.0000000000001</ele><time>2026-04-18T08:56:55.76Z</time></trkpt><trkpt lat="44.21318" lon="11.3908767"><ele>854.0</ele><time>2026-04-18T08:56:57.76Z</time></trkpt><trkpt lat="44.2130933" lon="11.3908133"><ele>854.0</ele><time>2026-04-18T08:56:59.76Z</time></trkpt><trkpt lat="44.21302" lon="11.390715"><ele>853.1666666666667</ele><time>2026-04-18T08:57:01.759Z</time></trkpt><trkpt lat="44.21296" lon="11.390625"><ele>852.3333333333334</ele><time>2026-04-18T08:57:03.759Z</time></trkpt><trkpt lat="44.21289" lon="11.3905783"><ele>851.5</ele><time>2026-04-18T08:57:05.76Z</time></trkpt><trkpt lat="44.2128333" lon="11.39048"><ele>850.6666666666667</ele><time>2026-04-18T08:57:36.759Z</time></trkpt><trkpt lat="44.2127817" lon="11.3904217"><ele>849.8333333333334</ele><time>2026-04-18T08:57:38.759Z</time></trkpt><trkpt lat="44.2127117" lon="11.39039"><ele>849.0</ele><time>2026-04-18T08:57:40.759Z</time></trkpt><trkpt lat="44.2126383" lon="11.3903233"><ele>851.0</ele><time>2026-04-18T08:57:43.759Z</time></trkpt><trkpt lat="44.2125717" lon="11.3902283"><ele>853.0</ele><time>2026-04-18T08:57:45.759Z</time></trkpt><trkpt lat="44.2124983" lon="11.390125"><ele>855.0000000000001</ele><time>2026-04-18T08:57:47.759Z</time></trkpt><trkpt lat="44.2124467" lon="11.3900217"><ele>857.0</ele><time>2026-04-18T08:57:49.759Z</time></trkpt><trkpt lat="44.2123867" lon="11.3899067"><ele>859.0</ele><time>2026-04-18T08:57:51.759Z</time></trkpt><trkpt lat="44.2123467" lon="11.389825"><ele>859.8000000000001</ele><time>2026-04-18T08:57:52.759Z</time></trkpt><trkpt lat="44.2122967" lon="11.38974"><ele>860.6000000000001</ele><time>2026-04-18T08:57:53.759Z</time></trkpt><trkpt lat="44.2122483" lon="11.3896467"><ele>861.4</ele><time>2026-04-18T08:57:54.76Z</time></trkpt><trkpt lat="44.2121833" lon="11.3895583"><ele>862.2</ele><time>2026-04-18T08:57:55.76Z</time></trkpt><trkpt lat="44.2121017" lon="11.3894733"><ele>863.0</ele><time>2026-04-18T08:57:56.76Z</time></trkpt><trkpt lat="44.212015" lon="11.3893917"><ele>863.0000000000001</ele><time>2026-04-18T08:57:57.76Z</time></trkpt><trkpt lat="44.2119367" lon="11.38933"><ele>863.0</ele><time>2026-04-18T08:57:58.759Z</time></trkpt><trkpt lat="44.2118717" lon="11.3892683"><ele>863.0</ele><time>2026-04-18T08:57:59.76Z</time></trkpt><trkpt lat="44.21179" lon="11.3892117"><ele>863.0</ele><time>2026-04-18T08:58:00.76Z</time></trkpt><trkpt lat="44.2117117" lon="11.3891583"><ele>863.0000000000001</ele><time>2026-04-18T08:58:01.759Z</time></trkpt><trkpt lat="44.2116367" lon="11.3891217"><ele>863.0</ele><time>2026-04-18T08:58:02.759Z</time></trkpt><trkpt lat="44.211565" lon="11.3890967"><ele>861.3333333333334</ele><time>2026-04-18T08:58:03.76Z</time></trkpt><trkpt lat="44.21149" lon="11.3890783"><ele>859.6666666666667</ele><time>2026-04-18T08:58:04.759Z</time></trkpt><trkpt lat="44.2114267" lon="11.3890583"><ele>858.0</ele><time>2026-04-18T08:58:05.759Z</time></trkpt><trkpt lat="44.211305" lon="11.3889933"><ele>856.3333333333333</ele><time>2026-04-18T08:58:07.76Z</time></trkpt><trkpt lat="44.2112333" lon="11.3889533"><ele>854.6666666666666</ele><time>2026-04-18T08:58:08.759Z</time></trkpt><trkpt lat="44.21117" lon="11.3889117"><ele>853.0</ele><time>2026-04-18T08:58:09.759Z</time></trkpt><trkpt lat="44.2111033" lon="11.38888"><ele>852.9999999999999</ele><time>2026-04-18T08:58:10.76Z</time></trkpt><trkpt lat="44.2110367" lon="11.388845"><ele>853.0</ele><time>2026-04-18T08:58:11.76Z</time></trkpt><trkpt lat="44.2109583" lon="11.3888183"><ele>853.0</ele><time>2026-04-18T08:58:12.759Z</time></trkpt><trkpt lat="44.210885" lon="11.3887917"><ele>853.0</ele><time>2026-04-18T08:58:13.759Z</time></trkpt><trkpt lat="44.2108133" lon="11.3887567"><ele>852.9999999999999</ele><time>2026-04-18T08:58:14.759Z</time></trkpt><trkpt lat="44.2107467" lon="11.3887117"><ele>853.0</ele><time>2026-04-18T08:58:15.76Z</time></trkpt><trkpt lat="44.2106783" lon="11.3886683"><ele>854.1428571428571</ele><time>2026-04-18T08:58:16.759Z</time></trkpt><trkpt lat="44.2106233" lon="11.38862"><ele>855.2857142857143</ele><time>2026-04-18T08:58:17.759Z</time></trkpt><trkpt lat="44.210565" lon="11.3885767"><ele>856.4285714285714</ele><time>2026-04-18T08:58:18.759Z</time></trkpt><trkpt lat="44.210505" lon="11.3885383"><ele>857.5714285714286</ele><time>2026-04-18T08:58:19.759Z</time></trkpt><trkpt lat="44.2104367" lon="11.388505"><ele>858.7142857142858</ele><time>2026-04-18T08:58:20.759Z</time></trkpt><trkpt lat="44.2103667" lon="11.3884633"><ele>859.8571428571429</ele><time>2026-04-18T08:58:21.759Z</time></trkpt><trkpt lat="44.2102867" lon="11.388415"><ele>861.0</ele><time>2026-04-18T08:58:22.759Z</time></trkpt><trkpt lat="44.2102133" lon="11.388375"><ele>861.0</ele><time>2026-04-18T08:58:23.76Z</time></trkpt><trkpt lat="44.21013" lon="11.3883217"><ele>860.9999999999999</ele><time>2026-04-18T08:58:24.759Z</time></trkpt><trkpt lat="44.2100483" lon="11.3882783"><ele>860.9999999999999</ele><time>2026-04-18T08:58:25.759Z</time></trkpt><trkpt lat="44.2099617" lon="11.3882383"><ele>861.0</ele><time>2026-04-18T08:58:26.76Z</time></trkpt><trkpt lat="44.2098667" lon="11.3882017"><ele>861.0</ele><time>2026-04-18T08:58:27.76Z</time></trkpt><trkpt lat="44.2097767" lon="11.3881683"><ele>862.0</ele><time>2026-04-18T08:58:28.759Z</time></trkpt><trkpt lat="44.2096717" lon="11.3881317"><ele>862.9999999999999</ele><time>2026-04-18T08:58:29.76Z</time></trkpt><trkpt lat="44.20956" lon="11.3880933"><ele>863.9999999999999</ele><time>2026-04-18T08:58:30.76Z</time></trkpt><trkpt lat="44.209445" lon="11.3880617"><ele>865.0</ele><time>2026-04-18T08:58:31.76Z</time></trkpt><trkpt lat="44.2093417" lon="11.38804"><ele>866.0</ele><time>2026-04-18T08:58:32.76Z</time></trkpt><trkpt lat="44.2092483" lon="11.3880167"><ele>866.4</ele><time>2026-04-18T08:58:33.76Z</time></trkpt><trkpt lat="44.2091583" lon="11.3879933"><ele>866.8</ele><time>2026-04-18T08:58:34.76Z</time></trkpt><trkpt lat="44.2090683" lon="11.3879733"><ele>867.1999999999999</ele><time>2026-04-18T08:58:35.76Z</time></trkpt><trkpt lat="44.208975" lon="11.3879517"><ele>867.5999999999999</ele><time>2026-04-18T08:58:36.759Z</time></trkpt><trkpt lat="44.2088767" lon="11.38793"><ele>868.0</ele><time>2026-04-18T08:58:37.759Z</time></trkpt><trkpt lat="44.2087717" lon="11.38791"><ele>868.0</ele><time>2026-04-18T08:58:38.76Z</time></trkpt><trkpt lat="44.2086617" lon="11.3879"><ele>868.0</ele><time>2026-04-18T08:58:39.759Z</time></trkpt><trkpt lat="44.2085433" lon="11.387905"><ele>868.0</ele><time>2026-04-18T08:58:40.759Z</time></trkpt><trkpt lat="44.2084333" lon="11.3879183"><ele>868.0</ele><time>2026-04-18T08:58:41.759Z</time></trkpt><trkpt lat="44.2083167" lon="11.3879433"><ele>868.0</ele><time>2026-04-18T08:58:42.759Z</time></trkpt><trkpt lat="44.208195" lon="11.3879617"><ele>868.0</ele><time>2026-04-18T08:58:43.759Z</time></trkpt><trkpt lat="44.208065" lon="11.387975"><ele>868.0</ele><time>2026-04-18T08:58:44.759Z</time></trkpt><trkpt lat="44.2079333" lon="11.387995"><ele>868.0</ele><time>2026-04-18T08:58:45.759Z</time></trkpt><trkpt lat="44.207805" lon="11.3880233"><ele>870.5999999999999</ele><time>2026-04-18T08:58:46.76Z</time></trkpt><trkpt lat="44.20769" lon="11.3880683"><ele>873.1999999999999</ele><time>2026-04-18T08:58:47.759Z</time></trkpt><trkpt lat="44.2075917" lon="11.388145"><ele>875.8</ele><time>2026-04-18T08:58:48.759Z</time></trkpt><trkpt lat="44.2075117" lon="11.3882333"><ele>878.4</ele><time>2026-04-18T08:58:49.759Z</time></trkpt><trkpt lat="44.2074467" lon="11.38831"><ele>881.0</ele><time>2026-04-18T08:58:50.759Z</time></trkpt><trkpt lat="44.20738" lon="11.388365"><ele>882.1666666666667</ele><time>2026-04-18T08:58:51.759Z</time></trkpt><trkpt lat="44.207305" lon="11.3884"><ele>883.3333333333334</ele><time>2026-04-18T08:58:52.759Z</time></trkpt><trkpt lat="44.2072233" lon="11.3884067"><ele>884.5</ele><time>2026-04-18T08:58:53.76Z</time></trkpt><trkpt lat="44.2071367" lon="11.3883967"><ele>885.6666666666667</ele><time>2026-04-18T08:58:54.759Z</time></trkpt><trkpt lat="44.2070467" lon="11.3883767"><ele>886.8333333333334</ele><time>2026-04-18T08:58:55.76Z</time></trkpt><trkpt lat="44.20695" lon="11.3883683"><ele>888.0</ele><time>2026-04-18T08:58:56.759Z</time></trkpt><trkpt lat="44.2068517" lon="11.3883767"><ele>888.0</ele><time>2026-04-18T08:58:57.759Z</time></trkpt><trkpt lat="44.20675" lon="11.3883817"><ele>888.0</ele><time>2026-04-18T08:58:58.76Z</time></trkpt><trkpt lat="44.2066417" lon="11.38837"><ele>888.0</ele><time>2026-04-18T08:58:59.759Z</time></trkpt><trkpt lat="44.20653" lon="11.38835"><ele>888.0</ele><time>2026-04-18T08:59:00.76Z</time></trkpt><trkpt lat="44.206405" lon="11.3883167"><ele>889.75</ele><time>2026-04-18T08:59:01.76Z</time></trkpt><trkpt lat="44.2062717" lon="11.3882833"><ele>891.5</ele><time>2026-04-18T08:59:02.76Z</time></trkpt><trkpt lat="44.2061317" lon="11.3882533"><ele>893.25</ele><time>2026-04-18T08:59:03.759Z</time></trkpt><trkpt lat="44.2059967" lon="11.3882183"><ele>895.0</ele><time>2026-04-18T08:59:04.76Z</time></trkpt><trkpt lat="44.205865" lon="11.3881933"><ele>895.0</ele><time>2026-04-18T08:59:05.76Z</time></trkpt><trkpt lat="44.20573" lon="11.3881833"><ele>895.0</ele><time>2026-04-18T08:59:06.759Z</time></trkpt><trkpt lat="44.2055933" lon="11.3881883"><ele>895.0</ele><time>2026-04-18T08:59:07.76Z</time></trkpt><trkpt lat="44.2054617" lon="11.3882133"><ele>895.0</ele><time>2026-04-18T08:59:08.759Z</time></trkpt><trkpt lat="44.205335" lon="11.3882667"><ele>897.0</ele><time>2026-04-18T08:59:09.76Z</time></trkpt><trkpt lat="44.2052083" lon="11.3883483"><ele>899.0</ele><time>2026-04-18T08:59:10.759Z</time></trkpt><trkpt lat="44.20508" lon="11.3884483"><ele>901.0</ele><time>2026-04-18T08:59:11.759Z</time></trkpt><trkpt lat="44.2049633" lon="11.3885817"><ele>903.0</ele><time>2026-04-18T08:59:12.759Z</time></trkpt><trkpt lat="44.204865" lon="11.3887417"><ele>903.0</ele><time>2026-04-18T08:59:13.759Z</time></trkpt><trkpt lat="44.204775" lon="11.3889017"><ele>903.0</ele><time>2026-04-18T08:59:14.76Z</time></trkpt><trkpt lat="44.2046867" lon="11.3890483"><ele>903.0</ele><time>2026-04-18T08:59:15.759Z</time></trkpt><trkpt lat="44.2046033" lon="11.389175"><ele>903.0</ele><time>2026-04-18T08:59:16.76Z</time></trkpt><trkpt lat="44.20452" lon="11.38927"><ele>903.0</ele><time>2026-04-18T08:59:17.76Z</time></trkpt><trkpt lat="44.2044317" lon="11.3893517"><ele>903.0</ele><time>2026-04-18T08:59:18.76Z</time></trkpt><trkpt lat="44.2043467" lon="11.38939"><ele>903.0</ele><time>2026-04-18T08:59:19.759Z</time></trkpt><trkpt lat="44.20427" lon="11.3893883"><ele>903.0</ele><time>2026-04-18T08:59:20.759Z</time></trkpt><trkpt lat="44.2042" lon="11.389335"><ele>903.0</ele><time>2026-04-18T08:59:21.76Z</time></trkpt><trkpt lat="44.20413" lon="11.3892483"><ele>903.0</ele><time>2026-04-18T08:59:22.76Z</time></trkpt><trkpt lat="44.2040583" lon="11.389135"><ele>900.5</ele><time>2026-04-18T08:59:23.759Z</time></trkpt><trkpt lat="44.2039817" lon="11.3890017"><ele>898.0</ele><time>2026-04-18T08:59:24.76Z</time></trkpt><trkpt lat="44.2038983" lon="11.38886"><ele>895.5</ele><time>2026-04-18T08:59:25.759Z</time></trkpt><trkpt lat="44.2038083" lon="11.3887167"><ele>893.0</ele><time>2026-04-18T08:59:26.759Z</time></trkpt><trkpt lat="44.203725" lon="11.3885733"><ele>893.0</ele><time>2026-04-18T08:59:27.76Z</time></trkpt><trkpt lat="44.2036483" lon="11.388435"><ele>893.0</ele><time>2026-04-18T08:59:28.76Z</time></trkpt><trkpt lat="44.203575" lon="11.38831"><ele>893.0</ele><time>2026-04-18T08:59:29.759Z</time></trkpt><trkpt lat="44.203495" lon="11.38819"><ele>893.0</ele><time>2026-04-18T08:59:30.76Z</time></trkpt><trkpt lat="44.2034067" lon="11.3880883"><ele>893.0</ele><time>2026-04-18T08:59:31.76Z</time></trkpt><trkpt lat="44.2033067" lon="11.38801"><ele>893.0</ele><time>2026-04-18T08:59:32.759Z</time></trkpt><trkpt lat="44.2031867" lon="11.387955"><ele>893.0</ele><time>2026-04-18T08:59:33.759Z</time></trkpt><trkpt lat="44.203055" lon="11.38791"><ele>893.0</ele><time>2026-04-18T08:59:34.759Z</time></trkpt><trkpt lat="44.202915" lon="11.3878667"><ele>891.5</ele><time>2026-04-18T08:59:35.76Z</time></trkpt><trkpt lat="44.202775" lon="11.387815"><ele>890.0</ele><time>2026-04-18T08:59:36.759Z</time></trkpt><trkpt lat="44.202625" lon="11.3877667"><ele>888.5</ele><time>2026-04-18T08:59:37.759Z</time></trkpt><trkpt lat="44.2024883" lon="11.3877117"><ele>887.0</ele><time>2026-04-18T08:59:38.76Z</time></trkpt><trkpt lat="44.2023467" lon="11.387655"><ele>884.0</ele><time>2026-04-18T08:59:39.759Z</time></trkpt><trkpt lat="44.2022117" lon="11.3876017"><ele>881.0</ele><time>2026-04-18T08:59:40.76Z</time></trkpt><trkpt lat="44.2020783" lon="11.3875467"><ele>878.0</ele><time>2026-04-18T08:59:41.759Z</time></trkpt><trkpt lat="44.2019433" lon="11.387495"><ele>875.0</ele><time>2026-04-18T08:59:42.76Z</time></trkpt><trkpt lat="44.2018117" lon="11.3874467"><ele>875.0</ele><time>2026-04-18T08:59:43.759Z</time></trkpt><trkpt lat="44.2016833" lon="11.3874033"><ele>875.0</ele><time>2026-04-18T08:59:44.759Z</time></trkpt><trkpt lat="44.2015533" lon="11.3873467"><ele>875.0</ele><time>2026-04-18T08:59:45.759Z</time></trkpt><trkpt lat="44.2014317" lon="11.3872817"><ele>875.0</ele><time>2026-04-18T08:59:46.76Z</time></trkpt><trkpt lat="44.2013133" lon="11.3871933"><ele>876.0</ele><time>2026-04-18T08:59:47.759Z</time></trkpt><trkpt lat="44.2012067" lon="11.3871017"><ele>877.0</ele><time>2026-04-18T08:59:48.759Z</time></trkpt><trkpt lat="44.2011017" lon="11.3870067"><ele>878.0</ele><time>2026-04-18T08:59:49.759Z</time></trkpt><trkpt lat="44.2009967" lon="11.386905"><ele>879.0</ele><time>2026-04-18T08:59:50.759Z</time></trkpt><trkpt lat="44.2008883" lon="11.3868233"><ele>879.0</ele><time>2026-04-18T08:59:51.758Z</time></trkpt><trkpt lat="44.2007567" lon="11.386765"><ele>879.0</ele><time>2026-04-18T08:59:52.759Z</time></trkpt><trkpt lat="44.2006083" lon="11.3867483"><ele>879.0</ele><time>2026-04-18T08:59:53.759Z</time></trkpt><trkpt lat="44.20047" lon="11.3867633"><ele>879.0</ele><time>2026-04-18T08:59:54.758Z</time></trkpt><trkpt lat="44.2003383" lon="11.3867633"><ele>876.5</ele><time>2026-04-18T08:59:55.758Z</time></trkpt><trkpt lat="44.2002117" lon="11.386745"><ele>874.0</ele><time>2026-04-18T08:59:56.758Z</time></trkpt><trkpt lat="44.2000933" lon="11.38669"><ele>871.5</ele><time>2026-04-18T08:59:57.759Z</time></trkpt><trkpt lat="44.1999917" lon="11.3865867"><ele>869.0</ele><time>2026-04-18T08:59:58.759Z</time></trkpt><trkpt lat="44.1999083" lon="11.3864483"><ele>870.5</ele><time>2026-04-18T08:59:59.758Z</time></trkpt><trkpt lat="44.1998383" lon="11.38629"><ele>872.0</ele><time>2026-04-18T09:00:00.758Z</time></trkpt><trkpt lat="44.1997867" lon="11.3861167"><ele>873.5</ele><time>2026-04-18T09:00:01.759Z</time></trkpt><trkpt lat="44.19974" lon="11.385925"><ele>875.0</ele><time>2026-04-18T09:00:02.758Z</time></trkpt><trkpt lat="44.1997067" lon="11.3857317"><ele>873.0</ele><time>2026-04-18T09:00:03.759Z</time></trkpt><trkpt lat="44.1996733" lon="11.3855483"><ele>871.0</ele><time>2026-04-18T09:00:04.759Z</time></trkpt><trkpt lat="44.1996317" lon="11.3853733"><ele>869.0</ele><time>2026-04-18T09:00:05.759Z</time></trkpt><trkpt lat="44.19958" lon="11.3852033"><ele>867.0</ele><time>2026-04-18T09:00:06.759Z</time></trkpt><trkpt lat="44.1995317" lon="11.38504"><ele>867.0</ele><time>2026-04-18T09:00:07.758Z</time></trkpt><trkpt lat="44.19947" lon="11.3848817"><ele>867.0</ele><time>2026-04-18T09:00:08.758Z</time></trkpt><trkpt lat="44.1994033" lon="11.3847317"><ele>867.0</ele><time>2026-04-18T09:00:09.758Z</time></trkpt><trkpt lat="44.19932" lon="11.384595"><ele>867.0</ele><time>2026-04-18T09:00:10.758Z</time></trkpt><trkpt lat="44.199235" lon="11.38446"><ele>867.5</ele><time>2026-04-18T09:00:11.758Z</time></trkpt><trkpt lat="44.1991367" lon="11.384335"><ele>868.0</ele><time>2026-04-18T09:00:12.758Z</time></trkpt><trkpt lat="44.19903" lon="11.3842233"><ele>868.5</ele><time>2026-04-18T09:00:13.758Z</time></trkpt><trkpt lat="44.1989133" lon="11.3841233"><ele>869.0</ele><time>2026-04-18T09:00:14.758Z</time></trkpt><trkpt lat="44.1988017" lon="11.3840433"><ele>869.0</ele><time>2026-04-18T09:00:15.759Z</time></trkpt><trkpt lat="44.1986867" lon="11.3839867"><ele>869.0</ele><time>2026-04-18T09:00:16.758Z</time></trkpt><trkpt lat="44.19857" lon="11.3839583"><ele>869.0</ele><time>2026-04-18T09:00:17.758Z</time></trkpt><trkpt lat="44.1984483" lon="11.3839683"><ele>869.0</ele><time>2026-04-18T09:00:18.758Z</time></trkpt><trkpt lat="44.1983417" lon="11.3839917"><ele>869.0000000000001</ele><time>2026-04-18T09:00:19.759Z</time></trkpt><trkpt lat="44.1982383" lon="11.3840117"><ele>869.0</ele><time>2026-04-18T09:00:20.759Z</time></trkpt><trkpt lat="44.1981417" lon="11.38404"><ele>869.0</ele><time>2026-04-18T09:00:21.758Z</time></trkpt><trkpt lat="44.198055" lon="11.384065"><ele>869.0</ele><time>2026-04-18T09:00:22.758Z</time></trkpt><trkpt lat="44.1979767" lon="11.384085"><ele>869.0000000000001</ele><time>2026-04-18T09:00:23.758Z</time></trkpt><trkpt lat="44.1979083" lon="11.3841133"><ele>869.0</ele><time>2026-04-18T09:00:24.759Z</time></trkpt><trkpt lat="44.1978417" lon="11.3841467"><ele>869.1666666666667</ele><time>2026-04-18T09:00:25.759Z</time></trkpt><trkpt lat="44.1977683" lon="11.3842"><ele>869.3333333333334</ele><time>2026-04-18T09:00:27.758Z</time></trkpt><trkpt lat="44.1977033" lon="11.3842517"><ele>869.5</ele><time>2026-04-18T09:00:30.758Z</time></trkpt><trkpt lat="44.1976" lon="11.384305"><ele>869.6666666666667</ele><time>2026-04-18T09:00:37.758Z</time></trkpt><trkpt lat="44.1975267" lon="11.3843433"><ele>869.8333333333334</ele><time>2026-04-18T09:00:39.758Z</time></trkpt><trkpt lat="44.1974383" lon="11.384375"><ele>870.0</ele><time>2026-04-18T09:00:41.758Z</time></trkpt><trkpt lat="44.1973617" lon="11.38444"><ele>868.0</ele><time>2026-04-18T09:00:43.759Z</time></trkpt><trkpt lat="44.197305" lon="11.38453"><ele>866.0</ele><time>2026-04-18T09:00:45.758Z</time></trkpt><trkpt lat="44.1972817" lon="11.3846117"><ele>864.0</ele><time>2026-04-18T09:00:47.758Z</time></trkpt><trkpt lat="44.1972667" lon="11.3847017"><ele>862.0</ele><time>2026-04-18T09:00:50.758Z</time></trkpt><trkpt lat="44.19725" lon="11.384815"><ele>860.0</ele><time>2026-04-18T09:00:53.758Z</time></trkpt><trkpt lat="44.1972083" lon="11.3849183"><ele>858.0</ele><time>2026-04-18T09:00:56.758Z</time></trkpt><trkpt lat="44.1971683" lon="11.3849933"><ele>857.4</ele><time>2026-04-18T09:00:58.759Z</time></trkpt><trkpt lat="44.19709" lon="11.3850917"><ele>856.8</ele><time>2026-04-18T09:01:00.759Z</time></trkpt><trkpt lat="44.1970128" lon="11.3852003"><ele>856.2</ele><time>2026-04-18T09:01:02.758Z</time></trkpt><trkpt lat="44.1969415" lon="11.3852994"><ele>855.6</ele><time>2026-04-18T09:01:04.758Z</time></trkpt><trkpt lat="44.1968715" lon="11.3853833"><ele>855.0</ele><time>2026-04-18T09:01:06.758Z</time></trkpt><trkpt lat="44.1967892" lon="11.385458"><ele>854.2</ele><time>2026-04-18T09:01:08.758Z</time></trkpt><trkpt lat="44.1967085" lon="11.3855478"><ele>853.4</ele><time>2026-04-18T09:01:10.759Z</time></trkpt><trkpt lat="44.1966342" lon="11.3856615"><ele>852.5999999999999</ele><time>2026-04-18T09:01:12.758Z</time></trkpt><trkpt lat="44.1965575" lon="11.3857889"><ele>851.8</ele><time>2026-04-18T09:01:14.758Z</time></trkpt><trkpt lat="44.1964863" lon="11.3859133"><ele>851.0</ele><time>2026-04-18T09:01:16.759Z</time></trkpt><trkpt lat="44.1964238" lon="11.3860242"><ele>848.5000000000001</ele><time>2026-04-18T09:01:18.759Z</time></trkpt><trkpt lat="44.1963665" lon="11.3861091"><ele>846.0</ele><time>2026-04-18T09:01:20.758Z</time></trkpt><trkpt lat="44.1963093" lon="11.3862065"><ele>843.5</ele><time>2026-04-18T09:01:22.759Z</time></trkpt><trkpt lat="44.1962654" lon="11.3863022"><ele>841.0</ele><time>2026-04-18T09:01:24.759Z</time></trkpt><trkpt lat="44.1962255" lon="11.3864055"><ele>838.5000000000001</ele><time>2026-04-18T09:01:26.759Z</time></trkpt><trkpt lat="44.1961935" lon="11.3865091"><ele>836.0</ele><time>2026-04-18T09:01:28.758Z</time></trkpt><trkpt lat="44.196149" lon="11.3866"><ele>835.0000000000001</ele><time>2026-04-18T09:01:30.758Z</time></trkpt><trkpt lat="44.1960918" lon="11.3866619"><ele>834.0</ele><time>2026-04-18T09:01:32.758Z</time></trkpt><trkpt lat="44.1960332" lon="11.3867587"><ele>833.0</ele><time>2026-04-18T09:01:35.758Z</time></trkpt><trkpt lat="44.1959872" lon="11.386847"><ele>832.0</ele><time>2026-04-18T09:01:37.758Z</time></trkpt><trkpt lat="44.1959516" lon="11.3869453"><ele>831.0000000000001</ele><time>2026-04-18T09:01:39.759Z</time></trkpt><trkpt lat="44.1958983" lon="11.3870608"><ele>830.0</ele><time>2026-04-18T09:01:41.758Z</time></trkpt><trkpt lat="44.1958169" lon="11.3871445"><ele>828.5</ele><time>2026-04-18T09:01:43.759Z</time></trkpt><trkpt lat="44.1957104" lon="11.3871977"><ele>827.0</ele><time>2026-04-18T09:01:45.758Z</time></trkpt><trkpt lat="44.195597" lon="11.3872372"><ele>825.5</ele><time>2026-04-18T09:01:47.758Z</time></trkpt><trkpt lat="44.195485" lon="11.3872747"><ele>824.0</ele><time>2026-04-18T09:01:49.758Z</time></trkpt><trkpt lat="44.195364" lon="11.3873172"><ele>821.6</ele><time>2026-04-18T09:01:51.758Z</time></trkpt><trkpt lat="44.1952633" lon="11.387363"><ele>819.2</ele><time>2026-04-18T09:01:53.758Z</time></trkpt><trkpt lat="44.1951739" lon="11.3874131"><ele>816.8000000000001</ele><time>2026-04-18T09:01:55.759Z</time></trkpt><trkpt lat="44.1950898" lon="11.3874768"><ele>814.4000000000001</ele><time>2026-04-18T09:01:57.758Z</time></trkpt><trkpt lat="44.1949888" lon="11.3875403"><ele>812.0</ele><time>2026-04-18T09:01:59.759Z</time></trkpt><trkpt lat="44.19489" lon="11.3875968"><ele>809.4000000000001</ele><time>2026-04-18T09:02:01.759Z</time></trkpt><trkpt lat="44.1947916" lon="11.3876382"><ele>806.8000000000001</ele><time>2026-04-18T09:02:03.758Z</time></trkpt><trkpt lat="44.1946822" lon="11.3876789"><ele>804.2</ele><time>2026-04-18T09:02:05.758Z</time></trkpt><trkpt lat="44.1945709" lon="11.3877357"><ele>801.6</ele><time>2026-04-18T09:02:07.759Z</time></trkpt><trkpt lat="44.1945093" lon="11.3877649"><ele>799.0</ele><time>2026-04-18T09:02:08.758Z</time></trkpt><trkpt lat="44.1944375" lon="11.3878035"><ele>799.0</ele><time>2026-04-18T09:02:09.759Z</time></trkpt><trkpt lat="44.1943664" lon="11.3878458"><ele>799.0</ele><time>2026-04-18T09:02:10.758Z</time></trkpt><trkpt lat="44.1942965" lon="11.3878807"><ele>799.0</ele><time>2026-04-18T09:02:11.759Z</time></trkpt><trkpt lat="44.1942325" lon="11.3879206"><ele>799.0</ele><time>2026-04-18T09:02:12.758Z</time></trkpt><trkpt lat="44.1941724" lon="11.3879581"><ele>799.0</ele><time>2026-04-18T09:02:13.759Z</time></trkpt><trkpt lat="44.1941109" lon="11.3879935"><ele>799.0</ele><time>2026-04-18T09:02:14.759Z</time></trkpt><trkpt lat="44.1940486" lon="11.3880259"><ele>799.0</ele><time>2026-04-18T09:02:15.758Z</time></trkpt><trkpt lat="44.1939339" lon="11.388077"><ele>795.8000000000001</ele><time>2026-04-18T09:02:17.759Z</time></trkpt><trkpt lat="44.1938357" lon="11.3881199"><ele>792.6</ele><time>2026-04-18T09:02:19.759Z</time></trkpt><trkpt lat="44.1937509" lon="11.3881609"><ele>789.4</ele><time>2026-04-18T09:02:21.758Z</time></trkpt><trkpt lat="44.1937069" lon="11.388231"><ele>786.2</ele><time>2026-04-18T09:02:23.758Z</time></trkpt><trkpt lat="44.1936658" lon="11.3883417"><ele>783.0</ele><time>2026-04-18T09:02:25.759Z</time></trkpt><trkpt lat="44.1936086" lon="11.3884605"><ele>783.0</ele><time>2026-04-18T09:02:27.758Z</time></trkpt><trkpt lat="44.1935394" lon="11.3885713"><ele>783.0</ele><time>2026-04-18T09:02:29.758Z</time></trkpt><trkpt lat="44.1934786" lon="11.3887034"><ele>783.0</ele><time>2026-04-18T09:02:31.758Z</time></trkpt><trkpt lat="44.1934241" lon="11.388853"><ele>783.0</ele><time>2026-04-18T09:02:33.759Z</time></trkpt><trkpt lat="44.1933972" lon="11.3889368"><ele>783.0</ele><time>2026-04-18T09:02:34.758Z</time></trkpt><trkpt lat="44.1933474" lon="11.3890804"><ele>781.8</ele><time>2026-04-18T09:02:36.758Z</time></trkpt><trkpt lat="44.1932948" lon="11.3892164"><ele>780.5999999999999</ele><time>2026-04-18T09:02:38.759Z</time></trkpt><trkpt lat="44.1932467" lon="11.3893505"><ele>779.4000000000001</ele><time>2026-04-18T09:02:40.759Z</time></trkpt><trkpt lat="44.1931953" lon="11.3894576"><ele>778.2</ele><time>2026-04-18T09:02:42.759Z</time></trkpt><trkpt lat="44.1931555" lon="11.3895503"><ele>777.0</ele><time>2026-04-18T09:02:44.759Z</time></trkpt><trkpt lat="44.1931024" lon="11.3896461"><ele>774.5</ele><time>2026-04-18T09:02:46.759Z</time></trkpt><trkpt lat="44.1930429" lon="11.3897308"><ele>772.0</ele><time>2026-04-18T09:02:48.759Z</time></trkpt><trkpt lat="44.1929765" lon="11.389793"><ele>769.5</ele><time>2026-04-18T09:02:50.758Z</time></trkpt><trkpt lat="44.1929083" lon="11.3898435"><ele>767.0</ele><time>2026-04-18T09:02:52.758Z</time></trkpt><trkpt lat="44.1928278" lon="11.3899065"><ele>764.5</ele><time>2026-04-18T09:02:54.758Z</time></trkpt><trkpt lat="44.1927344" lon="11.3899817"><ele>762.0</ele><time>2026-04-18T09:02:56.759Z</time></trkpt><trkpt lat="44.1926487" lon="11.3900532"><ele>762.0</ele><time>2026-04-18T09:02:58.758Z</time></trkpt><trkpt lat="44.1925678" lon="11.390147"><ele>762.0</ele><time>2026-04-18T09:03:00.758Z</time></trkpt><trkpt lat="44.1924999" lon="11.3902594"><ele>762.0</ele><time>2026-04-18T09:03:02.759Z</time></trkpt><trkpt lat="44.1924245" lon="11.3903941"><ele>762.0</ele><time>2026-04-18T09:03:04.759Z</time></trkpt><trkpt lat="44.192382" lon="11.3904675"><ele>762.0</ele><time>2026-04-18T09:03:05.757Z</time></trkpt><trkpt lat="44.1923093" lon="11.390603"><ele>759.8333333333334</ele><time>2026-04-18T09:03:07.758Z</time></trkpt><trkpt lat="44.1922705" lon="11.3907539"><ele>757.6666666666666</ele><time>2026-04-18T09:03:09.758Z</time></trkpt><trkpt lat="44.1922638" lon="11.3908452"><ele>755.5</ele><time>2026-04-18T09:03:10.757Z</time></trkpt><trkpt lat="44.1922646" lon="11.3909458"><ele>753.3333333333333</ele><time>2026-04-18T09:03:11.757Z</time></trkpt><trkpt lat="44.1922697" lon="11.3910507"><ele>751.1666666666666</ele><time>2026-04-18T09:03:12.757Z</time></trkpt><trkpt lat="44.1922688" lon="11.3911459"><ele>749.0</ele><time>2026-04-18T09:03:13.758Z</time></trkpt><trkpt lat="44.1922622" lon="11.3912376"><ele>748.2</ele><time>2026-04-18T09:03:14.758Z</time></trkpt><trkpt lat="44.1922483" lon="11.3913817"><ele>747.4000000000001</ele><time>2026-04-18T09:03:16.757Z</time></trkpt><trkpt lat="44.1922417" lon="11.39154"><ele>746.6</ele><time>2026-04-18T09:03:18.757Z</time></trkpt><trkpt lat="44.19223" lon="11.3917083"><ele>745.8</ele><time>2026-04-18T09:03:20.757Z</time></trkpt><trkpt lat="44.192225" lon="11.39186"><ele>745.0</ele><time>2026-04-18T09:03:22.757Z</time></trkpt><trkpt lat="44.1922083" lon="11.3920183"><ele>745.0</ele><time>2026-04-18T09:03:24.757Z</time></trkpt><trkpt lat="44.192195" lon="11.392105"><ele>745.0</ele><time>2026-04-18T09:03:25.757Z</time></trkpt><trkpt lat="44.1921783" lon="11.392205"><ele>745.0</ele><time>2026-04-18T09:03:26.757Z</time></trkpt><trkpt lat="44.19216" lon="11.3922983"><ele>745.0</ele><time>2026-04-18T09:03:27.758Z</time></trkpt><trkpt lat="44.1921467" lon="11.392455"><ele>745.0</ele><time>2026-04-18T09:03:29.758Z</time></trkpt><trkpt lat="44.192145" lon="11.39262"><ele>745.0</ele><time>2026-04-18T09:03:31.757Z</time></trkpt><trkpt lat="44.19214" lon="11.392775"><ele>743.8333333333334</ele><time>2026-04-18T09:03:33.758Z</time></trkpt><trkpt lat="44.192135" lon="11.3928933"><ele>742.6666666666667</ele><time>2026-04-18T09:03:35.758Z</time></trkpt><trkpt lat="44.1921367" lon="11.392985"><ele>741.5</ele><time>2026-04-18T09:03:37.758Z</time></trkpt><trkpt lat="44.19214" lon="11.39311"><ele>740.3333333333334</ele><time>2026-04-18T09:03:41.758Z</time></trkpt><trkpt lat="44.192135" lon="11.3932067"><ele>739.1666666666666</ele><time>2026-04-18T09:03:43.757Z</time></trkpt><trkpt lat="44.1921217" lon="11.3933083"><ele>738.0</ele><time>2026-04-18T09:03:45.757Z</time></trkpt><trkpt lat="44.1920917" lon="11.3934167"><ele>736.2</ele><time>2026-04-18T09:03:47.758Z</time></trkpt><trkpt lat="44.192055" lon="11.3935483"><ele>734.4</ele><time>2026-04-18T09:03:49.758Z</time></trkpt><trkpt lat="44.19201" lon="11.3936967"><ele>732.6</ele><time>2026-04-18T09:03:51.758Z</time></trkpt><trkpt lat="44.1919733" lon="11.3938383"><ele>730.8000000000001</ele><time>2026-04-18T09:03:53.757Z</time></trkpt><trkpt lat="44.1919467" lon="11.393995"><ele>729.0</ele><time>2026-04-18T09:03:55.757Z</time></trkpt><trkpt lat="44.1919467" lon="11.3941483"><ele>726.6</ele><time>2026-04-18T09:03:57.758Z</time></trkpt><trkpt lat="44.1919617" lon="11.3942583"><ele>724.2</ele><time>2026-04-18T09:03:59.757Z</time></trkpt><trkpt lat="44.1919783" lon="11.394365"><ele>721.8000000000001</ele><time>2026-04-18T09:04:01.757Z</time></trkpt><trkpt lat="44.1919667" lon="11.394485"><ele>719.4000000000001</ele><time>2026-04-18T09:04:03.757Z</time></trkpt><trkpt lat="44.19193" lon="11.3946367"><ele>717.0</ele><time>2026-04-18T09:04:05.757Z</time></trkpt><trkpt lat="44.1919" lon="11.3948"><ele>715.6</ele><time>2026-04-18T09:04:07.757Z</time></trkpt><trkpt lat="44.191885" lon="11.3948883"><ele>714.2</ele><time>2026-04-18T09:04:08.757Z</time></trkpt><trkpt lat="44.19185" lon="11.39505"><ele>712.8</ele><time>2026-04-18T09:04:10.758Z</time></trkpt><trkpt lat="44.1917917" lon="11.395205"><ele>711.4</ele><time>2026-04-18T09:04:12.757Z</time></trkpt><trkpt lat="44.1917433" lon="11.395355"><ele>710.0</ele><time>2026-04-18T09:04:14.757Z</time></trkpt><trkpt lat="44.191695" lon="11.3954967"><ele>707.8</ele><time>2026-04-18T09:04:16.757Z</time></trkpt><trkpt lat="44.19163" lon="11.3956367"><ele>705.6</ele><time>2026-04-18T09:04:18.757Z</time></trkpt><trkpt lat="44.1915583" lon="11.39576"><ele>703.4000000000001</ele><time>2026-04-18T09:04:20.758Z</time></trkpt><trkpt lat="44.1915067" lon="11.3958317"><ele>701.2</ele><time>2026-04-18T09:04:21.757Z</time></trkpt><trkpt lat="44.1914533" lon="11.395905"><ele>699.0</ele><time>2026-04-18T09:04:22.758Z</time></trkpt><trkpt lat="44.1914083" lon="11.395985"><ele>697.6666666666666</ele><time>2026-04-18T09:04:23.757Z</time></trkpt><trkpt lat="44.19137" lon="11.3960583"><ele>696.3333333333334</ele><time>2026-04-18T09:04:24.757Z</time></trkpt><trkpt lat="44.1913333" lon="11.396225"><ele>695.0</ele><time>2026-04-18T09:04:26.757Z</time></trkpt><trkpt lat="44.1913283" lon="11.396325"><ele>693.6666666666667</ele><time>2026-04-18T09:04:27.758Z</time></trkpt><trkpt lat="44.19133" lon="11.3964167"><ele>692.3333333333334</ele><time>2026-04-18T09:04:28.757Z</time></trkpt><trkpt lat="44.19134" lon="11.39651"><ele>691.0</ele><time>2026-04-18T09:04:29.757Z</time></trkpt><trkpt lat="44.1913583" lon="11.3966083"><ele>690.1666666666667</ele><time>2026-04-18T09:04:30.758Z</time></trkpt><trkpt lat="44.19137" lon="11.3967383"><ele>689.3333333333334</ele><time>2026-04-18T09:04:32.758Z</time></trkpt><trkpt lat="44.1913367" lon="11.3968133"><ele>688.5</ele><time>2026-04-18T09:04:34.757Z</time></trkpt><trkpt lat="44.191255" lon="11.3967733"><ele>687.6666666666666</ele><time>2026-04-18T09:04:36.758Z</time></trkpt><trkpt lat="44.1912033" lon="11.3967033"><ele>686.8333333333333</ele><time>2026-04-18T09:04:37.758Z</time></trkpt><trkpt lat="44.1911467" lon="11.3966183"><ele>686.0</ele><time>2026-04-18T09:04:38.757Z</time></trkpt><trkpt lat="44.1910833" lon="11.39651"><ele>686.0</ele><time>2026-04-18T09:04:39.757Z</time></trkpt><trkpt lat="44.1910217" lon="11.3963817"><ele>686.0</ele><time>2026-04-18T09:04:40.757Z</time></trkpt><trkpt lat="44.1909533" lon="11.39624"><ele>686.0</ele><time>2026-04-18T09:04:41.757Z</time></trkpt><trkpt lat="44.1908783" lon="11.396075"><ele>686.0</ele><time>2026-04-18T09:04:42.757Z</time></trkpt><trkpt lat="44.1907967" lon="11.3958883"><ele>686.0</ele><time>2026-04-18T09:04:43.758Z</time></trkpt><trkpt lat="44.1907117" lon="11.3956917"><ele>686.0</ele><time>2026-04-18T09:04:44.757Z</time></trkpt><trkpt lat="44.190635" lon="11.39551"><ele>686.0</ele><time>2026-04-18T09:04:45.757Z</time></trkpt><trkpt lat="44.19056" lon="11.3953817"><ele>686.0</ele><time>2026-04-18T09:04:46.757Z</time></trkpt><trkpt lat="44.1904817" lon="11.3952867"><ele>686.0</ele><time>2026-04-18T09:04:47.758Z</time></trkpt><trkpt lat="44.19039" lon="11.395245"><ele>686.0</ele><time>2026-04-18T09:04:48.758Z</time></trkpt><trkpt lat="44.1902867" lon="11.395255"><ele>686.0</ele><time>2026-04-18T09:04:49.757Z</time></trkpt><trkpt lat="44.190185" lon="11.3953183"><ele>686.0</ele><time>2026-04-18T09:04:50.758Z</time></trkpt><trkpt lat="44.1901117" lon="11.3954283"><ele>686.0</ele><time>2026-04-18T09:04:51.758Z</time></trkpt><trkpt lat="44.190045" lon="11.3955717"><ele>686.0</ele><time>2026-04-18T09:04:52.757Z</time></trkpt><trkpt lat="44.1899783" lon="11.3957117"><ele>686.0</ele><time>2026-04-18T09:04:53.758Z</time></trkpt><trkpt lat="44.1899083" lon="11.3958233"><ele>686.0</ele><time>2026-04-18T09:04:54.757Z</time></trkpt><trkpt lat="44.1898367" lon="11.3959067"><ele>686.0</ele><time>2026-04-18T09:04:55.758Z</time></trkpt><trkpt lat="44.1897417" lon="11.3959517"><ele>686.0</ele><time>2026-04-18T09:04:56.757Z</time></trkpt><trkpt lat="44.18964" lon="11.3959567"><ele>684.25</ele><time>2026-04-18T09:04:57.757Z</time></trkpt><trkpt lat="44.18953" lon="11.3959017"><ele>682.5</ele><time>2026-04-18T09:04:58.758Z</time></trkpt><trkpt lat="44.1894417" lon="11.39579"><ele>680.75</ele><time>2026-04-18T09:04:59.757Z</time></trkpt><trkpt lat="44.1893633" lon="11.3956583"><ele>679.0</ele><time>2026-04-18T09:05:00.758Z</time></trkpt><trkpt lat="44.1893" lon="11.3955083"><ele>679.4000000000001</ele><time>2026-04-18T09:05:01.758Z</time></trkpt><trkpt lat="44.189235" lon="11.3953733"><ele>679.8</ele><time>2026-04-18T09:05:02.757Z</time></trkpt><trkpt lat="44.18917" lon="11.395265"><ele>680.2</ele><time>2026-04-18T09:05:03.757Z</time></trkpt><trkpt lat="44.189085" lon="11.3951833"><ele>680.5999999999999</ele><time>2026-04-18T09:05:04.757Z</time></trkpt><trkpt lat="44.1889933" lon="11.3951533"><ele>681.0</ele><time>2026-04-18T09:05:05.758Z</time></trkpt><trkpt lat="44.1889033" lon="11.3951733"><ele>681.0</ele><time>2026-04-18T09:05:06.758Z</time></trkpt><trkpt lat="44.1888067" lon="11.39525"><ele>681.0</ele><time>2026-04-18T09:05:07.757Z</time></trkpt><trkpt lat="44.1887083" lon="11.3953183"><ele>681.0</ele><time>2026-04-18T09:05:08.757Z</time></trkpt><trkpt lat="44.1886083" lon="11.39532"><ele>681.0</ele><time>2026-04-18T09:05:09.757Z</time></trkpt><trkpt lat="44.188525" lon="11.3952567"><ele>681.0</ele><time>2026-04-18T09:05:10.757Z</time></trkpt><trkpt lat="44.18846" lon="11.39514"><ele>681.0</ele><time>2026-04-18T09:05:11.758Z</time></trkpt><trkpt lat="44.188395" lon="11.3950083"><ele>681.0</ele><time>2026-04-18T09:05:12.757Z</time></trkpt><trkpt lat="44.1883183" lon="11.394875"><ele>681.0</ele><time>2026-04-18T09:05:13.758Z</time></trkpt><trkpt lat="44.188235" lon="11.3947783"><ele>681.0</ele><time>2026-04-18T09:05:14.758Z</time></trkpt><trkpt lat="44.1881367" lon="11.3947233"><ele>680.5</ele><time>2026-04-18T09:05:15.758Z</time></trkpt><trkpt lat="44.1880233" lon="11.3947167"><ele>680.0</ele><time>2026-04-18T09:05:16.757Z</time></trkpt><trkpt lat="44.187895" lon="11.394755"><ele>679.5</ele><time>2026-04-18T09:05:17.757Z</time></trkpt><trkpt lat="44.1877583" lon="11.39481"><ele>679.0</ele><time>2026-04-18T09:05:18.757Z</time></trkpt><trkpt lat="44.187625" lon="11.3948333"><ele>679.0</ele><time>2026-04-18T09:05:19.757Z</time></trkpt><trkpt lat="44.1874833" lon="11.3948067"><ele>679.0</ele><time>2026-04-18T09:05:20.758Z</time></trkpt><trkpt lat="44.1873433" lon="11.3947267"><ele>679.0</ele><time>2026-04-18T09:05:21.757Z</time></trkpt><trkpt lat="44.187225" lon="11.3946367"><ele>679.0</ele><time>2026-04-18T09:05:22.757Z</time></trkpt><trkpt lat="44.1871117" lon="11.3945617"><ele>680.3333333333334</ele><time>2026-04-18T09:05:23.757Z</time></trkpt><trkpt lat="44.1869633" lon="11.39454"><ele>681.6666666666666</ele><time>2026-04-18T09:05:24.758Z</time></trkpt><trkpt lat="44.18681" lon="11.39456"><ele>683.0</ele><time>2026-04-18T09:05:25.757Z</time></trkpt><trkpt lat="44.1866483" lon="11.394625"><ele>683.6666666666666</ele><time>2026-04-18T09:05:26.758Z</time></trkpt><trkpt lat="44.1864983" lon="11.3947283"><ele>684.3333333333334</ele><time>2026-04-18T09:05:27.758Z</time></trkpt><trkpt lat="44.1863633" lon="11.394865"><ele>685.0</ele><time>2026-04-18T09:05:28.758Z</time></trkpt><trkpt lat="44.1862467" lon="11.3950367"><ele>685.0</ele><time>2026-04-18T09:05:29.757Z</time></trkpt><trkpt lat="44.1861533" lon="11.3952267"><ele>685.0</ele><time>2026-04-18T09:05:30.758Z</time></trkpt><trkpt lat="44.186085" lon="11.395445"><ele>685.0</ele><time>2026-04-18T09:05:31.757Z</time></trkpt><trkpt lat="44.1860333" lon="11.3956983"><ele>682.6666666666667</ele><time>2026-04-18T09:05:32.758Z</time></trkpt><trkpt lat="44.185985" lon="11.3959783"><ele>680.3333333333334</ele><time>2026-04-18T09:05:33.757Z</time></trkpt><trkpt lat="44.1859383" lon="11.3962467"><ele>678.0</ele><time>2026-04-18T09:05:34.758Z</time></trkpt><trkpt lat="44.185895" lon="11.396485"><ele>677.0</ele><time>2026-04-18T09:05:35.757Z</time></trkpt><trkpt lat="44.1858533" lon="11.39668"><ele>676.0</ele><time>2026-04-18T09:05:36.757Z</time></trkpt><trkpt lat="44.1858283" lon="11.3968283"><ele>675.0</ele><time>2026-04-18T09:05:37.757Z</time></trkpt><trkpt lat="44.1857983" lon="11.3969383"><ele>674.0</ele><time>2026-04-18T09:05:38.757Z</time></trkpt><trkpt lat="44.1857767" lon="11.3970317"><ele>673.0</ele><time>2026-04-18T09:05:39.758Z</time></trkpt><trkpt lat="44.1857533" lon="11.3971333"><ele>672.0</ele><time>2026-04-18T09:05:40.757Z</time></trkpt><trkpt lat="44.1857317" lon="11.3972333"><ele>671.0</ele><time>2026-04-18T09:05:41.758Z</time></trkpt><trkpt lat="44.1857067" lon="11.3973333"><ele>670.0</ele><time>2026-04-18T09:05:42.758Z</time></trkpt><trkpt lat="44.1856817" lon="11.39742"><ele>669.0</ele><time>2026-04-18T09:05:43.757Z</time></trkpt><trkpt lat="44.1856683" lon="11.3975567"><ele>668.0</ele><time>2026-04-18T09:05:45.758Z</time></trkpt><trkpt lat="44.1856783" lon="11.3977283"><ele>667.0</ele><time>2026-04-18T09:05:47.758Z</time></trkpt><trkpt lat="44.185685" lon="11.3978183"><ele>667.0</ele><time>2026-04-18T09:05:48.757Z</time></trkpt><trkpt lat="44.1856833" lon="11.3979783"><ele>667.0</ele><time>2026-04-18T09:05:50.757Z</time></trkpt><trkpt lat="44.1856767" lon="11.398105"><ele>667.0</ele><time>2026-04-18T09:05:52.757Z</time></trkpt><trkpt lat="44.1856567" lon="11.39825"><ele>667.0</ele><time>2026-04-18T09:05:54.757Z</time></trkpt><trkpt lat="44.1856417" lon="11.398405"><ele>667.0</ele><time>2026-04-18T09:05:56.758Z</time></trkpt><trkpt lat="44.1856217" lon="11.3985683"><ele>663.25</ele><time>2026-04-18T09:05:58.758Z</time></trkpt><trkpt lat="44.1856033" lon="11.3987333"><ele>659.5</ele><time>2026-04-18T09:06:00.758Z</time></trkpt><trkpt lat="44.185595" lon="11.3988933"><ele>655.75</ele><time>2026-04-18T09:06:02.757Z</time></trkpt><trkpt lat="44.18559" lon="11.3990617"><ele>652.0</ele><time>2026-04-18T09:06:04.757Z</time></trkpt><trkpt lat="44.185585" lon="11.3992283"><ele>650.6</ele><time>2026-04-18T09:06:06.757Z</time></trkpt><trkpt lat="44.1855917" lon="11.3993717"><ele>649.2</ele><time>2026-04-18T09:06:08.757Z</time></trkpt><trkpt lat="44.1856133" lon="11.39951"><ele>647.8</ele><time>2026-04-18T09:06:10.758Z</time></trkpt><trkpt lat="44.1856383" lon="11.3996167"><ele>646.4</ele><time>2026-04-18T09:06:12.758Z</time></trkpt><trkpt lat="44.1856683" lon="11.399755"><ele>645.0</ele><time>2026-04-18T09:06:14.757Z</time></trkpt><trkpt lat="44.185685" lon="11.3998433"><ele>645.0</ele><time>2026-04-18T09:06:15.757Z</time></trkpt><trkpt lat="44.18569" lon="11.4000083"><ele>645.0</ele><time>2026-04-18T09:06:17.757Z</time></trkpt><trkpt lat="44.185675" lon="11.400095"><ele>645.0</ele><time>2026-04-18T09:06:18.758Z</time></trkpt><trkpt lat="44.1856467" lon="11.4002333"><ele>645.0</ele><time>2026-04-18T09:06:20.757Z</time></trkpt><trkpt lat="44.18563" lon="11.400345"><ele>645.0</ele><time>2026-04-18T09:06:22.758Z</time></trkpt><trkpt lat="44.1856117" lon="11.400475"><ele>643.8333333333334</ele><time>2026-04-18T09:06:24.757Z</time></trkpt><trkpt lat="44.18559" lon="11.4006167"><ele>642.6666666666666</ele><time>2026-04-18T09:06:26.757Z</time></trkpt><trkpt lat="44.18557" lon="11.4007333"><ele>641.5</ele><time>2026-04-18T09:06:28.756Z</time></trkpt><trkpt lat="44.185545" lon="11.4008433"><ele>640.3333333333333</ele><time>2026-04-18T09:06:30.756Z</time></trkpt><trkpt lat="44.18551" lon="11.4009433"><ele>639.1666666666666</ele><time>2026-04-18T09:06:32.757Z</time></trkpt><trkpt lat="44.1854883" lon="11.40103"><ele>638.0</ele><time>2026-04-18T09:06:34.756Z</time></trkpt><trkpt lat="44.18547" lon="11.4011533"><ele>638.0</ele><time>2026-04-18T09:06:36.757Z</time></trkpt><trkpt lat="44.1854433" lon="11.40127"><ele>638.0</ele><time>2026-04-18T09:06:38.756Z</time></trkpt><trkpt lat="44.18541" lon="11.4013783"><ele>638.0</ele><time>2026-04-18T09:06:40.756Z</time></trkpt><trkpt lat="44.1853633" lon="11.401505"><ele>638.0</ele><time>2026-04-18T09:06:42.756Z</time></trkpt><trkpt lat="44.18531" lon="11.4016317"><ele>638.0</ele><time>2026-04-18T09:06:44.757Z</time></trkpt><trkpt lat="44.1852667" lon="11.4017583"><ele>640.0</ele><time>2026-04-18T09:06:46.756Z</time></trkpt><trkpt lat="44.1852433" lon="11.4019"><ele>642.0</ele><time>2026-04-18T09:06:48.756Z</time></trkpt><trkpt lat="44.1856467" lon="11.4002333"><ele>642.0</ele><time>2026-04-18T09:06:20.757Z</time></trkpt><trkpt lat="44.18563" lon="11.400345"><ele>642.0</ele><time>2026-04-18T09:06:22.758Z</time></trkpt><trkpt lat="44.1856117" lon="11.400475"><ele>642.0</ele><time>2026-04-18T09:06:24.757Z</time></trkpt><trkpt lat="44.18559" lon="11.4006167"><ele>642.0</ele><time>2026-04-18T09:06:26.757Z</time></trkpt><trkpt lat="44.18557" lon="11.4007333"><ele>642.0</ele><time>2026-04-18T09:06:28.756Z</time></trkpt><trkpt lat="44.185545" lon="11.4008433"><ele>642.0</ele><time>2026-04-18T09:06:30.756Z</time></trkpt><trkpt lat="44.18551" lon="11.4009433"><ele>641.3333333333334</ele><time>2026-04-18T09:06:32.757Z</time></trkpt><trkpt lat="44.1854883" lon="11.40103"><ele>640.6666666666666</ele><time>2026-04-18T09:06:34.756Z</time></trkpt><trkpt lat="44.18547" lon="11.4011533"><ele>640.0</ele><time>2026-04-18T09:06:36.757Z</time></trkpt><trkpt lat="44.1854433" lon="11.40127"><ele>639.3333333333333</ele><time>2026-04-18T09:06:38.756Z</time></trkpt><trkpt lat="44.18541" lon="11.4013783"><ele>638.6666666666666</ele><time>2026-04-18T09:06:40.756Z</time></trkpt><trkpt lat="44.1853633" lon="11.401505"><ele>638.0</ele><time>2026-04-18T09:06:42.756Z</time></trkpt><trkpt lat="44.18531" lon="11.4016317"><ele>636.8</ele><time>2026-04-18T09:06:44.757Z</time></trkpt><trkpt lat="44.1852667" lon="11.4017583"><ele>635.5999999999999</ele><time>2026-04-18T09:06:46.756Z</time></trkpt><trkpt lat="44.1852433" lon="11.4019"><ele>634.4000000000001</ele><time>2026-04-18T09:06:48.756Z</time></trkpt><trkpt lat="44.1852583" lon="11.40204"><ele>633.2</ele><time>2026-04-18T09:06:50.756Z</time></trkpt><trkpt lat="44.1852883" lon="11.4021467"><ele>632.0</ele><time>2026-04-18T09:06:52.756Z</time></trkpt><trkpt lat="44.185305" lon="11.4022583"><ele>632.0</ele><time>2026-04-18T09:06:59.757Z</time></trkpt><trkpt lat="44.1853217" lon="11.40236"><ele>632.0</ele><time>2026-04-18T09:07:02.756Z</time></trkpt><trkpt lat="44.18535" lon="11.40248"><ele>632.0</ele><time>2026-04-18T09:07:05.756Z</time></trkpt><trkpt lat="44.1853583" lon="11.4025883"><ele>632.0</ele><time>2026-04-18T09:07:07.756Z</time></trkpt><trkpt lat="44.1853383" lon="11.402695"><ele>632.0</ele><time>2026-04-18T09:07:09.756Z</time></trkpt><trkpt lat="44.1853067" lon="11.4027867"><ele>632.0</ele><time>2026-04-18T09:07:11.756Z</time></trkpt><trkpt lat="44.1852683" lon="11.4029183"><ele>632.2</ele><time>2026-04-18T09:07:14.756Z</time></trkpt><trkpt lat="44.185235" lon="11.40303"><ele>632.4000000000001</ele><time>2026-04-18T09:07:16.757Z</time></trkpt><trkpt lat="44.1851983" lon="11.4031683"><ele>632.5999999999999</ele><time>2026-04-18T09:07:18.756Z</time></trkpt><trkpt lat="44.18516" lon="11.403295"><ele>632.8</ele><time>2026-04-18T09:07:20.757Z</time></trkpt><trkpt lat="44.1851183" lon="11.403435"><ele>633.0</ele><time>2026-04-18T09:07:22.756Z</time></trkpt><trkpt lat="44.1850983" lon="11.4035633"><ele>633.0</ele><time>2026-04-18T09:07:24.756Z</time></trkpt><trkpt lat="44.1850867" lon="11.4037117"><ele>633.0</ele><time>2026-04-18T09:07:26.757Z</time></trkpt><trkpt lat="44.1850517" lon="11.4038583"><ele>633.0</ele><time>2026-04-18T09:07:28.756Z</time></trkpt><trkpt lat="44.185015" lon="11.4039383"><ele>633.0</ele><time>2026-04-18T09:07:29.757Z</time></trkpt><trkpt lat="44.1849783" lon="11.404015"><ele>633.0</ele><time>2026-04-18T09:07:30.757Z</time></trkpt><trkpt lat="44.1849017" lon="11.404145"><ele>633.0</ele><time>2026-04-18T09:07:32.757Z</time></trkpt><trkpt lat="44.1848617" lon="11.4042217"><ele>633.0</ele><time>2026-04-18T09:07:33.757Z</time></trkpt><trkpt lat="44.1848167" lon="11.4043567"><ele>633.0</ele><time>2026-04-18T09:07:35.756Z</time></trkpt><trkpt lat="44.1847867" lon="11.4044667"><ele>633.0</ele><time>2026-04-18T09:07:37.757Z</time></trkpt><trkpt lat="44.1847467" lon="11.40458"><ele>633.0</ele><time>2026-04-18T09:07:39.756Z</time></trkpt><trkpt lat="44.1847067" lon="11.4046883"><ele>633.0</ele><time>2026-04-18T09:07:41.756Z</time></trkpt><trkpt lat="44.18468" lon="11.4047733"><ele>633.6666666666666</ele><time>2026-04-18T09:07:43.757Z</time></trkpt><trkpt lat="44.1846417" lon="11.4048483"><ele>634.3333333333334</ele><time>2026-04-18T09:07:45.757Z</time></trkpt><trkpt lat="44.1846" lon="11.4049167"><ele>635.0</ele><time>2026-04-18T09:07:47.756Z</time></trkpt><trkpt lat="44.1845283" lon="11.4049833"><ele>635.6666666666667</ele><time>2026-04-18T09:07:49.756Z</time></trkpt><trkpt lat="44.18443" lon="11.405025"><ele>636.3333333333334</ele><time>2026-04-18T09:07:51.756Z</time></trkpt><trkpt lat="44.1843183" lon="11.4050667"><ele>637.0</ele><time>2026-04-18T09:07:53.757Z</time></trkpt><trkpt lat="44.1842567" lon="11.405095"><ele>637.0</ele><time>2026-04-18T09:07:54.756Z</time></trkpt><trkpt lat="44.1841483" lon="11.405165"><ele>637.0</ele><time>2026-04-18T09:07:56.756Z</time></trkpt><trkpt lat="44.1840833" lon="11.4052617"><ele>637.0</ele><time>2026-04-18T09:07:58.757Z</time></trkpt><trkpt lat="44.1840333" lon="11.4053817"><ele>637.0</ele><time>2026-04-18T09:08:00.756Z</time></trkpt><trkpt lat="44.1840083" lon="11.4054783"><ele>637.0</ele><time>2026-04-18T09:08:01.756Z</time></trkpt><trkpt lat="44.1839733" lon="11.40558"><ele>633.5</ele><time>2026-04-18T09:08:02.757Z</time></trkpt><trkpt lat="44.1839433" lon="11.405675"><ele>630.0</ele><time>2026-04-18T09:08:03.756Z</time></trkpt><trkpt lat="44.18391" lon="11.4057783"><ele>626.5</ele><time>2026-04-18T09:08:04.756Z</time></trkpt><trkpt lat="44.1838733" lon="11.4058883"><ele>623.0</ele><time>2026-04-18T09:08:05.757Z</time></trkpt><trkpt lat="44.1838433" lon="11.4060017"><ele>619.5</ele><time>2026-04-18T09:08:06.756Z</time></trkpt><trkpt lat="44.183815" lon="11.4061133"><ele>616.0</ele><time>2026-04-18T09:08:07.756Z</time></trkpt><trkpt lat="44.183785" lon="11.406225"><ele>616.6666666666667</ele><time>2026-04-18T09:08:08.756Z</time></trkpt><trkpt lat="44.1837417" lon="11.4063317"><ele>617.3333333333334</ele><time>2026-04-18T09:08:09.756Z</time></trkpt><trkpt lat="44.18369" lon="11.4064183"><ele>618.0</ele><time>2026-04-18T09:08:10.756Z</time></trkpt><trkpt lat="44.183625" lon="11.4064917"><ele>618.6666666666666</ele><time>2026-04-18T09:08:11.757Z</time></trkpt><trkpt lat="44.18356" lon="11.4065783"><ele>619.3333333333333</ele><time>2026-04-18T09:08:12.756Z</time></trkpt><trkpt lat="44.183515" lon="11.4066683"><ele>620.0</ele><time>2026-04-18T09:08:13.757Z</time></trkpt><trkpt lat="44.18347" lon="11.4067417"><ele>620.0</ele><time>2026-04-18T09:08:14.756Z</time></trkpt><trkpt lat="44.1834083" lon="11.406795"><ele>620.0</ele><time>2026-04-18T09:08:15.756Z</time></trkpt><trkpt lat="44.1832983" lon="11.4068683"><ele>620.0</ele><time>2026-04-18T09:08:17.756Z</time></trkpt><trkpt lat="44.1831983" lon="11.406935"><ele>620.0</ele><time>2026-04-18T09:08:19.756Z</time></trkpt><trkpt lat="44.1831067" lon="11.40707"><ele>620.0</ele><time>2026-04-18T09:08:21.757Z</time></trkpt><trkpt lat="44.1830633" lon="11.4071583"><ele>616.1666666666666</ele><time>2026-04-18T09:08:22.756Z</time></trkpt><trkpt lat="44.1830217" lon="11.40725"><ele>612.3333333333333</ele><time>2026-04-18T09:08:23.756Z</time></trkpt><trkpt lat="44.1829733" lon="11.40734"><ele>608.5</ele><time>2026-04-18T09:08:24.756Z</time></trkpt><trkpt lat="44.1829283" lon="11.4074433"><ele>604.6666666666666</ele><time>2026-04-18T09:08:25.756Z</time></trkpt><trkpt lat="44.1828933" lon="11.407545"><ele>600.8333333333334</ele><time>2026-04-18T09:08:26.757Z</time></trkpt><trkpt lat="44.1828783" lon="11.407635"><ele>597.0</ele><time>2026-04-18T09:08:27.756Z</time></trkpt><trkpt lat="44.18288" lon="11.4077383"><ele>597.0</ele><time>2026-04-18T09:08:28.756Z</time></trkpt><trkpt lat="44.1829" lon="11.4078517"><ele>597.0</ele><time>2026-04-18T09:08:29.756Z</time></trkpt><trkpt lat="44.1829283" lon="11.4079717"><ele>597.0</ele><time>2026-04-18T09:08:30.756Z</time></trkpt><trkpt lat="44.1829533" lon="11.40808"><ele>597.0</ele><time>2026-04-18T09:08:31.756Z</time></trkpt><trkpt lat="44.18297" lon="11.4082133"><ele>597.0</ele><time>2026-04-18T09:08:33.757Z</time></trkpt><trkpt lat="44.18292" lon="11.4082767"><ele>597.0</ele><time>2026-04-18T09:08:35.757Z</time></trkpt><trkpt lat="44.182835" lon="11.4083317"><ele>597.2</ele><time>2026-04-18T09:08:37.756Z</time></trkpt><trkpt lat="44.1827683" lon="11.408415"><ele>597.4000000000001</ele><time>2026-04-18T09:08:39.757Z</time></trkpt><trkpt lat="44.1827217" lon="11.4085567"><ele>597.5999999999999</ele><time>2026-04-18T09:08:41.757Z</time></trkpt><trkpt lat="44.1826933" lon="11.4087167"><ele>597.8</ele><time>2026-04-18T09:08:43.757Z</time></trkpt><trkpt lat="44.18265" lon="11.4088733"><ele>598.0</ele><time>2026-04-18T09:08:45.756Z</time></trkpt><trkpt lat="44.1825783" lon="11.4089933"><ele>598.0</ele><time>2026-04-18T09:08:47.756Z</time></trkpt><trkpt lat="44.182505" lon="11.4090967"><ele>598.0</ele><time>2026-04-18T09:08:49.756Z</time></trkpt><trkpt lat="44.1824283" lon="11.4091983"><ele>598.0</ele><time>2026-04-18T09:08:51.756Z</time></trkpt><trkpt lat="44.182385" lon="11.409295"><ele>598.0</ele><time>2026-04-18T09:08:53.756Z</time></trkpt><trkpt lat="44.1823417" lon="11.4093817"><ele>598.0</ele><time>2026-04-18T09:08:55.757Z</time></trkpt><trkpt lat="44.1822733" lon="11.40947"><ele>595.8333333333334</ele><time>2026-04-18T09:08:57.756Z</time></trkpt><trkpt lat="44.1822117" lon="11.4095683"><ele>593.6666666666667</ele><time>2026-04-18T09:08:59.757Z</time></trkpt><trkpt lat="44.1821583" lon="11.40964"><ele>591.5</ele><time>2026-04-18T09:09:02.757Z</time></trkpt><trkpt lat="44.182125" lon="11.4097167"><ele>589.3333333333334</ele><time>2026-04-18T09:11:08.755Z</time></trkpt><trkpt lat="44.1820817" lon="11.409865"><ele>587.1666666666666</ele><time>2026-04-18T09:11:10.755Z</time></trkpt><trkpt lat="44.1820517" lon="11.4099483"><ele>585.0</ele><time>2026-04-18T09:11:11.756Z</time></trkpt><trkpt lat="44.18202" lon="11.4100267"><ele>585.0</ele><time>2026-04-18T09:11:12.755Z</time></trkpt><trkpt lat="44.181985" lon="11.4101817"><ele>585.0</ele><time>2026-04-18T09:11:14.756Z</time></trkpt><trkpt lat="44.1819583" lon="11.41032"><ele>585.0</ele><time>2026-04-18T09:11:16.756Z</time></trkpt><trkpt lat="44.1819117" lon="11.4103917"><ele>585.0</ele><time>2026-04-18T09:11:18.755Z</time></trkpt><trkpt lat="44.181845" lon="11.4103817"><ele>585.0</ele><time>2026-04-18T09:11:20.755Z</time></trkpt><trkpt lat="44.1817867" lon="11.4103367"><ele>585.0</ele><time>2026-04-18T09:11:22.755Z</time></trkpt><trkpt lat="44.1817133" lon="11.4102717"><ele>585.0</ele><time>2026-04-18T09:11:25.756Z</time></trkpt><trkpt lat="44.1816333" lon="11.4102383"><ele>585.0</ele><time>2026-04-18T09:11:28.756Z</time></trkpt><trkpt lat="44.1815533" lon="11.4102633"><ele>585.0</ele><time>2026-04-18T09:11:30.756Z</time></trkpt><trkpt lat="44.1814633" lon="11.4103383"><ele>585.0</ele><time>2026-04-18T09:11:32.756Z</time></trkpt><trkpt lat="44.1814117" lon="11.41039"><ele>585.0</ele><time>2026-04-18T09:11:33.755Z</time></trkpt><trkpt lat="44.18136" lon="11.4104517"><ele>585.0</ele><time>2026-04-18T09:11:34.755Z</time></trkpt><trkpt lat="44.1813117" lon="11.41052"><ele>581.8333333333334</ele><time>2026-04-18T09:11:35.755Z</time></trkpt><trkpt lat="44.18126" lon="11.410595"><ele>578.6666666666666</ele><time>2026-04-18T09:11:36.755Z</time></trkpt><trkpt lat="44.1812" lon="11.4106733"><ele>575.5</ele><time>2026-04-18T09:11:37.755Z</time></trkpt><trkpt lat="44.1811467" lon="11.41074"><ele>572.3333333333333</ele><time>2026-04-18T09:11:38.755Z</time></trkpt><trkpt lat="44.1810933" lon="11.41082"><ele>569.1666666666666</ele><time>2026-04-18T09:11:39.756Z</time></trkpt><trkpt lat="44.1810333" lon="11.4109"><ele>566.0</ele><time>2026-04-18T09:11:40.756Z</time></trkpt><trkpt lat="44.1809717" lon="11.4109833"><ele>566.0</ele><time>2026-04-18T09:11:41.755Z</time></trkpt><trkpt lat="44.18092" lon="11.4110667"><ele>566.0</ele><time>2026-04-18T09:11:42.756Z</time></trkpt><trkpt lat="44.1808733" lon="11.4111483"><ele>566.0</ele><time>2026-04-18T09:11:43.755Z</time></trkpt><trkpt lat="44.1808267" lon="11.41124"><ele>566.0</ele><time>2026-04-18T09:11:44.755Z</time></trkpt><trkpt lat="44.1807533" lon="11.41138"><ele>566.0</ele><time>2026-04-18T09:11:46.755Z</time></trkpt><trkpt lat="44.1806633" lon="11.41147"><ele>564.4</ele><time>2026-04-18T09:11:48.755Z</time></trkpt><trkpt lat="44.180565" lon="11.4115533"><ele>562.8</ele><time>2026-04-18T09:11:50.755Z</time></trkpt><trkpt lat="44.1804817" lon="11.4116267"><ele>561.1999999999999</ele><time>2026-04-18T09:11:52.755Z</time></trkpt><trkpt lat="44.180395" lon="11.4116583"><ele>559.6</ele><time>2026-04-18T09:11:54.755Z</time></trkpt><trkpt lat="44.1803117" lon="11.4116883"><ele>558.0</ele><time>2026-04-18T09:11:56.756Z</time></trkpt><trkpt lat="44.1802317" lon="11.411725"><ele>558.0</ele><time>2026-04-18T09:11:58.755Z</time></trkpt><trkpt lat="44.1801467" lon="11.4117717"><ele>558.0</ele><time>2026-04-18T09:12:00.755Z</time></trkpt><trkpt lat="44.180065" lon="11.41183"><ele>558.0</ele><time>2026-04-18T09:12:02.755Z</time></trkpt><trkpt lat="44.17998" lon="11.4118667"><ele>558.0</ele><time>2026-04-18T09:12:04.756Z</time></trkpt><trkpt lat="44.1799033" lon="11.41187"><ele>558.0</ele><time>2026-04-18T09:12:07.755Z</time></trkpt><trkpt lat="44.17983" lon="11.41185"><ele>558.0</ele><time>2026-04-18T09:12:10.755Z</time></trkpt><trkpt lat="44.17976" lon="11.4118183"><ele>557.8</ele><time>2026-04-18T09:12:12.756Z</time></trkpt><trkpt lat="44.17969" lon="11.41179"><ele>557.5999999999999</ele><time>2026-04-18T09:12:14.755Z</time></trkpt><trkpt lat="44.179615" lon="11.4117433"><ele>557.4000000000001</ele><time>2026-04-18T09:12:16.755Z</time></trkpt><trkpt lat="44.179525" lon="11.411685"><ele>557.2</ele><time>2026-04-18T09:12:18.755Z</time></trkpt><trkpt lat="44.17941" lon="11.4116033"><ele>557.0</ele><time>2026-04-18T09:12:20.756Z</time></trkpt><trkpt lat="44.1793483" lon="11.41156"><ele>557.0</ele><time>2026-04-18T09:12:21.756Z</time></trkpt><trkpt lat="44.17929" lon="11.4115183"><ele>557.0</ele><time>2026-04-18T09:12:22.755Z</time></trkpt><trkpt lat="44.1792283" lon="11.4114633"><ele>557.0</ele><time>2026-04-18T09:12:23.755Z</time></trkpt><trkpt lat="44.1791717" lon="11.4114133"><ele>557.0</ele><time>2026-04-18T09:12:24.755Z</time></trkpt><trkpt lat="44.1791167" lon="11.411345"><ele>557.0</ele><time>2026-04-18T09:12:25.756Z</time></trkpt><trkpt lat="44.17907" lon="11.4112683"><ele>557.0</ele><time>2026-04-18T09:12:26.756Z</time></trkpt><trkpt lat="44.1790167" lon="11.4111867"><ele>557.0</ele><time>2026-04-18T09:12:27.756Z</time></trkpt><trkpt lat="44.1789667" lon="11.41111"><ele>556.1666666666666</ele><time>2026-04-18T09:12:28.755Z</time></trkpt><trkpt lat="44.17891" lon="11.411035"><ele>555.3333333333333</ele><time>2026-04-18T09:12:29.755Z</time></trkpt><trkpt lat="44.1788567" lon="11.410975"><ele>554.5</ele><time>2026-04-18T09:12:30.755Z</time></trkpt><trkpt lat="44.1788017" lon="11.41091"><ele>553.6666666666666</ele><time>2026-04-18T09:12:31.755Z</time></trkpt><trkpt lat="44.178705" lon="11.4108283"><ele>552.8333333333334</ele><time>2026-04-18T09:12:33.756Z</time></trkpt><trkpt lat="44.1786483" lon="11.41078"><ele>552.0</ele><time>2026-04-18T09:12:34.755Z</time></trkpt><trkpt lat="44.178575" lon="11.4107333"><ele>552.0</ele><time>2026-04-18T09:12:35.755Z</time></trkpt><trkpt lat="44.178495" lon="11.4107117"><ele>552.0</ele><time>2026-04-18T09:12:36.755Z</time></trkpt><trkpt lat="44.17841" lon="11.4107117"><ele>552.0</ele><time>2026-04-18T09:12:37.756Z</time></trkpt><trkpt lat="44.1783417" lon="11.4107117"><ele>552.0</ele><time>2026-04-18T09:12:38.756Z</time></trkpt><trkpt lat="44.1782417" lon="11.4106933"><ele>552.0</ele><time>2026-04-18T09:12:40.756Z</time></trkpt><trkpt lat="44.1781483" lon="11.4106983"><ele>552.0</ele><time>2026-04-18T09:12:42.755Z</time></trkpt><trkpt lat="44.1780683" lon="11.410765"><ele>551.4</ele><time>2026-04-18T09:12:44.755Z</time></trkpt><trkpt lat="44.1780083" lon="11.4108317"><ele>550.8000000000001</ele><time>2026-04-18T09:12:46.755Z</time></trkpt><trkpt lat="44.1779283" lon="11.4108217"><ele>550.2</ele><time>2026-04-18T09:12:48.755Z</time></trkpt><trkpt lat="44.1778467" lon="11.41078"><ele>549.6</ele><time>2026-04-18T09:12:50.755Z</time></trkpt><trkpt lat="44.17773" lon="11.4107233"><ele>549.0</ele><time>2026-04-18T09:12:52.755Z</time></trkpt><trkpt lat="44.17763" lon="11.4106867"><ele>549.0</ele><time>2026-04-18T09:12:54.756Z</time></trkpt><trkpt lat="44.1775283" lon="11.4106617"><ele>549.0</ele><time>2026-04-18T09:12:56.756Z</time></trkpt><trkpt lat="44.1774367" lon="11.4106233"><ele>549.0</ele><time>2026-04-18T09:12:58.755Z</time></trkpt><trkpt lat="44.1773267" lon="11.4106067"><ele>549.0</ele><time>2026-04-18T09:13:00.756Z</time></trkpt><trkpt lat="44.1772617" lon="11.41061"><ele>549.0</ele><time>2026-04-18T09:13:01.755Z</time></trkpt><trkpt lat="44.1771883" lon="11.4106233"><ele>549.0</ele><time>2026-04-18T09:13:02.755Z</time></trkpt><trkpt lat="44.1771133" lon="11.410655"><ele>547.0</ele><time>2026-04-18T09:13:03.755Z</time></trkpt><trkpt lat="44.1770383" lon="11.4106983"><ele>545.0</ele><time>2026-04-18T09:13:04.755Z</time></trkpt><trkpt lat="44.1769683" lon="11.410735"><ele>543.0</ele><time>2026-04-18T09:13:05.755Z</time></trkpt><trkpt lat="44.1768533" lon="11.41076"><ele>541.0</ele><time>2026-04-18T09:13:07.756Z</time></trkpt><trkpt lat="44.176775" lon="11.410695"><ele>539.0</ele><time>2026-04-18T09:13:09.756Z</time></trkpt><trkpt lat="44.17678" lon="11.4105367"><ele>536.6</ele><time>2026-04-18T09:13:11.756Z</time></trkpt><trkpt lat="44.1768483" lon="11.4104017"><ele>534.2</ele><time>2026-04-18T09:13:13.755Z</time></trkpt><trkpt lat="44.1768983" lon="11.4103433"><ele>531.8000000000001</ele><time>2026-04-18T09:13:14.756Z</time></trkpt><trkpt lat="44.176995" lon="11.4102333"><ele>529.4</ele><time>2026-04-18T09:13:16.756Z</time></trkpt><trkpt lat="44.1770883" lon="11.410125"><ele>527.0</ele><time>2026-04-18T09:13:18.755Z</time></trkpt><trkpt lat="44.1771483" lon="11.410065"><ele>527.0</ele><time>2026-04-18T09:13:19.755Z</time></trkpt><trkpt lat="44.177215" lon="11.41001"><ele>527.0</ele><time>2026-04-18T09:13:20.755Z</time></trkpt><trkpt lat="44.1772767" lon="11.4099633"><ele>527.0</ele><time>2026-04-18T09:13:21.755Z</time></trkpt><trkpt lat="44.1773783" lon="11.4099233"><ele>527.0</ele><time>2026-04-18T09:13:23.755Z</time></trkpt><trkpt lat="44.1774733" lon="11.4099117"><ele>527.0</ele><time>2026-04-18T09:13:25.754Z</time></trkpt><trkpt lat="44.1775817" lon="11.4098933"><ele>528.1666666666666</ele><time>2026-04-18T09:13:27.754Z</time></trkpt><trkpt lat="44.17768" lon="11.4098883"><ele>529.3333333333333</ele><time>2026-04-18T09:13:29.755Z</time></trkpt><trkpt lat="44.17777" lon="11.4098883"><ele>530.5</ele><time>2026-04-18T09:13:31.754Z</time></trkpt><trkpt lat="44.17785" lon="11.4098617"><ele>531.6666666666666</ele><time>2026-04-18T09:13:33.755Z</time></trkpt><trkpt lat="44.17793" lon="11.4098133"><ele>532.8333333333334</ele><time>2026-04-18T09:13:35.754Z</time></trkpt><trkpt lat="44.1779983" lon="11.4097583"><ele>534.0</ele><time>2026-04-18T09:13:37.755Z</time></trkpt><trkpt lat="44.178045" lon="11.4096417"><ele>529.75</ele><time>2026-04-18T09:13:39.754Z</time></trkpt><trkpt lat="44.1781033" lon="11.409495"><ele>525.5</ele><time>2026-04-18T09:13:41.755Z</time></trkpt><trkpt lat="44.178175" lon="11.4093533"><ele>521.25</ele><time>2026-04-18T09:13:43.755Z</time></trkpt><trkpt lat="44.178245" lon="11.4092317"><ele>517.0</ele><time>2026-04-18T09:13:45.754Z</time></trkpt><trkpt lat="44.1783517" lon="11.4091667"><ele>517.0</ele><time>2026-04-18T09:13:47.754Z</time></trkpt><trkpt lat="44.178425" lon="11.409165"><ele>517.0</ele><time>2026-04-18T09:13:48.754Z</time></trkpt><trkpt lat="44.1784983" lon="11.4091817"><ele>517.0</ele><time>2026-04-18T09:13:49.755Z</time></trkpt><trkpt lat="44.178565" lon="11.4092067"><ele>517.0</ele><time>2026-04-18T09:13:50.755Z</time></trkpt><trkpt lat="44.1786317" lon="11.4092333"><ele>517.0</ele><time>2026-04-18T09:13:51.754Z</time></trkpt><trkpt lat="44.1786933" lon="11.4092733"><ele>517.0</ele><time>2026-04-18T09:13:52.754Z</time></trkpt><trkpt lat="44.1787467" lon="11.4093217"><ele>517.0</ele><time>2026-04-18T09:13:53.754Z</time></trkpt><trkpt lat="44.1788033" lon="11.4093683"><ele>517.0</ele><time>2026-04-18T09:13:54.755Z</time></trkpt><trkpt lat="44.17891" lon="11.4094067"><ele>517.0</ele><time>2026-04-18T09:13:56.754Z</time></trkpt><trkpt lat="44.179035" lon="11.4093533"><ele>517.0</ele><time>2026-04-18T09:13:58.755Z</time></trkpt><trkpt lat="44.1790983" lon="11.4093033"><ele>517.0</ele><time>2026-04-18T09:13:59.754Z</time></trkpt><trkpt lat="44.1791483" lon="11.4092433"><ele>517.0</ele><time>2026-04-18T09:14:00.754Z</time></trkpt><trkpt lat="44.179235" lon="11.40912"><ele>517.6</ele><time>2026-04-18T09:14:02.754Z</time></trkpt><trkpt lat="44.1792683" lon="11.4090133"><ele>518.2</ele><time>2026-04-18T09:14:03.754Z</time></trkpt><trkpt lat="44.1793033" lon="11.4088717"><ele>518.8</ele><time>2026-04-18T09:14:04.754Z</time></trkpt><trkpt lat="44.1793517" lon="11.4087083"><ele>519.4</ele><time>2026-04-18T09:14:05.754Z</time></trkpt><trkpt lat="44.1793983" lon="11.4085533"><ele>520.0</ele><time>2026-04-18T09:14:06.755Z</time></trkpt><trkpt lat="44.1794433" lon="11.4084217"><ele>518.8</ele><time>2026-04-18T09:14:07.754Z</time></trkpt><trkpt lat="44.1794883" lon="11.4083017"><ele>517.6</ele><time>2026-04-18T09:14:08.755Z</time></trkpt><trkpt lat="44.1795267" lon="11.4081933"><ele>516.4</ele><time>2026-04-18T09:14:09.755Z</time></trkpt><trkpt lat="44.1795633" lon="11.40809"><ele>515.2</ele><time>2026-04-18T09:14:10.755Z</time></trkpt><trkpt lat="44.1795967" lon="11.4079733"><ele>514.0</ele><time>2026-04-18T09:14:11.754Z</time></trkpt><trkpt lat="44.1796333" lon="11.4078533"><ele>513.3333333333334</ele><time>2026-04-18T09:14:12.754Z</time></trkpt><trkpt lat="44.17967" lon="11.40774"><ele>512.6666666666667</ele><time>2026-04-18T09:14:13.754Z</time></trkpt><trkpt lat="44.1797067" lon="11.407635"><ele>512.0</ele><time>2026-04-18T09:14:14.754Z</time></trkpt><trkpt lat="44.17974" lon="11.407535"><ele>511.33333333333337</ele><time>2026-04-18T09:14:15.754Z</time></trkpt><trkpt lat="44.179755" lon="11.40743"><ele>510.6666666666667</ele><time>2026-04-18T09:14:16.754Z</time></trkpt><trkpt lat="44.179755" lon="11.4073317"><ele>510.0</ele><time>2026-04-18T09:14:17.755Z</time></trkpt><trkpt lat="44.1797467" lon="11.4072133"><ele>509.75</ele><time>2026-04-18T09:14:18.755Z</time></trkpt><trkpt lat="44.17972" lon="11.407075"><ele>509.5</ele><time>2026-04-18T09:14:19.755Z</time></trkpt><trkpt lat="44.1796817" lon="11.4069033"><ele>509.25</ele><time>2026-04-18T09:14:20.754Z</time></trkpt><trkpt lat="44.1796483" lon="11.40673"><ele>509.0</ele><time>2026-04-18T09:14:21.755Z</time></trkpt><trkpt lat="44.1796317" lon="11.40657"><ele>509.0</ele><time>2026-04-18T09:14:22.755Z</time></trkpt><trkpt lat="44.1796017" lon="11.4064183"><ele>509.0</ele><time>2026-04-18T09:14:23.755Z</time></trkpt><trkpt lat="44.1795667" lon="11.40627"><ele>509.0</ele><time>2026-04-18T09:14:24.754Z</time></trkpt><trkpt lat="44.1795383" lon="11.406105"><ele>509.0</ele><time>2026-04-18T09:14:25.754Z</time></trkpt><trkpt lat="44.1795083" lon="11.40594"><ele>509.3333333333333</ele><time>2026-04-18T09:14:26.754Z</time></trkpt><trkpt lat="44.1794817" lon="11.4057883"><ele>509.66666666666663</ele><time>2026-04-18T09:14:27.754Z</time></trkpt><trkpt lat="44.17946" lon="11.4056617"><ele>510.0</ele><time>2026-04-18T09:14:28.754Z</time></trkpt><trkpt lat="44.1794467" lon="11.4055583"><ele>510.33333333333337</ele><time>2026-04-18T09:14:29.755Z</time></trkpt><trkpt lat="44.1794317" lon="11.4054683"><ele>510.6666666666667</ele><time>2026-04-18T09:14:30.755Z</time></trkpt><trkpt lat="44.17944" lon="11.405365"><ele>511.0</ele><time>2026-04-18T09:14:33.755Z</time></trkpt><trkpt lat="44.1794517" lon="11.4052483"><ele>511.20000000000005</ele><time>2026-04-18T09:14:37.754Z</time></trkpt><trkpt lat="44.179465" lon="11.40514"><ele>511.40000000000003</ele><time>2026-04-18T09:14:39.754Z</time></trkpt><trkpt lat="44.179475" lon="11.4050017"><ele>511.6</ele><time>2026-04-18T09:14:41.754Z</time></trkpt><trkpt lat="44.1794967" lon="11.40485"><ele>511.8</ele><time>2026-04-18T09:14:43.754Z</time></trkpt><trkpt lat="44.1795317" lon="11.404685"><ele>512.0</ele><time>2026-04-18T09:14:45.754Z</time></trkpt><trkpt lat="44.1795533" lon="11.4045983"><ele>512.0</ele><time>2026-04-18T09:14:46.754Z</time></trkpt><trkpt lat="44.1795667" lon="11.40451"><ele>511.99999999999994</ele><time>2026-04-18T09:14:47.754Z</time></trkpt><trkpt lat="44.179585" lon="11.4044167"><ele>512.0</ele><time>2026-04-18T09:14:48.754Z</time></trkpt><trkpt lat="44.1796" lon="11.4043183"><ele>512.0</ele><time>2026-04-18T09:14:49.755Z</time></trkpt><trkpt lat="44.1796133" lon="11.4042233"><ele>511.99999999999994</ele><time>2026-04-18T09:14:50.754Z</time></trkpt><trkpt lat="44.1796317" lon="11.4041333"><ele>512.0</ele><time>2026-04-18T09:14:51.754Z</time></trkpt><trkpt lat="44.1796533" lon="11.404035"><ele>512.0</ele><time>2026-04-18T09:14:52.754Z</time></trkpt><trkpt lat="44.1796817" lon="11.4039333"><ele>511.49999999999994</ele><time>2026-04-18T09:14:53.754Z</time></trkpt><trkpt lat="44.179705" lon="11.40383"><ele>511.0</ele><time>2026-04-18T09:14:54.755Z</time></trkpt><trkpt lat="44.1797383" lon="11.4037183"><ele>510.5</ele><time>2026-04-18T09:14:55.755Z</time></trkpt><trkpt lat="44.1797733" lon="11.403615"><ele>510.0</ele><time>2026-04-18T09:14:56.754Z</time></trkpt><trkpt lat="44.179815" lon="11.4035067"><ele>509.49999999999994</ele><time>2026-04-18T09:14:57.754Z</time></trkpt><trkpt lat="44.179855" lon="11.40339"><ele>509.0</ele><time>2026-04-18T09:14:58.755Z</time></trkpt><trkpt lat="44.179885" lon="11.4032783"><ele>511.6</ele><time>2026-04-18T09:14:59.754Z</time></trkpt><trkpt lat="44.1799117" lon="11.4031533"><ele>514.2</ele><time>2026-04-18T09:15:00.755Z</time></trkpt><trkpt lat="44.1799317" lon="11.4030033"><ele>516.8000000000001</ele><time>2026-04-18T09:15:01.755Z</time></trkpt><trkpt lat="44.179955" lon="11.4028433"><ele>519.4</ele><time>2026-04-18T09:15:02.754Z</time></trkpt><trkpt lat="44.179975" lon="11.4026967"><ele>522.0</ele><time>2026-04-18T09:15:03.754Z</time></trkpt><trkpt lat="44.1800017" lon="11.4025767"><ele>522.0</ele><time>2026-04-18T09:15:04.754Z</time></trkpt><trkpt lat="44.1800283" lon="11.4024683"><ele>522.0</ele><time>2026-04-18T09:15:05.754Z</time></trkpt><trkpt lat="44.180045" lon="11.4023667"><ele>522.0</ele><time>2026-04-18T09:15:06.754Z</time></trkpt><trkpt lat="44.1800283" lon="11.402245"><ele>522.0</ele><time>2026-04-18T09:15:08.754Z</time></trkpt><trkpt lat="44.1799467" lon="11.4021767"><ele>522.0</ele><time>2026-04-18T09:15:11.755Z</time></trkpt><trkpt lat="44.1798767" lon="11.402185"><ele>522.0</ele><time>2026-04-18T09:15:13.755Z</time></trkpt><trkpt lat="44.1798117" lon="11.4022133"><ele>523.0</ele><time>2026-04-18T09:15:15.754Z</time></trkpt><trkpt lat="44.1797133" lon="11.4022767"><ele>524.0</ele><time>2026-04-18T09:15:17.754Z</time></trkpt><trkpt lat="44.1795817" lon="11.4022967"><ele>525.0</ele><time>2026-04-18T09:15:19.755Z</time></trkpt><trkpt lat="44.1795133" lon="11.4022833"><ele>526.0</ele><time>2026-04-18T09:15:20.754Z</time></trkpt><trkpt lat="44.1794433" lon="11.4022567"><ele>527.0</ele><time>2026-04-18T09:15:21.755Z</time></trkpt><trkpt lat="44.1793833" lon="11.4022183"><ele>528.0</ele><time>2026-04-18T09:15:22.754Z</time></trkpt><trkpt lat="44.1792933" lon="11.40213"><ele>528.0</ele><time>2026-04-18T09:15:24.754Z</time></trkpt><trkpt lat="44.1792233" lon="11.40205"><ele>528.0</ele><time>2026-04-18T09:15:26.754Z</time></trkpt><trkpt lat="44.1791133" lon="11.402015"><ele>528.0</ele><time>2026-04-18T09:15:28.755Z</time></trkpt><trkpt lat="44.1789967" lon="11.4019717"><ele>528.0</ele><time>2026-04-18T09:15:30.754Z</time></trkpt><trkpt lat="44.1788933" lon="11.401885"><ele>528.0</ele><time>2026-04-18T09:15:32.755Z</time></trkpt><trkpt lat="44.1788367" lon="11.4018267"><ele>526.5</ele><time>2026-04-18T09:15:33.754Z</time></trkpt><trkpt lat="44.17877" lon="11.4017517"><ele>525.0</ele><time>2026-04-18T09:15:34.755Z</time></trkpt><trkpt lat="44.178695" lon="11.4016633"><ele>523.5</ele><time>2026-04-18T09:15:35.754Z</time></trkpt><trkpt lat="44.1786217" lon="11.40158"><ele>522.0</ele><time>2026-04-18T09:15:36.755Z</time></trkpt><trkpt lat="44.178555" lon="11.4015067"><ele>520.5</ele><time>2026-04-18T09:15:37.754Z</time></trkpt><trkpt lat="44.1784983" lon="11.4014483"><ele>519.0</ele><time>2026-04-18T09:15:38.755Z</time></trkpt><trkpt lat="44.1784483" lon="11.4013817"><ele>518.4285714285714</ele><time>2026-04-18T09:15:39.754Z</time></trkpt><trkpt lat="44.1784033" lon="11.4013083"><ele>517.8571428571428</ele><time>2026-04-18T09:15:40.755Z</time></trkpt><trkpt lat="44.1783583" lon="11.4012183"><ele>517.2857142857142</ele><time>2026-04-18T09:15:41.754Z</time></trkpt><trkpt lat="44.17832" lon="11.4011233"><ele>516.7142857142857</ele><time>2026-04-18T09:15:42.754Z</time></trkpt><trkpt lat="44.1782867" lon="11.4010383"><ele>516.1428571428571</ele><time>2026-04-18T09:15:43.754Z</time></trkpt><trkpt lat="44.1782467" lon="11.40095"><ele>515.5714285714286</ele><time>2026-04-18T09:15:44.754Z</time></trkpt><trkpt lat="44.1782117" lon="11.4008683"><ele>515.0</ele><time>2026-04-18T09:15:45.755Z</time></trkpt><trkpt lat="44.1781533" lon="11.4007383"><ele>515.0</ele><time>2026-04-18T09:15:47.754Z</time></trkpt><trkpt lat="44.1781117" lon="11.400655"><ele>515.0</ele><time>2026-04-18T09:15:49.754Z</time></trkpt><trkpt lat="44.1780817" lon="11.4005667"><ele>515.0</ele><time>2026-04-18T09:15:52.754Z</time></trkpt><trkpt lat="44.17804" lon="11.4004717"><ele>515.0</ele><time>2026-04-18T09:15:54.754Z</time></trkpt><trkpt lat="44.1779933" lon="11.4003817"><ele>515.0</ele><time>2026-04-18T09:15:56.754Z</time></trkpt><trkpt lat="44.1779233" lon="11.4002983"><ele>515.0</ele><time>2026-04-18T09:15:58.754Z</time></trkpt><trkpt lat="44.1778267" lon="11.4002233"><ele>514.2</ele><time>2026-04-18T09:16:00.754Z</time></trkpt><trkpt lat="44.1777233" lon="11.4001667"><ele>513.4</ele><time>2026-04-18T09:16:02.755Z</time></trkpt><trkpt lat="44.1776267" lon="11.40011"><ele>512.6</ele><time>2026-04-18T09:16:04.754Z</time></trkpt><trkpt lat="44.17754" lon="11.4000417"><ele>511.8</ele><time>2026-04-18T09:16:06.754Z</time></trkpt><trkpt lat="44.1774383" lon="11.3999567"><ele>511.0</ele><time>2026-04-18T09:16:08.754Z</time></trkpt><trkpt lat="44.1773383" lon="11.3998717"><ele>511.0</ele><time>2026-04-18T09:16:10.755Z</time></trkpt><trkpt lat="44.177235" lon="11.399805"><ele>511.0</ele><time>2026-04-18T09:16:12.755Z</time></trkpt><trkpt lat="44.17714" lon="11.3997417"><ele>511.0</ele><time>2026-04-18T09:16:14.755Z</time></trkpt><trkpt lat="44.1770567" lon="11.3996683"><ele>511.0</ele><time>2026-04-18T09:16:16.754Z</time></trkpt><trkpt lat="44.1769917" lon="11.3995683"><ele>511.0</ele><time>2026-04-18T09:16:18.754Z</time></trkpt><trkpt lat="44.1769633" lon="11.3994267"><ele>511.33333333333337</ele><time>2026-04-18T09:16:20.755Z</time></trkpt><trkpt lat="44.1769767" lon="11.3992717"><ele>511.6666666666667</ele><time>2026-04-18T09:16:22.754Z</time></trkpt><trkpt lat="44.1769983" lon="11.3991883"><ele>512.0</ele><time>2026-04-18T09:16:23.754Z</time></trkpt><trkpt lat="44.177035" lon="11.399115"><ele>512.3333333333334</ele><time>2026-04-18T09:16:24.754Z</time></trkpt><trkpt lat="44.1770717" lon="11.3990433"><ele>512.6666666666666</ele><time>2026-04-18T09:16:25.755Z</time></trkpt><trkpt lat="44.17715" lon="11.39894"><ele>513.0</ele><time>2026-04-18T09:16:27.755Z</time></trkpt><trkpt lat="44.1772433" lon="11.3988433"><ele>512.75</ele><time>2026-04-18T09:16:29.754Z</time></trkpt><trkpt lat="44.1773333" lon="11.3987367"><ele>512.5</ele><time>2026-04-18T09:16:31.754Z</time></trkpt><trkpt lat="44.1774283" lon="11.398625"><ele>512.25</ele><time>2026-04-18T09:16:33.753Z</time></trkpt><trkpt lat="44.177505" lon="11.3985017"><ele>512.0</ele><time>2026-04-18T09:16:35.753Z</time></trkpt><trkpt lat="44.1775233" lon="11.3983583"><ele>516.5</ele><time>2026-04-18T09:16:37.753Z</time></trkpt><trkpt lat="44.1775083" lon="11.3982133"><ele>521.0</ele><time>2026-04-18T09:16:39.753Z</time></trkpt><trkpt lat="44.17749" lon="11.3980567"><ele>525.5</ele><time>2026-04-18T09:16:41.753Z</time></trkpt><trkpt lat="44.1774833" lon="11.3979517"><ele>530.0</ele><time>2026-04-18T09:16:42.754Z</time></trkpt><trkpt lat="44.17748" lon="11.3978467"><ele>534.5</ele><time>2026-04-18T09:16:43.753Z</time></trkpt><trkpt lat="44.17748" lon="11.3977383"><ele>539.0</ele><time>2026-04-18T09:16:44.753Z</time></trkpt><trkpt lat="44.1774767" lon="11.3976483"><ele>540.8</ele><time>2026-04-18T09:16:45.753Z</time></trkpt><trkpt lat="44.1774267" lon="11.3975117"><ele>542.5999999999999</ele><time>2026-04-18T09:16:47.753Z</time></trkpt><trkpt lat="44.1773267" lon="11.3974117"><ele>544.4</ele><time>2026-04-18T09:16:49.753Z</time></trkpt><trkpt lat="44.1772533" lon="11.39738"><ele>546.1999999999999</ele><time>2026-04-18T09:16:50.754Z</time></trkpt><trkpt lat="44.177195" lon="11.3973383"><ele>548.0</ele><time>2026-04-18T09:16:51.754Z</time></trkpt><trkpt lat="44.1771117" lon="11.397215"><ele>544.8333333333333</ele><time>2026-04-18T09:16:53.753Z</time></trkpt><trkpt lat="44.17708" lon="11.3971133"><ele>541.6666666666666</ele><time>2026-04-18T09:16:54.753Z</time></trkpt><trkpt lat="44.1770483" lon="11.3969867"><ele>538.5</ele><time>2026-04-18T09:16:55.753Z</time></trkpt><trkpt lat="44.1770167" lon="11.3968683"><ele>535.3333333333334</ele><time>2026-04-18T09:16:56.753Z</time></trkpt><trkpt lat="44.1769733" lon="11.3967617"><ele>532.1666666666667</ele><time>2026-04-18T09:16:57.753Z</time></trkpt><trkpt lat="44.1769183" lon="11.3966533"><ele>529.0</ele><time>2026-04-18T09:16:58.753Z</time></trkpt><trkpt lat="44.1768767" lon="11.39655"><ele>529.0</ele><time>2026-04-18T09:16:59.754Z</time></trkpt><trkpt lat="44.1768383" lon="11.3964533"><ele>529.0</ele><time>2026-04-18T09:17:00.753Z</time></trkpt><trkpt lat="44.17681" lon="11.39636"><ele>529.0</ele><time>2026-04-18T09:17:01.753Z</time></trkpt><trkpt lat="44.1768017" lon="11.3962617"><ele>529.0</ele><time>2026-04-18T09:17:02.754Z</time></trkpt><trkpt lat="44.1767933" lon="11.39615"><ele>529.0</ele><time>2026-04-18T09:17:03.753Z</time></trkpt><trkpt lat="44.1767933" lon="11.3960217"><ele>529.0</ele><time>2026-04-18T09:17:04.753Z</time></trkpt><trkpt lat="44.1768017" lon="11.395895"><ele>529.5714285714286</ele><time>2026-04-18T09:17:05.753Z</time></trkpt><trkpt lat="44.176815" lon="11.3957717"><ele>530.1428571428571</ele><time>2026-04-18T09:17:06.753Z</time></trkpt><trkpt lat="44.17682" lon="11.3956583"><ele>530.7142857142857</ele><time>2026-04-18T09:17:07.754Z</time></trkpt><trkpt lat="44.1768133" lon="11.3955617"><ele>531.2857142857142</ele><time>2026-04-18T09:17:08.754Z</time></trkpt><trkpt lat="44.176805" lon="11.3954617"><ele>531.8571428571428</ele><time>2026-04-18T09:17:09.753Z</time></trkpt><trkpt lat="44.1767817" lon="11.39537"><ele>532.4285714285714</ele><time>2026-04-18T09:17:10.754Z</time></trkpt><trkpt lat="44.17677" lon="11.39528"><ele>533.0</ele><time>2026-04-18T09:17:11.753Z</time></trkpt><trkpt lat="44.17679" lon="11.3951233"><ele>533.0</ele><time>2026-04-18T09:17:13.754Z</time></trkpt><trkpt lat="44.17683" lon="11.3950517"><ele>533.0</ele><time>2026-04-18T09:17:14.753Z</time></trkpt><trkpt lat="44.176875" lon="11.3949883"><ele>533.0</ele><time>2026-04-18T09:17:15.753Z</time></trkpt><trkpt lat="44.1769317" lon="11.394925"><ele>533.0</ele><time>2026-04-18T09:17:16.754Z</time></trkpt><trkpt lat="44.1769967" lon="11.3948583"><ele>533.0</ele><time>2026-04-18T09:17:17.753Z</time></trkpt><trkpt lat="44.1770583" lon="11.3947983"><ele>533.0</ele><time>2026-04-18T09:17:18.754Z</time></trkpt><trkpt lat="44.1771267" lon="11.394735"><ele>533.0</ele><time>2026-04-18T09:17:19.753Z</time></trkpt><trkpt lat="44.1772017" lon="11.3946733"><ele>533.4</ele><time>2026-04-18T09:17:20.753Z</time></trkpt><trkpt lat="44.1772867" lon="11.394615"><ele>533.8</ele><time>2026-04-18T09:17:21.754Z</time></trkpt><trkpt lat="44.1773783" lon="11.3945583"><ele>534.2</ele><time>2026-04-18T09:17:22.753Z</time></trkpt><trkpt lat="44.1774533" lon="11.394505"><ele>534.6</ele><time>2026-04-18T09:17:23.753Z</time></trkpt><trkpt lat="44.1775333" lon="11.3944117"><ele>535.0</ele><time>2026-04-18T09:17:25.753Z</time></trkpt><trkpt lat="44.1775367" lon="11.3942817"><ele>538.0</ele><time>2026-04-18T09:17:27.753Z</time></trkpt><trkpt lat="44.1775267" lon="11.3941917"><ele>541.0</ele><time>2026-04-18T09:17:28.753Z</time></trkpt><trkpt lat="44.1775117" lon="11.3940967"><ele>544.0</ele><time>2026-04-18T09:17:29.754Z</time></trkpt><trkpt lat="44.1775" lon="11.39401"><ele>547.0</ele><time>2026-04-18T09:17:30.754Z</time></trkpt><trkpt lat="44.177495" lon="11.3939067"><ele>550.0</ele><time>2026-04-18T09:17:31.753Z</time></trkpt><trkpt lat="44.1774917" lon="11.3937883"><ele>553.0</ele><time>2026-04-18T09:17:32.753Z</time></trkpt><trkpt lat="44.177485" lon="11.3936517"><ele>553.75</ele><time>2026-04-18T09:17:33.754Z</time></trkpt><trkpt lat="44.1774733" lon="11.393495"><ele>554.5</ele><time>2026-04-18T09:17:34.753Z</time></trkpt><trkpt lat="44.1774483" lon="11.3933333"><ele>555.25</ele><time>2026-04-18T09:17:35.753Z</time></trkpt><trkpt lat="44.1774233" lon="11.393185"><ele>556.0</ele><time>2026-04-18T09:17:36.753Z</time></trkpt><trkpt lat="44.1774067" lon="11.393025"><ele>555.25</ele><time>2026-04-18T09:17:37.753Z</time></trkpt><trkpt lat="44.1773967" lon="11.3928467"><ele>554.5</ele><time>2026-04-18T09:17:38.753Z</time></trkpt><trkpt lat="44.17738" lon="11.39266"><ele>553.75</ele><time>2026-04-18T09:17:39.754Z</time></trkpt><trkpt lat="44.1773717" lon="11.3924817"><ele>553.0</ele><time>2026-04-18T09:17:40.753Z</time></trkpt><trkpt lat="44.1773617" lon="11.3922917"><ele>551.0</ele><time>2026-04-18T09:17:41.753Z</time></trkpt><trkpt lat="44.1773383" lon="11.392115"><ele>549.0</ele><time>2026-04-18T09:17:42.753Z</time></trkpt><trkpt lat="44.1773083" lon="11.39196"><ele>547.0</ele><time>2026-04-18T09:17:43.754Z</time></trkpt><trkpt lat="44.1772733" lon="11.3918117"><ele>545.0</ele><time>2026-04-18T09:17:44.753Z</time></trkpt><trkpt lat="44.1772417" lon="11.3916483"><ele>545.0</ele><time>2026-04-18T09:17:45.753Z</time></trkpt><trkpt lat="44.1772017" lon="11.3914667"><ele>545.0</ele><time>2026-04-18T09:17:46.754Z</time></trkpt><trkpt lat="44.1771617" lon="11.3912933"><ele>545.0</ele><time>2026-04-18T09:17:47.753Z</time></trkpt><trkpt lat="44.1771233" lon="11.3911517"><ele>545.0</ele><time>2026-04-18T09:17:48.753Z</time></trkpt><trkpt lat="44.1770733" lon="11.3910367"><ele>545.3333333333333</ele><time>2026-04-18T09:17:49.754Z</time></trkpt><trkpt lat="44.1770183" lon="11.3909483"><ele>545.6666666666666</ele><time>2026-04-18T09:17:50.754Z</time></trkpt><trkpt lat="44.1769567" lon="11.3908633"><ele>546.0</ele><time>2026-04-18T09:17:51.753Z</time></trkpt><trkpt lat="44.1769033" lon="11.390785"><ele>546.3333333333334</ele><time>2026-04-18T09:17:52.753Z</time></trkpt><trkpt lat="44.17685" lon="11.3907083"><ele>546.6666666666667</ele><time>2026-04-18T09:17:53.753Z</time></trkpt><trkpt lat="44.1767967" lon="11.3906333"><ele>547.0</ele><time>2026-04-18T09:17:54.753Z</time></trkpt><trkpt lat="44.1767333" lon="11.3905583"><ele>546.8333333333334</ele><time>2026-04-18T09:17:55.753Z</time></trkpt><trkpt lat="44.1766717" lon="11.3905017"><ele>546.6666666666667</ele><time>2026-04-18T09:17:56.754Z</time></trkpt><trkpt lat="44.1766133" lon="11.3904567"><ele>546.5</ele><time>2026-04-18T09:17:57.754Z</time></trkpt><trkpt lat="44.17654" lon="11.3904183"><ele>546.3333333333334</ele><time>2026-04-18T09:17:58.753Z</time></trkpt><trkpt lat="44.1764633" lon="11.3903883"><ele>546.1666666666666</ele><time>2026-04-18T09:17:59.753Z</time></trkpt><trkpt lat="44.1763883" lon="11.3903667"><ele>546.0</ele><time>2026-04-18T09:18:00.754Z</time></trkpt><trkpt lat="44.1763017" lon="11.39036"><ele>546.0</ele><time>2026-04-18T09:18:01.754Z</time></trkpt><trkpt lat="44.1762267" lon="11.3903633"><ele>546.0</ele><time>2026-04-18T09:18:02.754Z</time></trkpt><trkpt lat="44.17615" lon="11.3903633"><ele>546.0</ele><time>2026-04-18T09:18:03.754Z</time></trkpt><trkpt lat="44.176075" lon="11.3903567"><ele>546.0</ele><time>2026-04-18T09:18:04.753Z</time></trkpt><trkpt lat="44.1759933" lon="11.3903433"><ele>546.0</ele><time>2026-04-18T09:18:05.753Z</time></trkpt><trkpt lat="44.175905" lon="11.39031"><ele>546.0</ele><time>2026-04-18T09:18:06.753Z</time></trkpt><trkpt lat="44.1758133" lon="11.3902833"><ele>546.0</ele><time>2026-04-18T09:18:07.754Z</time></trkpt><trkpt lat="44.1757267" lon="11.39025"><ele>546.0</ele><time>2026-04-18T09:18:08.754Z</time></trkpt><trkpt lat="44.175645" lon="11.390205"><ele>546.0</ele><time>2026-04-18T09:18:09.753Z</time></trkpt><trkpt lat="44.1755883" lon="11.3901283"><ele>546.0</ele><time>2026-04-18T09:18:10.753Z</time></trkpt><trkpt lat="44.1755517" lon="11.39003"><ele>546.0</ele><time>2026-04-18T09:18:11.753Z</time></trkpt><trkpt lat="44.1755217" lon="11.389935"><ele>546.0</ele><time>2026-04-18T09:18:12.753Z</time></trkpt><trkpt lat="44.1754917" lon="11.38983"><ele>544.1428571428571</ele><time>2026-04-18T09:18:13.753Z</time></trkpt><trkpt lat="44.1754533" lon="11.3897483"><ele>542.2857142857142</ele><time>2026-04-18T09:18:14.753Z</time></trkpt><trkpt lat="44.1754083" lon="11.38967"><ele>540.4285714285714</ele><time>2026-04-18T09:18:15.753Z</time></trkpt><trkpt lat="44.17535" lon="11.3896117"><ele>538.5714285714286</ele><time>2026-04-18T09:18:16.753Z</time></trkpt><trkpt lat="44.1752817" lon="11.3895633"><ele>536.7142857142857</ele><time>2026-04-18T09:18:17.753Z</time></trkpt><trkpt lat="44.175215" lon="11.3895183"><ele>534.8571428571429</ele><time>2026-04-18T09:18:18.753Z</time></trkpt><trkpt lat="44.1751533" lon="11.3894733"><ele>533.0</ele><time>2026-04-18T09:18:19.753Z</time></trkpt><trkpt lat="44.1750917" lon="11.3894267"><ele>533.0</ele><time>2026-04-18T09:18:20.753Z</time></trkpt><trkpt lat="44.1750383" lon="11.3893767"><ele>533.0</ele><time>2026-04-18T09:18:21.754Z</time></trkpt><trkpt lat="44.1749783" lon="11.389325"><ele>533.0</ele><time>2026-04-18T09:18:22.753Z</time></trkpt><trkpt lat="44.17491" lon="11.38928"><ele>533.0</ele><time>2026-04-18T09:18:23.753Z</time></trkpt><trkpt lat="44.1748467" lon="11.38923"><ele>533.0</ele><time>2026-04-18T09:18:24.753Z</time></trkpt><trkpt lat="44.17478" lon="11.389175"><ele>533.0</ele><time>2026-04-18T09:18:25.753Z</time></trkpt><trkpt lat="44.1747217" lon="11.3891233"><ele>533.0</ele><time>2026-04-18T09:18:26.753Z</time></trkpt><trkpt lat="44.17467" lon="11.3890717"><ele>528.8</ele><time>2026-04-18T09:18:27.753Z</time></trkpt><trkpt lat="44.1746167" lon="11.3890233"><ele>524.5999999999999</ele><time>2026-04-18T09:18:28.753Z</time></trkpt><trkpt lat="44.174495" lon="11.3889517"><ele>520.4000000000001</ele><time>2026-04-18T09:18:30.753Z</time></trkpt><trkpt lat="44.1744267" lon="11.3889283"><ele>516.2</ele><time>2026-04-18T09:18:31.754Z</time></trkpt><trkpt lat="44.17436" lon="11.3889083"><ele>512.0</ele><time>2026-04-18T09:18:32.753Z</time></trkpt><trkpt lat="44.1742483" lon="11.3888617"><ele>512.5</ele><time>2026-04-18T09:18:34.753Z</time></trkpt><trkpt lat="44.1741733" lon="11.388735"><ele>513.0</ele><time>2026-04-18T09:18:36.753Z</time></trkpt><trkpt lat="44.174135" lon="11.3885783"><ele>513.5</ele><time>2026-04-18T09:18:38.754Z</time></trkpt><trkpt lat="44.174095" lon="11.3884133"><ele>514.0</ele><time>2026-04-18T09:18:40.754Z</time></trkpt><trkpt lat="44.1740117" lon="11.38832"><ele>514.7142857142857</ele><time>2026-04-18T09:18:42.754Z</time></trkpt><trkpt lat="44.1739483" lon="11.3883133"><ele>515.4285714285714</ele><time>2026-04-18T09:18:43.753Z</time></trkpt><trkpt lat="44.1738817" lon="11.3883333"><ele>516.1428571428571</ele><time>2026-04-18T09:18:44.754Z</time></trkpt><trkpt lat="44.173815" lon="11.3883567"><ele>516.8571428571429</ele><time>2026-04-18T09:18:45.753Z</time></trkpt><trkpt lat="44.1737483" lon="11.3883767"><ele>517.5714285714286</ele><time>2026-04-18T09:18:46.753Z</time></trkpt><trkpt lat="44.1736783" lon="11.3883833"><ele>518.2857142857142</ele><time>2026-04-18T09:18:47.753Z</time></trkpt><trkpt lat="44.1736017" lon="11.388395"><ele>519.0</ele><time>2026-04-18T09:18:48.753Z</time></trkpt><trkpt lat="44.17351" lon="11.3884017"><ele>519.0</ele><time>2026-04-18T09:18:49.754Z</time></trkpt><trkpt lat="44.173405" lon="11.3884167"><ele>519.0</ele><time>2026-04-18T09:18:50.753Z</time></trkpt><trkpt lat="44.1732833" lon="11.3884333"><ele>519.0</ele><time>2026-04-18T09:18:51.753Z</time></trkpt><trkpt lat="44.1731717" lon="11.3884533"><ele>519.0</ele><time>2026-04-18T09:18:52.754Z</time></trkpt><trkpt lat="44.17307" lon="11.3884867"><ele>519.0</ele><time>2026-04-18T09:18:53.753Z</time></trkpt><trkpt lat="44.1729583" lon="11.388535"><ele>521.6</ele><time>2026-04-18T09:18:54.753Z</time></trkpt><trkpt lat="44.1728433" lon="11.3885917"><ele>524.2</ele><time>2026-04-18T09:18:55.754Z</time></trkpt><trkpt lat="44.172755" lon="11.3886233"><ele>526.8000000000001</ele><time>2026-04-18T09:18:56.754Z</time></trkpt><trkpt lat="44.1726733" lon="11.3886333"><ele>529.4</ele><time>2026-04-18T09:18:57.754Z</time></trkpt><trkpt lat="44.1726017" lon="11.3886583"><ele>532.0</ele><time>2026-04-18T09:18:58.753Z</time></trkpt><trkpt lat="44.172515" lon="11.3887517"><ele>532.0</ele><time>2026-04-18T09:19:00.753Z</time></trkpt><trkpt lat="44.1724683" lon="11.3888383"><ele>532.0</ele><time>2026-04-18T09:19:01.754Z</time></trkpt><trkpt lat="44.1724233" lon="11.3889283"><ele>532.0</ele><time>2026-04-18T09:19:02.754Z</time></trkpt><trkpt lat="44.1723633" lon="11.3890033"><ele>532.0</ele><time>2026-04-18T09:19:03.753Z</time></trkpt><trkpt lat="44.1722983" lon="11.3890733"><ele>532.0</ele><time>2026-04-18T09:19:04.754Z</time></trkpt><trkpt lat="44.1722233" lon="11.3891333"><ele>532.0</ele><time>2026-04-18T09:19:05.754Z</time></trkpt><trkpt lat="44.1721367" lon="11.3892"><ele>533.4</ele><time>2026-04-18T09:19:06.753Z</time></trkpt><trkpt lat="44.1720467" lon="11.3892617"><ele>534.8000000000001</ele><time>2026-04-18T09:19:07.754Z</time></trkpt><trkpt lat="44.1719683" lon="11.3892883"><ele>536.2</ele><time>2026-04-18T09:19:08.753Z</time></trkpt><trkpt lat="44.1719033" lon="11.3892983"><ele>537.6</ele><time>2026-04-18T09:19:09.754Z</time></trkpt><trkpt lat="44.171785" lon="11.3892667"><ele>539.0</ele><time>2026-04-18T09:19:11.753Z</time></trkpt><trkpt lat="44.1716867" lon="11.3891717"><ele>539.0</ele><time>2026-04-18T09:19:13.753Z</time></trkpt><trkpt lat="44.1716367" lon="11.3891067"><ele>539.0</ele><time>2026-04-18T09:19:14.753Z</time></trkpt><trkpt lat="44.1715717" lon="11.3889467"><ele>539.0</ele><time>2026-04-18T09:19:16.753Z</time></trkpt><trkpt lat="44.171535" lon="11.3888333"><ele>539.0</ele><time>2026-04-18T09:19:17.753Z</time></trkpt><trkpt lat="44.1714933" lon="11.3887083"><ele>539.0</ele><time>2026-04-18T09:19:18.754Z</time></trkpt><trkpt lat="44.1714233" lon="11.38856"><ele>542.75</ele><time>2026-04-18T09:19:19.753Z</time></trkpt><trkpt lat="44.1713433" lon="11.3884067"><ele>546.5</ele><time>2026-04-18T09:19:20.754Z</time></trkpt><trkpt lat="44.1712617" lon="11.3882567"><ele>550.25</ele><time>2026-04-18T09:19:21.754Z</time></trkpt><trkpt lat="44.17119" lon="11.3881417"><ele>554.0</ele><time>2026-04-18T09:19:22.753Z</time></trkpt><trkpt lat="44.1711233" lon="11.3880483"><ele>557.3333333333333</ele><time>2026-04-18T09:19:23.754Z</time></trkpt><trkpt lat="44.17107" lon="11.3879667"><ele>560.6666666666666</ele><time>2026-04-18T09:19:24.753Z</time></trkpt><trkpt lat="44.17102" lon="11.3878717"><ele>564.0</ele><time>2026-04-18T09:19:25.754Z</time></trkpt><trkpt lat="44.1709667" lon="11.3877883"><ele>567.3333333333334</ele><time>2026-04-18T09:19:26.753Z</time></trkpt><trkpt lat="44.1709183" lon="11.3877167"><ele>570.6666666666667</ele><time>2026-04-18T09:19:27.754Z</time></trkpt><trkpt lat="44.17085" lon="11.3876283"><ele>574.0</ele><time>2026-04-18T09:19:29.754Z</time></trkpt><trkpt lat="44.170775" lon="11.387565"><ele>574.0</ele><time>2026-04-18T09:19:32.754Z</time></trkpt><trkpt lat="44.1707067" lon="11.3875117"><ele>574.0</ele><time>2026-04-18T09:19:35.753Z</time></trkpt><trkpt lat="44.170645" lon="11.3874267"><ele>574.0</ele><time>2026-04-18T09:19:54.752Z</time></trkpt><trkpt lat="44.17059" lon="11.3873567"><ele>574.0</ele><time>2026-04-18T09:19:55.753Z</time></trkpt><trkpt lat="44.1705383" lon="11.38729"><ele>574.0</ele><time>2026-04-18T09:19:56.753Z</time></trkpt><trkpt lat="44.17048" lon="11.3871667"><ele>574.0</ele><time>2026-04-18T09:19:58.752Z</time></trkpt><trkpt lat="44.17044" lon="11.38703"><ele>576.6</ele><time>2026-04-18T09:20:00.752Z</time></trkpt><trkpt lat="44.17036" lon="11.3868917"><ele>579.2</ele><time>2026-04-18T09:20:02.753Z</time></trkpt><trkpt lat="44.1703183" lon="11.3868167"><ele>581.8000000000001</ele><time>2026-04-18T09:20:03.752Z</time></trkpt><trkpt lat="44.1702817" lon="11.3867367"><ele>584.4</ele><time>2026-04-18T09:20:04.752Z</time></trkpt><trkpt lat="44.1702383" lon="11.38666"><ele>587.0</ele><time>2026-04-18T09:20:05.753Z</time></trkpt><trkpt lat="44.1701883" lon="11.3865117"><ele>587.0</ele><time>2026-04-18T09:20:07.753Z</time></trkpt><trkpt lat="44.17017" lon="11.386415"><ele>587.0</ele><time>2026-04-18T09:20:08.752Z</time></trkpt><trkpt lat="44.170155" lon="11.3863233"><ele>587.0</ele><time>2026-04-18T09:20:09.753Z</time></trkpt><trkpt lat="44.1701333" lon="11.3862367"><ele>587.0</ele><time>2026-04-18T09:20:10.752Z</time></trkpt><trkpt lat="44.1700783" lon="11.3861183"><ele>587.0</ele><time>2026-04-18T09:20:12.752Z</time></trkpt><trkpt lat="44.1700052" lon="11.3860416"><ele>587.0</ele><time>2026-04-18T09:20:14.753Z</time></trkpt><trkpt lat="44.169954" lon="11.3859626"><ele>589.2</ele><time>2026-04-18T09:20:16.752Z</time></trkpt><trkpt lat="44.1699488" lon="11.3858335"><ele>591.4000000000001</ele><time>2026-04-18T09:20:18.753Z</time></trkpt><trkpt lat="44.1700161" lon="11.3857011"><ele>593.5999999999999</ele><time>2026-04-18T09:20:20.752Z</time></trkpt><trkpt lat="44.1701025" lon="11.3855785"><ele>595.8</ele><time>2026-04-18T09:20:22.752Z</time></trkpt><trkpt lat="44.170187" lon="11.3854776"><ele>598.0</ele><time>2026-04-18T09:20:24.753Z</time></trkpt><trkpt lat="44.1702381" lon="11.3853541"><ele>599.6</ele><time>2026-04-18T09:20:26.752Z</time></trkpt><trkpt lat="44.1702801" lon="11.3852753"><ele>601.1999999999999</ele><time>2026-04-18T09:20:28.753Z</time></trkpt><trkpt lat="44.1703464" lon="11.3851973"><ele>602.8</ele><time>2026-04-18T09:20:30.752Z</time></trkpt><trkpt lat="44.17042" lon="11.385098"><ele>604.4</ele><time>2026-04-18T09:20:32.752Z</time></trkpt><trkpt lat="44.1704941" lon="11.3850082"><ele>606.0</ele><time>2026-04-18T09:20:34.753Z</time></trkpt><trkpt lat="44.1705765" lon="11.3849348"><ele>606.0</ele><time>2026-04-18T09:20:36.753Z</time></trkpt><trkpt lat="44.1706706" lon="11.3848763"><ele>606.0</ele><time>2026-04-18T09:20:38.753Z</time></trkpt><trkpt lat="44.1707292" lon="11.3848326"><ele>606.0</ele><time>2026-04-18T09:20:39.752Z</time></trkpt><trkpt lat="44.1707876" lon="11.3847759"><ele>606.0</ele><time>2026-04-18T09:20:40.752Z</time></trkpt><trkpt lat="44.1708358" lon="11.3847154"><ele>606.0</ele><time>2026-04-18T09:20:41.752Z</time></trkpt><trkpt lat="44.1708862" lon="11.3846489"><ele>606.0</ele><time>2026-04-18T09:20:42.753Z</time></trkpt><trkpt lat="44.1709299" lon="11.3845843"><ele>606.0</ele><time>2026-04-18T09:20:43.752Z</time></trkpt><trkpt lat="44.1709741" lon="11.3844821"><ele>609.0</ele><time>2026-04-18T09:20:45.752Z</time></trkpt><trkpt lat="44.17096" lon="11.3843767"><ele>612.0</ele><time>2026-04-18T09:20:47.752Z</time></trkpt><trkpt lat="44.170905" lon="11.38424"><ele>615.0</ele><time>2026-04-18T09:20:49.753Z</time></trkpt><trkpt lat="44.1708317" lon="11.3840967"><ele>618.0</ele><time>2026-04-18T09:20:51.753Z</time></trkpt><trkpt lat="44.17079" lon="11.38402"><ele>621.0</ele><time>2026-04-18T09:20:52.752Z</time></trkpt><trkpt lat="44.1707517" lon="11.3839333"><ele>621.4</ele><time>2026-04-18T09:20:53.753Z</time></trkpt><trkpt lat="44.1706883" lon="11.3837883"><ele>621.8</ele><time>2026-04-18T09:20:55.752Z</time></trkpt><trkpt lat="44.17065" lon="11.3837"><ele>622.1999999999999</ele><time>2026-04-18T09:20:56.753Z</time></trkpt><trkpt lat="44.1706167" lon="11.3836133"><ele>622.6</ele><time>2026-04-18T09:20:57.753Z</time></trkpt><trkpt lat="44.1705683" lon="11.38349"><ele>623.0</ele><time>2026-04-18T09:20:59.753Z</time></trkpt><trkpt lat="44.170535" lon="11.3833667"><ele>623.0</ele><time>2026-04-18T09:21:01.752Z</time></trkpt><trkpt lat="44.1705017" lon="11.3832317"><ele>623.0</ele><time>2026-04-18T09:21:03.753Z</time></trkpt><trkpt lat="44.17048" lon="11.3831483"><ele>623.0</ele><time>2026-04-18T09:21:04.753Z</time></trkpt><trkpt lat="44.17045" lon="11.3830683"><ele>623.0</ele><time>2026-04-18T09:21:05.752Z</time></trkpt><trkpt lat="44.1704167" lon="11.3829867"><ele>623.0</ele><time>2026-04-18T09:21:06.752Z</time></trkpt><trkpt lat="44.1703817" lon="11.3829133"><ele>623.0</ele><time>2026-04-18T09:21:07.752Z</time></trkpt><trkpt lat="44.170355" lon="11.3828333"><ele>623.0</ele><time>2026-04-18T09:21:08.752Z</time></trkpt><trkpt lat="44.1703217" lon="11.382755"><ele>625.0</ele><time>2026-04-18T09:21:09.753Z</time></trkpt><trkpt lat="44.1702633" lon="11.38262"><ele>627.0</ele><time>2026-04-18T09:21:11.752Z</time></trkpt><trkpt lat="44.1701733" lon="11.3825033"><ele>629.0</ele><time>2026-04-18T09:21:13.752Z</time></trkpt><trkpt lat="44.1700783" lon="11.3823717"><ele>631.0</ele><time>2026-04-18T09:21:15.752Z</time></trkpt><trkpt lat="44.1700133" lon="11.3822833"><ele>631.0</ele><time>2026-04-18T09:21:16.752Z</time></trkpt><trkpt lat="44.1699533" lon="11.3822067"><ele>631.0</ele><time>2026-04-18T09:21:17.752Z</time></trkpt><trkpt lat="44.1698883" lon="11.3821317"><ele>631.0</ele><time>2026-04-18T09:21:18.752Z</time></trkpt><trkpt lat="44.1698317" lon="11.38207"><ele>631.0</ele><time>2026-04-18T09:21:19.753Z</time></trkpt><trkpt lat="44.169775" lon="11.3820167"><ele>631.0</ele><time>2026-04-18T09:21:20.752Z</time></trkpt><trkpt lat="44.16973" lon="11.3819517"><ele>631.0</ele><time>2026-04-18T09:21:21.752Z</time></trkpt><trkpt lat="44.1696783" lon="11.3818867"><ele>631.0</ele><time>2026-04-18T09:21:22.752Z</time></trkpt><trkpt lat="44.1696317" lon="11.38182"><ele>633.7142857142858</ele><time>2026-04-18T09:21:23.752Z</time></trkpt><trkpt lat="44.169595" lon="11.3817483"><ele>636.4285714285713</ele><time>2026-04-18T09:21:24.752Z</time></trkpt><trkpt lat="44.16955" lon="11.3816783"><ele>639.1428571428571</ele><time>2026-04-18T09:21:25.752Z</time></trkpt><trkpt lat="44.169515" lon="11.3816"><ele>641.8571428571429</ele><time>2026-04-18T09:21:26.752Z</time></trkpt><trkpt lat="44.169475" lon="11.381495"><ele>644.5714285714287</ele><time>2026-04-18T09:21:27.752Z</time></trkpt><trkpt lat="44.1694367" lon="11.381395"><ele>647.2857142857142</ele><time>2026-04-18T09:21:28.753Z</time></trkpt><trkpt lat="44.1693983" lon="11.3813033"><ele>650.0</ele><time>2026-04-18T09:21:29.753Z</time></trkpt><trkpt lat="44.1693517" lon="11.38122"><ele>652.1666666666666</ele><time>2026-04-18T09:21:30.753Z</time></trkpt><trkpt lat="44.1693067" lon="11.3811417"><ele>654.3333333333333</ele><time>2026-04-18T09:21:31.752Z</time></trkpt><trkpt lat="44.16926" lon="11.381075"><ele>656.5</ele><time>2026-04-18T09:21:32.752Z</time></trkpt><trkpt lat="44.1692017" lon="11.3810217"><ele>658.6666666666666</ele><time>2026-04-18T09:21:33.753Z</time></trkpt><trkpt lat="44.1690917" lon="11.3808983"><ele>660.8333333333334</ele><time>2026-04-18T09:21:35.752Z</time></trkpt><trkpt lat="44.1690267" lon="11.3808167"><ele>663.0</ele><time>2026-04-18T09:21:36.753Z</time></trkpt><trkpt lat="44.1689767" lon="11.3807483"><ele>664.0</ele><time>2026-04-18T09:21:37.753Z</time></trkpt><trkpt lat="44.1689283" lon="11.38063"><ele>665.0</ele><time>2026-04-18T09:21:39.752Z</time></trkpt><trkpt lat="44.1689517" lon="11.3805367"><ele>666.0</ele><time>2026-04-18T09:21:41.752Z</time></trkpt><trkpt lat="44.169015" lon="11.3805117"><ele>667.0</ele><time>2026-04-18T09:21:43.753Z</time></trkpt><trkpt lat="44.1691033" lon="11.3805"><ele>668.0</ele><time>2026-04-18T09:21:45.753Z</time></trkpt><trkpt lat="44.169205" lon="11.380475"><ele>669.0</ele><time>2026-04-18T09:21:47.753Z</time></trkpt><trkpt lat="44.16931" lon="11.3803867"><ele>669.8333333333334</ele><time>2026-04-18T09:21:49.753Z</time></trkpt><trkpt lat="44.169375" lon="11.3803117"><ele>670.6666666666666</ele><time>2026-04-18T09:21:50.752Z</time></trkpt><trkpt lat="44.1694383" lon="11.3802467"><ele>671.5</ele><time>2026-04-18T09:21:51.753Z</time></trkpt><trkpt lat="44.1694733" lon="11.38017"><ele>672.3333333333333</ele><time>2026-04-18T09:21:52.753Z</time></trkpt><trkpt lat="44.169485" lon="11.3800317"><ele>673.1666666666666</ele><time>2026-04-18T09:21:54.752Z</time></trkpt><trkpt lat="44.1694817" lon="11.379925"><ele>674.0</ele><time>2026-04-18T09:21:55.752Z</time></trkpt><trkpt lat="44.1694767" lon="11.379805"><ele>674.0</ele><time>2026-04-18T09:21:56.752Z</time></trkpt><trkpt lat="44.1694817" lon="11.3796967"><ele>674.0</ele><time>2026-04-18T09:21:57.752Z</time></trkpt><trkpt lat="44.1695267" lon="11.37957"><ele>674.0</ele><time>2026-04-18T09:21:59.753Z</time></trkpt><trkpt lat="44.1696517" lon="11.3794533"><ele>674.0</ele><time>2026-04-18T09:22:01.752Z</time></trkpt><trkpt lat="44.1697383" lon="11.3793583"><ele>674.0</ele><time>2026-04-18T09:22:02.753Z</time></trkpt><trkpt lat="44.169845" lon="11.379225"><ele>673.25</ele><time>2026-04-18T09:22:03.753Z</time></trkpt><trkpt lat="44.1699533" lon="11.3790967"><ele>672.5</ele><time>2026-04-18T09:22:04.753Z</time></trkpt><trkpt lat="44.1700517" lon="11.3789783"><ele>671.75</ele><time>2026-04-18T09:22:05.753Z</time></trkpt><trkpt lat="44.1701417" lon="11.3788833"><ele>671.0</ele><time>2026-04-18T09:22:06.753Z</time></trkpt><trkpt lat="44.1702267" lon="11.3787933"><ele>672.5999999999999</ele><time>2026-04-18T09:22:07.753Z</time></trkpt><trkpt lat="44.1703" lon="11.3786967"><ele>674.2</ele><time>2026-04-18T09:22:08.752Z</time></trkpt><trkpt lat="44.1703667" lon="11.3786017"><ele>675.8</ele><time>2026-04-18T09:22:09.753Z</time></trkpt><trkpt lat="44.1704283" lon="11.3785133"><ele>677.4000000000001</ele><time>2026-04-18T09:22:10.752Z</time></trkpt><trkpt lat="44.170505" lon="11.3784433"><ele>679.0</ele><time>2026-04-18T09:22:11.752Z</time></trkpt><trkpt lat="44.1705967" lon="11.3783817"><ele>677.2</ele><time>2026-04-18T09:22:12.752Z</time></trkpt><trkpt lat="44.170695" lon="11.37832"><ele>675.4000000000001</ele><time>2026-04-18T09:22:13.752Z</time></trkpt><trkpt lat="44.17079" lon="11.37826"><ele>673.6</ele><time>2026-04-18T09:22:14.752Z</time></trkpt><trkpt lat="44.170895" lon="11.3781833"><ele>671.8</ele><time>2026-04-18T09:22:15.752Z</time></trkpt><trkpt lat="44.17099" lon="11.3781067"><ele>670.0</ele><time>2026-04-18T09:22:16.753Z</time></trkpt><trkpt lat="44.17106" lon="11.37803"><ele>672.6</ele><time>2026-04-18T09:22:17.752Z</time></trkpt><trkpt lat="44.1711133" lon="11.377955"><ele>675.2</ele><time>2026-04-18T09:22:18.753Z</time></trkpt><trkpt lat="44.1711533" lon="11.37786"><ele>677.8</ele><time>2026-04-18T09:22:19.752Z</time></trkpt><trkpt lat="44.1711833" lon="11.377755"><ele>680.4</ele><time>2026-04-18T09:22:20.753Z</time></trkpt><trkpt lat="44.171215" lon="11.3776067"><ele>683.0</ele><time>2026-04-18T09:22:21.753Z</time></trkpt><trkpt lat="44.1712567" lon="11.3774367"><ele>683.0</ele><time>2026-04-18T09:22:22.752Z</time></trkpt><trkpt lat="44.1713067" lon="11.3772533"><ele>683.0</ele><time>2026-04-18T09:22:23.752Z</time></trkpt><trkpt lat="44.1713583" lon="11.3770717"><ele>683.0</ele><time>2026-04-18T09:22:24.753Z</time></trkpt><trkpt lat="44.1714067" lon="11.3769067"><ele>683.0</ele><time>2026-04-18T09:22:25.752Z</time></trkpt><trkpt lat="44.171455" lon="11.3767517"><ele>683.25</ele><time>2026-04-18T09:22:26.752Z</time></trkpt><trkpt lat="44.1714967" lon="11.376595"><ele>683.5</ele><time>2026-04-18T09:22:27.752Z</time></trkpt><trkpt lat="44.1715383" lon="11.376425"><ele>683.75</ele><time>2026-04-18T09:22:28.753Z</time></trkpt><trkpt lat="44.1715767" lon="11.37625"><ele>684.0</ele><time>2026-04-18T09:22:29.752Z</time></trkpt><trkpt lat="44.1716133" lon="11.3760917"><ele>684.0</ele><time>2026-04-18T09:22:30.752Z</time></trkpt><trkpt lat="44.1716417" lon="11.375945"><ele>684.0</ele><time>2026-04-18T09:22:31.752Z</time></trkpt><trkpt lat="44.17167" lon="11.3758017"><ele>684.0</ele><time>2026-04-18T09:22:32.752Z</time></trkpt><trkpt lat="44.1716967" lon="11.3756467"><ele>684.0</ele><time>2026-04-18T09:22:33.753Z</time></trkpt><trkpt lat="44.1717133" lon="11.375485"><ele>684.0</ele><time>2026-04-18T09:22:34.753Z</time></trkpt><trkpt lat="44.17174" lon="11.3753117"><ele>685.0</ele><time>2026-04-18T09:22:35.753Z</time></trkpt><trkpt lat="44.1717617" lon="11.37515"><ele>686.0</ele><time>2026-04-18T09:22:36.752Z</time></trkpt><trkpt lat="44.171775" lon="11.3750133"><ele>687.0</ele><time>2026-04-18T09:22:37.753Z</time></trkpt><trkpt lat="44.1717967" lon="11.3748867"><ele>688.0</ele><time>2026-04-18T09:22:38.753Z</time></trkpt><trkpt lat="44.1718117" lon="11.3747833"><ele>689.0</ele><time>2026-04-18T09:22:39.752Z</time></trkpt><trkpt lat="44.17184" lon="11.3746917"><ele>690.3333333333333</ele><time>2026-04-18T09:22:40.752Z</time></trkpt><trkpt lat="44.171875" lon="11.3746083"><ele>691.6666666666666</ele><time>2026-04-18T09:22:41.751Z</time></trkpt><trkpt lat="44.1719183" lon="11.3745267"><ele>693.0</ele><time>2026-04-18T09:22:42.752Z</time></trkpt><trkpt lat="44.1719733" lon="11.3744683"><ele>694.3333333333334</ele><time>2026-04-18T09:22:43.751Z</time></trkpt><trkpt lat="44.1720433" lon="11.3744067"><ele>695.6666666666667</ele><time>2026-04-18T09:22:44.751Z</time></trkpt><trkpt lat="44.17213" lon="11.3743433"><ele>697.0</ele><time>2026-04-18T09:22:45.752Z</time></trkpt><trkpt lat="44.17222" lon="11.3742617"><ele>697.0</ele><time>2026-04-18T09:22:46.751Z</time></trkpt><trkpt lat="44.1723067" lon="11.374155"><ele>697.0</ele><time>2026-04-18T09:22:47.752Z</time></trkpt><trkpt lat="44.17238" lon="11.374025"><ele>697.0</ele><time>2026-04-18T09:22:48.751Z</time></trkpt><trkpt lat="44.1724567" lon="11.3739083"><ele>697.0</ele><time>2026-04-18T09:22:49.752Z</time></trkpt><trkpt lat="44.172535" lon="11.3738083"><ele>697.75</ele><time>2026-04-18T09:22:50.752Z</time></trkpt><trkpt lat="44.1726233" lon="11.373715"><ele>698.5</ele><time>2026-04-18T09:22:51.751Z</time></trkpt><trkpt lat="44.1727233" lon="11.3736183"><ele>699.25</ele><time>2026-04-18T09:22:52.752Z</time></trkpt><trkpt lat="44.1728383" lon="11.3735283"><ele>700.0</ele><time>2026-04-18T09:22:53.751Z</time></trkpt><trkpt lat="44.172945" lon="11.3734533"><ele>700.0</ele><time>2026-04-18T09:22:54.751Z</time></trkpt><trkpt lat="44.1730217" lon="11.3733883"><ele>700.0</ele><time>2026-04-18T09:22:55.751Z</time></trkpt><trkpt lat="44.1730833" lon="11.3733167"><ele>700.0</ele><time>2026-04-18T09:22:56.751Z</time></trkpt><trkpt lat="44.1731167" lon="11.3732383"><ele>700.0</ele><time>2026-04-18T09:22:57.752Z</time></trkpt><trkpt lat="44.1731217" lon="11.3731467"><ele>700.0</ele><time>2026-04-18T09:22:58.752Z</time></trkpt><trkpt lat="44.1731033" lon="11.37305"><ele>700.0</ele><time>2026-04-18T09:22:59.752Z</time></trkpt><trkpt lat="44.173065" lon="11.3729433"><ele>701.3333333333334</ele><time>2026-04-18T09:23:00.751Z</time></trkpt><trkpt lat="44.1730183" lon="11.3728517"><ele>702.6666666666667</ele><time>2026-04-18T09:23:01.751Z</time></trkpt><trkpt lat="44.1729583" lon="11.37278"><ele>704.0</ele><time>2026-04-18T09:23:02.752Z</time></trkpt><trkpt lat="44.17288" lon="11.3727183"><ele>705.3333333333334</ele><time>2026-04-18T09:23:03.752Z</time></trkpt><trkpt lat="44.1728017" lon="11.3726467"><ele>706.6666666666666</ele><time>2026-04-18T09:23:04.752Z</time></trkpt><trkpt lat="44.1727333" lon="11.3725733"><ele>708.0</ele><time>2026-04-18T09:23:05.752Z</time></trkpt><trkpt lat="44.1726767" lon="11.372485"><ele>708.0</ele><time>2026-04-18T09:23:06.751Z</time></trkpt><trkpt lat="44.17262" lon="11.372395"><ele>708.0</ele><time>2026-04-18T09:23:07.752Z</time></trkpt><trkpt lat="44.17255" lon="11.3722967"><ele>708.0</ele><time>2026-04-18T09:23:08.752Z</time></trkpt><trkpt lat="44.172475" lon="11.37218"><ele>708.0</ele><time>2026-04-18T09:23:09.752Z</time></trkpt><trkpt lat="44.1724033" lon="11.3720583"><ele>708.0</ele><time>2026-04-18T09:23:10.751Z</time></trkpt><trkpt lat="44.1723417" lon="11.37195"><ele>710.0</ele><time>2026-04-18T09:23:11.752Z</time></trkpt><trkpt lat="44.1722883" lon="11.3718633"><ele>712.0</ele><time>2026-04-18T09:23:12.751Z</time></trkpt><trkpt lat="44.1722383" lon="11.3718017"><ele>714.0</ele><time>2026-04-18T09:23:13.751Z</time></trkpt><trkpt lat="44.1721667" lon="11.3717467"><ele>716.0</ele><time>2026-04-18T09:23:14.751Z</time></trkpt><trkpt lat="44.172085" lon="11.371695"><ele>718.0</ele><time>2026-04-18T09:23:15.752Z</time></trkpt><trkpt lat="44.1720033" lon="11.3716417"><ele>720.0</ele><time>2026-04-18T09:23:16.752Z</time></trkpt><trkpt lat="44.17193" lon="11.3716033"><ele>720.0</ele><time>2026-04-18T09:23:17.752Z</time></trkpt><trkpt lat="44.171865" lon="11.3715533"><ele>720.0</ele><time>2026-04-18T09:23:18.751Z</time></trkpt><trkpt lat="44.1718133" lon="11.3714833"><ele>720.0</ele><time>2026-04-18T09:23:19.751Z</time></trkpt><trkpt lat="44.1717717" lon="11.3713883"><ele>720.0</ele><time>2026-04-18T09:23:20.751Z</time></trkpt><trkpt lat="44.1717383" lon="11.3712717"><ele>720.0</ele><time>2026-04-18T09:23:21.751Z</time></trkpt><trkpt lat="44.1717083" lon="11.3711333"><ele>720.0</ele><time>2026-04-18T09:23:22.752Z</time></trkpt><trkpt lat="44.1716783" lon="11.37099"><ele>722.8</ele><time>2026-04-18T09:23:23.752Z</time></trkpt><trkpt lat="44.1716283" lon="11.3708683"><ele>725.6</ele><time>2026-04-18T09:23:24.751Z</time></trkpt><trkpt lat="44.1715667" lon="11.370775"><ele>728.4000000000001</ele><time>2026-04-18T09:23:25.751Z</time></trkpt><trkpt lat="44.1714883" lon="11.3706817"><ele>731.2</ele><time>2026-04-18T09:23:26.751Z</time></trkpt><trkpt lat="44.1714017" lon="11.37058"><ele>734.0</ele><time>2026-04-18T09:23:27.751Z</time></trkpt><trkpt lat="44.17131" lon="11.3704733"><ele>736.2</ele><time>2026-04-18T09:23:28.751Z</time></trkpt><trkpt lat="44.1712183" lon="11.370375"><ele>738.4000000000001</ele><time>2026-04-18T09:23:29.752Z</time></trkpt><trkpt lat="44.17114" lon="11.3702883"><ele>740.6</ele><time>2026-04-18T09:23:30.751Z</time></trkpt><trkpt lat="44.17106" lon="11.3702067"><ele>742.8</ele><time>2026-04-18T09:23:31.751Z</time></trkpt><trkpt lat="44.1709717" lon="11.3701217"><ele>745.0</ele><time>2026-04-18T09:23:32.752Z</time></trkpt><trkpt lat="44.17087" lon="11.37003"><ele>745.0</ele><time>2026-04-18T09:23:33.751Z</time></trkpt><trkpt lat="44.1707617" lon="11.3699367"><ele>745.0</ele><time>2026-04-18T09:23:34.752Z</time></trkpt><trkpt lat="44.170675" lon="11.3698617"><ele>745.0</ele><time>2026-04-18T09:23:35.751Z</time></trkpt><trkpt lat="44.1705767" lon="11.36978"><ele>745.0</ele><time>2026-04-18T09:23:36.752Z</time></trkpt><trkpt lat="44.1704833" lon="11.36971"><ele>748.5</ele><time>2026-04-18T09:23:37.752Z</time></trkpt><trkpt lat="44.1703833" lon="11.3696133"><ele>752.0</ele><time>2026-04-18T09:23:38.752Z</time></trkpt><trkpt lat="44.1702817" lon="11.36952"><ele>755.5</ele><time>2026-04-18T09:23:39.751Z</time></trkpt><trkpt lat="44.1701783" lon="11.369435"><ele>759.0</ele><time>2026-04-18T09:23:40.752Z</time></trkpt><trkpt lat="44.1700833" lon="11.3693683"><ele>759.0</ele><time>2026-04-18T09:23:41.752Z</time></trkpt><trkpt lat="44.1699867" lon="11.3693017"><ele>759.0</ele><time>2026-04-18T09:23:42.751Z</time></trkpt><trkpt lat="44.16989" lon="11.3692167"><ele>759.0</ele><time>2026-04-18T09:23:43.751Z</time></trkpt><trkpt lat="44.169785" lon="11.36914"><ele>759.0</ele><time>2026-04-18T09:23:44.752Z</time></trkpt><trkpt lat="44.1696933" lon="11.36908"><ele>759.0</ele><time>2026-04-18T09:23:45.751Z</time></trkpt><trkpt lat="44.16959" lon="11.3690233"><ele>760.0</ele><time>2026-04-18T09:23:46.751Z</time></trkpt><trkpt lat="44.169485" lon="11.36898"><ele>761.0</ele><time>2026-04-18T09:23:47.751Z</time></trkpt><trkpt lat="44.1693917" lon="11.3689383"><ele>762.0</ele><time>2026-04-18T09:23:48.751Z</time></trkpt><trkpt lat="44.1692983" lon="11.3689017"><ele>763.0</ele><time>2026-04-18T09:23:49.751Z</time></trkpt><trkpt lat="44.1692233" lon="11.3688783"><ele>764.0</ele><time>2026-04-18T09:23:50.751Z</time></trkpt><trkpt lat="44.169105" lon="11.3688633"><ele>769.5</ele><time>2026-04-18T09:23:51.752Z</time></trkpt><trkpt lat="44.168985" lon="11.3688467"><ele>775.0</ele><time>2026-04-18T09:23:52.752Z</time></trkpt><trkpt lat="44.168865" lon="11.368825"><ele>780.5</ele><time>2026-04-18T09:23:53.752Z</time></trkpt><trkpt lat="44.1687617" lon="11.36882"><ele>786.0</ele><time>2026-04-18T09:23:54.752Z</time></trkpt><trkpt lat="44.1686517" lon="11.368835"><ele>786.0</ele><time>2026-04-18T09:23:55.752Z</time></trkpt><trkpt lat="44.1685433" lon="11.36885"><ele>786.0</ele><time>2026-04-18T09:23:56.752Z</time></trkpt><trkpt lat="44.168455" lon="11.3688717"><ele>786.0</ele><time>2026-04-18T09:23:57.752Z</time></trkpt><trkpt lat="44.1683867" lon="11.3689017"><ele>786.0</ele><time>2026-04-18T09:23:58.751Z</time></trkpt><trkpt lat="44.1683217" lon="11.3689483"><ele>786.0</ele><time>2026-04-18T09:23:59.751Z</time></trkpt><trkpt lat="44.16826" lon="11.3690217"><ele>786.0</ele><time>2026-04-18T09:24:00.752Z</time></trkpt><trkpt lat="44.1682067" lon="11.3691033"><ele>786.4</ele><time>2026-04-18T09:24:01.752Z</time></trkpt><trkpt lat="44.1681683" lon="11.3692017"><ele>786.8</ele><time>2026-04-18T09:24:02.752Z</time></trkpt><trkpt lat="44.16814" lon="11.3693117"><ele>787.1999999999999</ele><time>2026-04-18T09:24:03.752Z</time></trkpt><trkpt lat="44.1681217" lon="11.369445"><ele>787.5999999999999</ele><time>2026-04-18T09:24:04.751Z</time></trkpt><trkpt lat="44.1681067" lon="11.36959"><ele>788.0</ele><time>2026-04-18T09:24:05.751Z</time></trkpt><trkpt lat="44.168095" lon="11.3697333"><ele>787.0</ele><time>2026-04-18T09:24:06.751Z</time></trkpt><trkpt lat="44.16807" lon="11.3698733"><ele>786.0</ele><time>2026-04-18T09:24:07.752Z</time></trkpt><trkpt lat="44.16804" lon="11.3700117"><ele>785.0</ele><time>2026-04-18T09:24:08.751Z</time></trkpt><trkpt lat="44.168015" lon="11.3701367"><ele>784.0</ele><time>2026-04-18T09:24:09.751Z</time></trkpt><trkpt lat="44.16798" lon="11.37023"><ele>783.0</ele><time>2026-04-18T09:24:10.751Z</time></trkpt><trkpt lat="44.1679333" lon="11.3703133"><ele>783.0</ele><time>2026-04-18T09:24:11.752Z</time></trkpt><trkpt lat="44.167865" lon="11.3703917"><ele>783.0</ele><time>2026-04-18T09:24:12.751Z</time></trkpt><trkpt lat="44.1677733" lon="11.3704733"><ele>783.0</ele><time>2026-04-18T09:24:13.751Z</time></trkpt><trkpt lat="44.1676783" lon="11.370555"><ele>783.0</ele><time>2026-04-18T09:24:14.752Z</time></trkpt><trkpt lat="44.1675917" lon="11.37065"><ele>783.0</ele><time>2026-04-18T09:24:15.752Z</time></trkpt><trkpt lat="44.167525" lon="11.3707567"><ele>782.5999999999999</ele><time>2026-04-18T09:24:16.751Z</time></trkpt><trkpt lat="44.1674733" lon="11.370865"><ele>782.1999999999999</ele><time>2026-04-18T09:24:17.751Z</time></trkpt><trkpt lat="44.1674267" lon="11.37098"><ele>781.8</ele><time>2026-04-18T09:24:18.752Z</time></trkpt><trkpt lat="44.167375" lon="11.3711167"><ele>781.4</ele><time>2026-04-18T09:24:19.752Z</time></trkpt><trkpt lat="44.16731" lon="11.3712667"><ele>781.0</ele><time>2026-04-18T09:24:20.751Z</time></trkpt><trkpt lat="44.1672333" lon="11.371425"><ele>785.75</ele><time>2026-04-18T09:24:21.751Z</time></trkpt><trkpt lat="44.1671517" lon="11.371595"><ele>790.5</ele><time>2026-04-18T09:24:22.751Z</time></trkpt><trkpt lat="44.1670783" lon="11.3717467"><ele>795.25</ele><time>2026-04-18T09:24:23.751Z</time></trkpt><trkpt lat="44.167015" lon="11.3718783"><ele>800.0</ele><time>2026-04-18T09:24:24.751Z</time></trkpt><trkpt lat="44.1669583" lon="11.3719867"><ele>800.0000000000001</ele><time>2026-04-18T09:24:25.751Z</time></trkpt><trkpt lat="44.1669017" lon="11.372085"><ele>800.0</ele><time>2026-04-18T09:24:26.751Z</time></trkpt><trkpt lat="44.1668483" lon="11.3721567"><ele>800.0</ele><time>2026-04-18T09:24:27.751Z</time></trkpt><trkpt lat="44.16678" lon="11.3722017"><ele>800.0</ele><time>2026-04-18T09:24:28.752Z</time></trkpt><trkpt lat="44.166695" lon="11.3722417"><ele>800.0000000000001</ele><time>2026-04-18T09:24:29.752Z</time></trkpt><trkpt lat="44.1665883" lon="11.372295"><ele>800.0</ele><time>2026-04-18T09:24:30.751Z</time></trkpt><trkpt lat="44.1664667" lon="11.3723567"><ele>799.75</ele><time>2026-04-18T09:24:31.751Z</time></trkpt><trkpt lat="44.1663217" lon="11.3724083"><ele>799.5</ele><time>2026-04-18T09:24:32.752Z</time></trkpt><trkpt lat="44.1661817" lon="11.3724467"><ele>799.25</ele><time>2026-04-18T09:24:33.752Z</time></trkpt><trkpt lat="44.1660417" lon="11.3724883"><ele>799.0</ele><time>2026-04-18T09:24:34.751Z</time></trkpt><trkpt lat="44.16591" lon="11.3725167"><ele>799.0</ele><time>2026-04-18T09:24:35.751Z</time></trkpt><trkpt lat="44.1657967" lon="11.37253"><ele>799.0</ele><time>2026-04-18T09:24:36.751Z</time></trkpt><trkpt lat="44.1656967" lon="11.3725233"><ele>799.0</ele><time>2026-04-18T09:24:37.752Z</time></trkpt><trkpt lat="44.1656" lon="11.3725067"><ele>799.0</ele><time>2026-04-18T09:24:38.751Z</time></trkpt><trkpt lat="44.1654867" lon="11.3724733"><ele>799.0</ele><time>2026-04-18T09:24:39.751Z</time></trkpt><trkpt lat="44.16537" lon="11.37242"><ele>799.4000000000001</ele><time>2026-04-18T09:24:40.751Z</time></trkpt><trkpt lat="44.16525" lon="11.3723817"><ele>799.8</ele><time>2026-04-18T09:24:41.752Z</time></trkpt><trkpt lat="44.16514" lon="11.372355"><ele>800.2</ele><time>2026-04-18T09:24:42.751Z</time></trkpt><trkpt lat="44.1650433" lon="11.3723683"><ele>800.5999999999999</ele><time>2026-04-18T09:24:43.751Z</time></trkpt><trkpt lat="44.1649367" lon="11.372405"><ele>801.0</ele><time>2026-04-18T09:24:44.751Z</time></trkpt><trkpt lat="44.1648267" lon="11.37246"><ele>804.0</ele><time>2026-04-18T09:24:45.752Z</time></trkpt><trkpt lat="44.16472" lon="11.372535"><ele>807.0</ele><time>2026-04-18T09:24:46.752Z</time></trkpt><trkpt lat="44.1646167" lon="11.3726183"><ele>810.0</ele><time>2026-04-18T09:24:47.752Z</time></trkpt><trkpt lat="44.16451" lon="11.3727283"><ele>813.0</ele><time>2026-04-18T09:24:48.751Z</time></trkpt><trkpt lat="44.1644117" lon="11.372815"><ele>813.0</ele><time>2026-04-18T09:24:49.752Z</time></trkpt><trkpt lat="44.1643317" lon="11.3728783"><ele>813.0</ele><time>2026-04-18T09:24:50.752Z</time></trkpt><trkpt lat="44.16425" lon="11.3729133"><ele>813.0</ele><time>2026-04-18T09:24:51.751Z</time></trkpt><trkpt lat="44.1641617" lon="11.372925"><ele>813.0</ele><time>2026-04-18T09:24:52.752Z</time></trkpt><trkpt lat="44.1640483" lon="11.372915"><ele>813.0</ele><time>2026-04-18T09:24:53.752Z</time></trkpt><trkpt lat="44.1639383" lon="11.37291"><ele>814.0</ele><time>2026-04-18T09:24:54.751Z</time></trkpt><trkpt lat="44.163835" lon="11.3729283"><ele>815.0</ele><time>2026-04-18T09:24:55.752Z</time></trkpt><trkpt lat="44.1637333" lon="11.3729617"><ele>816.0</ele><time>2026-04-18T09:24:56.751Z</time></trkpt><trkpt lat="44.163635" lon="11.3729967"><ele>817.0</ele><time>2026-04-18T09:24:57.752Z</time></trkpt><trkpt lat="44.1635333" lon="11.37304"><ele>818.0</ele><time>2026-04-18T09:24:58.752Z</time></trkpt><trkpt lat="44.16343" lon="11.3731083"><ele>818.0</ele><time>2026-04-18T09:24:59.751Z</time></trkpt><trkpt lat="44.1633067" lon="11.373195"><ele>818.0</ele><time>2026-04-18T09:25:00.751Z</time></trkpt><trkpt lat="44.1631683" lon="11.3732933"><ele>818.0</ele><time>2026-04-18T09:25:01.752Z</time></trkpt><trkpt lat="44.1630383" lon="11.3734033"><ele>818.0</ele><time>2026-04-18T09:25:02.751Z</time></trkpt><trkpt lat="44.1629133" lon="11.3735067"><ele>820.75</ele><time>2026-04-18T09:25:03.752Z</time></trkpt><trkpt lat="44.1628033" lon="11.3736133"><ele>823.5</ele><time>2026-04-18T09:25:04.751Z</time></trkpt><trkpt lat="44.162705" lon="11.3737267"><ele>826.25</ele><time>2026-04-18T09:25:05.751Z</time></trkpt><trkpt lat="44.1626183" lon="11.3738517"><ele>829.0</ele><time>2026-04-18T09:25:06.752Z</time></trkpt><trkpt lat="44.1625417" lon="11.3739733"><ele>828.9999999999999</ele><time>2026-04-18T09:25:07.752Z</time></trkpt><trkpt lat="44.162475" lon="11.3740867"><ele>829.0</ele><time>2026-04-18T09:25:08.752Z</time></trkpt><trkpt lat="44.1624233" lon="11.3741783"><ele>829.0</ele><time>2026-04-18T09:25:09.751Z</time></trkpt><trkpt lat="44.1623717" lon="11.3742683"><ele>829.0</ele><time>2026-04-18T09:25:10.751Z</time></trkpt><trkpt lat="44.1623117" lon="11.3743533"><ele>828.9999999999999</ele><time>2026-04-18T09:25:11.752Z</time></trkpt><trkpt lat="44.1622533" lon="11.3744283"><ele>829.0</ele><time>2026-04-18T09:25:12.752Z</time></trkpt><trkpt lat="44.1621817" lon="11.37448"><ele>828.75</ele><time>2026-04-18T09:25:13.751Z</time></trkpt><trkpt lat="44.1620867" lon="11.3745317"><ele>828.5</ele><time>2026-04-18T09:25:14.752Z</time></trkpt><trkpt lat="44.1619767" lon="11.37459"><ele>828.25</ele><time>2026-04-18T09:25:15.751Z</time></trkpt><trkpt lat="44.1618617" lon="11.3746617"><ele>828.0</ele><time>2026-04-18T09:25:16.751Z</time></trkpt><trkpt lat="44.1617467" lon="11.3747433"><ele>828.0</ele><time>2026-04-18T09:25:17.752Z</time></trkpt><trkpt lat="44.1616567" lon="11.3748083"><ele>828.0</ele><time>2026-04-18T09:25:18.751Z</time></trkpt><trkpt lat="44.1615883" lon="11.3748717"><ele>828.0</ele><time>2026-04-18T09:25:19.751Z</time></trkpt><trkpt lat="44.1615067" lon="11.374965"><ele>828.0</ele><time>2026-04-18T09:25:21.751Z</time></trkpt><trkpt lat="44.1614483" lon="11.375045"><ele>828.0</ele><time>2026-04-18T09:37:07.749Z</time></trkpt><trkpt lat="44.161385" lon="11.3751467"><ele>828.0</ele><time>2026-04-18T09:37:09.748Z</time></trkpt><trkpt lat="44.1613667" lon="11.3752533"><ele>828.0</ele><time>2026-04-18T09:37:12.749Z</time></trkpt><trkpt lat="44.1614367" lon="11.37524"><ele>828.0</ele><time>2026-04-18T09:37:15.749Z</time></trkpt><trkpt lat="44.16147" lon="11.3751367"><ele>828.0</ele><time>2026-04-18T09:37:18.748Z</time></trkpt><trkpt lat="44.161505" lon="11.3750583"><ele>828.0</ele><time>2026-04-18T09:37:21.748Z</time></trkpt><trkpt lat="44.1615517" lon="11.37497"><ele>828.0</ele><time>2026-04-18T09:37:24.748Z</time></trkpt><trkpt lat="44.1615517" lon="11.3748617"><ele>826.8333333333334</ele><time>2026-04-18T09:37:28.748Z</time></trkpt><trkpt lat="44.1614683" lon="11.374865"><ele>825.6666666666667</ele><time>2026-04-18T09:37:31.749Z</time></trkpt><trkpt lat="44.1614033" lon="11.3748733"><ele>824.5</ele><time>2026-04-18T09:37:33.749Z</time></trkpt><trkpt lat="44.161335" lon="11.37488"><ele>823.3333333333334</ele><time>2026-04-18T09:37:35.748Z</time></trkpt><trkpt lat="44.1612517" lon="11.3748967"><ele>822.1666666666667</ele><time>2026-04-18T09:37:38.749Z</time></trkpt><trkpt lat="44.1611783" lon="11.3749367"><ele>821.0</ele><time>2026-04-18T09:37:41.748Z</time></trkpt><trkpt lat="44.1611233" lon="11.3748717"><ele>821.0</ele><time>2026-04-18T09:37:44.748Z</time></trkpt><trkpt lat="44.1611367" lon="11.37474"><ele>821.0</ele><time>2026-04-18T09:37:47.748Z</time></trkpt><trkpt lat="44.1611867" lon="11.3746183"><ele>821.0</ele><time>2026-04-18T09:37:49.748Z</time></trkpt><trkpt lat="44.1612233" lon="11.3744617"><ele>821.0</ele><time>2026-04-18T09:37:51.748Z</time></trkpt><trkpt lat="44.1612417" lon="11.3743583"><ele>821.0</ele><time>2026-04-18T09:37:52.748Z</time></trkpt><trkpt lat="44.161255" lon="11.3742583"><ele>820.8333333333334</ele><time>2026-04-18T09:37:53.748Z</time></trkpt><trkpt lat="44.1612583" lon="11.374165"><ele>820.6666666666667</ele><time>2026-04-18T09:37:54.748Z</time></trkpt><trkpt lat="44.1612583" lon="11.3740683"><ele>820.5</ele><time>2026-04-18T09:37:55.749Z</time></trkpt><trkpt lat="44.16125" lon="11.3739533"><ele>820.3333333333333</ele><time>2026-04-18T09:37:56.748Z</time></trkpt><trkpt lat="44.161235" lon="11.3738283"><ele>820.1666666666666</ele><time>2026-04-18T09:37:57.748Z</time></trkpt><trkpt lat="44.161215" lon="11.3736833"><ele>820.0</ele><time>2026-04-18T09:37:58.748Z</time></trkpt><trkpt lat="44.161195" lon="11.3735217"><ele>820.0</ele><time>2026-04-18T09:37:59.748Z</time></trkpt><trkpt lat="44.16118" lon="11.3733467"><ele>820.0</ele><time>2026-04-18T09:38:00.749Z</time></trkpt><trkpt lat="44.1611683" lon="11.3731733"><ele>820.0</ele><time>2026-04-18T09:38:01.748Z</time></trkpt><trkpt lat="44.16116" lon="11.3729967"><ele>820.0</ele><time>2026-04-18T09:38:02.749Z</time></trkpt><trkpt lat="44.161145" lon="11.3728483"><ele>821.4</ele><time>2026-04-18T09:38:03.749Z</time></trkpt><trkpt lat="44.1611367" lon="11.37273"><ele>822.8</ele><time>2026-04-18T09:38:04.748Z</time></trkpt><trkpt lat="44.16114" lon="11.3726283"><ele>824.2</ele><time>2026-04-18T09:38:05.749Z</time></trkpt><trkpt lat="44.1611533" lon="11.372465"><ele>825.6</ele><time>2026-04-18T09:38:07.749Z</time></trkpt><trkpt lat="44.1611867" lon="11.3723033"><ele>827.0</ele><time>2026-04-18T09:38:09.747Z</time></trkpt><trkpt lat="44.16121" lon="11.3721617"><ele>827.0000000000001</ele><time>2026-04-18T09:38:11.747Z</time></trkpt><trkpt lat="44.16123" lon="11.3720183"><ele>827.0</ele><time>2026-04-18T09:38:13.747Z</time></trkpt><trkpt lat="44.1612667" lon="11.37184"><ele>827.0</ele><time>2026-04-18T09:38:15.748Z</time></trkpt><trkpt lat="44.1612917" lon="11.3717433"><ele>827.0</ele><time>2026-04-18T09:38:16.748Z</time></trkpt><trkpt lat="44.1613117" lon="11.3716567"><ele>827.0000000000001</ele><time>2026-04-18T09:38:17.748Z</time></trkpt><trkpt lat="44.1613333" lon="11.371565"><ele>827.0</ele><time>2026-04-18T09:38:18.747Z</time></trkpt><trkpt lat="44.161365" lon="11.371395"><ele>827.5000000000001</ele><time>2026-04-18T09:38:20.747Z</time></trkpt><trkpt lat="44.16137" lon="11.371305"><ele>828.0</ele><time>2026-04-18T09:38:21.747Z</time></trkpt><trkpt lat="44.1613683" lon="11.3711517"><ele>828.5</ele><time>2026-04-18T09:38:23.747Z</time></trkpt><trkpt lat="44.16134" lon="11.370995"><ele>829.0</ele><time>2026-04-18T09:38:25.748Z</time></trkpt><trkpt lat="44.1613267" lon="11.3709033"><ele>829.5000000000001</ele><time>2026-04-18T09:38:26.748Z</time></trkpt><trkpt lat="44.16131" lon="11.3708133"><ele>830.0</ele><time>2026-04-18T09:38:27.747Z</time></trkpt><trkpt lat="44.16129" lon="11.37072"><ele>830.0</ele><time>2026-04-18T09:38:28.747Z</time></trkpt><trkpt lat="44.1612667" lon="11.3706317"><ele>830.0</ele><time>2026-04-18T09:38:29.748Z</time></trkpt><trkpt lat="44.1612467" lon="11.3705467"><ele>830.0</ele><time>2026-04-18T09:38:30.747Z</time></trkpt><trkpt lat="44.1612283" lon="11.3703867"><ele>830.0</ele><time>2026-04-18T09:38:32.747Z</time></trkpt><trkpt lat="44.1612033" lon="11.3702283"><ele>830.0</ele><time>2026-04-18T09:38:34.747Z</time></trkpt><trkpt lat="44.1611417" lon="11.3701033"><ele>831.0</ele><time>2026-04-18T09:38:36.748Z</time></trkpt><trkpt lat="44.16108" lon="11.3699917"><ele>832.0</ele><time>2026-04-18T09:38:38.747Z</time></trkpt><trkpt lat="44.16102" lon="11.3699183"><ele>833.0</ele><time>2026-04-18T09:38:40.747Z</time></trkpt><trkpt lat="44.160945" lon="11.3698667"><ele>834.0</ele><time>2026-04-18T09:38:42.748Z</time></trkpt><trkpt lat="44.1608583" lon="11.3698033"><ele>835.0</ele><time>2026-04-18T09:38:44.747Z</time></trkpt><trkpt lat="44.16075" lon="11.3697317"><ele>831.6</ele><time>2026-04-18T09:38:46.747Z</time></trkpt><trkpt lat="44.16068" lon="11.36963"><ele>828.2</ele><time>2026-04-18T09:38:48.747Z</time></trkpt><trkpt lat="44.160635" lon="11.3695167"><ele>824.8</ele><time>2026-04-18T09:38:50.747Z</time></trkpt><trkpt lat="44.160585" lon="11.36941"><ele>821.4</ele><time>2026-04-18T09:38:52.747Z</time></trkpt><trkpt lat="44.1605117" lon="11.369345"><ele>818.0</ele><time>2026-04-18T09:38:54.748Z</time></trkpt><trkpt lat="44.160455" lon="11.369265"><ele>818.0000000000001</ele><time>2026-04-18T09:38:56.748Z</time></trkpt><trkpt lat="44.1604033" lon="11.36917"><ele>818.0</ele><time>2026-04-18T09:38:58.747Z</time></trkpt><trkpt lat="44.160345" lon="11.3690767"><ele>818.0</ele><time>2026-04-18T09:39:00.748Z</time></trkpt><trkpt lat="44.160285" lon="11.3689733"><ele>818.0</ele><time>2026-04-18T09:39:02.748Z</time></trkpt><trkpt lat="44.1602583" lon="11.3688817"><ele>818.0000000000001</ele><time>2026-04-18T09:39:04.747Z</time></trkpt><trkpt lat="44.1602533" lon="11.36877"><ele>818.0</ele><time>2026-04-18T09:39:06.747Z</time></trkpt><trkpt lat="44.160255" lon="11.3686283"><ele>818.5000000000001</ele><time>2026-04-18T09:39:08.747Z</time></trkpt><trkpt lat="44.1602533" lon="11.3685133"><ele>819.0</ele><time>2026-04-18T09:39:10.747Z</time></trkpt><trkpt lat="44.1602" lon="11.368415"><ele>819.5</ele><time>2026-04-18T09:39:13.748Z</time></trkpt><trkpt lat="44.1601233" lon="11.368385"><ele>820.0</ele><time>2026-04-18T09:39:15.747Z</time></trkpt><trkpt lat="44.1600667" lon="11.36831"><ele>820.5000000000001</ele><time>2026-04-18T09:39:17.748Z</time></trkpt><trkpt lat="44.1600117" lon="11.3681667"><ele>821.0</ele><time>2026-04-18T09:39:19.747Z</time></trkpt><trkpt lat="44.1599833" lon="11.3680833"><ele>821.1666666666667</ele><time>2026-04-18T09:39:20.748Z</time></trkpt><trkpt lat="44.1599467" lon="11.3679933"><ele>821.3333333333334</ele><time>2026-04-18T09:39:21.747Z</time></trkpt><trkpt lat="44.1599033" lon="11.367885"><ele>821.5</ele><time>2026-04-18T09:39:22.748Z</time></trkpt><trkpt lat="44.1598667" lon="11.3677683"><ele>821.6666666666667</ele><time>2026-04-18T09:39:23.747Z</time></trkpt><trkpt lat="44.1598417" lon="11.3676733"><ele>821.8333333333334</ele><time>2026-04-18T09:39:24.748Z</time></trkpt><trkpt lat="44.1597883" lon="11.3675617"><ele>822.0</ele><time>2026-04-18T09:39:26.747Z</time></trkpt><trkpt lat="44.159695" lon="11.367555"><ele>820.3333333333334</ele><time>2026-04-18T09:39:29.747Z</time></trkpt><trkpt lat="44.1596233" lon="11.367535"><ele>818.6666666666667</ele><time>2026-04-18T09:39:31.747Z</time></trkpt><trkpt lat="44.1595483" lon="11.367525"><ele>817.0</ele><time>2026-04-18T09:39:33.747Z</time></trkpt><trkpt lat="44.15945" lon="11.367475"><ele>815.3333333333334</ele><time>2026-04-18T09:39:35.747Z</time></trkpt><trkpt lat="44.159385" lon="11.3674467"><ele>813.6666666666667</ele><time>2026-04-18T09:39:36.747Z</time></trkpt><trkpt lat="44.1593133" lon="11.3674217"><ele>812.0</ele><time>2026-04-18T09:39:37.747Z</time></trkpt><trkpt lat="44.15923" lon="11.3674033"><ele>812.0000000000001</ele><time>2026-04-18T09:39:38.747Z</time></trkpt><trkpt lat="44.1591583" lon="11.3674"><ele>812.0</ele><time>2026-04-18T09:39:39.747Z</time></trkpt><trkpt lat="44.1590933" lon="11.367405"><ele>812.0</ele><time>2026-04-18T09:39:40.747Z</time></trkpt><trkpt lat="44.159025" lon="11.3674183"><ele>812.0</ele><time>2026-04-18T09:39:41.748Z</time></trkpt><trkpt lat="44.1589067" lon="11.3674433"><ele>812.0000000000001</ele><time>2026-04-18T09:39:43.747Z</time></trkpt><trkpt lat="44.1588033" lon="11.3674617"><ele>812.0</ele><time>2026-04-18T09:39:45.748Z</time></trkpt><trkpt lat="44.15872" lon="11.367465"><ele>811.0000000000001</ele><time>2026-04-18T09:39:47.747Z</time></trkpt><trkpt lat="44.1586617" lon="11.36742"><ele>810.0</ele><time>2026-04-18T09:39:49.747Z</time></trkpt><trkpt lat="44.1586533" lon="11.3673017"><ele>809.0</ele><time>2026-04-18T09:39:52.747Z</time></trkpt><trkpt lat="44.158655" lon="11.3671967"><ele>808.0</ele><time>2026-04-18T09:39:54.747Z</time></trkpt><trkpt lat="44.1586633" lon="11.367075"><ele>807.0000000000001</ele><time>2026-04-18T09:39:56.747Z</time></trkpt><trkpt lat="44.1586933" lon="11.3669167"><ele>806.0</ele><time>2026-04-18T09:39:58.747Z</time></trkpt><trkpt lat="44.1587133" lon="11.3667483"><ele>804.4</ele><time>2026-04-18T09:40:00.747Z</time></trkpt><trkpt lat="44.1587267" lon="11.3666433"><ele>802.8</ele><time>2026-04-18T09:40:01.748Z</time></trkpt><trkpt lat="44.158735" lon="11.3665417"><ele>801.1999999999999</ele><time>2026-04-18T09:40:02.747Z</time></trkpt><trkpt lat="44.15872" lon="11.36638"><ele>799.5999999999999</ele><time>2026-04-18T09:40:04.747Z</time></trkpt><trkpt lat="44.1586933" lon="11.3662217"><ele>798.0</ele><time>2026-04-18T09:40:06.748Z</time></trkpt><trkpt lat="44.1586867" lon="11.36613"><ele>798.0</ele><time>2026-04-18T09:40:08.747Z</time></trkpt><trkpt lat="44.1586633" lon="11.3660483"><ele>798.0</ele><time>2026-04-18T09:40:19.747Z</time></trkpt><trkpt lat="44.15856" lon="11.3661383"><ele>798.0</ele><time>2026-04-18T09:40:22.748Z</time></trkpt><trkpt lat="44.1584717" lon="11.36622"><ele>798.0</ele><time>2026-04-18T09:40:23.747Z</time></trkpt><trkpt lat="44.158385" lon="11.3663067"><ele>798.0</ele><time>2026-04-18T09:40:24.748Z</time></trkpt><trkpt lat="44.1582817" lon="11.3664033"><ele>795.5</ele><time>2026-04-18T09:40:25.748Z</time></trkpt><trkpt lat="44.1581617" lon="11.3665133"><ele>793.0</ele><time>2026-04-18T09:40:26.747Z</time></trkpt><trkpt lat="44.1580333" lon="11.366635"><ele>790.5</ele><time>2026-04-18T09:40:27.748Z</time></trkpt><trkpt lat="44.1579083" lon="11.3667433"><ele>788.0</ele><time>2026-04-18T09:40:28.747Z</time></trkpt><trkpt lat="44.1577917" lon="11.366845"><ele>788.0</ele><time>2026-04-18T09:40:29.748Z</time></trkpt><trkpt lat="44.157685" lon="11.3669417"><ele>788.0</ele><time>2026-04-18T09:40:30.747Z</time></trkpt><trkpt lat="44.1575833" lon="11.3670433"><ele>788.0</ele><time>2026-04-18T09:40:31.747Z</time></trkpt><trkpt lat="44.1574917" lon="11.3671517"><ele>788.0</ele><time>2026-04-18T09:40:32.747Z</time></trkpt><trkpt lat="44.1573917" lon="11.3672733"><ele>786.5</ele><time>2026-04-18T09:40:33.747Z</time></trkpt><trkpt lat="44.1572933" lon="11.3673967"><ele>785.0</ele><time>2026-04-18T09:40:34.747Z</time></trkpt><trkpt lat="44.157205" lon="11.367515"><ele>783.5</ele><time>2026-04-18T09:40:35.748Z</time></trkpt><trkpt lat="44.1571217" lon="11.3676217"><ele>782.0</ele><time>2026-04-18T09:40:36.747Z</time></trkpt><trkpt lat="44.157045" lon="11.3677067"><ele>782.0000000000001</ele><time>2026-04-18T09:40:37.747Z</time></trkpt><trkpt lat="44.1569833" lon="11.367765"><ele>782.0</ele><time>2026-04-18T09:40:38.748Z</time></trkpt><trkpt lat="44.15692" lon="11.3677867"><ele>782.0</ele><time>2026-04-18T09:40:39.747Z</time></trkpt><trkpt lat="44.1568033" lon="11.3677367"><ele>782.0</ele><time>2026-04-18T09:40:41.747Z</time></trkpt><trkpt lat="44.1567583" lon="11.3676683"><ele>782.0000000000001</ele><time>2026-04-18T09:40:42.748Z</time></trkpt><trkpt lat="44.156705" lon="11.367585"><ele>782.0</ele><time>2026-04-18T09:40:43.747Z</time></trkpt><trkpt lat="44.1566583" lon="11.3675067"><ele>781.9999999999999</ele><time>2026-04-18T09:40:44.748Z</time></trkpt><trkpt lat="44.15661" lon="11.3674267"><ele>782.0</ele><time>2026-04-18T09:40:45.747Z</time></trkpt><trkpt lat="44.15657" lon="11.3673517"><ele>782.0</ele><time>2026-04-18T09:40:46.747Z</time></trkpt><trkpt lat="44.1565317" lon="11.3672817"><ele>782.0</ele><time>2026-04-18T09:40:47.747Z</time></trkpt><trkpt lat="44.15646" lon="11.36716"><ele>782.0</ele><time>2026-04-18T09:40:49.748Z</time></trkpt><trkpt lat="44.1564067" lon="11.3671067"><ele>781.9999999999999</ele><time>2026-04-18T09:40:50.747Z</time></trkpt><trkpt lat="44.1563483" lon="11.3670683"><ele>782.0</ele><time>2026-04-18T09:40:51.748Z</time></trkpt><trkpt lat="44.1562833" lon="11.367045"><ele>779.8</ele><time>2026-04-18T09:40:52.748Z</time></trkpt><trkpt lat="44.1562117" lon="11.3670317"><ele>777.6</ele><time>2026-04-18T09:40:53.747Z</time></trkpt><trkpt lat="44.156095" lon="11.3670833"><ele>775.4</ele><time>2026-04-18T09:40:55.748Z</time></trkpt><trkpt lat="44.15604" lon="11.3671267"><ele>773.1999999999999</ele><time>2026-04-18T09:40:56.747Z</time></trkpt><trkpt lat="44.1559333" lon="11.3671667"><ele>771.0</ele><time>2026-04-18T09:40:58.747Z</time></trkpt><trkpt lat="44.1558183" lon="11.3671367"><ele>769.8333333333334</ele><time>2026-04-18T09:41:00.747Z</time></trkpt><trkpt lat="44.1556967" lon="11.36708"><ele>768.6666666666666</ele><time>2026-04-18T09:41:02.748Z</time></trkpt><trkpt lat="44.1556317" lon="11.367065"><ele>767.5</ele><time>2026-04-18T09:41:03.747Z</time></trkpt><trkpt lat="44.1555633" lon="11.3670583"><ele>766.3333333333333</ele><time>2026-04-18T09:41:04.747Z</time></trkpt><trkpt lat="44.1554967" lon="11.36704"><ele>765.1666666666666</ele><time>2026-04-18T09:41:05.748Z</time></trkpt><trkpt lat="44.1554317" lon="11.3670233"><ele>764.0</ele><time>2026-04-18T09:41:06.747Z</time></trkpt><trkpt lat="44.1553167" lon="11.3669983"><ele>764.0</ele><time>2026-04-18T09:41:08.747Z</time></trkpt><trkpt lat="44.1552333" lon="11.3670583"><ele>764.0</ele><time>2026-04-18T09:41:10.748Z</time></trkpt><trkpt lat="44.1551617" lon="11.3671833"><ele>764.0</ele><time>2026-04-18T09:41:12.747Z</time></trkpt><trkpt lat="44.1551233" lon="11.367255"><ele>764.0</ele><time>2026-04-18T09:41:13.747Z</time></trkpt><trkpt lat="44.1550867" lon="11.3673317"><ele>764.0</ele><time>2026-04-18T09:41:14.747Z</time></trkpt><trkpt lat="44.1550517" lon="11.367405"><ele>764.0</ele><time>2026-04-18T09:41:15.748Z</time></trkpt><trkpt lat="44.15502" lon="11.3674967"><ele>763.1666666666666</ele><time>2026-04-18T09:41:16.747Z</time></trkpt><trkpt lat="44.15498" lon="11.3675783"><ele>762.3333333333333</ele><time>2026-04-18T09:41:17.748Z</time></trkpt><trkpt lat="44.1549367" lon="11.3676533"><ele>761.5</ele><time>2026-04-18T09:41:18.747Z</time></trkpt><trkpt lat="44.1548867" lon="11.367715"><ele>760.6666666666666</ele><time>2026-04-18T09:41:19.748Z</time></trkpt><trkpt lat="44.1548317" lon="11.367765"><ele>759.8333333333334</ele><time>2026-04-18T09:41:20.747Z</time></trkpt><trkpt lat="44.15474" lon="11.367805"><ele>759.0</ele><time>2026-04-18T09:41:22.748Z</time></trkpt><trkpt lat="44.1546633" lon="11.367745"><ele>756.8333333333334</ele><time>2026-04-18T09:41:24.747Z</time></trkpt><trkpt lat="44.154605" lon="11.3676417"><ele>754.6666666666666</ele><time>2026-04-18T09:41:26.748Z</time></trkpt><trkpt lat="44.154545" lon="11.3674933"><ele>752.5</ele><time>2026-04-18T09:41:28.748Z</time></trkpt><trkpt lat="44.1545067" lon="11.3674117"><ele>750.3333333333333</ele><time>2026-04-18T09:41:29.747Z</time></trkpt><trkpt lat="44.154465" lon="11.3673417"><ele>748.1666666666666</ele><time>2026-04-18T09:41:30.748Z</time></trkpt><trkpt lat="44.1544117" lon="11.36728"><ele>746.0</ele><time>2026-04-18T09:41:31.747Z</time></trkpt><trkpt lat="44.1543467" lon="11.3672283"><ele>747.5</ele><time>2026-04-18T09:41:32.747Z</time></trkpt><trkpt lat="44.1542817" lon="11.367175"><ele>749.0</ele><time>2026-04-18T09:41:33.747Z</time></trkpt><trkpt lat="44.1542167" lon="11.367125"><ele>750.5</ele><time>2026-04-18T09:41:34.747Z</time></trkpt><trkpt lat="44.1541483" lon="11.3670833"><ele>752.0</ele><time>2026-04-18T09:41:35.747Z</time></trkpt><trkpt lat="44.15407" lon="11.3670683"><ele>753.5</ele><time>2026-04-18T09:41:36.748Z</time></trkpt><trkpt lat="44.15399" lon="11.36708"><ele>755.0</ele><time>2026-04-18T09:41:37.747Z</time></trkpt><trkpt lat="44.1539183" lon="11.3671"><ele>751.4</ele><time>2026-04-18T09:41:38.747Z</time></trkpt><trkpt lat="44.153805" lon="11.367165"><ele>747.8</ele><time>2026-04-18T09:41:40.747Z</time></trkpt><trkpt lat="44.1536967" lon="11.3672517"><ele>744.2</ele><time>2026-04-18T09:41:42.747Z</time></trkpt><trkpt lat="44.15364" lon="11.3672967"><ele>740.6</ele><time>2026-04-18T09:41:43.747Z</time></trkpt><trkpt lat="44.1535417" lon="11.367375"><ele>737.0</ele><time>2026-04-18T09:41:45.748Z</time></trkpt><trkpt lat="44.15343" lon="11.3674167"><ele>735.6</ele><time>2026-04-18T09:41:47.748Z</time></trkpt><trkpt lat="44.1533167" lon="11.3674367"><ele>734.2</ele><time>2026-04-18T09:41:49.748Z</time></trkpt><trkpt lat="44.1532367" lon="11.367445"><ele>732.8</ele><time>2026-04-18T09:41:50.747Z</time></trkpt><trkpt lat="44.153145" lon="11.36746"><ele>731.4</ele><time>2026-04-18T09:41:51.748Z</time></trkpt><trkpt lat="44.1530617" lon="11.3674733"><ele>730.0</ele><time>2026-04-18T09:41:52.747Z</time></trkpt><trkpt lat="44.1529783" lon="11.3674983"><ele>727.6</ele><time>2026-04-18T09:41:53.748Z</time></trkpt><trkpt lat="44.1529017" lon="11.3675317"><ele>725.2</ele><time>2026-04-18T09:41:54.746Z</time></trkpt><trkpt lat="44.1528333" lon="11.3675667"><ele>722.8</ele><time>2026-04-18T09:41:55.746Z</time></trkpt><trkpt lat="44.1527617" lon="11.3675967"><ele>720.4</ele><time>2026-04-18T09:41:56.746Z</time></trkpt><trkpt lat="44.1526417" lon="11.367625"><ele>718.0</ele><time>2026-04-18T09:41:58.747Z</time></trkpt><trkpt lat="44.1525183" lon="11.36762"><ele>718.0</ele><time>2026-04-18T09:42:00.747Z</time></trkpt><trkpt lat="44.1524517" lon="11.3676383"><ele>718.0</ele><time>2026-04-18T09:42:01.746Z</time></trkpt><trkpt lat="44.1523833" lon="11.367665"><ele>718.0</ele><time>2026-04-18T09:42:02.746Z</time></trkpt><trkpt lat="44.1523183" lon="11.3676917"><ele>718.0</ele><time>2026-04-18T09:42:03.746Z</time></trkpt><trkpt lat="44.15221" lon="11.3677233"><ele>718.0</ele><time>2026-04-18T09:42:05.747Z</time></trkpt><trkpt lat="44.152095" lon="11.367695"><ele>718.0</ele><time>2026-04-18T09:42:07.746Z</time></trkpt><trkpt lat="44.15204" lon="11.3676517"><ele>715.5714285714286</ele><time>2026-04-18T09:42:08.747Z</time></trkpt><trkpt lat="44.1519867" lon="11.367585"><ele>713.1428571428571</ele><time>2026-04-18T09:42:09.746Z</time></trkpt><trkpt lat="44.1519333" lon="11.36752"><ele>710.7142857142858</ele><time>2026-04-18T09:42:10.746Z</time></trkpt><trkpt lat="44.15188" lon="11.367455"><ele>708.2857142857142</ele><time>2026-04-18T09:42:11.746Z</time></trkpt><trkpt lat="44.1518183" lon="11.3673967"><ele>705.8571428571428</ele><time>2026-04-18T09:42:12.746Z</time></trkpt><trkpt lat="44.1517467" lon="11.36736"><ele>703.4285714285714</ele><time>2026-04-18T09:42:13.747Z</time></trkpt><trkpt lat="44.1516817" lon="11.3673267"><ele>701.0</ele><time>2026-04-18T09:42:14.747Z</time></trkpt><trkpt lat="44.15162" lon="11.3672933"><ele>701.0</ele><time>2026-04-18T09:42:15.747Z</time></trkpt><trkpt lat="44.1515467" lon="11.3672733"><ele>701.0</ele><time>2026-04-18T09:42:16.747Z</time></trkpt><trkpt lat="44.1514583" lon="11.3672633"><ele>701.0</ele><time>2026-04-18T09:42:17.747Z</time></trkpt><trkpt lat="44.1513567" lon="11.3672667"><ele>701.0</ele><time>2026-04-18T09:42:18.746Z</time></trkpt><trkpt lat="44.15126" lon="11.36726"><ele>701.0</ele><time>2026-04-18T09:42:19.746Z</time></trkpt><trkpt lat="44.1511633" lon="11.3672717"><ele>699.1666666666666</ele><time>2026-04-18T09:42:20.746Z</time></trkpt><trkpt lat="44.1510817" lon="11.367295"><ele>697.3333333333333</ele><time>2026-04-18T09:42:21.746Z</time></trkpt><trkpt lat="44.1509933" lon="11.36733"><ele>695.5</ele><time>2026-04-18T09:42:22.747Z</time></trkpt><trkpt lat="44.1509" lon="11.36736"><ele>693.6666666666666</ele><time>2026-04-18T09:42:23.746Z</time></trkpt><trkpt lat="44.15082" lon="11.367375"><ele>691.8333333333334</ele><time>2026-04-18T09:42:24.746Z</time></trkpt><trkpt lat="44.1507383" lon="11.36739"><ele>690.0</ele><time>2026-04-18T09:42:25.746Z</time></trkpt><trkpt lat="44.150665" lon="11.3674133"><ele>688.3333333333334</ele><time>2026-04-18T09:42:26.746Z</time></trkpt><trkpt lat="44.1505983" lon="11.36742"><ele>686.6666666666666</ele><time>2026-04-18T09:42:27.747Z</time></trkpt><trkpt lat="44.1505267" lon="11.36741"><ele>685.0</ele><time>2026-04-18T09:42:28.746Z</time></trkpt><trkpt lat="44.1504583" lon="11.3673833"><ele>683.3333333333333</ele><time>2026-04-18T09:42:29.746Z</time></trkpt><trkpt lat="44.1503867" lon="11.3673333"><ele>681.6666666666666</ele><time>2026-04-18T09:42:30.746Z</time></trkpt><trkpt lat="44.1503133" lon="11.367275"><ele>680.0</ele><time>2026-04-18T09:42:31.746Z</time></trkpt><trkpt lat="44.1502267" lon="11.3672167"><ele>680.1666666666666</ele><time>2026-04-18T09:42:32.746Z</time></trkpt><trkpt lat="44.1501317" lon="11.3671583"><ele>680.3333333333333</ele><time>2026-04-18T09:42:33.746Z</time></trkpt><trkpt lat="44.150055" lon="11.3671117"><ele>680.5</ele><time>2026-04-18T09:42:34.746Z</time></trkpt><trkpt lat="44.1499767" lon="11.36707"><ele>680.6666666666666</ele><time>2026-04-18T09:42:35.747Z</time></trkpt><trkpt lat="44.1499067" lon="11.3670367"><ele>680.8333333333334</ele><time>2026-04-18T09:42:36.747Z</time></trkpt><trkpt lat="44.1498433" lon="11.3669883"><ele>681.0</ele><time>2026-04-18T09:42:37.747Z</time></trkpt><trkpt lat="44.1497883" lon="11.3669333"><ele>679.6666666666666</ele><time>2026-04-18T09:42:38.746Z</time></trkpt><trkpt lat="44.1497417" lon="11.3668733"><ele>678.3333333333334</ele><time>2026-04-18T09:42:39.746Z</time></trkpt><trkpt lat="44.149645" lon="11.366795"><ele>677.0</ele><time>2026-04-18T09:42:41.747Z</time></trkpt><trkpt lat="44.149575" lon="11.3667633"><ele>675.6666666666667</ele><time>2026-04-18T09:42:42.747Z</time></trkpt><trkpt lat="44.1494933" lon="11.3667433"><ele>674.3333333333334</ele><time>2026-04-18T09:42:43.747Z</time></trkpt><trkpt lat="44.14942" lon="11.366725"><ele>673.0</ele><time>2026-04-18T09:42:44.747Z</time></trkpt><trkpt lat="44.1493533" lon="11.366715"><ele>673.0</ele><time>2026-04-18T09:42:45.746Z</time></trkpt><trkpt lat="44.1492867" lon="11.36672"><ele>673.0</ele><time>2026-04-18T09:42:46.746Z</time></trkpt><trkpt lat="44.1492233" lon="11.36674"><ele>673.0</ele><time>2026-04-18T09:42:47.746Z</time></trkpt><trkpt lat="44.14916" lon="11.3667767"><ele>673.0</ele><time>2026-04-18T09:42:48.746Z</time></trkpt><trkpt lat="44.149095" lon="11.3668133"><ele>673.0</ele><time>2026-04-18T09:42:49.746Z</time></trkpt><trkpt lat="44.148985" lon="11.3668067"><ele>673.0</ele><time>2026-04-18T09:42:51.747Z</time></trkpt><trkpt lat="44.148865" lon="11.3667317"><ele>671.3333333333334</ele><time>2026-04-18T09:42:53.746Z</time></trkpt><trkpt lat="44.1487883" lon="11.3666967"><ele>669.6666666666667</ele><time>2026-04-18T09:42:54.746Z</time></trkpt><trkpt lat="44.14871" lon="11.3666483"><ele>668.0</ele><time>2026-04-18T09:42:55.747Z</time></trkpt><trkpt lat="44.1486367" lon="11.3666083"><ele>666.3333333333334</ele><time>2026-04-18T09:42:56.747Z</time></trkpt><trkpt lat="44.1485683" lon="11.3665683"><ele>664.6666666666666</ele><time>2026-04-18T09:42:57.746Z</time></trkpt><trkpt lat="44.148505" lon="11.36653"><ele>663.0</ele><time>2026-04-18T09:42:58.746Z</time></trkpt><trkpt lat="44.1484317" lon="11.3664517"><ele>663.0</ele><time>2026-04-18T09:43:00.746Z</time></trkpt><trkpt lat="44.14839" lon="11.366385"><ele>663.0</ele><time>2026-04-18T09:43:02.747Z</time></trkpt><trkpt lat="44.1483717" lon="11.366295"><ele>663.0</ele><time>2026-04-18T09:43:04.747Z</time></trkpt><trkpt lat="44.1483367" lon="11.3661817"><ele>663.0</ele><time>2026-04-18T09:43:07.746Z</time></trkpt><trkpt lat="44.1482867" lon="11.366095"><ele>663.0</ele><time>2026-04-18T09:43:09.747Z</time></trkpt><trkpt lat="44.1482133" lon="11.3660183"><ele>663.0</ele><time>2026-04-18T09:43:11.747Z</time></trkpt><trkpt lat="44.14812" lon="11.3659933"><ele>660.8333333333334</ele><time>2026-04-18T09:43:13.746Z</time></trkpt><trkpt lat="44.148035" lon="11.3660267"><ele>658.6666666666666</ele><time>2026-04-18T09:43:15.747Z</time></trkpt><trkpt lat="44.1479667" lon="11.366085"><ele>656.5</ele><time>2026-04-18T09:43:17.746Z</time></trkpt><trkpt lat="44.1478983" lon="11.3661383"><ele>654.3333333333333</ele><time>2026-04-18T09:43:19.746Z</time></trkpt><trkpt lat="44.1478217" lon="11.36616"><ele>652.1666666666666</ele><time>2026-04-18T09:43:21.747Z</time></trkpt><trkpt lat="44.147705" lon="11.3661333"><ele>650.0</ele><time>2026-04-18T09:43:23.746Z</time></trkpt><trkpt lat="44.1476183" lon="11.3660867"><ele>650.0</ele><time>2026-04-18T09:43:24.746Z</time></trkpt><trkpt lat="44.1475267" lon="11.36604"><ele>650.0</ele><time>2026-04-18T09:43:25.747Z</time></trkpt><trkpt lat="44.14744" lon="11.3660033"><ele>650.0</ele><time>2026-04-18T09:43:26.747Z</time></trkpt><trkpt lat="44.147365" lon="11.3659683"><ele>650.0</ele><time>2026-04-18T09:43:27.747Z</time></trkpt><trkpt lat="44.14725" lon="11.3659167"><ele>650.0</ele><time>2026-04-18T09:43:29.746Z</time></trkpt><trkpt lat="44.1471883" lon="11.36587"><ele>648.0</ele><time>2026-04-18T09:43:30.746Z</time></trkpt><trkpt lat="44.1471233" lon="11.365825"><ele>646.0</ele><time>2026-04-18T09:43:31.747Z</time></trkpt><trkpt lat="44.1470517" lon="11.3657867"><ele>644.0</ele><time>2026-04-18T09:43:32.746Z</time></trkpt><trkpt lat="44.146975" lon="11.3657517"><ele>642.0</ele><time>2026-04-18T09:43:33.746Z</time></trkpt><trkpt lat="44.1469117" lon="11.365725"><ele>640.0</ele><time>2026-04-18T09:43:34.746Z</time></trkpt><trkpt lat="44.1467883" lon="11.365735"><ele>638.0</ele><time>2026-04-18T09:43:36.746Z</time></trkpt><trkpt lat="44.146715" lon="11.3657633"><ele>638.0</ele><time>2026-04-18T09:43:37.746Z</time></trkpt><trkpt lat="44.146625" lon="11.365805"><ele>638.0</ele><time>2026-04-18T09:43:38.747Z</time></trkpt><trkpt lat="44.1465383" lon="11.3658433"><ele>638.0</ele><time>2026-04-18T09:43:39.746Z</time></trkpt><trkpt lat="44.1464517" lon="11.3658883"><ele>638.0</ele><time>2026-04-18T09:43:40.746Z</time></trkpt><trkpt lat="44.146365" lon="11.3659267"><ele>638.0</ele><time>2026-04-18T09:43:41.747Z</time></trkpt><trkpt lat="44.146285" lon="11.365965"><ele>636.0</ele><time>2026-04-18T09:43:42.746Z</time></trkpt><trkpt lat="44.146215" lon="11.365995"><ele>634.0</ele><time>2026-04-18T09:43:43.747Z</time></trkpt><trkpt lat="44.146145" lon="11.3660283"><ele>632.0</ele><time>2026-04-18T09:43:44.746Z</time></trkpt><trkpt lat="44.14606" lon="11.3660467"><ele>630.0</ele><time>2026-04-18T09:43:46.746Z</time></trkpt><trkpt lat="44.14598" lon="11.3660367"><ele>628.0</ele><time>2026-04-18T09:43:48.747Z</time></trkpt><trkpt lat="44.145875" lon="11.366"><ele>626.0</ele><time>2026-04-18T09:43:50.746Z</time></trkpt><trkpt lat="44.145775" lon="11.36597"><ele>623.8</ele><time>2026-04-18T09:43:52.746Z</time></trkpt><trkpt lat="44.145665" lon="11.3659167"><ele>621.6</ele><time>2026-04-18T09:43:54.746Z</time></trkpt><trkpt lat="44.1455667" lon="11.3658583"><ele>619.4</ele><time>2026-04-18T09:43:56.746Z</time></trkpt><trkpt lat="44.1455083" lon="11.3658"><ele>617.2</ele><time>2026-04-18T09:43:58.746Z</time></trkpt><trkpt lat="44.145445" lon="11.365705"><ele>615.0</ele><time>2026-04-18T09:44:00.747Z</time></trkpt><trkpt lat="44.1453533" lon="11.3655683"><ele>614.0</ele><time>2026-04-18T09:44:02.746Z</time></trkpt><trkpt lat="44.1453017" lon="11.365485"><ele>613.0</ele><time>2026-04-18T09:44:03.747Z</time></trkpt><trkpt lat="44.145255" lon="11.3654167"><ele>612.0</ele><time>2026-04-18T09:44:04.747Z</time></trkpt><trkpt lat="44.1451667" lon="11.3652917"><ele>611.0</ele><time>2026-04-18T09:44:06.747Z</time></trkpt><trkpt lat="44.1450767" lon="11.3652283"><ele>610.0</ele><time>2026-04-18T09:44:08.746Z</time></trkpt><trkpt lat="44.1449867" lon="11.36526"><ele>610.0</ele><time>2026-04-18T09:44:10.747Z</time></trkpt><trkpt lat="44.1448983" lon="11.3652983"><ele>610.0</ele><time>2026-04-18T09:44:12.746Z</time></trkpt><trkpt lat="44.1447883" lon="11.3652817"><ele>610.0</ele><time>2026-04-18T09:44:14.747Z</time></trkpt><trkpt lat="44.144725" lon="11.3652683"><ele>610.0</ele><time>2026-04-18T09:44:15.746Z</time></trkpt><trkpt lat="44.1446083" lon="11.3652717"><ele>610.0</ele><time>2026-04-18T09:44:17.746Z</time></trkpt><trkpt lat="44.1445033" lon="11.36531"><ele>607.4</ele><time>2026-04-18T09:44:19.746Z</time></trkpt><trkpt lat="44.1444267" lon="11.3653633"><ele>604.8</ele><time>2026-04-18T09:44:21.746Z</time></trkpt><trkpt lat="44.1443467" lon="11.36547"><ele>602.2</ele><time>2026-04-18T09:44:23.747Z</time></trkpt><trkpt lat="44.14427" lon="11.3655583"><ele>599.6</ele><time>2026-04-18T09:44:25.747Z</time></trkpt><trkpt lat="44.14418" lon="11.36563"><ele>597.0</ele><time>2026-04-18T09:44:27.747Z</time></trkpt><trkpt lat="44.1440933" lon="11.36568"><ele>593.7142857142858</ele><time>2026-04-18T09:44:29.746Z</time></trkpt><trkpt lat="44.1440317" lon="11.3657033"><ele>590.4285714285714</ele><time>2026-04-18T09:44:31.746Z</time></trkpt><trkpt lat="44.14396" lon="11.3656933"><ele>587.1428571428571</ele><time>2026-04-18T09:44:33.747Z</time></trkpt><trkpt lat="44.1438933" lon="11.3656367"><ele>583.8571428571429</ele><time>2026-04-18T09:44:35.746Z</time></trkpt><trkpt lat="44.14383" lon="11.3656367"><ele>580.5714285714286</ele><time>2026-04-18T09:44:38.747Z</time></trkpt><trkpt lat="44.1438183" lon="11.36577"><ele>577.2857142857143</ele><time>2026-04-18T09:44:53.746Z</time></trkpt><trkpt lat="44.1438067" lon="11.3658633"><ele>574.0</ele><time>2026-04-18T09:44:54.746Z</time></trkpt><trkpt lat="44.1437933" lon="11.3659617"><ele>574.0</ele><time>2026-04-18T09:44:55.747Z</time></trkpt><trkpt lat="44.1437783" lon="11.366065"><ele>574.0</ele><time>2026-04-18T09:44:56.746Z</time></trkpt><trkpt lat="44.143765" lon="11.3661733"><ele>574.0</ele><time>2026-04-18T09:44:57.746Z</time></trkpt><trkpt lat="44.1437617" lon="11.3662783"><ele>574.0</ele><time>2026-04-18T09:44:58.746Z</time></trkpt><trkpt lat="44.14375" lon="11.3663817"><ele>574.0</ele><time>2026-04-18T09:44:59.746Z</time></trkpt><trkpt lat="44.143725" lon="11.366465"><ele>574.0</ele><time>2026-04-18T09:45:00.746Z</time></trkpt><trkpt lat="44.1436133" lon="11.36657"><ele>573.3333333333334</ele><time>2026-04-18T09:45:02.746Z</time></trkpt><trkpt lat="44.1435533" lon="11.3666217"><ele>572.6666666666667</ele><time>2026-04-18T09:45:03.746Z</time></trkpt><trkpt lat="44.1435033" lon="11.3666867"><ele>572.0</ele><time>2026-04-18T09:45:04.746Z</time></trkpt><trkpt lat="44.14346" lon="11.3667917"><ele>571.3333333333334</ele><time>2026-04-18T09:45:05.746Z</time></trkpt><trkpt lat="44.1434133" lon="11.3669183"><ele>570.6666666666666</ele><time>2026-04-18T09:45:06.746Z</time></trkpt><trkpt lat="44.14336" lon="11.3670533"><ele>570.0</ele><time>2026-04-18T09:45:07.747Z</time></trkpt><trkpt lat="44.1432983" lon="11.3671733"><ele>569.8</ele><time>2026-04-18T09:45:08.746Z</time></trkpt><trkpt lat="44.143235" lon="11.36727"><ele>569.6</ele><time>2026-04-18T09:45:09.746Z</time></trkpt><trkpt lat="44.1431617" lon="11.36735"><ele>569.4</ele><time>2026-04-18T09:45:10.746Z</time></trkpt><trkpt lat="44.1430667" lon="11.3674267"><ele>569.2</ele><time>2026-04-18T09:45:11.746Z</time></trkpt><trkpt lat="44.1429583" lon="11.3675033"><ele>569.0</ele><time>2026-04-18T09:45:12.746Z</time></trkpt><trkpt lat="44.14285" lon="11.3675733"><ele>567.0</ele><time>2026-04-18T09:45:13.746Z</time></trkpt><trkpt lat="44.1427517" lon="11.3676317"><ele>565.0</ele><time>2026-04-18T09:45:14.747Z</time></trkpt><trkpt lat="44.1426617" lon="11.367685"><ele>563.0</ele><time>2026-04-18T09:45:15.746Z</time></trkpt><trkpt lat="44.14259" lon="11.3677367"><ele>561.0</ele><time>2026-04-18T09:45:16.746Z</time></trkpt><trkpt lat="44.142525" lon="11.3678"><ele>559.0</ele><time>2026-04-18T09:45:17.745Z</time></trkpt><trkpt lat="44.1424667" lon="11.3678933"><ele>559.0</ele><time>2026-04-18T09:45:18.745Z</time></trkpt><trkpt lat="44.142415" lon="11.3679917"><ele>559.0</ele><time>2026-04-18T09:45:19.745Z</time></trkpt><trkpt lat="44.1423517" lon="11.3680833"><ele>559.0</ele><time>2026-04-18T09:45:20.746Z</time></trkpt><trkpt lat="44.1422783" lon="11.368165"><ele>559.0</ele><time>2026-04-18T09:45:21.746Z</time></trkpt><trkpt lat="44.1421933" lon="11.3682567"><ele>559.0</ele><time>2026-04-18T09:45:22.745Z</time></trkpt><trkpt lat="44.142105" lon="11.3683417"><ele>555.8</ele><time>2026-04-18T09:45:23.745Z</time></trkpt><trkpt lat="44.1419983" lon="11.36844"><ele>552.5999999999999</ele><time>2026-04-18T09:45:24.745Z</time></trkpt><trkpt lat="44.1419083" lon="11.368535"><ele>549.4</ele><time>2026-04-18T09:45:25.746Z</time></trkpt><trkpt lat="44.1418283" lon="11.3686267"><ele>546.1999999999999</ele><time>2026-04-18T09:45:26.746Z</time></trkpt><trkpt lat="44.1417583" lon="11.3687133"><ele>543.0</ele><time>2026-04-18T09:45:27.746Z</time></trkpt><trkpt lat="44.1417033" lon="11.3688"><ele>542.3333333333334</ele><time>2026-04-18T09:45:28.746Z</time></trkpt><trkpt lat="44.14166" lon="11.3688917"><ele>541.6666666666666</ele><time>2026-04-18T09:45:29.745Z</time></trkpt><trkpt lat="44.141615" lon="11.3689967"><ele>541.0</ele><time>2026-04-18T09:45:30.745Z</time></trkpt><trkpt lat="44.1415633" lon="11.3691183"><ele>540.3333333333333</ele><time>2026-04-18T09:45:31.746Z</time></trkpt><trkpt lat="44.1415133" lon="11.3692233"><ele>539.6666666666666</ele><time>2026-04-18T09:45:32.746Z</time></trkpt><trkpt lat="44.1414617" lon="11.3693217"><ele>539.0</ele><time>2026-04-18T09:45:33.745Z</time></trkpt><trkpt lat="44.1414133" lon="11.3694117"><ele>537.1428571428571</ele><time>2026-04-18T09:45:34.745Z</time></trkpt><trkpt lat="44.1413667" lon="11.369485"><ele>535.2857142857142</ele><time>2026-04-18T09:45:35.745Z</time></trkpt><trkpt lat="44.1413217" lon="11.3695583"><ele>533.4285714285714</ele><time>2026-04-18T09:45:36.745Z</time></trkpt><trkpt lat="44.1412717" lon="11.369615"><ele>531.5714285714286</ele><time>2026-04-18T09:45:37.745Z</time></trkpt><trkpt lat="44.1412133" lon="11.3696667"><ele>529.7142857142857</ele><time>2026-04-18T09:45:38.746Z</time></trkpt><trkpt lat="44.1411467" lon="11.369685"><ele>527.8571428571429</ele><time>2026-04-18T09:45:39.746Z</time></trkpt><trkpt lat="44.1410683" lon="11.36969"><ele>526.0</ele><time>2026-04-18T09:45:40.746Z</time></trkpt><trkpt lat="44.140985" lon="11.36968"><ele>526.0</ele><time>2026-04-18T09:45:41.746Z</time></trkpt><trkpt lat="44.1409017" lon="11.3696667"><ele>526.0</ele><time>2026-04-18T09:45:42.746Z</time></trkpt><trkpt lat="44.140815" lon="11.36965"><ele>526.0</ele><time>2026-04-18T09:45:43.745Z</time></trkpt><trkpt lat="44.1407333" lon="11.369625"><ele>526.0</ele><time>2026-04-18T09:45:44.746Z</time></trkpt><trkpt lat="44.14066" lon="11.36958"><ele>526.0</ele><time>2026-04-18T09:45:45.745Z</time></trkpt><trkpt lat="44.140595" lon="11.3695267"><ele>526.0</ele><time>2026-04-18T09:45:46.745Z</time></trkpt><trkpt lat="44.1405317" lon="11.369465"><ele>523.0</ele><time>2026-04-18T09:45:47.746Z</time></trkpt><trkpt lat="44.14046" lon="11.3693983"><ele>520.0</ele><time>2026-04-18T09:45:48.746Z</time></trkpt><trkpt lat="44.1403933" lon="11.3693283"><ele>517.0</ele><time>2026-04-18T09:45:49.745Z</time></trkpt><trkpt lat="44.1403267" lon="11.369255"><ele>514.0</ele><time>2026-04-18T09:45:50.745Z</time></trkpt><trkpt lat="44.1402633" lon="11.369195"><ele>511.00000000000006</ele><time>2026-04-18T09:45:51.745Z</time></trkpt><trkpt lat="44.140205" lon="11.3691417"><ele>508.0</ele><time>2026-04-18T09:45:52.745Z</time></trkpt><trkpt lat="44.1401483" lon="11.3690933"><ele>508.00000000000006</ele><time>2026-04-18T09:45:53.745Z</time></trkpt><trkpt lat="44.14007" lon="11.3690233"><ele>508.0</ele><time>2026-04-18T09:45:55.746Z</time></trkpt><trkpt lat="44.1399767" lon="11.3689783"><ele>508.0</ele><time>2026-04-18T09:47:48.745Z</time></trkpt><trkpt lat="44.1399117" lon="11.36893"><ele>508.0</ele><time>2026-04-18T09:48:05.745Z</time></trkpt><trkpt lat="44.1398933" lon="11.3688"><ele>508.00000000000006</ele><time>2026-04-18T09:48:08.746Z</time></trkpt><trkpt lat="44.1399017" lon="11.3686883"><ele>508.0</ele><time>2026-04-18T09:48:10.745Z</time></trkpt><trkpt lat="44.13989" lon="11.368575"><ele>507.83333333333337</ele><time>2026-04-18T09:48:13.745Z</time></trkpt><trkpt lat="44.139885" lon="11.368465"><ele>507.6666666666667</ele><time>2026-04-18T09:48:17.745Z</time></trkpt><trkpt lat="44.1398917" lon="11.3683767"><ele>507.5</ele><time>2026-04-18T09:48:20.744Z</time></trkpt><trkpt lat="44.139905" lon="11.3682633"><ele>507.33333333333337</ele><time>2026-04-18T09:48:23.745Z</time></trkpt><trkpt lat="44.13988" lon="11.36818"><ele>507.1666666666667</ele><time>2026-04-18T09:48:27.744Z</time></trkpt><trkpt lat="44.1398017" lon="11.3681633"><ele>507.0</ele><time>2026-04-18T09:48:31.744Z</time></trkpt><trkpt lat="44.1397383" lon="11.368235"><ele>504.5</ele><time>2026-04-18T09:48:35.745Z</time></trkpt><trkpt lat="44.1396817" lon="11.368305"><ele>502.0</ele><time>2026-04-18T09:48:38.744Z</time></trkpt><trkpt lat="44.1396" lon="11.36838"><ele>499.5</ele><time>2026-04-18T09:50:23.744Z</time></trkpt><trkpt lat="44.13953" lon="11.368445"><ele>497.0</ele><time>2026-04-18T09:50:26.744Z</time></trkpt><trkpt lat="44.1394683" lon="11.3685017"><ele>494.5</ele><time>2026-04-18T09:50:29.744Z</time></trkpt><trkpt lat="44.139415" lon="11.3685833"><ele>492.0</ele><time>2026-04-18T09:50:40.745Z</time></trkpt><trkpt lat="44.139395" lon="11.36869"><ele>492.0</ele><time>2026-04-18T09:50:47.744Z</time></trkpt><trkpt lat="44.1393767" lon="11.3688017"><ele>492.0</ele><time>2026-04-18T09:50:50.744Z</time></trkpt><trkpt lat="44.1393183" lon="11.3689133"><ele>492.0</ele><time>2026-04-18T09:50:52.745Z</time></trkpt><trkpt lat="44.1392617" lon="11.369025"><ele>492.0</ele><time>2026-04-18T09:50:54.745Z</time></trkpt><trkpt lat="44.1392117" lon="11.3690983"><ele>492.0</ele><time>2026-04-18T09:50:56.745Z</time></trkpt><trkpt lat="44.1391517" lon="11.3691317"><ele>492.0</ele><time>2026-04-18T09:50:58.745Z</time></trkpt><trkpt lat="44.1390717" lon="11.3691483"><ele>491.5</ele><time>2026-04-18T09:51:00.745Z</time></trkpt><trkpt lat="44.138995" lon="11.3690967"><ele>491.0</ele><time>2026-04-18T09:51:02.745Z</time></trkpt><trkpt lat="44.1389683" lon="11.3689967"><ele>490.5</ele><time>2026-04-18T09:51:04.745Z</time></trkpt><trkpt lat="44.13895" lon="11.3688783"><ele>490.0</ele><time>2026-04-18T09:51:06.744Z</time></trkpt><trkpt lat="44.138895" lon="11.3687283"><ele>489.5</ele><time>2026-04-18T09:51:08.745Z</time></trkpt><trkpt lat="44.138865" lon="11.368635"><ele>489.0</ele><time>2026-04-18T09:51:09.744Z</time></trkpt><trkpt lat="44.1388083" lon="11.368535"><ele>489.0</ele><time>2026-04-18T09:51:11.743Z</time></trkpt><trkpt lat="44.1387283" lon="11.36854"><ele>489.0</ele><time>2026-04-18T09:51:13.743Z</time></trkpt><trkpt lat="44.138615" lon="11.3685983"><ele>489.0</ele><time>2026-04-18T09:51:15.743Z</time></trkpt><trkpt lat="44.138545" lon="11.3686133"><ele>489.0</ele><time>2026-04-18T09:51:16.743Z</time></trkpt><trkpt lat="44.138475" lon="11.3686133"><ele>489.0</ele><time>2026-04-18T09:51:17.743Z</time></trkpt><trkpt lat="44.1383967" lon="11.368605"><ele>489.0</ele><time>2026-04-18T09:51:18.744Z</time></trkpt><trkpt lat="44.1383183" lon="11.3686067"><ele>489.0</ele><time>2026-04-18T09:51:19.743Z</time></trkpt><trkpt lat="44.13824" lon="11.3686217"><ele>489.00000000000006</ele><time>2026-04-18T09:51:20.744Z</time></trkpt><trkpt lat="44.13817" lon="11.3686517"><ele>489.0</ele><time>2026-04-18T09:51:21.743Z</time></trkpt><trkpt lat="44.138115" lon="11.3687067"><ele>489.0</ele><time>2026-04-18T09:51:22.743Z</time></trkpt><trkpt lat="44.138075" lon="11.3687817"><ele>489.00000000000006</ele><time>2026-04-18T09:51:23.743Z</time></trkpt><trkpt lat="44.1380533" lon="11.3688683"><ele>489.0</ele><time>2026-04-18T09:51:24.744Z</time></trkpt><trkpt lat="44.1380433" lon="11.3689567"><ele>489.0</ele><time>2026-04-18T09:51:25.743Z</time></trkpt><trkpt lat="44.1380467" lon="11.36905"><ele>490.5</ele><time>2026-04-18T09:51:26.744Z</time></trkpt><trkpt lat="44.138065" lon="11.36916"><ele>492.0</ele><time>2026-04-18T09:51:27.743Z</time></trkpt><trkpt lat="44.138095" lon="11.369275"><ele>493.5</ele><time>2026-04-18T09:51:28.744Z</time></trkpt><trkpt lat="44.138125" lon="11.3693833"><ele>495.0</ele><time>2026-04-18T09:51:29.744Z</time></trkpt><trkpt lat="44.1381483" lon="11.369495"><ele>496.5</ele><time>2026-04-18T09:51:30.743Z</time></trkpt><trkpt lat="44.1381683" lon="11.36961"><ele>498.0</ele><time>2026-04-18T09:51:31.743Z</time></trkpt><trkpt lat="44.1382" lon="11.3697383"><ele>495.0</ele><time>2026-04-18T09:51:32.743Z</time></trkpt><trkpt lat="44.1382467" lon="11.3698717"><ele>491.99999999999994</ele><time>2026-04-18T09:51:33.744Z</time></trkpt><trkpt lat="44.138295" lon="11.369985"><ele>488.99999999999994</ele><time>2026-04-18T09:51:34.743Z</time></trkpt><trkpt lat="44.1383383" lon="11.3701033"><ele>486.0</ele><time>2026-04-18T09:51:35.743Z</time></trkpt><trkpt lat="44.1383667" lon="11.37022"><ele>483.0</ele><time>2026-04-18T09:51:36.743Z</time></trkpt><trkpt lat="44.1383767" lon="11.3703467"><ele>483.0</ele><time>2026-04-18T09:51:37.743Z</time></trkpt><trkpt lat="44.138375" lon="11.3704767"><ele>482.99999999999994</ele><time>2026-04-18T09:51:38.744Z</time></trkpt><trkpt lat="44.138365" lon="11.3706"><ele>482.99999999999994</ele><time>2026-04-18T09:51:39.744Z</time></trkpt><trkpt lat="44.138345" lon="11.370725"><ele>483.0</ele><time>2026-04-18T09:51:40.744Z</time></trkpt><trkpt lat="44.1383283" lon="11.3708517"><ele>483.0</ele><time>2026-04-18T09:51:41.744Z</time></trkpt><trkpt lat="44.1383083" lon="11.370985"><ele>483.0</ele><time>2026-04-18T09:51:42.743Z</time></trkpt><trkpt lat="44.1382783" lon="11.3711467"><ele>482.99999999999994</ele><time>2026-04-18T09:51:43.743Z</time></trkpt><trkpt lat="44.1382533" lon="11.3713"><ele>482.99999999999994</ele><time>2026-04-18T09:51:44.743Z</time></trkpt><trkpt lat="44.138225" lon="11.3714367"><ele>483.0</ele><time>2026-04-18T09:51:45.743Z</time></trkpt><trkpt lat="44.1381933" lon="11.3715633"><ele>483.0</ele><time>2026-04-18T09:51:46.744Z</time></trkpt><trkpt lat="44.1381617" lon="11.3716867"><ele>484.2</ele><time>2026-04-18T09:51:47.744Z</time></trkpt><trkpt lat="44.1381417" lon="11.3718067"><ele>485.4</ele><time>2026-04-18T09:51:48.744Z</time></trkpt><trkpt lat="44.138135" lon="11.3719283"><ele>486.59999999999997</ele><time>2026-04-18T09:51:49.744Z</time></trkpt><trkpt lat="44.1381383" lon="11.3720583"><ele>487.79999999999995</ele><time>2026-04-18T09:51:50.744Z</time></trkpt><trkpt lat="44.138145" lon="11.3722"><ele>489.0</ele><time>2026-04-18T09:51:51.744Z</time></trkpt><trkpt lat="44.1381633" lon="11.3723733"><ele>489.0</ele><time>2026-04-18T09:51:52.743Z</time></trkpt><trkpt lat="44.1381767" lon="11.372545"><ele>489.0</ele><time>2026-04-18T09:51:53.744Z</time></trkpt><trkpt lat="44.1381883" lon="11.3727"><ele>489.0</ele><time>2026-04-18T09:51:54.744Z</time></trkpt><trkpt lat="44.1381867" lon="11.372845"><ele>489.0</ele><time>2026-04-18T09:51:55.743Z</time></trkpt><trkpt lat="44.1381817" lon="11.3729967"><ele>489.0</ele><time>2026-04-18T09:51:56.743Z</time></trkpt><trkpt lat="44.13816" lon="11.3731667"><ele>488.75</ele><time>2026-04-18T09:51:57.743Z</time></trkpt><trkpt lat="44.13814" lon="11.3733333"><ele>488.5</ele><time>2026-04-18T09:51:58.743Z</time></trkpt><trkpt lat="44.138125" lon="11.37349"><ele>488.25</ele><time>2026-04-18T09:51:59.743Z</time></trkpt><trkpt lat="44.1381217" lon="11.3736467"><ele>488.0</ele><time>2026-04-18T09:52:00.743Z</time></trkpt><trkpt lat="44.1381333" lon="11.373795"><ele>487.75</ele><time>2026-04-18T09:52:01.744Z</time></trkpt><trkpt lat="44.1381583" lon="11.3739533"><ele>487.5</ele><time>2026-04-18T09:52:02.744Z</time></trkpt><trkpt lat="44.1381867" lon="11.3741333"><ele>487.25</ele><time>2026-04-18T09:52:03.743Z</time></trkpt><trkpt lat="44.1382317" lon="11.3743133"><ele>487.0</ele><time>2026-04-18T09:52:04.743Z</time></trkpt><trkpt lat="44.13828" lon="11.3744683"><ele>484.6</ele><time>2026-04-18T09:52:05.743Z</time></trkpt><trkpt lat="44.1383133" lon="11.3746133"><ele>482.20000000000005</ele><time>2026-04-18T09:52:06.743Z</time></trkpt><trkpt lat="44.138335" lon="11.3747467"><ele>479.8</ele><time>2026-04-18T09:52:07.743Z</time></trkpt><trkpt lat="44.1383433" lon="11.3748817"><ele>477.4</ele><time>2026-04-18T09:52:08.744Z</time></trkpt><trkpt lat="44.1383317" lon="11.375005"><ele>475.0</ele><time>2026-04-18T09:52:09.744Z</time></trkpt><trkpt lat="44.1382933" lon="11.3751333"><ele>474.5</ele><time>2026-04-18T09:52:10.744Z</time></trkpt><trkpt lat="44.1382433" lon="11.3752767"><ele>474.0</ele><time>2026-04-18T09:52:11.743Z</time></trkpt><trkpt lat="44.1382017" lon="11.3754233"><ele>473.5</ele><time>2026-04-18T09:52:12.744Z</time></trkpt><trkpt lat="44.1381717" lon="11.37557"><ele>473.0</ele><time>2026-04-18T09:52:13.743Z</time></trkpt><trkpt lat="44.1381467" lon="11.3757317"><ele>478.75</ele><time>2026-04-18T09:52:14.744Z</time></trkpt><trkpt lat="44.1381367" lon="11.375885"><ele>484.5</ele><time>2026-04-18T09:52:15.744Z</time></trkpt><trkpt lat="44.1381417" lon="11.3760267"><ele>490.25</ele><time>2026-04-18T09:52:16.743Z</time></trkpt><trkpt lat="44.13816" lon="11.3761767"><ele>496.0</ele><time>2026-04-18T09:52:17.744Z</time></trkpt><trkpt lat="44.138195" lon="11.37635"><ele>491.6</ele><time>2026-04-18T09:52:18.744Z</time></trkpt><trkpt lat="44.13824" lon="11.3765167"><ele>487.20000000000005</ele><time>2026-04-18T09:52:19.744Z</time></trkpt><trkpt lat="44.1382733" lon="11.37667"><ele>482.79999999999995</ele><time>2026-04-18T09:52:20.744Z</time></trkpt><trkpt lat="44.1382983" lon="11.37681"><ele>478.4</ele><time>2026-04-18T09:52:21.743Z</time></trkpt><trkpt lat="44.1383083" lon="11.3769317"><ele>474.0</ele><time>2026-04-18T09:52:22.743Z</time></trkpt><trkpt lat="44.13832" lon="11.3770683"><ele>474.5</ele><time>2026-04-18T09:52:23.744Z</time></trkpt><trkpt lat="44.1383317" lon="11.37721"><ele>475.0</ele><time>2026-04-18T09:52:24.743Z</time></trkpt><trkpt lat="44.1383633" lon="11.37738"><ele>475.5</ele><time>2026-04-18T09:52:25.743Z</time></trkpt><trkpt lat="44.1384" lon="11.3775683"><ele>476.0</ele><time>2026-04-18T09:52:26.744Z</time></trkpt><trkpt lat="44.1384467" lon="11.377755"><ele>476.0</ele><time>2026-04-18T09:52:27.744Z</time></trkpt><trkpt lat="44.1384917" lon="11.3779217"><ele>476.0</ele><time>2026-04-18T09:52:28.744Z</time></trkpt><trkpt lat="44.138535" lon="11.3780667"><ele>476.0</ele><time>2026-04-18T09:52:29.743Z</time></trkpt><trkpt lat="44.1385683" lon="11.37818"><ele>476.0</ele><time>2026-04-18T09:52:30.743Z</time></trkpt><trkpt lat="44.1385917" lon="11.3782933"><ele>476.0</ele><time>2026-04-18T09:52:31.743Z</time></trkpt><trkpt lat="44.1386033" lon="11.3784133"><ele>476.4</ele><time>2026-04-18T09:52:32.743Z</time></trkpt><trkpt lat="44.138595" lon="11.3785567"><ele>476.8</ele><time>2026-04-18T09:52:33.744Z</time></trkpt><trkpt lat="44.1385817" lon="11.378715"><ele>477.19999999999993</ele><time>2026-04-18T09:52:34.743Z</time></trkpt><trkpt lat="44.1385717" lon="11.3788633"><ele>477.59999999999997</ele><time>2026-04-18T09:52:35.743Z</time></trkpt><trkpt lat="44.1385817" lon="11.3789817"><ele>478.0</ele><time>2026-04-18T09:52:36.743Z</time></trkpt><trkpt lat="44.1386633" lon="11.3791133"><ele>478.59999999999997</ele><time>2026-04-18T09:52:38.744Z</time></trkpt><trkpt lat="44.1387917" lon="11.3791117"><ele>479.19999999999993</ele><time>2026-04-18T09:52:40.744Z</time></trkpt><trkpt lat="44.138855" lon="11.37914"><ele>479.8</ele><time>2026-04-18T09:52:42.743Z</time></trkpt><trkpt lat="44.1388033" lon="11.379225"><ele>480.4</ele><time>2026-04-18T09:52:45.743Z</time></trkpt><trkpt lat="44.1386767" lon="11.3792283"><ele>481.0</ele><time>2026-04-18T09:52:47.744Z</time></trkpt><trkpt lat="44.1385883" lon="11.379245"><ele>481.0</ele><time>2026-04-18T09:52:48.743Z</time></trkpt><trkpt lat="44.1384883" lon="11.379295"><ele>481.0</ele><time>2026-04-18T09:52:49.743Z</time></trkpt><trkpt lat="44.138395" lon="11.379375"><ele>481.0</ele><time>2026-04-18T09:52:50.743Z</time></trkpt><trkpt lat="44.13832" lon="11.3795033"><ele>481.0</ele><time>2026-04-18T09:52:51.743Z</time></trkpt><trkpt lat="44.1382633" lon="11.3796517"><ele>482.25</ele><time>2026-04-18T09:52:52.743Z</time></trkpt><trkpt lat="44.1382283" lon="11.3798183"><ele>483.5</ele><time>2026-04-18T09:52:53.743Z</time></trkpt><trkpt lat="44.1382067" lon="11.380015"><ele>484.75</ele><time>2026-04-18T09:52:54.744Z</time></trkpt><trkpt lat="44.13818" lon="11.3801667"><ele>486.0</ele><time>2026-04-18T09:52:55.743Z</time></trkpt><trkpt lat="44.1381333" lon="11.3802667"><ele>489.5</ele><time>2026-04-18T09:52:56.744Z</time></trkpt><trkpt lat="44.138075" lon="11.3803133"><ele>493.0</ele><time>2026-04-18T09:52:57.744Z</time></trkpt><trkpt lat="44.1380083" lon="11.3803133"><ele>496.5</ele><time>2026-04-18T09:52:58.743Z</time></trkpt><trkpt lat="44.1379483" lon="11.3802667"><ele>500.0</ele><time>2026-04-18T09:52:59.743Z</time></trkpt><trkpt lat="44.137895" lon="11.3801617"><ele>503.5</ele><time>2026-04-18T09:53:00.743Z</time></trkpt><trkpt lat="44.1378567" lon="11.3800133"><ele>507.0</ele><time>2026-04-18T09:53:01.743Z</time></trkpt><trkpt lat="44.1378183" lon="11.379825"><ele>505.33333333333337</ele><time>2026-04-18T09:53:02.743Z</time></trkpt><trkpt lat="44.1377483" lon="11.3796167"><ele>503.6666666666667</ele><time>2026-04-18T09:53:03.744Z</time></trkpt><trkpt lat="44.1376467" lon="11.37942"><ele>502.0</ele><time>2026-04-18T09:53:04.744Z</time></trkpt><trkpt lat="44.1375383" lon="11.3792383"><ele>502.0</ele><time>2026-04-18T09:53:05.744Z</time></trkpt><trkpt lat="44.1374133" lon="11.3790583"><ele>502.0</ele><time>2026-04-18T09:53:06.743Z</time></trkpt><trkpt lat="44.1372683" lon="11.3788817"><ele>502.0</ele><time>2026-04-18T09:53:07.744Z</time></trkpt><trkpt lat="44.13714" lon="11.3787317"><ele>504.0</ele><time>2026-04-18T09:53:08.743Z</time></trkpt><trkpt lat="44.1370267" lon="11.3786083"><ele>506.00000000000006</ele><time>2026-04-18T09:53:09.743Z</time></trkpt><trkpt lat="44.1369267" lon="11.3785267"><ele>508.00000000000006</ele><time>2026-04-18T09:53:10.744Z</time></trkpt><trkpt lat="44.136835" lon="11.3784933"><ele>510.0</ele><time>2026-04-18T09:53:11.743Z</time></trkpt><trkpt lat="44.1367533" lon="11.3785283"><ele>512.0</ele><time>2026-04-18T09:53:12.744Z</time></trkpt><trkpt lat="44.1366933" lon="11.3786083"><ele>512.0</ele><time>2026-04-18T09:53:13.743Z</time></trkpt><trkpt lat="44.1366717" lon="11.3787133"><ele>512.0</ele><time>2026-04-18T09:53:14.744Z</time></trkpt><trkpt lat="44.1366883" lon="11.3788467"><ele>512.0</ele><time>2026-04-18T09:53:15.743Z</time></trkpt><trkpt lat="44.1367317" lon="11.3790083"><ele>512.0</ele><time>2026-04-18T09:53:16.743Z</time></trkpt><trkpt lat="44.1368067" lon="11.3792233"><ele>513.25</ele><time>2026-04-18T09:53:17.743Z</time></trkpt><trkpt lat="44.136875" lon="11.3794217"><ele>514.5</ele><time>2026-04-18T09:53:18.743Z</time></trkpt><trkpt lat="44.13694" lon="11.379595"><ele>515.75</ele><time>2026-04-18T09:53:19.744Z</time></trkpt><trkpt lat="44.136965" lon="11.37976"><ele>517.0</ele><time>2026-04-18T09:53:20.744Z</time></trkpt><trkpt lat="44.13695" lon="11.3799083"><ele>518.2</ele><time>2026-04-18T09:53:21.743Z</time></trkpt><trkpt lat="44.1368967" lon="11.38002"><ele>519.4000000000001</ele><time>2026-04-18T09:53:22.743Z</time></trkpt><trkpt lat="44.1368067" lon="11.380095"><ele>520.5999999999999</ele><time>2026-04-18T09:53:23.743Z</time></trkpt><trkpt lat="44.1367083" lon="11.3801683"><ele>521.8</ele><time>2026-04-18T09:53:24.744Z</time></trkpt><trkpt lat="44.1366117" lon="11.3802367"><ele>523.0</ele><time>2026-04-18T09:53:25.744Z</time></trkpt><trkpt lat="44.1365183" lon="11.3803117"><ele>526.1999999999999</ele><time>2026-04-18T09:53:26.743Z</time></trkpt><trkpt lat="44.1364383" lon="11.3804133"><ele>529.4</ele><time>2026-04-18T09:53:27.743Z</time></trkpt><trkpt lat="44.136375" lon="11.3805383"><ele>532.5999999999999</ele><time>2026-04-18T09:53:28.743Z</time></trkpt><trkpt lat="44.1363383" lon="11.3806667"><ele>535.8</ele><time>2026-04-18T09:53:29.743Z</time></trkpt><trkpt lat="44.1363167" lon="11.3807967"><ele>539.0</ele><time>2026-04-18T09:53:30.743Z</time></trkpt><trkpt lat="44.1362967" lon="11.38093"><ele>539.0</ele><time>2026-04-18T09:53:31.743Z</time></trkpt><trkpt lat="44.1362817" lon="11.381075"><ele>539.0</ele><time>2026-04-18T09:53:32.744Z</time></trkpt><trkpt lat="44.136265" lon="11.3812267"><ele>539.0</ele><time>2026-04-18T09:53:33.743Z</time></trkpt><trkpt lat="44.1362583" lon="11.3813733"><ele>539.0</ele><time>2026-04-18T09:53:34.743Z</time></trkpt><trkpt lat="44.1362417" lon="11.3815033"><ele>539.0</ele><time>2026-04-18T09:53:35.743Z</time></trkpt><trkpt lat="44.136205" lon="11.3816117"><ele>539.0</ele><time>2026-04-18T09:53:36.743Z</time></trkpt><trkpt lat="44.1361533" lon="11.3816783"><ele>539.0</ele><time>2026-04-18T09:53:37.743Z</time></trkpt><trkpt lat="44.1360883" lon="11.3816917"><ele>539.0</ele><time>2026-04-18T09:53:38.743Z</time></trkpt><trkpt lat="44.1360183" lon="11.3816583"><ele>539.0</ele><time>2026-04-18T09:53:39.743Z</time></trkpt><trkpt lat="44.135975" lon="11.3815567"><ele>539.0</ele><time>2026-04-18T09:53:40.743Z</time></trkpt><trkpt lat="44.13595" lon="11.3814283"><ele>539.0</ele><time>2026-04-18T09:53:41.744Z</time></trkpt><trkpt lat="44.135935" lon="11.3812883"><ele>539.0</ele><time>2026-04-18T09:53:42.744Z</time></trkpt><trkpt lat="44.1359183" lon="11.3811383"><ele>539.0</ele><time>2026-04-18T09:53:43.744Z</time></trkpt><trkpt lat="44.135905" lon="11.380985"><ele>539.0</ele><time>2026-04-18T09:53:44.744Z</time></trkpt><trkpt lat="44.135885" lon="11.3808233"><ele>539.0</ele><time>2026-04-18T09:53:45.744Z</time></trkpt><trkpt lat="44.13586" lon="11.3806583"><ele>539.5</ele><time>2026-04-18T09:53:46.743Z</time></trkpt><trkpt lat="44.1358383" lon="11.380485"><ele>540.0</ele><time>2026-04-18T09:53:47.743Z</time></trkpt><trkpt lat="44.1358083" lon="11.380315"><ele>540.5</ele><time>2026-04-18T09:53:48.743Z</time></trkpt><trkpt lat="44.1357833" lon="11.3801383"><ele>541.0</ele><time>2026-04-18T09:53:49.744Z</time></trkpt><trkpt lat="44.13576" lon="11.3799733"><ele>541.0</ele><time>2026-04-18T09:53:50.744Z</time></trkpt><trkpt lat="44.1357383" lon="11.379825"><ele>541.0</ele><time>2026-04-18T09:53:51.743Z</time></trkpt><trkpt lat="44.1356933" lon="11.37968"><ele>541.0</ele><time>2026-04-18T09:53:52.743Z</time></trkpt><trkpt lat="44.135625" lon="11.3795433"><ele>541.0</ele><time>2026-04-18T09:53:53.744Z</time></trkpt><trkpt lat="44.1355433" lon="11.379415"><ele>544.5</ele><time>2026-04-18T09:53:54.743Z</time></trkpt><trkpt lat="44.1354567" lon="11.3792917"><ele>548.0</ele><time>2026-04-18T09:53:55.743Z</time></trkpt><trkpt lat="44.135365" lon="11.3791833"><ele>551.5</ele><time>2026-04-18T09:53:56.744Z</time></trkpt><trkpt lat="44.13527" lon="11.379075"><ele>555.0</ele><time>2026-04-18T09:53:57.743Z</time></trkpt><trkpt lat="44.1351783" lon="11.3789483"><ele>554.75</ele><time>2026-04-18T09:53:58.744Z</time></trkpt><trkpt lat="44.1350917" lon="11.3787933"><ele>554.5</ele><time>2026-04-18T09:53:59.743Z</time></trkpt><trkpt lat="44.1350183" lon="11.378625"><ele>554.25</ele><time>2026-04-18T09:54:00.743Z</time></trkpt><trkpt lat="44.1349767" lon="11.3784433"><ele>554.0</ele><time>2026-04-18T09:54:01.743Z</time></trkpt><trkpt lat="44.134955" lon="11.378255"><ele>554.0</ele><time>2026-04-18T09:54:02.744Z</time></trkpt><trkpt lat="44.1349367" lon="11.3780783"><ele>554.0</ele><time>2026-04-18T09:54:03.744Z</time></trkpt><trkpt lat="44.1349233" lon="11.3779317"><ele>554.0</ele><time>2026-04-18T09:54:04.744Z</time></trkpt><trkpt lat="44.1349183" lon="11.3777867"><ele>554.0</ele><time>2026-04-18T09:54:05.743Z</time></trkpt><trkpt lat="44.13492" lon="11.37765"><ele>554.0</ele><time>2026-04-18T09:54:06.743Z</time></trkpt><trkpt lat="44.1349383" lon="11.3775117"><ele>554.6666666666666</ele><time>2026-04-18T09:54:07.742Z</time></trkpt><trkpt lat="44.134975" lon="11.3773917"><ele>555.3333333333333</ele><time>2026-04-18T09:54:08.742Z</time></trkpt><trkpt lat="44.1350183" lon="11.37729"><ele>556.0</ele><time>2026-04-18T09:54:09.743Z</time></trkpt><trkpt lat="44.1350367" lon="11.3771933"><ele>556.6666666666666</ele><time>2026-04-18T09:54:10.742Z</time></trkpt><trkpt lat="44.135015" lon="11.3770867"><ele>557.3333333333334</ele><time>2026-04-18T09:54:12.742Z</time></trkpt><trkpt lat="44.1349567" lon="11.377025"><ele>558.0</ele><time>2026-04-18T09:54:15.742Z</time></trkpt><trkpt lat="44.1348633" lon="11.3769267"><ele>561.8</ele><time>2026-04-18T09:54:27.742Z</time></trkpt><trkpt lat="44.1347767" lon="11.376825"><ele>565.5999999999999</ele><time>2026-04-18T09:54:29.742Z</time></trkpt><trkpt lat="44.1347033" lon="11.3767667"><ele>569.4000000000001</ele><time>2026-04-18T09:54:31.743Z</time></trkpt><trkpt lat="44.1346217" lon="11.37669"><ele>573.2</ele><time>2026-04-18T09:54:33.742Z</time></trkpt><trkpt lat="44.13453" lon="11.376635"><ele>577.0</ele><time>2026-04-18T09:54:35.743Z</time></trkpt><trkpt lat="44.1344117" lon="11.3765983"><ele>577.0</ele><time>2026-04-18T09:54:37.743Z</time></trkpt><trkpt lat="44.134335" lon="11.3765867"><ele>577.0</ele><time>2026-04-18T09:54:38.742Z</time></trkpt><trkpt lat="44.1342517" lon="11.3765783"><ele>577.0</ele><time>2026-04-18T09:54:39.742Z</time></trkpt><trkpt lat="44.1341683" lon="11.3765667"><ele>577.0</ele><time>2026-04-18T09:54:40.743Z</time></trkpt><trkpt lat="44.1340817" lon="11.3765533"><ele>577.0</ele><time>2026-04-18T09:54:41.743Z</time></trkpt><trkpt lat="44.133995" lon="11.3765433"><ele>577.0</ele><time>2026-04-18T09:54:42.742Z</time></trkpt><trkpt lat="44.1339033" lon="11.376535"><ele>579.0</ele><time>2026-04-18T09:54:43.743Z</time></trkpt><trkpt lat="44.1337967" lon="11.3765217"><ele>581.0</ele><time>2026-04-18T09:54:44.742Z</time></trkpt><trkpt lat="44.1336933" lon="11.376515"><ele>583.0</ele><time>2026-04-18T09:54:45.742Z</time></trkpt><trkpt lat="44.133595" lon="11.3765033"><ele>585.0</ele><time>2026-04-18T09:54:46.742Z</time></trkpt><trkpt lat="44.133515" lon="11.376495"><ele>587.0</ele><time>2026-04-18T09:54:47.743Z</time></trkpt><trkpt lat="44.1334417" lon="11.3764817"><ele>587.0</ele><time>2026-04-18T09:54:49.743Z</time></trkpt><trkpt lat="44.1333733" lon="11.3765083"><ele>587.0</ele><time>2026-04-18T09:54:56.742Z</time></trkpt><trkpt lat="44.13336" lon="11.3766233"><ele>587.0</ele><time>2026-04-18T09:54:59.742Z</time></trkpt><trkpt lat="44.13335" lon="11.3767417"><ele>587.0</ele><time>2026-04-18T09:55:02.742Z</time></trkpt><trkpt lat="44.13336" lon="11.376845"><ele>587.0</ele><time>2026-04-18T09:55:04.742Z</time></trkpt><trkpt lat="44.1333967" lon="11.376955"><ele>587.0</ele><time>2026-04-18T09:55:06.743Z</time></trkpt><trkpt lat="44.1334267" lon="11.3770467"><ele>587.0</ele><time>2026-04-18T09:55:08.742Z</time></trkpt><trkpt lat="44.1334517" lon="11.3771567"><ele>587.0</ele><time>2026-04-18T09:55:12.742Z</time></trkpt><trkpt lat="44.1334767" lon="11.3772733"><ele>587.0</ele><time>2026-04-18T09:55:15.742Z</time></trkpt><trkpt lat="44.133515" lon="11.37736"><ele>587.0</ele><time>2026-04-18T09:55:40.742Z</time></trkpt><trkpt lat="44.13356" lon="11.37747"><ele>587.0</ele><time>2026-04-18T09:55:44.742Z</time></trkpt><trkpt lat="44.1335983" lon="11.3775767"><ele>587.0</ele><time>2026-04-18T09:55:47.742Z</time></trkpt><trkpt lat="44.1336217" lon="11.37767"><ele>586.8333333333333</ele><time>2026-04-18T09:55:49.742Z</time></trkpt><trkpt lat="44.1336233" lon="11.3777733"><ele>586.6666666666666</ele><time>2026-04-18T09:55:51.743Z</time></trkpt><trkpt lat="44.1336167" lon="11.3778817"><ele>586.5</ele><time>2026-04-18T09:55:53.743Z</time></trkpt><trkpt lat="44.1336067" lon="11.378"><ele>586.3333333333334</ele><time>2026-04-18T09:55:55.742Z</time></trkpt><trkpt lat="44.1336017" lon="11.3781267"><ele>586.1666666666667</ele><time>2026-04-18T09:55:57.742Z</time></trkpt><trkpt lat="44.1335883" lon="11.3782517"><ele>586.0</ele><time>2026-04-18T09:55:59.742Z</time></trkpt><trkpt lat="44.1335783" lon="11.37836"><ele>585.0</ele><time>2026-04-18T09:56:01.742Z</time></trkpt><trkpt lat="44.1335433" lon="11.3785217"><ele>584.0</ele><time>2026-04-18T09:56:10.743Z</time></trkpt><trkpt lat="44.1335183" lon="11.3786233"><ele>583.0</ele><time>2026-04-18T09:56:12.742Z</time></trkpt><trkpt lat="44.1335033" lon="11.3787267"><ele>582.0</ele><time>2026-04-18T09:56:14.743Z</time></trkpt><trkpt lat="44.13351" lon="11.3788633"><ele>581.0</ele><time>2026-04-18T09:56:16.743Z</time></trkpt><trkpt lat="44.1335217" lon="11.37896"><ele>580.0</ele><time>2026-04-18T09:56:17.743Z</time></trkpt><trkpt lat="44.1335267" lon="11.3790483"><ele>579.6</ele><time>2026-04-18T09:56:18.743Z</time></trkpt><trkpt lat="44.1335217" lon="11.3792217"><ele>579.2</ele><time>2026-04-18T09:56:20.743Z</time></trkpt><trkpt lat="44.1335067" lon="11.37931"><ele>578.8</ele><time>2026-04-18T09:56:21.742Z</time></trkpt><trkpt lat="44.1334883" lon="11.379445"><ele>578.4</ele><time>2026-04-18T09:56:23.742Z</time></trkpt><trkpt lat="44.13348" lon="11.3795633"><ele>578.0</ele><time>2026-04-18T09:56:26.743Z</time></trkpt><trkpt lat="44.1335067" lon="11.3797083"><ele>578.0</ele><time>2026-04-18T09:56:29.742Z</time></trkpt><trkpt lat="44.1335283" lon="11.379795"><ele>578.0</ele><time>2026-04-18T09:56:30.742Z</time></trkpt><trkpt lat="44.1335517" lon="11.3798783"><ele>578.0</ele><time>2026-04-18T09:56:31.742Z</time></trkpt><trkpt lat="44.1335667" lon="11.3800067"><ele>578.0</ele><time>2026-04-18T09:56:33.742Z</time></trkpt><trkpt lat="44.1335517" lon="11.38014"><ele>578.0</ele><time>2026-04-18T09:56:35.742Z</time></trkpt><trkpt lat="44.1335283" lon="11.380245"><ele>578.0</ele><time>2026-04-18T09:56:36.743Z</time></trkpt><trkpt lat="44.1334933" lon="11.3803483"><ele>578.0</ele><time>2026-04-18T09:56:37.742Z</time></trkpt><trkpt lat="44.133445" lon="11.38046"><ele>578.0</ele><time>2026-04-18T09:56:38.743Z</time></trkpt><trkpt lat="44.1333633" lon="11.3805833"><ele>578.0</ele><time>2026-04-18T09:56:39.742Z</time></trkpt><trkpt lat="44.1332667" lon="11.3807"><ele>578.0</ele><time>2026-04-18T09:56:40.743Z</time></trkpt><trkpt lat="44.1331517" lon="11.38082"><ele>576.0</ele><time>2026-04-18T09:56:41.742Z</time></trkpt><trkpt lat="44.13302" lon="11.3809467"><ele>574.0</ele><time>2026-04-18T09:56:42.743Z</time></trkpt><trkpt lat="44.1328733" lon="11.38108"><ele>572.0</ele><time>2026-04-18T09:56:43.742Z</time></trkpt><trkpt lat="44.1327183" lon="11.3811967"><ele>572.0</ele><time>2026-04-18T09:56:44.742Z</time></trkpt><trkpt lat="44.1325683" lon="11.3813067"><ele>572.0</ele><time>2026-04-18T09:56:45.742Z</time></trkpt><trkpt lat="44.13243" lon="11.3814083"><ele>572.0</ele><time>2026-04-18T09:56:46.742Z</time></trkpt><trkpt lat="44.1323" lon="11.381505"><ele>569.5</ele><time>2026-04-18T09:56:47.742Z</time></trkpt><trkpt lat="44.1321833" lon="11.3816267"><ele>567.0</ele><time>2026-04-18T09:56:48.743Z</time></trkpt><trkpt lat="44.1320917" lon="11.38176"><ele>564.5</ele><time>2026-04-18T09:56:49.742Z</time></trkpt><trkpt lat="44.13201" lon="11.3818983"><ele>562.0</ele><time>2026-04-18T09:56:50.742Z</time></trkpt><trkpt lat="44.13193" lon="11.38202"><ele>562.0</ele><time>2026-04-18T09:56:51.743Z</time></trkpt><trkpt lat="44.1318483" lon="11.38211"><ele>562.0</ele><time>2026-04-18T09:56:52.742Z</time></trkpt><trkpt lat="44.1317417" lon="11.3821467"><ele>562.0</ele><time>2026-04-18T09:56:53.742Z</time></trkpt><trkpt lat="44.131625" lon="11.3821233"><ele>562.0</ele><time>2026-04-18T09:56:54.743Z</time></trkpt><trkpt lat="44.13151" lon="11.3820617"><ele>559.75</ele><time>2026-04-18T09:56:55.743Z</time></trkpt><trkpt lat="44.1313867" lon="11.3819917"><ele>557.5</ele><time>2026-04-18T09:56:56.743Z</time></trkpt><trkpt lat="44.131265" lon="11.38193"><ele>555.25</ele><time>2026-04-18T09:56:57.743Z</time></trkpt><trkpt lat="44.1311567" lon="11.3818817"><ele>553.0</ele><time>2026-04-18T09:56:58.743Z</time></trkpt><trkpt lat="44.1310733" lon="11.381845"><ele>553.0</ele><time>2026-04-18T09:56:59.742Z</time></trkpt><trkpt lat="44.1310033" lon="11.3818167"><ele>553.0</ele><time>2026-04-18T09:57:00.743Z</time></trkpt><trkpt lat="44.1309383" lon="11.3817867"><ele>553.0</ele><time>2026-04-18T09:57:01.742Z</time></trkpt><trkpt lat="44.130875" lon="11.38175"><ele>553.0</ele><time>2026-04-18T09:57:02.742Z</time></trkpt><trkpt lat="44.1308083" lon="11.381735"><ele>553.0</ele><time>2026-04-18T09:57:03.743Z</time></trkpt><trkpt lat="44.1307433" lon="11.3817383"><ele>553.0</ele><time>2026-04-18T09:57:04.743Z</time></trkpt><trkpt lat="44.1306733" lon="11.38175"><ele>553.0</ele><time>2026-04-18T09:57:05.742Z</time></trkpt><trkpt lat="44.130605" lon="11.38177"><ele>550.0</ele><time>2026-04-18T09:57:06.742Z</time></trkpt><trkpt lat="44.1305067" lon="11.381795"><ele>547.0</ele><time>2026-04-18T09:57:08.743Z</time></trkpt><trkpt lat="44.1304417" lon="11.3817667"><ele>544.0</ele><time>2026-04-18T09:57:10.743Z</time></trkpt><trkpt lat="44.1303367" lon="11.3817067"><ele>541.0</ele><time>2026-04-18T09:57:18.742Z</time></trkpt><trkpt lat="44.1302567" lon="11.3817317"><ele>538.0</ele><time>2026-04-18T09:57:20.742Z</time></trkpt><trkpt lat="44.1301883" lon="11.3818133"><ele>538.0</ele><time>2026-04-18T09:57:22.741Z</time></trkpt><trkpt lat="44.1301267" lon="11.3818717"><ele>538.0</ele><time>2026-04-18T09:57:24.741Z</time></trkpt><trkpt lat="44.1300617" lon="11.3819267"><ele>538.0</ele><time>2026-04-18T09:57:26.741Z</time></trkpt><trkpt lat="44.1299983" lon="11.3819367"><ele>538.0</ele><time>2026-04-18T09:57:28.742Z</time></trkpt><trkpt lat="44.1299217" lon="11.381915"><ele>538.0</ele><time>2026-04-18T09:57:30.742Z</time></trkpt><trkpt lat="44.12983" lon="11.381885"><ele>538.0</ele><time>2026-04-18T09:57:32.741Z</time></trkpt><trkpt lat="44.1297483" lon="11.3818417"><ele>536.0</ele><time>2026-04-18T09:57:34.742Z</time></trkpt><trkpt lat="44.12968" lon="11.381795"><ele>534.0</ele><time>2026-04-18T09:57:36.742Z</time></trkpt><trkpt lat="44.1296033" lon="11.3817367"><ele>532.0</ele><time>2026-04-18T09:57:38.741Z</time></trkpt><trkpt lat="44.1295433" lon="11.3816983"><ele>530.0</ele><time>2026-04-18T09:57:39.741Z</time></trkpt><trkpt lat="44.1294767" lon="11.3816617"><ele>528.0</ele><time>2026-04-18T09:57:40.742Z</time></trkpt><trkpt lat="44.1293767" lon="11.3816"><ele>526.0</ele><time>2026-04-18T09:57:42.741Z</time></trkpt><trkpt lat="44.1292833" lon="11.3815567"><ele>526.0</ele><time>2026-04-18T09:57:44.741Z</time></trkpt><trkpt lat="44.1291933" lon="11.381505"><ele>526.0</ele><time>2026-04-18T09:57:46.741Z</time></trkpt><trkpt lat="44.1290867" lon="11.3814333"><ele>526.0</ele><time>2026-04-18T09:57:48.741Z</time></trkpt><trkpt lat="44.12898" lon="11.381385"><ele>526.0</ele><time>2026-04-18T09:57:50.741Z</time></trkpt><trkpt lat="44.1288833" lon="11.3813417"><ele>526.0</ele><time>2026-04-18T09:57:52.742Z</time></trkpt><trkpt lat="44.1288033" lon="11.3812967"><ele>522.0</ele><time>2026-04-18T09:57:54.741Z</time></trkpt><trkpt lat="44.128705" lon="11.3812467"><ele>518.0</ele><time>2026-04-18T09:57:56.742Z</time></trkpt><trkpt lat="44.1286267" lon="11.381205"><ele>514.0</ele><time>2026-04-18T09:57:58.741Z</time></trkpt><trkpt lat="44.1285483" lon="11.381155"><ele>510.0</ele><time>2026-04-18T09:58:00.742Z</time></trkpt><trkpt lat="44.1284683" lon="11.3810917"><ele>506.0</ele><time>2026-04-18T09:58:02.741Z</time></trkpt><trkpt lat="44.128375" lon="11.381055"><ele>506.0</ele><time>2026-04-18T09:58:04.741Z</time></trkpt><trkpt lat="44.1282717" lon="11.381035"><ele>506.0</ele><time>2026-04-18T09:58:06.741Z</time></trkpt><trkpt lat="44.1281533" lon="11.3810217"><ele>506.0</ele><time>2026-04-18T09:58:08.741Z</time></trkpt><trkpt lat="44.1280417" lon="11.3810217"><ele>506.0</ele><time>2026-04-18T09:58:10.741Z</time></trkpt><trkpt lat="44.12793" lon="11.3810483"><ele>506.0</ele><time>2026-04-18T09:58:12.741Z</time></trkpt><trkpt lat="44.1278367" lon="11.3811"><ele>504.0</ele><time>2026-04-18T09:58:14.741Z</time></trkpt><trkpt lat="44.1277283" lon="11.3811467"><ele>502.0</ele><time>2026-04-18T09:58:16.741Z</time></trkpt><trkpt lat="44.1276433" lon="11.3811217"><ele>500.0</ele><time>2026-04-18T09:58:18.741Z</time></trkpt><trkpt lat="44.1275683" lon="11.381"><ele>498.0</ele><time>2026-04-18T09:58:20.741Z</time></trkpt><trkpt lat="44.1275133" lon="11.380915"><ele>496.0</ele><time>2026-04-18T09:58:21.742Z</time></trkpt><trkpt lat="44.12746" lon="11.3808483"><ele>496.0</ele><time>2026-04-18T09:58:22.741Z</time></trkpt><trkpt lat="44.1274017" lon="11.3807967"><ele>496.0</ele><time>2026-04-18T09:58:23.741Z</time></trkpt><trkpt lat="44.1272983" lon="11.3807283"><ele>496.0</ele><time>2026-04-18T09:58:25.742Z</time></trkpt><trkpt lat="44.1272033" lon="11.3806617"><ele>496.0</ele><time>2026-04-18T09:58:27.742Z</time></trkpt><trkpt lat="44.127095" lon="11.3806117"><ele>496.0</ele><time>2026-04-18T09:58:29.741Z</time></trkpt><trkpt lat="44.1270317" lon="11.3806083"><ele>492.8</ele><time>2026-04-18T09:58:30.742Z</time></trkpt><trkpt lat="44.126905" lon="11.3806317"><ele>489.6</ele><time>2026-04-18T09:58:32.741Z</time></trkpt><trkpt lat="44.1267783" lon="11.3806"><ele>486.4</ele><time>2026-04-18T09:58:34.742Z</time></trkpt><trkpt lat="44.1267167" lon="11.38055"><ele>483.2</ele><time>2026-04-18T09:58:35.742Z</time></trkpt><trkpt lat="44.126655" lon="11.3804867"><ele>480.0</ele><time>2026-04-18T09:58:36.742Z</time></trkpt><trkpt lat="44.1266017" lon="11.3804267"><ele>477.4</ele><time>2026-04-18T09:58:37.742Z</time></trkpt><trkpt lat="44.1265367" lon="11.38037"><ele>474.8</ele><time>2026-04-18T09:58:38.742Z</time></trkpt><trkpt lat="44.126455" lon="11.3803167"><ele>472.20000000000005</ele><time>2026-04-18T09:58:39.741Z</time></trkpt><trkpt lat="44.1263717" lon="11.3802733"><ele>469.6</ele><time>2026-04-18T09:58:40.742Z</time></trkpt><trkpt lat="44.126275" lon="11.3802417"><ele>467.0</ele><time>2026-04-18T09:58:41.741Z</time></trkpt><trkpt lat="44.126185" lon="11.3802"><ele>467.0</ele><time>2026-04-18T09:58:42.741Z</time></trkpt><trkpt lat="44.1261033" lon="11.3801467"><ele>467.00000000000006</ele><time>2026-04-18T09:58:43.742Z</time></trkpt><trkpt lat="44.12602" lon="11.3800717"><ele>467.00000000000006</ele><time>2026-04-18T09:58:44.741Z</time></trkpt><trkpt lat="44.12595" lon="11.3799983"><ele>467.0</ele><time>2026-04-18T09:58:45.742Z</time></trkpt><trkpt lat="44.12587" lon="11.3799367"><ele>467.0</ele><time>2026-04-18T09:58:46.741Z</time></trkpt><trkpt lat="44.1257783" lon="11.3798967"><ele>464.0</ele><time>2026-04-18T09:58:47.742Z</time></trkpt><trkpt lat="44.1256783" lon="11.3798717"><ele>461.00000000000006</ele><time>2026-04-18T09:58:48.741Z</time></trkpt><trkpt lat="44.1255783" lon="11.379855"><ele>458.00000000000006</ele><time>2026-04-18T09:58:49.741Z</time></trkpt><trkpt lat="44.1254717" lon="11.3798367"><ele>455.0</ele><time>2026-04-18T09:58:50.741Z</time></trkpt><trkpt lat="44.1253683" lon="11.3798067"><ele>452.0</ele><time>2026-04-18T09:58:51.741Z</time></trkpt><trkpt lat="44.1252667" lon="11.3797617"><ele>452.0</ele><time>2026-04-18T09:58:52.741Z</time></trkpt><trkpt lat="44.1251717" lon="11.379705"><ele>452.00000000000006</ele><time>2026-04-18T09:58:53.741Z</time></trkpt><trkpt lat="44.12508" lon="11.3796583"><ele>452.00000000000006</ele><time>2026-04-18T09:58:54.741Z</time></trkpt><trkpt lat="44.1249783" lon="11.3796317"><ele>452.0</ele><time>2026-04-18T09:58:55.741Z</time></trkpt><trkpt lat="44.1248717" lon="11.3796267"><ele>452.0</ele><time>2026-04-18T09:58:56.741Z</time></trkpt><trkpt lat="44.1247683" lon="11.3796267"><ele>449.40000000000003</ele><time>2026-04-18T09:58:57.741Z</time></trkpt><trkpt lat="44.1246617" lon="11.379625"><ele>446.80000000000007</ele><time>2026-04-18T09:58:58.741Z</time></trkpt><trkpt lat="44.1245633" lon="11.3796283"><ele>444.2</ele><time>2026-04-18T09:58:59.741Z</time></trkpt><trkpt lat="44.124475" lon="11.3796333"><ele>441.6</ele><time>2026-04-18T09:59:00.741Z</time></trkpt><trkpt lat="44.1243883" lon="11.3796283"><ele>439.0</ele><time>2026-04-18T09:59:01.741Z</time></trkpt><trkpt lat="44.1243033" lon="11.3796017"><ele>439.0</ele><time>2026-04-18T09:59:02.741Z</time></trkpt><trkpt lat="44.12421" lon="11.37956"><ele>439.0</ele><time>2026-04-18T09:59:03.742Z</time></trkpt><trkpt lat="44.1241083" lon="11.3795217"><ele>439.0</ele><time>2026-04-18T09:59:04.741Z</time></trkpt><trkpt lat="44.1240083" lon="11.3794717"><ele>439.0</ele><time>2026-04-18T09:59:05.742Z</time></trkpt><trkpt lat="44.1239167" lon="11.3794183"><ele>439.0</ele><time>2026-04-18T09:59:06.742Z</time></trkpt><trkpt lat="44.12382" lon="11.3793667"><ele>437.6666666666667</ele><time>2026-04-18T09:59:07.742Z</time></trkpt><trkpt lat="44.1237317" lon="11.3793183"><ele>436.33333333333337</ele><time>2026-04-18T09:59:08.742Z</time></trkpt><trkpt lat="44.1236433" lon="11.3792683"><ele>435.0</ele><time>2026-04-18T09:59:09.741Z</time></trkpt><trkpt lat="44.123565" lon="11.3792183"><ele>433.66666666666663</ele><time>2026-04-18T09:59:10.742Z</time></trkpt><trkpt lat="44.1234833" lon="11.3791833"><ele>432.3333333333333</ele><time>2026-04-18T09:59:11.741Z</time></trkpt><trkpt lat="44.123405" lon="11.3791433"><ele>431.0</ele><time>2026-04-18T09:59:12.742Z</time></trkpt><trkpt lat="44.1233317" lon="11.3790967"><ele>431.0</ele><time>2026-04-18T09:59:13.741Z</time></trkpt><trkpt lat="44.12325" lon="11.379045"><ele>431.0</ele><time>2026-04-18T09:59:14.741Z</time></trkpt><trkpt lat="44.1231667" lon="11.3789967"><ele>431.0</ele><time>2026-04-18T09:59:15.741Z</time></trkpt><trkpt lat="44.123075" lon="11.37896"><ele>431.0</ele><time>2026-04-18T09:59:16.742Z</time></trkpt><trkpt lat="44.1229767" lon="11.3789083"><ele>431.0</ele><time>2026-04-18T09:59:17.742Z</time></trkpt><trkpt lat="44.1228817" lon="11.3788583"><ele>430.8</ele><time>2026-04-18T09:59:18.741Z</time></trkpt><trkpt lat="44.122795" lon="11.378815"><ele>430.6</ele><time>2026-04-18T09:59:19.741Z</time></trkpt><trkpt lat="44.1227" lon="11.3787667"><ele>430.4</ele><time>2026-04-18T09:59:20.741Z</time></trkpt><trkpt lat="44.1226" lon="11.3787217"><ele>430.2</ele><time>2026-04-18T09:59:21.741Z</time></trkpt><trkpt lat="44.1225" lon="11.3786683"><ele>430.0</ele><time>2026-04-18T09:59:22.742Z</time></trkpt><trkpt lat="44.1224083" lon="11.3786133"><ele>429.83333333333337</ele><time>2026-04-18T09:59:23.741Z</time></trkpt><trkpt lat="44.1223367" lon="11.3785533"><ele>429.6666666666667</ele><time>2026-04-18T09:59:24.741Z</time></trkpt><trkpt lat="44.1222733" lon="11.378495"><ele>429.5</ele><time>2026-04-18T09:59:25.742Z</time></trkpt><trkpt lat="44.1222183" lon="11.3784367"><ele>429.33333333333337</ele><time>2026-04-18T09:59:26.741Z</time></trkpt><trkpt lat="44.12215" lon="11.3784083"><ele>429.1666666666667</ele><time>2026-04-18T09:59:27.741Z</time></trkpt><trkpt lat="44.1220683" lon="11.3784033"><ele>429.0</ele><time>2026-04-18T09:59:28.741Z</time></trkpt><trkpt lat="44.1219833" lon="11.3784133"><ele>429.0</ele><time>2026-04-18T09:59:29.741Z</time></trkpt><trkpt lat="44.1219" lon="11.3784217"><ele>429.0</ele><time>2026-04-18T09:59:30.741Z</time></trkpt><trkpt lat="44.1218167" lon="11.3784267"><ele>429.0</ele><time>2026-04-18T09:59:31.741Z</time></trkpt><trkpt lat="44.1217283" lon="11.3784317"><ele>429.0</ele><time>2026-04-18T09:59:32.741Z</time></trkpt><trkpt lat="44.12164" lon="11.3784367"><ele>429.0</ele><time>2026-04-18T09:59:33.741Z</time></trkpt><trkpt lat="44.1215517" lon="11.3784533"><ele>429.0</ele><time>2026-04-18T09:59:34.742Z</time></trkpt><trkpt lat="44.12145" lon="11.378465"><ele>429.0</ele><time>2026-04-18T09:59:35.742Z</time></trkpt><trkpt lat="44.1213483" lon="11.3784733"><ele>429.0</ele><time>2026-04-18T09:59:36.742Z</time></trkpt><trkpt lat="44.1212467" lon="11.378485"><ele>429.0</ele><time>2026-04-18T09:59:37.741Z</time></trkpt><trkpt lat="44.1211417" lon="11.3784817"><ele>429.0</ele><time>2026-04-18T09:59:38.742Z</time></trkpt><trkpt lat="44.1210417" lon="11.3784817"><ele>429.0</ele><time>2026-04-18T09:59:39.742Z</time></trkpt><trkpt lat="44.1209433" lon="11.3784917"><ele>429.0</ele><time>2026-04-18T09:59:40.741Z</time></trkpt><trkpt lat="44.1208383" lon="11.3785067"><ele>429.0</ele><time>2026-04-18T09:59:41.741Z</time></trkpt><trkpt lat="44.1207317" lon="11.3785117"><ele>429.0</ele><time>2026-04-18T09:59:42.741Z</time></trkpt><trkpt lat="44.1206283" lon="11.378515"><ele>429.0</ele><time>2026-04-18T09:59:43.742Z</time></trkpt><trkpt lat="44.120545" lon="11.3785167"><ele>429.0</ele><time>2026-04-18T09:59:44.741Z</time></trkpt><trkpt lat="44.120455" lon="11.3785233"><ele>428.8333333333333</ele><time>2026-04-18T09:59:45.741Z</time></trkpt><trkpt lat="44.1203683" lon="11.3785383"><ele>428.66666666666663</ele><time>2026-04-18T09:59:46.742Z</time></trkpt><trkpt lat="44.12028" lon="11.3785383"><ele>428.5</ele><time>2026-04-18T09:59:47.742Z</time></trkpt><trkpt lat="44.12021" lon="11.3785383"><ele>428.3333333333333</ele><time>2026-04-18T09:59:48.741Z</time></trkpt><trkpt lat="44.12012" lon="11.3785283"><ele>428.16666666666663</ele><time>2026-04-18T09:59:50.741Z</time></trkpt><trkpt lat="44.1200567" lon="11.3786317"><ele>428.0</ele><time>2026-04-18T10:03:06.74Z</time></trkpt><trkpt lat="44.12006" lon="11.3787583"><ele>427.8333333333333</ele><time>2026-04-18T10:03:08.74Z</time></trkpt><trkpt lat="44.1200767" lon="11.3788683"><ele>427.66666666666663</ele><time>2026-04-18T10:03:10.741Z</time></trkpt><trkpt lat="44.12005" lon="11.3789967"><ele>427.5</ele><time>2026-04-18T10:03:13.741Z</time></trkpt><trkpt lat="44.12001" lon="11.3790883"><ele>427.33333333333337</ele><time>2026-04-18T10:03:15.741Z</time></trkpt><trkpt lat="44.1199133" lon="11.3791483"><ele>427.1666666666667</ele><time>2026-04-18T10:03:17.741Z</time></trkpt><trkpt lat="44.1198467" lon="11.3791633"><ele>427.0</ele><time>2026-04-18T10:03:18.741Z</time></trkpt><trkpt lat="44.1197833" lon="11.37918"><ele>427.00000000000006</ele><time>2026-04-18T10:03:19.74Z</time></trkpt><trkpt lat="44.1197133" lon="11.379205"><ele>427.0</ele><time>2026-04-18T10:03:20.74Z</time></trkpt><trkpt lat="44.1196383" lon="11.3792383"><ele>427.0</ele><time>2026-04-18T10:03:21.741Z</time></trkpt><trkpt lat="44.11956" lon="11.3792683"><ele>427.0</ele><time>2026-04-18T10:03:22.74Z</time></trkpt><trkpt lat="44.1194783" lon="11.3793083"><ele>427.00000000000006</ele><time>2026-04-18T10:03:23.74Z</time></trkpt><trkpt lat="44.1193983" lon="11.3793467"><ele>427.0</ele><time>2026-04-18T10:03:24.741Z</time></trkpt><trkpt lat="44.11932" lon="11.3794033"><ele>427.0</ele><time>2026-04-18T10:03:25.741Z</time></trkpt><trkpt lat="44.1192417" lon="11.379435"><ele>427.00000000000006</ele><time>2026-04-18T10:03:26.74Z</time></trkpt><trkpt lat="44.1191517" lon="11.3794767"><ele>427.00000000000006</ele><time>2026-04-18T10:03:27.74Z</time></trkpt><trkpt lat="44.119065" lon="11.3795183"><ele>427.0</ele><time>2026-04-18T10:03:28.74Z</time></trkpt><trkpt lat="44.1189817" lon="11.379565"><ele>427.0</ele><time>2026-04-18T10:03:29.741Z</time></trkpt><trkpt lat="44.1188867" lon="11.379605"><ele>426.50000000000006</ele><time>2026-04-18T10:03:30.741Z</time></trkpt><trkpt lat="44.118805" lon="11.3796333"><ele>426.0</ele><time>2026-04-18T10:03:31.74Z</time></trkpt><trkpt lat="44.1187417" lon="11.3796733"><ele>425.5</ele><time>2026-04-18T10:03:32.74Z</time></trkpt><trkpt lat="44.118665" lon="11.3797067"><ele>425.0</ele><time>2026-04-18T10:03:33.74Z</time></trkpt><trkpt lat="44.1185883" lon="11.3797367"><ele>424.50000000000006</ele><time>2026-04-18T10:03:34.74Z</time></trkpt><trkpt lat="44.1185183" lon="11.379765"><ele>424.0</ele><time>2026-04-18T10:03:35.74Z</time></trkpt><trkpt lat="44.1184467" lon="11.3797983"><ele>423.83333333333337</ele><time>2026-04-18T10:03:36.74Z</time></trkpt><trkpt lat="44.1183683" lon="11.3798367"><ele>423.6666666666667</ele><time>2026-04-18T10:03:37.74Z</time></trkpt><trkpt lat="44.118295" lon="11.3798733"><ele>423.5</ele><time>2026-04-18T10:03:38.741Z</time></trkpt><trkpt lat="44.11821" lon="11.379915"><ele>423.33333333333337</ele><time>2026-04-18T10:03:39.74Z</time></trkpt><trkpt lat="44.1181433" lon="11.3799517"><ele>423.1666666666667</ele><time>2026-04-18T10:03:40.74Z</time></trkpt><trkpt lat="44.118075" lon="11.37999"><ele>423.0</ele><time>2026-04-18T10:03:41.74Z</time></trkpt><trkpt lat="44.1179917" lon="11.3800117"><ele>422.5</ele><time>2026-04-18T10:03:42.74Z</time></trkpt><trkpt lat="44.1179083" lon="11.3800367"><ele>422.0</ele><time>2026-04-18T10:03:43.74Z</time></trkpt><trkpt lat="44.1178267" lon="11.3800683"><ele>421.5</ele><time>2026-04-18T10:03:44.741Z</time></trkpt><trkpt lat="44.1177517" lon="11.380095"><ele>421.0</ele><time>2026-04-18T10:03:45.74Z</time></trkpt><trkpt lat="44.1176817" lon="11.38013"><ele>420.5</ele><time>2026-04-18T10:03:46.741Z</time></trkpt><trkpt lat="44.11762" lon="11.3801583"><ele>420.0</ele><time>2026-04-18T10:03:47.741Z</time></trkpt><trkpt lat="44.1175467" lon="11.3801867"><ele>420.0</ele><time>2026-04-18T10:03:49.741Z</time></trkpt><trkpt lat="44.1175217" lon="11.3802933"><ele>420.0</ele><time>2026-04-18T10:03:52.74Z</time></trkpt><trkpt lat="44.117545" lon="11.3804733"><ele>420.0</ele><time>2026-04-18T10:03:54.74Z</time></trkpt><trkpt lat="44.1175683" lon="11.3805867"><ele>420.0</ele><time>2026-04-18T10:03:55.74Z</time></trkpt><trkpt lat="44.1175967" lon="11.3807083"><ele>420.0</ele><time>2026-04-18T10:03:56.74Z</time></trkpt><trkpt lat="44.1176317" lon="11.3808283"><ele>419.8</ele><time>2026-04-18T10:03:57.74Z</time></trkpt><trkpt lat="44.1176633" lon="11.380955"><ele>419.6</ele><time>2026-04-18T10:03:58.74Z</time></trkpt><trkpt lat="44.1176917" lon="11.381075"><ele>419.4</ele><time>2026-04-18T10:03:59.741Z</time></trkpt><trkpt lat="44.11772" lon="11.3811883"><ele>419.2</ele><time>2026-04-18T10:04:00.74Z</time></trkpt><trkpt lat="44.11775" lon="11.3813"><ele>419.0</ele><time>2026-04-18T10:04:01.74Z</time></trkpt><trkpt lat="44.1177817" lon="11.3814217"><ele>419.0</ele><time>2026-04-18T10:04:02.74Z</time></trkpt><trkpt lat="44.1178133" lon="11.3815467"><ele>419.0</ele><time>2026-04-18T10:04:03.74Z</time></trkpt><trkpt lat="44.1178467" lon="11.3816833"><ele>419.0</ele><time>2026-04-18T10:04:04.739Z</time></trkpt><trkpt lat="44.11788" lon="11.3818133"><ele>419.0</ele><time>2026-04-18T10:04:05.739Z</time></trkpt><trkpt lat="44.1179183" lon="11.3819533"><ele>419.0</ele><time>2026-04-18T10:04:06.74Z</time></trkpt><trkpt lat="44.117955" lon="11.3820933"><ele>418.25</ele><time>2026-04-18T10:04:07.739Z</time></trkpt><trkpt lat="44.1179833" lon="11.38224"><ele>417.5</ele><time>2026-04-18T10:04:08.739Z</time></trkpt><trkpt lat="44.1180133" lon="11.3823883"><ele>416.75</ele><time>2026-04-18T10:04:09.74Z</time></trkpt><trkpt lat="44.1180533" lon="11.3825367"><ele>416.0</ele><time>2026-04-18T10:04:10.739Z</time></trkpt><trkpt lat="44.1180983" lon="11.3826917"><ele>416.0</ele><time>2026-04-18T10:04:11.739Z</time></trkpt><trkpt lat="44.1181317" lon="11.3828417"><ele>416.0</ele><time>2026-04-18T10:04:12.739Z</time></trkpt><trkpt lat="44.1181617" lon="11.382985"><ele>416.0</ele><time>2026-04-18T10:04:13.739Z</time></trkpt><trkpt lat="44.1181867" lon="11.3831383"><ele>416.0</ele><time>2026-04-18T10:04:14.739Z</time></trkpt><trkpt lat="44.1182183" lon="11.3833"><ele>416.0</ele><time>2026-04-18T10:04:15.739Z</time></trkpt><trkpt lat="44.118255" lon="11.3834533"><ele>416.0</ele><time>2026-04-18T10:04:16.739Z</time></trkpt><trkpt lat="44.1182917" lon="11.3835933"><ele>416.0</ele><time>2026-04-18T10:04:17.739Z</time></trkpt><trkpt lat="44.1183333" lon="11.3837117"><ele>416.0</ele><time>2026-04-18T10:04:18.74Z</time></trkpt><trkpt lat="44.118365" lon="11.3838167"><ele>416.0</ele><time>2026-04-18T10:04:19.739Z</time></trkpt><trkpt lat="44.118435" lon="11.3839133"><ele>415.99999999999994</ele><time>2026-04-18T10:04:21.74Z</time></trkpt><trkpt lat="44.1184883" lon="11.38383"><ele>416.0</ele><time>2026-04-18T10:04:24.739Z</time></trkpt><trkpt lat="44.1184817" lon="11.3837217"><ele>416.0</ele><time>2026-04-18T10:04:27.739Z</time></trkpt><trkpt lat="44.11845" lon="11.3838233"><ele>416.0</ele><time>2026-04-18T10:14:10.737Z</time></trkpt><trkpt lat="44.118415" lon="11.3839267"><ele>415.99999999999994</ele><time>2026-04-18T10:14:21.737Z</time></trkpt><trkpt lat="44.1184167" lon="11.3840867"><ele>416.0</ele><time>2026-04-18T10:14:23.737Z</time></trkpt><trkpt lat="44.1184617" lon="11.3842433"><ele>416.0</ele><time>2026-04-18T10:14:25.736Z</time></trkpt><trkpt lat="44.11848" lon="11.3843333"><ele>416.0</ele><time>2026-04-18T10:14:26.736Z</time></trkpt><trkpt lat="44.1185" lon="11.3844267"><ele>416.0</ele><time>2026-04-18T10:14:27.736Z</time></trkpt><trkpt lat="44.1185183" lon="11.38452"><ele>416.0</ele><time>2026-04-18T10:14:28.736Z</time></trkpt><trkpt lat="44.1185433" lon="11.3846167"><ele>416.0</ele><time>2026-04-18T10:14:29.736Z</time></trkpt><trkpt lat="44.118565" lon="11.384715"><ele>416.0</ele><time>2026-04-18T10:14:30.736Z</time></trkpt><trkpt lat="44.1185883" lon="11.3848033"><ele>416.0</ele><time>2026-04-18T10:14:31.736Z</time></trkpt><trkpt lat="44.1185983" lon="11.38489"><ele>416.0</ele><time>2026-04-18T10:14:32.736Z</time></trkpt><trkpt lat="44.1185783" lon="11.3850217"><ele>416.0</ele><time>2026-04-18T10:14:34.736Z</time></trkpt><trkpt lat="44.11846" lon="11.3851067"><ele>416.0</ele><time>2026-04-18T10:14:36.736Z</time></trkpt><trkpt lat="44.118385" lon="11.385155"><ele>416.0</ele><time>2026-04-18T10:14:37.736Z</time></trkpt><trkpt lat="44.1183067" lon="11.3852167"><ele>416.0</ele><time>2026-04-18T10:14:38.737Z</time></trkpt><trkpt lat="44.1182317" lon="11.3853"><ele>415.8</ele><time>2026-04-18T10:14:39.737Z</time></trkpt><trkpt lat="44.1181567" lon="11.385385"><ele>415.6</ele><time>2026-04-18T10:14:40.736Z</time></trkpt><trkpt lat="44.1180817" lon="11.385485"><ele>415.4</ele><time>2026-04-18T10:14:41.737Z</time></trkpt><trkpt lat="44.1180083" lon="11.3855817"><ele>415.2</ele><time>2026-04-18T10:14:42.736Z</time></trkpt><trkpt lat="44.1179267" lon="11.38567"><ele>415.0</ele><time>2026-04-18T10:14:43.737Z</time></trkpt><trkpt lat="44.117845" lon="11.38575"><ele>414.8</ele><time>2026-04-18T10:14:44.736Z</time></trkpt><trkpt lat="44.117755" lon="11.38583"><ele>414.6</ele><time>2026-04-18T10:14:45.736Z</time></trkpt><trkpt lat="44.11767" lon="11.3859017"><ele>414.4</ele><time>2026-04-18T10:14:46.736Z</time></trkpt><trkpt lat="44.11759" lon="11.3859617"><ele>414.2</ele><time>2026-04-18T10:14:47.736Z</time></trkpt><trkpt lat="44.1175183" lon="11.3860283"><ele>414.0</ele><time>2026-04-18T10:14:48.737Z</time></trkpt><trkpt lat="44.11745" lon="11.38609"><ele>413.8333333333333</ele><time>2026-04-18T10:14:49.737Z</time></trkpt><trkpt lat="44.117385" lon="11.3861417"><ele>413.66666666666663</ele><time>2026-04-18T10:14:50.736Z</time></trkpt><trkpt lat="44.1173183" lon="11.3861917"><ele>413.5</ele><time>2026-04-18T10:14:51.737Z</time></trkpt><trkpt lat="44.1172433" lon="11.386245"><ele>413.3333333333333</ele><time>2026-04-18T10:14:52.736Z</time></trkpt><trkpt lat="44.1171733" lon="11.3862983"><ele>413.16666666666663</ele><time>2026-04-18T10:14:53.736Z</time></trkpt><trkpt lat="44.1171033" lon="11.3863433"><ele>413.0</ele><time>2026-04-18T10:14:54.736Z</time></trkpt><trkpt lat="44.1170367" lon="11.3863733"><ele>412.99999999999994</ele><time>2026-04-18T10:14:55.736Z</time></trkpt><trkpt lat="44.116975" lon="11.3863967"><ele>413.0</ele><time>2026-04-18T10:14:56.736Z</time></trkpt><trkpt lat="44.1169" lon="11.386445"><ele>413.0</ele><time>2026-04-18T10:14:58.736Z</time></trkpt><trkpt lat="44.11688" lon="11.38654"><ele>413.0</ele><time>2026-04-18T10:15:00.736Z</time></trkpt><trkpt lat="44.1169183" lon="11.38662"><ele>412.99999999999994</ele><time>2026-04-18T10:15:02.736Z</time></trkpt><trkpt lat="44.11697" lon="11.3867383"><ele>413.0</ele><time>2026-04-18T10:15:09.736Z</time></trkpt><trkpt lat="44.1169867" lon="11.3868483"><ele>412.99999999999994</ele><time>2026-04-18T10:15:11.737Z</time></trkpt><trkpt lat="44.1170133" lon="11.3869317"><ele>413.0</ele><time>2026-04-18T10:15:12.736Z</time></trkpt><trkpt lat="44.1170517" lon="11.3870383"><ele>413.0</ele><time>2026-04-18T10:15:13.737Z</time></trkpt><trkpt lat="44.1170883" lon="11.3871533"><ele>413.0</ele><time>2026-04-18T10:15:14.736Z</time></trkpt><trkpt lat="44.1171283" lon="11.3872683"><ele>412.99999999999994</ele><time>2026-04-18T10:15:15.736Z</time></trkpt><trkpt lat="44.1171633" lon="11.3873733"><ele>413.0</ele><time>2026-04-18T10:15:16.736Z</time></trkpt><trkpt lat="44.1172033" lon="11.38747"><ele>412.8333333333333</ele><time>2026-04-18T10:15:17.736Z</time></trkpt><trkpt lat="44.1172433" lon="11.3875733"><ele>412.66666666666663</ele><time>2026-04-18T10:15:18.737Z</time></trkpt><trkpt lat="44.11729" lon="11.3876617"><ele>412.5</ele><time>2026-04-18T10:15:19.736Z</time></trkpt><trkpt lat="44.1173217" lon="11.38774"><ele>412.33333333333337</ele><time>2026-04-18T10:15:20.737Z</time></trkpt><trkpt lat="44.117345" lon="11.387865"><ele>412.1666666666667</ele><time>2026-04-18T10:15:22.737Z</time></trkpt><trkpt lat="44.1173217" lon="11.388015"><ele>412.0</ele><time>2026-04-18T10:15:24.736Z</time></trkpt><trkpt lat="44.1173417" lon="11.3882167"><ele>411.8</ele><time>2026-04-18T10:15:26.736Z</time></trkpt><trkpt lat="44.1173683" lon="11.3883733"><ele>411.6</ele><time>2026-04-18T10:15:27.737Z</time></trkpt><trkpt lat="44.117415" lon="11.3885083"><ele>411.40000000000003</ele><time>2026-04-18T10:15:28.737Z</time></trkpt><trkpt lat="44.11746" lon="11.3886267"><ele>411.20000000000005</ele><time>2026-04-18T10:15:29.737Z</time></trkpt><trkpt lat="44.117505" lon="11.3887217"><ele>411.0</ele><time>2026-04-18T10:15:30.736Z</time></trkpt><trkpt lat="44.117555" lon="11.38879"><ele>410.6666666666667</ele><time>2026-04-18T10:15:31.737Z</time></trkpt><trkpt lat="44.1176067" lon="11.38885"><ele>410.33333333333337</ele><time>2026-04-18T10:15:32.736Z</time></trkpt><trkpt lat="44.1176533" lon="11.3889183"><ele>410.0</ele><time>2026-04-18T10:15:33.736Z</time></trkpt><trkpt lat="44.1176967" lon="11.3890033"><ele>409.6666666666667</ele><time>2026-04-18T10:15:34.736Z</time></trkpt><trkpt lat="44.1177483" lon="11.3891133"><ele>409.33333333333337</ele><time>2026-04-18T10:15:35.736Z</time></trkpt><trkpt lat="44.1177883" lon="11.3892283"><ele>409.0</ele><time>2026-04-18T10:15:36.737Z</time></trkpt><trkpt lat="44.1178117" lon="11.38933"><ele>409.0</ele><time>2026-04-18T10:15:37.736Z</time></trkpt><trkpt lat="44.1178" lon="11.3894883"><ele>409.0</ele><time>2026-04-18T10:15:39.736Z</time></trkpt><trkpt lat="44.11777" lon="11.3895667"><ele>409.0</ele><time>2026-04-18T10:15:40.736Z</time></trkpt><trkpt lat="44.1177167" lon="11.3896783"><ele>409.0</ele><time>2026-04-18T10:15:42.737Z</time></trkpt><trkpt lat="44.117755" lon="11.3898117"><ele>409.0</ele><time>2026-04-18T10:15:45.736Z</time></trkpt><trkpt lat="44.1178167" lon="11.3899617"><ele>409.1666666666667</ele><time>2026-04-18T10:15:47.736Z</time></trkpt><trkpt lat="44.1178633" lon="11.3900833"><ele>409.33333333333337</ele><time>2026-04-18T10:15:49.737Z</time></trkpt><trkpt lat="44.1178733" lon="11.39018"><ele>409.5</ele><time>2026-04-18T10:15:51.736Z</time></trkpt><trkpt lat="44.11782" lon="11.39031"><ele>409.66666666666663</ele><time>2026-04-18T10:15:53.736Z</time></trkpt><trkpt lat="44.1177767" lon="11.390405"><ele>409.8333333333333</ele><time>2026-04-18T10:15:54.736Z</time></trkpt><trkpt lat="44.11773" lon="11.3905"><ele>410.0</ele><time>2026-04-18T10:15:55.737Z</time></trkpt><trkpt lat="44.1176817" lon="11.3906167"><ele>410.16666666666663</ele><time>2026-04-18T10:15:57.736Z</time></trkpt><trkpt lat="44.1177333" lon="11.3907217"><ele>410.3333333333333</ele><time>2026-04-18T10:16:00.736Z</time></trkpt><trkpt lat="44.1177817" lon="11.3907833"><ele>410.5</ele><time>2026-04-18T10:16:01.736Z</time></trkpt><trkpt lat="44.1178267" lon="11.390845"><ele>410.66666666666663</ele><time>2026-04-18T10:16:02.737Z</time></trkpt><trkpt lat="44.11786" lon="11.3909233"><ele>410.8333333333333</ele><time>2026-04-18T10:16:03.736Z</time></trkpt><trkpt lat="44.1179117" lon="11.391055"><ele>411.0</ele><time>2026-04-18T10:16:05.737Z</time></trkpt><trkpt lat="44.11794" lon="11.3911433"><ele>411.0</ele><time>2026-04-18T10:16:07.737Z</time></trkpt><trkpt lat="44.1179783" lon="11.3912317"><ele>411.0</ele><time>2026-04-18T10:16:09.736Z</time></trkpt><trkpt lat="44.11802" lon="11.39134"><ele>411.0</ele><time>2026-04-18T10:16:11.736Z</time></trkpt><trkpt lat="44.1180683" lon="11.3914383"><ele>411.0</ele><time>2026-04-18T10:16:13.736Z</time></trkpt><trkpt lat="44.1181217" lon="11.391535"><ele>411.0</ele><time>2026-04-18T10:16:15.736Z</time></trkpt><trkpt lat="44.11818" lon="11.3916133"><ele>411.0</ele><time>2026-04-18T10:16:17.736Z</time></trkpt><trkpt lat="44.1182317" lon="11.3916917"><ele>410.8</ele><time>2026-04-18T10:16:19.736Z</time></trkpt><trkpt lat="44.118285" lon="11.391775"><ele>410.6</ele><time>2026-04-18T10:16:21.737Z</time></trkpt><trkpt lat="44.1183383" lon="11.3918983"><ele>410.4</ele><time>2026-04-18T10:16:23.736Z</time></trkpt><trkpt lat="44.1183983" lon="11.3920183"><ele>410.2</ele><time>2026-04-18T10:16:25.737Z</time></trkpt><trkpt lat="44.1184317" lon="11.392145"><ele>410.0</ele><time>2026-04-18T10:16:27.736Z</time></trkpt><trkpt lat="44.1184717" lon="11.3922917"><ele>409.49999999999994</ele><time>2026-04-18T10:16:29.736Z</time></trkpt><trkpt lat="44.1185083" lon="11.3924317"><ele>409.0</ele><time>2026-04-18T10:16:31.737Z</time></trkpt><trkpt lat="44.1185483" lon="11.3925933"><ele>408.5</ele><time>2026-04-18T10:16:33.737Z</time></trkpt><trkpt lat="44.118575" lon="11.39269"><ele>408.0</ele><time>2026-04-18T10:16:34.736Z</time></trkpt><trkpt lat="44.1186017" lon="11.3927733"><ele>407.49999999999994</ele><time>2026-04-18T10:16:35.737Z</time></trkpt><trkpt lat="44.1186133" lon="11.392865"><ele>407.0</ele><time>2026-04-18T10:16:36.736Z</time></trkpt><trkpt lat="44.1186233" lon="11.3929633"><ele>406.99999999999994</ele><time>2026-04-18T10:16:37.736Z</time></trkpt><trkpt lat="44.1186317" lon="11.393085"><ele>407.0</ele><time>2026-04-18T10:16:38.737Z</time></trkpt><trkpt lat="44.118635" lon="11.393185"><ele>407.0</ele><time>2026-04-18T10:16:39.737Z</time></trkpt><trkpt lat="44.1186167" lon="11.3932867"><ele>407.0</ele><time>2026-04-18T10:16:41.736Z</time></trkpt><trkpt lat="44.1185517" lon="11.39327"><ele>406.99999999999994</ele><time>2026-04-18T10:16:43.736Z</time></trkpt><trkpt lat="44.1184617" lon="11.3932017"><ele>407.0</ele><time>2026-04-18T10:16:45.736Z</time></trkpt><trkpt lat="44.1183683" lon="11.3931767"><ele>406.99999999999994</ele><time>2026-04-18T10:16:47.736Z</time></trkpt><trkpt lat="44.1183" lon="11.3931817"><ele>407.0</ele><time>2026-04-18T10:16:50.737Z</time></trkpt><trkpt lat="44.1182217" lon="11.393195"><ele>407.0</ele><time>2026-04-18T10:17:04.737Z</time></trkpt><trkpt lat="44.1181333" lon="11.39326"><ele>407.0</ele><time>2026-04-18T10:17:06.736Z</time></trkpt><trkpt lat="44.1180617" lon="11.3933283"><ele>406.99999999999994</ele><time>2026-04-18T10:17:08.737Z</time></trkpt><trkpt lat="44.1179883" lon="11.39337"><ele>407.0</ele><time>2026-04-18T10:17:10.736Z</time></trkpt><trkpt lat="44.1179067" lon="11.3932933"><ele>407.3333333333333</ele><time>2026-04-18T10:17:13.737Z</time></trkpt><trkpt lat="44.1178533" lon="11.393235"><ele>407.66666666666663</ele><time>2026-04-18T10:17:15.736Z</time></trkpt><trkpt lat="44.1177733" lon="11.393225"><ele>408.0</ele><time>2026-04-18T10:17:18.737Z</time></trkpt><trkpt lat="44.1176867" lon="11.3932967"><ele>408.33333333333337</ele><time>2026-04-18T10:17:20.737Z</time></trkpt><trkpt lat="44.11764" lon="11.3933583"><ele>408.6666666666667</ele><time>2026-04-18T10:17:21.736Z</time></trkpt><trkpt lat="44.1175983" lon="11.3934367"><ele>409.0</ele><time>2026-04-18T10:17:22.736Z</time></trkpt><trkpt lat="44.1175783" lon="11.39353"><ele>409.00000000000006</ele><time>2026-04-18T10:17:23.737Z</time></trkpt><trkpt lat="44.1175717" lon="11.3936367"><ele>409.0</ele><time>2026-04-18T10:17:24.736Z</time></trkpt><trkpt lat="44.1175883" lon="11.39376"><ele>409.0</ele><time>2026-04-18T10:17:25.736Z</time></trkpt><trkpt lat="44.11762" lon="11.393895"><ele>409.0</ele><time>2026-04-18T10:17:26.736Z</time></trkpt><trkpt lat="44.1176517" lon="11.3940117"><ele>409.00000000000006</ele><time>2026-04-18T10:17:27.736Z</time></trkpt><trkpt lat="44.1176667" lon="11.394105"><ele>409.0</ele><time>2026-04-18T10:17:28.736Z</time></trkpt><trkpt lat="44.1176317" lon="11.39423"><ele>411.4</ele><time>2026-04-18T10:17:30.736Z</time></trkpt><trkpt lat="44.1175183" lon="11.3943167"><ele>413.79999999999995</ele><time>2026-04-18T10:17:32.737Z</time></trkpt><trkpt lat="44.117455" lon="11.3943467"><ele>416.20000000000005</ele><time>2026-04-18T10:17:33.737Z</time></trkpt><trkpt lat="44.11739" lon="11.3944033"><ele>418.6</ele><time>2026-04-18T10:17:35.736Z</time></trkpt><trkpt lat="44.1174517" lon="11.3944833"><ele>421.0</ele><time>2026-04-18T10:23:11.734Z</time></trkpt><trkpt lat="44.1175467" lon="11.3944533"><ele>421.0</ele><time>2026-04-18T10:23:13.734Z</time></trkpt><trkpt lat="44.11767" lon="11.39444"><ele>421.0</ele><time>2026-04-18T10:23:15.734Z</time></trkpt><trkpt lat="44.1177417" lon="11.3944567"><ele>421.0</ele><time>2026-04-18T10:23:16.734Z</time></trkpt><trkpt lat="44.11781" lon="11.3944733"><ele>421.0</ele><time>2026-04-18T10:23:17.734Z</time></trkpt><trkpt lat="44.1179233" lon="11.394515"><ele>421.0</ele><time>2026-04-18T10:23:19.734Z</time></trkpt><trkpt lat="44.1179883" lon="11.394595"><ele>424.1666666666667</ele><time>2026-04-18T10:23:21.735Z</time></trkpt><trkpt lat="44.1180433" lon="11.3946917"><ele>427.33333333333337</ele><time>2026-04-18T10:23:23.734Z</time></trkpt><trkpt lat="44.1181317" lon="11.3947783"><ele>430.5</ele><time>2026-04-18T10:23:25.735Z</time></trkpt><trkpt lat="44.1181967" lon="11.39482"><ele>433.66666666666663</ele><time>2026-04-18T10:23:26.734Z</time></trkpt><trkpt lat="44.1182667" lon="11.3948683"><ele>436.8333333333333</ele><time>2026-04-18T10:23:27.735Z</time></trkpt><trkpt lat="44.118335" lon="11.394935"><ele>440.0</ele><time>2026-04-18T10:23:28.734Z</time></trkpt><trkpt lat="44.1183967" lon="11.3950217"><ele>440.0</ele><time>2026-04-18T10:23:29.734Z</time></trkpt><trkpt lat="44.1184483" lon="11.395145"><ele>440.0</ele><time>2026-04-18T10:23:30.735Z</time></trkpt><trkpt lat="44.118495" lon="11.3952783"><ele>440.0</ele><time>2026-04-18T10:23:31.734Z</time></trkpt><trkpt lat="44.11852" lon="11.39542"><ele>440.0</ele><time>2026-04-18T10:23:32.735Z</time></trkpt><trkpt lat="44.1185383" lon="11.3955283"><ele>440.0</ele><time>2026-04-18T10:23:33.735Z</time></trkpt><trkpt lat="44.1185533" lon="11.3956183"><ele>444.0</ele><time>2026-04-18T10:23:34.734Z</time></trkpt><trkpt lat="44.1185483" lon="11.3957783"><ele>448.0</ele><time>2026-04-18T10:23:36.735Z</time></trkpt><trkpt lat="44.1184817" lon="11.395845"><ele>452.0</ele><time>2026-04-18T10:23:38.734Z</time></trkpt><trkpt lat="44.1183767" lon="11.3957667"><ele>456.0</ele><time>2026-04-18T10:23:40.735Z</time></trkpt><trkpt lat="44.1183183" lon="11.3956883"><ele>460.0</ele><time>2026-04-18T10:23:41.735Z</time></trkpt><trkpt lat="44.11824" lon="11.3955867"><ele>456.0</ele><time>2026-04-18T10:23:42.734Z</time></trkpt><trkpt lat="44.118145" lon="11.3954833"><ele>452.0</ele><time>2026-04-18T10:23:43.734Z</time></trkpt><trkpt lat="44.1180433" lon="11.39542"><ele>448.0</ele><time>2026-04-18T10:23:44.735Z</time></trkpt><trkpt lat="44.11793" lon="11.3953967"><ele>444.0</ele><time>2026-04-18T10:23:45.735Z</time></trkpt><trkpt lat="44.1178" lon="11.3954017"><ele>444.0</ele><time>2026-04-18T10:23:46.735Z</time></trkpt><trkpt lat="44.1176617" lon="11.3954417"><ele>444.0</ele><time>2026-04-18T10:23:47.735Z</time></trkpt><trkpt lat="44.1175317" lon="11.3954883"><ele>444.0</ele><time>2026-04-18T10:23:48.734Z</time></trkpt><trkpt lat="44.1174317" lon="11.39555"><ele>444.0</ele><time>2026-04-18T10:23:49.735Z</time></trkpt><trkpt lat="44.1173567" lon="11.3956483"><ele>447.5</ele><time>2026-04-18T10:23:50.735Z</time></trkpt><trkpt lat="44.11728" lon="11.3957833"><ele>451.0</ele><time>2026-04-18T10:23:51.735Z</time></trkpt><trkpt lat="44.117215" lon="11.3959333"><ele>454.5</ele><time>2026-04-18T10:23:52.735Z</time></trkpt><trkpt lat="44.1171533" lon="11.39607"><ele>458.0</ele><time>2026-04-18T10:23:53.734Z</time></trkpt><trkpt lat="44.117075" lon="11.3961983"><ele>458.0</ele><time>2026-04-18T10:23:54.734Z</time></trkpt><trkpt lat="44.1169817" lon="11.3962817"><ele>457.99999999999994</ele><time>2026-04-18T10:23:55.734Z</time></trkpt><trkpt lat="44.1168667" lon="11.3962933"><ele>457.99999999999994</ele><time>2026-04-18T10:23:56.734Z</time></trkpt><trkpt lat="44.1167617" lon="11.396245"><ele>458.0</ele><time>2026-04-18T10:23:57.733Z</time></trkpt><trkpt lat="44.1166633" lon="11.3962"><ele>458.0</ele><time>2026-04-18T10:23:58.733Z</time></trkpt><trkpt lat="44.1165567" lon="11.3961717"><ele>457.59999999999997</ele><time>2026-04-18T10:23:59.734Z</time></trkpt><trkpt lat="44.1164617" lon="11.3961617"><ele>457.19999999999993</ele><time>2026-04-18T10:24:00.733Z</time></trkpt><trkpt lat="44.1163633" lon="11.3961683"><ele>456.8</ele><time>2026-04-18T10:24:01.734Z</time></trkpt><trkpt lat="44.1162667" lon="11.3961817"><ele>456.4</ele><time>2026-04-18T10:24:02.733Z</time></trkpt><trkpt lat="44.1161867" lon="11.3962133"><ele>456.0</ele><time>2026-04-18T10:24:03.734Z</time></trkpt><trkpt lat="44.1161033" lon="11.3962733"><ele>462.0</ele><time>2026-04-18T10:24:04.734Z</time></trkpt><trkpt lat="44.1160433" lon="11.3963667"><ele>468.0</ele><time>2026-04-18T10:24:05.733Z</time></trkpt><trkpt lat="44.1159783" lon="11.3964817"><ele>474.0</ele><time>2026-04-18T10:24:06.733Z</time></trkpt><trkpt lat="44.1159183" lon="11.3965983"><ele>480.0</ele><time>2026-04-18T10:24:07.733Z</time></trkpt><trkpt lat="44.11585" lon="11.3967083"><ele>486.0</ele><time>2026-04-18T10:24:08.733Z</time></trkpt><trkpt lat="44.1157683" lon="11.396795"><ele>484.4</ele><time>2026-04-18T10:24:09.733Z</time></trkpt><trkpt lat="44.1156783" lon="11.3968533"><ele>482.8</ele><time>2026-04-18T10:24:10.733Z</time></trkpt><trkpt lat="44.1155767" lon="11.3968967"><ele>481.19999999999993</ele><time>2026-04-18T10:24:11.734Z</time></trkpt><trkpt lat="44.11548" lon="11.39694"><ele>479.59999999999997</ele><time>2026-04-18T10:24:12.733Z</time></trkpt><trkpt lat="44.115395" lon="11.39698"><ele>478.0</ele><time>2026-04-18T10:24:13.733Z</time></trkpt><trkpt lat="44.11533" lon="11.3970333"><ele>478.0</ele><time>2026-04-18T10:24:14.733Z</time></trkpt><trkpt lat="44.1152733" lon="11.3971267"><ele>477.99999999999994</ele><time>2026-04-18T10:24:15.734Z</time></trkpt><trkpt lat="44.115225" lon="11.3972383"><ele>477.99999999999994</ele><time>2026-04-18T10:24:16.733Z</time></trkpt><trkpt lat="44.1151767" lon="11.3973683"><ele>478.0</ele><time>2026-04-18T10:24:17.734Z</time></trkpt><trkpt lat="44.1151133" lon="11.3974933"><ele>478.0</ele><time>2026-04-18T10:24:18.734Z</time></trkpt><trkpt lat="44.1150383" lon="11.3976067"><ele>478.0</ele><time>2026-04-18T10:24:19.733Z</time></trkpt><trkpt lat="44.1149583" lon="11.3977067"><ele>477.99999999999994</ele><time>2026-04-18T10:24:20.733Z</time></trkpt><trkpt lat="44.11489" lon="11.3978017"><ele>477.99999999999994</ele><time>2026-04-18T10:24:21.733Z</time></trkpt><trkpt lat="44.1148267" lon="11.3979"><ele>478.0</ele><time>2026-04-18T10:24:22.733Z</time></trkpt><trkpt lat="44.1147617" lon="11.3980133"><ele>478.0</ele><time>2026-04-18T10:24:23.733Z</time></trkpt><trkpt lat="44.114705" lon="11.3981433"><ele>478.4</ele><time>2026-04-18T10:24:24.733Z</time></trkpt><trkpt lat="44.1146533" lon="11.398285"><ele>478.79999999999995</ele><time>2026-04-18T10:24:25.733Z</time></trkpt><trkpt lat="44.1146067" lon="11.39843"><ele>479.2</ele><time>2026-04-18T10:24:26.733Z</time></trkpt><trkpt lat="44.1145617" lon="11.3985517"><ele>479.6</ele><time>2026-04-18T10:24:27.733Z</time></trkpt><trkpt lat="44.114525" lon="11.3986567"><ele>480.0</ele><time>2026-04-18T10:24:28.733Z</time></trkpt><trkpt lat="44.114495" lon="11.398755"><ele>480.2</ele><time>2026-04-18T10:24:29.733Z</time></trkpt><trkpt lat="44.1144767" lon="11.39886"><ele>480.4</ele><time>2026-04-18T10:24:30.734Z</time></trkpt><trkpt lat="44.114475" lon="11.3989667"><ele>480.6</ele><time>2026-04-18T10:24:31.734Z</time></trkpt><trkpt lat="44.1145033" lon="11.3990867"><ele>480.8</ele><time>2026-04-18T10:24:32.734Z</time></trkpt><trkpt lat="44.1145517" lon="11.3992117"><ele>481.0</ele><time>2026-04-18T10:24:33.733Z</time></trkpt><trkpt lat="44.11461" lon="11.39934"><ele>481.0</ele><time>2026-04-18T10:24:34.733Z</time></trkpt><trkpt lat="44.1146517" lon="11.399475"><ele>481.0</ele><time>2026-04-18T10:24:35.733Z</time></trkpt><trkpt lat="44.1146783" lon="11.399615"><ele>481.0</ele><time>2026-04-18T10:24:36.733Z</time></trkpt><trkpt lat="44.1146833" lon="11.3997583"><ele>481.0</ele><time>2026-04-18T10:24:37.733Z</time></trkpt><trkpt lat="44.114665" lon="11.3998933"><ele>481.0</ele><time>2026-04-18T10:24:38.734Z</time></trkpt><trkpt lat="44.114625" lon="11.4000317"><ele>482.6</ele><time>2026-04-18T10:24:39.733Z</time></trkpt><trkpt lat="44.1145783" lon="11.4001667"><ele>484.20000000000005</ele><time>2026-04-18T10:24:40.733Z</time></trkpt><trkpt lat="44.1145267" lon="11.4002833"><ele>485.79999999999995</ele><time>2026-04-18T10:24:41.733Z</time></trkpt><trkpt lat="44.1144667" lon="11.4003883"><ele>487.4</ele><time>2026-04-18T10:24:42.733Z</time></trkpt><trkpt lat="44.1144" lon="11.4005233"><ele>489.0</ele><time>2026-04-18T10:24:43.733Z</time></trkpt><trkpt lat="44.1143233" lon="11.4006533"><ele>489.25</ele><time>2026-04-18T10:24:44.733Z</time></trkpt><trkpt lat="44.114245" lon="11.4007817"><ele>489.5</ele><time>2026-04-18T10:24:45.734Z</time></trkpt><trkpt lat="44.11415" lon="11.4009"><ele>489.75</ele><time>2026-04-18T10:24:46.734Z</time></trkpt><trkpt lat="44.1140667" lon="11.400995"><ele>490.0</ele><time>2026-04-18T10:24:47.734Z</time></trkpt><trkpt lat="44.1139833" lon="11.401075"><ele>490.0</ele><time>2026-04-18T10:24:48.733Z</time></trkpt><trkpt lat="44.1138967" lon="11.4011317"><ele>490.0</ele><time>2026-04-18T10:24:49.733Z</time></trkpt><trkpt lat="44.1137967" lon="11.4011767"><ele>490.0</ele><time>2026-04-18T10:24:50.733Z</time></trkpt><trkpt lat="44.1136967" lon="11.4012267"><ele>490.0</ele><time>2026-04-18T10:24:51.734Z</time></trkpt><trkpt lat="44.1135867" lon="11.4012783"><ele>490.0</ele><time>2026-04-18T10:24:52.733Z</time></trkpt><trkpt lat="44.113475" lon="11.4013283"><ele>491.6</ele><time>2026-04-18T10:24:53.734Z</time></trkpt><trkpt lat="44.11337" lon="11.40137"><ele>493.2</ele><time>2026-04-18T10:24:54.734Z</time></trkpt><trkpt lat="44.11327" lon="11.40141"><ele>494.79999999999995</ele><time>2026-04-18T10:24:55.734Z</time></trkpt><trkpt lat="44.11317" lon="11.4014467"><ele>496.4</ele><time>2026-04-18T10:24:56.734Z</time></trkpt><trkpt lat="44.113075" lon="11.40151"><ele>498.0</ele><time>2026-04-18T10:24:57.733Z</time></trkpt><trkpt lat="44.1129917" lon="11.4015917"><ele>498.0</ele><time>2026-04-18T10:24:58.733Z</time></trkpt><trkpt lat="44.1129117" lon="11.4016783"><ele>497.99999999999994</ele><time>2026-04-18T10:24:59.734Z</time></trkpt><trkpt lat="44.11283" lon="11.4017633"><ele>497.99999999999994</ele><time>2026-04-18T10:25:00.734Z</time></trkpt><trkpt lat="44.1127467" lon="11.40186"><ele>498.0</ele><time>2026-04-18T10:25:01.734Z</time></trkpt><trkpt lat="44.1126783" lon="11.4019633"><ele>498.0</ele><time>2026-04-18T10:25:02.733Z</time></trkpt><trkpt lat="44.112605" lon="11.4020833"><ele>500.25</ele><time>2026-04-18T10:25:03.734Z</time></trkpt><trkpt lat="44.1125333" lon="11.4022183"><ele>502.5</ele><time>2026-04-18T10:25:04.733Z</time></trkpt><trkpt lat="44.1124667" lon="11.402335"><ele>504.75</ele><time>2026-04-18T10:25:05.734Z</time></trkpt><trkpt lat="44.1123817" lon="11.40246"><ele>507.0</ele><time>2026-04-18T10:25:06.733Z</time></trkpt><trkpt lat="44.1122917" lon="11.402555"><ele>507.0</ele><time>2026-04-18T10:25:07.733Z</time></trkpt><trkpt lat="44.112195" lon="11.4026183"><ele>507.00000000000006</ele><time>2026-04-18T10:25:08.733Z</time></trkpt><trkpt lat="44.1121" lon="11.40267"><ele>507.00000000000006</ele><time>2026-04-18T10:25:09.734Z</time></trkpt><trkpt lat="44.1119967" lon="11.4027233"><ele>507.0</ele><time>2026-04-18T10:25:10.733Z</time></trkpt><trkpt lat="44.1118917" lon="11.4027683"><ele>507.0</ele><time>2026-04-18T10:25:11.734Z</time></trkpt><trkpt lat="44.1117867" lon="11.4028017"><ele>507.0</ele><time>2026-04-18T10:25:12.734Z</time></trkpt><trkpt lat="44.1116767" lon="11.402835"><ele>507.00000000000006</ele><time>2026-04-18T10:25:13.733Z</time></trkpt><trkpt lat="44.1115667" lon="11.402865"><ele>507.00000000000006</ele><time>2026-04-18T10:25:14.734Z</time></trkpt><trkpt lat="44.1114583" lon="11.40289"><ele>507.0</ele><time>2026-04-18T10:25:15.733Z</time></trkpt><trkpt lat="44.111355" lon="11.4029417"><ele>507.0</ele><time>2026-04-18T10:25:16.734Z</time></trkpt><trkpt lat="44.111265" lon="11.402995"><ele>511.6</ele><time>2026-04-18T10:25:17.734Z</time></trkpt><trkpt lat="44.1111767" lon="11.4030417"><ele>516.2</ele><time>2026-04-18T10:25:18.733Z</time></trkpt><trkpt lat="44.1110933" lon="11.4030833"><ele>520.8</ele><time>2026-04-18T10:25:19.733Z</time></trkpt><trkpt lat="44.1110167" lon="11.4031183"><ele>525.4</ele><time>2026-04-18T10:25:20.733Z</time></trkpt><trkpt lat="44.1109217" lon="11.40317"><ele>530.0</ele><time>2026-04-18T10:25:22.734Z</time></trkpt><trkpt lat="44.1108617" lon="11.403275"><ele>530.0</ele><time>2026-04-18T10:25:24.734Z</time></trkpt><trkpt lat="44.110785" lon="11.4034233"><ele>530.0</ele><time>2026-04-18T10:25:26.733Z</time></trkpt><trkpt lat="44.110735" lon="11.4034967"><ele>530.0</ele><time>2026-04-18T10:25:27.734Z</time></trkpt><trkpt lat="44.1106783" lon="11.40356"><ele>530.0</ele><time>2026-04-18T10:25:28.733Z</time></trkpt><trkpt lat="44.11059" lon="11.4036067"><ele>530.0</ele><time>2026-04-18T10:25:29.733Z</time></trkpt><trkpt lat="44.1105017" lon="11.4036233"><ele>530.3333333333333</ele><time>2026-04-18T10:25:30.733Z</time></trkpt><trkpt lat="44.1104083" lon="11.40361"><ele>530.6666666666666</ele><time>2026-04-18T10:25:31.733Z</time></trkpt><trkpt lat="44.1103133" lon="11.4035767"><ele>531.0</ele><time>2026-04-18T10:25:32.734Z</time></trkpt><trkpt lat="44.1102283" lon="11.4035467"><ele>531.3333333333334</ele><time>2026-04-18T10:25:33.733Z</time></trkpt><trkpt lat="44.110155" lon="11.4035383"><ele>531.6666666666667</ele><time>2026-04-18T10:25:34.734Z</time></trkpt><trkpt lat="44.1100883" lon="11.4035767"><ele>532.0</ele><time>2026-04-18T10:25:35.734Z</time></trkpt><trkpt lat="44.11002" lon="11.403645"><ele>532.0</ele><time>2026-04-18T10:25:36.734Z</time></trkpt><trkpt lat="44.10995" lon="11.40375"><ele>532.0</ele><time>2026-04-18T10:25:37.734Z</time></trkpt><trkpt lat="44.1098767" lon="11.403865"><ele>532.0</ele><time>2026-04-18T10:25:38.733Z</time></trkpt><trkpt lat="44.1098" lon="11.4039683"><ele>532.0</ele><time>2026-04-18T10:25:39.734Z</time></trkpt><trkpt lat="44.1097217" lon="11.40408"><ele>532.0</ele><time>2026-04-18T10:25:40.734Z</time></trkpt><trkpt lat="44.10966" lon="11.4041933"><ele>533.3333333333334</ele><time>2026-04-18T10:25:41.733Z</time></trkpt><trkpt lat="44.109605" lon="11.4043067"><ele>534.6666666666667</ele><time>2026-04-18T10:25:42.733Z</time></trkpt><trkpt lat="44.1095783" lon="11.4044017"><ele>536.0</ele><time>2026-04-18T10:25:43.733Z</time></trkpt><trkpt lat="44.1095467" lon="11.404515"><ele>537.3333333333334</ele><time>2026-04-18T10:25:44.733Z</time></trkpt><trkpt lat="44.1095217" lon="11.404605"><ele>538.6666666666666</ele><time>2026-04-18T10:25:45.733Z</time></trkpt><trkpt lat="44.1094783" lon="11.404685"><ele>540.0</ele><time>2026-04-18T10:25:46.734Z</time></trkpt><trkpt lat="44.1094217" lon="11.4047283"><ele>541.8</ele><time>2026-04-18T10:25:47.733Z</time></trkpt><trkpt lat="44.109345" lon="11.40475"><ele>543.6</ele><time>2026-04-18T10:25:48.734Z</time></trkpt><trkpt lat="44.1092617" lon="11.4047883"><ele>545.4</ele><time>2026-04-18T10:25:49.733Z</time></trkpt><trkpt lat="44.1091783" lon="11.4048633"><ele>547.2</ele><time>2026-04-18T10:25:50.733Z</time></trkpt><trkpt lat="44.1091067" lon="11.404965"><ele>549.0</ele><time>2026-04-18T10:25:51.733Z</time></trkpt><trkpt lat="44.109045" lon="11.405115"><ele>549.0</ele><time>2026-04-18T10:25:52.733Z</time></trkpt><trkpt lat="44.10899" lon="11.405255"><ele>549.0</ele><time>2026-04-18T10:25:53.733Z</time></trkpt><trkpt lat="44.1089267" lon="11.4053783"><ele>549.0</ele><time>2026-04-18T10:25:54.733Z</time></trkpt><trkpt lat="44.1088433" lon="11.405465"><ele>549.0</ele><time>2026-04-18T10:25:55.733Z</time></trkpt><trkpt lat="44.1087533" lon="11.4055483"><ele>549.0</ele><time>2026-04-18T10:25:56.733Z</time></trkpt><trkpt lat="44.1086633" lon="11.4056517"><ele>551.4</ele><time>2026-04-18T10:25:57.733Z</time></trkpt><trkpt lat="44.1085833" lon="11.40577"><ele>553.8</ele><time>2026-04-18T10:25:58.733Z</time></trkpt><trkpt lat="44.1085083" lon="11.4058833"><ele>556.2</ele><time>2026-04-18T10:25:59.734Z</time></trkpt><trkpt lat="44.1084617" lon="11.4059767"><ele>558.6</ele><time>2026-04-18T10:26:00.734Z</time></trkpt><trkpt lat="44.1084233" lon="11.406065"><ele>561.0</ele><time>2026-04-18T10:26:01.734Z</time></trkpt><trkpt lat="44.1083783" lon="11.4061483"><ele>561.0</ele><time>2026-04-18T10:26:02.734Z</time></trkpt><trkpt lat="44.1083217" lon="11.4062467"><ele>561.0</ele><time>2026-04-18T10:26:03.734Z</time></trkpt><trkpt lat="44.1082683" lon="11.4063533"><ele>561.0</ele><time>2026-04-18T10:26:04.733Z</time></trkpt><trkpt lat="44.1082233" lon="11.40647"><ele>561.0</ele><time>2026-04-18T10:26:05.733Z</time></trkpt><trkpt lat="44.1081817" lon="11.40659"><ele>561.0</ele><time>2026-04-18T10:26:06.733Z</time></trkpt><trkpt lat="44.1081367" lon="11.4067067"><ele>562.6</ele><time>2026-04-18T10:26:07.733Z</time></trkpt><trkpt lat="44.10809" lon="11.4068217"><ele>564.2</ele><time>2026-04-18T10:26:08.734Z</time></trkpt><trkpt lat="44.1080383" lon="11.4069417"><ele>565.8</ele><time>2026-04-18T10:26:09.733Z</time></trkpt><trkpt lat="44.1079733" lon="11.40706"><ele>567.4</ele><time>2026-04-18T10:26:10.733Z</time></trkpt><trkpt lat="44.1078967" lon="11.4071667"><ele>569.0</ele><time>2026-04-18T10:26:11.734Z</time></trkpt><trkpt lat="44.1078317" lon="11.4072717"><ele>569.0</ele><time>2026-04-18T10:26:12.734Z</time></trkpt><trkpt lat="44.1077667" lon="11.407365"><ele>569.0</ele><time>2026-04-18T10:26:13.733Z</time></trkpt><trkpt lat="44.107695" lon="11.40746"><ele>569.0</ele><time>2026-04-18T10:26:14.734Z</time></trkpt><trkpt lat="44.107645" lon="11.4075417"><ele>569.0</ele><time>2026-04-18T10:26:15.733Z</time></trkpt><trkpt lat="44.107595" lon="11.40763"><ele>569.0</ele><time>2026-04-18T10:26:16.734Z</time></trkpt><trkpt lat="44.1075383" lon="11.40773"><ele>569.0</ele><time>2026-04-18T10:26:17.733Z</time></trkpt><trkpt lat="44.1074933" lon="11.4078283"><ele>569.0</ele><time>2026-04-18T10:26:18.734Z</time></trkpt><trkpt lat="44.107445" lon="11.4079233"><ele>569.0</ele><time>2026-04-18T10:26:19.733Z</time></trkpt><trkpt lat="44.1074033" lon="11.4080233"><ele>569.0</ele><time>2026-04-18T10:26:20.733Z</time></trkpt><trkpt lat="44.1073467" lon="11.4081083"><ele>569.0</ele><time>2026-04-18T10:26:21.733Z</time></trkpt><trkpt lat="44.107275" lon="11.4081867"><ele>569.0</ele><time>2026-04-18T10:26:22.733Z</time></trkpt><trkpt lat="44.1071967" lon="11.4082567"><ele>569.0</ele><time>2026-04-18T10:26:23.733Z</time></trkpt><trkpt lat="44.1071217" lon="11.4083433"><ele>569.4</ele><time>2026-04-18T10:26:24.734Z</time></trkpt><trkpt lat="44.1070683" lon="11.4084433"><ele>569.8</ele><time>2026-04-18T10:26:25.734Z</time></trkpt><trkpt lat="44.1070417" lon="11.4085717"><ele>570.2</ele><time>2026-04-18T10:26:26.734Z</time></trkpt><trkpt lat="44.1070183" lon="11.408705"><ele>570.6</ele><time>2026-04-18T10:26:27.733Z</time></trkpt><trkpt lat="44.106975" lon="11.40884"><ele>571.0</ele><time>2026-04-18T10:26:28.733Z</time></trkpt><trkpt lat="44.106925" lon="11.408965"><ele>574.0</ele><time>2026-04-18T10:26:29.733Z</time></trkpt><trkpt lat="44.106865" lon="11.4090767"><ele>577.0</ele><time>2026-04-18T10:26:30.733Z</time></trkpt><trkpt lat="44.1067867" lon="11.4091817"><ele>580.0</ele><time>2026-04-18T10:26:31.733Z</time></trkpt><trkpt lat="44.106705" lon="11.4093"><ele>583.0</ele><time>2026-04-18T10:26:32.733Z</time></trkpt><trkpt lat="44.1066333" lon="11.409425"><ele>586.0</ele><time>2026-04-18T10:26:33.733Z</time></trkpt><trkpt lat="44.1065733" lon="11.409565"><ele>590.8</ele><time>2026-04-18T10:26:34.733Z</time></trkpt><trkpt lat="44.1064867" lon="11.4097067"><ele>595.6</ele><time>2026-04-18T10:26:35.733Z</time></trkpt><trkpt lat="44.1064217" lon="11.4098117"><ele>600.4</ele><time>2026-04-18T10:26:36.733Z</time></trkpt><trkpt lat="44.1063483" lon="11.40988"><ele>605.2</ele><time>2026-04-18T10:26:37.733Z</time></trkpt><trkpt lat="44.106275" lon="11.409945"><ele>610.0</ele><time>2026-04-18T10:26:38.733Z</time></trkpt><trkpt lat="44.1061917" lon="11.4100067"><ele>610.0</ele><time>2026-04-18T10:26:39.733Z</time></trkpt><trkpt lat="44.1061117" lon="11.4100417"><ele>610.0</ele><time>2026-04-18T10:26:40.734Z</time></trkpt><trkpt lat="44.1060267" lon="11.41008"><ele>610.0</ele><time>2026-04-18T10:26:41.733Z</time></trkpt><trkpt lat="44.1059467" lon="11.41012"><ele>610.0</ele><time>2026-04-18T10:26:42.734Z</time></trkpt><trkpt lat="44.1058633" lon="11.41016"><ele>610.0</ele><time>2026-04-18T10:26:43.733Z</time></trkpt><trkpt lat="44.1057783" lon="11.410195"><ele>610.0</ele><time>2026-04-18T10:26:44.733Z</time></trkpt><trkpt lat="44.105695" lon="11.4102417"><ele>609.2</ele><time>2026-04-18T10:26:45.733Z</time></trkpt><trkpt lat="44.1055933" lon="11.4103033"><ele>608.4</ele><time>2026-04-18T10:26:46.733Z</time></trkpt><trkpt lat="44.1054783" lon="11.4103567"><ele>607.6</ele><time>2026-04-18T10:26:47.733Z</time></trkpt><trkpt lat="44.10539" lon="11.4104083"><ele>606.8</ele><time>2026-04-18T10:26:48.733Z</time></trkpt><trkpt lat="44.105315" lon="11.4104617"><ele>606.0</ele><time>2026-04-18T10:26:49.733Z</time></trkpt><trkpt lat="44.105245" lon="11.41052"><ele>607.6666666666666</ele><time>2026-04-18T10:26:50.734Z</time></trkpt><trkpt lat="44.1051833" lon="11.4105717"><ele>609.3333333333334</ele><time>2026-04-18T10:26:51.734Z</time></trkpt><trkpt lat="44.1051117" lon="11.4106333"><ele>611.0</ele><time>2026-04-18T10:26:52.734Z</time></trkpt><trkpt lat="44.10503" lon="11.4106983"><ele>612.6666666666667</ele><time>2026-04-18T10:26:53.733Z</time></trkpt><trkpt lat="44.10495" lon="11.41075"><ele>614.3333333333334</ele><time>2026-04-18T10:26:54.732Z</time></trkpt><trkpt lat="44.10487" lon="11.4108"><ele>616.0</ele><time>2026-04-18T10:26:55.733Z</time></trkpt><trkpt lat="44.1047867" lon="11.4108367"><ele>616.0</ele><time>2026-04-18T10:26:56.732Z</time></trkpt><trkpt lat="44.1047133" lon="11.4108783"><ele>616.0</ele><time>2026-04-18T10:26:57.732Z</time></trkpt><trkpt lat="44.1046367" lon="11.4109217"><ele>616.0</ele><time>2026-04-18T10:26:58.733Z</time></trkpt><trkpt lat="44.104565" lon="11.4109583"><ele>616.0</ele><time>2026-04-18T10:26:59.732Z</time></trkpt><trkpt lat="44.1045083" lon="11.4109983"><ele>616.0</ele><time>2026-04-18T10:27:00.732Z</time></trkpt><trkpt lat="44.1044217" lon="11.41107"><ele>616.0</ele><time>2026-04-18T10:27:02.732Z</time></trkpt><trkpt lat="44.1043283" lon="11.41116"><ele>616.0</ele><time>2026-04-18T10:27:04.733Z</time></trkpt><trkpt lat="44.1042617" lon="11.4112083"><ele>616.0</ele><time>2026-04-18T10:27:05.733Z</time></trkpt><trkpt lat="44.104185" lon="11.4112633"><ele>616.0</ele><time>2026-04-18T10:27:06.733Z</time></trkpt><trkpt lat="44.1041117" lon="11.411315"><ele>616.0</ele><time>2026-04-18T10:27:07.733Z</time></trkpt><trkpt lat="44.1040367" lon="11.4113717"><ele>616.0</ele><time>2026-04-18T10:27:08.733Z</time></trkpt><trkpt lat="44.1039433" lon="11.4114083"><ele>616.0</ele><time>2026-04-18T10:27:09.732Z</time></trkpt><trkpt lat="44.1038383" lon="11.4114433"><ele>616.0</ele><time>2026-04-18T10:27:10.732Z</time></trkpt><trkpt lat="44.10373" lon="11.4114717"><ele>616.0</ele><time>2026-04-18T10:27:11.733Z</time></trkpt><trkpt lat="44.1036217" lon="11.4115217"><ele>616.0</ele><time>2026-04-18T10:27:12.732Z</time></trkpt><trkpt lat="44.1035333" lon="11.411585"><ele>616.0</ele><time>2026-04-18T10:27:13.733Z</time></trkpt><trkpt lat="44.1034483" lon="11.4116533"><ele>616.0</ele><time>2026-04-18T10:27:14.732Z</time></trkpt><trkpt lat="44.10337" lon="11.41172"><ele>616.0</ele><time>2026-04-18T10:27:15.732Z</time></trkpt><trkpt lat="44.1032933" lon="11.4117983"><ele>616.0</ele><time>2026-04-18T10:27:16.733Z</time></trkpt><trkpt lat="44.1032183" lon="11.4118433"><ele>616.0</ele><time>2026-04-18T10:27:17.732Z</time></trkpt><trkpt lat="44.10315" lon="11.4118733"><ele>616.0</ele><time>2026-04-18T10:27:18.733Z</time></trkpt><trkpt lat="44.103085" lon="11.41191"><ele>616.0</ele><time>2026-04-18T10:27:19.732Z</time></trkpt><trkpt lat="44.1030217" lon="11.411945"><ele>616.0</ele><time>2026-04-18T10:27:20.733Z</time></trkpt><trkpt lat="44.1029633" lon="11.411995"><ele>614.2</ele><time>2026-04-18T10:27:21.733Z</time></trkpt><trkpt lat="44.1028917" lon="11.4120517"><ele>612.4000000000001</ele><time>2026-04-18T10:27:22.733Z</time></trkpt><trkpt lat="44.1028233" lon="11.4121083"><ele>610.6</ele><time>2026-04-18T10:27:23.732Z</time></trkpt><trkpt lat="44.1027167" lon="11.4121817"><ele>608.8000000000001</ele><time>2026-04-18T10:27:25.732Z</time></trkpt><trkpt lat="44.1026033" lon="11.4122433"><ele>607.0</ele><time>2026-04-18T10:27:27.732Z</time></trkpt><trkpt lat="44.1025467" lon="11.4122967"><ele>608.0</ele><time>2026-04-18T10:27:28.732Z</time></trkpt><trkpt lat="44.1024967" lon="11.4123517"><ele>609.0</ele><time>2026-04-18T10:27:29.732Z</time></trkpt><trkpt lat="44.1024383" lon="11.4123983"><ele>610.0</ele><time>2026-04-18T10:27:30.732Z</time></trkpt><trkpt lat="44.102375" lon="11.4124367"><ele>611.0</ele><time>2026-04-18T10:27:31.732Z</time></trkpt><trkpt lat="44.102315" lon="11.4124783"><ele>612.0</ele><time>2026-04-18T10:27:32.733Z</time></trkpt><trkpt lat="44.102225" lon="11.412575"><ele>613.0</ele><time>2026-04-18T10:27:34.732Z</time></trkpt><trkpt lat="44.10215" lon="11.4126783"><ele>613.0</ele><time>2026-04-18T10:27:36.732Z</time></trkpt><trkpt lat="44.1020733" lon="11.4128033"><ele>613.0</ele><time>2026-04-18T10:27:38.733Z</time></trkpt><trkpt lat="44.1020117" lon="11.4129517"><ele>613.0</ele><time>2026-04-18T10:27:40.733Z</time></trkpt><trkpt lat="44.1020033" lon="11.4130867"><ele>613.0</ele><time>2026-04-18T10:27:42.733Z</time></trkpt><trkpt lat="44.1019933" lon="11.4132167"><ele>613.0</ele><time>2026-04-18T10:27:44.732Z</time></trkpt><trkpt lat="44.1019633" lon="11.41335"><ele>615.5</ele><time>2026-04-18T10:27:46.733Z</time></trkpt><trkpt lat="44.1019033" lon="11.4134733"><ele>618.0</ele><time>2026-04-18T10:27:48.733Z</time></trkpt><trkpt lat="44.1018467" lon="11.41353"><ele>620.5</ele><time>2026-04-18T10:27:49.732Z</time></trkpt><trkpt lat="44.10177" lon="11.4135767"><ele>623.0</ele><time>2026-04-18T10:27:50.733Z</time></trkpt><trkpt lat="44.101685" lon="11.4136183"><ele>625.5</ele><time>2026-04-18T10:27:51.733Z</time></trkpt><trkpt lat="44.1016033" lon="11.4136433"><ele>628.0</ele><time>2026-04-18T10:27:52.733Z</time></trkpt><trkpt lat="44.1015317" lon="11.4136383"><ele>628.0</ele><time>2026-04-18T10:27:53.732Z</time></trkpt><trkpt lat="44.1014683" lon="11.4136167"><ele>628.0</ele><time>2026-04-18T10:27:54.732Z</time></trkpt><trkpt lat="44.1014067" lon="11.4135767"><ele>628.0</ele><time>2026-04-18T10:27:55.733Z</time></trkpt><trkpt lat="44.101345" lon="11.41354"><ele>628.0</ele><time>2026-04-18T10:27:56.732Z</time></trkpt><trkpt lat="44.1012283" lon="11.4135117"><ele>628.0</ele><time>2026-04-18T10:27:58.733Z</time></trkpt><trkpt lat="44.1011133" lon="11.4135617"><ele>628.0</ele><time>2026-04-18T10:28:00.732Z</time></trkpt><trkpt lat="44.101005" lon="11.4136233"><ele>628.0</ele><time>2026-04-18T10:28:02.733Z</time></trkpt><trkpt lat="44.1009067" lon="11.4136667"><ele>628.0</ele><time>2026-04-18T10:28:04.732Z</time></trkpt><trkpt lat="44.100825" lon="11.4136883"><ele>628.0</ele><time>2026-04-18T10:28:06.732Z</time></trkpt><trkpt lat="44.1007217" lon="11.4137033"><ele>628.0</ele><time>2026-04-18T10:28:08.732Z</time></trkpt><trkpt lat="44.1006183" lon="11.4137"><ele>628.0</ele><time>2026-04-18T10:28:10.732Z</time></trkpt><trkpt lat="44.1005183" lon="11.413715"><ele>627.3333333333334</ele><time>2026-04-18T10:28:12.733Z</time></trkpt><trkpt lat="44.1004567" lon="11.4137367"><ele>626.6666666666667</ele><time>2026-04-18T10:28:13.733Z</time></trkpt><trkpt lat="44.1003317" lon="11.4137617"><ele>626.0</ele><time>2026-04-18T10:28:15.732Z</time></trkpt><trkpt lat="44.100265" lon="11.4137817"><ele>625.3333333333334</ele><time>2026-04-18T10:28:16.732Z</time></trkpt><trkpt lat="44.1001717" lon="11.4138017"><ele>624.6666666666666</ele><time>2026-04-18T10:28:18.732Z</time></trkpt><trkpt lat="44.100095" lon="11.4138333"><ele>624.0</ele><time>2026-04-18T10:28:20.733Z</time></trkpt><trkpt lat="44.10003" lon="11.4139483"><ele>628.0</ele><time>2026-04-18T10:28:23.733Z</time></trkpt><trkpt lat="44.0999767" lon="11.4140717"><ele>632.0</ele><time>2026-04-18T10:28:25.733Z</time></trkpt><trkpt lat="44.0998883" lon="11.414195"><ele>636.0</ele><time>2026-04-18T10:28:27.732Z</time></trkpt><trkpt lat="44.099845" lon="11.41426"><ele>640.0</ele><time>2026-04-18T10:28:28.732Z</time></trkpt><trkpt lat="44.0997767" lon="11.4143717"><ele>644.0</ele><time>2026-04-18T10:28:30.733Z</time></trkpt><trkpt lat="44.0997217" lon="11.4144733"><ele>644.0</ele><time>2026-04-18T10:28:32.732Z</time></trkpt><trkpt lat="44.09966" lon="11.4145133"><ele>644.0</ele><time>2026-04-18T10:28:34.733Z</time></trkpt><trkpt lat="44.0995767" lon="11.4144867"><ele>644.0</ele><time>2026-04-18T10:28:37.733Z</time></trkpt><trkpt lat="44.09949" lon="11.4144783"><ele>644.0</ele><time>2026-04-18T10:28:40.732Z</time></trkpt><trkpt lat="44.0994267" lon="11.4145383"><ele>644.0</ele><time>2026-04-18T10:28:42.732Z</time></trkpt><trkpt lat="44.0993417" lon="11.4145983"><ele>644.0</ele><time>2026-04-18T10:28:44.732Z</time></trkpt><trkpt lat="44.0992533" lon="11.4145967"><ele>644.0</ele><time>2026-04-18T10:28:46.733Z</time></trkpt><trkpt lat="44.0991383" lon="11.4146217"><ele>644.0</ele><time>2026-04-18T10:28:48.733Z</time></trkpt><trkpt lat="44.0990283" lon="11.4146433"><ele>644.0</ele><time>2026-04-18T10:28:50.733Z</time></trkpt><trkpt lat="44.0989517" lon="11.4146333"><ele>644.0</ele><time>2026-04-18T10:28:52.733Z</time></trkpt><trkpt lat="44.0988417" lon="11.4146767"><ele>644.0</ele><time>2026-04-18T10:28:55.732Z</time></trkpt><trkpt lat="44.09874" lon="11.4147383"><ele>649.6</ele><time>2026-04-18T10:28:57.733Z</time></trkpt><trkpt lat="44.098635" lon="11.4147817"><ele>655.2</ele><time>2026-04-18T10:28:59.732Z</time></trkpt><trkpt lat="44.0985483" lon="11.4148233"><ele>660.8000000000001</ele><time>2026-04-18T10:29:01.732Z</time></trkpt><trkpt lat="44.0984283" lon="11.4148367"><ele>666.4000000000001</ele><time>2026-04-18T10:29:03.733Z</time></trkpt><trkpt lat="44.0983633" lon="11.414845"><ele>672.0</ele><time>2026-04-18T10:29:04.732Z</time></trkpt><trkpt lat="44.098275" lon="11.4148633"><ele>671.2</ele><time>2026-04-18T10:29:06.733Z</time></trkpt><trkpt lat="44.0982217" lon="11.414945"><ele>670.4000000000001</ele><time>2026-04-18T10:29:08.733Z</time></trkpt><trkpt lat="44.0981683" lon="11.4150833"><ele>669.5999999999999</ele><time>2026-04-18T10:29:10.732Z</time></trkpt><trkpt lat="44.098105" lon="11.4152067"><ele>668.8</ele><time>2026-04-18T10:29:12.733Z</time></trkpt><trkpt lat="44.0980267" lon="11.4153017"><ele>668.0</ele><time>2026-04-18T10:29:14.733Z</time></trkpt><trkpt lat="44.09795" lon="11.4153883"><ele>668.0</ele><time>2026-04-18T10:29:16.733Z</time></trkpt><trkpt lat="44.09789" lon="11.4154717"><ele>668.0</ele><time>2026-04-18T10:29:18.732Z</time></trkpt><trkpt lat="44.0978267" lon="11.4155267"><ele>668.0</ele><time>2026-04-18T10:29:20.732Z</time></trkpt><trkpt lat="44.09774" lon="11.41555"><ele>668.0</ele><time>2026-04-18T10:29:22.732Z</time></trkpt><trkpt lat="44.0976533" lon="11.41554"><ele>668.0</ele><time>2026-04-18T10:29:24.732Z</time></trkpt><trkpt lat="44.097555" lon="11.4155783"><ele>668.0</ele><time>2026-04-18T10:29:26.732Z</time></trkpt><trkpt lat="44.0974983" lon="11.415625"><ele>671.8333333333333</ele><time>2026-04-18T10:29:27.733Z</time></trkpt><trkpt lat="44.0974383" lon="11.4156717"><ele>675.6666666666666</ele><time>2026-04-18T10:29:28.732Z</time></trkpt><trkpt lat="44.0973767" lon="11.4157267"><ele>679.5</ele><time>2026-04-18T10:29:29.733Z</time></trkpt><trkpt lat="44.0973117" lon="11.4157933"><ele>683.3333333333334</ele><time>2026-04-18T10:29:30.732Z</time></trkpt><trkpt lat="44.0972483" lon="11.41584"><ele>687.1666666666667</ele><time>2026-04-18T10:29:31.732Z</time></trkpt><trkpt lat="44.0971483" lon="11.41587"><ele>691.0</ele><time>2026-04-18T10:29:33.733Z</time></trkpt><trkpt lat="44.0970467" lon="11.4159367"><ele>692.1666666666667</ele><time>2026-04-18T10:29:35.732Z</time></trkpt><trkpt lat="44.0969867" lon="11.4159883"><ele>693.3333333333334</ele><time>2026-04-18T10:29:36.732Z</time></trkpt><trkpt lat="44.0969267" lon="11.4160483"><ele>694.5</ele><time>2026-04-18T10:29:37.732Z</time></trkpt><trkpt lat="44.0968733" lon="11.4160967"><ele>695.6666666666666</ele><time>2026-04-18T10:29:38.732Z</time></trkpt><trkpt lat="44.096815" lon="11.4161367"><ele>696.8333333333333</ele><time>2026-04-18T10:29:39.733Z</time></trkpt><trkpt lat="44.096705" lon="11.4161717"><ele>698.0</ele><time>2026-04-18T10:29:41.732Z</time></trkpt><trkpt lat="44.0965833" lon="11.4161667"><ele>700.5</ele><time>2026-04-18T10:29:43.733Z</time></trkpt><trkpt lat="44.0964667" lon="11.41621"><ele>703.0</ele><time>2026-04-18T10:29:45.733Z</time></trkpt><trkpt lat="44.096395" lon="11.41624"><ele>705.5</ele><time>2026-04-18T10:29:47.732Z</time></trkpt><trkpt lat="44.0963217" lon="11.416195"><ele>708.0</ele><time>2026-04-18T10:29:50.733Z</time></trkpt><trkpt lat="44.09628" lon="11.416075"><ele>710.5</ele><time>2026-04-18T10:29:52.733Z</time></trkpt><trkpt lat="44.0962267" lon="11.4160217"><ele>713.0</ele><time>2026-04-18T10:29:54.733Z</time></trkpt><trkpt lat="44.09614" lon="11.4160383"><ele>713.0</ele><time>2026-04-18T10:29:56.733Z</time></trkpt><trkpt lat="44.0960317" lon="11.4161083"><ele>713.0</ele><time>2026-04-18T10:29:58.731Z</time></trkpt><trkpt lat="44.0959683" lon="11.4161467"><ele>713.0</ele><time>2026-04-18T10:29:59.731Z</time></trkpt><trkpt lat="44.0958983" lon="11.4161767"><ele>713.0</ele><time>2026-04-18T10:30:00.731Z</time></trkpt><trkpt lat="44.0958317" lon="11.416205"><ele>713.0</ele><time>2026-04-18T10:30:01.732Z</time></trkpt><trkpt lat="44.0957217" lon="11.4162083"><ele>713.0</ele><time>2026-04-18T10:30:03.732Z</time></trkpt><trkpt lat="44.095635" lon="11.4161733"><ele>714.8</ele><time>2026-04-18T10:30:05.731Z</time></trkpt><trkpt lat="44.0955333" lon="11.41613"><ele>716.5999999999999</ele><time>2026-04-18T10:30:07.731Z</time></trkpt><trkpt lat="44.095435" lon="11.4160867"><ele>718.4000000000001</ele><time>2026-04-18T10:30:09.731Z</time></trkpt><trkpt lat="44.0953017" lon="11.41609"><ele>720.2</ele><time>2026-04-18T10:30:11.731Z</time></trkpt><trkpt lat="44.0952267" lon="11.4160833"><ele>722.0</ele><time>2026-04-18T10:30:12.732Z</time></trkpt><trkpt lat="44.0951217" lon="11.4160567"><ele>722.0</ele><time>2026-04-18T10:30:14.732Z</time></trkpt><trkpt lat="44.0950517" lon="11.416045"><ele>722.0</ele><time>2026-04-18T10:30:16.731Z</time></trkpt><trkpt lat="44.0949733" lon="11.4160267"><ele>722.0</ele><time>2026-04-18T10:30:18.732Z</time></trkpt><trkpt lat="44.094885" lon="11.4160083"><ele>722.0</ele><time>2026-04-18T10:30:20.731Z</time></trkpt><trkpt lat="44.094785" lon="11.41601"><ele>722.0</ele><time>2026-04-18T10:30:22.731Z</time></trkpt><trkpt lat="44.0946767" lon="11.4159967"><ele>722.0</ele><time>2026-04-18T10:30:24.731Z</time></trkpt><trkpt lat="44.0946133" lon="11.41598"><ele>723.8333333333333</ele><time>2026-04-18T10:30:25.731Z</time></trkpt><trkpt lat="44.0945133" lon="11.4159617"><ele>725.6666666666666</ele><time>2026-04-18T10:30:27.731Z</time></trkpt><trkpt lat="44.0944333" lon="11.415985"><ele>727.5</ele><time>2026-04-18T10:30:29.731Z</time></trkpt><trkpt lat="44.0943233" lon="11.4160333"><ele>729.3333333333334</ele><time>2026-04-18T10:30:31.731Z</time></trkpt><trkpt lat="44.0942533" lon="11.4160617"><ele>731.1666666666667</ele><time>2026-04-18T10:30:32.732Z</time></trkpt><trkpt lat="44.0941833" lon="11.4160917"><ele>733.0</ele><time>2026-04-18T10:30:33.732Z</time></trkpt><trkpt lat="44.0941233" lon="11.4161183"><ele>732.1666666666667</ele><time>2026-04-18T10:30:34.732Z</time></trkpt><trkpt lat="44.09404" lon="11.416175"><ele>731.3333333333334</ele><time>2026-04-18T10:30:36.732Z</time></trkpt><trkpt lat="44.0939633" lon="11.416165"><ele>730.5</ele><time>2026-04-18T10:30:38.731Z</time></trkpt><trkpt lat="44.093895" lon="11.4160817"><ele>729.6666666666666</ele><time>2026-04-18T10:30:40.731Z</time></trkpt><trkpt lat="44.09381" lon="11.4159983"><ele>728.8333333333333</ele><time>2026-04-18T10:30:42.731Z</time></trkpt><trkpt lat="44.0937483" lon="11.4159667"><ele>728.0</ele><time>2026-04-18T10:30:43.731Z</time></trkpt><trkpt lat="44.09363" lon="11.41592"><ele>728.0</ele><time>2026-04-18T10:30:45.732Z</time></trkpt><trkpt lat="44.0935683" lon="11.415895"><ele>728.0</ele><time>2026-04-18T10:30:46.731Z</time></trkpt><trkpt lat="44.0934583" lon="11.4158283"><ele>728.0</ele><time>2026-04-18T10:30:48.732Z</time></trkpt><trkpt lat="44.0933617" lon="11.4157467"><ele>728.0</ele><time>2026-04-18T10:30:50.732Z</time></trkpt><trkpt lat="44.0932733" lon="11.41563"><ele>728.0</ele><time>2026-04-18T10:30:52.731Z</time></trkpt><trkpt lat="44.0931983" lon="11.4154983"><ele>724.8</ele><time>2026-04-18T10:30:54.731Z</time></trkpt><trkpt lat="44.0931283" lon="11.415365"><ele>721.5999999999999</ele><time>2026-04-18T10:30:56.731Z</time></trkpt><trkpt lat="44.0930567" lon="11.4152367"><ele>718.4000000000001</ele><time>2026-04-18T10:30:58.731Z</time></trkpt><trkpt lat="44.0929933" lon="11.4151383"><ele>715.2</ele><time>2026-04-18T10:31:00.732Z</time></trkpt><trkpt lat="44.092915" lon="11.41507"><ele>712.0</ele><time>2026-04-18T10:31:02.731Z</time></trkpt><trkpt lat="44.0928117" lon="11.415025"><ele>711.9999999999999</ele><time>2026-04-18T10:31:04.731Z</time></trkpt><trkpt lat="44.0927517" lon="11.4149933"><ele>712.0</ele><time>2026-04-18T10:31:05.731Z</time></trkpt><trkpt lat="44.09269" lon="11.4149333"><ele>712.0</ele><time>2026-04-18T10:31:06.731Z</time></trkpt><trkpt lat="44.0926483" lon="11.4148667"><ele>712.0</ele><time>2026-04-18T10:31:07.732Z</time></trkpt><trkpt lat="44.0926217" lon="11.4147867"><ele>712.0</ele><time>2026-04-18T10:31:08.731Z</time></trkpt><trkpt lat="44.0926017" lon="11.4147"><ele>711.9999999999999</ele><time>2026-04-18T10:31:09.731Z</time></trkpt><trkpt lat="44.0925817" lon="11.4145917"><ele>712.0</ele><time>2026-04-18T10:31:10.731Z</time></trkpt><trkpt lat="44.0925517" lon="11.414485"><ele>712.1666666666667</ele><time>2026-04-18T10:31:11.731Z</time></trkpt><trkpt lat="44.092495" lon="11.4143867"><ele>712.3333333333334</ele><time>2026-04-18T10:31:12.731Z</time></trkpt><trkpt lat="44.092435" lon="11.4143083"><ele>712.5</ele><time>2026-04-18T10:31:13.732Z</time></trkpt><trkpt lat="44.0923717" lon="11.4142383"><ele>712.6666666666666</ele><time>2026-04-18T10:31:14.732Z</time></trkpt><trkpt lat="44.092295" lon="11.41419"><ele>712.8333333333333</ele><time>2026-04-18T10:31:15.732Z</time></trkpt><trkpt lat="44.09222" lon="11.4141583"><ele>713.0</ele><time>2026-04-18T10:31:16.731Z</time></trkpt><trkpt lat="44.0921417" lon="11.4141383"><ele>711.4</ele><time>2026-04-18T10:31:17.731Z</time></trkpt><trkpt lat="44.0920683" lon="11.4141517"><ele>709.8</ele><time>2026-04-18T10:31:18.731Z</time></trkpt><trkpt lat="44.0919933" lon="11.41417"><ele>708.2</ele><time>2026-04-18T10:31:19.732Z</time></trkpt><trkpt lat="44.0919033" lon="11.414205"><ele>706.6</ele><time>2026-04-18T10:31:20.731Z</time></trkpt><trkpt lat="44.091805" lon="11.4142583"><ele>705.0</ele><time>2026-04-18T10:31:21.731Z</time></trkpt><trkpt lat="44.0917033" lon="11.4143217"><ele>705.0</ele><time>2026-04-18T10:31:22.731Z</time></trkpt><trkpt lat="44.0916017" lon="11.414375"><ele>705.0</ele><time>2026-04-18T10:31:23.732Z</time></trkpt><trkpt lat="44.0915117" lon="11.4144333"><ele>705.0</ele><time>2026-04-18T10:31:24.731Z</time></trkpt><trkpt lat="44.091445" lon="11.4144617"><ele>705.0</ele><time>2026-04-18T10:31:25.732Z</time></trkpt><trkpt lat="44.09132" lon="11.4144383"><ele>705.0</ele><time>2026-04-18T10:31:27.732Z</time></trkpt><trkpt lat="44.0912583" lon="11.4143833"><ele>704.5</ele><time>2026-04-18T10:31:28.732Z</time></trkpt><trkpt lat="44.091195" lon="11.41433"><ele>704.0</ele><time>2026-04-18T10:31:29.731Z</time></trkpt><trkpt lat="44.091075" lon="11.4142917"><ele>703.5</ele><time>2026-04-18T10:31:31.732Z</time></trkpt><trkpt lat="44.09097" lon="11.414345"><ele>703.0</ele><time>2026-04-18T10:31:33.732Z</time></trkpt><trkpt lat="44.0909183" lon="11.414405"><ele>702.5</ele><time>2026-04-18T10:31:34.732Z</time></trkpt><trkpt lat="44.0908733" lon="11.4144833"><ele>702.0</ele><time>2026-04-18T10:31:35.732Z</time></trkpt><trkpt lat="44.0908267" lon="11.4145667"><ele>702.0000000000001</ele><time>2026-04-18T10:31:36.732Z</time></trkpt><trkpt lat="44.090785" lon="11.41464"><ele>702.0</ele><time>2026-04-18T10:31:37.732Z</time></trkpt><trkpt lat="44.0907417" lon="11.414705"><ele>702.0</ele><time>2026-04-18T10:31:38.732Z</time></trkpt><trkpt lat="44.090685" lon="11.41475"><ele>702.0</ele><time>2026-04-18T10:31:39.732Z</time></trkpt><trkpt lat="44.0906233" lon="11.4147767"><ele>702.0</ele><time>2026-04-18T10:31:40.732Z</time></trkpt><trkpt lat="44.0905567" lon="11.414785"><ele>702.0000000000001</ele><time>2026-04-18T10:31:41.731Z</time></trkpt><trkpt lat="44.0904383" lon="11.4147633"><ele>702.0</ele><time>2026-04-18T10:31:43.731Z</time></trkpt><trkpt lat="44.0903117" lon="11.41473"><ele>700.3333333333334</ele><time>2026-04-18T10:31:45.732Z</time></trkpt><trkpt lat="44.0902367" lon="11.4146967"><ele>698.6666666666666</ele><time>2026-04-18T10:31:46.731Z</time></trkpt><trkpt lat="44.090165" lon="11.4146517"><ele>697.0</ele><time>2026-04-18T10:31:47.731Z</time></trkpt><trkpt lat="44.0901033" lon="11.4145817"><ele>695.3333333333333</ele><time>2026-04-18T10:31:48.732Z</time></trkpt><trkpt lat="44.0900583" lon="11.4145117"><ele>693.6666666666666</ele><time>2026-04-18T10:31:49.731Z</time></trkpt><trkpt lat="44.0900083" lon="11.4144533"><ele>692.0</ele><time>2026-04-18T10:31:50.731Z</time></trkpt><trkpt lat="44.0898967" lon="11.4144233"><ele>691.1428571428571</ele><time>2026-04-18T10:31:52.732Z</time></trkpt><trkpt lat="44.08983" lon="11.414435"><ele>690.2857142857143</ele><time>2026-04-18T10:31:53.731Z</time></trkpt><trkpt lat="44.0897667" lon="11.4144417"><ele>689.4285714285714</ele><time>2026-04-18T10:31:54.731Z</time></trkpt><trkpt lat="44.0897017" lon="11.414455"><ele>688.5714285714286</ele><time>2026-04-18T10:31:55.732Z</time></trkpt><trkpt lat="44.0896383" lon="11.4144817"><ele>687.7142857142858</ele><time>2026-04-18T10:31:56.731Z</time></trkpt><trkpt lat="44.0895617" lon="11.4145133"><ele>686.8571428571429</ele><time>2026-04-18T10:31:57.731Z</time></trkpt><trkpt lat="44.0894817" lon="11.4145517"><ele>686.0</ele><time>2026-04-18T10:31:58.731Z</time></trkpt><trkpt lat="44.08941" lon="11.41459"><ele>686.0</ele><time>2026-04-18T10:31:59.731Z</time></trkpt><trkpt lat="44.08935" lon="11.4146333"><ele>686.0</ele><time>2026-04-18T10:32:00.731Z</time></trkpt><trkpt lat="44.08929" lon="11.414675"><ele>686.0</ele><time>2026-04-18T10:32:01.732Z</time></trkpt><trkpt lat="44.0892317" lon="11.4147133"><ele>686.0</ele><time>2026-04-18T10:32:02.731Z</time></trkpt><trkpt lat="44.0891683" lon="11.4147467"><ele>686.0</ele><time>2026-04-18T10:32:03.731Z</time></trkpt><trkpt lat="44.0891033" lon="11.4147817"><ele>686.0</ele><time>2026-04-18T10:32:04.731Z</time></trkpt><trkpt lat="44.0890367" lon="11.4148167"><ele>686.0</ele><time>2026-04-18T10:32:05.731Z</time></trkpt><trkpt lat="44.0889717" lon="11.4148583"><ele>687.1999999999999</ele><time>2026-04-18T10:32:06.732Z</time></trkpt><trkpt lat="44.0889017" lon="11.4149083"><ele>688.4</ele><time>2026-04-18T10:32:07.732Z</time></trkpt><trkpt lat="44.0888183" lon="11.41497"><ele>689.6</ele><time>2026-04-18T10:32:08.732Z</time></trkpt><trkpt lat="44.0887183" lon="11.4150517"><ele>690.8</ele><time>2026-04-18T10:32:09.732Z</time></trkpt><trkpt lat="44.0886067" lon="11.4151567"><ele>692.0</ele><time>2026-04-18T10:32:10.731Z</time></trkpt><trkpt lat="44.0884917" lon="11.415295"><ele>692.0</ele><time>2026-04-18T10:32:11.731Z</time></trkpt><trkpt lat="44.0883733" lon="11.4154533"><ele>692.0</ele><time>2026-04-18T10:32:12.732Z</time></trkpt><trkpt lat="44.0882517" lon="11.4156083"><ele>692.0</ele><time>2026-04-18T10:32:13.732Z</time></trkpt><trkpt lat="44.088135" lon="11.4157617"><ele>695.0</ele><time>2026-04-18T10:32:14.731Z</time></trkpt><trkpt lat="44.0880083" lon="11.415895"><ele>698.0</ele><time>2026-04-18T10:32:15.731Z</time></trkpt><trkpt lat="44.0878767" lon="11.4160283"><ele>701.0</ele><time>2026-04-18T10:32:16.732Z</time></trkpt><trkpt lat="44.0877667" lon="11.4161467"><ele>701.0</ele><time>2026-04-18T10:32:17.731Z</time></trkpt><trkpt lat="44.0876583" lon="11.41625"><ele>701.0</ele><time>2026-04-18T10:32:18.731Z</time></trkpt><trkpt lat="44.0875517" lon="11.416335"><ele>701.0</ele><time>2026-04-18T10:32:19.731Z</time></trkpt><trkpt lat="44.087445" lon="11.4164017"><ele>701.0</ele><time>2026-04-18T10:32:20.732Z</time></trkpt><trkpt lat="44.0873333" lon="11.41647"><ele>703.5999999999999</ele><time>2026-04-18T10:32:21.731Z</time></trkpt><trkpt lat="44.0872267" lon="11.416525"><ele>706.2</ele><time>2026-04-18T10:32:22.731Z</time></trkpt><trkpt lat="44.0871283" lon="11.416565"><ele>708.8</ele><time>2026-04-18T10:32:23.732Z</time></trkpt><trkpt lat="44.0870367" lon="11.416585"><ele>711.4000000000001</ele><time>2026-04-18T10:32:24.732Z</time></trkpt><trkpt lat="44.086945" lon="11.4165917"><ele>714.0</ele><time>2026-04-18T10:32:25.731Z</time></trkpt><trkpt lat="44.08686" lon="11.4165783"><ele>714.0</ele><time>2026-04-18T10:32:26.731Z</time></trkpt><trkpt lat="44.0867717" lon="11.416555"><ele>714.0</ele><time>2026-04-18T10:32:27.731Z</time></trkpt><trkpt lat="44.0866817" lon="11.416505"><ele>714.0</ele><time>2026-04-18T10:32:28.731Z</time></trkpt><trkpt lat="44.0866017" lon="11.4164533"><ele>714.0</ele><time>2026-04-18T10:32:29.731Z</time></trkpt><trkpt lat="44.0865217" lon="11.4164083"><ele>714.0</ele><time>2026-04-18T10:32:30.732Z</time></trkpt><trkpt lat="44.0864417" lon="11.416365"><ele>714.0</ele><time>2026-04-18T10:32:31.731Z</time></trkpt><trkpt lat="44.0863583" lon="11.4163217"><ele>710.8000000000001</ele><time>2026-04-18T10:32:32.732Z</time></trkpt><trkpt lat="44.0862717" lon="11.416275"><ele>707.6</ele><time>2026-04-18T10:32:33.731Z</time></trkpt><trkpt lat="44.086175" lon="11.4162283"><ele>704.4</ele><time>2026-04-18T10:32:34.732Z</time></trkpt><trkpt lat="44.0860817" lon="11.416185"><ele>701.2</ele><time>2026-04-18T10:32:35.732Z</time></trkpt><trkpt lat="44.0859933" lon="11.416145"><ele>698.0</ele><time>2026-04-18T10:32:36.731Z</time></trkpt><trkpt lat="44.085905" lon="11.4161017"><ele>698.0</ele><time>2026-04-18T10:32:37.731Z</time></trkpt><trkpt lat="44.08582" lon="11.4160567"><ele>698.0</ele><time>2026-04-18T10:32:38.732Z</time></trkpt><trkpt lat="44.085735" lon="11.4160183"><ele>698.0</ele><time>2026-04-18T10:32:39.731Z</time></trkpt><trkpt lat="44.0856533" lon="11.415985"><ele>698.0</ele><time>2026-04-18T10:32:40.732Z</time></trkpt><trkpt lat="44.0855667" lon="11.4159617"><ele>698.0</ele><time>2026-04-18T10:32:41.731Z</time></trkpt><trkpt lat="44.0854817" lon="11.415965"><ele>698.0</ele><time>2026-04-18T10:32:42.732Z</time></trkpt><trkpt lat="44.0854" lon="11.415985"><ele>698.1666666666666</ele><time>2026-04-18T10:32:43.731Z</time></trkpt><trkpt lat="44.0853133" lon="11.416015"><ele>698.3333333333333</ele><time>2026-04-18T10:32:44.731Z</time></trkpt><trkpt lat="44.0852333" lon="11.4160417"><ele>698.5</ele><time>2026-04-18T10:32:45.732Z</time></trkpt><trkpt lat="44.085155" lon="11.4160533"><ele>698.6666666666666</ele><time>2026-04-18T10:32:46.732Z</time></trkpt><trkpt lat="44.0850867" lon="11.4160517"><ele>698.8333333333334</ele><time>2026-04-18T10:32:47.732Z</time></trkpt><trkpt lat="44.08502" lon="11.416045"><ele>699.0</ele><time>2026-04-18T10:32:48.731Z</time></trkpt><trkpt lat="44.084915" lon="11.4160033"><ele>699.0</ele><time>2026-04-18T10:32:50.731Z</time></trkpt><trkpt lat="44.084815" lon="11.41593"><ele>699.0</ele><time>2026-04-18T10:32:52.732Z</time></trkpt><trkpt lat="44.084705" lon="11.4158467"><ele>699.0</ele><time>2026-04-18T10:32:54.731Z</time></trkpt><trkpt lat="44.0846517" lon="11.4157867"><ele>699.0</ele><time>2026-04-18T10:32:55.732Z</time></trkpt><trkpt lat="44.084595" lon="11.415715"><ele>699.0</ele><time>2026-04-18T10:32:56.731Z</time></trkpt><trkpt lat="44.084535" lon="11.4156317"><ele>699.0</ele><time>2026-04-18T10:32:57.731Z</time></trkpt><trkpt lat="44.08448" lon="11.4155433"><ele>699.0</ele><time>2026-04-18T10:32:58.731Z</time></trkpt><trkpt lat="44.0844233" lon="11.4154733"><ele>699.0</ele><time>2026-04-18T10:32:59.731Z</time></trkpt><trkpt lat="44.0843617" lon="11.4154167"><ele>699.0</ele><time>2026-04-18T10:33:00.732Z</time></trkpt><trkpt lat="44.0842933" lon="11.4153683"><ele>699.0</ele><time>2026-04-18T10:33:01.731Z</time></trkpt><trkpt lat="44.0842183" lon="11.4153267"><ele>699.0</ele><time>2026-04-18T10:33:02.732Z</time></trkpt><trkpt lat="44.08414" lon="11.4153033"><ele>695.0</ele><time>2026-04-18T10:33:03.731Z</time></trkpt><trkpt lat="44.0840467" lon="11.4152967"><ele>691.0</ele><time>2026-04-18T10:33:04.732Z</time></trkpt><trkpt lat="44.083935" lon="11.4153017"><ele>687.0</ele><time>2026-04-18T10:33:05.731Z</time></trkpt><trkpt lat="44.0837967" lon="11.4153017"><ele>683.0</ele><time>2026-04-18T10:33:06.731Z</time></trkpt><trkpt lat="44.0836567" lon="11.4153117"><ele>683.0</ele><time>2026-04-18T10:33:07.73Z</time></trkpt><trkpt lat="44.08353" lon="11.4153083"><ele>683.0</ele><time>2026-04-18T10:33:08.73Z</time></trkpt><trkpt lat="44.0834067" lon="11.4153167"><ele>683.0</ele><time>2026-04-18T10:33:09.73Z</time></trkpt><trkpt lat="44.08329" lon="11.4153317"><ele>683.0</ele><time>2026-04-18T10:33:10.73Z</time></trkpt><trkpt lat="44.08319" lon="11.4153767"><ele>682.5</ele><time>2026-04-18T10:33:11.73Z</time></trkpt><trkpt lat="44.0830933" lon="11.4154133"><ele>682.0</ele><time>2026-04-18T10:33:12.731Z</time></trkpt><trkpt lat="44.0829983" lon="11.41544"><ele>681.5</ele><time>2026-04-18T10:33:13.731Z</time></trkpt><trkpt lat="44.082915" lon="11.4154517"><ele>681.0</ele><time>2026-04-18T10:33:14.731Z</time></trkpt><trkpt lat="44.0828383" lon="11.4154367"><ele>680.5</ele><time>2026-04-18T10:33:15.731Z</time></trkpt><trkpt lat="44.082755" lon="11.4154017"><ele>680.0</ele><time>2026-04-18T10:33:16.731Z</time></trkpt><trkpt lat="44.0826767" lon="11.4153383"><ele>680.0</ele><time>2026-04-18T10:33:17.731Z</time></trkpt><trkpt lat="44.0826117" lon="11.4152517"><ele>680.0</ele><time>2026-04-18T10:33:18.73Z</time></trkpt><trkpt lat="44.0825533" lon="11.4151483"><ele>680.0</ele><time>2026-04-18T10:33:19.731Z</time></trkpt><trkpt lat="44.0825017" lon="11.4150167"><ele>680.0</ele><time>2026-04-18T10:33:20.731Z</time></trkpt><trkpt lat="44.0824333" lon="11.4148633"><ele>680.0</ele><time>2026-04-18T10:33:21.73Z</time></trkpt><trkpt lat="44.08236" lon="11.414685"><ele>677.75</ele><time>2026-04-18T10:33:22.73Z</time></trkpt><trkpt lat="44.08228" lon="11.4145117"><ele>675.5</ele><time>2026-04-18T10:33:23.731Z</time></trkpt><trkpt lat="44.0822067" lon="11.4143483"><ele>673.25</ele><time>2026-04-18T10:33:24.731Z</time></trkpt><trkpt lat="44.0821383" lon="11.41421"><ele>671.0</ele><time>2026-04-18T10:33:25.73Z</time></trkpt><trkpt lat="44.0820767" lon="11.4140683"><ele>671.0</ele><time>2026-04-18T10:33:26.731Z</time></trkpt><trkpt lat="44.0820133" lon="11.413925"><ele>671.0</ele><time>2026-04-18T10:33:27.731Z</time></trkpt><trkpt lat="44.0819383" lon="11.4137683"><ele>671.0</ele><time>2026-04-18T10:33:28.731Z</time></trkpt><trkpt lat="44.081865" lon="11.4136067"><ele>671.0</ele><time>2026-04-18T10:33:29.73Z</time></trkpt><trkpt lat="44.0817933" lon="11.4134517"><ele>670.8</ele><time>2026-04-18T10:33:30.73Z</time></trkpt><trkpt lat="44.0817267" lon="11.4133067"><ele>670.5999999999999</ele><time>2026-04-18T10:33:31.731Z</time></trkpt><trkpt lat="44.0816583" lon="11.4131767"><ele>670.4</ele><time>2026-04-18T10:33:32.73Z</time></trkpt><trkpt lat="44.0816" lon="11.4130717"><ele>670.2</ele><time>2026-04-18T10:33:33.73Z</time></trkpt><trkpt lat="44.0815333" lon="11.4129767"><ele>670.0</ele><time>2026-04-18T10:33:34.731Z</time></trkpt><trkpt lat="44.081455" lon="11.4128983"><ele>671.0</ele><time>2026-04-18T10:33:35.73Z</time></trkpt><trkpt lat="44.081375" lon="11.4128367"><ele>672.0</ele><time>2026-04-18T10:33:36.731Z</time></trkpt><trkpt lat="44.0813033" lon="11.4127717"><ele>673.0</ele><time>2026-04-18T10:33:37.731Z</time></trkpt><trkpt lat="44.081235" lon="11.4127267"><ele>674.0</ele><time>2026-04-18T10:33:38.731Z</time></trkpt><trkpt lat="44.0811567" lon="11.412695"><ele>675.0</ele><time>2026-04-18T10:33:39.731Z</time></trkpt><trkpt lat="44.0810917" lon="11.4126733"><ele>676.0</ele><time>2026-04-18T10:33:40.73Z</time></trkpt><trkpt lat="44.08102" lon="11.4126617"><ele>676.0</ele><time>2026-04-18T10:33:41.731Z</time></trkpt><trkpt lat="44.080945" lon="11.4126517"><ele>676.0</ele><time>2026-04-18T10:33:42.731Z</time></trkpt><trkpt lat="44.0808683" lon="11.4126467"><ele>676.0</ele><time>2026-04-18T10:33:43.73Z</time></trkpt><trkpt lat="44.0807867" lon="11.4126417"><ele>676.0</ele><time>2026-04-18T10:33:44.731Z</time></trkpt><trkpt lat="44.0806967" lon="11.4126283"><ele>676.0</ele><time>2026-04-18T10:33:45.73Z</time></trkpt><trkpt lat="44.0805983" lon="11.4126117"><ele>676.0</ele><time>2026-04-18T10:33:46.73Z</time></trkpt><trkpt lat="44.080495" lon="11.4125983"><ele>677.0</ele><time>2026-04-18T10:33:47.73Z</time></trkpt><trkpt lat="44.0804133" lon="11.41259"><ele>678.0</ele><time>2026-04-18T10:33:48.731Z</time></trkpt><trkpt lat="44.0803317" lon="11.412595"><ele>679.0</ele><time>2026-04-18T10:33:49.73Z</time></trkpt><trkpt lat="44.08026" lon="11.4125983"><ele>680.0</ele><time>2026-04-18T10:33:50.73Z</time></trkpt><trkpt lat="44.080195" lon="11.4125817"><ele>681.0</ele><time>2026-04-18T10:33:51.73Z</time></trkpt><trkpt lat="44.0801317" lon="11.4125617"><ele>682.0</ele><time>2026-04-18T10:33:52.73Z</time></trkpt><trkpt lat="44.0800683" lon="11.41254"><ele>683.0</ele><time>2026-04-18T10:33:53.731Z</time></trkpt><trkpt lat="44.0799983" lon="11.4125083"><ele>684.3333333333333</ele><time>2026-04-18T10:33:54.731Z</time></trkpt><trkpt lat="44.0799333" lon="11.4124667"><ele>685.6666666666666</ele><time>2026-04-18T10:33:55.731Z</time></trkpt><trkpt lat="44.0798733" lon="11.41242"><ele>687.0</ele><time>2026-04-18T10:33:56.73Z</time></trkpt><trkpt lat="44.07978" lon="11.4123433"><ele>688.3333333333334</ele><time>2026-04-18T10:33:58.73Z</time></trkpt><trkpt lat="44.0796833" lon="11.4122817"><ele>689.6666666666667</ele><time>2026-04-18T10:34:00.73Z</time></trkpt><trkpt lat="44.079615" lon="11.4122617"><ele>691.0</ele><time>2026-04-18T10:34:01.731Z</time></trkpt><trkpt lat="44.079535" lon="11.4122533"><ele>691.0</ele><time>2026-04-18T10:34:02.73Z</time></trkpt><trkpt lat="44.0794483" lon="11.4122467"><ele>691.0</ele><time>2026-04-18T10:34:03.73Z</time></trkpt><trkpt lat="44.0793683" lon="11.41223"><ele>691.0</ele><time>2026-04-18T10:34:04.731Z</time></trkpt><trkpt lat="44.0792917" lon="11.4121883"><ele>691.0</ele><time>2026-04-18T10:34:05.73Z</time></trkpt><trkpt lat="44.0792133" lon="11.4121217"><ele>691.0</ele><time>2026-04-18T10:34:06.731Z</time></trkpt><trkpt lat="44.07914" lon="11.4120333"><ele>691.0</ele><time>2026-04-18T10:34:07.731Z</time></trkpt><trkpt lat="44.079075" lon="11.4119217"><ele>691.0</ele><time>2026-04-18T10:34:08.73Z</time></trkpt><trkpt lat="44.07901" lon="11.411815"><ele>691.0</ele><time>2026-04-18T10:34:09.73Z</time></trkpt><trkpt lat="44.0789417" lon="11.4117417"><ele>691.0</ele><time>2026-04-18T10:34:10.731Z</time></trkpt><trkpt lat="44.0788683" lon="11.411685"><ele>691.0</ele><time>2026-04-18T10:34:11.73Z</time></trkpt><trkpt lat="44.078805" lon="11.4116433"><ele>691.0</ele><time>2026-04-18T10:34:12.73Z</time></trkpt><trkpt lat="44.0786867" lon="11.4116033"><ele>691.0</ele><time>2026-04-18T10:34:14.73Z</time></trkpt><trkpt lat="44.0786233" lon="11.4116017"><ele>691.0</ele><time>2026-04-18T10:34:15.731Z</time></trkpt><trkpt lat="44.0785233" lon="11.4116483"><ele>691.0</ele><time>2026-04-18T10:34:17.73Z</time></trkpt><trkpt lat="44.0784483" lon="11.4117933"><ele>691.0</ele><time>2026-04-18T10:34:19.73Z</time></trkpt><trkpt lat="44.07842" lon="11.4118783"><ele>691.0</ele><time>2026-04-18T10:34:20.73Z</time></trkpt><trkpt lat="44.0783417" lon="11.4120033"><ele>690.1999999999999</ele><time>2026-04-18T10:34:22.73Z</time></trkpt><trkpt lat="44.0782283" lon="11.4120667"><ele>689.4</ele><time>2026-04-18T10:34:24.73Z</time></trkpt><trkpt lat="44.0781183" lon="11.4120517"><ele>688.6</ele><time>2026-04-18T10:34:26.73Z</time></trkpt><trkpt lat="44.0780167" lon="11.412005"><ele>687.8</ele><time>2026-04-18T10:34:28.731Z</time></trkpt><trkpt lat="44.0779183" lon="11.4119917"><ele>687.0</ele><time>2026-04-18T10:34:30.73Z</time></trkpt><trkpt lat="44.077815" lon="11.412025"><ele>687.0</ele><time>2026-04-18T10:34:32.73Z</time></trkpt><trkpt lat="44.077715" lon="11.4120517"><ele>687.0</ele><time>2026-04-18T10:34:34.73Z</time></trkpt><trkpt lat="44.0776033" lon="11.4120767"><ele>687.0</ele><time>2026-04-18T10:34:36.73Z</time></trkpt><trkpt lat="44.0774933" lon="11.4120667"><ele>687.0</ele><time>2026-04-18T10:34:38.73Z</time></trkpt><trkpt lat="44.0773817" lon="11.4120783"><ele>687.0</ele><time>2026-04-18T10:34:40.731Z</time></trkpt><trkpt lat="44.0772517" lon="11.412055"><ele>686.4000000000001</ele><time>2026-04-18T10:34:42.73Z</time></trkpt><trkpt lat="44.0771433" lon="11.4120067"><ele>685.8000000000001</ele><time>2026-04-18T10:34:44.731Z</time></trkpt><trkpt lat="44.0770617" lon="11.4119367"><ele>685.2</ele><time>2026-04-18T10:34:46.73Z</time></trkpt><trkpt lat="44.0769817" lon="11.41186"><ele>684.6</ele><time>2026-04-18T10:34:48.73Z</time></trkpt><trkpt lat="44.0768867" lon="11.41181"><ele>684.0</ele><time>2026-04-18T10:34:50.73Z</time></trkpt><trkpt lat="44.0767733" lon="11.41179"><ele>683.9999999999999</ele><time>2026-04-18T10:34:52.73Z</time></trkpt><trkpt lat="44.076705" lon="11.4117683"><ele>684.0</ele><time>2026-04-18T10:34:53.73Z</time></trkpt><trkpt lat="44.0766333" lon="11.4117267"><ele>684.0</ele><time>2026-04-18T10:34:54.73Z</time></trkpt><trkpt lat="44.076575" lon="11.4116767"><ele>684.0</ele><time>2026-04-18T10:34:55.73Z</time></trkpt><trkpt lat="44.0765167" lon="11.411625"><ele>684.0</ele><time>2026-04-18T10:34:56.731Z</time></trkpt><trkpt lat="44.076455" lon="11.4115817"><ele>683.9999999999999</ele><time>2026-04-18T10:34:57.731Z</time></trkpt><trkpt lat="44.0763933" lon="11.4115433"><ele>684.0</ele><time>2026-04-18T10:34:58.73Z</time></trkpt><trkpt lat="44.0763283" lon="11.4115083"><ele>683.5</ele><time>2026-04-18T10:34:59.73Z</time></trkpt><trkpt lat="44.0762583" lon="11.411495"><ele>683.0</ele><time>2026-04-18T10:35:00.73Z</time></trkpt><trkpt lat="44.0761767" lon="11.4115"><ele>682.5</ele><time>2026-04-18T10:35:01.73Z</time></trkpt><trkpt lat="44.0760967" lon="11.411525"><ele>682.0</ele><time>2026-04-18T10:35:02.731Z</time></trkpt><trkpt lat="44.0760267" lon="11.4115483"><ele>681.5</ele><time>2026-04-18T10:35:03.73Z</time></trkpt><trkpt lat="44.0759517" lon="11.411565"><ele>681.0</ele><time>2026-04-18T10:35:04.73Z</time></trkpt><trkpt lat="44.075875" lon="11.4115667"><ele>681.0000000000001</ele><time>2026-04-18T10:35:05.73Z</time></trkpt><trkpt lat="44.0758" lon="11.4115533"><ele>681.0</ele><time>2026-04-18T10:35:06.731Z</time></trkpt><trkpt lat="44.0757417" lon="11.4115183"><ele>681.0</ele><time>2026-04-18T10:35:07.73Z</time></trkpt><trkpt lat="44.075685" lon="11.411475"><ele>681.0</ele><time>2026-04-18T10:35:08.73Z</time></trkpt><trkpt lat="44.075625" lon="11.411415"><ele>681.0</ele><time>2026-04-18T10:35:09.73Z</time></trkpt><trkpt lat="44.075555" lon="11.4113633"><ele>681.0000000000001</ele><time>2026-04-18T10:35:10.73Z</time></trkpt><trkpt lat="44.07548" lon="11.411315"><ele>681.0</ele><time>2026-04-18T10:35:11.73Z</time></trkpt><trkpt lat="44.07541" lon="11.4112733"><ele>681.0</ele><time>2026-04-18T10:35:12.73Z</time></trkpt><trkpt lat="44.075305" lon="11.4112267"><ele>681.0</ele><time>2026-04-18T10:35:14.73Z</time></trkpt><trkpt lat="44.075165" lon="11.4111967"><ele>681.0</ele><time>2026-04-18T10:35:16.731Z</time></trkpt><trkpt lat="44.0750817" lon="11.4111833"><ele>681.0</ele><time>2026-04-18T10:35:17.73Z</time></trkpt><trkpt lat="44.0749983" lon="11.4111667"><ele>681.0</ele><time>2026-04-18T10:35:18.73Z</time></trkpt><trkpt lat="44.0749267" lon="11.41114"><ele>681.0</ele><time>2026-04-18T10:35:19.73Z</time></trkpt><trkpt lat="44.0748667" lon="11.4111"><ele>681.0</ele><time>2026-04-18T10:35:20.73Z</time></trkpt><trkpt lat="44.0747933" lon="11.41104"><ele>681.0</ele><time>2026-04-18T10:35:22.73Z</time></trkpt><trkpt lat="44.0747167" lon="11.41096"><ele>681.0</ele><time>2026-04-18T10:35:24.731Z</time></trkpt><trkpt lat="44.0746483" lon="11.4108633"><ele>681.0</ele><time>2026-04-18T10:35:26.731Z</time></trkpt><trkpt lat="44.07456" lon="11.4107383"><ele>681.0</ele><time>2026-04-18T10:35:28.73Z</time></trkpt><trkpt lat="44.0744967" lon="11.410645"><ele>681.0</ele><time>2026-04-18T10:35:29.73Z</time></trkpt><trkpt lat="44.0744317" lon="11.4105567"><ele>681.0</ele><time>2026-04-18T10:35:30.73Z</time></trkpt><trkpt lat="44.0743667" lon="11.4104617"><ele>681.0</ele><time>2026-04-18T10:35:31.73Z</time></trkpt><trkpt lat="44.074315" lon="11.410365"><ele>681.0</ele><time>2026-04-18T10:35:32.73Z</time></trkpt><trkpt lat="44.074275" lon="11.4102833"><ele>681.0</ele><time>2026-04-18T10:35:33.731Z</time></trkpt><trkpt lat="44.0741883" lon="11.4101817"><ele>679.8</ele><time>2026-04-18T10:35:35.731Z</time></trkpt><trkpt lat="44.0740867" lon="11.41009"><ele>678.5999999999999</ele><time>2026-04-18T10:35:37.73Z</time></trkpt><trkpt lat="44.0740183" lon="11.4100383"><ele>677.4</ele><time>2026-04-18T10:35:38.73Z</time></trkpt><trkpt lat="44.0738917" lon="11.40998"><ele>676.2</ele><time>2026-04-18T10:35:40.731Z</time></trkpt><trkpt lat="44.0738117" lon="11.409925"><ele>675.0</ele><time>2026-04-18T10:35:41.73Z</time></trkpt><trkpt lat="44.07374" lon="11.4098533"><ele>675.0</ele><time>2026-04-18T10:35:42.73Z</time></trkpt><trkpt lat="44.0736833" lon="11.409775"><ele>675.0</ele><time>2026-04-18T10:35:43.731Z</time></trkpt><trkpt lat="44.0736333" lon="11.4096967"><ele>675.0</ele><time>2026-04-18T10:35:44.731Z</time></trkpt><trkpt lat="44.073595" lon="11.40962"><ele>675.0</ele><time>2026-04-18T10:35:45.73Z</time></trkpt><trkpt lat="44.0735367" lon="11.4095033"><ele>675.0</ele><time>2026-04-18T10:35:47.73Z</time></trkpt><trkpt lat="44.073465" lon="11.40943"><ele>675.0</ele><time>2026-04-18T10:35:49.73Z</time></trkpt><trkpt lat="44.0733633" lon="11.40934"><ele>676.2</ele><time>2026-04-18T10:35:51.73Z</time></trkpt><trkpt lat="44.0732967" lon="11.4093017"><ele>677.4</ele><time>2026-04-18T10:35:52.731Z</time></trkpt><trkpt lat="44.07322" lon="11.40926"><ele>678.5999999999999</ele><time>2026-04-18T10:35:53.73Z</time></trkpt><trkpt lat="44.0731267" lon="11.409235"><ele>679.8</ele><time>2026-04-18T10:35:54.73Z</time></trkpt><trkpt lat="44.0730133" lon="11.40921"><ele>681.0</ele><time>2026-04-18T10:35:55.73Z</time></trkpt><trkpt lat="44.0728967" lon="11.409185"><ele>681.25</ele><time>2026-04-18T10:35:56.731Z</time></trkpt><trkpt lat="44.0727733" lon="11.4091583"><ele>681.5</ele><time>2026-04-18T10:35:57.73Z</time></trkpt><trkpt lat="44.0726483" lon="11.4091383"><ele>681.75</ele><time>2026-04-18T10:35:58.73Z</time></trkpt><trkpt lat="44.07253" lon="11.4091117"><ele>682.0</ele><time>2026-04-18T10:35:59.73Z</time></trkpt><trkpt lat="44.0724317" lon="11.4090883"><ele>682.0</ele><time>2026-04-18T10:36:00.731Z</time></trkpt><trkpt lat="44.0723567" lon="11.4090717"><ele>682.0</ele><time>2026-04-18T10:36:01.731Z</time></trkpt><trkpt lat="44.07226" lon="11.4090267"><ele>682.0</ele><time>2026-04-18T10:36:03.731Z</time></trkpt><trkpt lat="44.0721633" lon="11.408935"><ele>682.0</ele><time>2026-04-18T10:36:05.731Z</time></trkpt><trkpt lat="44.0721067" lon="11.4088667"><ele>682.0</ele><time>2026-04-18T10:36:06.73Z</time></trkpt><trkpt lat="44.072025" lon="11.40879"><ele>683.4000000000001</ele><time>2026-04-18T10:36:07.73Z</time></trkpt><trkpt lat="44.071935" lon="11.4087117"><ele>684.8000000000001</ele><time>2026-04-18T10:36:08.73Z</time></trkpt><trkpt lat="44.071845" lon="11.4086367"><ele>686.2</ele><time>2026-04-18T10:36:09.731Z</time></trkpt><trkpt lat="44.0717717" lon="11.4085633"><ele>687.6</ele><time>2026-04-18T10:36:10.73Z</time></trkpt><trkpt lat="44.0717017" lon="11.4084967"><ele>689.0</ele><time>2026-04-18T10:36:11.73Z</time></trkpt><trkpt lat="44.0716283" lon="11.4084367"><ele>689.6666666666666</ele><time>2026-04-18T10:36:12.73Z</time></trkpt><trkpt lat="44.071565" lon="11.408385"><ele>690.3333333333333</ele><time>2026-04-18T10:36:13.731Z</time></trkpt><trkpt lat="44.0715017" lon="11.4083383"><ele>691.0</ele><time>2026-04-18T10:36:14.73Z</time></trkpt><trkpt lat="44.07145" lon="11.4082883"><ele>691.6666666666666</ele><time>2026-04-18T10:36:15.731Z</time></trkpt><trkpt lat="44.07137" lon="11.4081617"><ele>692.3333333333334</ele><time>2026-04-18T10:36:17.73Z</time></trkpt><trkpt lat="44.0713067" lon="11.4080567"><ele>693.0</ele><time>2026-04-18T10:36:19.729Z</time></trkpt><trkpt lat="44.07123" lon="11.4079417"><ele>693.2</ele><time>2026-04-18T10:36:21.729Z</time></trkpt><trkpt lat="44.07115" lon="11.4078483"><ele>693.4</ele><time>2026-04-18T10:36:23.729Z</time></trkpt><trkpt lat="44.0710617" lon="11.407755"><ele>693.6</ele><time>2026-04-18T10:36:25.729Z</time></trkpt><trkpt lat="44.07097" lon="11.4076717"><ele>693.8000000000001</ele><time>2026-04-18T10:36:27.729Z</time></trkpt><trkpt lat="44.07087" lon="11.4076167"><ele>694.0</ele><time>2026-04-18T10:36:29.729Z</time></trkpt><trkpt lat="44.070745" lon="11.4075983"><ele>696.3333333333334</ele><time>2026-04-18T10:36:31.729Z</time></trkpt><trkpt lat="44.0706667" lon="11.4076083"><ele>698.6666666666667</ele><time>2026-04-18T10:36:32.73Z</time></trkpt><trkpt lat="44.0706017" lon="11.40761"><ele>701.0</ele><time>2026-04-18T10:36:33.729Z</time></trkpt><trkpt lat="44.0705183" lon="11.4075917"><ele>703.3333333333334</ele><time>2026-04-18T10:36:34.729Z</time></trkpt><trkpt lat="44.070425" lon="11.4075983"><ele>705.6666666666666</ele><time>2026-04-18T10:36:35.729Z</time></trkpt><trkpt lat="44.0703317" lon="11.4076167"><ele>708.0</ele><time>2026-04-18T10:36:36.729Z</time></trkpt><trkpt lat="44.07026" lon="11.4076317"><ele>708.0</ele><time>2026-04-18T10:36:37.73Z</time></trkpt><trkpt lat="44.0701817" lon="11.4075817"><ele>708.0</ele><time>2026-04-18T10:36:39.729Z</time></trkpt><trkpt lat="44.070185" lon="11.4074483"><ele>708.0</ele><time>2026-04-18T10:36:41.729Z</time></trkpt><trkpt lat="44.0701833" lon="11.4072817"><ele>708.0</ele><time>2026-04-18T10:36:43.73Z</time></trkpt><trkpt lat="44.070165" lon="11.4071967"><ele>708.0</ele><time>2026-04-18T10:36:44.73Z</time></trkpt><trkpt lat="44.07011" lon="11.40713"><ele>708.0</ele><time>2026-04-18T10:36:45.729Z</time></trkpt><trkpt lat="44.0700433" lon="11.4070483"><ele>708.4</ele><time>2026-04-18T10:36:46.73Z</time></trkpt><trkpt lat="44.0699533" lon="11.40696"><ele>708.8</ele><time>2026-04-18T10:36:47.73Z</time></trkpt><trkpt lat="44.0698717" lon="11.40687"><ele>709.2</ele><time>2026-04-18T10:36:48.73Z</time></trkpt><trkpt lat="44.06979" lon="11.4067817"><ele>709.6</ele><time>2026-04-18T10:36:49.729Z</time></trkpt><trkpt lat="44.069725" lon="11.4067"><ele>710.0</ele><time>2026-04-18T10:36:50.73Z</time></trkpt><trkpt lat="44.0696533" lon="11.4066333"><ele>710.0</ele><time>2026-04-18T10:36:51.729Z</time></trkpt><trkpt lat="44.0695917" lon="11.4065583"><ele>710.0</ele><time>2026-04-18T10:36:52.729Z</time></trkpt><trkpt lat="44.0695117" lon="11.4064467"><ele>710.0</ele><time>2026-04-18T10:36:54.729Z</time></trkpt><trkpt lat="44.06945" lon="11.4063567"><ele>710.0</ele><time>2026-04-18T10:36:56.73Z</time></trkpt><trkpt lat="44.0694083" lon="11.4062333"><ele>710.0</ele><time>2026-04-18T10:36:58.73Z</time></trkpt><trkpt lat="44.0693983" lon="11.4060917"><ele>707.25</ele><time>2026-04-18T10:37:00.73Z</time></trkpt><trkpt lat="44.0694" lon="11.4059267"><ele>704.5</ele><time>2026-04-18T10:37:02.73Z</time></trkpt><trkpt lat="44.0693967" lon="11.4057683"><ele>701.75</ele><time>2026-04-18T10:37:04.729Z</time></trkpt><trkpt lat="44.0693933" lon="11.405615"><ele>699.0</ele><time>2026-04-18T10:37:06.729Z</time></trkpt><trkpt lat="44.0694033" lon="11.40546"><ele>696.8000000000001</ele><time>2026-04-18T10:37:08.729Z</time></trkpt><trkpt lat="44.0693983" lon="11.4052917"><ele>694.6</ele><time>2026-04-18T10:37:10.73Z</time></trkpt><trkpt lat="44.0693867" lon="11.4051367"><ele>692.4</ele><time>2026-04-18T10:37:12.729Z</time></trkpt><trkpt lat="44.0693617" lon="11.405045"><ele>690.2</ele><time>2026-04-18T10:37:14.729Z</time></trkpt><trkpt lat="44.0693083" lon="11.4049517"><ele>688.0</ele><time>2026-04-18T10:37:17.73Z</time></trkpt><trkpt lat="44.0692833" lon="11.4048667"><ele>688.0</ele><time>2026-04-18T10:37:19.73Z</time></trkpt><trkpt lat="44.06928" lon="11.4047567"><ele>688.0</ele><time>2026-04-18T10:37:21.729Z</time></trkpt><trkpt lat="44.0693033" lon="11.4046683"><ele>688.0</ele><time>2026-04-18T10:37:23.729Z</time></trkpt><trkpt lat="44.0693667" lon="11.4045967"><ele>688.0</ele><time>2026-04-18T10:37:25.73Z</time></trkpt><trkpt lat="44.0694783" lon="11.404515"><ele>688.0</ele><time>2026-04-18T10:37:27.73Z</time></trkpt><trkpt lat="44.069535" lon="11.4044667"><ele>688.0</ele><time>2026-04-18T10:37:28.729Z</time></trkpt><trkpt lat="44.06961" lon="11.4043683"><ele>686.5999999999999</ele><time>2026-04-18T10:37:30.73Z</time></trkpt><trkpt lat="44.0696267" lon="11.404235"><ele>685.1999999999999</ele><time>2026-04-18T10:37:32.729Z</time></trkpt><trkpt lat="44.0696" lon="11.404075"><ele>683.8</ele><time>2026-04-18T10:37:34.73Z</time></trkpt><trkpt lat="44.069595" lon="11.4039383"><ele>682.4</ele><time>2026-04-18T10:37:36.729Z</time></trkpt><trkpt lat="44.069615" lon="11.4037683"><ele>681.0</ele><time>2026-04-18T10:37:38.729Z</time></trkpt><trkpt lat="44.069645" lon="11.4036533"><ele>681.0</ele><time>2026-04-18T10:37:39.73Z</time></trkpt><trkpt lat="44.0696633" lon="11.40355"><ele>681.0</ele><time>2026-04-18T10:37:40.73Z</time></trkpt><trkpt lat="44.069675" lon="11.4034017"><ele>681.0</ele><time>2026-04-18T10:37:42.729Z</time></trkpt><trkpt lat="44.0696817" lon="11.4033083"><ele>681.0</ele><time>2026-04-18T10:37:43.729Z</time></trkpt><trkpt lat="44.0696867" lon="11.4032117"><ele>681.0</ele><time>2026-04-18T10:37:44.73Z</time></trkpt><trkpt lat="44.0696733" lon="11.40312"><ele>681.0</ele><time>2026-04-18T10:37:45.729Z</time></trkpt><trkpt lat="44.0696467" lon="11.40301"><ele>680.8333333333334</ele><time>2026-04-18T10:37:46.729Z</time></trkpt><trkpt lat="44.0696167" lon="11.4028917"><ele>680.6666666666666</ele><time>2026-04-18T10:37:47.729Z</time></trkpt><trkpt lat="44.0695983" lon="11.40277"><ele>680.5</ele><time>2026-04-18T10:37:48.729Z</time></trkpt><trkpt lat="44.0695817" lon="11.402665"><ele>680.3333333333333</ele><time>2026-04-18T10:37:49.73Z</time></trkpt><trkpt lat="44.069565" lon="11.4025733"><ele>680.1666666666666</ele><time>2026-04-18T10:37:50.73Z</time></trkpt><trkpt lat="44.069555" lon="11.4024167"><ele>680.0</ele><time>2026-04-18T10:37:52.73Z</time></trkpt><trkpt lat="44.0695683" lon="11.4022867"><ele>679.2</ele><time>2026-04-18T10:37:54.729Z</time></trkpt><trkpt lat="44.069565" lon="11.40216"><ele>678.4</ele><time>2026-04-18T10:37:56.73Z</time></trkpt><trkpt lat="44.0695483" lon="11.401995"><ele>677.5999999999999</ele><time>2026-04-18T10:37:58.73Z</time></trkpt><trkpt lat="44.0695433" lon="11.4018233"><ele>676.8</ele><time>2026-04-18T10:38:00.729Z</time></trkpt><trkpt lat="44.0695467" lon="11.4016633"><ele>676.0</ele><time>2026-04-18T10:38:02.729Z</time></trkpt><trkpt lat="44.0695583" lon="11.4015767"><ele>676.0</ele><time>2026-04-18T10:38:03.729Z</time></trkpt><trkpt lat="44.06958" lon="11.4014817"><ele>676.0</ele><time>2026-04-18T10:38:04.729Z</time></trkpt><trkpt lat="44.0696167" lon="11.4013617"><ele>676.0</ele><time>2026-04-18T10:38:05.729Z</time></trkpt><trkpt lat="44.0696517" lon="11.4012367"><ele>676.0</ele><time>2026-04-18T10:38:06.729Z</time></trkpt><trkpt lat="44.0696883" lon="11.401105"><ele>676.0</ele><time>2026-04-18T10:38:07.73Z</time></trkpt><trkpt lat="44.069705" lon="11.4009683"><ele>676.3333333333334</ele><time>2026-04-18T10:38:08.73Z</time></trkpt><trkpt lat="44.0697133" lon="11.4008283"><ele>676.6666666666667</ele><time>2026-04-18T10:38:09.73Z</time></trkpt><trkpt lat="44.0697183" lon="11.4007"><ele>677.0</ele><time>2026-04-18T10:38:10.729Z</time></trkpt><trkpt lat="44.0697133" lon="11.4005783"><ele>677.3333333333334</ele><time>2026-04-18T10:38:11.73Z</time></trkpt><trkpt lat="44.0696883" lon="11.4004967"><ele>677.6666666666666</ele><time>2026-04-18T10:38:12.73Z</time></trkpt><trkpt lat="44.06967" lon="11.4003717"><ele>678.0</ele><time>2026-04-18T10:38:14.729Z</time></trkpt><trkpt lat="44.0696667" lon="11.4002083"><ele>678.1666666666666</ele><time>2026-04-18T10:38:16.73Z</time></trkpt><trkpt lat="44.0696567" lon="11.4001183"><ele>678.3333333333334</ele><time>2026-04-18T10:38:17.73Z</time></trkpt><trkpt lat="44.0696367" lon="11.400005"><ele>678.5</ele><time>2026-04-18T10:38:18.73Z</time></trkpt><trkpt lat="44.0696117" lon="11.3998867"><ele>678.6666666666667</ele><time>2026-04-18T10:38:19.73Z</time></trkpt><trkpt lat="44.0695933" lon="11.399775"><ele>678.8333333333334</ele><time>2026-04-18T10:38:20.73Z</time></trkpt><trkpt lat="44.0695733" lon="11.399675"><ele>679.0</ele><time>2026-04-18T10:38:21.729Z</time></trkpt><trkpt lat="44.0695533" lon="11.39958"><ele>678.4000000000001</ele><time>2026-04-18T10:38:22.73Z</time></trkpt><trkpt lat="44.0695067" lon="11.39942"><ele>677.8</ele><time>2026-04-18T10:38:24.73Z</time></trkpt><trkpt lat="44.0694883" lon="11.3992483"><ele>677.2</ele><time>2026-04-18T10:38:26.729Z</time></trkpt><trkpt lat="44.069495" lon="11.3991467"><ele>676.5999999999999</ele><time>2026-04-18T10:38:27.729Z</time></trkpt><trkpt lat="44.0695133" lon="11.3990167"><ele>676.0</ele><time>2026-04-18T10:38:28.73Z</time></trkpt><trkpt lat="44.06954" lon="11.3988767"><ele>676.6666666666667</ele><time>2026-04-18T10:38:29.73Z</time></trkpt><trkpt lat="44.0695583" lon="11.3987483"><ele>677.3333333333334</ele><time>2026-04-18T10:38:30.729Z</time></trkpt><trkpt lat="44.0695733" lon="11.3986383"><ele>678.0</ele><time>2026-04-18T10:38:31.729Z</time></trkpt><trkpt lat="44.0695883" lon="11.3985083"><ele>678.6666666666666</ele><time>2026-04-18T10:38:33.729Z</time></trkpt><trkpt lat="44.0695867" lon="11.3984167"><ele>679.3333333333333</ele><time>2026-04-18T10:38:36.73Z</time></trkpt><trkpt lat="44.069585" lon="11.3983217"><ele>680.0</ele><time>2026-04-18T10:38:38.729Z</time></trkpt><trkpt lat="44.069595" lon="11.3982183"><ele>680.0</ele><time>2026-04-18T10:38:40.73Z</time></trkpt><trkpt lat="44.06961" lon="11.3981267"><ele>680.0</ele><time>2026-04-18T10:38:42.729Z</time></trkpt><trkpt lat="44.06962" lon="11.398035"><ele>680.0</ele><time>2026-04-18T10:38:52.73Z</time></trkpt><trkpt lat="44.06963" lon="11.3978917"><ele>680.0</ele><time>2026-04-18T10:38:55.73Z</time></trkpt><trkpt lat="44.06965" lon="11.3977633"><ele>680.0</ele><time>2026-04-18T10:38:57.73Z</time></trkpt><trkpt lat="44.069665" lon="11.3976283"><ele>680.0</ele><time>2026-04-18T10:38:59.729Z</time></trkpt><trkpt lat="44.0696633" lon="11.3974383"><ele>679.8</ele><time>2026-04-18T10:39:01.729Z</time></trkpt><trkpt lat="44.0696567" lon="11.3973333"><ele>679.6</ele><time>2026-04-18T10:39:02.73Z</time></trkpt><trkpt lat="44.069645" lon="11.3971717"><ele>679.4000000000001</ele><time>2026-04-18T10:39:04.73Z</time></trkpt><trkpt lat="44.0696583" lon="11.397015"><ele>679.2</ele><time>2026-04-18T10:39:06.73Z</time></trkpt><trkpt lat="44.0696933" lon="11.3968767"><ele>679.0</ele><time>2026-04-18T10:39:08.729Z</time></trkpt><trkpt lat="44.0697483" lon="11.3967333"><ele>679.0</ele><time>2026-04-18T10:39:10.73Z</time></trkpt><trkpt lat="44.0697767" lon="11.396655"><ele>679.0</ele><time>2026-04-18T10:39:11.729Z</time></trkpt><trkpt lat="44.0698017" lon="11.3965683"><ele>679.0</ele><time>2026-04-18T10:39:12.729Z</time></trkpt><trkpt lat="44.0698267" lon="11.39647"><ele>679.0</ele><time>2026-04-18T10:39:13.73Z</time></trkpt><trkpt lat="44.06985" lon="11.39638"><ele>679.0</ele><time>2026-04-18T10:39:14.73Z</time></trkpt><trkpt lat="44.0698567" lon="11.3962867"><ele>679.0</ele><time>2026-04-18T10:39:15.729Z</time></trkpt><trkpt lat="44.0698617" lon="11.3961883"><ele>679.0</ele><time>2026-04-18T10:39:16.73Z</time></trkpt><trkpt lat="44.069855" lon="11.3960883"><ele>678.8333333333334</ele><time>2026-04-18T10:39:17.729Z</time></trkpt><trkpt lat="44.0698267" lon="11.3959783"><ele>678.6666666666667</ele><time>2026-04-18T10:39:18.73Z</time></trkpt><trkpt lat="44.0697917" lon="11.395875"><ele>678.5</ele><time>2026-04-18T10:39:19.729Z</time></trkpt><trkpt lat="44.0697517" lon="11.3957783"><ele>678.3333333333334</ele><time>2026-04-18T10:39:20.73Z</time></trkpt><trkpt lat="44.0697233" lon="11.3956783"><ele>678.1666666666666</ele><time>2026-04-18T10:39:21.73Z</time></trkpt><trkpt lat="44.069705" lon="11.3955867"><ele>678.0</ele><time>2026-04-18T10:39:22.729Z</time></trkpt><trkpt lat="44.06969" lon="11.3954817"><ele>678.8</ele><time>2026-04-18T10:39:23.729Z</time></trkpt><trkpt lat="44.0696833" lon="11.39534"><ele>679.5999999999999</ele><time>2026-04-18T10:39:24.729Z</time></trkpt><trkpt lat="44.069675" lon="11.3951917"><ele>680.4000000000001</ele><time>2026-04-18T10:39:25.729Z</time></trkpt><trkpt lat="44.06968" lon="11.3950667"><ele>681.2</ele><time>2026-04-18T10:39:26.729Z</time></trkpt><trkpt lat="44.0697067" lon="11.3949683"><ele>682.0</ele><time>2026-04-18T10:39:27.729Z</time></trkpt><trkpt lat="44.0697417" lon="11.394875"><ele>682.0</ele><time>2026-04-18T10:39:28.729Z</time></trkpt><trkpt lat="44.0697733" lon="11.3947967"><ele>682.0</ele><time>2026-04-18T10:39:29.729Z</time></trkpt><trkpt lat="44.0698017" lon="11.39464"><ele>682.0</ele><time>2026-04-18T10:39:31.728Z</time></trkpt><trkpt lat="44.06981" lon="11.3945233"><ele>682.0</ele><time>2026-04-18T10:39:32.728Z</time></trkpt><trkpt lat="44.0698233" lon="11.394375"><ele>682.0</ele><time>2026-04-18T10:39:33.728Z</time></trkpt><trkpt lat="44.069855" lon="11.3942067"><ele>681.4000000000001</ele><time>2026-04-18T10:39:34.728Z</time></trkpt><trkpt lat="44.0698967" lon="11.3940517"><ele>680.8000000000001</ele><time>2026-04-18T10:39:35.729Z</time></trkpt><trkpt lat="44.069945" lon="11.39392"><ele>680.2</ele><time>2026-04-18T10:39:36.728Z</time></trkpt><trkpt lat="44.0699933" lon="11.3937983"><ele>679.6</ele><time>2026-04-18T10:39:37.729Z</time></trkpt><trkpt lat="44.0700433" lon="11.3936817"><ele>679.0</ele><time>2026-04-18T10:39:38.729Z</time></trkpt><trkpt lat="44.07009" lon="11.3935933"><ele>680.4285714285714</ele><time>2026-04-18T10:39:39.729Z</time></trkpt><trkpt lat="44.0701283" lon="11.3935083"><ele>681.8571428571429</ele><time>2026-04-18T10:39:40.728Z</time></trkpt><trkpt lat="44.0701683" lon="11.3934217"><ele>683.2857142857142</ele><time>2026-04-18T10:39:41.728Z</time></trkpt><trkpt lat="44.0702067" lon="11.3933483"><ele>684.7142857142858</ele><time>2026-04-18T10:39:42.728Z</time></trkpt><trkpt lat="44.07024" lon="11.3932733"><ele>686.1428571428571</ele><time>2026-04-18T10:39:43.728Z</time></trkpt><trkpt lat="44.0702683" lon="11.3931883"><ele>687.5714285714286</ele><time>2026-04-18T10:39:44.728Z</time></trkpt><trkpt lat="44.0702933" lon="11.3931067"><ele>689.0</ele><time>2026-04-18T10:39:45.728Z</time></trkpt><trkpt lat="44.0703183" lon="11.3930033"><ele>689.0</ele><time>2026-04-18T10:39:46.728Z</time></trkpt><trkpt lat="44.0703533" lon="11.3928767"><ele>689.0</ele><time>2026-04-18T10:39:47.728Z</time></trkpt><trkpt lat="44.0703933" lon="11.3927433"><ele>689.0</ele><time>2026-04-18T10:39:48.729Z</time></trkpt><trkpt lat="44.070435" lon="11.39264"><ele>689.0</ele><time>2026-04-18T10:39:49.728Z</time></trkpt><trkpt lat="44.0704767" lon="11.3925417"><ele>689.0</ele><time>2026-04-18T10:39:50.728Z</time></trkpt><trkpt lat="44.0705083" lon="11.392455"><ele>689.0</ele><time>2026-04-18T10:39:51.728Z</time></trkpt><trkpt lat="44.0705333" lon="11.3923583"><ele>689.0</ele><time>2026-04-18T10:39:52.728Z</time></trkpt><trkpt lat="44.07055" lon="11.392245"><ele>689.0</ele><time>2026-04-18T10:39:53.728Z</time></trkpt><trkpt lat="44.0705567" lon="11.3921417"><ele>689.0</ele><time>2026-04-18T10:39:54.729Z</time></trkpt><trkpt lat="44.0705617" lon="11.3920417"><ele>689.0</ele><time>2026-04-18T10:39:55.728Z</time></trkpt><trkpt lat="44.0705717" lon="11.3919467"><ele>689.0</ele><time>2026-04-18T10:39:56.728Z</time></trkpt><trkpt lat="44.0706067" lon="11.3917817"><ele>689.0</ele><time>2026-04-18T10:39:58.729Z</time></trkpt><trkpt lat="44.0705983" lon="11.391625"><ele>689.0</ele><time>2026-04-18T10:40:00.729Z</time></trkpt><trkpt lat="44.0705783" lon="11.391535"><ele>689.0</ele><time>2026-04-18T10:40:01.728Z</time></trkpt><trkpt lat="44.0705683" lon="11.39144"><ele>689.0</ele><time>2026-04-18T10:40:02.728Z</time></trkpt><trkpt lat="44.0705717" lon="11.3913433"><ele>689.0</ele><time>2026-04-18T10:40:03.729Z</time></trkpt><trkpt lat="44.07059" lon="11.3912483"><ele>689.0</ele><time>2026-04-18T10:40:04.728Z</time></trkpt><trkpt lat="44.0706167" lon="11.3911567"><ele>689.0</ele><time>2026-04-18T10:40:05.728Z</time></trkpt><trkpt lat="44.07065" lon="11.39106"><ele>689.0</ele><time>2026-04-18T10:40:06.728Z</time></trkpt><trkpt lat="44.07069" lon="11.39096"><ele>689.6666666666666</ele><time>2026-04-18T10:40:07.728Z</time></trkpt><trkpt lat="44.07072" lon="11.3908667"><ele>690.3333333333333</ele><time>2026-04-18T10:40:08.728Z</time></trkpt><trkpt lat="44.0707517" lon="11.3907533"><ele>691.0</ele><time>2026-04-18T10:40:09.728Z</time></trkpt><trkpt lat="44.0707817" lon="11.3906283"><ele>691.6666666666666</ele><time>2026-04-18T10:40:10.728Z</time></trkpt><trkpt lat="44.0708083" lon="11.3905267"><ele>692.3333333333334</ele><time>2026-04-18T10:40:11.728Z</time></trkpt><trkpt lat="44.0708333" lon="11.39042"><ele>693.0</ele><time>2026-04-18T10:40:12.728Z</time></trkpt><trkpt lat="44.0708633" lon="11.390315"><ele>696.8333333333334</ele><time>2026-04-18T10:40:13.729Z</time></trkpt><trkpt lat="44.0708867" lon="11.390225"><ele>700.6666666666666</ele><time>2026-04-18T10:40:14.729Z</time></trkpt><trkpt lat="44.0709117" lon="11.3901367"><ele>704.5</ele><time>2026-04-18T10:40:15.728Z</time></trkpt><trkpt lat="44.0709733" lon="11.3899717"><ele>708.3333333333333</ele><time>2026-04-18T10:40:17.729Z</time></trkpt><trkpt lat="44.0710117" lon="11.3898833"><ele>712.1666666666666</ele><time>2026-04-18T10:40:18.728Z</time></trkpt><trkpt lat="44.0710383" lon="11.3898033"><ele>716.0</ele><time>2026-04-18T10:40:19.729Z</time></trkpt><trkpt lat="44.071065" lon="11.389705"><ele>715.8333333333333</ele><time>2026-04-18T10:40:20.729Z</time></trkpt><trkpt lat="44.0711" lon="11.3896033"><ele>715.6666666666666</ele><time>2026-04-18T10:40:21.728Z</time></trkpt><trkpt lat="44.07114" lon="11.38952"><ele>715.5</ele><time>2026-04-18T10:40:22.728Z</time></trkpt><trkpt lat="44.07123" lon="11.38943"><ele>715.3333333333334</ele><time>2026-04-18T10:40:24.728Z</time></trkpt><trkpt lat="44.07131" lon="11.38937"><ele>715.1666666666667</ele><time>2026-04-18T10:40:26.728Z</time></trkpt><trkpt lat="44.0713633" lon="11.3893233"><ele>715.0</ele><time>2026-04-18T10:40:27.729Z</time></trkpt><trkpt lat="44.07141" lon="11.3892567"><ele>715.0</ele><time>2026-04-18T10:40:28.729Z</time></trkpt><trkpt lat="44.07146" lon="11.3891717"><ele>715.0</ele><time>2026-04-18T10:40:29.728Z</time></trkpt><trkpt lat="44.0715133" lon="11.3890617"><ele>715.0</ele><time>2026-04-18T10:40:30.729Z</time></trkpt><trkpt lat="44.0715583" lon="11.388935"><ele>715.0</ele><time>2026-04-18T10:40:31.728Z</time></trkpt><trkpt lat="44.07159" lon="11.38882"><ele>715.0</ele><time>2026-04-18T10:40:32.728Z</time></trkpt><trkpt lat="44.0716083" lon="11.3887283"><ele>715.0</ele><time>2026-04-18T10:40:33.728Z</time></trkpt><trkpt lat="44.0716267" lon="11.3886367"><ele>717.0</ele><time>2026-04-18T10:40:34.728Z</time></trkpt><trkpt lat="44.0716583" lon="11.3884833"><ele>719.0</ele><time>2026-04-18T10:40:36.728Z</time></trkpt><trkpt lat="44.0716867" lon="11.3883583"><ele>721.0</ele><time>2026-04-18T10:40:38.728Z</time></trkpt><trkpt lat="44.0717033" lon="11.3882417"><ele>723.0</ele><time>2026-04-18T10:40:40.728Z</time></trkpt><trkpt lat="44.07172" lon="11.3881367"><ele>725.0</ele><time>2026-04-18T10:40:42.729Z</time></trkpt><trkpt lat="44.07174" lon="11.3880317"><ele>724.2</ele><time>2026-04-18T10:40:44.728Z</time></trkpt><trkpt lat="44.0717733" lon="11.38788"><ele>723.4</ele><time>2026-04-18T10:40:46.729Z</time></trkpt><trkpt lat="44.071795" lon="11.387775"><ele>722.5999999999999</ele><time>2026-04-18T10:40:47.728Z</time></trkpt><trkpt lat="44.0718217" lon="11.3876433"><ele>721.8</ele><time>2026-04-18T10:40:48.728Z</time></trkpt><trkpt lat="44.071855" lon="11.3874983"><ele>721.0</ele><time>2026-04-18T10:40:49.729Z</time></trkpt><trkpt lat="44.0718833" lon="11.3873817"><ele>721.0</ele><time>2026-04-18T10:40:50.729Z</time></trkpt><trkpt lat="44.07191" lon="11.3872733"><ele>721.0</ele><time>2026-04-18T10:40:51.729Z</time></trkpt><trkpt lat="44.07193" lon="11.3871817"><ele>721.0</ele><time>2026-04-18T10:40:52.729Z</time></trkpt><trkpt lat="44.0719667" lon="11.387075"><ele>721.0</ele><time>2026-04-18T10:40:54.728Z</time></trkpt><trkpt lat="44.072005" lon="11.3869967"><ele>721.0</ele><time>2026-04-18T10:40:56.729Z</time></trkpt><trkpt lat="44.07205" lon="11.386855"><ele>721.0</ele><time>2026-04-18T10:40:58.729Z</time></trkpt><trkpt lat="44.0720617" lon="11.3867333"><ele>721.0</ele><time>2026-04-18T10:41:00.729Z</time></trkpt><trkpt lat="44.0720433" lon="11.3866417"><ele>721.0</ele><time>2026-04-18T10:41:03.728Z</time></trkpt><trkpt lat="44.0719933" lon="11.386495"><ele>721.0</ele><time>2026-04-18T10:51:51.725Z</time></trkpt><trkpt lat="44.072005" lon="11.3864017"><ele>721.0</ele><time>2026-04-18T10:51:53.726Z</time></trkpt><trkpt lat="44.07199" lon="11.3862983"><ele>721.0</ele><time>2026-04-18T10:51:55.725Z</time></trkpt><trkpt lat="44.0719917" lon="11.3861617"><ele>721.0</ele><time>2026-04-18T10:51:58.726Z</time></trkpt><trkpt lat="44.0720333" lon="11.3860633"><ele>721.2857142857143</ele><time>2026-04-18T10:52:00.725Z</time></trkpt><trkpt lat="44.0720783" lon="11.3859967"><ele>721.5714285714286</ele><time>2026-04-18T10:52:02.725Z</time></trkpt><trkpt lat="44.0721533" lon="11.3859417"><ele>721.8571428571429</ele><time>2026-04-18T10:52:04.726Z</time></trkpt><trkpt lat="44.0722033" lon="11.3858433"><ele>722.1428571428571</ele><time>2026-04-18T10:52:06.725Z</time></trkpt><trkpt lat="44.0722333" lon="11.385765"><ele>722.4285714285714</ele><time>2026-04-18T10:52:07.725Z</time></trkpt><trkpt lat="44.07227" lon="11.38568"><ele>722.7142857142858</ele><time>2026-04-18T10:52:08.726Z</time></trkpt><trkpt lat="44.072315" lon="11.3856083"><ele>723.0</ele><time>2026-04-18T10:52:09.725Z</time></trkpt><trkpt lat="44.0723783" lon="11.3855433"><ele>726.0</ele><time>2026-04-18T10:52:10.725Z</time></trkpt><trkpt lat="44.0724467" lon="11.385495"><ele>729.0</ele><time>2026-04-18T10:52:11.725Z</time></trkpt><trkpt lat="44.0725483" lon="11.3854083"><ele>732.0</ele><time>2026-04-18T10:52:13.725Z</time></trkpt><trkpt lat="44.072615" lon="11.385305"><ele>735.0</ele><time>2026-04-18T10:52:15.726Z</time></trkpt><trkpt lat="44.0726667" lon="11.38521"><ele>738.0</ele><time>2026-04-18T10:52:17.726Z</time></trkpt><trkpt lat="44.0727167" lon="11.38509"><ele>738.0</ele><time>2026-04-18T10:52:19.725Z</time></trkpt><trkpt lat="44.0727717" lon="11.3849633"><ele>738.0</ele><time>2026-04-18T10:52:21.726Z</time></trkpt><trkpt lat="44.0728267" lon="11.384855"><ele>738.0</ele><time>2026-04-18T10:52:23.725Z</time></trkpt><trkpt lat="44.0729117" lon="11.3847133"><ele>738.0</ele><time>2026-04-18T10:52:25.725Z</time></trkpt><trkpt lat="44.0729667" lon="11.3846367"><ele>738.0</ele><time>2026-04-18T10:52:26.725Z</time></trkpt><trkpt lat="44.07303" lon="11.3845517"><ele>737.5999999999999</ele><time>2026-04-18T10:52:27.725Z</time></trkpt><trkpt lat="44.07309" lon="11.38447"><ele>737.1999999999999</ele><time>2026-04-18T10:52:28.725Z</time></trkpt><trkpt lat="44.0731617" lon="11.3843867"><ele>736.8</ele><time>2026-04-18T10:52:29.726Z</time></trkpt><trkpt lat="44.0732367" lon="11.3843067"><ele>736.4</ele><time>2026-04-18T10:52:30.726Z</time></trkpt><trkpt lat="44.0733183" lon="11.3842167"><ele>736.0</ele><time>2026-04-18T10:52:31.726Z</time></trkpt><trkpt lat="44.073385" lon="11.38414"><ele>736.0</ele><time>2026-04-18T10:52:32.725Z</time></trkpt><trkpt lat="44.0734567" lon="11.384075"><ele>736.0</ele><time>2026-04-18T10:52:33.726Z</time></trkpt><trkpt lat="44.073515" lon="11.38402"><ele>736.0</ele><time>2026-04-18T10:52:34.725Z</time></trkpt><trkpt lat="44.0736033" lon="11.38392"><ele>736.0</ele><time>2026-04-18T10:52:36.725Z</time></trkpt><trkpt lat="44.073665" lon="11.3838383"><ele>736.0</ele><time>2026-04-18T10:52:38.726Z</time></trkpt><trkpt lat="44.0737367" lon="11.3837883"><ele>736.0</ele><time>2026-04-18T10:52:40.725Z</time></trkpt><trkpt lat="44.0738417" lon="11.3836617"><ele>734.1666666666667</ele><time>2026-04-18T10:52:42.726Z</time></trkpt><trkpt lat="44.073885" lon="11.38359"><ele>732.3333333333334</ele><time>2026-04-18T10:52:43.726Z</time></trkpt><trkpt lat="44.0739283" lon="11.3835017"><ele>730.5</ele><time>2026-04-18T10:52:44.725Z</time></trkpt><trkpt lat="44.0739783" lon="11.3834117"><ele>728.6666666666666</ele><time>2026-04-18T10:52:45.725Z</time></trkpt><trkpt lat="44.07402" lon="11.3833083"><ele>726.8333333333333</ele><time>2026-04-18T10:52:46.726Z</time></trkpt><trkpt lat="44.0740683" lon="11.38321"><ele>725.0</ele><time>2026-04-18T10:52:47.726Z</time></trkpt><trkpt lat="44.074115" lon="11.383135"><ele>725.0</ele><time>2026-04-18T10:52:48.725Z</time></trkpt><trkpt lat="44.0742133" lon="11.3830633"><ele>725.0</ele><time>2026-04-18T10:52:50.726Z</time></trkpt><trkpt lat="44.0743283" lon="11.3830233"><ele>725.0</ele><time>2026-04-18T10:52:52.726Z</time></trkpt><trkpt lat="44.0744383" lon="11.3829383"><ele>725.0</ele><time>2026-04-18T10:52:54.724Z</time></trkpt><trkpt lat="44.0745033" lon="11.3827667"><ele>726.0</ele><time>2026-04-18T10:52:56.724Z</time></trkpt><trkpt lat="44.0745333" lon="11.3826617"><ele>727.0</ele><time>2026-04-18T10:52:57.725Z</time></trkpt><trkpt lat="44.0745617" lon="11.3825833"><ele>728.0</ele><time>2026-04-18T10:52:58.724Z</time></trkpt><trkpt lat="44.07461" lon="11.3824267"><ele>729.0</ele><time>2026-04-18T10:53:00.725Z</time></trkpt><trkpt lat="44.0746367" lon="11.382345"><ele>730.0</ele><time>2026-04-18T10:53:01.724Z</time></trkpt><trkpt lat="44.0746633" lon="11.38226"><ele>731.0</ele><time>2026-04-18T10:53:02.724Z</time></trkpt><trkpt lat="44.0747167" lon="11.3820833"><ele>731.1666666666666</ele><time>2026-04-18T10:53:04.724Z</time></trkpt><trkpt lat="44.07474" lon="11.3820017"><ele>731.3333333333333</ele><time>2026-04-18T10:53:05.724Z</time></trkpt><trkpt lat="44.0748017" lon="11.3818533"><ele>731.5</ele><time>2026-04-18T10:53:07.724Z</time></trkpt><trkpt lat="44.0748267" lon="11.3817633"><ele>731.6666666666666</ele><time>2026-04-18T10:53:08.725Z</time></trkpt><trkpt lat="44.0748483" lon="11.3816733"><ele>731.8333333333334</ele><time>2026-04-18T10:53:09.724Z</time></trkpt><trkpt lat="44.074865" lon="11.3815817"><ele>732.0</ele><time>2026-04-18T10:53:10.724Z</time></trkpt><trkpt lat="44.0749133" lon="11.3814317"><ele>730.1666666666666</ele><time>2026-04-18T10:53:12.724Z</time></trkpt><trkpt lat="44.075" lon="11.381325"><ele>728.3333333333334</ele><time>2026-04-18T10:53:14.725Z</time></trkpt><trkpt lat="44.07506" lon="11.381275"><ele>726.5</ele><time>2026-04-18T10:53:15.725Z</time></trkpt><trkpt lat="44.0751433" lon="11.3812"><ele>724.6666666666667</ele><time>2026-04-18T10:53:16.724Z</time></trkpt><trkpt lat="44.075215" lon="11.3811433"><ele>722.8333333333334</ele><time>2026-04-18T10:53:17.724Z</time></trkpt><trkpt lat="44.0752783" lon="11.3811"><ele>721.0</ele><time>2026-04-18T10:53:18.724Z</time></trkpt><trkpt lat="44.07534" lon="11.3810717"><ele>721.0</ele><time>2026-04-18T10:53:19.725Z</time></trkpt><trkpt lat="44.07542" lon="11.3810617"><ele>721.0</ele><time>2026-04-18T10:53:20.724Z</time></trkpt><trkpt lat="44.0755183" lon="11.3810683"><ele>721.0</ele><time>2026-04-18T10:53:21.724Z</time></trkpt><trkpt lat="44.0756333" lon="11.3810833"><ele>721.0</ele><time>2026-04-18T10:53:22.724Z</time></trkpt><trkpt lat="44.0757617" lon="11.3811117"><ele>721.0</ele><time>2026-04-18T10:53:23.724Z</time></trkpt><trkpt lat="44.0758783" lon="11.3811367"><ele>721.6666666666667</ele><time>2026-04-18T10:53:24.725Z</time></trkpt><trkpt lat="44.07597" lon="11.3811583"><ele>722.3333333333334</ele><time>2026-04-18T10:53:25.724Z</time></trkpt><trkpt lat="44.07604" lon="11.3811817"><ele>723.0</ele><time>2026-04-18T10:53:26.724Z</time></trkpt><trkpt lat="44.0761367" lon="11.3812"><ele>723.6666666666666</ele><time>2026-04-18T10:53:28.724Z</time></trkpt><trkpt lat="44.076165" lon="11.3811"><ele>724.3333333333333</ele><time>2026-04-18T10:53:31.724Z</time></trkpt><trkpt lat="44.0761317" lon="11.3809933"><ele>725.0</ele><time>2026-04-18T10:53:33.724Z</time></trkpt><trkpt lat="44.0760967" lon="11.3809"><ele>725.0</ele><time>2026-04-18T10:53:35.724Z</time></trkpt><trkpt lat="44.076075" lon="11.3808083"><ele>725.0</ele><time>2026-04-18T10:53:37.725Z</time></trkpt><trkpt lat="44.076055" lon="11.3807183"><ele>725.0</ele><time>2026-04-18T10:53:39.725Z</time></trkpt><trkpt lat="44.0760633" lon="11.3806267"><ele>725.0</ele><time>2026-04-18T10:53:41.724Z</time></trkpt><trkpt lat="44.07611" lon="11.380545"><ele>725.0</ele><time>2026-04-18T10:53:43.725Z</time></trkpt><trkpt lat="44.0761633" lon="11.3804617"><ele>725.0</ele><time>2026-04-18T10:53:45.724Z</time></trkpt><trkpt lat="44.0761333" lon="11.3803233"><ele>727.6</ele><time>2026-04-18T10:53:48.724Z</time></trkpt><trkpt lat="44.0760783" lon="11.3802233"><ele>730.2</ele><time>2026-04-18T10:53:50.725Z</time></trkpt><trkpt lat="44.0760267" lon="11.3801183"><ele>732.8</ele><time>2026-04-18T10:53:52.724Z</time></trkpt><trkpt lat="44.07596" lon="11.3799883"><ele>735.4</ele><time>2026-04-18T10:53:54.724Z</time></trkpt><trkpt lat="44.0759183" lon="11.379915"><ele>738.0</ele><time>2026-04-18T10:53:55.725Z</time></trkpt><trkpt lat="44.0758617" lon="11.3798017"><ele>738.8</ele><time>2026-04-18T10:53:57.724Z</time></trkpt><trkpt lat="44.0758567" lon="11.3796783"><ele>739.5999999999999</ele><time>2026-04-18T10:53:59.725Z</time></trkpt><trkpt lat="44.07589" lon="11.3795283"><ele>740.4000000000001</ele><time>2026-04-18T10:54:01.724Z</time></trkpt><trkpt lat="44.07593" lon="11.379385"><ele>741.2</ele><time>2026-04-18T10:54:03.724Z</time></trkpt><trkpt lat="44.0759317" lon="11.37925"><ele>742.0</ele><time>2026-04-18T10:54:05.724Z</time></trkpt><trkpt lat="44.0759233" lon="11.3791017"><ele>742.0</ele><time>2026-04-18T10:54:07.725Z</time></trkpt><trkpt lat="44.0759517" lon="11.3789367"><ele>742.0</ele><time>2026-04-18T10:54:09.725Z</time></trkpt><trkpt lat="44.075985" lon="11.3787883"><ele>742.0</ele><time>2026-04-18T10:54:11.724Z</time></trkpt><trkpt lat="44.0760317" lon="11.3786717"><ele>742.0</ele><time>2026-04-18T10:54:13.724Z</time></trkpt><trkpt lat="44.0760783" lon="11.3785467"><ele>742.0</ele><time>2026-04-18T10:54:15.724Z</time></trkpt><trkpt lat="44.076095" lon="11.37846"><ele>742.0</ele><time>2026-04-18T10:54:17.724Z</time></trkpt><trkpt lat="44.076095" lon="11.378345"><ele>742.0</ele><time>2026-04-18T10:54:20.724Z</time></trkpt><trkpt lat="44.076145" lon="11.378255"><ele>742.0</ele><time>2026-04-18T10:54:23.724Z</time></trkpt><trkpt lat="44.0762017" lon="11.37812"><ele>742.0</ele><time>2026-04-18T10:54:25.725Z</time></trkpt><trkpt lat="44.0762583" lon="11.37798"><ele>742.0</ele><time>2026-04-18T10:54:27.725Z</time></trkpt><trkpt lat="44.0763067" lon="11.3778783"><ele>744.0</ele><time>2026-04-18T10:54:29.724Z</time></trkpt><trkpt lat="44.076345" lon="11.3777683"><ele>746.0</ele><time>2026-04-18T10:54:55.725Z</time></trkpt><trkpt lat="44.076425" lon="11.377625"><ele>748.0</ele><time>2026-04-18T10:56:27.723Z</time></trkpt><trkpt lat="44.0764567" lon="11.3775433"><ele>750.0</ele><time>2026-04-18T10:56:29.723Z</time></trkpt><trkpt lat="44.0764883" lon="11.3774183"><ele>752.0</ele><time>2026-04-18T10:56:31.723Z</time></trkpt><trkpt lat="44.0764833" lon="11.377285"><ele>752.3333333333333</ele><time>2026-04-18T10:56:33.723Z</time></trkpt><trkpt lat="44.0764933" lon="11.3771433"><ele>752.6666666666666</ele><time>2026-04-18T10:56:35.723Z</time></trkpt><trkpt lat="44.0765133" lon="11.3770417"><ele>753.0</ele><time>2026-04-18T10:56:36.724Z</time></trkpt><trkpt lat="44.0765417" lon="11.376935"><ele>753.3333333333334</ele><time>2026-04-18T10:56:37.723Z</time></trkpt><trkpt lat="44.0765717" lon="11.3768317"><ele>753.6666666666667</ele><time>2026-04-18T10:56:38.724Z</time></trkpt><trkpt lat="44.0766017" lon="11.376735"><ele>754.0</ele><time>2026-04-18T10:56:39.723Z</time></trkpt><trkpt lat="44.07663" lon="11.376605"><ele>751.6666666666667</ele><time>2026-04-18T10:56:41.724Z</time></trkpt><trkpt lat="44.0766433" lon="11.3764883"><ele>749.3333333333334</ele><time>2026-04-18T10:56:44.724Z</time></trkpt><trkpt lat="44.0766733" lon="11.3764017"><ele>747.0</ele><time>2026-04-18T10:56:46.724Z</time></trkpt><trkpt lat="44.0767367" lon="11.37631"><ele>744.6666666666666</ele><time>2026-04-18T10:56:48.724Z</time></trkpt><trkpt lat="44.0767917" lon="11.3762383"><ele>742.3333333333333</ele><time>2026-04-18T10:56:50.723Z</time></trkpt><trkpt lat="44.0768283" lon="11.3761483"><ele>740.0</ele><time>2026-04-18T10:56:52.723Z</time></trkpt><trkpt lat="44.0768633" lon="11.37604"><ele>740.0</ele><time>2026-04-18T10:56:54.723Z</time></trkpt><trkpt lat="44.0768567" lon="11.375935"><ele>740.0</ele><time>2026-04-18T10:56:56.723Z</time></trkpt><trkpt lat="44.0768417" lon="11.375845"><ele>740.0</ele><time>2026-04-18T10:56:58.724Z</time></trkpt><trkpt lat="44.076825" lon="11.3757467"><ele>740.0</ele><time>2026-04-18T10:57:01.723Z</time></trkpt><trkpt lat="44.0768367" lon="11.3756283"><ele>740.0</ele><time>2026-04-18T10:57:04.723Z</time></trkpt><trkpt lat="44.0768483" lon="11.3754917"><ele>740.0</ele><time>2026-04-18T10:57:06.723Z</time></trkpt><trkpt lat="44.0768517" lon="11.3754017"><ele>742.2</ele><time>2026-04-18T10:57:07.723Z</time></trkpt><trkpt lat="44.07686" lon="11.3752083"><ele>744.4</ele><time>2026-04-18T10:57:09.723Z</time></trkpt><trkpt lat="44.07687" lon="11.3751017"><ele>746.5999999999999</ele><time>2026-04-18T10:57:10.724Z</time></trkpt><trkpt lat="44.0768817" lon="11.3750117"><ele>748.8</ele><time>2026-04-18T10:57:11.724Z</time></trkpt><trkpt lat="44.0769133" lon="11.3748617"><ele>751.0</ele><time>2026-04-18T10:57:13.723Z</time></trkpt><trkpt lat="44.0769567" lon="11.3747167"><ele>752.8</ele><time>2026-04-18T10:57:15.723Z</time></trkpt><trkpt lat="44.0769917" lon="11.3745683"><ele>754.5999999999999</ele><time>2026-04-18T10:57:17.723Z</time></trkpt><trkpt lat="44.0770317" lon="11.37444"><ele>756.4</ele><time>2026-04-18T10:57:19.723Z</time></trkpt><trkpt lat="44.0770883" lon="11.3743283"><ele>758.2</ele><time>2026-04-18T10:57:21.723Z</time></trkpt><trkpt lat="44.07714" lon="11.374265"><ele>760.0</ele><time>2026-04-18T10:57:23.724Z</time></trkpt><trkpt lat="44.07722" lon="11.3742217"><ele>760.0</ele><time>2026-04-18T10:57:26.723Z</time></trkpt><trkpt lat="44.0772683" lon="11.3742967"><ele>760.0</ele><time>2026-04-18T10:57:29.723Z</time></trkpt><trkpt lat="44.0773233" lon="11.3743983"><ele>760.0</ele><time>2026-04-18T10:57:32.724Z</time></trkpt><trkpt lat="44.0773817" lon="11.3744967"><ele>760.0</ele><time>2026-04-18T10:57:35.723Z</time></trkpt><trkpt lat="44.0774333" lon="11.3745717"><ele>760.0</ele><time>2026-04-18T10:57:37.723Z</time></trkpt><trkpt lat="44.0774867" lon="11.3746483"><ele>760.0</ele><time>2026-04-18T10:57:39.723Z</time></trkpt><trkpt lat="44.077545" lon="11.3747217"><ele>754.2</ele><time>2026-04-18T10:57:41.723Z</time></trkpt><trkpt lat="44.0776067" lon="11.3748017"><ele>748.4</ele><time>2026-04-18T10:57:43.724Z</time></trkpt><trkpt lat="44.0776967" lon="11.3749067"><ele>742.5999999999999</ele><time>2026-04-18T10:57:45.723Z</time></trkpt><trkpt lat="44.07777" lon="11.374995"><ele>736.8</ele><time>2026-04-18T10:57:47.724Z</time></trkpt><trkpt lat="44.0778467" lon="11.375085"><ele>731.0</ele><time>2026-04-18T10:57:49.723Z</time></trkpt><trkpt lat="44.077915" lon="11.3751317"><ele>731.0</ele><time>2026-04-18T10:57:51.723Z</time></trkpt><trkpt lat="44.07798" lon="11.3751283"><ele>731.0</ele><time>2026-04-18T10:57:53.724Z</time></trkpt><trkpt lat="44.078045" lon="11.375065"><ele>731.0</ele><time>2026-04-18T10:57:56.724Z</time></trkpt><trkpt lat="44.07806" lon="11.3749467"><ele>731.0</ele><time>2026-04-18T10:58:00.724Z</time></trkpt><trkpt lat="44.0780633" lon="11.3748567"><ele>731.0</ele><time>2026-04-18T10:58:02.724Z</time></trkpt><trkpt lat="44.0780833" lon="11.3747283"><ele>731.0</ele><time>2026-04-18T10:58:05.723Z</time></trkpt><trkpt lat="44.0781333" lon="11.3746333"><ele>731.5</ele><time>2026-04-18T10:58:08.723Z</time></trkpt><trkpt lat="44.0782067" lon="11.374565"><ele>732.0</ele><time>2026-04-18T10:58:11.723Z</time></trkpt><trkpt lat="44.078275" lon="11.3745117"><ele>732.5</ele><time>2026-04-18T10:58:14.724Z</time></trkpt><trkpt lat="44.0783167" lon="11.3744017"><ele>733.0</ele><time>2026-04-18T10:58:17.723Z</time></trkpt><trkpt lat="44.078325" lon="11.3742867"><ele>733.5</ele><time>2026-04-18T10:58:20.724Z</time></trkpt><trkpt lat="44.0783117" lon="11.3741917"><ele>734.0</ele><time>2026-04-18T10:58:22.723Z</time></trkpt><trkpt lat="44.0782917" lon="11.3740817"><ele>730.1428571428571</ele><time>2026-04-18T10:58:24.723Z</time></trkpt><trkpt lat="44.0783067" lon="11.373975"><ele>726.2857142857143</ele><time>2026-04-18T10:58:26.723Z</time></trkpt><trkpt lat="44.078345" lon="11.3738933"><ele>722.4285714285714</ele><time>2026-04-18T10:58:28.723Z</time></trkpt><trkpt lat="44.0784067" lon="11.3739217"><ele>718.5714285714286</ele><time>2026-04-18T10:58:31.723Z</time></trkpt><trkpt lat="44.07847" lon="11.3739767"><ele>714.7142857142858</ele><time>2026-04-18T10:58:34.723Z</time></trkpt><trkpt lat="44.07854" lon="11.3740283"><ele>710.8571428571429</ele><time>2026-04-18T10:58:36.722Z</time></trkpt><trkpt lat="44.078605" lon="11.37406"><ele>707.0</ele><time>2026-04-18T10:58:38.722Z</time></trkpt><trkpt lat="44.0786867" lon="11.3740383"><ele>707.0</ele><time>2026-04-18T10:58:41.722Z</time></trkpt><trkpt lat="44.0787883" lon="11.3739933"><ele>707.0</ele><time>2026-04-18T10:58:44.723Z</time></trkpt><trkpt lat="44.078905" lon="11.3739533"><ele>707.0</ele><time>2026-04-18T10:58:46.723Z</time></trkpt><trkpt lat="44.0789683" lon="11.3739267"><ele>707.0</ele><time>2026-04-18T10:58:47.722Z</time></trkpt><trkpt lat="44.0790467" lon="11.3739033"><ele>707.0</ele><time>2026-04-18T10:58:48.722Z</time></trkpt><trkpt lat="44.0791117" lon="11.37387"><ele>707.0</ele><time>2026-04-18T10:58:49.723Z</time></trkpt><trkpt lat="44.0792083" lon="11.3738167"><ele>708.4285714285714</ele><time>2026-04-18T10:58:51.722Z</time></trkpt><trkpt lat="44.0792733" lon="11.3737983"><ele>709.8571428571429</ele><time>2026-04-18T10:58:53.723Z</time></trkpt><trkpt lat="44.079335" lon="11.3738483"><ele>711.2857142857142</ele><time>2026-04-18T10:58:55.722Z</time></trkpt><trkpt lat="44.0794033" lon="11.37389"><ele>712.7142857142858</ele><time>2026-04-18T10:58:57.722Z</time></trkpt><trkpt lat="44.0794917" lon="11.3739167"><ele>714.1428571428571</ele><time>2026-04-18T10:58:59.723Z</time></trkpt><trkpt lat="44.079555" lon="11.37393"><ele>715.5714285714286</ele><time>2026-04-18T10:59:00.722Z</time></trkpt><trkpt lat="44.0796183" lon="11.3739433"><ele>717.0</ele><time>2026-04-18T10:59:01.722Z</time></trkpt><trkpt lat="44.0797117" lon="11.3739767"><ele>712.8</ele><time>2026-04-18T10:59:03.722Z</time></trkpt><trkpt lat="44.079795" lon="11.3739867"><ele>708.6</ele><time>2026-04-18T10:59:05.723Z</time></trkpt><trkpt lat="44.079915" lon="11.37396"><ele>704.4</ele><time>2026-04-18T10:59:07.722Z</time></trkpt><trkpt lat="44.0800033" lon="11.3739533"><ele>700.1999999999999</ele><time>2026-04-18T10:59:08.722Z</time></trkpt><trkpt lat="44.0800867" lon="11.3739483"><ele>696.0</ele><time>2026-04-18T10:59:09.723Z</time></trkpt><trkpt lat="44.0801617" lon="11.3739417"><ele>694.8</ele><time>2026-04-18T10:59:10.722Z</time></trkpt><trkpt lat="44.0802283" lon="11.373935"><ele>693.5999999999999</ele><time>2026-04-18T10:59:11.722Z</time></trkpt><trkpt lat="44.08032" lon="11.373935"><ele>692.4</ele><time>2026-04-18T10:59:13.722Z</time></trkpt><trkpt lat="44.0804067" lon="11.3739033"><ele>691.2</ele><time>2026-04-18T10:59:15.722Z</time></trkpt><trkpt lat="44.0804967" lon="11.3738267"><ele>690.0</ele><time>2026-04-18T10:59:17.723Z</time></trkpt><trkpt lat="44.0805817" lon="11.3736983"><ele>690.8333333333334</ele><time>2026-04-18T10:59:19.722Z</time></trkpt><trkpt lat="44.0806383" lon="11.3735983"><ele>691.6666666666666</ele><time>2026-04-18T10:59:21.723Z</time></trkpt><trkpt lat="44.0806883" lon="11.3735267"><ele>692.5</ele><time>2026-04-18T10:59:23.723Z</time></trkpt><trkpt lat="44.08077" lon="11.373465"><ele>693.3333333333333</ele><time>2026-04-18T10:59:26.722Z</time></trkpt><trkpt lat="44.0808333" lon="11.3734717"><ele>694.1666666666666</ele><time>2026-04-18T10:59:28.722Z</time></trkpt><trkpt lat="44.0809367" lon="11.3734833"><ele>695.0</ele><time>2026-04-18T11:00:23.723Z</time></trkpt><trkpt lat="44.08102" lon="11.3735133"><ele>695.0</ele><time>2026-04-18T11:00:25.722Z</time></trkpt><trkpt lat="44.0811317" lon="11.3735483"><ele>695.0</ele><time>2026-04-18T11:00:27.722Z</time></trkpt><trkpt lat="44.08126" lon="11.3735367"><ele>695.0</ele><time>2026-04-18T11:00:29.723Z</time></trkpt><trkpt lat="44.0813333" lon="11.37351"><ele>695.0</ele><time>2026-04-18T11:00:30.722Z</time></trkpt><trkpt lat="44.0813967" lon="11.3734883"><ele>695.0</ele><time>2026-04-18T11:00:31.722Z</time></trkpt><trkpt lat="44.0814583" lon="11.3734467"><ele>695.0</ele><time>2026-04-18T11:00:32.722Z</time></trkpt><trkpt lat="44.0815167" lon="11.373405"><ele>695.0</ele><time>2026-04-18T11:00:33.723Z</time></trkpt><trkpt lat="44.081625" lon="11.3733417"><ele>695.0</ele><time>2026-04-18T11:00:35.723Z</time></trkpt><trkpt lat="44.0817133" lon="11.3732917"><ele>695.0</ele><time>2026-04-18T11:00:37.722Z</time></trkpt><trkpt lat="44.081805" lon="11.3732733"><ele>695.0</ele><time>2026-04-18T11:00:39.723Z</time></trkpt><trkpt lat="44.08188" lon="11.3732117"><ele>692.4</ele><time>2026-04-18T11:00:41.723Z</time></trkpt><trkpt lat="44.08196" lon="11.373135"><ele>689.8</ele><time>2026-04-18T11:00:43.722Z</time></trkpt><trkpt lat="44.08208" lon="11.3730983"><ele>687.2</ele><time>2026-04-18T11:00:45.722Z</time></trkpt><trkpt lat="44.0821583" lon="11.3730917"><ele>684.6</ele><time>2026-04-18T11:00:46.722Z</time></trkpt><trkpt lat="44.0822567" lon="11.37309"><ele>682.0</ele><time>2026-04-18T11:00:47.722Z</time></trkpt><trkpt lat="44.0823733" lon="11.37309"><ele>679.5</ele><time>2026-04-18T11:00:48.723Z</time></trkpt><trkpt lat="44.0824867" lon="11.3731017"><ele>677.0</ele><time>2026-04-18T11:00:49.722Z</time></trkpt><trkpt lat="44.082585" lon="11.373125"><ele>674.5</ele><time>2026-04-18T11:00:50.722Z</time></trkpt><trkpt lat="44.0826567" lon="11.3731567"><ele>672.0</ele><time>2026-04-18T11:00:51.722Z</time></trkpt><trkpt lat="44.0827117" lon="11.3732167"><ele>669.5</ele><time>2026-04-18T11:00:52.723Z</time></trkpt><trkpt lat="44.0827667" lon="11.3732667"><ele>667.0</ele><time>2026-04-18T11:00:53.722Z</time></trkpt><trkpt lat="44.0828667" lon="11.373345"><ele>667.0</ele><time>2026-04-18T11:00:55.722Z</time></trkpt><trkpt lat="44.0829433" lon="11.37343"><ele>667.0</ele><time>2026-04-18T11:00:57.723Z</time></trkpt><trkpt lat="44.083" lon="11.3735267"><ele>667.0</ele><time>2026-04-18T11:00:59.722Z</time></trkpt><trkpt lat="44.08307" lon="11.3736167"><ele>667.0</ele><time>2026-04-18T11:01:01.722Z</time></trkpt><trkpt lat="44.0831683" lon="11.3736717"><ele>667.0</ele><time>2026-04-18T11:01:03.722Z</time></trkpt><trkpt lat="44.0832633" lon="11.37366"><ele>666.4000000000001</ele><time>2026-04-18T11:01:05.722Z</time></trkpt><trkpt lat="44.0833583" lon="11.373665"><ele>665.8000000000001</ele><time>2026-04-18T11:01:07.722Z</time></trkpt><trkpt lat="44.0834483" lon="11.3736833"><ele>665.2</ele><time>2026-04-18T11:01:09.722Z</time></trkpt><trkpt lat="44.08353" lon="11.3736667"><ele>664.6</ele><time>2026-04-18T11:01:11.722Z</time></trkpt><trkpt lat="44.083635" lon="11.3735883"><ele>664.0</ele><time>2026-04-18T11:01:13.723Z</time></trkpt><trkpt lat="44.0837017" lon="11.3735233"><ele>664.0</ele><time>2026-04-18T11:01:14.722Z</time></trkpt><trkpt lat="44.0837617" lon="11.3734517"><ele>664.0</ele><time>2026-04-18T11:01:15.722Z</time></trkpt><trkpt lat="44.0838117" lon="11.3733883"><ele>664.0</ele><time>2026-04-18T11:01:16.722Z</time></trkpt><trkpt lat="44.08386" lon="11.3733267"><ele>664.0</ele><time>2026-04-18T11:01:17.722Z</time></trkpt><trkpt lat="44.0839283" lon="11.3731883"><ele>664.0</ele><time>2026-04-18T11:01:19.722Z</time></trkpt><trkpt lat="44.083965" lon="11.3730533"><ele>664.0</ele><time>2026-04-18T11:01:21.722Z</time></trkpt><trkpt lat="44.0839583" lon="11.3729383"><ele>663.5</ele><time>2026-04-18T11:01:23.723Z</time></trkpt><trkpt lat="44.0839267" lon="11.3728517"><ele>663.0</ele><time>2026-04-18T11:01:25.723Z</time></trkpt><trkpt lat="44.0838417" lon="11.3727767"><ele>662.5</ele><time>2026-04-18T11:01:27.722Z</time></trkpt><trkpt lat="44.0837533" lon="11.3726917"><ele>662.0</ele><time>2026-04-18T11:01:29.721Z</time></trkpt><trkpt lat="44.0837" lon="11.372635"><ele>661.5</ele><time>2026-04-18T11:01:30.722Z</time></trkpt><trkpt lat="44.0836283" lon="11.37255"><ele>661.0</ele><time>2026-04-18T11:01:32.722Z</time></trkpt><trkpt lat="44.0835733" lon="11.37242"><ele>661.0</ele><time>2026-04-18T11:01:35.721Z</time></trkpt><trkpt lat="44.083575" lon="11.3722983"><ele>661.0</ele><time>2026-04-18T11:01:37.721Z</time></trkpt><trkpt lat="44.08367" lon="11.3722083"><ele>661.0</ele><time>2026-04-18T11:01:39.721Z</time></trkpt><trkpt lat="44.0837883" lon="11.3721583"><ele>661.0</ele><time>2026-04-18T11:01:41.722Z</time></trkpt><trkpt lat="44.0838983" lon="11.3721417"><ele>661.0</ele><time>2026-04-18T11:01:43.721Z</time></trkpt><trkpt lat="44.0840017" lon="11.372125"><ele>661.8333333333334</ele><time>2026-04-18T11:01:45.721Z</time></trkpt><trkpt lat="44.08412" lon="11.3721267"><ele>662.6666666666667</ele><time>2026-04-18T11:01:47.721Z</time></trkpt><trkpt lat="44.0841833" lon="11.3721333"><ele>663.5</ele><time>2026-04-18T11:01:48.722Z</time></trkpt><trkpt lat="44.0842517" lon="11.372125"><ele>664.3333333333334</ele><time>2026-04-18T11:01:49.721Z</time></trkpt><trkpt lat="44.0843367" lon="11.37211"><ele>665.1666666666666</ele><time>2026-04-18T11:01:51.722Z</time></trkpt><trkpt lat="44.08442" lon="11.3721633"><ele>666.0</ele><time>2026-04-18T11:04:03.722Z</time></trkpt><trkpt lat="44.08452" lon="11.3721417"><ele>666.0</ele><time>2026-04-18T11:04:05.721Z</time></trkpt><trkpt lat="44.0846117" lon="11.3720333"><ele>666.0</ele><time>2026-04-18T11:04:07.721Z</time></trkpt><trkpt lat="44.0846533" lon="11.37194"><ele>666.0</ele><time>2026-04-18T11:04:08.722Z</time></trkpt><trkpt lat="44.0846933" lon="11.3718467"><ele>666.0</ele><time>2026-04-18T11:04:09.722Z</time></trkpt><trkpt lat="44.0847367" lon="11.3717433"><ele>666.0</ele><time>2026-04-18T11:04:10.721Z</time></trkpt><trkpt lat="44.0847783" lon="11.371625"><ele>666.0</ele><time>2026-04-18T11:04:11.721Z</time></trkpt><trkpt lat="44.0848217" lon="11.37151"><ele>666.0</ele><time>2026-04-18T11:04:12.721Z</time></trkpt><trkpt lat="44.08486" lon="11.3713883"><ele>666.0</ele><time>2026-04-18T11:04:13.722Z</time></trkpt><trkpt lat="44.0849" lon="11.37129"><ele>666.0</ele><time>2026-04-18T11:04:14.721Z</time></trkpt><trkpt lat="44.0849567" lon="11.3711833"><ele>666.0</ele><time>2026-04-18T11:04:15.722Z</time></trkpt><trkpt lat="44.08502" lon="11.371085"><ele>669.8</ele><time>2026-04-18T11:04:16.721Z</time></trkpt><trkpt lat="44.085085" lon="11.3710033"><ele>673.5999999999999</ele><time>2026-04-18T11:04:17.721Z</time></trkpt><trkpt lat="44.0851633" lon="11.37093"><ele>677.4</ele><time>2026-04-18T11:04:18.721Z</time></trkpt><trkpt lat="44.085255" lon="11.370855"><ele>681.2</ele><time>2026-04-18T11:04:19.721Z</time></trkpt><trkpt lat="44.0853383" lon="11.3708"><ele>685.0</ele><time>2026-04-18T11:04:20.722Z</time></trkpt><trkpt lat="44.0854167" lon="11.3707667"><ele>685.0</ele><time>2026-04-18T11:04:21.721Z</time></trkpt><trkpt lat="44.0854917" lon="11.3707483"><ele>685.0</ele><time>2026-04-18T11:04:22.72Z</time></trkpt><trkpt lat="44.0855633" lon="11.37074"><ele>685.0</ele><time>2026-04-18T11:04:23.721Z</time></trkpt><trkpt lat="44.085635" lon="11.3707417"><ele>685.0</ele><time>2026-04-18T11:04:24.72Z</time></trkpt><trkpt lat="44.0857133" lon="11.3707533"><ele>685.0</ele><time>2026-04-18T11:04:25.721Z</time></trkpt><trkpt lat="44.0857767" lon="11.3707733"><ele>685.0</ele><time>2026-04-18T11:04:26.72Z</time></trkpt><trkpt lat="44.085895" lon="11.370805"><ele>681.0</ele><time>2026-04-18T11:04:28.72Z</time></trkpt><trkpt lat="44.0860067" lon="11.3708167"><ele>677.0</ele><time>2026-04-18T11:04:30.72Z</time></trkpt><trkpt lat="44.0860717" lon="11.3708"><ele>673.0</ele><time>2026-04-18T11:04:31.72Z</time></trkpt><trkpt lat="44.0861467" lon="11.370765"><ele>669.0</ele><time>2026-04-18T11:04:32.72Z</time></trkpt><trkpt lat="44.0862267" lon="11.3707283"><ele>665.0</ele><time>2026-04-18T11:04:33.72Z</time></trkpt><trkpt lat="44.086325" lon="11.37069"><ele>661.0</ele><time>2026-04-18T11:04:34.72Z</time></trkpt><trkpt lat="44.086455" lon="11.3706517"><ele>659.5</ele><time>2026-04-18T11:04:35.72Z</time></trkpt><trkpt lat="44.0865967" lon="11.3706117"><ele>658.0</ele><time>2026-04-18T11:04:36.721Z</time></trkpt><trkpt lat="44.0867333" lon="11.370595"><ele>656.5</ele><time>2026-04-18T11:04:37.72Z</time></trkpt><trkpt lat="44.0868617" lon="11.3706133"><ele>655.0</ele><time>2026-04-18T11:04:38.72Z</time></trkpt><trkpt lat="44.0869783" lon="11.370645"><ele>655.0</ele><time>2026-04-18T11:04:39.721Z</time></trkpt><trkpt lat="44.0870617" lon="11.3706917"><ele>655.0</ele><time>2026-04-18T11:04:40.721Z</time></trkpt><trkpt lat="44.0871167" lon="11.3707467"><ele>655.0</ele><time>2026-04-18T11:04:41.72Z</time></trkpt><trkpt lat="44.087155" lon="11.3708183"><ele>655.0</ele><time>2026-04-18T11:04:42.72Z</time></trkpt><trkpt lat="44.0871867" lon="11.3709033"><ele>655.0</ele><time>2026-04-18T11:04:43.72Z</time></trkpt><trkpt lat="44.087225" lon="11.370995"><ele>655.0</ele><time>2026-04-18T11:04:44.72Z</time></trkpt><trkpt lat="44.0872667" lon="11.3710833"><ele>655.0</ele><time>2026-04-18T11:04:45.72Z</time></trkpt><trkpt lat="44.0873067" lon="11.3711683"><ele>655.0</ele><time>2026-04-18T11:04:46.72Z</time></trkpt><trkpt lat="44.0873517" lon="11.3712317"><ele>655.0</ele><time>2026-04-18T11:04:47.72Z</time></trkpt><trkpt lat="44.0874317" lon="11.3712767"><ele>655.0</ele><time>2026-04-18T11:04:49.72Z</time></trkpt><trkpt lat="44.0875167" lon="11.3711967"><ele>655.0</ele><time>2026-04-18T11:04:51.72Z</time></trkpt><trkpt lat="44.0875717" lon="11.3711167"><ele>655.0</ele><time>2026-04-18T11:04:52.72Z</time></trkpt><trkpt lat="44.0876367" lon="11.3710183"><ele>655.0</ele><time>2026-04-18T11:04:53.72Z</time></trkpt><trkpt lat="44.0877167" lon="11.37091"><ele>657.25</ele><time>2026-04-18T11:04:54.72Z</time></trkpt><trkpt lat="44.0878117" lon="11.370795"><ele>659.5</ele><time>2026-04-18T11:04:55.721Z</time></trkpt><trkpt lat="44.0879217" lon="11.37067"><ele>661.75</ele><time>2026-04-18T11:04:56.72Z</time></trkpt><trkpt lat="44.0880183" lon="11.370545"><ele>664.0</ele><time>2026-04-18T11:04:57.72Z</time></trkpt><trkpt lat="44.0880817" lon="11.3704317"><ele>665.2</ele><time>2026-04-18T11:04:58.72Z</time></trkpt><trkpt lat="44.0881233" lon="11.3703133"><ele>666.4000000000001</ele><time>2026-04-18T11:04:59.72Z</time></trkpt><trkpt lat="44.0881333" lon="11.3701967"><ele>667.6</ele><time>2026-04-18T11:05:00.721Z</time></trkpt><trkpt lat="44.0881233" lon="11.3700717"><ele>668.8</ele><time>2026-04-18T11:05:01.721Z</time></trkpt><trkpt lat="44.0880867" lon="11.3699367"><ele>670.0</ele><time>2026-04-18T11:05:02.72Z</time></trkpt><trkpt lat="44.088035" lon="11.3698133"><ele>670.0</ele><time>2026-04-18T11:05:03.721Z</time></trkpt><trkpt lat="44.08797" lon="11.369695"><ele>670.0</ele><time>2026-04-18T11:05:04.72Z</time></trkpt><trkpt lat="44.087935" lon="11.3695817"><ele>670.0</ele><time>2026-04-18T11:05:05.72Z</time></trkpt><trkpt lat="44.0879383" lon="11.3694933"><ele>670.0</ele><time>2026-04-18T11:05:06.72Z</time></trkpt><trkpt lat="44.0880333" lon="11.3694217"><ele>670.0</ele><time>2026-04-18T11:05:08.72Z</time></trkpt><trkpt lat="44.0881" lon="11.3694567"><ele>670.0</ele><time>2026-04-18T11:05:09.721Z</time></trkpt><trkpt lat="44.0881933" lon="11.3695367"><ele>672.0</ele><time>2026-04-18T11:05:10.721Z</time></trkpt><trkpt lat="44.08831" lon="11.36965"><ele>674.0</ele><time>2026-04-18T11:05:11.72Z</time></trkpt><trkpt lat="44.08842" lon="11.3697217"><ele>676.0</ele><time>2026-04-18T11:05:12.72Z</time></trkpt><trkpt lat="44.088525" lon="11.369735"><ele>678.0</ele><time>2026-04-18T11:05:13.721Z</time></trkpt><trkpt lat="44.08862" lon="11.3696817"><ele>680.5</ele><time>2026-04-18T11:05:14.72Z</time></trkpt><trkpt lat="44.0887333" lon="11.3695883"><ele>683.0</ele><time>2026-04-18T11:05:15.72Z</time></trkpt><trkpt lat="44.0888517" lon="11.3694617"><ele>685.5</ele><time>2026-04-18T11:05:16.721Z</time></trkpt><trkpt lat="44.08895" lon="11.3693583"><ele>688.0</ele><time>2026-04-18T11:05:17.72Z</time></trkpt><trkpt lat="44.089035" lon="11.36926"><ele>687.75</ele><time>2026-04-18T11:05:18.72Z</time></trkpt><trkpt lat="44.08911" lon="11.369135"><ele>687.5</ele><time>2026-04-18T11:05:19.72Z</time></trkpt><trkpt lat="44.0891783" lon="11.3689967"><ele>687.25</ele><time>2026-04-18T11:05:20.72Z</time></trkpt><trkpt lat="44.0892317" lon="11.368825"><ele>687.0</ele><time>2026-04-18T11:05:21.721Z</time></trkpt><trkpt lat="44.0892867" lon="11.3686533"><ele>690.0</ele><time>2026-04-18T11:05:22.72Z</time></trkpt><trkpt lat="44.0893217" lon="11.3684433"><ele>693.0</ele><time>2026-04-18T11:05:23.721Z</time></trkpt><trkpt lat="44.0893717" lon="11.368255"><ele>696.0</ele><time>2026-04-18T11:05:24.721Z</time></trkpt><trkpt lat="44.0894367" lon="11.368085"><ele>699.0</ele><time>2026-04-18T11:05:25.72Z</time></trkpt><trkpt lat="44.0894933" lon="11.367945"><ele>700.8000000000001</ele><time>2026-04-18T11:05:26.72Z</time></trkpt><trkpt lat="44.0895217" lon="11.3678017"><ele>702.6</ele><time>2026-04-18T11:05:27.72Z</time></trkpt><trkpt lat="44.0895167" lon="11.3676633"><ele>704.4</ele><time>2026-04-18T11:05:28.72Z</time></trkpt><trkpt lat="44.0894817" lon="11.3675617"><ele>706.2</ele><time>2026-04-18T11:05:29.721Z</time></trkpt><trkpt lat="44.0894283" lon="11.3674733"><ele>708.0</ele><time>2026-04-18T11:05:30.721Z</time></trkpt><trkpt lat="44.0893517" lon="11.367395"><ele>708.0</ele><time>2026-04-18T11:05:31.721Z</time></trkpt><trkpt lat="44.0892933" lon="11.3672933"><ele>708.0</ele><time>2026-04-18T11:05:32.72Z</time></trkpt><trkpt lat="44.08926" lon="11.367155"><ele>708.0</ele><time>2026-04-18T11:05:33.721Z</time></trkpt><trkpt lat="44.089245" lon="11.3670067"><ele>708.0</ele><time>2026-04-18T11:05:34.72Z</time></trkpt><trkpt lat="44.08923" lon="11.3668483"><ele>708.0</ele><time>2026-04-18T11:05:35.72Z</time></trkpt><trkpt lat="44.0892283" lon="11.3666967"><ele>709.4</ele><time>2026-04-18T11:05:36.72Z</time></trkpt><trkpt lat="44.0892233" lon="11.3665417"><ele>710.8</ele><time>2026-04-18T11:05:37.72Z</time></trkpt><trkpt lat="44.0892333" lon="11.3663933"><ele>712.2</ele><time>2026-04-18T11:05:38.72Z</time></trkpt><trkpt lat="44.0892617" lon="11.3662483"><ele>713.6</ele><time>2026-04-18T11:05:39.72Z</time></trkpt><trkpt lat="44.0892917" lon="11.36612"><ele>715.0</ele><time>2026-04-18T11:05:40.72Z</time></trkpt><trkpt lat="44.0893083" lon="11.3659967"><ele>716.4</ele><time>2026-04-18T11:05:41.721Z</time></trkpt><trkpt lat="44.0893033" lon="11.365865"><ele>717.8</ele><time>2026-04-18T11:05:42.721Z</time></trkpt><trkpt lat="44.0892783" lon="11.3657467"><ele>719.2</ele><time>2026-04-18T11:05:43.72Z</time></trkpt><trkpt lat="44.089245" lon="11.3656133"><ele>720.6</ele><time>2026-04-18T11:05:44.72Z</time></trkpt><trkpt lat="44.0892083" lon="11.3654367"><ele>722.0</ele><time>2026-04-18T11:05:45.72Z</time></trkpt><trkpt lat="44.0891883" lon="11.3652433"><ele>725.5</ele><time>2026-04-18T11:05:46.721Z</time></trkpt><trkpt lat="44.0891867" lon="11.3650317"><ele>729.0</ele><time>2026-04-18T11:05:47.72Z</time></trkpt><trkpt lat="44.08918" lon="11.3648517"><ele>732.5</ele><time>2026-04-18T11:05:48.72Z</time></trkpt><trkpt lat="44.089185" lon="11.3646983"><ele>736.0</ele><time>2026-04-18T11:05:49.72Z</time></trkpt><trkpt lat="44.0892217" lon="11.3645567"><ele>738.5</ele><time>2026-04-18T11:05:50.721Z</time></trkpt><trkpt lat="44.0892883" lon="11.3644217"><ele>741.0</ele><time>2026-04-18T11:05:51.72Z</time></trkpt><trkpt lat="44.089395" lon="11.36431"><ele>743.5</ele><time>2026-04-18T11:05:52.72Z</time></trkpt><trkpt lat="44.0895183" lon="11.364235"><ele>746.0</ele><time>2026-04-18T11:05:53.72Z</time></trkpt><trkpt lat="44.0896517" lon="11.364165"><ele>746.0</ele><time>2026-04-18T11:05:54.72Z</time></trkpt><trkpt lat="44.0897583" lon="11.3640667"><ele>746.0</ele><time>2026-04-18T11:05:55.72Z</time></trkpt><trkpt lat="44.0898583" lon="11.363945"><ele>746.0</ele><time>2026-04-18T11:05:56.72Z</time></trkpt><trkpt lat="44.0899167" lon="11.3638183"><ele>746.0</ele><time>2026-04-18T11:05:57.721Z</time></trkpt><trkpt lat="44.0899317" lon="11.3636933"><ele>746.6666666666666</ele><time>2026-04-18T11:05:58.721Z</time></trkpt><trkpt lat="44.08992" lon="11.36358"><ele>747.3333333333333</ele><time>2026-04-18T11:05:59.72Z</time></trkpt><trkpt lat="44.0898933" lon="11.363495"><ele>748.0</ele><time>2026-04-18T11:06:00.721Z</time></trkpt><trkpt lat="44.0898267" lon="11.3634617"><ele>748.6666666666666</ele><time>2026-04-18T11:06:02.72Z</time></trkpt><trkpt lat="44.08977" lon="11.3635117"><ele>749.3333333333334</ele><time>2026-04-18T11:06:11.72Z</time></trkpt><trkpt lat="44.0896567" lon="11.3635633"><ele>750.0</ele><time>2026-04-18T11:06:13.721Z</time></trkpt><trkpt lat="44.0895367" lon="11.363585"><ele>750.0</ele><time>2026-04-18T11:06:15.72Z</time></trkpt><trkpt lat="44.0894517" lon="11.3636267"><ele>750.0</ele><time>2026-04-18T11:06:17.72Z</time></trkpt><trkpt lat="44.0893817" lon="11.363695"><ele>750.0</ele><time>2026-04-18T11:06:19.72Z</time></trkpt><trkpt lat="44.0893083" lon="11.3637817"><ele>750.0</ele><time>2026-04-18T11:06:21.721Z</time></trkpt><trkpt lat="44.0892567" lon="11.3638383"><ele>750.0</ele><time>2026-04-18T11:06:22.72Z</time></trkpt><trkpt lat="44.0891983" lon="11.3638883"><ele>750.0</ele><time>2026-04-18T11:06:23.72Z</time></trkpt><trkpt lat="44.08914" lon="11.3639333"><ele>755.4</ele><time>2026-04-18T11:06:24.72Z</time></trkpt><trkpt lat="44.08902" lon="11.36399"><ele>760.8</ele><time>2026-04-18T11:06:26.721Z</time></trkpt><trkpt lat="44.0889267" lon="11.3639967"><ele>766.2</ele><time>2026-04-18T11:06:28.721Z</time></trkpt><trkpt lat="44.088855" lon="11.3639383"><ele>771.6</ele><time>2026-04-18T11:06:30.72Z</time></trkpt><trkpt lat="44.0888133" lon="11.36387"><ele>777.0</ele><time>2026-04-18T11:06:31.721Z</time></trkpt><trkpt lat="44.08876" lon="11.363715"><ele>777.0</ele><time>2026-04-18T11:06:33.72Z</time></trkpt><trkpt lat="44.08873" lon="11.363555"><ele>777.0</ele><time>2026-04-18T11:06:35.72Z</time></trkpt><trkpt lat="44.0886967" lon="11.3634267"><ele>777.0</ele><time>2026-04-18T11:06:37.72Z</time></trkpt><trkpt lat="44.08865" lon="11.3633217"><ele>777.0</ele><time>2026-04-18T11:06:39.72Z</time></trkpt><trkpt lat="44.0886" lon="11.36322"><ele>777.0</ele><time>2026-04-18T11:06:41.72Z</time></trkpt><trkpt lat="44.08855" lon="11.3631217"><ele>777.0</ele><time>2026-04-18T11:06:43.721Z</time></trkpt><trkpt lat="44.0884833" lon="11.363075"><ele>777.0</ele><time>2026-04-18T11:06:45.72Z</time></trkpt><trkpt lat="44.0884117" lon="11.36309"><ele>777.0</ele><time>2026-04-18T11:06:47.72Z</time></trkpt><trkpt lat="44.08832" lon="11.3631317"><ele>777.0</ele><time>2026-04-18T11:06:49.72Z</time></trkpt><trkpt lat="44.088245" lon="11.3631467"><ele>777.0</ele><time>2026-04-18T11:06:51.72Z</time></trkpt><trkpt lat="44.0881867" lon="11.3632433"><ele>777.0</ele><time>2026-04-18T11:06:53.72Z</time></trkpt><trkpt lat="44.088155" lon="11.3633217"><ele>775.8333333333334</ele><time>2026-04-18T11:06:54.72Z</time></trkpt><trkpt lat="44.088115" lon="11.3634067"><ele>774.6666666666667</ele><time>2026-04-18T11:06:55.72Z</time></trkpt><trkpt lat="44.0880717" lon="11.3635067"><ele>773.5</ele><time>2026-04-18T11:06:56.721Z</time></trkpt><trkpt lat="44.08804" lon="11.3636083"><ele>772.3333333333334</ele><time>2026-04-18T11:06:57.721Z</time></trkpt><trkpt lat="44.0880133" lon="11.36371"><ele>771.1666666666667</ele><time>2026-04-18T11:06:58.72Z</time></trkpt><trkpt lat="44.0879867" lon="11.3638033"><ele>770.0</ele><time>2026-04-18T11:06:59.72Z</time></trkpt><trkpt lat="44.087935" lon="11.3639333"><ele>773.4</ele><time>2026-04-18T11:07:01.721Z</time></trkpt><trkpt lat="44.0879117" lon="11.3640433"><ele>776.8</ele><time>2026-04-18T11:07:03.72Z</time></trkpt><trkpt lat="44.0879" lon="11.364205"><ele>780.2</ele><time>2026-04-18T11:07:05.72Z</time></trkpt><trkpt lat="44.0878917" lon="11.36434"><ele>783.6</ele><time>2026-04-18T11:07:07.72Z</time></trkpt><trkpt lat="44.0878617" lon="11.364455"><ele>787.0</ele><time>2026-04-18T11:07:09.72Z</time></trkpt><trkpt lat="44.08781" lon="11.3645717"><ele>786.9999999999999</ele><time>2026-04-18T11:07:11.719Z</time></trkpt><trkpt lat="44.08771" lon="11.36466"><ele>787.0</ele><time>2026-04-18T11:07:13.719Z</time></trkpt><trkpt lat="44.0876483" lon="11.3646833"><ele>787.0</ele><time>2026-04-18T11:07:14.72Z</time></trkpt><trkpt lat="44.0875767" lon="11.3647083"><ele>787.0</ele><time>2026-04-18T11:07:15.719Z</time></trkpt><trkpt lat="44.0874933" lon="11.3647583"><ele>786.9999999999999</ele><time>2026-04-18T11:07:16.72Z</time></trkpt><trkpt lat="44.087415" lon="11.3648217"><ele>787.0</ele><time>2026-04-18T11:07:17.719Z</time></trkpt><trkpt lat="44.0873567" lon="11.3648617"><ele>790.0</ele><time>2026-04-18T11:07:18.719Z</time></trkpt><trkpt lat="44.0872367" lon="11.3648867"><ele>793.0</ele><time>2026-04-18T11:07:20.72Z</time></trkpt><trkpt lat="44.087165" lon="11.3648983"><ele>796.0</ele><time>2026-04-18T11:07:21.72Z</time></trkpt><trkpt lat="44.0870983" lon="11.3649217"><ele>799.0</ele><time>2026-04-18T11:07:22.72Z</time></trkpt><trkpt lat="44.08699" lon="11.364985"><ele>802.0</ele><time>2026-04-18T11:07:24.719Z</time></trkpt><trkpt lat="44.0868617" lon="11.3650067"><ele>802.0</ele><time>2026-04-18T11:07:26.72Z</time></trkpt><trkpt lat="44.08675" lon="11.3650067"><ele>802.0</ele><time>2026-04-18T11:07:28.719Z</time></trkpt><trkpt lat="44.0866617" lon="11.365"><ele>802.0</ele><time>2026-04-18T11:07:29.719Z</time></trkpt><trkpt lat="44.0865717" lon="11.3649817"><ele>802.0</ele><time>2026-04-18T11:07:30.72Z</time></trkpt><trkpt lat="44.086485" lon="11.3649733"><ele>802.0</ele><time>2026-04-18T11:07:31.719Z</time></trkpt><trkpt lat="44.0863967" lon="11.3649833"><ele>802.6666666666666</ele><time>2026-04-18T11:07:32.719Z</time></trkpt><trkpt lat="44.0863133" lon="11.3650033"><ele>803.3333333333333</ele><time>2026-04-18T11:07:33.72Z</time></trkpt><trkpt lat="44.0862283" lon="11.3650267"><ele>804.0</ele><time>2026-04-18T11:07:34.719Z</time></trkpt><trkpt lat="44.086155" lon="11.365065"><ele>804.6666666666667</ele><time>2026-04-18T11:07:35.719Z</time></trkpt><trkpt lat="44.0860883" lon="11.36511"><ele>805.3333333333334</ele><time>2026-04-18T11:07:36.719Z</time></trkpt><trkpt lat="44.08602" lon="11.3651533"><ele>806.0</ele><time>2026-04-18T11:07:37.72Z</time></trkpt><trkpt lat="44.0859033" lon="11.3652083"><ele>806.0</ele><time>2026-04-18T11:07:39.719Z</time></trkpt><trkpt lat="44.0858417" lon="11.3652367"><ele>806.0</ele><time>2026-04-18T11:07:40.72Z</time></trkpt><trkpt lat="44.08573" lon="11.3653067"><ele>806.0</ele><time>2026-04-18T11:07:42.72Z</time></trkpt><trkpt lat="44.0856267" lon="11.3653733"><ele>806.0</ele><time>2026-04-18T11:07:44.719Z</time></trkpt><trkpt lat="44.085535" lon="11.365405"><ele>806.0</ele><time>2026-04-18T11:07:46.719Z</time></trkpt><trkpt lat="44.0854333" lon="11.3654517"><ele>806.8</ele><time>2026-04-18T11:07:48.719Z</time></trkpt><trkpt lat="44.085335" lon="11.365505"><ele>807.5999999999999</ele><time>2026-04-18T11:07:50.72Z</time></trkpt><trkpt lat="44.0852467" lon="11.3655517"><ele>808.4</ele><time>2026-04-18T11:07:52.719Z</time></trkpt><trkpt lat="44.0851533" lon="11.36559"><ele>809.2</ele><time>2026-04-18T11:07:54.719Z</time></trkpt><trkpt lat="44.0850433" lon="11.3656183"><ele>810.0</ele><time>2026-04-18T11:07:56.719Z</time></trkpt><trkpt lat="44.084955" lon="11.3656367"><ele>812.6</ele><time>2026-04-18T11:07:58.719Z</time></trkpt><trkpt lat="44.084845" lon="11.36564"><ele>815.2</ele><time>2026-04-18T11:08:00.719Z</time></trkpt><trkpt lat="44.08474" lon="11.36563"><ele>817.8</ele><time>2026-04-18T11:08:02.72Z</time></trkpt><trkpt lat="44.08463" lon="11.3656067"><ele>820.4</ele><time>2026-04-18T11:08:04.72Z</time></trkpt><trkpt lat="44.0845133" lon="11.3655967"><ele>823.0</ele><time>2026-04-18T11:08:06.72Z</time></trkpt><trkpt lat="44.0844333" lon="11.3655967"><ele>823.0</ele><time>2026-04-18T11:08:08.719Z</time></trkpt><trkpt lat="44.0843283" lon="11.3656533"><ele>823.0</ele><time>2026-04-18T11:08:41.719Z</time></trkpt><trkpt lat="44.0842083" lon="11.3657417"><ele>823.0</ele><time>2026-04-18T11:08:43.72Z</time></trkpt><trkpt lat="44.08414" lon="11.3657967"><ele>823.0</ele><time>2026-04-18T11:08:44.72Z</time></trkpt><trkpt lat="44.08407" lon="11.3658467"><ele>823.0</ele><time>2026-04-18T11:08:45.719Z</time></trkpt><trkpt lat="44.0839817" lon="11.3659017"><ele>822.8333333333333</ele><time>2026-04-18T11:08:46.719Z</time></trkpt><trkpt lat="44.083895" lon="11.3659433"><ele>822.6666666666666</ele><time>2026-04-18T11:08:47.72Z</time></trkpt><trkpt lat="44.0838283" lon="11.365975"><ele>822.5</ele><time>2026-04-18T11:08:48.719Z</time></trkpt><trkpt lat="44.0837667" lon="11.365995"><ele>822.3333333333333</ele><time>2026-04-18T11:08:49.72Z</time></trkpt><trkpt lat="44.083685" lon="11.365975"><ele>822.1666666666666</ele><time>2026-04-18T11:08:51.719Z</time></trkpt><trkpt lat="44.0836117" lon="11.3659133"><ele>822.0</ele><time>2026-04-18T11:08:53.719Z</time></trkpt><trkpt lat="44.083535" lon="11.3659"><ele>822.0</ele><time>2026-04-18T11:08:55.719Z</time></trkpt><trkpt lat="44.0834833" lon="11.36596"><ele>822.0</ele><time>2026-04-18T11:08:57.719Z</time></trkpt><trkpt lat="44.0834483" lon="11.3660433"><ele>822.0</ele><time>2026-04-18T11:08:59.72Z</time></trkpt><trkpt lat="44.0834017" lon="11.3661433"><ele>822.0</ele><time>2026-04-18T11:09:01.72Z</time></trkpt><trkpt lat="44.0833167" lon="11.3661883"><ele>822.0</ele><time>2026-04-18T11:09:03.719Z</time></trkpt><trkpt lat="44.0832317" lon="11.3662133"><ele>822.0</ele><time>2026-04-18T11:09:05.719Z</time></trkpt><trkpt lat="44.0831633" lon="11.366225"><ele>822.0</ele><time>2026-04-18T11:09:07.72Z</time></trkpt><trkpt lat="44.08316" lon="11.36613"><ele>822.0</ele><time>2026-04-18T11:09:10.719Z</time></trkpt><trkpt lat="44.08322" lon="11.3660483"><ele>822.0</ele><time>2026-04-18T11:09:13.719Z</time></trkpt><trkpt lat="44.08326" lon="11.3659783"><ele>822.0</ele><time>2026-04-18T11:09:15.72Z</time></trkpt><trkpt lat="44.0832983" lon="11.3658667"><ele>822.0</ele><time>2026-04-18T11:09:17.719Z</time></trkpt><trkpt lat="44.0833367" lon="11.3657033"><ele>822.0</ele><time>2026-04-18T11:09:19.72Z</time></trkpt><trkpt lat="44.08336" lon="11.3656183"><ele>822.0</ele><time>2026-04-18T11:09:20.72Z</time></trkpt><trkpt lat="44.083385" lon="11.36553"><ele>822.0</ele><time>2026-04-18T11:09:21.72Z</time></trkpt><trkpt lat="44.0834183" lon="11.3654367"><ele>822.0</ele><time>2026-04-18T11:09:22.719Z</time></trkpt><trkpt lat="44.0834533" lon="11.36534"><ele>822.0</ele><time>2026-04-18T11:09:23.719Z</time></trkpt><trkpt lat="44.0834817" lon="11.3652433"><ele>822.0</ele><time>2026-04-18T11:09:24.72Z</time></trkpt><trkpt lat="44.0835167" lon="11.36511"><ele>822.0</ele><time>2026-04-18T11:09:26.719Z</time></trkpt><trkpt lat="44.0835667" lon="11.3650133"><ele>820.0</ele><time>2026-04-18T11:09:28.719Z</time></trkpt><trkpt lat="44.08361" lon="11.3649433"><ele>818.0</ele><time>2026-04-18T11:09:30.719Z</time></trkpt><trkpt lat="44.0836383" lon="11.3648517"><ele>816.0</ele><time>2026-04-18T11:09:32.72Z</time></trkpt><trkpt lat="44.0836633" lon="11.364745"><ele>814.0</ele><time>2026-04-18T11:09:35.719Z</time></trkpt><trkpt lat="44.0836833" lon="11.3646017"><ele>812.0</ele><time>2026-04-18T11:09:38.719Z</time></trkpt><trkpt lat="44.0836783" lon="11.3645117"><ele>810.0</ele><time>2026-04-18T11:09:40.72Z</time></trkpt><trkpt lat="44.083665" lon="11.3643983"><ele>807.6666666666666</ele><time>2026-04-18T11:09:43.719Z</time></trkpt><trkpt lat="44.08366" lon="11.364295"><ele>805.3333333333333</ele><time>2026-04-18T11:09:46.72Z</time></trkpt><trkpt lat="44.0836383" lon="11.364185"><ele>803.0</ele><time>2026-04-18T11:09:49.72Z</time></trkpt><trkpt lat="44.0836433" lon="11.3640867"><ele>800.6666666666666</ele><time>2026-04-18T11:09:51.719Z</time></trkpt><trkpt lat="44.0836533" lon="11.3639633"><ele>798.3333333333333</ele><time>2026-04-18T11:09:54.719Z</time></trkpt><trkpt lat="44.083655" lon="11.3638667"><ele>796.0</ele><time>2026-04-18T11:09:56.719Z</time></trkpt><trkpt lat="44.0836483" lon="11.363755"><ele>793.3333333333333</ele><time>2026-04-18T11:09:58.719Z</time></trkpt><trkpt lat="44.08364" lon="11.3636433"><ele>790.6666666666666</ele><time>2026-04-18T11:10:00.719Z</time></trkpt><trkpt lat="44.08365" lon="11.3635383"><ele>788.0</ele><time>2026-04-18T11:10:02.719Z</time></trkpt><trkpt lat="44.0836833" lon="11.3634133"><ele>785.3333333333333</ele><time>2026-04-18T11:10:05.718Z</time></trkpt><trkpt lat="44.083665" lon="11.3633117"><ele>782.6666666666666</ele><time>2026-04-18T11:10:07.718Z</time></trkpt><trkpt lat="44.0836233" lon="11.3632"><ele>780.0</ele><time>2026-04-18T11:10:09.718Z</time></trkpt><trkpt lat="44.0835883" lon="11.3630833"><ele>778.0</ele><time>2026-04-18T11:10:11.719Z</time></trkpt><trkpt lat="44.0835383" lon="11.362995"><ele>776.0</ele><time>2026-04-18T11:10:14.718Z</time></trkpt><trkpt lat="44.0835117" lon="11.3628967"><ele>774.0</ele><time>2026-04-18T11:10:18.719Z</time></trkpt><trkpt lat="44.0835683" lon="11.3628283"><ele>772.0</ele><time>2026-04-18T11:10:21.718Z</time></trkpt><trkpt lat="44.0836333" lon="11.3627583"><ele>770.0</ele><time>2026-04-18T11:10:24.718Z</time></trkpt><trkpt lat="44.083625" lon="11.3626467"><ele>768.0</ele><time>2026-04-18T11:10:27.718Z</time></trkpt><trkpt lat="44.083575" lon="11.362565"><ele>768.0</ele><time>2026-04-18T11:10:30.718Z</time></trkpt><trkpt lat="44.083515" lon="11.3625233"><ele>768.0</ele><time>2026-04-18T11:10:32.718Z</time></trkpt><trkpt lat="44.08343" lon="11.3625233"><ele>768.0</ele><time>2026-04-18T11:10:34.718Z</time></trkpt><trkpt lat="44.0833933" lon="11.3624217"><ele>768.0</ele><time>2026-04-18T11:10:37.718Z</time></trkpt><trkpt lat="44.083475" lon="11.3623383"><ele>768.0</ele><time>2026-04-18T11:10:39.718Z</time></trkpt><trkpt lat="44.08354" lon="11.3622983"><ele>768.0</ele><time>2026-04-18T11:10:40.718Z</time></trkpt><trkpt lat="44.0836133" lon="11.3622567"><ele>768.0</ele><time>2026-04-18T11:10:41.718Z</time></trkpt><trkpt lat="44.0836883" lon="11.3622117"><ele>768.0</ele><time>2026-04-18T11:10:42.718Z</time></trkpt><trkpt lat="44.08375" lon="11.3621467"><ele>768.0</ele><time>2026-04-18T11:10:43.718Z</time></trkpt><trkpt lat="44.0838" lon="11.3620567"><ele>768.0</ele><time>2026-04-18T11:10:44.719Z</time></trkpt><trkpt lat="44.0838233" lon="11.361955"><ele>768.0</ele><time>2026-04-18T11:10:45.719Z</time></trkpt><trkpt lat="44.083845" lon="11.3618417"><ele>768.0</ele><time>2026-04-18T11:10:46.718Z</time></trkpt><trkpt lat="44.08388" lon="11.3617567"><ele>766.1666666666666</ele><time>2026-04-18T11:10:47.718Z</time></trkpt><trkpt lat="44.0840033" lon="11.3617183"><ele>764.3333333333334</ele><time>2026-04-18T11:10:49.719Z</time></trkpt><trkpt lat="44.084075" lon="11.3617067"><ele>762.5</ele><time>2026-04-18T11:10:50.719Z</time></trkpt><trkpt lat="44.084135" lon="11.3616717"><ele>760.6666666666667</ele><time>2026-04-18T11:10:51.718Z</time></trkpt><trkpt lat="44.0841867" lon="11.3616033"><ele>758.8333333333334</ele><time>2026-04-18T11:10:52.719Z</time></trkpt><trkpt lat="44.0842133" lon="11.3614983"><ele>757.0</ele><time>2026-04-18T11:10:53.718Z</time></trkpt><trkpt lat="44.08424" lon="11.361385"><ele>754.0</ele><time>2026-04-18T11:10:54.719Z</time></trkpt><trkpt lat="44.0843" lon="11.36131"><ele>751.0</ele><time>2026-04-18T11:10:55.719Z</time></trkpt><trkpt lat="44.08438" lon="11.3612683"><ele>748.0</ele><time>2026-04-18T11:10:56.718Z</time></trkpt><trkpt lat="44.08447" lon="11.36123"><ele>745.0</ele><time>2026-04-18T11:10:57.719Z</time></trkpt><trkpt lat="44.0845633" lon="11.3611883"><ele>742.0</ele><time>2026-04-18T11:10:58.718Z</time></trkpt><trkpt lat="44.0846567" lon="11.36113"><ele>742.0</ele><time>2026-04-18T11:10:59.718Z</time></trkpt><trkpt lat="44.08472" lon="11.36107"><ele>742.0</ele><time>2026-04-18T11:11:00.718Z</time></trkpt><trkpt lat="44.0847767" lon="11.3609783"><ele>742.0</ele><time>2026-04-18T11:11:01.718Z</time></trkpt><trkpt lat="44.08479" lon="11.3608717"><ele>742.0</ele><time>2026-04-18T11:11:02.719Z</time></trkpt><trkpt lat="44.084785" lon="11.360755"><ele>742.0</ele><time>2026-04-18T11:11:03.718Z</time></trkpt><trkpt lat="44.084745" lon="11.3606283"><ele>742.0</ele><time>2026-04-18T11:11:04.718Z</time></trkpt><trkpt lat="44.0846617" lon="11.360495"><ele>737.75</ele><time>2026-04-18T11:11:05.719Z</time></trkpt><trkpt lat="44.0845367" lon="11.3603533"><ele>733.5</ele><time>2026-04-18T11:11:06.719Z</time></trkpt><trkpt lat="44.0844333" lon="11.3602183"><ele>729.25</ele><time>2026-04-18T11:11:07.718Z</time></trkpt><trkpt lat="44.0843433" lon="11.3600883"><ele>725.0</ele><time>2026-04-18T11:11:08.718Z</time></trkpt><trkpt lat="44.0842533" lon="11.35994"><ele>725.0</ele><time>2026-04-18T11:11:09.719Z</time></trkpt><trkpt lat="44.08418" lon="11.3597767"><ele>725.0</ele><time>2026-04-18T11:11:10.718Z</time></trkpt><trkpt lat="44.0841183" lon="11.359615"><ele>725.0</ele><time>2026-04-18T11:11:11.718Z</time></trkpt><trkpt lat="44.0840633" lon="11.35946"><ele>725.0</ele><time>2026-04-18T11:11:12.718Z</time></trkpt><trkpt lat="44.0840217" lon="11.3593367"><ele>722.8333333333333</ele><time>2026-04-18T11:11:13.719Z</time></trkpt><trkpt lat="44.0839917" lon="11.3592367"><ele>720.6666666666666</ele><time>2026-04-18T11:11:14.719Z</time></trkpt><trkpt lat="44.0839967" lon="11.3591383"><ele>718.5</ele><time>2026-04-18T11:11:15.719Z</time></trkpt><trkpt lat="44.0840267" lon="11.3590533"><ele>716.3333333333334</ele><time>2026-04-18T11:11:16.718Z</time></trkpt><trkpt lat="44.08409" lon="11.3589883"><ele>714.1666666666667</ele><time>2026-04-18T11:11:17.719Z</time></trkpt><trkpt lat="44.0841667" lon="11.3589367"><ele>712.0</ele><time>2026-04-18T11:11:18.718Z</time></trkpt><trkpt lat="44.0842633" lon="11.35888"><ele>709.0</ele><time>2026-04-18T11:11:19.718Z</time></trkpt><trkpt lat="44.0843667" lon="11.3588183"><ele>706.0</ele><time>2026-04-18T11:11:20.718Z</time></trkpt><trkpt lat="44.08447" lon="11.3587467"><ele>703.0</ele><time>2026-04-18T11:11:21.718Z</time></trkpt><trkpt lat="44.0845767" lon="11.358675"><ele>700.0</ele><time>2026-04-18T11:11:22.718Z</time></trkpt><trkpt lat="44.0846833" lon="11.35862"><ele>700.0</ele><time>2026-04-18T11:11:23.718Z</time></trkpt><trkpt lat="44.0847883" lon="11.358575"><ele>700.0</ele><time>2026-04-18T11:11:24.719Z</time></trkpt><trkpt lat="44.0848883" lon="11.35854"><ele>700.0</ele><time>2026-04-18T11:11:25.719Z</time></trkpt><trkpt lat="44.0849817" lon="11.35851"><ele>700.0</ele><time>2026-04-18T11:11:26.719Z</time></trkpt><trkpt lat="44.0850633" lon="11.3584717"><ele>700.0</ele><time>2026-04-18T11:11:27.718Z</time></trkpt><trkpt lat="44.0851417" lon="11.3584017"><ele>701.1666666666667</ele><time>2026-04-18T11:11:28.718Z</time></trkpt><trkpt lat="44.0852133" lon="11.3583333"><ele>702.3333333333334</ele><time>2026-04-18T11:11:29.719Z</time></trkpt><trkpt lat="44.08529" lon="11.3582667"><ele>703.5</ele><time>2026-04-18T11:11:30.719Z</time></trkpt><trkpt lat="44.0853633" lon="11.3582183"><ele>704.6666666666666</ele><time>2026-04-18T11:11:31.718Z</time></trkpt><trkpt lat="44.085425" lon="11.358185"><ele>705.8333333333333</ele><time>2026-04-18T11:11:32.719Z</time></trkpt><trkpt lat="44.085495" lon="11.3581667"><ele>707.0</ele><time>2026-04-18T11:11:33.718Z</time></trkpt><trkpt lat="44.0855733" lon="11.35816"><ele>707.0</ele><time>2026-04-18T11:11:34.719Z</time></trkpt><trkpt lat="44.0856633" lon="11.3581567"><ele>707.0</ele><time>2026-04-18T11:11:35.719Z</time></trkpt><trkpt lat="44.085745" lon="11.358155"><ele>707.0</ele><time>2026-04-18T11:11:36.718Z</time></trkpt><trkpt lat="44.08583" lon="11.3581583"><ele>707.0</ele><time>2026-04-18T11:11:37.718Z</time></trkpt><trkpt lat="44.0859017" lon="11.35816"><ele>707.0</ele><time>2026-04-18T11:11:38.719Z</time></trkpt><trkpt lat="44.0860167" lon="11.358195"><ele>707.0</ele><time>2026-04-18T11:11:40.719Z</time></trkpt><trkpt lat="44.0860767" lon="11.358225"><ele>706.8333333333333</ele><time>2026-04-18T11:11:41.718Z</time></trkpt><trkpt lat="44.086165" lon="11.3582367"><ele>706.6666666666666</ele><time>2026-04-18T11:11:43.718Z</time></trkpt><trkpt lat="44.086185" lon="11.3581167"><ele>706.5</ele><time>2026-04-18T11:11:46.719Z</time></trkpt><trkpt lat="44.0861967" lon="11.35801"><ele>706.3333333333334</ele><time>2026-04-18T11:11:48.719Z</time></trkpt><trkpt lat="44.086205" lon="11.3579"><ele>706.1666666666667</ele><time>2026-04-18T11:11:50.718Z</time></trkpt><trkpt lat="44.0861833" lon="11.357815"><ele>706.0</ele><time>2026-04-18T11:11:52.719Z</time></trkpt><trkpt lat="44.0861633" lon="11.3577033"><ele>706.0</ele><time>2026-04-18T11:11:54.719Z</time></trkpt><trkpt lat="44.08614" lon="11.357545"><ele>706.0</ele><time>2026-04-18T11:11:56.718Z</time></trkpt><trkpt lat="44.0861233" lon="11.35746"><ele>706.0</ele><time>2026-04-18T11:11:57.718Z</time></trkpt><trkpt lat="44.0860867" lon="11.357295"><ele>706.0</ele><time>2026-04-18T11:11:59.719Z</time></trkpt><trkpt lat="44.08606" lon="11.357205"><ele>706.0</ele><time>2026-04-18T11:12:00.719Z</time></trkpt><trkpt lat="44.08603" lon="11.35712"><ele>706.0</ele><time>2026-04-18T11:12:01.718Z</time></trkpt><trkpt lat="44.0859917" lon="11.3570367"><ele>704.8333333333334</ele><time>2026-04-18T11:12:02.719Z</time></trkpt><trkpt lat="44.085955" lon="11.3569533"><ele>703.6666666666667</ele><time>2026-04-18T11:12:03.719Z</time></trkpt><trkpt lat="44.085915" lon="11.3568733"><ele>702.5</ele><time>2026-04-18T11:12:04.718Z</time></trkpt><trkpt lat="44.0858717" lon="11.356795"><ele>701.3333333333334</ele><time>2026-04-18T11:12:05.718Z</time></trkpt><trkpt lat="44.085825" lon="11.35673"><ele>700.1666666666666</ele><time>2026-04-18T11:12:06.718Z</time></trkpt><trkpt lat="44.0857733" lon="11.3566667"><ele>699.0</ele><time>2026-04-18T11:12:07.718Z</time></trkpt><trkpt lat="44.085665" lon="11.35656"><ele>699.0</ele><time>2026-04-18T11:12:09.719Z</time></trkpt><trkpt lat="44.085605" lon="11.3564867"><ele>699.0</ele><time>2026-04-18T11:12:10.718Z</time></trkpt><trkpt lat="44.085545" lon="11.3564067"><ele>699.0</ele><time>2026-04-18T11:12:11.718Z</time></trkpt><trkpt lat="44.0854917" lon="11.3563267"><ele>699.0</ele><time>2026-04-18T11:12:12.718Z</time></trkpt><trkpt lat="44.0854467" lon="11.356265"><ele>699.0</ele><time>2026-04-18T11:12:13.718Z</time></trkpt><trkpt lat="44.0853983" lon="11.3561917"><ele>699.0</ele><time>2026-04-18T11:12:14.718Z</time></trkpt><trkpt lat="44.0853567" lon="11.3561217"><ele>699.0</ele><time>2026-04-18T11:12:15.718Z</time></trkpt><trkpt lat="44.08531" lon="11.3560033"><ele>698.3333333333334</ele><time>2026-04-18T11:12:17.718Z</time></trkpt><trkpt lat="44.0852983" lon="11.3558667"><ele>697.6666666666666</ele><time>2026-04-18T11:12:19.718Z</time></trkpt><trkpt lat="44.0852917" lon="11.3556967"><ele>697.0</ele><time>2026-04-18T11:12:21.718Z</time></trkpt><trkpt lat="44.0852817" lon="11.35561"><ele>696.3333333333333</ele><time>2026-04-18T11:12:22.718Z</time></trkpt><trkpt lat="44.085265" lon="11.3555183"><ele>695.6666666666666</ele><time>2026-04-18T11:12:23.719Z</time></trkpt><trkpt lat="44.08525" lon="11.35542"><ele>695.0</ele><time>2026-04-18T11:12:24.719Z</time></trkpt><trkpt lat="44.085225" lon="11.3553067"><ele>693.6</ele><time>2026-04-18T11:12:25.719Z</time></trkpt><trkpt lat="44.085195" lon="11.355205"><ele>692.2</ele><time>2026-04-18T11:12:26.718Z</time></trkpt><trkpt lat="44.08517" lon="11.355035"><ele>690.8</ele><time>2026-04-18T11:12:28.718Z</time></trkpt><trkpt lat="44.0851517" lon="11.3548783"><ele>689.4</ele><time>2026-04-18T11:12:30.718Z</time></trkpt><trkpt lat="44.0851317" lon="11.3547667"><ele>688.0</ele><time>2026-04-18T11:12:32.719Z</time></trkpt><trkpt lat="44.0851117" lon="11.3546333"><ele>686.6666666666667</ele><time>2026-04-18T11:12:35.719Z</time></trkpt><trkpt lat="44.0851233" lon="11.354525"><ele>685.3333333333334</ele><time>2026-04-18T11:12:37.718Z</time></trkpt><trkpt lat="44.08514" lon="11.3544317"><ele>684.0</ele><time>2026-04-18T11:12:39.719Z</time></trkpt><trkpt lat="44.0851483" lon="11.3543367"><ele>682.6666666666666</ele><time>2026-04-18T11:12:41.718Z</time></trkpt><trkpt lat="44.0851567" lon="11.35423"><ele>681.3333333333333</ele><time>2026-04-18T11:12:43.718Z</time></trkpt><trkpt lat="44.08516" lon="11.35412"><ele>680.0</ele><time>2026-04-18T11:12:45.719Z</time></trkpt><trkpt lat="44.0851733" lon="11.354005"><ele>680.0</ele><time>2026-04-18T11:12:47.719Z</time></trkpt><trkpt lat="44.08518" lon="11.3539"><ele>680.0</ele><time>2026-04-18T11:12:49.718Z</time></trkpt><trkpt lat="44.0852" lon="11.3538"><ele>680.0</ele><time>2026-04-18T11:12:51.718Z</time></trkpt><trkpt lat="44.085245" lon="11.35369"><ele>680.0</ele><time>2026-04-18T11:12:53.718Z</time></trkpt><trkpt lat="44.0853067" lon="11.3535567"><ele>680.0</ele><time>2026-04-18T11:12:55.717Z</time></trkpt><trkpt lat="44.0853567" lon="11.3534283"><ele>678.0</ele><time>2026-04-18T11:12:57.718Z</time></trkpt><trkpt lat="44.0854083" lon="11.3532817"><ele>676.0</ele><time>2026-04-18T11:12:59.718Z</time></trkpt><trkpt lat="44.0854667" lon="11.3531667"><ele>674.0</ele><time>2026-04-18T11:13:01.717Z</time></trkpt><trkpt lat="44.0855067" lon="11.3530567"><ele>672.0</ele><time>2026-04-18T11:13:03.717Z</time></trkpt><trkpt lat="44.085525" lon="11.3529483"><ele>670.0</ele><time>2026-04-18T11:13:05.717Z</time></trkpt><trkpt lat="44.08553" lon="11.35285"><ele>668.5</ele><time>2026-04-18T11:13:07.718Z</time></trkpt><trkpt lat="44.08551" lon="11.352765"><ele>667.0</ele><time>2026-04-18T11:13:09.717Z</time></trkpt><trkpt lat="44.0854767" lon="11.3526733"><ele>665.5</ele><time>2026-04-18T11:13:11.718Z</time></trkpt><trkpt lat="44.0854133" lon="11.3525683"><ele>664.0</ele><time>2026-04-18T11:13:13.718Z</time></trkpt><trkpt lat="44.0853517" lon="11.35248"><ele>662.5</ele><time>2026-04-18T11:13:15.717Z</time></trkpt><trkpt lat="44.085295" lon="11.35239"><ele>661.0</ele><time>2026-04-18T11:13:17.718Z</time></trkpt><trkpt lat="44.0852367" lon="11.3523183"><ele>661.0</ele><time>2026-04-18T11:13:19.718Z</time></trkpt><trkpt lat="44.085165" lon="11.352235"><ele>661.0</ele><time>2026-04-18T11:13:22.717Z</time></trkpt><trkpt lat="44.0851033" lon="11.3521517"><ele>661.0</ele><time>2026-04-18T11:13:25.717Z</time></trkpt><trkpt lat="44.0850617" lon="11.35208"><ele>661.0</ele><time>2026-04-18T11:13:27.718Z</time></trkpt><trkpt lat="44.0850233" lon="11.352005"><ele>661.0</ele><time>2026-04-18T11:13:29.717Z</time></trkpt><trkpt lat="44.0849717" lon="11.3519317"><ele>661.0</ele><time>2026-04-18T11:13:31.717Z</time></trkpt><trkpt lat="44.08488" lon="11.3518433"><ele>658.0</ele><time>2026-04-18T11:13:33.717Z</time></trkpt><trkpt lat="44.084825" lon="11.3518"><ele>655.0</ele><time>2026-04-18T11:13:34.717Z</time></trkpt><trkpt lat="44.0847217" lon="11.3517317"><ele>652.0</ele><time>2026-04-18T11:13:36.718Z</time></trkpt><trkpt lat="44.0846467" lon="11.3516717"><ele>649.0</ele><time>2026-04-18T11:13:38.718Z</time></trkpt><trkpt lat="44.0845983" lon="11.351615"><ele>646.0</ele><time>2026-04-18T11:13:40.718Z</time></trkpt><trkpt lat="44.0846117" lon="11.3515"><ele>643.0</ele><time>2026-04-18T11:13:43.717Z</time></trkpt><trkpt lat="44.0846467" lon="11.3514"><ele>641.6666666666667</ele><time>2026-04-18T11:13:45.717Z</time></trkpt><trkpt lat="44.084675" lon="11.35131"><ele>640.3333333333334</ele><time>2026-04-18T11:13:47.717Z</time></trkpt><trkpt lat="44.084745" lon="11.3512233"><ele>639.0</ele><time>2026-04-18T11:13:49.717Z</time></trkpt><trkpt lat="44.08482" lon="11.3511467"><ele>637.6666666666666</ele><time>2026-04-18T11:13:51.718Z</time></trkpt><trkpt lat="44.08487" lon="11.3510467"><ele>636.3333333333333</ele><time>2026-04-18T11:13:53.717Z</time></trkpt><trkpt lat="44.084925" lon="11.35095"><ele>635.0</ele><time>2026-04-18T11:13:55.717Z</time></trkpt><trkpt lat="44.0849867" lon="11.3508833"><ele>635.0</ele><time>2026-04-18T11:13:57.718Z</time></trkpt><trkpt lat="44.085045" lon="11.3507833"><ele>635.0</ele><time>2026-04-18T11:13:59.717Z</time></trkpt><trkpt lat="44.0851133" lon="11.3507033"><ele>635.0</ele><time>2026-04-18T11:14:01.718Z</time></trkpt><trkpt lat="44.0851667" lon="11.3506483"><ele>635.0</ele><time>2026-04-18T11:14:03.718Z</time></trkpt><trkpt lat="44.08522" lon="11.3505883"><ele>635.0</ele><time>2026-04-18T11:14:05.718Z</time></trkpt><trkpt lat="44.08526" lon="11.3504983"><ele>635.0</ele><time>2026-04-18T11:14:07.718Z</time></trkpt><trkpt lat="44.0853083" lon="11.3504417"><ele>632.7142857142857</ele><time>2026-04-18T11:14:09.717Z</time></trkpt><trkpt lat="44.0853683" lon="11.3503833"><ele>630.4285714285714</ele><time>2026-04-18T11:14:11.717Z</time></trkpt><trkpt lat="44.0854183" lon="11.3502967"><ele>628.1428571428571</ele><time>2026-04-18T11:14:13.717Z</time></trkpt><trkpt lat="44.0854333" lon="11.3502033"><ele>625.8571428571429</ele><time>2026-04-18T11:14:15.717Z</time></trkpt><trkpt lat="44.0854433" lon="11.3500933"><ele>623.5714285714286</ele><time>2026-04-18T11:14:17.717Z</time></trkpt><trkpt lat="44.085455" lon="11.35"><ele>621.2857142857142</ele><time>2026-04-18T11:14:19.718Z</time></trkpt><trkpt lat="44.0854767" lon="11.3499167"><ele>619.0</ele><time>2026-04-18T11:14:21.718Z</time></trkpt><trkpt lat="44.08546" lon="11.3498283"><ele>619.0</ele><time>2026-04-18T11:14:24.718Z</time></trkpt><trkpt lat="44.0854233" lon="11.3497267"><ele>619.0</ele><time>2026-04-18T11:14:28.718Z</time></trkpt><trkpt lat="44.085415" lon="11.3496167"><ele>619.0</ele><time>2026-04-18T11:14:31.718Z</time></trkpt><trkpt lat="44.085415" lon="11.3494917"><ele>619.0</ele><time>2026-04-18T11:14:34.717Z</time></trkpt><trkpt lat="44.0854167" lon="11.3493833"><ele>619.0</ele><time>2026-04-18T11:14:37.717Z</time></trkpt><trkpt lat="44.0854117" lon="11.3492667"><ele>619.0</ele><time>2026-04-18T11:14:40.717Z</time></trkpt><trkpt lat="44.0854267" lon="11.3491333"><ele>615.8333333333334</ele><time>2026-04-18T11:14:43.717Z</time></trkpt><trkpt lat="44.08544" lon="11.3490383"><ele>612.6666666666667</ele><time>2026-04-18T11:14:45.717Z</time></trkpt><trkpt lat="44.08545" lon="11.348935"><ele>609.5</ele><time>2026-04-18T11:14:47.718Z</time></trkpt><trkpt lat="44.085465" lon="11.3488467"><ele>606.3333333333334</ele><time>2026-04-18T11:14:49.717Z</time></trkpt><trkpt lat="44.0854517" lon="11.3487367"><ele>603.1666666666666</ele><time>2026-04-18T11:14:52.717Z</time></trkpt><trkpt lat="44.0854483" lon="11.3486183"><ele>600.0</ele><time>2026-04-18T11:14:55.717Z</time></trkpt><trkpt lat="44.0854517" lon="11.3485133"><ele>599.3333333333334</ele><time>2026-04-18T11:14:58.717Z</time></trkpt><trkpt lat="44.0854483" lon="11.3483817"><ele>598.6666666666666</ele><time>2026-04-18T11:15:01.717Z</time></trkpt><trkpt lat="44.0855" lon="11.3482833"><ele>598.0</ele><time>2026-04-18T11:15:04.718Z</time></trkpt><trkpt lat="44.0855683" lon="11.3482583"><ele>597.3333333333333</ele><time>2026-04-18T11:15:06.718Z</time></trkpt><trkpt lat="44.0856383" lon="11.3482433"><ele>596.6666666666666</ele><time>2026-04-18T11:15:08.718Z</time></trkpt><trkpt lat="44.0857467" lon="11.34824"><ele>596.0</ele><time>2026-04-18T11:15:10.717Z</time></trkpt><trkpt lat="44.0858417" lon="11.348265"><ele>596.0</ele><time>2026-04-18T11:15:12.717Z</time></trkpt><trkpt lat="44.0859467" lon="11.3482867"><ele>596.0</ele><time>2026-04-18T11:15:14.717Z</time></trkpt><trkpt lat="44.086045" lon="11.3482933"><ele>596.0</ele><time>2026-04-18T11:15:16.717Z</time></trkpt><trkpt lat="44.08612" lon="11.3482583"><ele>596.0</ele><time>2026-04-18T11:15:18.717Z</time></trkpt><trkpt lat="44.0861783" lon="11.34821"><ele>596.0</ele><time>2026-04-18T11:15:20.717Z</time></trkpt><trkpt lat="44.086235" lon="11.348155"><ele>596.0</ele><time>2026-04-18T11:15:22.717Z</time></trkpt><trkpt lat="44.0862767" lon="11.34807"><ele>595.3333333333333</ele><time>2026-04-18T11:15:24.717Z</time></trkpt><trkpt lat="44.0863283" lon="11.3479583"><ele>594.6666666666666</ele><time>2026-04-18T11:15:26.718Z</time></trkpt><trkpt lat="44.0863667" lon="11.3478483"><ele>594.0</ele><time>2026-04-18T11:15:28.718Z</time></trkpt><trkpt lat="44.0864" lon="11.3477483"><ele>593.3333333333334</ele><time>2026-04-18T11:15:30.717Z</time></trkpt><trkpt lat="44.086455" lon="11.3476583"><ele>592.6666666666667</ele><time>2026-04-18T11:15:32.718Z</time></trkpt><trkpt lat="44.0865233" lon="11.34756"><ele>592.0</ele><time>2026-04-18T11:15:34.717Z</time></trkpt><trkpt lat="44.0866033" lon="11.347465"><ele>592.0</ele><time>2026-04-18T11:15:36.717Z</time></trkpt><trkpt lat="44.086655" lon="11.34738"><ele>592.0</ele><time>2026-04-18T11:15:38.718Z</time></trkpt><trkpt lat="44.0867117" lon="11.34729"><ele>592.0</ele><time>2026-04-18T11:15:40.717Z</time></trkpt><trkpt lat="44.0867517" lon="11.34721"><ele>592.0</ele><time>2026-04-18T11:15:42.716Z</time></trkpt><trkpt lat="44.0868" lon="11.3471417"><ele>592.0</ele><time>2026-04-18T11:15:45.716Z</time></trkpt><trkpt lat="44.0868867" lon="11.3471383"><ele>592.0</ele><time>2026-04-18T11:15:48.716Z</time></trkpt><trkpt lat="44.0869567" lon="11.3471483"><ele>592.0</ele><time>2026-04-18T11:15:50.717Z</time></trkpt><trkpt lat="44.08703" lon="11.3471517"><ele>592.0</ele><time>2026-04-18T11:15:52.717Z</time></trkpt><trkpt lat="44.087125" lon="11.347135"><ele>592.0</ele><time>2026-04-18T11:15:55.716Z</time></trkpt><trkpt lat="44.0872183" lon="11.347135"><ele>592.0</ele><time>2026-04-18T11:15:58.716Z</time></trkpt><trkpt lat="44.087305" lon="11.3471833"><ele>592.0</ele><time>2026-04-18T11:16:01.717Z</time></trkpt><trkpt lat="44.0873333" lon="11.3472733"><ele>592.0</ele><time>2026-04-18T11:16:04.716Z</time></trkpt><trkpt lat="44.0873167" lon="11.3473917"><ele>592.0</ele><time>2026-04-18T11:16:07.717Z</time></trkpt><trkpt lat="44.0872983" lon="11.3475033"><ele>592.0</ele><time>2026-04-18T11:16:09.716Z</time></trkpt><trkpt lat="44.0873167" lon="11.3476583"><ele>592.0</ele><time>2026-04-18T11:16:11.716Z</time></trkpt><trkpt lat="44.0873767" lon="11.3477483"><ele>592.0</ele><time>2026-04-18T11:16:13.717Z</time></trkpt><trkpt lat="44.0874517" lon="11.3477667"><ele>592.0</ele><time>2026-04-18T11:16:15.716Z</time></trkpt><trkpt lat="44.08754" lon="11.34772"><ele>589.8000000000001</ele><time>2026-04-18T11:16:17.716Z</time></trkpt><trkpt lat="44.0876383" lon="11.3477083"><ele>587.6</ele><time>2026-04-18T11:16:19.716Z</time></trkpt><trkpt lat="44.0877433" lon="11.3477767"><ele>585.4000000000001</ele><time>2026-04-18T11:16:21.717Z</time></trkpt><trkpt lat="44.0878283" lon="11.347865"><ele>583.2</ele><time>2026-04-18T11:16:23.716Z</time></trkpt><trkpt lat="44.087875" lon="11.3479833"><ele>581.0</ele><time>2026-04-18T11:16:25.716Z</time></trkpt><trkpt lat="44.0879117" lon="11.3480867"><ele>581.0</ele><time>2026-04-18T11:16:27.717Z</time></trkpt><trkpt lat="44.0879433" lon="11.3481633"><ele>581.0</ele><time>2026-04-18T11:16:28.716Z</time></trkpt><trkpt lat="44.0880217" lon="11.3482917"><ele>581.0</ele><time>2026-04-18T11:16:30.716Z</time></trkpt><trkpt lat="44.08807" lon="11.3483517"><ele>581.0</ele><time>2026-04-18T11:16:31.716Z</time></trkpt><trkpt lat="44.088125" lon="11.3484133"><ele>581.0</ele><time>2026-04-18T11:16:32.717Z</time></trkpt><trkpt lat="44.08818" lon="11.3484583"><ele>581.0</ele><time>2026-04-18T11:16:33.716Z</time></trkpt><trkpt lat="44.0882867" lon="11.34853"><ele>579.6</ele><time>2026-04-18T11:16:35.716Z</time></trkpt><trkpt lat="44.0883967" lon="11.3485617"><ele>578.2</ele><time>2026-04-18T11:16:37.716Z</time></trkpt><trkpt lat="44.08853" lon="11.3485583"><ele>576.8</ele><time>2026-04-18T11:16:39.716Z</time></trkpt><trkpt lat="44.088595" lon="11.3485467"><ele>575.4</ele><time>2026-04-18T11:16:40.717Z</time></trkpt><trkpt lat="44.0886833" lon="11.348565"><ele>574.0</ele><time>2026-04-18T11:16:42.717Z</time></trkpt><trkpt lat="44.08874" lon="11.3486817"><ele>574.0</ele><time>2026-04-18T11:16:44.716Z</time></trkpt><trkpt lat="44.0887767" lon="11.34876"><ele>574.0</ele><time>2026-04-18T11:16:45.717Z</time></trkpt><trkpt lat="44.088815" lon="11.34885"><ele>574.0</ele><time>2026-04-18T11:16:46.716Z</time></trkpt><trkpt lat="44.0888767" lon="11.348955"><ele>574.0</ele><time>2026-04-18T11:16:47.716Z</time></trkpt><trkpt lat="44.0889467" lon="11.3490583"><ele>574.0</ele><time>2026-04-18T11:16:48.716Z</time></trkpt><trkpt lat="44.089015" lon="11.3491617"><ele>574.0</ele><time>2026-04-18T11:16:49.716Z</time></trkpt><trkpt lat="44.0890783" lon="11.3492433"><ele>576.0</ele><time>2026-04-18T11:16:50.716Z</time></trkpt><trkpt lat="44.0891433" lon="11.3493133"><ele>578.0</ele><time>2026-04-18T11:16:51.717Z</time></trkpt><trkpt lat="44.0892133" lon="11.3493817"><ele>580.0</ele><time>2026-04-18T11:16:52.717Z</time></trkpt><trkpt lat="44.08929" lon="11.3494433"><ele>582.0</ele><time>2026-04-18T11:16:53.716Z</time></trkpt><trkpt lat="44.0893567" lon="11.3494917"><ele>584.0</ele><time>2026-04-18T11:16:54.716Z</time></trkpt><trkpt lat="44.0894567" lon="11.3495517"><ele>586.0</ele><time>2026-04-18T11:16:56.716Z</time></trkpt><trkpt lat="44.0895267" lon="11.3495717"><ele>586.0</ele><time>2026-04-18T11:16:58.717Z</time></trkpt><trkpt lat="44.0896233" lon="11.349615"><ele>586.0</ele><time>2026-04-18T11:17:00.717Z</time></trkpt><trkpt lat="44.0897367" lon="11.34969"><ele>586.0</ele><time>2026-04-18T11:17:02.716Z</time></trkpt><trkpt lat="44.089835" lon="11.3497333"><ele>586.0</ele><time>2026-04-18T11:17:04.716Z</time></trkpt><trkpt lat="44.0898967" lon="11.349755"><ele>586.0</ele><time>2026-04-18T11:17:05.716Z</time></trkpt><trkpt lat="44.08999" lon="11.34979"><ele>586.0</ele><time>2026-04-18T11:17:07.716Z</time></trkpt><trkpt lat="44.0900667" lon="11.3498"><ele>586.0</ele><time>2026-04-18T11:17:09.716Z</time></trkpt><trkpt lat="44.0901733" lon="11.3497967"><ele>586.0</ele><time>2026-04-18T11:17:11.716Z</time></trkpt><trkpt lat="44.0902967" lon="11.34982"><ele>586.0</ele><time>2026-04-18T11:17:13.716Z</time></trkpt><trkpt lat="44.090355" lon="11.3498683"><ele>586.0</ele><time>2026-04-18T11:17:14.716Z</time></trkpt><trkpt lat="44.0904083" lon="11.3499167"><ele>586.0</ele><time>2026-04-18T11:17:15.716Z</time></trkpt><trkpt lat="44.090465" lon="11.349955"><ele>586.0</ele><time>2026-04-18T11:17:16.716Z</time></trkpt><trkpt lat="44.0905917" lon="11.3500067"><ele>586.0</ele><time>2026-04-18T11:17:18.716Z</time></trkpt><trkpt lat="44.0906983" lon="11.3500317"><ele>586.0</ele><time>2026-04-18T11:17:20.717Z</time></trkpt><trkpt lat="44.0908033" lon="11.3500433"><ele>586.0</ele><time>2026-04-18T11:17:22.717Z</time></trkpt><trkpt lat="44.0908983" lon="11.350115"><ele>587.2</ele><time>2026-04-18T11:17:24.716Z</time></trkpt><trkpt lat="44.0909483" lon="11.35018"><ele>588.4000000000001</ele><time>2026-04-18T11:17:25.717Z</time></trkpt><trkpt lat="44.0910483" lon="11.3503033"><ele>589.6</ele><time>2026-04-18T11:17:27.716Z</time></trkpt><trkpt lat="44.0911317" lon="11.350395"><ele>590.8000000000001</ele><time>2026-04-18T11:17:29.717Z</time></trkpt><trkpt lat="44.0911933" lon="11.3504717"><ele>592.0</ele><time>2026-04-18T11:17:31.717Z</time></trkpt><trkpt lat="44.0912533" lon="11.35056"><ele>592.0</ele><time>2026-04-18T11:17:33.716Z</time></trkpt><trkpt lat="44.0913283" lon="11.3506567"><ele>592.0</ele><time>2026-04-18T11:17:35.716Z</time></trkpt><trkpt lat="44.0913783" lon="11.3507333"><ele>592.0</ele><time>2026-04-18T11:17:36.717Z</time></trkpt><trkpt lat="44.09145" lon="11.350835"><ele>592.0</ele><time>2026-04-18T11:17:37.717Z</time></trkpt><trkpt lat="44.0915267" lon="11.3509417"><ele>592.0</ele><time>2026-04-18T11:17:38.717Z</time></trkpt><trkpt lat="44.0916017" lon="11.3510417"><ele>592.8000000000001</ele><time>2026-04-18T11:17:39.717Z</time></trkpt><trkpt lat="44.0916683" lon="11.3511583"><ele>593.6</ele><time>2026-04-18T11:17:40.716Z</time></trkpt><trkpt lat="44.0917283" lon="11.3512817"><ele>594.4000000000001</ele><time>2026-04-18T11:17:41.717Z</time></trkpt><trkpt lat="44.0917883" lon="11.3513867"><ele>595.2</ele><time>2026-04-18T11:17:42.716Z</time></trkpt><trkpt lat="44.0918367" lon="11.3514817"><ele>596.0</ele><time>2026-04-18T11:17:43.716Z</time></trkpt><trkpt lat="44.0918883" lon="11.35157"><ele>596.0</ele><time>2026-04-18T11:17:44.717Z</time></trkpt><trkpt lat="44.0919417" lon="11.351675"><ele>596.0</ele><time>2026-04-18T11:17:45.716Z</time></trkpt><trkpt lat="44.091985" lon="11.3517817"><ele>596.0</ele><time>2026-04-18T11:17:46.716Z</time></trkpt><trkpt lat="44.09202" lon="11.3518833"><ele>596.0</ele><time>2026-04-18T11:17:47.717Z</time></trkpt><trkpt lat="44.09205" lon="11.3519767"><ele>596.0</ele><time>2026-04-18T11:17:48.717Z</time></trkpt><trkpt lat="44.0920767" lon="11.3520767"><ele>596.0</ele><time>2026-04-18T11:17:49.717Z</time></trkpt><trkpt lat="44.0920967" lon="11.3521717"><ele>597.5</ele><time>2026-04-18T11:17:50.717Z</time></trkpt><trkpt lat="44.0921033" lon="11.3522617"><ele>599.0</ele><time>2026-04-18T11:17:51.716Z</time></trkpt><trkpt lat="44.09211" lon="11.3523517"><ele>600.5</ele><time>2026-04-18T11:17:52.716Z</time></trkpt><trkpt lat="44.0921267" lon="11.3525"><ele>602.0</ele><time>2026-04-18T11:17:54.717Z</time></trkpt><trkpt lat="44.092135" lon="11.3526"><ele>603.5</ele><time>2026-04-18T11:17:56.716Z</time></trkpt><trkpt lat="44.09216" lon="11.352705"><ele>605.0</ele><time>2026-04-18T11:17:58.716Z</time></trkpt><trkpt lat="44.0921933" lon="11.352825"><ele>605.0</ele><time>2026-04-18T11:18:00.716Z</time></trkpt><trkpt lat="44.0922283" lon="11.3530017"><ele>605.0</ele><time>2026-04-18T11:18:02.717Z</time></trkpt><trkpt lat="44.092245" lon="11.3531"><ele>605.0</ele><time>2026-04-18T11:18:03.716Z</time></trkpt><trkpt lat="44.0922617" lon="11.35321"><ele>605.0</ele><time>2026-04-18T11:18:05.716Z</time></trkpt><trkpt lat="44.092345" lon="11.3532217"><ele>605.0</ele><time>2026-04-18T11:18:08.716Z</time></trkpt><trkpt lat="44.0924267" lon="11.3532033"><ele>600.2</ele><time>2026-04-18T11:18:10.716Z</time></trkpt><trkpt lat="44.0925433" lon="11.3532333"><ele>595.4</ele><time>2026-04-18T11:18:12.716Z</time></trkpt><trkpt lat="44.0926133" lon="11.35328"><ele>590.6</ele><time>2026-04-18T11:18:13.717Z</time></trkpt><trkpt lat="44.09272" lon="11.3533783"><ele>585.8</ele><time>2026-04-18T11:18:15.716Z</time></trkpt><trkpt lat="44.0928167" lon="11.35344"><ele>581.0</ele><time>2026-04-18T11:18:17.717Z</time></trkpt><trkpt lat="44.0928983" lon="11.3535033"><ele>581.0</ele><time>2026-04-18T11:18:19.716Z</time></trkpt><trkpt lat="44.0930017" lon="11.3536017"><ele>581.0</ele><time>2026-04-18T11:18:21.716Z</time></trkpt><trkpt lat="44.0930733" lon="11.3537017"><ele>581.0</ele><time>2026-04-18T11:18:22.717Z</time></trkpt><trkpt lat="44.0931683" lon="11.3538017"><ele>581.0</ele><time>2026-04-18T11:18:23.717Z</time></trkpt><trkpt lat="44.0932733" lon="11.3539067"><ele>581.1666666666666</ele><time>2026-04-18T11:18:24.716Z</time></trkpt><trkpt lat="44.0933567" lon="11.3539817"><ele>581.3333333333333</ele><time>2026-04-18T11:18:25.716Z</time></trkpt><trkpt lat="44.0934317" lon="11.3540233"><ele>581.5</ele><time>2026-04-18T11:18:26.716Z</time></trkpt><trkpt lat="44.0935033" lon="11.3540417"><ele>581.6666666666666</ele><time>2026-04-18T11:18:27.716Z</time></trkpt><trkpt lat="44.0935767" lon="11.3540383"><ele>581.8333333333334</ele><time>2026-04-18T11:18:28.716Z</time></trkpt><trkpt lat="44.09365" lon="11.354005"><ele>582.0</ele><time>2026-04-18T11:18:29.716Z</time></trkpt><trkpt lat="44.0937233" lon="11.353965"><ele>582.0</ele><time>2026-04-18T11:18:30.716Z</time></trkpt><trkpt lat="44.0937867" lon="11.3539317"><ele>582.0</ele><time>2026-04-18T11:18:31.717Z</time></trkpt><trkpt lat="44.0938483" lon="11.3539017"><ele>582.0</ele><time>2026-04-18T11:18:32.715Z</time></trkpt><trkpt lat="44.093955" lon="11.3538883"><ele>582.0</ele><time>2026-04-18T11:18:34.715Z</time></trkpt><trkpt lat="44.0940817" lon="11.3539283"><ele>582.0</ele><time>2026-04-18T11:18:36.716Z</time></trkpt><trkpt lat="44.0941517" lon="11.3539817"><ele>583.5</ele><time>2026-04-18T11:18:37.716Z</time></trkpt><trkpt lat="44.0942333" lon="11.3540683"><ele>585.0</ele><time>2026-04-18T11:18:38.715Z</time></trkpt><trkpt lat="44.0943167" lon="11.3541817"><ele>586.5</ele><time>2026-04-18T11:18:39.715Z</time></trkpt><trkpt lat="44.09441" lon="11.3542817"><ele>588.0</ele><time>2026-04-18T11:18:40.716Z</time></trkpt><trkpt lat="44.094515" lon="11.35437"><ele>588.0</ele><time>2026-04-18T11:18:41.716Z</time></trkpt><trkpt lat="44.09462" lon="11.35445"><ele>588.0</ele><time>2026-04-18T11:18:42.715Z</time></trkpt><trkpt lat="44.094725" lon="11.3545217"><ele>588.0</ele><time>2026-04-18T11:18:43.716Z</time></trkpt><trkpt lat="44.0948117" lon="11.3545817"><ele>588.0</ele><time>2026-04-18T11:18:44.715Z</time></trkpt><trkpt lat="44.0948917" lon="11.3546383"><ele>588.0</ele><time>2026-04-18T11:18:45.715Z</time></trkpt><trkpt lat="44.094975" lon="11.354685"><ele>589.0</ele><time>2026-04-18T11:18:46.715Z</time></trkpt><trkpt lat="44.0950717" lon="11.3547417"><ele>590.0</ele><time>2026-04-18T11:18:47.715Z</time></trkpt><trkpt lat="44.0951583" lon="11.3547983"><ele>591.0</ele><time>2026-04-18T11:18:48.715Z</time></trkpt><trkpt lat="44.0952483" lon="11.3548567"><ele>592.0</ele><time>2026-04-18T11:18:49.716Z</time></trkpt><trkpt lat="44.0953467" lon="11.354915"><ele>593.0</ele><time>2026-04-18T11:18:50.715Z</time></trkpt><trkpt lat="44.09545" lon="11.354985"><ele>593.0</ele><time>2026-04-18T11:18:51.715Z</time></trkpt><trkpt lat="44.095555" lon="11.3550783"><ele>593.0</ele><time>2026-04-18T11:18:52.715Z</time></trkpt><trkpt lat="44.0956417" lon="11.3551867"><ele>593.0</ele><time>2026-04-18T11:18:53.715Z</time></trkpt><trkpt lat="44.0957183" lon="11.3552917"><ele>593.0</ele><time>2026-04-18T11:18:54.716Z</time></trkpt><trkpt lat="44.095785" lon="11.3553917"><ele>593.0</ele><time>2026-04-18T11:18:55.715Z</time></trkpt><trkpt lat="44.095845" lon="11.3554833"><ele>595.0</ele><time>2026-04-18T11:18:56.715Z</time></trkpt><trkpt lat="44.0958917" lon="11.3555917"><ele>597.0</ele><time>2026-04-18T11:18:57.716Z</time></trkpt><trkpt lat="44.09593" lon="11.3557233"><ele>599.0</ele><time>2026-04-18T11:18:58.715Z</time></trkpt><trkpt lat="44.0959667" lon="11.3558683"><ele>601.0</ele><time>2026-04-18T11:18:59.715Z</time></trkpt><trkpt lat="44.0960067" lon="11.3560233"><ele>603.0</ele><time>2026-04-18T11:19:00.715Z</time></trkpt><trkpt lat="44.0960367" lon="11.35616"><ele>603.0</ele><time>2026-04-18T11:19:01.715Z</time></trkpt><trkpt lat="44.0960667" lon="11.356275"><ele>603.0</ele><time>2026-04-18T11:19:02.715Z</time></trkpt><trkpt lat="44.0960933" lon="11.3564033"><ele>603.0</ele><time>2026-04-18T11:19:03.715Z</time></trkpt><trkpt lat="44.0961183" lon="11.3565533"><ele>603.0</ele><time>2026-04-18T11:19:04.716Z</time></trkpt><trkpt lat="44.096155" lon="11.3567033"><ele>603.0</ele><time>2026-04-18T11:19:05.715Z</time></trkpt><trkpt lat="44.0962067" lon="11.356825"><ele>606.4</ele><time>2026-04-18T11:19:06.715Z</time></trkpt><trkpt lat="44.09628" lon="11.3569367"><ele>609.8</ele><time>2026-04-18T11:19:07.715Z</time></trkpt><trkpt lat="44.09636" lon="11.3570317"><ele>613.2</ele><time>2026-04-18T11:19:08.715Z</time></trkpt><trkpt lat="44.0964417" lon="11.3571133"><ele>616.6</ele><time>2026-04-18T11:19:09.716Z</time></trkpt><trkpt lat="44.0965183" lon="11.35718"><ele>620.0</ele><time>2026-04-18T11:19:10.716Z</time></trkpt><trkpt lat="44.0966033" lon="11.357225"><ele>621.0</ele><time>2026-04-18T11:19:11.715Z</time></trkpt><trkpt lat="44.0967133" lon="11.3572667"><ele>622.0</ele><time>2026-04-18T11:19:12.715Z</time></trkpt><trkpt lat="44.09681" lon="11.3573267"><ele>623.0</ele><time>2026-04-18T11:19:13.715Z</time></trkpt><trkpt lat="44.0969233" lon="11.357405"><ele>624.0</ele><time>2026-04-18T11:19:14.715Z</time></trkpt><trkpt lat="44.0970367" lon="11.3574933"><ele>624.0</ele><time>2026-04-18T11:19:15.715Z</time></trkpt><trkpt lat="44.097115" lon="11.3575583"><ele>624.0</ele><time>2026-04-18T11:19:16.715Z</time></trkpt><trkpt lat="44.0971783" lon="11.35761"><ele>624.0</ele><time>2026-04-18T11:19:17.715Z</time></trkpt><trkpt lat="44.0972433" lon="11.3577417"><ele>624.0</ele><time>2026-04-18T11:19:19.716Z</time></trkpt><trkpt lat="44.0972517" lon="11.35783"><ele>624.0</ele><time>2026-04-18T11:19:20.715Z</time></trkpt><trkpt lat="44.097255" lon="11.3579317"><ele>624.0</ele><time>2026-04-18T11:19:21.716Z</time></trkpt><trkpt lat="44.0972717" lon="11.3580367"><ele>621.3333333333334</ele><time>2026-04-18T11:19:22.715Z</time></trkpt><trkpt lat="44.0972933" lon="11.3581283"><ele>618.6666666666666</ele><time>2026-04-18T11:19:23.715Z</time></trkpt><trkpt lat="44.0973333" lon="11.3582183"><ele>616.0</ele><time>2026-04-18T11:19:24.715Z</time></trkpt><trkpt lat="44.0973883" lon="11.3583133"><ele>613.3333333333333</ele><time>2026-04-18T11:19:25.716Z</time></trkpt><trkpt lat="44.0974417" lon="11.3583933"><ele>610.6666666666666</ele><time>2026-04-18T11:19:26.715Z</time></trkpt><trkpt lat="44.0974833" lon="11.35849"><ele>608.0</ele><time>2026-04-18T11:19:27.716Z</time></trkpt><trkpt lat="44.0975133" lon="11.35858"><ele>608.0</ele><time>2026-04-18T11:19:28.716Z</time></trkpt><trkpt lat="44.09753" lon="11.3586683"><ele>608.0</ele><time>2026-04-18T11:19:29.715Z</time></trkpt><trkpt lat="44.0975283" lon="11.35876"><ele>608.0</ele><time>2026-04-18T11:19:30.716Z</time></trkpt><trkpt lat="44.0975067" lon="11.35885"><ele>608.0</ele><time>2026-04-18T11:19:31.715Z</time></trkpt><trkpt lat="44.09747" lon="11.3589483"><ele>608.0</ele><time>2026-04-18T11:19:32.716Z</time></trkpt><trkpt lat="44.09743" lon="11.359065"><ele>608.0</ele><time>2026-04-18T11:19:33.716Z</time></trkpt><trkpt lat="44.0973933" lon="11.359195"><ele>618.25</ele><time>2026-04-18T11:19:34.716Z</time></trkpt><trkpt lat="44.097355" lon="11.3593467"><ele>628.5</ele><time>2026-04-18T11:19:35.715Z</time></trkpt><trkpt lat="44.0973117" lon="11.3595"><ele>638.75</ele><time>2026-04-18T11:19:36.715Z</time></trkpt><trkpt lat="44.097265" lon="11.35964"><ele>649.0</ele><time>2026-04-18T11:19:37.715Z</time></trkpt><trkpt lat="44.09723" lon="11.35978"><ele>649.0</ele><time>2026-04-18T11:19:38.715Z</time></trkpt><trkpt lat="44.0972183" lon="11.35991"><ele>649.0</ele><time>2026-04-18T11:19:39.716Z</time></trkpt><trkpt lat="44.0972217" lon="11.3600317"><ele>649.0</ele><time>2026-04-18T11:19:40.716Z</time></trkpt><trkpt lat="44.0972267" lon="11.3601583"><ele>649.0</ele><time>2026-04-18T11:19:41.715Z</time></trkpt><trkpt lat="44.097225" lon="11.3603"><ele>649.0</ele><time>2026-04-18T11:19:42.715Z</time></trkpt><trkpt lat="44.0972283" lon="11.3604367"><ele>646.4000000000001</ele><time>2026-04-18T11:19:43.715Z</time></trkpt><trkpt lat="44.097225" lon="11.360575"><ele>643.8000000000001</ele><time>2026-04-18T11:19:44.716Z</time></trkpt><trkpt lat="44.09722" lon="11.3607"><ele>641.2</ele><time>2026-04-18T11:19:45.715Z</time></trkpt><trkpt lat="44.0972033" lon="11.3608367"><ele>638.6</ele><time>2026-04-18T11:19:46.716Z</time></trkpt><trkpt lat="44.09718" lon="11.36097"><ele>636.0</ele><time>2026-04-18T11:19:47.716Z</time></trkpt><trkpt lat="44.0971533" lon="11.3611017"><ele>636.0</ele><time>2026-04-18T11:19:48.715Z</time></trkpt><trkpt lat="44.09714" lon="11.3612233"><ele>636.0</ele><time>2026-04-18T11:19:49.715Z</time></trkpt><trkpt lat="44.097145" lon="11.3613467"><ele>636.0</ele><time>2026-04-18T11:19:50.716Z</time></trkpt><trkpt lat="44.0971717" lon="11.36148"><ele>636.0</ele><time>2026-04-18T11:19:51.715Z</time></trkpt><trkpt lat="44.09722" lon="11.3616483"><ele>636.0</ele><time>2026-04-18T11:19:52.716Z</time></trkpt><trkpt lat="44.0972767" lon="11.3618283"><ele>632.5</ele><time>2026-04-18T11:19:53.716Z</time></trkpt><trkpt lat="44.09733" lon="11.36201"><ele>629.0</ele><time>2026-04-18T11:19:54.716Z</time></trkpt><trkpt lat="44.09739" lon="11.36215"><ele>625.5</ele><time>2026-04-18T11:19:55.715Z</time></trkpt><trkpt lat="44.09745" lon="11.3622583"><ele>622.0</ele><time>2026-04-18T11:19:56.715Z</time></trkpt><trkpt lat="44.0975117" lon="11.3623633"><ele>617.8333333333334</ele><time>2026-04-18T11:19:57.715Z</time></trkpt><trkpt lat="44.0975583" lon="11.3624683"><ele>613.6666666666667</ele><time>2026-04-18T11:19:58.715Z</time></trkpt><trkpt lat="44.0976033" lon="11.3625783"><ele>609.5</ele><time>2026-04-18T11:19:59.716Z</time></trkpt><trkpt lat="44.09763" lon="11.3626867"><ele>605.3333333333334</ele><time>2026-04-18T11:20:00.715Z</time></trkpt><trkpt lat="44.0976483" lon="11.3628083"><ele>601.1666666666666</ele><time>2026-04-18T11:20:01.715Z</time></trkpt><trkpt lat="44.0976517" lon="11.3629383"><ele>597.0</ele><time>2026-04-18T11:20:02.715Z</time></trkpt><trkpt lat="44.0976567" lon="11.3630767"><ele>597.0</ele><time>2026-04-18T11:20:03.716Z</time></trkpt><trkpt lat="44.0976617" lon="11.3632333"><ele>597.0</ele><time>2026-04-18T11:20:04.715Z</time></trkpt><trkpt lat="44.0976683" lon="11.3633933"><ele>597.0</ele><time>2026-04-18T11:20:05.716Z</time></trkpt><trkpt lat="44.0976883" lon="11.3635333"><ele>597.0</ele><time>2026-04-18T11:20:06.716Z</time></trkpt><trkpt lat="44.0977317" lon="11.36368"><ele>597.0</ele><time>2026-04-18T11:20:07.715Z</time></trkpt><trkpt lat="44.097795" lon="11.3638433"><ele>598.0</ele><time>2026-04-18T11:20:08.715Z</time></trkpt><trkpt lat="44.0978633" lon="11.364005"><ele>599.0</ele><time>2026-04-18T11:20:09.715Z</time></trkpt><trkpt lat="44.0979217" lon="11.3641583"><ele>600.0</ele><time>2026-04-18T11:20:10.716Z</time></trkpt><trkpt lat="44.0979783" lon="11.3643083"><ele>601.0</ele><time>2026-04-18T11:20:11.715Z</time></trkpt><trkpt lat="44.0980417" lon="11.3644417"><ele>601.0</ele><time>2026-04-18T11:20:12.716Z</time></trkpt><trkpt lat="44.0981383" lon="11.36458"><ele>601.0</ele><time>2026-04-18T11:20:13.716Z</time></trkpt><trkpt lat="44.09824" lon="11.36471"><ele>601.0</ele><time>2026-04-18T11:20:14.715Z</time></trkpt><trkpt lat="44.0983317" lon="11.364815"><ele>601.0</ele><time>2026-04-18T11:20:15.715Z</time></trkpt><trkpt lat="44.0983917" lon="11.3648833"><ele>599.3333333333334</ele><time>2026-04-18T11:20:16.715Z</time></trkpt><trkpt lat="44.0984633" lon="11.3649567"><ele>597.6666666666667</ele><time>2026-04-18T11:20:18.715Z</time></trkpt><trkpt lat="44.09854" lon="11.3650183"><ele>596.0</ele><time>2026-04-18T11:25:25.713Z</time></trkpt><trkpt lat="44.0985967" lon="11.3650633"><ele>594.3333333333334</ele><time>2026-04-18T11:25:26.713Z</time></trkpt><trkpt lat="44.098665" lon="11.3651183"><ele>592.6666666666666</ele><time>2026-04-18T11:25:27.713Z</time></trkpt><trkpt lat="44.0987467" lon="11.3651817"><ele>591.0</ele><time>2026-04-18T11:25:28.713Z</time></trkpt><trkpt lat="44.0988367" lon="11.3652417"><ele>591.0</ele><time>2026-04-18T11:25:29.714Z</time></trkpt><trkpt lat="44.0989367" lon="11.3652883"><ele>591.0</ele><time>2026-04-18T11:25:30.713Z</time></trkpt><trkpt lat="44.09905" lon="11.3653333"><ele>591.0</ele><time>2026-04-18T11:25:31.713Z</time></trkpt><trkpt lat="44.0991683" lon="11.36537"><ele>591.0</ele><time>2026-04-18T11:25:32.713Z</time></trkpt><trkpt lat="44.09929" lon="11.3654083"><ele>589.75</ele><time>2026-04-18T11:25:33.713Z</time></trkpt><trkpt lat="44.099405" lon="11.36545"><ele>588.5</ele><time>2026-04-18T11:25:34.713Z</time></trkpt><trkpt lat="44.0995183" lon="11.365495"><ele>587.25</ele><time>2026-04-18T11:25:35.713Z</time></trkpt><trkpt lat="44.0996283" lon="11.3655333"><ele>586.0</ele><time>2026-04-18T11:25:36.713Z</time></trkpt><trkpt lat="44.0997367" lon="11.3655683"><ele>585.25</ele><time>2026-04-18T11:25:37.713Z</time></trkpt><trkpt lat="44.0998467" lon="11.365595"><ele>584.5</ele><time>2026-04-18T11:25:38.713Z</time></trkpt><trkpt lat="44.09997" lon="11.36564"><ele>583.75</ele><time>2026-04-18T11:25:39.714Z</time></trkpt><trkpt lat="44.1000733" lon="11.3656917"><ele>583.0</ele><time>2026-04-18T11:25:40.713Z</time></trkpt><trkpt lat="44.10017" lon="11.36575"><ele>584.4</ele><time>2026-04-18T11:25:41.713Z</time></trkpt><trkpt lat="44.1002583" lon="11.3658117"><ele>585.8</ele><time>2026-04-18T11:25:42.713Z</time></trkpt><trkpt lat="44.1003417" lon="11.3658833"><ele>587.2</ele><time>2026-04-18T11:25:43.713Z</time></trkpt><trkpt lat="44.1004317" lon="11.3659617"><ele>588.6</ele><time>2026-04-18T11:25:44.713Z</time></trkpt><trkpt lat="44.10052" lon="11.3660483"><ele>590.0</ele><time>2026-04-18T11:25:45.713Z</time></trkpt><trkpt lat="44.1006067" lon="11.3661417"><ele>590.0</ele><time>2026-04-18T11:25:46.713Z</time></trkpt><trkpt lat="44.100685" lon="11.3662517"><ele>590.0</ele><time>2026-04-18T11:25:47.713Z</time></trkpt><trkpt lat="44.1007583" lon="11.3663467"><ele>590.0</ele><time>2026-04-18T11:25:48.713Z</time></trkpt><trkpt lat="44.1008283" lon="11.3664417"><ele>590.0</ele><time>2026-04-18T11:25:49.713Z</time></trkpt><trkpt lat="44.1009" lon="11.3665283"><ele>590.0</ele><time>2026-04-18T11:25:50.713Z</time></trkpt><trkpt lat="44.1009567" lon="11.366605"><ele>589.0</ele><time>2026-04-18T11:25:51.714Z</time></trkpt><trkpt lat="44.1010383" lon="11.3666667"><ele>588.0</ele><time>2026-04-18T11:25:52.713Z</time></trkpt><trkpt lat="44.1011283" lon="11.3667017"><ele>587.0</ele><time>2026-04-18T11:25:53.713Z</time></trkpt><trkpt lat="44.1012283" lon="11.36671"><ele>586.0</ele><time>2026-04-18T11:25:54.714Z</time></trkpt><trkpt lat="44.1013333" lon="11.36671"><ele>585.0</ele><time>2026-04-18T11:25:55.713Z</time></trkpt><trkpt lat="44.101445" lon="11.366705"><ele>585.0</ele><time>2026-04-18T11:25:56.713Z</time></trkpt><trkpt lat="44.1015683" lon="11.3667067"><ele>585.0</ele><time>2026-04-18T11:25:57.713Z</time></trkpt><trkpt lat="44.1017133" lon="11.3667183"><ele>585.0</ele><time>2026-04-18T11:25:58.713Z</time></trkpt><trkpt lat="44.1018517" lon="11.3667383"><ele>585.0</ele><time>2026-04-18T11:25:59.714Z</time></trkpt><trkpt lat="44.1019917" lon="11.3667517"><ele>585.4</ele><time>2026-04-18T11:26:00.714Z</time></trkpt><trkpt lat="44.1021117" lon="11.3667417"><ele>585.8</ele><time>2026-04-18T11:26:01.713Z</time></trkpt><trkpt lat="44.102215" lon="11.366705"><ele>586.2</ele><time>2026-04-18T11:26:02.713Z</time></trkpt><trkpt lat="44.102305" lon="11.36665"><ele>586.6</ele><time>2026-04-18T11:26:03.713Z</time></trkpt><trkpt lat="44.1023817" lon="11.3666067"><ele>587.0</ele><time>2026-04-18T11:26:04.714Z</time></trkpt><trkpt lat="44.1024583" lon="11.3665767"><ele>588.2</ele><time>2026-04-18T11:26:05.714Z</time></trkpt><trkpt lat="44.102565" lon="11.36656"><ele>589.4000000000001</ele><time>2026-04-18T11:26:06.713Z</time></trkpt><trkpt lat="44.1026783" lon="11.3665467"><ele>590.5999999999999</ele><time>2026-04-18T11:26:07.713Z</time></trkpt><trkpt lat="44.1027817" lon="11.3665367"><ele>591.8</ele><time>2026-04-18T11:26:08.714Z</time></trkpt><trkpt lat="44.1028767" lon="11.36654"><ele>593.0</ele><time>2026-04-18T11:26:09.713Z</time></trkpt><trkpt lat="44.1029683" lon="11.3665533"><ele>593.0</ele><time>2026-04-18T11:26:10.713Z</time></trkpt><trkpt lat="44.10305" lon="11.36658"><ele>593.0</ele><time>2026-04-18T11:26:11.714Z</time></trkpt><trkpt lat="44.103145" lon="11.3666117"><ele>593.0</ele><time>2026-04-18T11:26:12.713Z</time></trkpt><trkpt lat="44.10324" lon="11.3666467"><ele>593.0</ele><time>2026-04-18T11:26:13.713Z</time></trkpt><trkpt lat="44.1033383" lon="11.3666683"><ele>593.0</ele><time>2026-04-18T11:26:14.714Z</time></trkpt><trkpt lat="44.1034467" lon="11.3666867"><ele>591.4</ele><time>2026-04-18T11:26:15.713Z</time></trkpt><trkpt lat="44.1035583" lon="11.3667033"><ele>589.8</ele><time>2026-04-18T11:26:16.714Z</time></trkpt><trkpt lat="44.1036633" lon="11.3667317"><ele>588.2</ele><time>2026-04-18T11:26:17.713Z</time></trkpt><trkpt lat="44.1037567" lon="11.3667717"><ele>586.6</ele><time>2026-04-18T11:26:18.713Z</time></trkpt><trkpt lat="44.10385" lon="11.3668117"><ele>585.0</ele><time>2026-04-18T11:26:19.713Z</time></trkpt><trkpt lat="44.103945" lon="11.366845"><ele>585.0</ele><time>2026-04-18T11:26:20.714Z</time></trkpt><trkpt lat="44.1040433" lon="11.3668917"><ele>585.0</ele><time>2026-04-18T11:26:21.713Z</time></trkpt><trkpt lat="44.1041383" lon="11.3669633"><ele>585.0</ele><time>2026-04-18T11:26:22.714Z</time></trkpt><trkpt lat="44.1042367" lon="11.36705"><ele>585.0</ele><time>2026-04-18T11:26:23.713Z</time></trkpt><trkpt lat="44.1043483" lon="11.36713"><ele>584.25</ele><time>2026-04-18T11:26:24.714Z</time></trkpt><trkpt lat="44.104465" lon="11.3672083"><ele>583.5</ele><time>2026-04-18T11:26:25.713Z</time></trkpt><trkpt lat="44.1045917" lon="11.3672733"><ele>582.75</ele><time>2026-04-18T11:26:26.713Z</time></trkpt><trkpt lat="44.1047183" lon="11.36732"><ele>582.0</ele><time>2026-04-18T11:26:27.714Z</time></trkpt><trkpt lat="44.104835" lon="11.3673483"><ele>583.0</ele><time>2026-04-18T11:26:28.713Z</time></trkpt><trkpt lat="44.1049367" lon="11.3673617"><ele>584.0</ele><time>2026-04-18T11:26:29.714Z</time></trkpt><trkpt lat="44.1050317" lon="11.36736"><ele>585.0</ele><time>2026-04-18T11:26:30.713Z</time></trkpt><trkpt lat="44.1051117" lon="11.3673567"><ele>586.0</ele><time>2026-04-18T11:26:31.714Z</time></trkpt><trkpt lat="44.1052333" lon="11.367355"><ele>587.0</ele><time>2026-04-18T11:26:33.713Z</time></trkpt><trkpt lat="44.1052967" lon="11.3673467"><ele>587.0</ele><time>2026-04-18T11:26:34.714Z</time></trkpt><trkpt lat="44.10541" lon="11.3673167"><ele>587.0</ele><time>2026-04-18T11:26:36.713Z</time></trkpt><trkpt lat="44.1055217" lon="11.367315"><ele>587.0</ele><time>2026-04-18T11:26:38.714Z</time></trkpt><trkpt lat="44.1056233" lon="11.3673233"><ele>587.0</ele><time>2026-04-18T11:26:40.714Z</time></trkpt><trkpt lat="44.1057267" lon="11.3673317"><ele>587.0</ele><time>2026-04-18T11:26:42.713Z</time></trkpt><trkpt lat="44.1058283" lon="11.3673567"><ele>585.4</ele><time>2026-04-18T11:26:44.713Z</time></trkpt><trkpt lat="44.1059033" lon="11.367395"><ele>583.8000000000001</ele><time>2026-04-18T11:26:46.713Z</time></trkpt><trkpt lat="44.1059867" lon="11.3674417"><ele>582.2</ele><time>2026-04-18T11:26:48.714Z</time></trkpt><trkpt lat="44.1061117" lon="11.367495"><ele>580.6</ele><time>2026-04-18T11:26:50.713Z</time></trkpt><trkpt lat="44.1061883" lon="11.367535"><ele>579.0</ele><time>2026-04-18T11:26:51.714Z</time></trkpt><trkpt lat="44.1062617" lon="11.36758"><ele>579.0</ele><time>2026-04-18T11:26:52.713Z</time></trkpt><trkpt lat="44.10635" lon="11.3676383"><ele>579.0</ele><time>2026-04-18T11:26:53.714Z</time></trkpt><trkpt lat="44.1064317" lon="11.3676967"><ele>579.0</ele><time>2026-04-18T11:26:54.714Z</time></trkpt><trkpt lat="44.1065067" lon="11.36776"><ele>579.0</ele><time>2026-04-18T11:26:55.713Z</time></trkpt><trkpt lat="44.10658" lon="11.36782"><ele>579.0</ele><time>2026-04-18T11:26:56.714Z</time></trkpt><trkpt lat="44.1066517" lon="11.36789"><ele>577.6666666666666</ele><time>2026-04-18T11:26:57.713Z</time></trkpt><trkpt lat="44.1067117" lon="11.3679633"><ele>576.3333333333334</ele><time>2026-04-18T11:26:58.713Z</time></trkpt><trkpt lat="44.106765" lon="11.368045"><ele>575.0</ele><time>2026-04-18T11:26:59.713Z</time></trkpt><trkpt lat="44.106815" lon="11.36813"><ele>573.6666666666667</ele><time>2026-04-18T11:27:00.714Z</time></trkpt><trkpt lat="44.10685" lon="11.3682117"><ele>572.3333333333334</ele><time>2026-04-18T11:27:01.713Z</time></trkpt><trkpt lat="44.10689" lon="11.3682933"><ele>571.0</ele><time>2026-04-18T11:27:02.713Z</time></trkpt><trkpt lat="44.1069483" lon="11.368375"><ele>571.0</ele><time>2026-04-18T11:27:03.714Z</time></trkpt><trkpt lat="44.1070183" lon="11.3684533"><ele>571.0</ele><time>2026-04-18T11:27:04.714Z</time></trkpt><trkpt lat="44.1070983" lon="11.3685383"><ele>571.0</ele><time>2026-04-18T11:27:05.713Z</time></trkpt><trkpt lat="44.1071867" lon="11.3686"><ele>571.0</ele><time>2026-04-18T11:27:06.713Z</time></trkpt><trkpt lat="44.1072633" lon="11.368645"><ele>571.0</ele><time>2026-04-18T11:27:07.712Z</time></trkpt><trkpt lat="44.1073317" lon="11.368665"><ele>571.0</ele><time>2026-04-18T11:27:08.713Z</time></trkpt><trkpt lat="44.107395" lon="11.368665"><ele>570.2</ele><time>2026-04-18T11:27:09.713Z</time></trkpt><trkpt lat="44.1075033" lon="11.3686967"><ele>569.4000000000001</ele><time>2026-04-18T11:27:11.712Z</time></trkpt><trkpt lat="44.107595" lon="11.36879"><ele>568.6</ele><time>2026-04-18T11:27:13.713Z</time></trkpt><trkpt lat="44.107655" lon="11.36888"><ele>567.8000000000001</ele><time>2026-04-18T11:27:15.713Z</time></trkpt><trkpt lat="44.1077017" lon="11.368985"><ele>567.0</ele><time>2026-04-18T11:27:17.713Z</time></trkpt><trkpt lat="44.1077467" lon="11.369115"><ele>569.2</ele><time>2026-04-18T11:27:19.712Z</time></trkpt><trkpt lat="44.1077767" lon="11.3692367"><ele>571.4000000000001</ele><time>2026-04-18T11:27:21.712Z</time></trkpt><trkpt lat="44.1078367" lon="11.3693133"><ele>573.5999999999999</ele><time>2026-04-18T11:27:23.713Z</time></trkpt><trkpt lat="44.10789" lon="11.3693917"><ele>575.8</ele><time>2026-04-18T11:27:25.712Z</time></trkpt><trkpt lat="44.1079783" lon="11.3694817"><ele>578.0</ele><time>2026-04-18T11:27:27.712Z</time></trkpt><trkpt lat="44.1080417" lon="11.36958"><ele>578.0</ele><time>2026-04-18T11:27:29.712Z</time></trkpt><trkpt lat="44.108075" lon="11.3696833"><ele>578.0</ele><time>2026-04-18T11:27:31.712Z</time></trkpt><trkpt lat="44.1081183" lon="11.36977"><ele>578.0</ele><time>2026-04-18T11:27:34.713Z</time></trkpt><trkpt lat="44.1081717" lon="11.36986"><ele>578.0</ele><time>2026-04-18T11:27:37.713Z</time></trkpt><trkpt lat="44.1082033" lon="11.369965"><ele>578.0</ele><time>2026-04-18T11:27:40.712Z</time></trkpt><trkpt lat="44.108245" lon="11.3700617"><ele>578.0</ele><time>2026-04-18T11:29:15.712Z</time></trkpt><trkpt lat="44.10827" lon="11.3701583"><ele>576.5</ele><time>2026-04-18T11:29:18.712Z</time></trkpt><trkpt lat="44.1083033" lon="11.3703017"><ele>575.0</ele><time>2026-04-18T11:29:35.712Z</time></trkpt><trkpt lat="44.10833" lon="11.370415"><ele>573.5</ele><time>2026-04-18T11:29:38.712Z</time></trkpt><trkpt lat="44.1083983" lon="11.37051"><ele>572.0</ele><time>2026-04-18T11:29:41.712Z</time></trkpt><trkpt lat="44.1084667" lon="11.3705683"><ele>570.5</ele><time>2026-04-18T11:29:43.713Z</time></trkpt><trkpt lat="44.10854" lon="11.3706017"><ele>569.0</ele><time>2026-04-18T11:29:46.712Z</time></trkpt><trkpt lat="44.1086117" lon="11.3706067"><ele>568.8333333333333</ele><time>2026-04-18T11:29:49.711Z</time></trkpt><trkpt lat="44.1086783" lon="11.3706267"><ele>568.6666666666666</ele><time>2026-04-18T11:30:01.711Z</time></trkpt><trkpt lat="44.108755" lon="11.370635"><ele>568.5</ele><time>2026-04-18T11:30:03.712Z</time></trkpt><trkpt lat="44.108825" lon="11.3706817"><ele>568.3333333333334</ele><time>2026-04-18T11:30:06.711Z</time></trkpt><trkpt lat="44.1088567" lon="11.3707633"><ele>568.1666666666667</ele><time>2026-04-18T11:30:09.711Z</time></trkpt><trkpt lat="44.10879" lon="11.370675"><ele>568.0</ele><time>2026-04-18T11:42:43.706Z</time></trkpt><trkpt lat="44.1087217" lon="11.3706517"><ele>568.0</ele><time>2026-04-18T11:42:45.706Z</time></trkpt><trkpt lat="44.1086567" lon="11.370635"><ele>568.0</ele><time>2026-04-18T11:42:48.706Z</time></trkpt><trkpt lat="44.1085733" lon="11.3706333"><ele>568.0</ele><time>2026-04-18T11:42:51.707Z</time></trkpt><trkpt lat="44.1085067" lon="11.3706083"><ele>568.0</ele><time>2026-04-18T11:42:53.707Z</time></trkpt><trkpt lat="44.1084433" lon="11.3705833"><ele>568.0</ele><time>2026-04-18T11:42:55.706Z</time></trkpt><trkpt lat="44.108375" lon="11.3705183"><ele>568.0</ele><time>2026-04-18T11:42:58.707Z</time></trkpt><trkpt lat="44.1083267" lon="11.37041"><ele>568.1999999999999</ele><time>2026-04-18T11:43:01.706Z</time></trkpt><trkpt lat="44.1083033" lon="11.3703033"><ele>568.4</ele><time>2026-04-18T11:43:04.706Z</time></trkpt><trkpt lat="44.1082383" lon="11.3701133"><ele>568.5999999999999</ele><time>2026-04-18T11:43:28.706Z</time></trkpt><trkpt lat="44.1082183" lon="11.3700217"><ele>568.8</ele><time>2026-04-18T11:43:30.707Z</time></trkpt><trkpt lat="44.1081717" lon="11.36994"><ele>569.0</ele><time>2026-04-18T11:43:46.707Z</time></trkpt><trkpt lat="44.1081267" lon="11.369825"><ele>570.5</ele><time>2026-04-18T11:43:48.706Z</time></trkpt><trkpt lat="44.1080933" lon="11.3697233"><ele>572.0</ele><time>2026-04-18T11:43:50.706Z</time></trkpt><trkpt lat="44.1080367" lon="11.3696067"><ele>573.5</ele><time>2026-04-18T11:43:58.707Z</time></trkpt><trkpt lat="44.1079933" lon="11.3695167"><ele>575.0</ele><time>2026-04-18T12:43:24.686Z</time></trkpt><trkpt lat="44.107925" lon="11.3694383"><ele>576.5</ele><time>2026-04-18T12:43:27.685Z</time></trkpt><trkpt lat="44.1078767" lon="11.3693783"><ele>578.0</ele><time>2026-04-18T12:43:28.686Z</time></trkpt><trkpt lat="44.107825" lon="11.36931"><ele>578.0</ele><time>2026-04-18T12:43:29.685Z</time></trkpt><trkpt lat="44.1077583" lon="11.3691717"><ele>578.0</ele><time>2026-04-18T12:43:31.685Z</time></trkpt><trkpt lat="44.1077133" lon="11.3690317"><ele>578.0</ele><time>2026-04-18T12:43:33.686Z</time></trkpt><trkpt lat="44.1076567" lon="11.3688967"><ele>578.0</ele><time>2026-04-18T12:43:35.685Z</time></trkpt><trkpt lat="44.1076033" lon="11.368795"><ele>578.0</ele><time>2026-04-18T12:43:37.685Z</time></trkpt><trkpt lat="44.1075267" lon="11.3687083"><ele>576.6</ele><time>2026-04-18T12:43:39.686Z</time></trkpt><trkpt lat="44.1074567" lon="11.3686817"><ele>575.1999999999999</ele><time>2026-04-18T12:43:41.685Z</time></trkpt><trkpt lat="44.1073633" lon="11.3686817"><ele>573.8</ele><time>2026-04-18T12:43:43.686Z</time></trkpt><trkpt lat="44.10728" lon="11.3686517"><ele>572.4</ele><time>2026-04-18T12:43:45.685Z</time></trkpt><trkpt lat="44.107165" lon="11.3685783"><ele>571.0</ele><time>2026-04-18T12:43:47.685Z</time></trkpt><trkpt lat="44.1070967" lon="11.36852"><ele>571.0</ele><time>2026-04-18T12:43:48.685Z</time></trkpt><trkpt lat="44.107035" lon="11.3684533"><ele>571.0</ele><time>2026-04-18T12:43:49.685Z</time></trkpt><trkpt lat="44.1069783" lon="11.368385"><ele>571.0</ele><time>2026-04-18T12:43:50.686Z</time></trkpt><trkpt lat="44.106925" lon="11.3683167"><ele>571.0</ele><time>2026-04-18T12:43:51.686Z</time></trkpt><trkpt lat="44.1068833" lon="11.3682433"><ele>571.0</ele><time>2026-04-18T12:43:52.685Z</time></trkpt><trkpt lat="44.1068417" lon="11.3681567"><ele>571.0</ele><time>2026-04-18T12:43:53.685Z</time></trkpt><trkpt lat="44.1068017" lon="11.36807"><ele>571.0</ele><time>2026-04-18T12:43:54.685Z</time></trkpt><trkpt lat="44.1067483" lon="11.3679917"><ele>570.6</ele><time>2026-04-18T12:43:55.686Z</time></trkpt><trkpt lat="44.106685" lon="11.3679183"><ele>570.2</ele><time>2026-04-18T12:43:56.686Z</time></trkpt><trkpt lat="44.10662" lon="11.3678433"><ele>569.8</ele><time>2026-04-18T12:43:57.685Z</time></trkpt><trkpt lat="44.1065317" lon="11.3677683"><ele>569.4</ele><time>2026-04-18T12:43:58.686Z</time></trkpt><trkpt lat="44.10642" lon="11.3676817"><ele>569.0</ele><time>2026-04-18T12:43:59.686Z</time></trkpt><trkpt lat="44.1063217" lon="11.3676033"><ele>571.0</ele><time>2026-04-18T12:44:00.686Z</time></trkpt><trkpt lat="44.1062267" lon="11.367545"><ele>573.0</ele><time>2026-04-18T12:44:01.686Z</time></trkpt><trkpt lat="44.1061367" lon="11.367495"><ele>575.0</ele><time>2026-04-18T12:44:02.686Z</time></trkpt><trkpt lat="44.1060483" lon="11.367455"><ele>577.0</ele><time>2026-04-18T12:44:03.686Z</time></trkpt><trkpt lat="44.105975" lon="11.36743"><ele>579.0</ele><time>2026-04-18T12:44:04.685Z</time></trkpt><trkpt lat="44.1058917" lon="11.3673867"><ele>579.0</ele><time>2026-04-18T12:44:06.685Z</time></trkpt><trkpt lat="44.1058383" lon="11.3673383"><ele>579.0</ele><time>2026-04-18T12:44:08.685Z</time></trkpt><trkpt lat="44.1057683" lon="11.3673383"><ele>579.0</ele><time>2026-04-18T12:44:10.686Z</time></trkpt><trkpt lat="44.1056917" lon="11.3673433"><ele>579.0</ele><time>2026-04-18T12:44:12.685Z</time></trkpt><trkpt lat="44.1056217" lon="11.36728"><ele>579.0</ele><time>2026-04-18T12:46:02.684Z</time></trkpt><trkpt lat="44.10555" lon="11.36729"><ele>579.0</ele><time>2026-04-18T12:46:04.684Z</time></trkpt><trkpt lat="44.1056317" lon="11.36732"><ele>579.0</ele><time>2026-04-18T12:46:10.684Z</time></trkpt><trkpt lat="44.1056983" lon="11.3673267"><ele>579.0</ele><time>2026-04-18T12:46:12.684Z</time></trkpt><trkpt lat="44.1057717" lon="11.3673233"><ele>579.0</ele><time>2026-04-18T12:46:14.684Z</time></trkpt><trkpt lat="44.1058367" lon="11.3673083"><ele>579.0</ele><time>2026-04-18T12:46:17.685Z</time></trkpt><trkpt lat="44.1059017" lon="11.367245"><ele>579.0</ele><time>2026-04-18T12:46:19.685Z</time></trkpt><trkpt lat="44.10596" lon="11.3671467"><ele>579.0</ele><time>2026-04-18T12:46:21.685Z</time></trkpt><trkpt lat="44.1060383" lon="11.36706"><ele>578.4</ele><time>2026-04-18T12:46:23.685Z</time></trkpt><trkpt lat="44.1061183" lon="11.3670067"><ele>577.8</ele><time>2026-04-18T12:46:25.684Z</time></trkpt><trkpt lat="44.10617" lon="11.366955"><ele>577.2</ele><time>2026-04-18T12:46:27.684Z</time></trkpt><trkpt lat="44.1061517" lon="11.3668267"><ele>576.6</ele><time>2026-04-18T12:46:30.685Z</time></trkpt><trkpt lat="44.1061317" lon="11.3666967"><ele>576.0</ele><time>2026-04-18T12:46:32.684Z</time></trkpt><trkpt lat="44.1061067" lon="11.3665383"><ele>576.0</ele><time>2026-04-18T12:46:34.684Z</time></trkpt><trkpt lat="44.106085" lon="11.3663817"><ele>576.0</ele><time>2026-04-18T12:46:36.684Z</time></trkpt><trkpt lat="44.106075" lon="11.3662933"><ele>576.0</ele><time>2026-04-18T12:46:37.684Z</time></trkpt><trkpt lat="44.1060517" lon="11.3661817"><ele>576.0</ele><time>2026-04-18T12:46:38.684Z</time></trkpt><trkpt lat="44.10602" lon="11.366085"><ele>576.0</ele><time>2026-04-18T12:46:39.685Z</time></trkpt><trkpt lat="44.105995" lon="11.3659933"><ele>576.0</ele><time>2026-04-18T12:46:40.684Z</time></trkpt><trkpt lat="44.1059683" lon="11.3658983"><ele>574.3333333333334</ele><time>2026-04-18T12:46:41.685Z</time></trkpt><trkpt lat="44.1059433" lon="11.365735"><ele>572.6666666666666</ele><time>2026-04-18T12:46:43.685Z</time></trkpt><trkpt lat="44.1059433" lon="11.365635"><ele>571.0</ele><time>2026-04-18T12:46:45.684Z</time></trkpt><trkpt lat="44.1059683" lon="11.3655233"><ele>569.3333333333333</ele><time>2026-04-18T12:47:14.685Z</time></trkpt><trkpt lat="44.1060017" lon="11.3654483"><ele>567.6666666666666</ele><time>2026-04-18T12:47:16.685Z</time></trkpt><trkpt lat="44.106025" lon="11.3653217"><ele>566.0</ele><time>2026-04-18T12:47:19.684Z</time></trkpt><trkpt lat="44.1060233" lon="11.3652183"><ele>565.0</ele><time>2026-04-18T12:47:21.685Z</time></trkpt><trkpt lat="44.1060083" lon="11.3651267"><ele>564.0</ele><time>2026-04-18T12:47:23.684Z</time></trkpt><trkpt lat="44.10604" lon="11.3650483"><ele>563.0</ele><time>2026-04-18T12:47:26.685Z</time></trkpt><trkpt lat="44.1061083" lon="11.3650533"><ele>562.0</ele><time>2026-04-18T12:47:29.684Z</time></trkpt><trkpt lat="44.1061467" lon="11.3649483"><ele>561.0</ele><time>2026-04-18T12:47:32.684Z</time></trkpt><trkpt lat="44.10613" lon="11.36485"><ele>560.0</ele><time>2026-04-18T12:47:36.685Z</time></trkpt><trkpt lat="44.1061383" lon="11.3647367"><ele>559.0</ele><time>2026-04-18T12:47:39.684Z</time></trkpt><trkpt lat="44.1061483" lon="11.36464"><ele>556.6666666666667</ele><time>2026-04-18T12:47:41.685Z</time></trkpt><trkpt lat="44.106175" lon="11.364545"><ele>554.3333333333334</ele><time>2026-04-18T12:47:43.685Z</time></trkpt><trkpt lat="44.1062117" lon="11.364435"><ele>552.0</ele><time>2026-04-18T12:47:45.684Z</time></trkpt><trkpt lat="44.1062483" lon="11.3643483"><ele>549.6666666666666</ele><time>2026-04-18T12:47:47.684Z</time></trkpt><trkpt lat="44.106295" lon="11.3642583"><ele>547.3333333333333</ele><time>2026-04-18T12:47:50.684Z</time></trkpt><trkpt lat="44.1063333" lon="11.36414"><ele>545.0</ele><time>2026-04-18T12:47:53.685Z</time></trkpt><trkpt lat="44.1063667" lon="11.36404"><ele>545.0</ele><time>2026-04-18T12:47:56.685Z</time></trkpt><trkpt lat="44.1064117" lon="11.3639533"><ele>545.0</ele><time>2026-04-18T12:47:59.684Z</time></trkpt><trkpt lat="44.1064633" lon="11.36383"><ele>545.0</ele><time>2026-04-18T12:48:12.683Z</time></trkpt><trkpt lat="44.1064917" lon="11.363735"><ele>545.0</ele><time>2026-04-18T12:48:14.683Z</time></trkpt><trkpt lat="44.1065233" lon="11.3636367"><ele>545.0</ele><time>2026-04-18T12:48:16.684Z</time></trkpt><trkpt lat="44.1065633" lon="11.3635383"><ele>545.0</ele><time>2026-04-18T12:48:18.683Z</time></trkpt><trkpt lat="44.1066117" lon="11.36344"><ele>542.8333333333333</ele><time>2026-04-18T12:48:20.683Z</time></trkpt><trkpt lat="44.1066617" lon="11.3633533"><ele>540.6666666666666</ele><time>2026-04-18T12:48:22.684Z</time></trkpt><trkpt lat="44.1067167" lon="11.3632483"><ele>538.5</ele><time>2026-04-18T12:48:25.683Z</time></trkpt><trkpt lat="44.1067667" lon="11.3631717"><ele>536.3333333333334</ele><time>2026-04-18T12:48:27.683Z</time></trkpt><trkpt lat="44.1068183" lon="11.36309"><ele>534.1666666666667</ele><time>2026-04-18T12:48:29.684Z</time></trkpt><trkpt lat="44.1068583" lon="11.363015"><ele>532.0</ele><time>2026-04-18T12:48:31.684Z</time></trkpt><trkpt lat="44.10689" lon="11.3629117"><ele>529.6666666666667</ele><time>2026-04-18T12:48:33.683Z</time></trkpt><trkpt lat="44.106945" lon="11.3628317"><ele>527.3333333333334</ele><time>2026-04-18T12:48:35.684Z</time></trkpt><trkpt lat="44.1069833" lon="11.3627517"><ele>525.0</ele><time>2026-04-18T12:48:37.684Z</time></trkpt><trkpt lat="44.1069883" lon="11.3626567"><ele>522.6666666666666</ele><time>2026-04-18T12:48:40.683Z</time></trkpt><trkpt lat="44.107015" lon="11.3625433"><ele>520.3333333333333</ele><time>2026-04-18T12:48:43.684Z</time></trkpt><trkpt lat="44.107055" lon="11.362435"><ele>518.0</ele><time>2026-04-18T12:48:46.683Z</time></trkpt><trkpt lat="44.107085" lon="11.3623283"><ele>518.0</ele><time>2026-04-18T12:48:49.683Z</time></trkpt><trkpt lat="44.1071283" lon="11.3622383"><ele>518.0</ele><time>2026-04-18T12:48:51.683Z</time></trkpt><trkpt lat="44.1071567" lon="11.3621383"><ele>518.0</ele><time>2026-04-18T12:48:53.683Z</time></trkpt><trkpt lat="44.10717" lon="11.3620317"><ele>518.0</ele><time>2026-04-18T12:48:55.684Z</time></trkpt><trkpt lat="44.1071933" lon="11.361925"><ele>518.0</ele><time>2026-04-18T12:48:57.683Z</time></trkpt><trkpt lat="44.1072283" lon="11.361805"><ele>518.0</ele><time>2026-04-18T12:49:00.684Z</time></trkpt><trkpt lat="44.1072733" lon="11.3617083"><ele>516.4285714285714</ele><time>2026-04-18T12:49:03.683Z</time></trkpt><trkpt lat="44.1072983" lon="11.361625"><ele>514.8571428571429</ele><time>2026-04-18T12:49:05.683Z</time></trkpt><trkpt lat="44.107335" lon="11.361525"><ele>513.2857142857142</ele><time>2026-04-18T12:49:08.683Z</time></trkpt><trkpt lat="44.10737" lon="11.3614067"><ele>511.7142857142857</ele><time>2026-04-18T12:49:11.683Z</time></trkpt><trkpt lat="44.10741" lon="11.3613283"><ele>510.14285714285717</ele><time>2026-04-18T12:49:13.683Z</time></trkpt><trkpt lat="44.1074533" lon="11.3612567"><ele>508.57142857142856</ele><time>2026-04-18T12:49:15.684Z</time></trkpt><trkpt lat="44.107505" lon="11.36119"><ele>507.0</ele><time>2026-04-18T12:49:17.684Z</time></trkpt><trkpt lat="44.1075717" lon="11.36113"><ele>505.0</ele><time>2026-04-18T12:49:19.683Z</time></trkpt><trkpt lat="44.107645" lon="11.3611033"><ele>503.0</ele><time>2026-04-18T12:49:21.683Z</time></trkpt><trkpt lat="44.10771" lon="11.3610767"><ele>501.0</ele><time>2026-04-18T12:49:23.683Z</time></trkpt><trkpt lat="44.1077733" lon="11.3610117"><ele>499.0</ele><time>2026-04-18T12:49:26.683Z</time></trkpt><trkpt lat="44.1078083" lon="11.3609233"><ele>497.0</ele><time>2026-04-18T12:49:41.684Z</time></trkpt><trkpt lat="44.1077917" lon="11.3607767"><ele>495.0</ele><time>2026-04-18T12:49:43.684Z</time></trkpt><trkpt lat="44.1077667" lon="11.3606467"><ele>495.0</ele><time>2026-04-18T12:49:45.683Z</time></trkpt><trkpt lat="44.1077367" lon="11.3605433"><ele>495.0</ele><time>2026-04-18T12:49:47.684Z</time></trkpt><trkpt lat="44.1076733" lon="11.360445"><ele>495.0</ele><time>2026-04-18T12:49:50.683Z</time></trkpt><trkpt lat="44.1076067" lon="11.360395"><ele>495.0</ele><time>2026-04-18T12:49:52.683Z</time></trkpt><trkpt lat="44.1075383" lon="11.3603117"><ele>495.0</ele><time>2026-04-18T12:49:54.684Z</time></trkpt><trkpt lat="44.1074883" lon="11.360215"><ele>495.0</ele><time>2026-04-18T12:49:56.683Z</time></trkpt><trkpt lat="44.1074917" lon="11.3600467"><ele>493.3333333333333</ele><time>2026-04-18T12:49:58.683Z</time></trkpt><trkpt lat="44.1074967" lon="11.359945"><ele>491.66666666666663</ele><time>2026-04-18T12:49:59.684Z</time></trkpt><trkpt lat="44.1074933" lon="11.3598533"><ele>490.0</ele><time>2026-04-18T12:50:00.684Z</time></trkpt><trkpt lat="44.1074917" lon="11.3597583"><ele>488.3333333333333</ele><time>2026-04-18T12:50:01.683Z</time></trkpt><trkpt lat="44.10749" lon="11.3596667"><ele>486.66666666666663</ele><time>2026-04-18T12:50:02.684Z</time></trkpt><trkpt lat="44.10749" lon="11.35957"><ele>485.0</ele><time>2026-04-18T12:50:03.683Z</time></trkpt><trkpt lat="44.1074917" lon="11.3594083"><ele>483.66666666666663</ele><time>2026-04-18T12:50:05.683Z</time></trkpt><trkpt lat="44.1074933" lon="11.3592683"><ele>482.3333333333333</ele><time>2026-04-18T12:50:07.684Z</time></trkpt><trkpt lat="44.107445" lon="11.3591417"><ele>481.0</ele><time>2026-04-18T12:50:09.683Z</time></trkpt><trkpt lat="44.107395" lon="11.3590817"><ele>479.66666666666663</ele><time>2026-04-18T12:50:10.683Z</time></trkpt><trkpt lat="44.10734" lon="11.3590133"><ele>478.3333333333333</ele><time>2026-04-18T12:50:11.683Z</time></trkpt><trkpt lat="44.10728" lon="11.3589517"><ele>477.0</ele><time>2026-04-18T12:50:12.684Z</time></trkpt><trkpt lat="44.10721" lon="11.3588933"><ele>475.6666666666667</ele><time>2026-04-18T12:50:13.684Z</time></trkpt><trkpt lat="44.1071483" lon="11.3588267"><ele>474.33333333333337</ele><time>2026-04-18T12:50:14.684Z</time></trkpt><trkpt lat="44.1070917" lon="11.35876"><ele>473.0</ele><time>2026-04-18T12:50:15.683Z</time></trkpt><trkpt lat="44.10704" lon="11.3586967"><ele>471.6666666666667</ele><time>2026-04-18T12:50:16.683Z</time></trkpt><trkpt lat="44.1069517" lon="11.3585967"><ele>470.33333333333337</ele><time>2026-04-18T12:50:18.683Z</time></trkpt><trkpt lat="44.1068767" lon="11.3585"><ele>469.0</ele><time>2026-04-18T12:50:20.683Z</time></trkpt><trkpt lat="44.1068267" lon="11.35842"><ele>469.0</ele><time>2026-04-18T12:50:22.684Z</time></trkpt><trkpt lat="44.1067967" lon="11.358315"><ele>469.0</ele><time>2026-04-18T12:50:24.684Z</time></trkpt><trkpt lat="44.10676" lon="11.3581917"><ele>469.0</ele><time>2026-04-18T12:50:26.684Z</time></trkpt><trkpt lat="44.1067217" lon="11.3580983"><ele>469.0</ele><time>2026-04-18T12:50:28.683Z</time></trkpt><trkpt lat="44.1066433" lon="11.3580583"><ele>469.0</ele><time>2026-04-18T12:50:31.683Z</time></trkpt><trkpt lat="44.1065283" lon="11.3580317"><ele>466.8571428571429</ele><time>2026-04-18T12:50:33.683Z</time></trkpt><trkpt lat="44.106465" lon="11.35801"><ele>464.7142857142857</ele><time>2026-04-18T12:50:34.683Z</time></trkpt><trkpt lat="44.1063983" lon="11.3579917"><ele>462.57142857142856</ele><time>2026-04-18T12:50:35.683Z</time></trkpt><trkpt lat="44.106335" lon="11.3579617"><ele>460.42857142857144</ele><time>2026-04-18T12:50:36.683Z</time></trkpt><trkpt lat="44.106275" lon="11.3579117"><ele>458.28571428571433</ele><time>2026-04-18T12:50:37.684Z</time></trkpt><trkpt lat="44.1062217" lon="11.357855"><ele>456.14285714285717</ele><time>2026-04-18T12:50:38.683Z</time></trkpt><trkpt lat="44.1061367" lon="11.3577583"><ele>454.0</ele><time>2026-04-18T12:50:40.684Z</time></trkpt><trkpt lat="44.1060417" lon="11.35771"><ele>454.00000000000006</ele><time>2026-04-18T12:50:42.683Z</time></trkpt><trkpt lat="44.1059633" lon="11.3577367"><ele>454.0</ele><time>2026-04-18T12:50:44.684Z</time></trkpt><trkpt lat="44.1058867" lon="11.357815"><ele>454.0</ele><time>2026-04-18T12:50:46.684Z</time></trkpt><trkpt lat="44.1058383" lon="11.3578733"><ele>454.0</ele><time>2026-04-18T12:50:47.684Z</time></trkpt><trkpt lat="44.1057917" lon="11.3579367"><ele>454.00000000000006</ele><time>2026-04-18T12:50:48.684Z</time></trkpt><trkpt lat="44.1057217" lon="11.35802"><ele>454.0</ele><time>2026-04-18T12:50:49.684Z</time></trkpt><trkpt lat="44.1056467" lon="11.3580867"><ele>454.33333333333337</ele><time>2026-04-18T12:50:50.683Z</time></trkpt><trkpt lat="44.1055817" lon="11.3581417"><ele>454.6666666666667</ele><time>2026-04-18T12:50:51.684Z</time></trkpt><trkpt lat="44.105495" lon="11.3582183"><ele>455.0</ele><time>2026-04-18T12:50:53.683Z</time></trkpt><trkpt lat="44.1054267" lon="11.3582067"><ele>455.33333333333337</ele><time>2026-04-18T12:50:55.683Z</time></trkpt><trkpt lat="44.1053867" lon="11.3580967"><ele>455.6666666666667</ele><time>2026-04-18T12:50:57.683Z</time></trkpt><trkpt lat="44.1053517" lon="11.357965"><ele>456.0</ele><time>2026-04-18T12:50:59.682Z</time></trkpt><trkpt lat="44.105345" lon="11.3578417"><ele>456.0</ele><time>2026-04-18T12:51:01.683Z</time></trkpt><trkpt lat="44.1053367" lon="11.3577167"><ele>456.0</ele><time>2026-04-18T12:51:03.683Z</time></trkpt><trkpt lat="44.105345" lon="11.3575717"><ele>456.0</ele><time>2026-04-18T12:51:05.683Z</time></trkpt><trkpt lat="44.1053633" lon="11.3574783"><ele>456.0</ele><time>2026-04-18T12:51:06.682Z</time></trkpt><trkpt lat="44.10537" lon="11.3573783"><ele>456.0</ele><time>2026-04-18T12:51:07.682Z</time></trkpt><trkpt lat="44.1053733" lon="11.3572817"><ele>456.0</ele><time>2026-04-18T12:51:08.682Z</time></trkpt><trkpt lat="44.1053883" lon="11.3571383"><ele>455.1666666666667</ele><time>2026-04-18T12:51:10.682Z</time></trkpt><trkpt lat="44.1054333" lon="11.3569883"><ele>454.33333333333337</ele><time>2026-04-18T12:51:12.683Z</time></trkpt><trkpt lat="44.1054683" lon="11.3569017"><ele>453.5</ele><time>2026-04-18T12:51:13.683Z</time></trkpt><trkpt lat="44.1055083" lon="11.3568167"><ele>452.6666666666667</ele><time>2026-04-18T12:51:14.683Z</time></trkpt><trkpt lat="44.10555" lon="11.3567283"><ele>451.83333333333337</ele><time>2026-04-18T12:51:15.682Z</time></trkpt><trkpt lat="44.1055917" lon="11.3566333"><ele>451.0</ele><time>2026-04-18T12:51:16.682Z</time></trkpt><trkpt lat="44.10563" lon="11.3565533"><ele>451.0</ele><time>2026-04-18T12:51:17.682Z</time></trkpt><trkpt lat="44.1056633" lon="11.3564783"><ele>451.0</ele><time>2026-04-18T12:51:18.683Z</time></trkpt><trkpt lat="44.1057333" lon="11.3563533"><ele>451.0</ele><time>2026-04-18T12:51:20.683Z</time></trkpt><trkpt lat="44.1058283" lon="11.3562533"><ele>451.0</ele><time>2026-04-18T12:51:22.682Z</time></trkpt><trkpt lat="44.10592" lon="11.3561467"><ele>451.0</ele><time>2026-04-18T12:51:24.682Z</time></trkpt><trkpt lat="44.1059667" lon="11.3560533"><ele>451.4</ele><time>2026-04-18T12:51:25.683Z</time></trkpt><trkpt lat="44.106015" lon="11.3559333"><ele>451.8</ele><time>2026-04-18T12:51:26.683Z</time></trkpt><trkpt lat="44.1060633" lon="11.35581"><ele>452.19999999999993</ele><time>2026-04-18T12:51:27.683Z</time></trkpt><trkpt lat="44.106125" lon="11.3557"><ele>452.59999999999997</ele><time>2026-04-18T12:51:28.682Z</time></trkpt><trkpt lat="44.1061767" lon="11.3555967"><ele>453.0</ele><time>2026-04-18T12:51:29.682Z</time></trkpt><trkpt lat="44.1062233" lon="11.355505"><ele>453.0</ele><time>2026-04-18T12:51:30.682Z</time></trkpt><trkpt lat="44.1062817" lon="11.3554133"><ele>452.99999999999994</ele><time>2026-04-18T12:51:31.682Z</time></trkpt><trkpt lat="44.1063483" lon="11.3553283"><ele>452.99999999999994</ele><time>2026-04-18T12:51:32.682Z</time></trkpt><trkpt lat="44.106445" lon="11.3552483"><ele>453.0</ele><time>2026-04-18T12:51:33.682Z</time></trkpt><trkpt lat="44.1065317" lon="11.3551717"><ele>453.0</ele><time>2026-04-18T12:51:34.683Z</time></trkpt><trkpt lat="44.1066083" lon="11.3550983"><ele>452.79999999999995</ele><time>2026-04-18T12:51:35.682Z</time></trkpt><trkpt lat="44.10668" lon="11.35501"><ele>452.59999999999997</ele><time>2026-04-18T12:51:36.682Z</time></trkpt><trkpt lat="44.1067583" lon="11.3548983"><ele>452.40000000000003</ele><time>2026-04-18T12:51:37.682Z</time></trkpt><trkpt lat="44.1068383" lon="11.3547833"><ele>452.20000000000005</ele><time>2026-04-18T12:51:38.683Z</time></trkpt><trkpt lat="44.1069033" lon="11.3546783"><ele>452.0</ele><time>2026-04-18T12:51:39.683Z</time></trkpt><trkpt lat="44.10696" lon="11.35459"><ele>452.0</ele><time>2026-04-18T12:51:40.682Z</time></trkpt><trkpt lat="44.1070117" lon="11.3545083"><ele>452.00000000000006</ele><time>2026-04-18T12:51:41.682Z</time></trkpt><trkpt lat="44.1071017" lon="11.35439"><ele>452.00000000000006</ele><time>2026-04-18T12:51:43.682Z</time></trkpt><trkpt lat="44.1071917" lon="11.3542783"><ele>452.0</ele><time>2026-04-18T12:51:45.682Z</time></trkpt><trkpt lat="44.1072417" lon="11.3542183"><ele>452.0</ele><time>2026-04-18T12:51:46.682Z</time></trkpt><trkpt lat="44.1073267" lon="11.3540733"><ele>451.99999999999994</ele><time>2026-04-18T12:51:48.682Z</time></trkpt><trkpt lat="44.1073817" lon="11.3540017"><ele>452.0</ele><time>2026-04-18T12:51:49.683Z</time></trkpt><trkpt lat="44.10743" lon="11.3539417"><ele>452.0</ele><time>2026-04-18T12:51:50.683Z</time></trkpt><trkpt lat="44.1074817" lon="11.3538767"><ele>452.0</ele><time>2026-04-18T12:51:51.683Z</time></trkpt><trkpt lat="44.107535" lon="11.3538183"><ele>451.99999999999994</ele><time>2026-04-18T12:51:52.682Z</time></trkpt><trkpt lat="44.1076233" lon="11.3537367"><ele>452.0</ele><time>2026-04-18T12:51:54.682Z</time></trkpt><trkpt lat="44.10773" lon="11.3537317"><ele>451.99999999999994</ele><time>2026-04-18T12:51:56.682Z</time></trkpt><trkpt lat="44.1077967" lon="11.3537533"><ele>452.0</ele><time>2026-04-18T12:51:57.683Z</time></trkpt><trkpt lat="44.10787" lon="11.3537867"><ele>452.0</ele><time>2026-04-18T12:51:58.682Z</time></trkpt><trkpt lat="44.1079467" lon="11.35382"><ele>452.0</ele><time>2026-04-18T12:51:59.683Z</time></trkpt><trkpt lat="44.1080317" lon="11.35385"><ele>451.99999999999994</ele><time>2026-04-18T12:52:00.682Z</time></trkpt><trkpt lat="44.1081167" lon="11.35388"><ele>452.0</ele><time>2026-04-18T12:52:01.682Z</time></trkpt><trkpt lat="44.108215" lon="11.3539167"><ele>450.0</ele><time>2026-04-18T12:52:02.683Z</time></trkpt><trkpt lat="44.1083267" lon="11.353965"><ele>448.00000000000006</ele><time>2026-04-18T12:52:03.683Z</time></trkpt><trkpt lat="44.1084367" lon="11.3540183"><ele>446.00000000000006</ele><time>2026-04-18T12:52:04.682Z</time></trkpt><trkpt lat="44.1085367" lon="11.35407"><ele>444.0</ele><time>2026-04-18T12:52:05.682Z</time></trkpt><trkpt lat="44.10862" lon="11.3541183"><ele>442.0</ele><time>2026-04-18T12:52:06.683Z</time></trkpt><trkpt lat="44.10872" lon="11.354145"><ele>442.00000000000006</ele><time>2026-04-18T12:52:08.683Z</time></trkpt><trkpt lat="44.10879" lon="11.3540817"><ele>442.0</ele><time>2026-04-18T12:52:11.682Z</time></trkpt><trkpt lat="44.1087833" lon="11.35399"><ele>442.0</ele><time>2026-04-18T12:52:13.682Z</time></trkpt><trkpt lat="44.1087817" lon="11.3539017"><ele>442.0</ele><time>2026-04-18T12:52:15.682Z</time></trkpt><trkpt lat="44.1088317" lon="11.3538283"><ele>442.00000000000006</ele><time>2026-04-18T12:52:18.682Z</time></trkpt><trkpt lat="44.10894" lon="11.3537933"><ele>442.0</ele><time>2026-04-18T12:52:26.682Z</time></trkpt><trkpt lat="44.1090267" lon="11.3537533"><ele>441.50000000000006</ele><time>2026-04-18T12:52:28.682Z</time></trkpt><trkpt lat="44.1090883" lon="11.3537133"><ele>441.0</ele><time>2026-04-18T12:52:29.682Z</time></trkpt><trkpt lat="44.1091483" lon="11.3536633"><ele>440.5</ele><time>2026-04-18T12:52:30.682Z</time></trkpt><trkpt lat="44.1092033" lon="11.35361"><ele>440.0</ele><time>2026-04-18T12:52:31.683Z</time></trkpt><trkpt lat="44.10925" lon="11.3535317"><ele>439.50000000000006</ele><time>2026-04-18T12:52:32.683Z</time></trkpt><trkpt lat="44.1092983" lon="11.3534133"><ele>439.0</ele><time>2026-04-18T12:52:33.682Z</time></trkpt><trkpt lat="44.10934" lon="11.35327"><ele>439.0</ele><time>2026-04-18T12:52:34.682Z</time></trkpt><trkpt lat="44.1093833" lon="11.3531333"><ele>439.0</ele><time>2026-04-18T12:52:35.683Z</time></trkpt><trkpt lat="44.1094267" lon="11.3530017"><ele>439.0</ele><time>2026-04-18T12:52:36.682Z</time></trkpt><trkpt lat="44.109445" lon="11.3528733"><ele>439.0</ele><time>2026-04-18T12:52:37.682Z</time></trkpt><trkpt lat="44.1094533" lon="11.3527483"><ele>439.0</ele><time>2026-04-18T12:52:38.682Z</time></trkpt><trkpt lat="44.10946" lon="11.3526183"><ele>439.2</ele><time>2026-04-18T12:52:39.682Z</time></trkpt><trkpt lat="44.1094633" lon="11.35249"><ele>439.4</ele><time>2026-04-18T12:52:40.682Z</time></trkpt><trkpt lat="44.109465" lon="11.3523367"><ele>439.6</ele><time>2026-04-18T12:52:41.682Z</time></trkpt><trkpt lat="44.1094617" lon="11.3522"><ele>439.8</ele><time>2026-04-18T12:52:42.683Z</time></trkpt><trkpt lat="44.1094533" lon="11.3520817"><ele>440.0</ele><time>2026-04-18T12:52:43.683Z</time></trkpt><trkpt lat="44.109445" lon="11.351975"><ele>440.2857142857143</ele><time>2026-04-18T12:52:44.682Z</time></trkpt><trkpt lat="44.1094483" lon="11.3518783"><ele>440.57142857142856</ele><time>2026-04-18T12:52:45.682Z</time></trkpt><trkpt lat="44.1094883" lon="11.3517733"><ele>440.8571428571429</ele><time>2026-04-18T12:52:47.683Z</time></trkpt><trkpt lat="44.10957" lon="11.3518117"><ele>441.1428571428571</ele><time>2026-04-18T12:52:50.682Z</time></trkpt><trkpt lat="44.10963" lon="11.35184"><ele>441.42857142857144</ele><time>2026-04-18T12:52:54.683Z</time></trkpt><trkpt lat="44.1096983" lon="11.3518383"><ele>441.7142857142857</ele><time>2026-04-18T12:52:57.682Z</time></trkpt><trkpt lat="44.109765" lon="11.35181"><ele>442.0</ele><time>2026-04-18T12:53:03.683Z</time></trkpt><trkpt lat="44.109845" lon="11.351775"><ele>442.1666666666667</ele><time>2026-04-18T12:53:05.683Z</time></trkpt><trkpt lat="44.1099317" lon="11.3517183"><ele>442.33333333333337</ele><time>2026-04-18T12:53:07.683Z</time></trkpt><trkpt lat="44.109975" lon="11.3516433"><ele>442.5</ele><time>2026-04-18T12:53:09.682Z</time></trkpt><trkpt lat="44.1099717" lon="11.3515133"><ele>442.66666666666663</ele><time>2026-04-18T12:53:11.682Z</time></trkpt><trkpt lat="44.1099483" lon="11.3514033"><ele>442.8333333333333</ele><time>2026-04-18T12:53:12.682Z</time></trkpt><trkpt lat="44.1099217" lon="11.3512733"><ele>443.0</ele><time>2026-04-18T12:53:13.682Z</time></trkpt><trkpt lat="44.1099083" lon="11.35116"><ele>442.99999999999994</ele><time>2026-04-18T12:53:14.682Z</time></trkpt><trkpt lat="44.1099267" lon="11.35104"><ele>443.0</ele><time>2026-04-18T12:53:16.682Z</time></trkpt><trkpt lat="44.110005" lon="11.3510367"><ele>443.0</ele><time>2026-04-18T12:53:19.683Z</time></trkpt><trkpt lat="44.11007" lon="11.3511317"><ele>443.0</ele><time>2026-04-18T12:53:21.682Z</time></trkpt><trkpt lat="44.110105" lon="11.3512117"><ele>442.99999999999994</ele><time>2026-04-18T12:53:22.682Z</time></trkpt><trkpt lat="44.1101367" lon="11.3512967"><ele>443.0</ele><time>2026-04-18T12:53:23.682Z</time></trkpt><trkpt lat="44.1101633" lon="11.3513767"><ele>443.0</ele><time>2026-04-18T12:53:24.682Z</time></trkpt><trkpt lat="44.1101867" lon="11.3514683"><ele>443.0</ele><time>2026-04-18T12:53:26.683Z</time></trkpt><trkpt lat="44.1102" lon="11.3515633"><ele>443.0</ele><time>2026-04-18T12:53:29.683Z</time></trkpt><trkpt lat="44.1102483" lon="11.3516883"><ele>443.0</ele><time>2026-04-18T12:53:31.683Z</time></trkpt><trkpt lat="44.1102767" lon="11.351775"><ele>443.0</ele><time>2026-04-18T12:53:32.682Z</time></trkpt><trkpt lat="44.1102967" lon="11.3518617"><ele>443.0</ele><time>2026-04-18T12:53:33.682Z</time></trkpt><trkpt lat="44.11032" lon="11.3519483"><ele>443.0</ele><time>2026-04-18T12:53:34.682Z</time></trkpt><trkpt lat="44.110345" lon="11.3520317"><ele>443.0</ele><time>2026-04-18T12:53:35.682Z</time></trkpt><trkpt lat="44.11037" lon="11.35212"><ele>443.0</ele><time>2026-04-18T12:53:36.683Z</time></trkpt><trkpt lat="44.1103983" lon="11.35221"><ele>443.0</ele><time>2026-04-18T12:53:37.682Z</time></trkpt><trkpt lat="44.11043" lon="11.3523083"><ele>443.0</ele><time>2026-04-18T12:53:38.682Z</time></trkpt><trkpt lat="44.1104617" lon="11.3524017"><ele>443.0</ele><time>2026-04-18T12:53:39.683Z</time></trkpt><trkpt lat="44.1104917" lon="11.3525033"><ele>443.0</ele><time>2026-04-18T12:53:40.682Z</time></trkpt><trkpt lat="44.110525" lon="11.3526017"><ele>443.0</ele><time>2026-04-18T12:53:41.682Z</time></trkpt><trkpt lat="44.110555" lon="11.3526967"><ele>442.99999999999994</ele><time>2026-04-18T12:53:42.683Z</time></trkpt><trkpt lat="44.1106033" lon="11.35279"><ele>443.0</ele><time>2026-04-18T12:53:43.682Z</time></trkpt><trkpt lat="44.1106483" lon="11.3528767"><ele>443.0</ele><time>2026-04-18T12:53:44.682Z</time></trkpt><trkpt lat="44.1107017" lon="11.3529667"><ele>443.0</ele><time>2026-04-18T12:53:45.683Z</time></trkpt><trkpt lat="44.11076" lon="11.3530567"><ele>442.99999999999994</ele><time>2026-04-18T12:53:46.682Z</time></trkpt><trkpt lat="44.110825" lon="11.3531483"><ele>443.0</ele><time>2026-04-18T12:53:47.681Z</time></trkpt><trkpt lat="44.1109" lon="11.35324"><ele>443.0</ele><time>2026-04-18T12:53:48.681Z</time></trkpt><trkpt lat="44.1109817" lon="11.3533333"><ele>442.99999999999994</ele><time>2026-04-18T12:53:49.681Z</time></trkpt><trkpt lat="44.1110617" lon="11.35342"><ele>442.99999999999994</ele><time>2026-04-18T12:53:50.681Z</time></trkpt><trkpt lat="44.11114" lon="11.3534983"><ele>443.0</ele><time>2026-04-18T12:53:51.681Z</time></trkpt><trkpt lat="44.11121" lon="11.3535733"><ele>443.0</ele><time>2026-04-18T12:53:52.682Z</time></trkpt><trkpt lat="44.111275" lon="11.3536567"><ele>443.0</ele><time>2026-04-18T12:53:53.681Z</time></trkpt><trkpt lat="44.1113483" lon="11.353735"><ele>442.99999999999994</ele><time>2026-04-18T12:53:54.682Z</time></trkpt><trkpt lat="44.1114167" lon="11.353815"><ele>442.99999999999994</ele><time>2026-04-18T12:53:55.681Z</time></trkpt><trkpt lat="44.1114917" lon="11.3539"><ele>443.0</ele><time>2026-04-18T12:53:56.681Z</time></trkpt><trkpt lat="44.11157" lon="11.3539833"><ele>443.0</ele><time>2026-04-18T12:53:57.681Z</time></trkpt><trkpt lat="44.1116567" lon="11.3540817"><ele>443.5</ele><time>2026-04-18T12:53:58.681Z</time></trkpt><trkpt lat="44.1117333" lon="11.3541833"><ele>444.0</ele><time>2026-04-18T12:53:59.681Z</time></trkpt><trkpt lat="44.1118067" lon="11.354305"><ele>444.5</ele><time>2026-04-18T12:54:00.682Z</time></trkpt><trkpt lat="44.11187" lon="11.35445"><ele>445.0</ele><time>2026-04-18T12:54:01.682Z</time></trkpt><trkpt lat="44.1119283" lon="11.3546217"><ele>444.0</ele><time>2026-04-18T12:54:02.681Z</time></trkpt><trkpt lat="44.111975" lon="11.354815"><ele>443.0</ele><time>2026-04-18T12:54:03.681Z</time></trkpt><trkpt lat="44.1120067" lon="11.35501"><ele>442.0</ele><time>2026-04-18T12:54:04.681Z</time></trkpt><trkpt lat="44.112025" lon="11.3552133"><ele>441.0</ele><time>2026-04-18T12:54:05.681Z</time></trkpt><trkpt lat="44.11205" lon="11.3554317"><ele>441.0</ele><time>2026-04-18T12:54:06.682Z</time></trkpt><trkpt lat="44.112085" lon="11.35565"><ele>441.0</ele><time>2026-04-18T12:54:07.682Z</time></trkpt><trkpt lat="44.11212" lon="11.3558783"><ele>441.0</ele><time>2026-04-18T12:54:08.681Z</time></trkpt><trkpt lat="44.11215" lon="11.356095"><ele>441.0</ele><time>2026-04-18T12:54:09.682Z</time></trkpt><trkpt lat="44.1121833" lon="11.35629"><ele>441.0</ele><time>2026-04-18T12:54:10.682Z</time></trkpt><trkpt lat="44.1122333" lon="11.3564817"><ele>441.0</ele><time>2026-04-18T12:54:11.681Z</time></trkpt><trkpt lat="44.1123033" lon="11.3566667"><ele>441.0</ele><time>2026-04-18T12:54:12.681Z</time></trkpt><trkpt lat="44.1123817" lon="11.3568483"><ele>440.66666666666663</ele><time>2026-04-18T12:54:13.682Z</time></trkpt><trkpt lat="44.11247" lon="11.3570167"><ele>440.3333333333333</ele><time>2026-04-18T12:54:14.682Z</time></trkpt><trkpt lat="44.1125667" lon="11.3571783"><ele>440.0</ele><time>2026-04-18T12:54:15.681Z</time></trkpt><trkpt lat="44.1126733" lon="11.3573367"><ele>439.0</ele><time>2026-04-18T12:54:16.681Z</time></trkpt><trkpt lat="44.1127917" lon="11.35748"><ele>438.0</ele><time>2026-04-18T12:54:17.681Z</time></trkpt><trkpt lat="44.1129117" lon="11.35761"><ele>437.0</ele><time>2026-04-18T12:54:18.682Z</time></trkpt><trkpt lat="44.1130283" lon="11.3577267"><ele>437.0</ele><time>2026-04-18T12:54:19.681Z</time></trkpt><trkpt lat="44.113145" lon="11.35784"><ele>437.0</ele><time>2026-04-18T12:54:20.681Z</time></trkpt><trkpt lat="44.1132583" lon="11.357955"><ele>437.0</ele><time>2026-04-18T12:54:21.681Z</time></trkpt><trkpt lat="44.11339" lon="11.3580733"><ele>437.0</ele><time>2026-04-18T12:54:22.682Z</time></trkpt><trkpt lat="44.1135183" lon="11.358195"><ele>436.66666666666663</ele><time>2026-04-18T12:54:23.681Z</time></trkpt><trkpt lat="44.1136533" lon="11.3583183"><ele>436.33333333333337</ele><time>2026-04-18T12:54:24.682Z</time></trkpt><trkpt lat="44.113785" lon="11.35845"><ele>436.0</ele><time>2026-04-18T12:54:25.681Z</time></trkpt><trkpt lat="44.1139083" lon="11.3585917"><ele>436.0</ele><time>2026-04-18T12:54:26.682Z</time></trkpt><trkpt lat="44.1140117" lon="11.3587567"><ele>436.0</ele><time>2026-04-18T12:54:27.681Z</time></trkpt><trkpt lat="44.1140967" lon="11.3589267"><ele>436.0</ele><time>2026-04-18T12:54:28.682Z</time></trkpt><trkpt lat="44.1141717" lon="11.3591067"><ele>437.0</ele><time>2026-04-18T12:54:29.682Z</time></trkpt><trkpt lat="44.1142467" lon="11.3592967"><ele>438.0</ele><time>2026-04-18T12:54:30.682Z</time></trkpt><trkpt lat="44.114325" lon="11.3594817"><ele>439.0</ele><time>2026-04-18T12:54:31.681Z</time></trkpt><trkpt lat="44.1144017" lon="11.3596683"><ele>437.6666666666667</ele><time>2026-04-18T12:54:32.682Z</time></trkpt><trkpt lat="44.11448" lon="11.35985"><ele>436.33333333333337</ele><time>2026-04-18T12:54:33.681Z</time></trkpt><trkpt lat="44.11456" lon="11.3600333"><ele>435.0</ele><time>2026-04-18T12:54:34.682Z</time></trkpt><trkpt lat="44.1146317" lon="11.3602117"><ele>435.0</ele><time>2026-04-18T12:54:35.681Z</time></trkpt><trkpt lat="44.1147067" lon="11.3603933"><ele>435.0</ele><time>2026-04-18T12:54:36.681Z</time></trkpt><trkpt lat="44.11478" lon="11.3605717"><ele>435.0</ele><time>2026-04-18T12:54:37.681Z</time></trkpt><trkpt lat="44.1148567" lon="11.3607433"><ele>435.0</ele><time>2026-04-18T12:54:38.682Z</time></trkpt><trkpt lat="44.1149467" lon="11.3609017"><ele>434.75</ele><time>2026-04-18T12:54:39.682Z</time></trkpt><trkpt lat="44.1150367" lon="11.3610583"><ele>434.5</ele><time>2026-04-18T12:54:40.681Z</time></trkpt><trkpt lat="44.1151317" lon="11.3612033"><ele>434.25</ele><time>2026-04-18T12:54:41.681Z</time></trkpt><trkpt lat="44.1152283" lon="11.361335"><ele>434.0</ele><time>2026-04-18T12:54:42.682Z</time></trkpt><trkpt lat="44.11533" lon="11.3614583"><ele>433.25</ele><time>2026-04-18T12:54:43.681Z</time></trkpt><trkpt lat="44.115435" lon="11.361575"><ele>432.5</ele><time>2026-04-18T12:54:44.681Z</time></trkpt><trkpt lat="44.1155317" lon="11.3616783"><ele>431.75</ele><time>2026-04-18T12:54:45.681Z</time></trkpt><trkpt lat="44.11563" lon="11.3617683"><ele>431.0</ele><time>2026-04-18T12:54:46.682Z</time></trkpt><trkpt lat="44.1157233" lon="11.36186"><ele>430.75</ele><time>2026-04-18T12:54:47.681Z</time></trkpt><trkpt lat="44.1158183" lon="11.3619517"><ele>430.5</ele><time>2026-04-18T12:54:48.682Z</time></trkpt><trkpt lat="44.1159167" lon="11.36204"><ele>430.25</ele><time>2026-04-18T12:54:49.682Z</time></trkpt><trkpt lat="44.1160217" lon="11.36213"><ele>430.0</ele><time>2026-04-18T12:54:50.682Z</time></trkpt><trkpt lat="44.116125" lon="11.3622217"><ele>430.0</ele><time>2026-04-18T12:54:51.681Z</time></trkpt><trkpt lat="44.1162333" lon="11.362315"><ele>430.0</ele><time>2026-04-18T12:54:52.682Z</time></trkpt><trkpt lat="44.1163333" lon="11.3624083"><ele>430.0</ele><time>2026-04-18T12:54:53.681Z</time></trkpt><trkpt lat="44.1164283" lon="11.3624983"><ele>430.0</ele><time>2026-04-18T12:54:54.681Z</time></trkpt><trkpt lat="44.1165117" lon="11.36258"><ele>430.6</ele><time>2026-04-18T12:54:55.681Z</time></trkpt><trkpt lat="44.1165933" lon="11.362655"><ele>431.2</ele><time>2026-04-18T12:54:56.681Z</time></trkpt><trkpt lat="44.11667" lon="11.362705"><ele>431.79999999999995</ele><time>2026-04-18T12:54:57.681Z</time></trkpt><trkpt lat="44.116755" lon="11.3627583"><ele>432.4</ele><time>2026-04-18T12:54:58.682Z</time></trkpt><trkpt lat="44.1168417" lon="11.3628233"><ele>433.0</ele><time>2026-04-18T12:54:59.681Z</time></trkpt><trkpt lat="44.1169233" lon="11.3629117"><ele>433.0</ele><time>2026-04-18T12:55:00.681Z</time></trkpt><trkpt lat="44.1169817" lon="11.363015"><ele>432.99999999999994</ele><time>2026-04-18T12:55:01.681Z</time></trkpt><trkpt lat="44.1170217" lon="11.3631283"><ele>432.99999999999994</ele><time>2026-04-18T12:55:02.682Z</time></trkpt><trkpt lat="44.1170383" lon="11.36325"><ele>433.0</ele><time>2026-04-18T12:55:03.682Z</time></trkpt><trkpt lat="44.1170417" lon="11.36338"><ele>433.0</ele><time>2026-04-18T12:55:04.681Z</time></trkpt><trkpt lat="44.117045" lon="11.3635067"><ele>432.4</ele><time>2026-04-18T12:55:05.681Z</time></trkpt><trkpt lat="44.1170467" lon="11.3636267"><ele>431.79999999999995</ele><time>2026-04-18T12:55:06.682Z</time></trkpt><trkpt lat="44.117045" lon="11.3637517"><ele>431.2</ele><time>2026-04-18T12:55:07.682Z</time></trkpt><trkpt lat="44.1170433" lon="11.3638783"><ele>430.6</ele><time>2026-04-18T12:55:08.681Z</time></trkpt><trkpt lat="44.117035" lon="11.3640133"><ele>430.0</ele><time>2026-04-18T12:55:09.681Z</time></trkpt><trkpt lat="44.1170283" lon="11.3641533"><ele>430.0</ele><time>2026-04-18T12:55:10.682Z</time></trkpt><trkpt lat="44.11703" lon="11.3643017"><ele>430.0</ele><time>2026-04-18T12:55:11.682Z</time></trkpt><trkpt lat="44.1170333" lon="11.36445"><ele>430.0</ele><time>2026-04-18T12:55:12.682Z</time></trkpt><trkpt lat="44.117035" lon="11.3646083"><ele>430.0</ele><time>2026-04-18T12:55:13.681Z</time></trkpt><trkpt lat="44.1170317" lon="11.3647683"><ele>430.0</ele><time>2026-04-18T12:55:14.682Z</time></trkpt><trkpt lat="44.1170083" lon="11.3649217"><ele>429.75</ele><time>2026-04-18T12:55:15.682Z</time></trkpt><trkpt lat="44.1169867" lon="11.3650783"><ele>429.5</ele><time>2026-04-18T12:55:16.681Z</time></trkpt><trkpt lat="44.1169617" lon="11.3652367"><ele>429.25</ele><time>2026-04-18T12:55:17.681Z</time></trkpt><trkpt lat="44.11693" lon="11.3654"><ele>429.0</ele><time>2026-04-18T12:55:18.682Z</time></trkpt><trkpt lat="44.116895" lon="11.36557"><ele>428.75</ele><time>2026-04-18T12:55:19.681Z</time></trkpt><trkpt lat="44.1168583" lon="11.365745"><ele>428.5</ele><time>2026-04-18T12:55:20.681Z</time></trkpt><trkpt lat="44.1168183" lon="11.3659317"><ele>428.25</ele><time>2026-04-18T12:55:21.682Z</time></trkpt><trkpt lat="44.116775" lon="11.3661233"><ele>428.0</ele><time>2026-04-18T12:55:22.681Z</time></trkpt><trkpt lat="44.11673" lon="11.3663167"><ele>427.66666666666663</ele><time>2026-04-18T12:55:23.681Z</time></trkpt><trkpt lat="44.116675" lon="11.3665183"><ele>427.33333333333337</ele><time>2026-04-18T12:55:24.681Z</time></trkpt><trkpt lat="44.1166233" lon="11.3667317"><ele>427.0</ele><time>2026-04-18T12:55:25.681Z</time></trkpt><trkpt lat="44.116575" lon="11.366945"><ele>427.0</ele><time>2026-04-18T12:55:26.682Z</time></trkpt><trkpt lat="44.1165267" lon="11.367165"><ele>427.0</ele><time>2026-04-18T12:55:27.681Z</time></trkpt><trkpt lat="44.1164883" lon="11.36739"><ele>427.0</ele><time>2026-04-18T12:55:28.681Z</time></trkpt><trkpt lat="44.1164633" lon="11.3676233"><ele>427.0</ele><time>2026-04-18T12:55:29.681Z</time></trkpt><trkpt lat="44.11645" lon="11.3678417"><ele>427.0</ele><time>2026-04-18T12:55:30.681Z</time></trkpt><trkpt lat="44.1164517" lon="11.3680467"><ele>427.0</ele><time>2026-04-18T12:55:31.681Z</time></trkpt><trkpt lat="44.1164583" lon="11.3682567"><ele>427.0</ele><time>2026-04-18T12:55:32.682Z</time></trkpt><trkpt lat="44.11647" lon="11.368465"><ele>427.0</ele><time>2026-04-18T12:55:33.682Z</time></trkpt><trkpt lat="44.11649" lon="11.3686717"><ele>427.0</ele><time>2026-04-18T12:55:34.681Z</time></trkpt><trkpt lat="44.1165133" lon="11.3688767"><ele>427.0</ele><time>2026-04-18T12:55:35.682Z</time></trkpt><trkpt lat="44.11654" lon="11.3690817"><ele>427.0</ele><time>2026-04-18T12:55:36.681Z</time></trkpt><trkpt lat="44.116565" lon="11.3692767"><ele>427.0</ele><time>2026-04-18T12:55:37.681Z</time></trkpt><trkpt lat="44.1165933" lon="11.3694733"><ele>427.0</ele><time>2026-04-18T12:55:38.681Z</time></trkpt><trkpt lat="44.116615" lon="11.36967"><ele>427.0</ele><time>2026-04-18T12:55:39.682Z</time></trkpt><trkpt lat="44.11663" lon="11.36986"><ele>426.25</ele><time>2026-04-18T12:55:40.682Z</time></trkpt><trkpt lat="44.1166567" lon="11.3700483"><ele>425.5</ele><time>2026-04-18T12:55:41.681Z</time></trkpt><trkpt lat="44.116675" lon="11.37023"><ele>424.75</ele><time>2026-04-18T12:55:42.682Z</time></trkpt><trkpt lat="44.1166983" lon="11.3704117"><ele>424.0</ele><time>2026-04-18T12:55:43.681Z</time></trkpt><trkpt lat="44.1167233" lon="11.37058"><ele>423.5</ele><time>2026-04-18T12:55:44.681Z</time></trkpt><trkpt lat="44.116745" lon="11.3707517"><ele>423.0</ele><time>2026-04-18T12:55:45.682Z</time></trkpt><trkpt lat="44.1167617" lon="11.37092"><ele>422.5</ele><time>2026-04-18T12:55:46.681Z</time></trkpt><trkpt lat="44.1167817" lon="11.3710867"><ele>422.0</ele><time>2026-04-18T12:55:47.681Z</time></trkpt><trkpt lat="44.1168017" lon="11.3712567"><ele>421.75</ele><time>2026-04-18T12:55:48.681Z</time></trkpt><trkpt lat="44.1168083" lon="11.3714283"><ele>421.5</ele><time>2026-04-18T12:55:49.681Z</time></trkpt><trkpt lat="44.1168117" lon="11.3715967"><ele>421.25</ele><time>2026-04-18T12:55:50.682Z</time></trkpt><trkpt lat="44.116815" lon="11.3717683"><ele>421.0</ele><time>2026-04-18T12:55:51.682Z</time></trkpt><trkpt lat="44.1168067" lon="11.3719517"><ele>421.0</ele><time>2026-04-18T12:55:52.681Z</time></trkpt><trkpt lat="44.1168" lon="11.3721367"><ele>421.0</ele><time>2026-04-18T12:55:53.681Z</time></trkpt><trkpt lat="44.1167833" lon="11.3723267"><ele>421.0</ele><time>2026-04-18T12:55:54.681Z</time></trkpt><trkpt lat="44.116755" lon="11.3725183"><ele>421.0</ele><time>2026-04-18T12:55:55.681Z</time></trkpt><trkpt lat="44.1167267" lon="11.3727"><ele>421.0</ele><time>2026-04-18T12:55:56.682Z</time></trkpt><trkpt lat="44.1167017" lon="11.3728917"><ele>421.0</ele><time>2026-04-18T12:55:57.681Z</time></trkpt><trkpt lat="44.116685" lon="11.3730733"><ele>421.0</ele><time>2026-04-18T12:55:58.682Z</time></trkpt><trkpt lat="44.116675" lon="11.37325"><ele>421.0</ele><time>2026-04-18T12:55:59.682Z</time></trkpt><trkpt lat="44.1166633" lon="11.3734183"><ele>421.0</ele><time>2026-04-18T12:56:00.682Z</time></trkpt><trkpt lat="44.1166583" lon="11.37359"><ele>421.0</ele><time>2026-04-18T12:56:01.682Z</time></trkpt><trkpt lat="44.1166567" lon="11.3737667"><ele>421.0</ele><time>2026-04-18T12:56:02.682Z</time></trkpt><trkpt lat="44.1166567" lon="11.37395"><ele>421.0</ele><time>2026-04-18T12:56:03.681Z</time></trkpt><trkpt lat="44.1166817" lon="11.3741417"><ele>421.0</ele><time>2026-04-18T12:56:04.682Z</time></trkpt><trkpt lat="44.1167117" lon="11.3743467"><ele>421.0</ele><time>2026-04-18T12:56:05.682Z</time></trkpt><trkpt lat="44.1167517" lon="11.3745517"><ele>421.0</ele><time>2026-04-18T12:56:06.682Z</time></trkpt><trkpt lat="44.11681" lon="11.3747667"><ele>420.6666666666667</ele><time>2026-04-18T12:56:07.681Z</time></trkpt><trkpt lat="44.11689" lon="11.3749817"><ele>420.33333333333337</ele><time>2026-04-18T12:56:08.681Z</time></trkpt><trkpt lat="44.116985" lon="11.375175"><ele>420.0</ele><time>2026-04-18T12:56:09.682Z</time></trkpt><trkpt lat="44.1170783" lon="11.3753533"><ele>420.0</ele><time>2026-04-18T12:56:10.681Z</time></trkpt><trkpt lat="44.1171667" lon="11.375515"><ele>420.0</ele><time>2026-04-18T12:56:11.681Z</time></trkpt><trkpt lat="44.1172333" lon="11.3756817"><ele>420.0</ele><time>2026-04-18T12:56:12.682Z</time></trkpt><trkpt lat="44.1172733" lon="11.3758383"><ele>420.0</ele><time>2026-04-18T12:56:13.681Z</time></trkpt><trkpt lat="44.11728" lon="11.376"><ele>420.25</ele><time>2026-04-18T12:56:14.681Z</time></trkpt><trkpt lat="44.11725" lon="11.37615"><ele>420.5</ele><time>2026-04-18T12:56:15.682Z</time></trkpt><trkpt lat="44.1172067" lon="11.3763017"><ele>420.75</ele><time>2026-04-18T12:56:16.681Z</time></trkpt><trkpt lat="44.1171633" lon="11.3764483"><ele>421.0</ele><time>2026-04-18T12:56:17.681Z</time></trkpt><trkpt lat="44.1171267" lon="11.3766033"><ele>421.1666666666667</ele><time>2026-04-18T12:56:18.682Z</time></trkpt><trkpt lat="44.117105" lon="11.3767367"><ele>421.33333333333337</ele><time>2026-04-18T12:56:19.681Z</time></trkpt><trkpt lat="44.117095" lon="11.37686"><ele>421.5</ele><time>2026-04-18T12:56:20.681Z</time></trkpt><trkpt lat="44.1170933" lon="11.376955"><ele>421.66666666666663</ele><time>2026-04-18T12:56:21.682Z</time></trkpt><trkpt lat="44.1171083" lon="11.3770717"><ele>421.8333333333333</ele><time>2026-04-18T12:56:23.681Z</time></trkpt><trkpt lat="44.1171933" lon="11.3771233"><ele>422.0</ele><time>2026-04-18T12:56:26.682Z</time></trkpt><trkpt lat="44.117315" lon="11.3770733"><ele>422.0</ele><time>2026-04-18T12:56:28.681Z</time></trkpt><trkpt lat="44.1173933" lon="11.3770383"><ele>422.0</ele><time>2026-04-18T12:56:29.682Z</time></trkpt><trkpt lat="44.1174733" lon="11.377005"><ele>422.0</ele><time>2026-04-18T12:56:30.681Z</time></trkpt><trkpt lat="44.1175617" lon="11.376965"><ele>422.0</ele><time>2026-04-18T12:56:31.682Z</time></trkpt><trkpt lat="44.1176617" lon="11.3769183"><ele>422.0</ele><time>2026-04-18T12:56:32.681Z</time></trkpt><trkpt lat="44.1177633" lon="11.3768717"><ele>422.0</ele><time>2026-04-18T12:56:33.682Z</time></trkpt><trkpt lat="44.11787" lon="11.3768283"><ele>422.0</ele><time>2026-04-18T12:56:34.682Z</time></trkpt><trkpt lat="44.11798" lon="11.376795"><ele>422.0</ele><time>2026-04-18T12:56:35.68Z</time></trkpt><trkpt lat="44.118085" lon="11.3767617"><ele>422.0</ele><time>2026-04-18T12:56:36.68Z</time></trkpt><trkpt lat="44.1181733" lon="11.3767317"><ele>422.0</ele><time>2026-04-18T12:56:37.68Z</time></trkpt><trkpt lat="44.1182583" lon="11.3767083"><ele>421.99999999999994</ele><time>2026-04-18T12:56:38.681Z</time></trkpt><trkpt lat="44.1183317" lon="11.3766883"><ele>422.0</ele><time>2026-04-18T12:56:39.681Z</time></trkpt><trkpt lat="44.1184033" lon="11.376665"><ele>422.0</ele><time>2026-04-18T12:56:40.68Z</time></trkpt><trkpt lat="44.11847" lon="11.37664"><ele>422.0</ele><time>2026-04-18T12:56:41.68Z</time></trkpt><trkpt lat="44.1185633" lon="11.376595"><ele>421.99999999999994</ele><time>2026-04-18T12:56:43.68Z</time></trkpt><trkpt lat="44.118655" lon="11.3765333"><ele>422.0</ele><time>2026-04-18T12:57:07.68Z</time></trkpt><trkpt lat="44.1187717" lon="11.37648"><ele>422.0</ele><time>2026-04-18T12:57:09.68Z</time></trkpt><trkpt lat="44.1188483" lon="11.3764483"><ele>422.0</ele><time>2026-04-18T12:57:10.68Z</time></trkpt><trkpt lat="44.11893" lon="11.3764117"><ele>422.0</ele><time>2026-04-18T12:57:11.68Z</time></trkpt><trkpt lat="44.1190217" lon="11.3763783"><ele>422.0</ele><time>2026-04-18T12:57:12.681Z</time></trkpt><trkpt lat="44.11912" lon="11.3763333"><ele>422.0</ele><time>2026-04-18T12:57:13.68Z</time></trkpt><trkpt lat="44.1192183" lon="11.376295"><ele>422.49999999999994</ele><time>2026-04-18T12:57:14.68Z</time></trkpt><trkpt lat="44.1193233" lon="11.37627"><ele>423.0</ele><time>2026-04-18T12:57:15.68Z</time></trkpt><trkpt lat="44.1194033" lon="11.37624"><ele>423.5</ele><time>2026-04-18T12:57:16.68Z</time></trkpt><trkpt lat="44.1194767" lon="11.3762083"><ele>424.0</ele><time>2026-04-18T12:57:17.68Z</time></trkpt><trkpt lat="44.1195517" lon="11.376185"><ele>424.49999999999994</ele><time>2026-04-18T12:57:18.68Z</time></trkpt><trkpt lat="44.1196317" lon="11.37615"><ele>425.0</ele><time>2026-04-18T12:57:19.68Z</time></trkpt><trkpt lat="44.11973" lon="11.3761333"><ele>424.99999999999994</ele><time>2026-04-18T12:57:20.68Z</time></trkpt><trkpt lat="44.11979" lon="11.3760983"><ele>425.0</ele><time>2026-04-18T12:57:21.681Z</time></trkpt><trkpt lat="44.1198733" lon="11.376075"><ele>425.0</ele><time>2026-04-18T12:57:23.68Z</time></trkpt><trkpt lat="44.1199233" lon="11.376165"><ele>425.0</ele><time>2026-04-18T12:57:27.68Z</time></trkpt><trkpt lat="44.1199183" lon="11.3763283"><ele>424.99999999999994</ele><time>2026-04-18T12:57:29.681Z</time></trkpt><trkpt lat="44.1199167" lon="11.3764217"><ele>425.0</ele><time>2026-04-18T12:57:30.68Z</time></trkpt><trkpt lat="44.1199117" lon="11.3765233"><ele>425.8333333333333</ele><time>2026-04-18T12:57:31.681Z</time></trkpt><trkpt lat="44.1199083" lon="11.3766167"><ele>426.66666666666663</ele><time>2026-04-18T12:57:32.68Z</time></trkpt><trkpt lat="44.119905" lon="11.3767817"><ele>427.5</ele><time>2026-04-18T12:57:34.68Z</time></trkpt><trkpt lat="44.119915" lon="11.3768767"><ele>428.33333333333337</ele><time>2026-04-18T12:57:35.68Z</time></trkpt><trkpt lat="44.1199167" lon="11.3769933"><ele>429.1666666666667</ele><time>2026-04-18T12:57:36.68Z</time></trkpt><trkpt lat="44.1199133" lon="11.3771133"><ele>430.0</ele><time>2026-04-18T12:57:37.68Z</time></trkpt><trkpt lat="44.119915" lon="11.3772367"><ele>430.00000000000006</ele><time>2026-04-18T12:57:38.68Z</time></trkpt><trkpt lat="44.11991" lon="11.3773617"><ele>430.0</ele><time>2026-04-18T12:57:39.681Z</time></trkpt><trkpt lat="44.1199017" lon="11.3774833"><ele>430.0</ele><time>2026-04-18T12:57:40.68Z</time></trkpt><trkpt lat="44.1198983" lon="11.3776117"><ele>430.0</ele><time>2026-04-18T12:57:41.68Z</time></trkpt><trkpt lat="44.1198983" lon="11.3777317"><ele>430.00000000000006</ele><time>2026-04-18T12:57:42.68Z</time></trkpt><trkpt lat="44.1198983" lon="11.3778433"><ele>430.0</ele><time>2026-04-18T12:57:43.681Z</time></trkpt><trkpt lat="44.1198933" lon="11.3779517"><ele>430.0</ele><time>2026-04-18T12:57:44.68Z</time></trkpt><trkpt lat="44.1198933" lon="11.37806"><ele>430.0</ele><time>2026-04-18T12:57:45.681Z</time></trkpt><trkpt lat="44.1199367" lon="11.378195"><ele>430.0</ele><time>2026-04-18T12:57:47.681Z</time></trkpt><trkpt lat="44.1200383" lon="11.3781517"><ele>430.0</ele><time>2026-04-18T12:57:50.681Z</time></trkpt><trkpt lat="44.1201267" lon="11.37802"><ele>430.0</ele><time>2026-04-18T12:57:52.681Z</time></trkpt><trkpt lat="44.1201917" lon="11.3779333"><ele>430.0</ele><time>2026-04-18T12:57:53.68Z</time></trkpt><trkpt lat="44.1202633" lon="11.3778433"><ele>430.0</ele><time>2026-04-18T12:57:54.681Z</time></trkpt><trkpt lat="44.12034" lon="11.377745"><ele>430.0</ele><time>2026-04-18T12:57:55.681Z</time></trkpt><trkpt lat="44.1204167" lon="11.37764"><ele>430.0</ele><time>2026-04-18T12:57:56.681Z</time></trkpt><trkpt lat="44.12049" lon="11.37753"><ele>430.0</ele><time>2026-04-18T12:57:57.68Z</time></trkpt><trkpt lat="44.120575" lon="11.3774233"><ele>430.0</ele><time>2026-04-18T12:57:58.68Z</time></trkpt><trkpt lat="44.12066" lon="11.3773133"><ele>430.0</ele><time>2026-04-18T12:57:59.681Z</time></trkpt><trkpt lat="44.1207317" lon="11.3772033"><ele>430.0</ele><time>2026-04-18T12:58:00.68Z</time></trkpt><trkpt lat="44.1208083" lon="11.377105"><ele>430.0</ele><time>2026-04-18T12:58:01.68Z</time></trkpt><trkpt lat="44.120885" lon="11.3769983"><ele>430.0</ele><time>2026-04-18T12:58:02.681Z</time></trkpt><trkpt lat="44.120955" lon="11.3768833"><ele>432.4</ele><time>2026-04-18T12:58:03.68Z</time></trkpt><trkpt lat="44.1209967" lon="11.37675"><ele>434.8</ele><time>2026-04-18T12:58:04.681Z</time></trkpt><trkpt lat="44.121025" lon="11.3766167"><ele>437.20000000000005</ele><time>2026-04-18T12:58:05.681Z</time></trkpt><trkpt lat="44.121065" lon="11.3765033"><ele>439.6</ele><time>2026-04-18T12:58:06.68Z</time></trkpt><trkpt lat="44.1211433" lon="11.3764017"><ele>442.0</ele><time>2026-04-18T12:58:07.68Z</time></trkpt><trkpt lat="44.1212367" lon="11.3762967"><ele>442.40000000000003</ele><time>2026-04-18T12:58:08.68Z</time></trkpt><trkpt lat="44.1213333" lon="11.3761983"><ele>442.80000000000007</ele><time>2026-04-18T12:58:09.68Z</time></trkpt><trkpt lat="44.1214133" lon="11.3761033"><ele>443.2</ele><time>2026-04-18T12:58:10.68Z</time></trkpt><trkpt lat="44.121495" lon="11.3760117"><ele>443.6</ele><time>2026-04-18T12:58:11.68Z</time></trkpt><trkpt lat="44.121585" lon="11.3759133"><ele>444.0</ele><time>2026-04-18T12:58:12.681Z</time></trkpt><trkpt lat="44.1216783" lon="11.3758083"><ele>448.0</ele><time>2026-04-18T12:58:13.681Z</time></trkpt><trkpt lat="44.121775" lon="11.3756733"><ele>452.0</ele><time>2026-04-18T12:58:14.68Z</time></trkpt><trkpt lat="44.121875" lon="11.3755367"><ele>456.0</ele><time>2026-04-18T12:58:15.68Z</time></trkpt><trkpt lat="44.12196" lon="11.3753817"><ele>460.0</ele><time>2026-04-18T12:58:16.68Z</time></trkpt><trkpt lat="44.12202" lon="11.375235"><ele>460.75</ele><time>2026-04-18T12:58:17.68Z</time></trkpt><trkpt lat="44.1220683" lon="11.3750867"><ele>461.5</ele><time>2026-04-18T12:58:18.68Z</time></trkpt><trkpt lat="44.1221083" lon="11.3749267"><ele>462.25</ele><time>2026-04-18T12:58:19.68Z</time></trkpt><trkpt lat="44.1221483" lon="11.374785"><ele>463.0</ele><time>2026-04-18T12:58:20.681Z</time></trkpt><trkpt lat="44.122195" lon="11.3746483"><ele>463.2</ele><time>2026-04-18T12:58:21.68Z</time></trkpt><trkpt lat="44.12225" lon="11.3745217"><ele>463.4</ele><time>2026-04-18T12:58:22.68Z</time></trkpt><trkpt lat="44.1223083" lon="11.37441"><ele>463.59999999999997</ele><time>2026-04-18T12:58:23.68Z</time></trkpt><trkpt lat="44.12236" lon="11.3743083"><ele>463.79999999999995</ele><time>2026-04-18T12:58:24.681Z</time></trkpt><trkpt lat="44.1224167" lon="11.3742167"><ele>464.0</ele><time>2026-04-18T12:58:25.681Z</time></trkpt><trkpt lat="44.1224817" lon="11.374135"><ele>467.0</ele><time>2026-04-18T12:58:26.68Z</time></trkpt><trkpt lat="44.1225467" lon="11.3740433"><ele>470.0</ele><time>2026-04-18T12:58:27.68Z</time></trkpt><trkpt lat="44.1226217" lon="11.373955"><ele>473.0</ele><time>2026-04-18T12:58:28.681Z</time></trkpt><trkpt lat="44.1226983" lon="11.3738617"><ele>476.0</ele><time>2026-04-18T12:58:29.681Z</time></trkpt><trkpt lat="44.122765" lon="11.3737667"><ele>479.0</ele><time>2026-04-18T12:58:30.68Z</time></trkpt><trkpt lat="44.1228317" lon="11.3736733"><ele>479.49999999999994</ele><time>2026-04-18T12:58:31.68Z</time></trkpt><trkpt lat="44.1228983" lon="11.3735767"><ele>480.0</ele><time>2026-04-18T12:58:32.68Z</time></trkpt><trkpt lat="44.1229617" lon="11.3734917"><ele>480.5</ele><time>2026-04-18T12:58:33.68Z</time></trkpt><trkpt lat="44.12302" lon="11.37341"><ele>481.0</ele><time>2026-04-18T12:58:34.68Z</time></trkpt><trkpt lat="44.1230683" lon="11.3733333"><ele>481.49999999999994</ele><time>2026-04-18T12:58:35.68Z</time></trkpt><trkpt lat="44.1231183" lon="11.37326"><ele>482.0</ele><time>2026-04-18T12:58:36.68Z</time></trkpt><trkpt lat="44.1231583" lon="11.3731833"><ele>482.0</ele><time>2026-04-18T12:58:37.681Z</time></trkpt><trkpt lat="44.123185" lon="11.373095"><ele>482.00000000000006</ele><time>2026-04-18T12:58:38.68Z</time></trkpt><trkpt lat="44.1232" lon="11.372995"><ele>482.0</ele><time>2026-04-18T12:58:39.681Z</time></trkpt><trkpt lat="44.12321" lon="11.3728933"><ele>482.0</ele><time>2026-04-18T12:58:40.68Z</time></trkpt><trkpt lat="44.123225" lon="11.3728"><ele>482.00000000000006</ele><time>2026-04-18T12:58:41.68Z</time></trkpt><trkpt lat="44.1232483" lon="11.3726983"><ele>482.0</ele><time>2026-04-18T12:58:42.68Z</time></trkpt><trkpt lat="44.1232733" lon="11.3726083"><ele>482.0</ele><time>2026-04-18T12:58:43.68Z</time></trkpt><trkpt lat="44.123285" lon="11.3725183"><ele>485.16666666666663</ele><time>2026-04-18T12:58:44.68Z</time></trkpt><trkpt lat="44.1232917" lon="11.3724167"><ele>488.3333333333333</ele><time>2026-04-18T12:58:45.681Z</time></trkpt><trkpt lat="44.1233" lon="11.3723283"><ele>491.5</ele><time>2026-04-18T12:58:46.68Z</time></trkpt><trkpt lat="44.1233483" lon="11.3722017"><ele>494.66666666666663</ele><time>2026-04-18T12:58:48.681Z</time></trkpt><trkpt lat="44.1234417" lon="11.3720917"><ele>497.8333333333333</ele><time>2026-04-18T12:58:50.68Z</time></trkpt><trkpt lat="44.1234783" lon="11.372015"><ele>501.0</ele><time>2026-04-18T12:58:51.68Z</time></trkpt><trkpt lat="44.123505" lon="11.3719317"><ele>503.0</ele><time>2026-04-18T12:58:52.68Z</time></trkpt><trkpt lat="44.1235367" lon="11.371835"><ele>505.0</ele><time>2026-04-18T12:58:53.68Z</time></trkpt><trkpt lat="44.1235783" lon="11.3717467"><ele>507.0</ele><time>2026-04-18T12:58:54.681Z</time></trkpt><trkpt lat="44.123625" lon="11.371665"><ele>509.0</ele><time>2026-04-18T12:58:55.68Z</time></trkpt><trkpt lat="44.1236683" lon="11.371595"><ele>511.0</ele><time>2026-04-18T12:58:56.68Z</time></trkpt><trkpt lat="44.1237583" lon="11.3714883"><ele>513.0</ele><time>2026-04-18T12:58:58.681Z</time></trkpt><trkpt lat="44.12386" lon="11.3713733"><ele>513.5</ele><time>2026-04-18T12:59:00.681Z</time></trkpt><trkpt lat="44.1239133" lon="11.3713067"><ele>514.0</ele><time>2026-04-18T12:59:01.68Z</time></trkpt><trkpt lat="44.12397" lon="11.3712433"><ele>514.5</ele><time>2026-04-18T12:59:02.681Z</time></trkpt><trkpt lat="44.1240367" lon="11.3711733"><ele>515.0</ele><time>2026-04-18T12:59:03.68Z</time></trkpt><trkpt lat="44.1241117" lon="11.3710983"><ele>515.5</ele><time>2026-04-18T12:59:04.68Z</time></trkpt><trkpt lat="44.1241833" lon="11.3710317"><ele>516.0</ele><time>2026-04-18T12:59:05.68Z</time></trkpt><trkpt lat="44.1242517" lon="11.370975"><ele>518.5</ele><time>2026-04-18T12:59:06.68Z</time></trkpt><trkpt lat="44.124305" lon="11.3709183"><ele>521.0</ele><time>2026-04-18T12:59:07.681Z</time></trkpt><trkpt lat="44.1243617" lon="11.3708567"><ele>523.5</ele><time>2026-04-18T12:59:08.68Z</time></trkpt><trkpt lat="44.1244317" lon="11.3707917"><ele>526.0</ele><time>2026-04-18T12:59:09.681Z</time></trkpt><trkpt lat="44.12451" lon="11.3707133"><ele>528.5</ele><time>2026-04-18T12:59:10.68Z</time></trkpt><trkpt lat="44.1245867" lon="11.37064"><ele>531.0</ele><time>2026-04-18T12:59:11.68Z</time></trkpt><trkpt lat="44.1246567" lon="11.3705783"><ele>531.8333333333334</ele><time>2026-04-18T12:59:12.681Z</time></trkpt><trkpt lat="44.1247283" lon="11.370515"><ele>532.6666666666666</ele><time>2026-04-18T12:59:13.681Z</time></trkpt><trkpt lat="44.1247967" lon="11.3704567"><ele>533.5</ele><time>2026-04-18T12:59:14.68Z</time></trkpt><trkpt lat="44.1249" lon="11.3703733"><ele>534.3333333333333</ele><time>2026-04-18T12:59:16.681Z</time></trkpt><trkpt lat="44.1249717" lon="11.3703467"><ele>535.1666666666666</ele><time>2026-04-18T12:59:17.68Z</time></trkpt><trkpt lat="44.1250433" lon="11.370325"><ele>536.0</ele><time>2026-04-18T12:59:18.68Z</time></trkpt><trkpt lat="44.1251383" lon="11.3703067"><ele>538.4</ele><time>2026-04-18T12:59:19.68Z</time></trkpt><trkpt lat="44.1252383" lon="11.3703067"><ele>540.8</ele><time>2026-04-18T12:59:20.68Z</time></trkpt><trkpt lat="44.125335" lon="11.3703017"><ele>543.1999999999999</ele><time>2026-04-18T12:59:21.68Z</time></trkpt><trkpt lat="44.125435" lon="11.3702833"><ele>545.6</ele><time>2026-04-18T12:59:22.68Z</time></trkpt><trkpt lat="44.1255317" lon="11.370265"><ele>548.0</ele><time>2026-04-18T12:59:23.68Z</time></trkpt><trkpt lat="44.1256217" lon="11.3702317"><ele>548.0</ele><time>2026-04-18T12:59:24.679Z</time></trkpt><trkpt lat="44.1257033" lon="11.3702033"><ele>548.0</ele><time>2026-04-18T12:59:25.68Z</time></trkpt><trkpt lat="44.1257883" lon="11.370165"><ele>548.0</ele><time>2026-04-18T12:59:26.679Z</time></trkpt><trkpt lat="44.125865" lon="11.3701267"><ele>548.0</ele><time>2026-04-18T12:59:27.679Z</time></trkpt><trkpt lat="44.1259433" lon="11.3700783"><ele>548.0</ele><time>2026-04-18T12:59:28.679Z</time></trkpt><trkpt lat="44.12604" lon="11.37003"><ele>548.0</ele><time>2026-04-18T12:59:29.679Z</time></trkpt><trkpt lat="44.1261433" lon="11.3699883"><ele>547.8</ele><time>2026-04-18T12:59:30.679Z</time></trkpt><trkpt lat="44.12625" lon="11.36994"><ele>547.5999999999999</ele><time>2026-04-18T12:59:31.68Z</time></trkpt><trkpt lat="44.12635" lon="11.369885"><ele>547.4000000000001</ele><time>2026-04-18T12:59:32.679Z</time></trkpt><trkpt lat="44.1264483" lon="11.369825"><ele>547.2</ele><time>2026-04-18T12:59:33.679Z</time></trkpt><trkpt lat="44.1265483" lon="11.3697633"><ele>547.0</ele><time>2026-04-18T12:59:34.68Z</time></trkpt><trkpt lat="44.1266383" lon="11.369695"><ele>548.0</ele><time>2026-04-18T12:59:35.68Z</time></trkpt><trkpt lat="44.1267183" lon="11.3696467"><ele>549.0</ele><time>2026-04-18T12:59:36.68Z</time></trkpt><trkpt lat="44.1267917" lon="11.3696133"><ele>550.0</ele><time>2026-04-18T12:59:37.679Z</time></trkpt><trkpt lat="44.12687" lon="11.3696033"><ele>551.0</ele><time>2026-04-18T12:59:38.679Z</time></trkpt><trkpt lat="44.12694" lon="11.3695967"><ele>552.0</ele><time>2026-04-18T12:59:39.68Z</time></trkpt><trkpt lat="44.1270717" lon="11.3695883"><ele>553.0</ele><time>2026-04-18T12:59:41.679Z</time></trkpt><trkpt lat="44.127145" lon="11.36959"><ele>553.0</ele><time>2026-04-18T12:59:42.679Z</time></trkpt><trkpt lat="44.1272167" lon="11.3695817"><ele>553.0</ele><time>2026-04-18T12:59:43.679Z</time></trkpt><trkpt lat="44.1272833" lon="11.369565"><ele>553.0</ele><time>2026-04-18T12:59:44.679Z</time></trkpt><trkpt lat="44.1273483" lon="11.36956"><ele>553.0</ele><time>2026-04-18T12:59:45.68Z</time></trkpt><trkpt lat="44.1274183" lon="11.369565"><ele>553.0</ele><time>2026-04-18T12:59:46.679Z</time></trkpt><trkpt lat="44.12749" lon="11.3695817"><ele>553.0</ele><time>2026-04-18T12:59:47.68Z</time></trkpt><trkpt lat="44.1275833" lon="11.36962"><ele>553.0</ele><time>2026-04-18T12:59:48.679Z</time></trkpt><trkpt lat="44.1276783" lon="11.369665"><ele>552.1999999999999</ele><time>2026-04-18T12:59:49.68Z</time></trkpt><trkpt lat="44.1277817" lon="11.3697067"><ele>551.4</ele><time>2026-04-18T12:59:50.679Z</time></trkpt><trkpt lat="44.1279017" lon="11.3697367"><ele>550.5999999999999</ele><time>2026-04-18T12:59:51.68Z</time></trkpt><trkpt lat="44.1280117" lon="11.3697533"><ele>549.8</ele><time>2026-04-18T12:59:52.679Z</time></trkpt><trkpt lat="44.1281117" lon="11.3697633"><ele>549.0</ele><time>2026-04-18T12:59:53.68Z</time></trkpt><trkpt lat="44.1281917" lon="11.36975"><ele>550.0</ele><time>2026-04-18T12:59:54.679Z</time></trkpt><trkpt lat="44.12827" lon="11.3697133"><ele>551.0</ele><time>2026-04-18T12:59:55.679Z</time></trkpt><trkpt lat="44.12834" lon="11.3696867"><ele>552.0</ele><time>2026-04-18T12:59:56.679Z</time></trkpt><trkpt lat="44.12842" lon="11.3696583"><ele>553.0</ele><time>2026-04-18T12:59:57.679Z</time></trkpt><trkpt lat="44.1285" lon="11.3696367"><ele>554.0</ele><time>2026-04-18T12:59:58.679Z</time></trkpt><trkpt lat="44.128585" lon="11.3696167"><ele>555.0</ele><time>2026-04-18T12:59:59.679Z</time></trkpt><trkpt lat="44.128675" lon="11.3696"><ele>555.0</ele><time>2026-04-18T13:00:00.679Z</time></trkpt><trkpt lat="44.1287583" lon="11.3695817"><ele>555.0</ele><time>2026-04-18T13:00:01.68Z</time></trkpt><trkpt lat="44.1288433" lon="11.3695617"><ele>555.0</ele><time>2026-04-18T13:00:02.679Z</time></trkpt><trkpt lat="44.1289317" lon="11.3695367"><ele>555.0</ele><time>2026-04-18T13:00:03.679Z</time></trkpt><trkpt lat="44.1290117" lon="11.3695183"><ele>555.0</ele><time>2026-04-18T13:00:04.68Z</time></trkpt><trkpt lat="44.129095" lon="11.369505"><ele>555.0</ele><time>2026-04-18T13:00:05.679Z</time></trkpt><trkpt lat="44.1291667" lon="11.369495"><ele>557.2</ele><time>2026-04-18T13:00:06.679Z</time></trkpt><trkpt lat="44.1292883" lon="11.3695317"><ele>559.4</ele><time>2026-04-18T13:00:08.679Z</time></trkpt><trkpt lat="44.1293467" lon="11.3695917"><ele>561.6</ele><time>2026-04-18T13:00:09.68Z</time></trkpt><trkpt lat="44.1294383" lon="11.36967"><ele>563.8</ele><time>2026-04-18T13:00:10.679Z</time></trkpt><trkpt lat="44.1295317" lon="11.3697267"><ele>566.0</ele><time>2026-04-18T13:00:11.68Z</time></trkpt><trkpt lat="44.1296233" lon="11.3697683"><ele>566.6</ele><time>2026-04-18T13:00:12.679Z</time></trkpt><trkpt lat="44.1297133" lon="11.3697767"><ele>567.2</ele><time>2026-04-18T13:00:13.679Z</time></trkpt><trkpt lat="44.129815" lon="11.3697567"><ele>567.8</ele><time>2026-04-18T13:00:14.679Z</time></trkpt><trkpt lat="44.1299317" lon="11.369725"><ele>568.4</ele><time>2026-04-18T13:00:15.679Z</time></trkpt><trkpt lat="44.1300483" lon="11.3696867"><ele>569.0</ele><time>2026-04-18T13:00:16.679Z</time></trkpt><trkpt lat="44.1301483" lon="11.3696683"><ele>569.1666666666666</ele><time>2026-04-18T13:00:17.679Z</time></trkpt><trkpt lat="44.130245" lon="11.369665"><ele>569.3333333333333</ele><time>2026-04-18T13:00:18.679Z</time></trkpt><trkpt lat="44.1303367" lon="11.3696633"><ele>569.5</ele><time>2026-04-18T13:00:19.68Z</time></trkpt><trkpt lat="44.130405" lon="11.3696533"><ele>569.6666666666666</ele><time>2026-04-18T13:00:20.679Z</time></trkpt><trkpt lat="44.1304917" lon="11.3696083"><ele>569.8333333333334</ele><time>2026-04-18T13:00:22.679Z</time></trkpt><trkpt lat="44.130545" lon="11.3695383"><ele>570.0</ele><time>2026-04-18T13:00:24.68Z</time></trkpt><trkpt lat="44.13063" lon="11.3694983"><ele>571.4</ele><time>2026-04-18T13:00:27.679Z</time></trkpt><trkpt lat="44.1307433" lon="11.3694833"><ele>572.8</ele><time>2026-04-18T13:00:29.679Z</time></trkpt><trkpt lat="44.130845" lon="11.3695117"><ele>574.2</ele><time>2026-04-18T13:00:31.68Z</time></trkpt><trkpt lat="44.13093" lon="11.36954"><ele>575.6</ele><time>2026-04-18T13:00:33.679Z</time></trkpt><trkpt lat="44.1310017" lon="11.3695433"><ele>577.0</ele><time>2026-04-18T13:00:34.68Z</time></trkpt><trkpt lat="44.131085" lon="11.36954"><ele>577.0</ele><time>2026-04-18T13:00:35.679Z</time></trkpt><trkpt lat="44.131155" lon="11.3695333"><ele>577.0</ele><time>2026-04-18T13:00:36.68Z</time></trkpt><trkpt lat="44.1312717" lon="11.3695067"><ele>577.0</ele><time>2026-04-18T13:00:38.68Z</time></trkpt><trkpt lat="44.1313367" lon="11.36948"><ele>577.0</ele><time>2026-04-18T13:00:39.68Z</time></trkpt><trkpt lat="44.1314567" lon="11.3694517"><ele>577.0</ele><time>2026-04-18T13:00:41.679Z</time></trkpt><trkpt lat="44.1315233" lon="11.369435"><ele>577.0</ele><time>2026-04-18T13:00:42.679Z</time></trkpt><trkpt lat="44.1315883" lon="11.3694067"><ele>579.8000000000001</ele><time>2026-04-18T13:00:43.68Z</time></trkpt><trkpt lat="44.1317" lon="11.3693733"><ele>582.6</ele><time>2026-04-18T13:00:45.679Z</time></trkpt><trkpt lat="44.1317633" lon="11.3693617"><ele>585.4000000000001</ele><time>2026-04-18T13:00:46.679Z</time></trkpt><trkpt lat="44.1318883" lon="11.3693167"><ele>588.2</ele><time>2026-04-18T13:00:48.68Z</time></trkpt><trkpt lat="44.1319517" lon="11.3692717"><ele>591.0</ele><time>2026-04-18T13:00:49.68Z</time></trkpt><trkpt lat="44.1320383" lon="11.369145"><ele>591.0</ele><time>2026-04-18T13:00:51.68Z</time></trkpt><trkpt lat="44.1321167" lon="11.3690083"><ele>591.0</ele><time>2026-04-18T13:00:53.68Z</time></trkpt><trkpt lat="44.1321833" lon="11.36889"><ele>591.0</ele><time>2026-04-18T13:00:55.679Z</time></trkpt><trkpt lat="44.132285" lon="11.3688433"><ele>591.0</ele><time>2026-04-18T13:00:57.679Z</time></trkpt><trkpt lat="44.1324" lon="11.3688"><ele>592.6666666666666</ele><time>2026-04-18T13:00:59.68Z</time></trkpt><trkpt lat="44.1324517" lon="11.3687467"><ele>594.3333333333334</ele><time>2026-04-18T13:01:00.679Z</time></trkpt><trkpt lat="44.1325067" lon="11.3686917"><ele>596.0</ele><time>2026-04-18T13:01:01.68Z</time></trkpt><trkpt lat="44.132565" lon="11.368625"><ele>597.6666666666667</ele><time>2026-04-18T13:01:02.679Z</time></trkpt><trkpt lat="44.1326167" lon="11.3685467"><ele>599.3333333333334</ele><time>2026-04-18T13:01:03.68Z</time></trkpt><trkpt lat="44.1326717" lon="11.36846"><ele>601.0</ele><time>2026-04-18T13:01:04.679Z</time></trkpt><trkpt lat="44.132725" lon="11.36836"><ele>601.0</ele><time>2026-04-18T13:01:05.679Z</time></trkpt><trkpt lat="44.1327617" lon="11.3682633"><ele>601.0</ele><time>2026-04-18T13:01:06.68Z</time></trkpt><trkpt lat="44.1327917" lon="11.3681633"><ele>601.0</ele><time>2026-04-18T13:01:07.679Z</time></trkpt><trkpt lat="44.1328167" lon="11.36807"><ele>601.0</ele><time>2026-04-18T13:01:08.68Z</time></trkpt><trkpt lat="44.132835" lon="11.3679733"><ele>601.0</ele><time>2026-04-18T13:01:09.679Z</time></trkpt><trkpt lat="44.13285" lon="11.3678783"><ele>601.0</ele><time>2026-04-18T13:01:10.679Z</time></trkpt><trkpt lat="44.1328683" lon="11.36777"><ele>601.0</ele><time>2026-04-18T13:01:11.679Z</time></trkpt><trkpt lat="44.1328917" lon="11.367665"><ele>596.5</ele><time>2026-04-18T13:01:12.679Z</time></trkpt><trkpt lat="44.1329233" lon="11.367565"><ele>592.0</ele><time>2026-04-18T13:01:13.68Z</time></trkpt><trkpt lat="44.1315883" lon="11.3694067"><ele>591.8000000000001</ele><time>2026-04-18T13:00:43.68Z</time></trkpt><trkpt lat="44.1317" lon="11.3693733"><ele>591.6</ele><time>2026-04-18T13:00:45.679Z</time></trkpt><trkpt lat="44.1317633" lon="11.3693617"><ele>591.4000000000001</ele><time>2026-04-18T13:00:46.679Z</time></trkpt><trkpt lat="44.1318883" lon="11.3693167"><ele>591.2</ele><time>2026-04-18T13:00:48.68Z</time></trkpt><trkpt lat="44.1319517" lon="11.3692717"><ele>591.0</ele><time>2026-04-18T13:00:49.68Z</time></trkpt><trkpt lat="44.1320383" lon="11.369145"><ele>591.0</ele><time>2026-04-18T13:00:51.68Z</time></trkpt><trkpt lat="44.1321167" lon="11.3690083"><ele>591.0</ele><time>2026-04-18T13:00:53.68Z</time></trkpt><trkpt lat="44.1321833" lon="11.36889"><ele>591.0</ele><time>2026-04-18T13:00:55.679Z</time></trkpt><trkpt lat="44.132285" lon="11.3688433"><ele>591.0</ele><time>2026-04-18T13:00:57.679Z</time></trkpt><trkpt lat="44.1324" lon="11.3688"><ele>592.6666666666666</ele><time>2026-04-18T13:00:59.68Z</time></trkpt><trkpt lat="44.1324517" lon="11.3687467"><ele>594.3333333333334</ele><time>2026-04-18T13:01:00.679Z</time></trkpt><trkpt lat="44.1325067" lon="11.3686917"><ele>596.0</ele><time>2026-04-18T13:01:01.68Z</time></trkpt><trkpt lat="44.132565" lon="11.368625"><ele>597.6666666666667</ele><time>2026-04-18T13:01:02.679Z</time></trkpt><trkpt lat="44.1326167" lon="11.3685467"><ele>599.3333333333334</ele><time>2026-04-18T13:01:03.68Z</time></trkpt><trkpt lat="44.1326717" lon="11.36846"><ele>601.0</ele><time>2026-04-18T13:01:04.679Z</time></trkpt><trkpt lat="44.132725" lon="11.36836"><ele>601.0</ele><time>2026-04-18T13:01:05.679Z</time></trkpt><trkpt lat="44.1327617" lon="11.3682633"><ele>601.0</ele><time>2026-04-18T13:01:06.68Z</time></trkpt><trkpt lat="44.1327917" lon="11.3681633"><ele>601.0</ele><time>2026-04-18T13:01:07.679Z</time></trkpt><trkpt lat="44.1328167" lon="11.36807"><ele>601.0</ele><time>2026-04-18T13:01:08.68Z</time></trkpt><trkpt lat="44.132835" lon="11.3679733"><ele>601.0</ele><time>2026-04-18T13:01:09.679Z</time></trkpt><trkpt lat="44.13285" lon="11.3678783"><ele>601.0</ele><time>2026-04-18T13:01:10.679Z</time></trkpt><trkpt lat="44.1328683" lon="11.36777"><ele>601.0</ele><time>2026-04-18T13:01:11.679Z</time></trkpt><trkpt lat="44.1328917" lon="11.367665"><ele>599.2</ele><time>2026-04-18T13:01:12.679Z</time></trkpt><trkpt lat="44.1329233" lon="11.367565"><ele>597.4000000000001</ele><time>2026-04-18T13:01:13.68Z</time></trkpt><trkpt lat="44.1329683" lon="11.36746"><ele>595.6</ele><time>2026-04-18T13:01:14.68Z</time></trkpt><trkpt lat="44.133025" lon="11.3673517"><ele>593.8000000000001</ele><time>2026-04-18T13:01:15.679Z</time></trkpt><trkpt lat="44.1330867" lon="11.3672283"><ele>592.0</ele><time>2026-04-18T13:01:16.679Z</time></trkpt><trkpt lat="44.1331467" lon="11.3670917"><ele>593.5</ele><time>2026-04-18T13:01:17.679Z</time></trkpt><trkpt lat="44.1332083" lon="11.3669483"><ele>595.0</ele><time>2026-04-18T13:01:18.679Z</time></trkpt><trkpt lat="44.1332633" lon="11.3667933"><ele>596.5</ele><time>2026-04-18T13:01:19.68Z</time></trkpt><trkpt lat="44.133315" lon="11.3666567"><ele>598.0</ele><time>2026-04-18T13:01:20.679Z</time></trkpt><trkpt lat="44.1333617" lon="11.3665317"><ele>598.0</ele><time>2026-04-18T13:01:21.68Z</time></trkpt><trkpt lat="44.133405" lon="11.36642"><ele>598.0</ele><time>2026-04-18T13:01:22.68Z</time></trkpt><trkpt lat="44.1334317" lon="11.366315"><ele>598.0</ele><time>2026-04-18T13:01:23.679Z</time></trkpt><trkpt lat="44.1334483" lon="11.3662083"><ele>598.0</ele><time>2026-04-18T13:01:24.679Z</time></trkpt><trkpt lat="44.133455" lon="11.36608"><ele>598.0</ele><time>2026-04-18T13:01:25.679Z</time></trkpt><trkpt lat="44.1334483" lon="11.3659367"><ele>598.0</ele><time>2026-04-18T13:01:26.679Z</time></trkpt><trkpt lat="44.133445" lon="11.3657733"><ele>597.6</ele><time>2026-04-18T13:01:27.679Z</time></trkpt><trkpt lat="44.1334517" lon="11.3656233"><ele>597.1999999999999</ele><time>2026-04-18T13:01:28.679Z</time></trkpt><trkpt lat="44.1334617" lon="11.36548"><ele>596.8</ele><time>2026-04-18T13:01:29.679Z</time></trkpt><trkpt lat="44.1334733" lon="11.3653433"><ele>596.4</ele><time>2026-04-18T13:01:30.68Z</time></trkpt><trkpt lat="44.1334933" lon="11.3652117"><ele>596.0</ele><time>2026-04-18T13:01:31.679Z</time></trkpt><trkpt lat="44.13352" lon="11.3650833"><ele>596.0</ele><time>2026-04-18T13:01:32.679Z</time></trkpt><trkpt lat="44.1335583" lon="11.36495"><ele>596.0</ele><time>2026-04-18T13:01:33.679Z</time></trkpt><trkpt lat="44.1335983" lon="11.3648133"><ele>596.0</ele><time>2026-04-18T13:01:34.679Z</time></trkpt><trkpt lat="44.133625" lon="11.3646817"><ele>596.0</ele><time>2026-04-18T13:01:35.679Z</time></trkpt><trkpt lat="44.1336533" lon="11.364555"><ele>596.0</ele><time>2026-04-18T13:01:36.68Z</time></trkpt><trkpt lat="44.1336667" lon="11.36442"><ele>595.4</ele><time>2026-04-18T13:01:37.68Z</time></trkpt><trkpt lat="44.13367" lon="11.3642967"><ele>594.8</ele><time>2026-04-18T13:01:38.679Z</time></trkpt><trkpt lat="44.1336817" lon="11.3641633"><ele>594.1999999999999</ele><time>2026-04-18T13:01:39.68Z</time></trkpt><trkpt lat="44.1337" lon="11.3640283"><ele>593.6</ele><time>2026-04-18T13:01:40.679Z</time></trkpt><trkpt lat="44.1337133" lon="11.3638933"><ele>593.0</ele><time>2026-04-18T13:01:41.679Z</time></trkpt><trkpt lat="44.1337333" lon="11.36376"><ele>592.8</ele><time>2026-04-18T13:01:42.679Z</time></trkpt><trkpt lat="44.1337417" lon="11.36363"><ele>592.5999999999999</ele><time>2026-04-18T13:01:43.679Z</time></trkpt><trkpt lat="44.133745" lon="11.3634917"><ele>592.4000000000001</ele><time>2026-04-18T13:01:44.679Z</time></trkpt><trkpt lat="44.1337367" lon="11.3633383"><ele>592.2</ele><time>2026-04-18T13:01:45.679Z</time></trkpt><trkpt lat="44.1337283" lon="11.3632017"><ele>592.0</ele><time>2026-04-18T13:01:46.679Z</time></trkpt><trkpt lat="44.133735" lon="11.3630717"><ele>592.4</ele><time>2026-04-18T13:01:47.679Z</time></trkpt><trkpt lat="44.133755" lon="11.3629467"><ele>592.8000000000001</ele><time>2026-04-18T13:01:48.679Z</time></trkpt><trkpt lat="44.13378" lon="11.36282"><ele>593.2</ele><time>2026-04-18T13:01:49.679Z</time></trkpt><trkpt lat="44.1338017" lon="11.3626933"><ele>593.6</ele><time>2026-04-18T13:01:50.679Z</time></trkpt><trkpt lat="44.1338067" lon="11.3625633"><ele>594.0</ele><time>2026-04-18T13:01:51.679Z</time></trkpt><trkpt lat="44.1337967" lon="11.362415"><ele>594.0</ele><time>2026-04-18T13:01:52.68Z</time></trkpt><trkpt lat="44.13378" lon="11.3622567"><ele>594.0</ele><time>2026-04-18T13:01:53.68Z</time></trkpt><trkpt lat="44.1337633" lon="11.3621033"><ele>594.0</ele><time>2026-04-18T13:01:54.68Z</time></trkpt><trkpt lat="44.1337617" lon="11.3619683"><ele>594.0</ele><time>2026-04-18T13:01:55.68Z</time></trkpt><trkpt lat="44.133775" lon="11.3618483"><ele>594.0</ele><time>2026-04-18T13:01:56.679Z</time></trkpt><trkpt lat="44.13381" lon="11.36173"><ele>594.1666666666666</ele><time>2026-04-18T13:01:57.679Z</time></trkpt><trkpt lat="44.1338517" lon="11.3616283"><ele>594.3333333333334</ele><time>2026-04-18T13:01:58.679Z</time></trkpt><trkpt lat="44.133895" lon="11.36153"><ele>594.5</ele><time>2026-04-18T13:01:59.68Z</time></trkpt><trkpt lat="44.133915" lon="11.3614433"><ele>594.6666666666667</ele><time>2026-04-18T13:02:00.679Z</time></trkpt><trkpt lat="44.13391" lon="11.36134"><ele>594.8333333333334</ele><time>2026-04-18T13:02:01.679Z</time></trkpt><trkpt lat="44.133885" lon="11.3612183"><ele>595.0</ele><time>2026-04-18T13:02:02.679Z</time></trkpt><trkpt lat="44.1338467" lon="11.3610833"><ele>597.0</ele><time>2026-04-18T13:02:03.68Z</time></trkpt><trkpt lat="44.1338033" lon="11.360935"><ele>599.0</ele><time>2026-04-18T13:02:04.679Z</time></trkpt><trkpt lat="44.1337617" lon="11.3607667"><ele>601.0</ele><time>2026-04-18T13:02:05.679Z</time></trkpt><trkpt lat="44.1337217" lon="11.36059"><ele>603.0</ele><time>2026-04-18T13:02:06.68Z</time></trkpt><trkpt lat="44.133685" lon="11.3604083"><ele>604.75</ele><time>2026-04-18T13:02:07.679Z</time></trkpt><trkpt lat="44.1336467" lon="11.360225"><ele>606.5</ele><time>2026-04-18T13:02:08.679Z</time></trkpt><trkpt lat="44.133605" lon="11.3600317"><ele>608.25</ele><time>2026-04-18T13:02:09.679Z</time></trkpt><trkpt lat="44.1335683" lon="11.35984"><ele>610.0</ele><time>2026-04-18T13:02:10.679Z</time></trkpt><trkpt lat="44.1335367" lon="11.359655"><ele>612.6666666666667</ele><time>2026-04-18T13:02:11.679Z</time></trkpt><trkpt lat="44.1335017" lon="11.35945"><ele>615.3333333333334</ele><time>2026-04-18T13:02:12.68Z</time></trkpt><trkpt lat="44.1334717" lon="11.3592367"><ele>618.0</ele><time>2026-04-18T13:02:13.68Z</time></trkpt><trkpt lat="44.1334367" lon="11.3590267"><ele>619.6666666666666</ele><time>2026-04-18T13:02:14.68Z</time></trkpt><trkpt lat="44.1334" lon="11.3588283"><ele>621.3333333333333</ele><time>2026-04-18T13:02:15.68Z</time></trkpt><trkpt lat="44.1333633" lon="11.3586217"><ele>623.0</ele><time>2026-04-18T13:02:16.679Z</time></trkpt><trkpt lat="44.1333217" lon="11.3583933"><ele>623.0</ele><time>2026-04-18T13:02:17.678Z</time></trkpt><trkpt lat="44.1332867" lon="11.358185"><ele>623.0</ele><time>2026-04-18T13:02:18.678Z</time></trkpt><trkpt lat="44.13326" lon="11.3580133"><ele>623.0</ele><time>2026-04-18T13:02:19.679Z</time></trkpt><trkpt lat="44.1332383" lon="11.357865"><ele>623.0</ele><time>2026-04-18T13:02:20.678Z</time></trkpt><trkpt lat="44.133225" lon="11.357745"><ele>623.5</ele><time>2026-04-18T13:02:21.679Z</time></trkpt><trkpt lat="44.13322" lon="11.3576333"><ele>624.0</ele><time>2026-04-18T13:02:22.678Z</time></trkpt><trkpt lat="44.1332183" lon="11.35752"><ele>624.5</ele><time>2026-04-18T13:02:23.678Z</time></trkpt><trkpt lat="44.1332233" lon="11.3574033"><ele>625.0</ele><time>2026-04-18T13:02:24.678Z</time></trkpt><trkpt lat="44.1332383" lon="11.3572783"><ele>625.5</ele><time>2026-04-18T13:02:25.678Z</time></trkpt><trkpt lat="44.1332683" lon="11.3571583"><ele>626.0</ele><time>2026-04-18T13:02:26.678Z</time></trkpt><trkpt lat="44.133305" lon="11.3570333"><ele>626.8</ele><time>2026-04-18T13:02:27.679Z</time></trkpt><trkpt lat="44.1333467" lon="11.3569067"><ele>627.6</ele><time>2026-04-18T13:02:28.678Z</time></trkpt><trkpt lat="44.1333917" lon="11.35677"><ele>628.4</ele><time>2026-04-18T13:02:29.678Z</time></trkpt><trkpt lat="44.133435" lon="11.3566233"><ele>629.2</ele><time>2026-04-18T13:02:30.679Z</time></trkpt><trkpt lat="44.1334833" lon="11.3564717"><ele>630.0</ele><time>2026-04-18T13:02:31.679Z</time></trkpt><trkpt lat="44.13354" lon="11.3563267"><ele>630.0</ele><time>2026-04-18T13:02:32.678Z</time></trkpt><trkpt lat="44.1336133" lon="11.35617"><ele>630.0</ele><time>2026-04-18T13:02:33.678Z</time></trkpt><trkpt lat="44.1336833" lon="11.3560117"><ele>630.0</ele><time>2026-04-18T13:02:34.679Z</time></trkpt><trkpt lat="44.133745" lon="11.355865"><ele>630.0</ele><time>2026-04-18T13:02:35.679Z</time></trkpt><trkpt lat="44.1338" lon="11.3557317"><ele>630.0</ele><time>2026-04-18T13:02:36.678Z</time></trkpt><trkpt lat="44.1338533" lon="11.3556167"><ele>630.0</ele><time>2026-04-18T13:02:37.678Z</time></trkpt><trkpt lat="44.1339083" lon="11.3555133"><ele>630.0</ele><time>2026-04-18T13:02:38.679Z</time></trkpt><trkpt lat="44.133975" lon="11.3554067"><ele>630.0</ele><time>2026-04-18T13:02:39.678Z</time></trkpt><trkpt lat="44.134035" lon="11.3552933"><ele>630.0</ele><time>2026-04-18T13:02:40.678Z</time></trkpt><trkpt lat="44.1340883" lon="11.35516"><ele>632.75</ele><time>2026-04-18T13:02:41.679Z</time></trkpt><trkpt lat="44.1341483" lon="11.35502"><ele>635.5</ele><time>2026-04-18T13:02:42.678Z</time></trkpt><trkpt lat="44.134215" lon="11.3548867"><ele>638.25</ele><time>2026-04-18T13:02:43.679Z</time></trkpt><trkpt lat="44.1342783" lon="11.354755"><ele>641.0</ele><time>2026-04-18T13:02:44.678Z</time></trkpt><trkpt lat="44.1343217" lon="11.354615"><ele>641.75</ele><time>2026-04-18T13:02:45.678Z</time></trkpt><trkpt lat="44.1343517" lon="11.3544717"><ele>642.5</ele><time>2026-04-18T13:02:46.678Z</time></trkpt><trkpt lat="44.134375" lon="11.3543117"><ele>643.25</ele><time>2026-04-18T13:02:47.678Z</time></trkpt><trkpt lat="44.1343967" lon="11.3541483"><ele>644.0</ele><time>2026-04-18T13:02:48.678Z</time></trkpt><trkpt lat="44.1344317" lon="11.3539933"><ele>644.2</ele><time>2026-04-18T13:02:49.678Z</time></trkpt><trkpt lat="44.1344717" lon="11.35385"><ele>644.4000000000001</ele><time>2026-04-18T13:02:50.678Z</time></trkpt><trkpt lat="44.1345167" lon="11.3537233"><ele>644.6</ele><time>2026-04-18T13:02:51.679Z</time></trkpt><trkpt lat="44.1345717" lon="11.353605"><ele>644.8</ele><time>2026-04-18T13:02:52.678Z</time></trkpt><trkpt lat="44.1346233" lon="11.3534883"><ele>645.0</ele><time>2026-04-18T13:02:53.678Z</time></trkpt><trkpt lat="44.1346833" lon="11.3533617"><ele>645.0</ele><time>2026-04-18T13:02:54.678Z</time></trkpt><trkpt lat="44.1347417" lon="11.353225"><ele>645.0</ele><time>2026-04-18T13:02:55.678Z</time></trkpt><trkpt lat="44.13481" lon="11.3530717"><ele>645.0</ele><time>2026-04-18T13:02:56.678Z</time></trkpt><trkpt lat="44.1348917" lon="11.3529033"><ele>645.0</ele><time>2026-04-18T13:02:57.678Z</time></trkpt><trkpt lat="44.1349867" lon="11.3527133"><ele>650.3333333333334</ele><time>2026-04-18T13:02:58.678Z</time></trkpt><trkpt lat="44.1350867" lon="11.3524917"><ele>655.6666666666667</ele><time>2026-04-18T13:02:59.678Z</time></trkpt><trkpt lat="44.13518" lon="11.3522783"><ele>661.0</ele><time>2026-04-18T13:03:00.678Z</time></trkpt><trkpt lat="44.135245" lon="11.3520783"><ele>662.1666666666667</ele><time>2026-04-18T13:03:01.678Z</time></trkpt><trkpt lat="44.1352717" lon="11.3519183"><ele>663.3333333333334</ele><time>2026-04-18T13:03:02.678Z</time></trkpt><trkpt lat="44.135295" lon="11.3517783"><ele>664.5</ele><time>2026-04-18T13:03:03.679Z</time></trkpt><trkpt lat="44.1353333" lon="11.3516983"><ele>665.6666666666666</ele><time>2026-04-18T13:03:04.679Z</time></trkpt><trkpt lat="44.1353917" lon="11.35165"><ele>666.8333333333333</ele><time>2026-04-18T13:03:05.678Z</time></trkpt><trkpt lat="44.1354633" lon="11.3516233"><ele>668.0</ele><time>2026-04-18T13:03:06.678Z</time></trkpt><trkpt lat="44.1355783" lon="11.3515533"><ele>668.0</ele><time>2026-04-18T13:03:08.678Z</time></trkpt><trkpt lat="44.13563" lon="11.3514983"><ele>668.0</ele><time>2026-04-18T13:03:09.678Z</time></trkpt><trkpt lat="44.1356833" lon="11.3514017"><ele>668.0</ele><time>2026-04-18T13:03:10.678Z</time></trkpt><trkpt lat="44.1357517" lon="11.35127"><ele>668.0</ele><time>2026-04-18T13:03:11.679Z</time></trkpt><trkpt lat="44.135835" lon="11.3511317"><ele>668.0</ele><time>2026-04-18T13:03:12.679Z</time></trkpt><trkpt lat="44.13592" lon="11.3509917"><ele>671.5999999999999</ele><time>2026-04-18T13:03:13.678Z</time></trkpt><trkpt lat="44.13599" lon="11.350875"><ele>675.1999999999999</ele><time>2026-04-18T13:03:14.678Z</time></trkpt><trkpt lat="44.1360583" lon="11.3507817"><ele>678.8</ele><time>2026-04-18T13:03:15.678Z</time></trkpt><trkpt lat="44.1361183" lon="11.3506733"><ele>682.4</ele><time>2026-04-18T13:03:16.679Z</time></trkpt><trkpt lat="44.136175" lon="11.3505567"><ele>686.0</ele><time>2026-04-18T13:03:17.678Z</time></trkpt><trkpt lat="44.1362333" lon="11.350445"><ele>686.0</ele><time>2026-04-18T13:03:18.679Z</time></trkpt><trkpt lat="44.1363117" lon="11.3503483"><ele>686.0</ele><time>2026-04-18T13:03:19.678Z</time></trkpt><trkpt lat="44.13639" lon="11.3502483"><ele>686.0</ele><time>2026-04-18T13:03:20.678Z</time></trkpt><trkpt lat="44.136475" lon="11.350165"><ele>686.0</ele><time>2026-04-18T13:03:21.679Z</time></trkpt><trkpt lat="44.1365433" lon="11.3500933"><ele>686.0</ele><time>2026-04-18T13:03:22.678Z</time></trkpt><trkpt lat="44.1366033" lon="11.3500267"><ele>687.6666666666666</ele><time>2026-04-18T13:03:23.678Z</time></trkpt><trkpt lat="44.13665" lon="11.349955"><ele>689.3333333333333</ele><time>2026-04-18T13:03:24.679Z</time></trkpt><trkpt lat="44.1366983" lon="11.3498633"><ele>691.0</ele><time>2026-04-18T13:03:25.678Z</time></trkpt><trkpt lat="44.13671" lon="11.349745"><ele>692.6666666666666</ele><time>2026-04-18T13:03:26.679Z</time></trkpt><trkpt lat="44.1367217" lon="11.3496117"><ele>694.3333333333334</ele><time>2026-04-18T13:03:27.679Z</time></trkpt><trkpt lat="44.13674" lon="11.349475"><ele>696.0</ele><time>2026-04-18T13:03:28.678Z</time></trkpt><trkpt lat="44.1367667" lon="11.3493417"><ele>696.0</ele><time>2026-04-18T13:03:29.679Z</time></trkpt><trkpt lat="44.13681" lon="11.3492183"><ele>696.0</ele><time>2026-04-18T13:03:30.678Z</time></trkpt><trkpt lat="44.13686" lon="11.3490933"><ele>696.0</ele><time>2026-04-18T13:03:31.679Z</time></trkpt><trkpt lat="44.1369167" lon="11.3489517"><ele>696.0</ele><time>2026-04-18T13:03:32.678Z</time></trkpt><trkpt lat="44.13698" lon="11.3488133"><ele>696.0</ele><time>2026-04-18T13:03:33.678Z</time></trkpt><trkpt lat="44.1370517" lon="11.3486767"><ele>697.0</ele><time>2026-04-18T13:03:34.678Z</time></trkpt><trkpt lat="44.1371417" lon="11.3485567"><ele>698.0</ele><time>2026-04-18T13:03:35.679Z</time></trkpt><trkpt lat="44.1372333" lon="11.3484467"><ele>699.0</ele><time>2026-04-18T13:03:36.678Z</time></trkpt><trkpt lat="44.1373267" lon="11.34834"><ele>700.0</ele><time>2026-04-18T13:03:37.678Z</time></trkpt><trkpt lat="44.1374183" lon="11.348255"><ele>700.0</ele><time>2026-04-18T13:03:38.678Z</time></trkpt><trkpt lat="44.137505" lon="11.3481833"><ele>700.0</ele><time>2026-04-18T13:03:39.678Z</time></trkpt><trkpt lat="44.1375817" lon="11.3481067"><ele>700.0</ele><time>2026-04-18T13:03:40.678Z</time></trkpt><trkpt lat="44.13762" lon="11.3480083"><ele>700.0</ele><time>2026-04-18T13:03:41.678Z</time></trkpt><trkpt lat="44.13763" lon="11.3479"><ele>700.0</ele><time>2026-04-18T13:03:42.678Z</time></trkpt><trkpt lat="44.1376267" lon="11.3477833"><ele>700.0</ele><time>2026-04-18T13:03:43.678Z</time></trkpt><trkpt lat="44.1376233" lon="11.347675"><ele>699.5</ele><time>2026-04-18T13:03:44.678Z</time></trkpt><trkpt lat="44.1376217" lon="11.3475817"><ele>699.0</ele><time>2026-04-18T13:03:45.678Z</time></trkpt><trkpt lat="44.13764" lon="11.3474933"><ele>698.5</ele><time>2026-04-18T13:03:46.678Z</time></trkpt><trkpt lat="44.1376933" lon="11.3473633"><ele>698.0</ele><time>2026-04-18T13:03:48.679Z</time></trkpt><trkpt lat="44.13775" lon="11.3472517"><ele>697.5</ele><time>2026-04-18T13:03:50.678Z</time></trkpt><trkpt lat="44.13778" lon="11.3471717"><ele>697.0</ele><time>2026-04-18T13:03:51.678Z</time></trkpt><trkpt lat="44.1378467" lon="11.3470667"><ele>698.0</ele><time>2026-04-18T13:03:53.678Z</time></trkpt><trkpt lat="44.1379183" lon="11.3470067"><ele>699.0</ele><time>2026-04-18T13:03:55.678Z</time></trkpt><trkpt lat="44.1379683" lon="11.3469467"><ele>700.0</ele><time>2026-04-18T13:03:58.678Z</time></trkpt><trkpt lat="44.137965" lon="11.3468"><ele>701.0</ele><time>2026-04-18T13:05:14.677Z</time></trkpt><trkpt lat="44.1379817" lon="11.3466383"><ele>702.0</ele><time>2026-04-18T13:05:16.677Z</time></trkpt><trkpt lat="44.1379933" lon="11.3465383"><ele>703.0</ele><time>2026-04-18T13:05:17.678Z</time></trkpt><trkpt lat="44.1379983" lon="11.3464183"><ele>703.8</ele><time>2026-04-18T13:05:18.677Z</time></trkpt><trkpt lat="44.138" lon="11.346305"><ele>704.5999999999999</ele><time>2026-04-18T13:05:19.678Z</time></trkpt><trkpt lat="44.13801" lon="11.3461883"><ele>705.4000000000001</ele><time>2026-04-18T13:05:20.677Z</time></trkpt><trkpt lat="44.1380167" lon="11.3460483"><ele>706.2</ele><time>2026-04-18T13:05:21.677Z</time></trkpt><trkpt lat="44.1380283" lon="11.34589"><ele>707.0</ele><time>2026-04-18T13:05:22.678Z</time></trkpt><trkpt lat="44.138035" lon="11.3457317"><ele>707.0</ele><time>2026-04-18T13:05:23.678Z</time></trkpt><trkpt lat="44.1380233" lon="11.3455533"><ele>707.0</ele><time>2026-04-18T13:05:24.677Z</time></trkpt><trkpt lat="44.1380117" lon="11.34541"><ele>707.0</ele><time>2026-04-18T13:05:25.677Z</time></trkpt><trkpt lat="44.1379933" lon="11.3452917"><ele>707.0</ele><time>2026-04-18T13:05:26.677Z</time></trkpt><trkpt lat="44.1379617" lon="11.345195"><ele>707.0</ele><time>2026-04-18T13:05:27.677Z</time></trkpt><trkpt lat="44.1379333" lon="11.34511"><ele>707.8333333333333</ele><time>2026-04-18T13:05:28.677Z</time></trkpt><trkpt lat="44.137915" lon="11.3450217"><ele>708.6666666666666</ele><time>2026-04-18T13:05:29.678Z</time></trkpt><trkpt lat="44.1379217" lon="11.3448433"><ele>709.5</ele><time>2026-04-18T13:05:31.677Z</time></trkpt><trkpt lat="44.1379333" lon="11.3447367"><ele>710.3333333333334</ele><time>2026-04-18T13:05:32.677Z</time></trkpt><trkpt lat="44.1379317" lon="11.3446167"><ele>711.1666666666667</ele><time>2026-04-18T13:05:33.677Z</time></trkpt><trkpt lat="44.1379233" lon="11.3445017"><ele>712.0</ele><time>2026-04-18T13:05:34.678Z</time></trkpt><trkpt lat="44.13792" lon="11.34438"><ele>712.0</ele><time>2026-04-18T13:05:35.677Z</time></trkpt><trkpt lat="44.1379167" lon="11.3442667"><ele>712.0</ele><time>2026-04-18T13:05:36.677Z</time></trkpt><trkpt lat="44.1379117" lon="11.3441567"><ele>712.0</ele><time>2026-04-18T13:05:37.678Z</time></trkpt><trkpt lat="44.1378933" lon="11.344055"><ele>712.0</ele><time>2026-04-18T13:05:38.677Z</time></trkpt><trkpt lat="44.1378717" lon="11.3439333"><ele>712.0</ele><time>2026-04-18T13:05:39.677Z</time></trkpt><trkpt lat="44.1378367" lon="11.3437767"><ele>712.0</ele><time>2026-04-18T13:05:40.678Z</time></trkpt><trkpt lat="44.137795" lon="11.343595"><ele>712.0</ele><time>2026-04-18T13:05:41.677Z</time></trkpt><trkpt lat="44.1377567" lon="11.3434183"><ele>712.0</ele><time>2026-04-18T13:05:42.677Z</time></trkpt><trkpt lat="44.1377217" lon="11.3432533"><ele>712.0</ele><time>2026-04-18T13:05:43.677Z</time></trkpt><trkpt lat="44.1376917" lon="11.3430917"><ele>712.0</ele><time>2026-04-18T13:05:44.677Z</time></trkpt><trkpt lat="44.1376683" lon="11.3429417"><ele>712.1666666666667</ele><time>2026-04-18T13:05:45.677Z</time></trkpt><trkpt lat="44.1376633" lon="11.3428017"><ele>712.3333333333334</ele><time>2026-04-18T13:05:46.678Z</time></trkpt><trkpt lat="44.1376617" lon="11.34268"><ele>712.5</ele><time>2026-04-18T13:05:47.677Z</time></trkpt><trkpt lat="44.13767" lon="11.34258"><ele>712.6666666666666</ele><time>2026-04-18T13:05:48.677Z</time></trkpt><trkpt lat="44.1376833" lon="11.3424933"><ele>712.8333333333333</ele><time>2026-04-18T13:05:49.677Z</time></trkpt><trkpt lat="44.1376967" lon="11.3423933"><ele>713.0</ele><time>2026-04-18T13:05:51.678Z</time></trkpt><trkpt lat="44.1377667" lon="11.3423583"><ele>713.0</ele><time>2026-04-18T13:05:54.677Z</time></trkpt><trkpt lat="44.137865" lon="11.3424567"><ele>713.0</ele><time>2026-04-18T13:05:56.678Z</time></trkpt><trkpt lat="44.1379283" lon="11.342515"><ele>713.0</ele><time>2026-04-18T13:05:57.677Z</time></trkpt><trkpt lat="44.1380033" lon="11.3425783"><ele>713.0</ele><time>2026-04-18T13:05:58.677Z</time></trkpt><trkpt lat="44.1380933" lon="11.3426467"><ele>713.0</ele><time>2026-04-18T13:05:59.678Z</time></trkpt><trkpt lat="44.1381783" lon="11.34271"><ele>712.0</ele><time>2026-04-18T13:06:00.677Z</time></trkpt><trkpt lat="44.1382633" lon="11.3427833"><ele>711.0</ele><time>2026-04-18T13:06:01.677Z</time></trkpt><trkpt lat="44.1383533" lon="11.3428617"><ele>710.0</ele><time>2026-04-18T13:06:02.678Z</time></trkpt><trkpt lat="44.1384367" lon="11.3429233"><ele>709.0</ele><time>2026-04-18T13:06:03.678Z</time></trkpt><trkpt lat="44.1385267" lon="11.3429767"><ele>708.0</ele><time>2026-04-18T13:06:04.677Z</time></trkpt><trkpt lat="44.1386167" lon="11.343025"><ele>707.8</ele><time>2026-04-18T13:06:05.678Z</time></trkpt><trkpt lat="44.1387233" lon="11.3430583"><ele>707.5999999999999</ele><time>2026-04-18T13:06:06.677Z</time></trkpt><trkpt lat="44.1388183" lon="11.3430817"><ele>707.4000000000001</ele><time>2026-04-18T13:06:07.677Z</time></trkpt><trkpt lat="44.138925" lon="11.3430983"><ele>707.2</ele><time>2026-04-18T13:06:08.677Z</time></trkpt><trkpt lat="44.1390217" lon="11.3431133"><ele>707.0</ele><time>2026-04-18T13:06:09.677Z</time></trkpt><trkpt lat="44.1391233" lon="11.343145"><ele>704.6</ele><time>2026-04-18T13:06:10.677Z</time></trkpt><trkpt lat="44.1392167" lon="11.3431917"><ele>702.2</ele><time>2026-04-18T13:06:11.677Z</time></trkpt><trkpt lat="44.1393067" lon="11.3432433"><ele>699.8</ele><time>2026-04-18T13:06:12.677Z</time></trkpt><trkpt lat="44.1393933" lon="11.3433217"><ele>697.4</ele><time>2026-04-18T13:06:13.677Z</time></trkpt><trkpt lat="44.1394833" lon="11.3434067"><ele>695.0</ele><time>2026-04-18T13:06:14.677Z</time></trkpt><trkpt lat="44.1395733" lon="11.3434867"><ele>695.0</ele><time>2026-04-18T13:06:15.678Z</time></trkpt><trkpt lat="44.1396667" lon="11.3435417"><ele>695.0</ele><time>2026-04-18T13:06:16.677Z</time></trkpt><trkpt lat="44.1397517" lon="11.3436"><ele>695.0</ele><time>2026-04-18T13:06:17.677Z</time></trkpt><trkpt lat="44.1398433" lon="11.3436533"><ele>695.0</ele><time>2026-04-18T13:06:18.677Z</time></trkpt><trkpt lat="44.1399267" lon="11.343695"><ele>695.0</ele><time>2026-04-18T13:06:19.678Z</time></trkpt><trkpt lat="44.1400033" lon="11.3437233"><ele>692.6</ele><time>2026-04-18T13:06:20.677Z</time></trkpt><trkpt lat="44.1400833" lon="11.34373"><ele>690.2</ele><time>2026-04-18T13:06:21.678Z</time></trkpt><trkpt lat="44.14017" lon="11.3437217"><ele>687.8</ele><time>2026-04-18T13:06:22.677Z</time></trkpt><trkpt lat="44.1402583" lon="11.3436883"><ele>685.4</ele><time>2026-04-18T13:06:23.677Z</time></trkpt><trkpt lat="44.1403417" lon="11.3436383"><ele>683.0</ele><time>2026-04-18T13:06:24.678Z</time></trkpt><trkpt lat="44.14044" lon="11.343565"><ele>683.0</ele><time>2026-04-18T13:06:25.677Z</time></trkpt><trkpt lat="44.14054" lon="11.3434933"><ele>683.0</ele><time>2026-04-18T13:06:26.677Z</time></trkpt><trkpt lat="44.1406283" lon="11.34341"><ele>683.0</ele><time>2026-04-18T13:06:27.678Z</time></trkpt><trkpt lat="44.1407133" lon="11.3433317"><ele>683.0</ele><time>2026-04-18T13:06:28.678Z</time></trkpt><trkpt lat="44.140785" lon="11.3432567"><ele>683.0</ele><time>2026-04-18T13:06:29.678Z</time></trkpt><trkpt lat="44.1408433" lon="11.343185"><ele>682.2</ele><time>2026-04-18T13:06:30.678Z</time></trkpt><trkpt lat="44.1409283" lon="11.34306"><ele>681.4</ele><time>2026-04-18T13:06:32.677Z</time></trkpt><trkpt lat="44.1409717" lon="11.3429867"><ele>680.6</ele><time>2026-04-18T13:06:33.677Z</time></trkpt><trkpt lat="44.14106" lon="11.342865"><ele>679.8000000000001</ele><time>2026-04-18T13:06:35.677Z</time></trkpt><trkpt lat="44.1411283" lon="11.3428333"><ele>679.0</ele><time>2026-04-18T13:06:36.678Z</time></trkpt><trkpt lat="44.141205" lon="11.3428217"><ele>679.0</ele><time>2026-04-18T13:06:37.678Z</time></trkpt><trkpt lat="44.14129" lon="11.342825"><ele>679.0</ele><time>2026-04-18T13:06:38.677Z</time></trkpt><trkpt lat="44.14138" lon="11.342835"><ele>679.0</ele><time>2026-04-18T13:06:39.677Z</time></trkpt><trkpt lat="44.1414783" lon="11.342845"><ele>679.0</ele><time>2026-04-18T13:06:40.677Z</time></trkpt><trkpt lat="44.1415867" lon="11.342855"><ele>679.0</ele><time>2026-04-18T13:06:41.677Z</time></trkpt><trkpt lat="44.1417" lon="11.3428567"><ele>676.8000000000001</ele><time>2026-04-18T13:06:42.677Z</time></trkpt><trkpt lat="44.1418217" lon="11.34287"><ele>674.6</ele><time>2026-04-18T13:06:43.677Z</time></trkpt><trkpt lat="44.141935" lon="11.3428967"><ele>672.4</ele><time>2026-04-18T13:06:44.677Z</time></trkpt><trkpt lat="44.14204" lon="11.342925"><ele>670.2</ele><time>2026-04-18T13:06:45.677Z</time></trkpt><trkpt lat="44.14213" lon="11.3429583"><ele>668.0</ele><time>2026-04-18T13:06:46.677Z</time></trkpt><trkpt lat="44.1422267" lon="11.3430017"><ele>668.0</ele><time>2026-04-18T13:06:47.678Z</time></trkpt><trkpt lat="44.1423283" lon="11.3430233"><ele>668.0</ele><time>2026-04-18T13:06:48.678Z</time></trkpt><trkpt lat="44.14243" lon="11.343025"><ele>668.0</ele><time>2026-04-18T13:06:49.677Z</time></trkpt><trkpt lat="44.1425283" lon="11.3430267"><ele>668.0</ele><time>2026-04-18T13:06:50.678Z</time></trkpt><trkpt lat="44.1426333" lon="11.3430083"><ele>668.0</ele><time>2026-04-18T13:06:51.678Z</time></trkpt><trkpt lat="44.14273" lon="11.3429817"><ele>667.5999999999999</ele><time>2026-04-18T13:06:52.677Z</time></trkpt><trkpt lat="44.1428217" lon="11.3429333"><ele>667.1999999999999</ele><time>2026-04-18T13:06:53.677Z</time></trkpt><trkpt lat="44.1429067" lon="11.34287"><ele>666.8</ele><time>2026-04-18T13:06:54.678Z</time></trkpt><trkpt lat="44.1429817" lon="11.3427917"><ele>666.4</ele><time>2026-04-18T13:06:55.677Z</time></trkpt><trkpt lat="44.1430433" lon="11.3427"><ele>666.0</ele><time>2026-04-18T13:06:56.678Z</time></trkpt><trkpt lat="44.1431067" lon="11.3426083"><ele>666.0</ele><time>2026-04-18T13:06:57.677Z</time></trkpt><trkpt lat="44.1431717" lon="11.342505"><ele>666.0</ele><time>2026-04-18T13:06:58.677Z</time></trkpt><trkpt lat="44.143235" lon="11.3424033"><ele>666.0</ele><time>2026-04-18T13:06:59.678Z</time></trkpt><trkpt lat="44.14328" lon="11.3423017"><ele>666.0</ele><time>2026-04-18T13:07:00.677Z</time></trkpt><trkpt lat="44.1433117" lon="11.34221"><ele>666.0</ele><time>2026-04-18T13:07:01.678Z</time></trkpt><trkpt lat="44.1433283" lon="11.3421133"><ele>666.0</ele><time>2026-04-18T13:07:02.678Z</time></trkpt><trkpt lat="44.14341" lon="11.342005"><ele>668.1999999999999</ele><time>2026-04-18T13:07:04.678Z</time></trkpt><trkpt lat="44.143535" lon="11.341985"><ele>670.4</ele><time>2026-04-18T13:07:06.677Z</time></trkpt><trkpt lat="44.143615" lon="11.3420233"><ele>672.6</ele><time>2026-04-18T13:07:07.677Z</time></trkpt><trkpt lat="44.1436883" lon="11.3420983"><ele>674.8</ele><time>2026-04-18T13:07:08.678Z</time></trkpt><trkpt lat="44.1437467" lon="11.3421667"><ele>677.0</ele><time>2026-04-18T13:07:09.677Z</time></trkpt><trkpt lat="44.1438383" lon="11.34221"><ele>677.0</ele><time>2026-04-18T13:07:11.677Z</time></trkpt><trkpt lat="44.14393" lon="11.34216"><ele>677.0</ele><time>2026-04-18T13:07:13.677Z</time></trkpt><trkpt lat="44.1439783" lon="11.3421"><ele>677.0</ele><time>2026-04-18T13:07:14.677Z</time></trkpt><trkpt lat="44.1440233" lon="11.3420083"><ele>677.0</ele><time>2026-04-18T13:07:15.677Z</time></trkpt><trkpt lat="44.1440733" lon="11.3419033"><ele>677.0</ele><time>2026-04-18T13:07:16.677Z</time></trkpt><trkpt lat="44.14414" lon="11.341815"><ele>677.0</ele><time>2026-04-18T13:07:17.677Z</time></trkpt><trkpt lat="44.1442067" lon="11.34174"><ele>678.0</ele><time>2026-04-18T13:07:18.678Z</time></trkpt><trkpt lat="44.1442733" lon="11.34167"><ele>679.0</ele><time>2026-04-18T13:07:19.677Z</time></trkpt><trkpt lat="44.1443417" lon="11.3415917"><ele>680.0</ele><time>2026-04-18T13:07:20.678Z</time></trkpt><trkpt lat="44.1444167" lon="11.3414983"><ele>681.0</ele><time>2026-04-18T13:07:21.678Z</time></trkpt><trkpt lat="44.1444917" lon="11.3413983"><ele>682.0</ele><time>2026-04-18T13:07:22.677Z</time></trkpt><trkpt lat="44.14457" lon="11.3412917"><ele>683.2</ele><time>2026-04-18T13:07:23.677Z</time></trkpt><trkpt lat="44.1446483" lon="11.341185"><ele>684.4000000000001</ele><time>2026-04-18T13:07:24.677Z</time></trkpt><trkpt lat="44.14472" lon="11.341075"><ele>685.5999999999999</ele><time>2026-04-18T13:07:25.677Z</time></trkpt><trkpt lat="44.14478" lon="11.3409617"><ele>686.8</ele><time>2026-04-18T13:07:26.677Z</time></trkpt><trkpt lat="44.14483" lon="11.3408533"><ele>688.0</ele><time>2026-04-18T13:07:27.678Z</time></trkpt><trkpt lat="44.14488" lon="11.3407483"><ele>688.0</ele><time>2026-04-18T13:07:28.677Z</time></trkpt><trkpt lat="44.1449233" lon="11.34064"><ele>688.0</ele><time>2026-04-18T13:07:29.678Z</time></trkpt><trkpt lat="44.1449617" lon="11.3405533"><ele>688.0</ele><time>2026-04-18T13:07:30.677Z</time></trkpt><trkpt lat="44.1450083" lon="11.3404717"><ele>688.0</ele><time>2026-04-18T13:07:31.677Z</time></trkpt><trkpt lat="44.1450633" lon="11.34041"><ele>688.0</ele><time>2026-04-18T13:07:32.677Z</time></trkpt><trkpt lat="44.1451367" lon="11.3403767"><ele>688.0</ele><time>2026-04-18T13:07:33.677Z</time></trkpt><trkpt lat="44.1452283" lon="11.3403583"><ele>689.2</ele><time>2026-04-18T13:07:34.678Z</time></trkpt><trkpt lat="44.145335" lon="11.34034"><ele>690.4</ele><time>2026-04-18T13:07:35.677Z</time></trkpt><trkpt lat="44.1454383" lon="11.3403"><ele>691.6</ele><time>2026-04-18T13:07:36.677Z</time></trkpt><trkpt lat="44.145535" lon="11.3402567"><ele>692.8000000000001</ele><time>2026-04-18T13:07:37.677Z</time></trkpt><trkpt lat="44.1456283" lon="11.3402017"><ele>694.0</ele><time>2026-04-18T13:07:38.678Z</time></trkpt><trkpt lat="44.14572" lon="11.340145"><ele>694.2</ele><time>2026-04-18T13:07:39.677Z</time></trkpt><trkpt lat="44.1458217" lon="11.3400817"><ele>694.4000000000001</ele><time>2026-04-18T13:07:40.677Z</time></trkpt><trkpt lat="44.145925" lon="11.34002"><ele>694.6</ele><time>2026-04-18T13:07:41.678Z</time></trkpt><trkpt lat="44.1460283" lon="11.3399617"><ele>694.8</ele><time>2026-04-18T13:07:42.678Z</time></trkpt><trkpt lat="44.14612" lon="11.3399117"><ele>695.0</ele><time>2026-04-18T13:07:43.677Z</time></trkpt><trkpt lat="44.1462083" lon="11.3398533"><ele>695.0</ele><time>2026-04-18T13:07:44.678Z</time></trkpt><trkpt lat="44.1462883" lon="11.3397933"><ele>695.0</ele><time>2026-04-18T13:07:45.678Z</time></trkpt><trkpt lat="44.1463783" lon="11.339715"><ele>695.0</ele><time>2026-04-18T13:07:46.678Z</time></trkpt><trkpt lat="44.1464533" lon="11.339625"><ele>695.0</ele><time>2026-04-18T13:07:47.677Z</time></trkpt><trkpt lat="44.1465317" lon="11.339545"><ele>695.0</ele><time>2026-04-18T13:07:48.677Z</time></trkpt><trkpt lat="44.146615" lon="11.3394783"><ele>697.8333333333333</ele><time>2026-04-18T13:07:49.677Z</time></trkpt><trkpt lat="44.1466983" lon="11.33942"><ele>700.6666666666666</ele><time>2026-04-18T13:07:50.677Z</time></trkpt><trkpt lat="44.14678" lon="11.3393783"><ele>703.5</ele><time>2026-04-18T13:07:51.677Z</time></trkpt><trkpt lat="44.1468583" lon="11.3393417"><ele>706.3333333333334</ele><time>2026-04-18T13:07:52.677Z</time></trkpt><trkpt lat="44.1469233" lon="11.33932"><ele>709.1666666666667</ele><time>2026-04-18T13:07:53.677Z</time></trkpt><trkpt lat="44.1469933" lon="11.3392733"><ele>712.0</ele><time>2026-04-18T13:07:54.677Z</time></trkpt><trkpt lat="44.1470467" lon="11.3392"><ele>712.0</ele><time>2026-04-18T13:07:55.677Z</time></trkpt><trkpt lat="44.1470933" lon="11.33911"><ele>712.0</ele><time>2026-04-18T13:07:56.677Z</time></trkpt><trkpt lat="44.1471483" lon="11.33901"><ele>712.0</ele><time>2026-04-18T13:07:57.678Z</time></trkpt><trkpt lat="44.1472" lon="11.33892"><ele>712.0</ele><time>2026-04-18T13:07:58.678Z</time></trkpt><trkpt lat="44.147255" lon="11.3388467"><ele>712.0</ele><time>2026-04-18T13:07:59.678Z</time></trkpt><trkpt lat="44.1473117" lon="11.33878"><ele>712.0</ele><time>2026-04-18T13:08:00.677Z</time></trkpt><trkpt lat="44.1474183" lon="11.3387183"><ele>712.6</ele><time>2026-04-18T13:08:02.678Z</time></trkpt><trkpt lat="44.1475467" lon="11.3386817"><ele>713.2</ele><time>2026-04-18T13:08:04.677Z</time></trkpt><trkpt lat="44.1476167" lon="11.3386383"><ele>713.8</ele><time>2026-04-18T13:08:05.677Z</time></trkpt><trkpt lat="44.1476967" lon="11.338585"><ele>714.4</ele><time>2026-04-18T13:08:06.677Z</time></trkpt><trkpt lat="44.14778" lon="11.338525"><ele>715.0</ele><time>2026-04-18T13:08:07.678Z</time></trkpt><trkpt lat="44.1478533" lon="11.3384667"><ele>715.0</ele><time>2026-04-18T13:08:08.677Z</time></trkpt><trkpt lat="44.14793" lon="11.3384017"><ele>715.0</ele><time>2026-04-18T13:08:09.677Z</time></trkpt><trkpt lat="44.1480017" lon="11.338345"><ele>715.0</ele><time>2026-04-18T13:08:10.677Z</time></trkpt><trkpt lat="44.14807" lon="11.3382917"><ele>715.0</ele><time>2026-04-18T13:08:11.677Z</time></trkpt><trkpt lat="44.1481467" lon="11.33825"><ele>715.0</ele><time>2026-04-18T13:08:12.677Z</time></trkpt><trkpt lat="44.1482417" lon="11.3382133"><ele>715.0</ele><time>2026-04-18T13:08:13.678Z</time></trkpt><trkpt lat="44.14835" lon="11.3381783"><ele>715.6666666666667</ele><time>2026-04-18T13:08:14.677Z</time></trkpt><trkpt lat="44.148455" lon="11.338135"><ele>716.3333333333334</ele><time>2026-04-18T13:08:15.678Z</time></trkpt><trkpt lat="44.14855" lon="11.338095"><ele>717.0</ele><time>2026-04-18T13:08:16.676Z</time></trkpt><trkpt lat="44.1486267" lon="11.3380283"><ele>717.6666666666666</ele><time>2026-04-18T13:08:17.677Z</time></trkpt><trkpt lat="44.1486867" lon="11.33797"><ele>718.3333333333333</ele><time>2026-04-18T13:08:18.677Z</time></trkpt><trkpt lat="44.1487267" lon="11.3378833"><ele>719.0</ele><time>2026-04-18T13:08:19.676Z</time></trkpt><trkpt lat="44.14876" lon="11.337775"><ele>719.0</ele><time>2026-04-18T13:08:20.676Z</time></trkpt><trkpt lat="44.1488033" lon="11.3376383"><ele>719.0</ele><time>2026-04-18T13:08:21.676Z</time></trkpt><trkpt lat="44.1488433" lon="11.3374917"><ele>719.0</ele><time>2026-04-18T13:08:22.677Z</time></trkpt><trkpt lat="44.148885" lon="11.3373667"><ele>719.0</ele><time>2026-04-18T13:08:23.676Z</time></trkpt><trkpt lat="44.1489333" lon="11.3372717"><ele>719.0</ele><time>2026-04-18T13:08:24.677Z</time></trkpt><trkpt lat="44.149" lon="11.3371967"><ele>721.2</ele><time>2026-04-18T13:08:25.677Z</time></trkpt><trkpt lat="44.1490717" lon="11.33713"><ele>723.4000000000001</ele><time>2026-04-18T13:08:26.676Z</time></trkpt><trkpt lat="44.14916" lon="11.3370567"><ele>725.6</ele><time>2026-04-18T13:08:27.677Z</time></trkpt><trkpt lat="44.149255" lon="11.33697"><ele>727.8</ele><time>2026-04-18T13:08:28.676Z</time></trkpt><trkpt lat="44.1493567" lon="11.3368917"><ele>730.0</ele><time>2026-04-18T13:08:29.677Z</time></trkpt><trkpt lat="44.1494567" lon="11.3368233"><ele>730.0</ele><time>2026-04-18T13:08:30.676Z</time></trkpt><trkpt lat="44.1495417" lon="11.3367617"><ele>730.0</ele><time>2026-04-18T13:08:31.676Z</time></trkpt><trkpt lat="44.1496117" lon="11.3367167"><ele>730.0</ele><time>2026-04-18T13:08:32.677Z</time></trkpt><trkpt lat="44.1496717" lon="11.3366717"><ele>730.0</ele><time>2026-04-18T13:08:33.676Z</time></trkpt><trkpt lat="44.14974" lon="11.3366583"><ele>730.0</ele><time>2026-04-18T13:08:34.676Z</time></trkpt><trkpt lat="44.149815" lon="11.3366533"><ele>730.0</ele><time>2026-04-18T13:08:35.676Z</time></trkpt><trkpt lat="44.1498933" lon="11.3366433"><ele>731.0</ele><time>2026-04-18T13:08:36.676Z</time></trkpt><trkpt lat="44.1499717" lon="11.3366283"><ele>732.0</ele><time>2026-04-18T13:08:37.677Z</time></trkpt><trkpt lat="44.1500583" lon="11.336595"><ele>733.0</ele><time>2026-04-18T13:08:38.676Z</time></trkpt><trkpt lat="44.1501367" lon="11.3365483"><ele>734.0</ele><time>2026-04-18T13:08:39.676Z</time></trkpt><trkpt lat="44.150205" lon="11.33651"><ele>735.0</ele><time>2026-04-18T13:08:40.677Z</time></trkpt><trkpt lat="44.1502667" lon="11.336485"><ele>736.0</ele><time>2026-04-18T13:08:41.677Z</time></trkpt><trkpt lat="44.15033" lon="11.33648"><ele>736.0</ele><time>2026-04-18T13:08:42.676Z</time></trkpt><trkpt lat="44.1504483" lon="11.3365467"><ele>736.0</ele><time>2026-04-18T13:08:44.677Z</time></trkpt><trkpt lat="44.15051" lon="11.3366167"><ele>736.0</ele><time>2026-04-18T13:08:45.676Z</time></trkpt><trkpt lat="44.1505683" lon="11.336715"><ele>736.0</ele><time>2026-04-18T13:08:46.677Z</time></trkpt><trkpt lat="44.1506367" lon="11.3368"><ele>736.0</ele><time>2026-04-18T13:08:47.676Z</time></trkpt><trkpt lat="44.1507183" lon="11.33688"><ele>737.6666666666667</ele><time>2026-04-18T13:08:48.677Z</time></trkpt><trkpt lat="44.1507967" lon="11.3369467"><ele>739.3333333333334</ele><time>2026-04-18T13:08:49.676Z</time></trkpt><trkpt lat="44.150885" lon="11.3369967"><ele>741.0</ele><time>2026-04-18T13:08:50.676Z</time></trkpt><trkpt lat="44.1509667" lon="11.33704"><ele>742.6666666666666</ele><time>2026-04-18T13:08:51.676Z</time></trkpt><trkpt lat="44.1510483" lon="11.3370717"><ele>744.3333333333333</ele><time>2026-04-18T13:08:52.676Z</time></trkpt><trkpt lat="44.1511267" lon="11.33708"><ele>746.0</ele><time>2026-04-18T13:08:53.676Z</time></trkpt><trkpt lat="44.1511967" lon="11.3370583"><ele>746.0</ele><time>2026-04-18T13:08:54.676Z</time></trkpt><trkpt lat="44.15128" lon="11.3370217"><ele>746.0</ele><time>2026-04-18T13:08:55.676Z</time></trkpt><trkpt lat="44.15135" lon="11.3369633"><ele>746.0</ele><time>2026-04-18T13:08:56.676Z</time></trkpt><trkpt lat="44.15142" lon="11.3368683"><ele>746.0</ele><time>2026-04-18T13:08:57.676Z</time></trkpt><trkpt lat="44.1515017" lon="11.3367683"><ele>746.0</ele><time>2026-04-18T13:08:58.676Z</time></trkpt><trkpt lat="44.1516033" lon="11.33668"><ele>747.5999999999999</ele><time>2026-04-18T13:08:59.677Z</time></trkpt><trkpt lat="44.1517217" lon="11.33658"><ele>749.2</ele><time>2026-04-18T13:09:00.676Z</time></trkpt><trkpt lat="44.1518233" lon="11.3364867"><ele>750.8</ele><time>2026-04-18T13:09:01.676Z</time></trkpt><trkpt lat="44.1519" lon="11.336405"><ele>752.4000000000001</ele><time>2026-04-18T13:09:02.677Z</time></trkpt><trkpt lat="44.151965" lon="11.3363317"><ele>754.0</ele><time>2026-04-18T13:09:03.677Z</time></trkpt><trkpt lat="44.1520283" lon="11.3362683"><ele>756.1666666666667</ele><time>2026-04-18T13:09:04.676Z</time></trkpt><trkpt lat="44.1520883" lon="11.3362083"><ele>758.3333333333334</ele><time>2026-04-18T13:09:05.676Z</time></trkpt><trkpt lat="44.15214" lon="11.3361317"><ele>760.5</ele><time>2026-04-18T13:09:06.676Z</time></trkpt><trkpt lat="44.15217" lon="11.3360083"><ele>762.6666666666666</ele><time>2026-04-18T13:09:07.677Z</time></trkpt><trkpt lat="44.1521883" lon="11.3358833"><ele>764.8333333333333</ele><time>2026-04-18T13:09:08.677Z</time></trkpt><trkpt lat="44.152205" lon="11.335725"><ele>767.0</ele><time>2026-04-18T13:09:09.677Z</time></trkpt><trkpt lat="44.1522317" lon="11.3355683"><ele>768.4000000000001</ele><time>2026-04-18T13:09:10.676Z</time></trkpt><trkpt lat="44.1522617" lon="11.335425"><ele>769.8000000000001</ele><time>2026-04-18T13:09:11.676Z</time></trkpt><trkpt lat="44.1522833" lon="11.33528"><ele>771.2</ele><time>2026-04-18T13:09:12.676Z</time></trkpt><trkpt lat="44.1523067" lon="11.3351333"><ele>772.6</ele><time>2026-04-18T13:09:13.676Z</time></trkpt><trkpt lat="44.1523433" lon="11.3349867"><ele>774.0</ele><time>2026-04-18T13:09:14.676Z</time></trkpt><trkpt lat="44.15239" lon="11.3348433"><ele>776.8000000000001</ele><time>2026-04-18T13:09:15.676Z</time></trkpt><trkpt lat="44.152445" lon="11.334705"><ele>779.6</ele><time>2026-04-18T13:09:16.676Z</time></trkpt><trkpt lat="44.1524833" lon="11.3345733"><ele>782.4</ele><time>2026-04-18T13:09:17.676Z</time></trkpt><trkpt lat="44.1524967" lon="11.3344283"><ele>785.2</ele><time>2026-04-18T13:09:18.677Z</time></trkpt><trkpt lat="44.152485" lon="11.3342817"><ele>788.0</ele><time>2026-04-18T13:09:19.676Z</time></trkpt><trkpt lat="44.152475" lon="11.3341417"><ele>788.0000000000001</ele><time>2026-04-18T13:09:20.676Z</time></trkpt><trkpt lat="44.1524883" lon="11.334015"><ele>788.0</ele><time>2026-04-18T13:09:21.676Z</time></trkpt><trkpt lat="44.1525067" lon="11.3339033"><ele>788.0</ele><time>2026-04-18T13:09:22.676Z</time></trkpt><trkpt lat="44.1525533" lon="11.3337867"><ele>788.0</ele><time>2026-04-18T13:09:23.676Z</time></trkpt><trkpt lat="44.1526" lon="11.333685"><ele>788.0000000000001</ele><time>2026-04-18T13:09:24.676Z</time></trkpt><trkpt lat="44.152635" lon="11.33357"><ele>788.0</ele><time>2026-04-18T13:09:25.676Z</time></trkpt><trkpt lat="44.1526533" lon="11.3334317"><ele>789.0</ele><time>2026-04-18T13:09:26.676Z</time></trkpt><trkpt lat="44.1526683" lon="11.33329"><ele>790.0</ele><time>2026-04-18T13:09:27.676Z</time></trkpt><trkpt lat="44.152675" lon="11.33313"><ele>791.0</ele><time>2026-04-18T13:09:28.676Z</time></trkpt><trkpt lat="44.15268" lon="11.332965"><ele>792.0</ele><time>2026-04-18T13:09:29.676Z</time></trkpt><trkpt lat="44.15268" lon="11.3328017"><ele>793.1666666666666</ele><time>2026-04-18T13:09:30.676Z</time></trkpt><trkpt lat="44.152675" lon="11.3326717"><ele>794.3333333333333</ele><time>2026-04-18T13:09:31.677Z</time></trkpt><trkpt lat="44.15265" lon="11.3325617"><ele>795.5</ele><time>2026-04-18T13:09:32.676Z</time></trkpt><trkpt lat="44.1526083" lon="11.3324617"><ele>796.6666666666666</ele><time>2026-04-18T13:09:33.677Z</time></trkpt><trkpt lat="44.1525633" lon="11.3323717"><ele>797.8333333333333</ele><time>2026-04-18T13:09:34.676Z</time></trkpt><trkpt lat="44.1525133" lon="11.3322917"><ele>799.0</ele><time>2026-04-18T13:09:35.676Z</time></trkpt><trkpt lat="44.1524483" lon="11.3322117"><ele>800.2</ele><time>2026-04-18T13:09:36.677Z</time></trkpt><trkpt lat="44.1523767" lon="11.3321283"><ele>801.4000000000001</ele><time>2026-04-18T13:09:37.677Z</time></trkpt><trkpt lat="44.1522933" lon="11.3320383"><ele>802.6</ele><time>2026-04-18T13:09:38.677Z</time></trkpt><trkpt lat="44.1522133" lon="11.3319483"><ele>803.8</ele><time>2026-04-18T13:09:39.677Z</time></trkpt><trkpt lat="44.152145" lon="11.3318717"><ele>805.0</ele><time>2026-04-18T13:09:40.677Z</time></trkpt><trkpt lat="44.1520883" lon="11.331805"><ele>806.2</ele><time>2026-04-18T13:09:41.676Z</time></trkpt><trkpt lat="44.152025" lon="11.3316717"><ele>807.4</ele><time>2026-04-18T13:09:43.676Z</time></trkpt><trkpt lat="44.15202" lon="11.3314983"><ele>808.5999999999999</ele><time>2026-04-18T13:09:45.676Z</time></trkpt><trkpt lat="44.15203" lon="11.3313883"><ele>809.8</ele><time>2026-04-18T13:09:46.677Z</time></trkpt><trkpt lat="44.1520533" lon="11.3312667"><ele>811.0</ele><time>2026-04-18T13:09:47.676Z</time></trkpt><trkpt lat="44.1520817" lon="11.3311233"><ele>812.75</ele><time>2026-04-18T13:09:48.676Z</time></trkpt><trkpt lat="44.15211" lon="11.330965"><ele>814.5</ele><time>2026-04-18T13:09:49.677Z</time></trkpt><trkpt lat="44.152145" lon="11.3308083"><ele>816.25</ele><time>2026-04-18T13:09:50.677Z</time></trkpt><trkpt lat="44.1521767" lon="11.33064"><ele>818.0</ele><time>2026-04-18T13:09:51.677Z</time></trkpt><trkpt lat="44.1522167" lon="11.330475"><ele>820.0</ele><time>2026-04-18T13:09:52.677Z</time></trkpt><trkpt lat="44.15225" lon="11.3302933"><ele>822.0</ele><time>2026-04-18T13:09:53.677Z</time></trkpt><trkpt lat="44.1522867" lon="11.3301233"><ele>824.0</ele><time>2026-04-18T13:09:54.676Z</time></trkpt><trkpt lat="44.1523267" lon="11.3299633"><ele>826.0</ele><time>2026-04-18T13:09:55.676Z</time></trkpt><trkpt lat="44.1523683" lon="11.3298183"><ele>825.8</ele><time>2026-04-18T13:09:56.676Z</time></trkpt><trkpt lat="44.1524017" lon="11.3297067"><ele>825.5999999999999</ele><time>2026-04-18T13:09:57.676Z</time></trkpt><trkpt lat="44.1524167" lon="11.32959"><ele>825.4</ele><time>2026-04-18T13:09:58.677Z</time></trkpt><trkpt lat="44.152405" lon="11.3294533"><ele>825.2</ele><time>2026-04-18T13:09:59.677Z</time></trkpt><trkpt lat="44.152395" lon="11.3293"><ele>825.0</ele><time>2026-04-18T13:10:00.677Z</time></trkpt><trkpt lat="44.1523917" lon="11.32916"><ele>825.0</ele><time>2026-04-18T13:10:01.677Z</time></trkpt><trkpt lat="44.1523933" lon="11.329035"><ele>825.0</ele><time>2026-04-18T13:10:02.676Z</time></trkpt><trkpt lat="44.152395" lon="11.3289083"><ele>825.0</ele><time>2026-04-18T13:10:03.676Z</time></trkpt><trkpt lat="44.1524017" lon="11.3287867"><ele>825.0</ele><time>2026-04-18T13:10:04.676Z</time></trkpt><trkpt lat="44.1523983" lon="11.3286733"><ele>825.0</ele><time>2026-04-18T13:10:05.677Z</time></trkpt><trkpt lat="44.152385" lon="11.3285617"><ele>825.0</ele><time>2026-04-18T13:10:06.677Z</time></trkpt><trkpt lat="44.1523617" lon="11.32845"><ele>828.0</ele><time>2026-04-18T13:10:07.677Z</time></trkpt><trkpt lat="44.1523317" lon="11.3283333"><ele>831.0</ele><time>2026-04-18T13:10:08.677Z</time></trkpt><trkpt lat="44.1523" lon="11.328235"><ele>834.0</ele><time>2026-04-18T13:10:09.676Z</time></trkpt><trkpt lat="44.152265" lon="11.3281533"><ele>837.0</ele><time>2026-04-18T13:10:10.676Z</time></trkpt><trkpt lat="44.1522117" lon="11.3280983"><ele>840.0</ele><time>2026-04-18T13:10:11.676Z</time></trkpt><trkpt lat="44.15214" lon="11.328045"><ele>843.0</ele><time>2026-04-18T13:10:12.677Z</time></trkpt><trkpt lat="44.1520633" lon="11.3280033"><ele>845.1666666666666</ele><time>2026-04-18T13:10:13.676Z</time></trkpt><trkpt lat="44.1519933" lon="11.327965"><ele>847.3333333333333</ele><time>2026-04-18T13:10:14.676Z</time></trkpt><trkpt lat="44.1519167" lon="11.3278533"><ele>849.5</ele><time>2026-04-18T13:10:16.676Z</time></trkpt><trkpt lat="44.1519517" lon="11.3277233"><ele>851.6666666666666</ele><time>2026-04-18T13:10:18.676Z</time></trkpt><trkpt lat="44.1519878" lon="11.3276433"><ele>853.8333333333333</ele><time>2026-04-18T13:10:19.676Z</time></trkpt><trkpt lat="44.1520242" lon="11.3275528"><ele>856.0</ele><time>2026-04-18T13:10:20.676Z</time></trkpt><trkpt lat="44.1520435" lon="11.3274525"><ele>855.9999999999999</ele><time>2026-04-18T13:10:21.677Z</time></trkpt><trkpt lat="44.1520436" lon="11.3273594"><ele>856.0</ele><time>2026-04-18T13:10:22.676Z</time></trkpt><trkpt lat="44.1520031" lon="11.3272252"><ele>856.0</ele><time>2026-04-18T13:10:24.677Z</time></trkpt><trkpt lat="44.1518856" lon="11.327143"><ele>856.0</ele><time>2026-04-18T13:10:26.676Z</time></trkpt><trkpt lat="44.1518267" lon="11.3270924"><ele>855.9999999999999</ele><time>2026-04-18T13:10:27.676Z</time></trkpt><trkpt lat="44.1517805" lon="11.3270237"><ele>856.0</ele><time>2026-04-18T13:10:28.676Z</time></trkpt><trkpt lat="44.1517553" lon="11.3269377"><ele>857.6666666666666</ele><time>2026-04-18T13:10:29.677Z</time></trkpt><trkpt lat="44.151755" lon="11.3268413"><ele>859.3333333333333</ele><time>2026-04-18T13:10:30.676Z</time></trkpt><trkpt lat="44.1517781" lon="11.3267396"><ele>861.0</ele><time>2026-04-18T13:10:31.677Z</time></trkpt><trkpt lat="44.1518082" lon="11.3266238"><ele>862.6666666666667</ele><time>2026-04-18T13:10:32.677Z</time></trkpt><trkpt lat="44.1518474" lon="11.3264841"><ele>864.3333333333334</ele><time>2026-04-18T13:10:33.676Z</time></trkpt><trkpt lat="44.1518931" lon="11.3263487"><ele>866.0</ele><time>2026-04-18T13:10:34.676Z</time></trkpt><trkpt lat="44.1519465" lon="11.3262431"><ele>867.3333333333334</ele><time>2026-04-18T13:10:35.676Z</time></trkpt><trkpt lat="44.1520109" lon="11.3261645"><ele>868.6666666666667</ele><time>2026-04-18T13:10:36.676Z</time></trkpt><trkpt lat="44.1520837" lon="11.3261064"><ele>870.0</ele><time>2026-04-18T13:10:37.676Z</time></trkpt><trkpt lat="44.1521643" lon="11.3260701"><ele>871.3333333333333</ele><time>2026-04-18T13:10:38.676Z</time></trkpt><trkpt lat="44.1522484" lon="11.3260476"><ele>872.6666666666666</ele><time>2026-04-18T13:10:39.677Z</time></trkpt><trkpt lat="44.1523255" lon="11.3260262"><ele>874.0</ele><time>2026-04-18T13:10:40.676Z</time></trkpt><trkpt lat="44.1523991" lon="11.3259825"><ele>874.0</ele><time>2026-04-18T13:10:41.676Z</time></trkpt><trkpt lat="44.1524676" lon="11.3259037"><ele>874.0000000000001</ele><time>2026-04-18T13:10:42.676Z</time></trkpt><trkpt lat="44.1525388" lon="11.3257955"><ele>874.0000000000001</ele><time>2026-04-18T13:10:43.677Z</time></trkpt><trkpt lat="44.1526195" lon="11.3256702"><ele>874.0</ele><time>2026-04-18T13:10:44.676Z</time></trkpt><trkpt lat="44.1526964" lon="11.3255327"><ele>874.0</ele><time>2026-04-18T13:10:45.676Z</time></trkpt><trkpt lat="44.1527594" lon="11.3253864"><ele>876.6</ele><time>2026-04-18T13:10:46.676Z</time></trkpt><trkpt lat="44.1527884" lon="11.3252369"><ele>879.2</ele><time>2026-04-18T13:10:47.677Z</time></trkpt><trkpt lat="44.1527989" lon="11.3250921"><ele>881.8000000000001</ele><time>2026-04-18T13:10:48.676Z</time></trkpt><trkpt lat="44.1527879" lon="11.3249306"><ele>884.4000000000001</ele><time>2026-04-18T13:10:49.677Z</time></trkpt><trkpt lat="44.1527685" lon="11.324774"><ele>887.0</ele><time>2026-04-18T13:10:50.677Z</time></trkpt><trkpt lat="44.1527557" lon="11.3246489"><ele>890.4000000000001</ele><time>2026-04-18T13:10:51.676Z</time></trkpt><trkpt lat="44.1527625" lon="11.3245575"><ele>893.8000000000001</ele><time>2026-04-18T13:10:52.677Z</time></trkpt><trkpt lat="44.1528359" lon="11.3244713"><ele>897.2</ele><time>2026-04-18T13:10:54.677Z</time></trkpt><trkpt lat="44.1529141" lon="11.3244558"><ele>900.6</ele><time>2026-04-18T13:10:55.676Z</time></trkpt><trkpt lat="44.153014" lon="11.3244562"><ele>904.0</ele><time>2026-04-18T13:10:56.676Z</time></trkpt><trkpt lat="44.1531257" lon="11.3244825"><ele>902.0</ele><time>2026-04-18T13:10:57.676Z</time></trkpt><trkpt lat="44.1532421" lon="11.3245277"><ele>900.0</ele><time>2026-04-18T13:10:58.677Z</time></trkpt><trkpt lat="44.1533675" lon="11.324598"><ele>898.0</ele><time>2026-04-18T13:10:59.676Z</time></trkpt><trkpt lat="44.1534842" lon="11.3246889"><ele>896.0</ele><time>2026-04-18T13:11:00.676Z</time></trkpt><trkpt lat="44.1536014" lon="11.3247928"><ele>893.25</ele><time>2026-04-18T13:11:01.676Z</time></trkpt><trkpt lat="44.1537122" lon="11.3248928"><ele>890.5</ele><time>2026-04-18T13:11:02.676Z</time></trkpt><trkpt lat="44.1538123" lon="11.3249779"><ele>887.75</ele><time>2026-04-18T13:11:03.676Z</time></trkpt><trkpt lat="44.1539105" lon="11.3250448"><ele>885.0</ele><time>2026-04-18T13:11:04.676Z</time></trkpt><trkpt lat="44.1540168" lon="11.3251027"><ele>886.5</ele><time>2026-04-18T13:11:05.676Z</time></trkpt><trkpt lat="44.1541345" lon="11.3251452"><ele>888.0</ele><time>2026-04-18T13:11:06.677Z</time></trkpt><trkpt lat="44.1542541" lon="11.3251756"><ele>889.5</ele><time>2026-04-18T13:11:07.677Z</time></trkpt><trkpt lat="44.154378" lon="11.3251865"><ele>891.0</ele><time>2026-04-18T13:11:08.677Z</time></trkpt><trkpt lat="44.154496" lon="11.3251691"><ele>891.0</ele><time>2026-04-18T13:11:09.677Z</time></trkpt><trkpt lat="44.1545964" lon="11.3251248"><ele>890.9999999999999</ele><time>2026-04-18T13:11:10.676Z</time></trkpt><trkpt lat="44.1546871" lon="11.3250456"><ele>890.9999999999999</ele><time>2026-04-18T13:11:11.676Z</time></trkpt><trkpt lat="44.1547598" lon="11.3249366"><ele>891.0</ele><time>2026-04-18T13:11:12.677Z</time></trkpt><trkpt lat="44.1548238" lon="11.3247855"><ele>891.0</ele><time>2026-04-18T13:11:13.677Z</time></trkpt><trkpt lat="44.154896" lon="11.32462"><ele>892.0</ele><time>2026-04-18T13:11:14.676Z</time></trkpt><trkpt lat="44.1549776" lon="11.3244695"><ele>893.0</ele><time>2026-04-18T13:11:15.676Z</time></trkpt><trkpt lat="44.155081" lon="11.3243406"><ele>894.0</ele><time>2026-04-18T13:11:16.677Z</time></trkpt><trkpt lat="44.1551903" lon="11.3242229"><ele>895.0</ele><time>2026-04-18T13:11:17.676Z</time></trkpt><trkpt lat="44.1553034" lon="11.3240994"><ele>895.0</ele><time>2026-04-18T13:11:18.677Z</time></trkpt><trkpt lat="44.1554033" lon="11.3239791"><ele>895.0</ele><time>2026-04-18T13:11:19.676Z</time></trkpt><trkpt lat="44.1554915" lon="11.3238471"><ele>895.0</ele><time>2026-04-18T13:11:20.676Z</time></trkpt><trkpt lat="44.1555744" lon="11.3237139"><ele>895.0</ele><time>2026-04-18T13:11:21.676Z</time></trkpt><trkpt lat="44.1556505" lon="11.3235735"><ele>896.0</ele><time>2026-04-18T13:11:22.676Z</time></trkpt><trkpt lat="44.155732" lon="11.3234345"><ele>897.0</ele><time>2026-04-18T13:11:23.677Z</time></trkpt><trkpt lat="44.1558208" lon="11.3233112"><ele>898.0</ele><time>2026-04-18T13:11:24.677Z</time></trkpt><trkpt lat="44.1559197" lon="11.3232142"><ele>899.0</ele><time>2026-04-18T13:11:25.677Z</time></trkpt><trkpt lat="44.1560375" lon="11.3231533"><ele>899.0</ele><time>2026-04-18T13:11:26.675Z</time></trkpt><trkpt lat="44.1561694" lon="11.3231298"><ele>899.0</ele><time>2026-04-18T13:11:27.675Z</time></trkpt><trkpt lat="44.1563032" lon="11.3231396"><ele>899.0</ele><time>2026-04-18T13:11:28.675Z</time></trkpt><trkpt lat="44.1564384" lon="11.3231898"><ele>899.0</ele><time>2026-04-18T13:11:29.675Z</time></trkpt><trkpt lat="44.1565697" lon="11.3232564"><ele>899.5</ele><time>2026-04-18T13:11:30.675Z</time></trkpt><trkpt lat="44.1566938" lon="11.3233365"><ele>900.0</ele><time>2026-04-18T13:11:31.675Z</time></trkpt><trkpt lat="44.1568117" lon="11.3233994"><ele>900.5</ele><time>2026-04-18T13:11:32.676Z</time></trkpt><trkpt lat="44.1569327" lon="11.3234352"><ele>901.0</ele><time>2026-04-18T13:11:33.675Z</time></trkpt><trkpt lat="44.1570601" lon="11.3234339"><ele>901.0</ele><time>2026-04-18T13:11:34.675Z</time></trkpt><trkpt lat="44.1571919" lon="11.323399"><ele>901.0</ele><time>2026-04-18T13:11:35.676Z</time></trkpt><trkpt lat="44.1573262" lon="11.3233418"><ele>901.0</ele><time>2026-04-18T13:11:36.675Z</time></trkpt><trkpt lat="44.1574539" lon="11.3232573"><ele>901.0</ele><time>2026-04-18T13:11:37.676Z</time></trkpt><trkpt lat="44.1575738" lon="11.3231439"><ele>902.25</ele><time>2026-04-18T13:11:38.675Z</time></trkpt><trkpt lat="44.1576836" lon="11.3230181"><ele>903.5</ele><time>2026-04-18T13:11:39.675Z</time></trkpt><trkpt lat="44.1577879" lon="11.3228942"><ele>904.75</ele><time>2026-04-18T13:11:40.676Z</time></trkpt><trkpt lat="44.1578914" lon="11.3227823"><ele>906.0</ele><time>2026-04-18T13:11:41.675Z</time></trkpt><trkpt lat="44.1580036" lon="11.3227016"><ele>906.0</ele><time>2026-04-18T13:11:42.675Z</time></trkpt><trkpt lat="44.1581223" lon="11.3226624"><ele>906.0</ele><time>2026-04-18T13:11:43.675Z</time></trkpt><trkpt lat="44.1582501" lon="11.3226673"><ele>906.0</ele><time>2026-04-18T13:11:44.675Z</time></trkpt><trkpt lat="44.1583767" lon="11.3227196"><ele>906.0</ele><time>2026-04-18T13:11:45.676Z</time></trkpt><trkpt lat="44.1585042" lon="11.322803"><ele>905.75</ele><time>2026-04-18T13:11:46.675Z</time></trkpt><trkpt lat="44.1586239" lon="11.3228978"><ele>905.5</ele><time>2026-04-18T13:11:47.675Z</time></trkpt><trkpt lat="44.1587328" lon="11.3230062"><ele>905.25</ele><time>2026-04-18T13:11:48.676Z</time></trkpt><trkpt lat="44.1588338" lon="11.3231271"><ele>905.0</ele><time>2026-04-18T13:11:49.675Z</time></trkpt><trkpt lat="44.158932" lon="11.3232565"><ele>903.5</ele><time>2026-04-18T13:11:50.676Z</time></trkpt><trkpt lat="44.1590389" lon="11.3233699"><ele>902.0</ele><time>2026-04-18T13:11:51.675Z</time></trkpt><trkpt lat="44.159149" lon="11.3234572"><ele>900.5</ele><time>2026-04-18T13:11:52.676Z</time></trkpt><trkpt lat="44.1592625" lon="11.3235307"><ele>899.0</ele><time>2026-04-18T13:11:53.675Z</time></trkpt><trkpt lat="44.1593737" lon="11.3236047"><ele>899.0</ele><time>2026-04-18T13:11:54.675Z</time></trkpt><trkpt lat="44.1594836" lon="11.3236843"><ele>899.0</ele><time>2026-04-18T13:11:55.676Z</time></trkpt><trkpt lat="44.1595904" lon="11.3237706"><ele>899.0</ele><time>2026-04-18T13:11:56.675Z</time></trkpt><trkpt lat="44.1596951" lon="11.3238744"><ele>899.0</ele><time>2026-04-18T13:11:57.675Z</time></trkpt><trkpt lat="44.1597939" lon="11.3240022"><ele>899.0</ele><time>2026-04-18T13:11:58.676Z</time></trkpt><trkpt lat="44.1598784" lon="11.3241469"><ele>899.0</ele><time>2026-04-18T13:11:59.676Z</time></trkpt><trkpt lat="44.1599383" lon="11.3243257"><ele>899.0</ele><time>2026-04-18T13:12:00.676Z</time></trkpt><trkpt lat="44.159985" lon="11.324522"><ele>899.0</ele><time>2026-04-18T13:12:01.675Z</time></trkpt><trkpt lat="44.1600338" lon="11.324727"><ele>896.0</ele><time>2026-04-18T13:12:02.676Z</time></trkpt><trkpt lat="44.160084" lon="11.3249364"><ele>893.0</ele><time>2026-04-18T13:12:03.675Z</time></trkpt><trkpt lat="44.1601485" lon="11.3251522"><ele>890.0</ele><time>2026-04-18T13:12:04.675Z</time></trkpt><trkpt lat="44.1602167" lon="11.3253746"><ele>887.3333333333334</ele><time>2026-04-18T13:12:05.675Z</time></trkpt><trkpt lat="44.1602832" lon="11.3255947"><ele>884.6666666666667</ele><time>2026-04-18T13:12:06.675Z</time></trkpt><trkpt lat="44.1603541" lon="11.325813"><ele>882.0</ele><time>2026-04-18T13:12:07.675Z</time></trkpt><trkpt lat="44.1604237" lon="11.3260378"><ele>882.0</ele><time>2026-04-18T13:12:08.675Z</time></trkpt><trkpt lat="44.1604983" lon="11.3262619"><ele>882.0</ele><time>2026-04-18T13:12:09.675Z</time></trkpt><trkpt lat="44.1605784" lon="11.3264806"><ele>882.0</ele><time>2026-04-18T13:12:10.675Z</time></trkpt><trkpt lat="44.1606647" lon="11.3267024"><ele>882.3333333333333</ele><time>2026-04-18T13:12:11.676Z</time></trkpt><trkpt lat="44.1607583" lon="11.3269204"><ele>882.6666666666666</ele><time>2026-04-18T13:12:12.675Z</time></trkpt><trkpt lat="44.1608496" lon="11.327118"><ele>883.0</ele><time>2026-04-18T13:12:13.676Z</time></trkpt><trkpt lat="44.1609343" lon="11.3273141"><ele>883.0</ele><time>2026-04-18T13:12:14.675Z</time></trkpt><trkpt lat="44.161014" lon="11.327513"><ele>883.0</ele><time>2026-04-18T13:12:15.675Z</time></trkpt><trkpt lat="44.1610864" lon="11.3277109"><ele>883.0</ele><time>2026-04-18T13:12:16.676Z</time></trkpt><trkpt lat="44.1611464" lon="11.3279077"><ele>882.75</ele><time>2026-04-18T13:12:17.676Z</time></trkpt><trkpt lat="44.1611866" lon="11.3281151"><ele>882.5</ele><time>2026-04-18T13:12:18.675Z</time></trkpt><trkpt lat="44.1612164" lon="11.3283232"><ele>882.25</ele><time>2026-04-18T13:12:19.676Z</time></trkpt><trkpt lat="44.1612419" lon="11.3285149"><ele>882.0</ele><time>2026-04-18T13:12:20.676Z</time></trkpt><trkpt lat="44.1612653" lon="11.3287007"><ele>882.0</ele><time>2026-04-18T13:12:21.675Z</time></trkpt><trkpt lat="44.1612893" lon="11.3288853"><ele>882.0</ele><time>2026-04-18T13:12:22.676Z</time></trkpt><trkpt lat="44.1613283" lon="11.3290621"><ele>882.0</ele><time>2026-04-18T13:12:23.675Z</time></trkpt><trkpt lat="44.1613786" lon="11.3292203"><ele>882.0</ele><time>2026-04-18T13:12:24.675Z</time></trkpt><trkpt lat="44.1614524" lon="11.3293537"><ele>881.75</ele><time>2026-04-18T13:12:25.676Z</time></trkpt><trkpt lat="44.1615415" lon="11.3294656"><ele>881.5</ele><time>2026-04-18T13:12:26.675Z</time></trkpt><trkpt lat="44.1616421" lon="11.329553"><ele>881.25</ele><time>2026-04-18T13:12:27.675Z</time></trkpt><trkpt lat="44.1617553" lon="11.3296042"><ele>881.0</ele><time>2026-04-18T13:12:28.675Z</time></trkpt><trkpt lat="44.161882" lon="11.3296552"><ele>881.0</ele><time>2026-04-18T13:12:29.675Z</time></trkpt><trkpt lat="44.1620096" lon="11.329695"><ele>881.0</ele><time>2026-04-18T13:12:30.675Z</time></trkpt><trkpt lat="44.162138" lon="11.329709"><ele>881.0</ele><time>2026-04-18T13:12:31.676Z</time></trkpt><trkpt lat="44.162271" lon="11.3297087"><ele>881.0</ele><time>2026-04-18T13:12:32.676Z</time></trkpt><trkpt lat="44.1623983" lon="11.3296983"><ele>881.0</ele><time>2026-04-18T13:12:33.676Z</time></trkpt><trkpt lat="44.162505" lon="11.3297117"><ele>880.9999999999999</ele><time>2026-04-18T13:12:34.675Z</time></trkpt><trkpt lat="44.162605" lon="11.3297717"><ele>880.9999999999999</ele><time>2026-04-18T13:12:35.675Z</time></trkpt><trkpt lat="44.1626883" lon="11.3298667"><ele>881.0</ele><time>2026-04-18T13:12:36.676Z</time></trkpt><trkpt lat="44.16275" lon="11.3299817"><ele>881.0</ele><time>2026-04-18T13:12:37.675Z</time></trkpt><trkpt lat="44.162795" lon="11.3301167"><ele>877.0</ele><time>2026-04-18T13:12:38.676Z</time></trkpt><trkpt lat="44.1628333" lon="11.3302817"><ele>873.0</ele><time>2026-04-18T13:12:39.676Z</time></trkpt><trkpt lat="44.1628383" lon="11.3304533"><ele>869.0</ele><time>2026-04-18T13:12:40.675Z</time></trkpt><trkpt lat="44.162815" lon="11.3306133"><ele>865.0</ele><time>2026-04-18T13:12:41.676Z</time></trkpt><trkpt lat="44.1627933" lon="11.3307833"><ele>862.8</ele><time>2026-04-18T13:12:42.676Z</time></trkpt><trkpt lat="44.16279" lon="11.3309333"><ele>860.6</ele><time>2026-04-18T13:12:43.675Z</time></trkpt><trkpt lat="44.1628167" lon="11.3310833"><ele>858.4000000000001</ele><time>2026-04-18T13:12:44.676Z</time></trkpt><trkpt lat="44.162855" lon="11.33121"><ele>856.2</ele><time>2026-04-18T13:12:45.676Z</time></trkpt><trkpt lat="44.1629217" lon="11.3313133"><ele>854.0</ele><time>2026-04-18T13:12:46.676Z</time></trkpt><trkpt lat="44.1630067" lon="11.331375"><ele>853.4000000000001</ele><time>2026-04-18T13:12:47.675Z</time></trkpt><trkpt lat="44.1631033" lon="11.3314433"><ele>852.8000000000001</ele><time>2026-04-18T13:12:48.676Z</time></trkpt><trkpt lat="44.1631983" lon="11.3315217"><ele>852.2</ele><time>2026-04-18T13:12:49.675Z</time></trkpt><trkpt lat="44.1632933" lon="11.331595"><ele>851.5999999999999</ele><time>2026-04-18T13:12:50.676Z</time></trkpt><trkpt lat="44.16339" lon="11.3316717"><ele>851.0</ele><time>2026-04-18T13:12:51.676Z</time></trkpt><trkpt lat="44.16349" lon="11.3317483"><ele>851.0</ele><time>2026-04-18T13:12:52.675Z</time></trkpt><trkpt lat="44.1635867" lon="11.331825"><ele>851.0</ele><time>2026-04-18T13:12:53.675Z</time></trkpt><trkpt lat="44.1636817" lon="11.3319167"><ele>851.0</ele><time>2026-04-18T13:12:54.675Z</time></trkpt><trkpt lat="44.163775" lon="11.3320217"><ele>851.0</ele><time>2026-04-18T13:12:55.676Z</time></trkpt><trkpt lat="44.1638467" lon="11.3321467"><ele>851.4</ele><time>2026-04-18T13:12:56.675Z</time></trkpt><trkpt lat="44.1639133" lon="11.332275"><ele>851.8</ele><time>2026-04-18T13:12:57.675Z</time></trkpt><trkpt lat="44.16398" lon="11.332405"><ele>852.1999999999999</ele><time>2026-04-18T13:12:58.676Z</time></trkpt><trkpt lat="44.164045" lon="11.33253"><ele>852.5999999999999</ele><time>2026-04-18T13:12:59.676Z</time></trkpt><trkpt lat="44.164115" lon="11.3326383"><ele>853.0</ele><time>2026-04-18T13:13:00.676Z</time></trkpt><trkpt lat="44.1641883" lon="11.332735"><ele>853.0</ele><time>2026-04-18T13:13:01.675Z</time></trkpt><trkpt lat="44.1642533" lon="11.3328317"><ele>853.0</ele><time>2026-04-18T13:13:02.675Z</time></trkpt><trkpt lat="44.164325" lon="11.3329167"><ele>853.0</ele><time>2026-04-18T13:13:03.676Z</time></trkpt><trkpt lat="44.1643867" lon="11.333"><ele>853.0</ele><time>2026-04-18T13:13:04.675Z</time></trkpt><trkpt lat="44.1644417" lon="11.3331067"><ele>853.0</ele><time>2026-04-18T13:13:05.675Z</time></trkpt><trkpt lat="44.1644817" lon="11.3332083"><ele>852.4285714285714</ele><time>2026-04-18T13:13:06.675Z</time></trkpt><trkpt lat="44.1644933" lon="11.3333083"><ele>851.8571428571429</ele><time>2026-04-18T13:13:07.675Z</time></trkpt><trkpt lat="44.1645083" lon="11.3334167"><ele>851.2857142857143</ele><time>2026-04-18T13:13:08.676Z</time></trkpt><trkpt lat="44.1645167" lon="11.333525"><ele>850.7142857142858</ele><time>2026-04-18T13:13:09.675Z</time></trkpt><trkpt lat="44.1645333" lon="11.3336167"><ele>850.1428571428571</ele><time>2026-04-18T13:13:10.675Z</time></trkpt><trkpt lat="44.1645517" lon="11.33371"><ele>849.5714285714287</ele><time>2026-04-18T13:13:11.676Z</time></trkpt><trkpt lat="44.1645767" lon="11.3337933"><ele>849.0</ele><time>2026-04-18T13:13:12.676Z</time></trkpt><trkpt lat="44.1646333" lon="11.3339417"><ele>849.0</ele><time>2026-04-18T13:13:14.675Z</time></trkpt><trkpt lat="44.164675" lon="11.334055"><ele>849.0</ele><time>2026-04-18T13:13:16.676Z</time></trkpt><trkpt lat="44.1646617" lon="11.3341467"><ele>849.0</ele><time>2026-04-18T13:13:19.675Z</time></trkpt><trkpt lat="44.1646183" lon="11.3342467"><ele>849.0</ele><time>2026-04-18T14:31:27.653Z</time></trkpt><trkpt lat="44.1646833" lon="11.3342167"><ele>849.0</ele><time>2026-04-18T14:31:32.653Z</time></trkpt><trkpt lat="44.164755" lon="11.3342567"><ele>849.0</ele><time>2026-04-18T14:35:34.652Z</time></trkpt><trkpt lat="44.1648067" lon="11.334325"><ele>849.4000000000001</ele><time>2026-04-18T14:35:36.651Z</time></trkpt><trkpt lat="44.1648683" lon="11.3344167"><ele>849.8</ele><time>2026-04-18T14:35:38.652Z</time></trkpt><trkpt lat="44.164935" lon="11.334515"><ele>850.2</ele><time>2026-04-18T14:35:40.651Z</time></trkpt><trkpt lat="44.16501" lon="11.33459"><ele>850.5999999999999</ele><time>2026-04-18T14:35:42.651Z</time></trkpt><trkpt lat="44.16509" lon="11.334665"><ele>851.0</ele><time>2026-04-18T14:35:44.651Z</time></trkpt><trkpt lat="44.1651767" lon="11.3347833"><ele>851.0000000000001</ele><time>2026-04-18T14:35:46.651Z</time></trkpt><trkpt lat="44.1652233" lon="11.33485"><ele>851.0</ele><time>2026-04-18T14:35:47.652Z</time></trkpt><trkpt lat="44.1652633" lon="11.3349233"><ele>851.0</ele><time>2026-04-18T14:35:48.651Z</time></trkpt><trkpt lat="44.1653267" lon="11.3350717"><ele>851.0</ele><time>2026-04-18T14:35:50.651Z</time></trkpt><trkpt lat="44.1653483" lon="11.3351617"><ele>851.0000000000001</ele><time>2026-04-18T14:35:51.651Z</time></trkpt><trkpt lat="44.165365" lon="11.3352717"><ele>851.0</ele><time>2026-04-18T14:35:52.652Z</time></trkpt><trkpt lat="44.1653783" lon="11.3353783"><ele>851.0</ele><time>2026-04-18T14:35:53.652Z</time></trkpt><trkpt lat="44.165395" lon="11.3354867"><ele>851.0</ele><time>2026-04-18T14:35:54.652Z</time></trkpt><trkpt lat="44.16541" lon="11.33558"><ele>851.0</ele><time>2026-04-18T14:35:55.651Z</time></trkpt><trkpt lat="44.1654267" lon="11.3357517"><ele>851.0</ele><time>2026-04-18T14:35:57.651Z</time></trkpt><trkpt lat="44.1654417" lon="11.335915"><ele>851.0</ele><time>2026-04-18T14:35:59.651Z</time></trkpt><trkpt lat="44.16546" lon="11.3360467"><ele>851.1999999999999</ele><time>2026-04-18T14:36:01.652Z</time></trkpt><trkpt lat="44.165515" lon="11.3361817"><ele>851.4</ele><time>2026-04-18T14:36:03.652Z</time></trkpt><trkpt lat="44.165595" lon="11.33629"><ele>851.6</ele><time>2026-04-18T14:36:05.651Z</time></trkpt><trkpt lat="44.1656717" lon="11.3363933"><ele>851.8</ele><time>2026-04-18T14:36:07.652Z</time></trkpt><trkpt lat="44.1657483" lon="11.3364917"><ele>852.0</ele><time>2026-04-18T14:36:09.652Z</time></trkpt><trkpt lat="44.1657967" lon="11.33659"><ele>852.5</ele><time>2026-04-18T14:36:11.652Z</time></trkpt><trkpt lat="44.1658567" lon="11.33663"><ele>853.0</ele><time>2026-04-18T14:36:13.652Z</time></trkpt><trkpt lat="44.1659333" lon="11.3365683"><ele>853.5</ele><time>2026-04-18T14:36:15.651Z</time></trkpt><trkpt lat="44.1660117" lon="11.3364917"><ele>854.0</ele><time>2026-04-18T14:36:17.651Z</time></trkpt><trkpt lat="44.166105" lon="11.3364233"><ele>854.5</ele><time>2026-04-18T14:36:19.652Z</time></trkpt><trkpt lat="44.166165" lon="11.33638"><ele>855.0</ele><time>2026-04-18T14:36:20.652Z</time></trkpt><trkpt lat="44.166225" lon="11.336335"><ele>855.8</ele><time>2026-04-18T14:36:21.651Z</time></trkpt><trkpt lat="44.1662883" lon="11.3362817"><ele>856.6</ele><time>2026-04-18T14:36:22.651Z</time></trkpt><trkpt lat="44.1664" lon="11.336255"><ele>857.4000000000001</ele><time>2026-04-18T14:36:24.652Z</time></trkpt><trkpt lat="44.1665033" lon="11.3362867"><ele>858.2</ele><time>2026-04-18T14:36:26.651Z</time></trkpt><trkpt lat="44.1666033" lon="11.3363767"><ele>859.0</ele><time>2026-04-18T14:36:28.652Z</time></trkpt><trkpt lat="44.1666467" lon="11.3364433"><ele>859.0</ele><time>2026-04-18T14:36:29.651Z</time></trkpt><trkpt lat="44.1666733" lon="11.3365933"><ele>859.0000000000001</ele><time>2026-04-18T14:36:31.651Z</time></trkpt><trkpt lat="44.1667133" lon="11.3367317"><ele>859.0000000000001</ele><time>2026-04-18T14:36:33.651Z</time></trkpt><trkpt lat="44.1667533" lon="11.3368233"><ele>859.0</ele><time>2026-04-18T14:36:34.652Z</time></trkpt><trkpt lat="44.1668033" lon="11.33691"><ele>859.0</ele><time>2026-04-18T14:36:35.651Z</time></trkpt><trkpt lat="44.1668583" lon="11.3369933"><ele>858.9999999999999</ele><time>2026-04-18T14:36:36.651Z</time></trkpt><trkpt lat="44.16691" lon="11.3370667"><ele>859.0</ele><time>2026-04-18T14:36:37.651Z</time></trkpt><trkpt lat="44.1670017" lon="11.3371333"><ele>859.0</ele><time>2026-04-18T14:36:39.651Z</time></trkpt><trkpt lat="44.1671083" lon="11.3371767"><ele>859.0</ele><time>2026-04-18T14:36:41.651Z</time></trkpt><trkpt lat="44.1671767" lon="11.3372233"><ele>858.9999999999999</ele><time>2026-04-18T14:36:42.651Z</time></trkpt><trkpt lat="44.1672417" lon="11.3372883"><ele>859.0</ele><time>2026-04-18T14:36:43.651Z</time></trkpt><trkpt lat="44.167315" lon="11.3373783"><ele>861.8000000000001</ele><time>2026-04-18T14:36:44.651Z</time></trkpt><trkpt lat="44.1673917" lon="11.3374817"><ele>864.6000000000001</ele><time>2026-04-18T14:36:45.652Z</time></trkpt><trkpt lat="44.1674717" lon="11.3375867"><ele>867.4</ele><time>2026-04-18T14:36:46.652Z</time></trkpt><trkpt lat="44.1675517" lon="11.3376767"><ele>870.2</ele><time>2026-04-18T14:36:47.651Z</time></trkpt><trkpt lat="44.1676367" lon="11.3377683"><ele>873.0</ele><time>2026-04-18T14:36:48.651Z</time></trkpt><trkpt lat="44.167725" lon="11.3378583"><ele>873.0</ele><time>2026-04-18T14:36:49.651Z</time></trkpt><trkpt lat="44.1678083" lon="11.3379317"><ele>873.0</ele><time>2026-04-18T14:36:50.651Z</time></trkpt><trkpt lat="44.1679067" lon="11.3380083"><ele>873.0</ele><time>2026-04-18T14:36:51.652Z</time></trkpt><trkpt lat="44.1680133" lon="11.3381133"><ele>873.0</ele><time>2026-04-18T14:36:52.651Z</time></trkpt><trkpt lat="44.16811" lon="11.3382167"><ele>875.75</ele><time>2026-04-18T14:36:53.651Z</time></trkpt><trkpt lat="44.1682233" lon="11.3383317"><ele>878.5</ele><time>2026-04-18T14:36:54.652Z</time></trkpt><trkpt lat="44.16832" lon="11.3384383"><ele>881.25</ele><time>2026-04-18T14:36:55.651Z</time></trkpt><trkpt lat="44.168405" lon="11.3385383"><ele>884.0</ele><time>2026-04-18T14:36:56.651Z</time></trkpt><trkpt lat="44.168485" lon="11.3386433"><ele>884.0000000000001</ele><time>2026-04-18T14:36:57.652Z</time></trkpt><trkpt lat="44.1685317" lon="11.33874"><ele>884.0</ele><time>2026-04-18T14:36:58.651Z</time></trkpt><trkpt lat="44.1685533" lon="11.3388567"><ele>884.0</ele><time>2026-04-18T14:36:59.652Z</time></trkpt><trkpt lat="44.1685833" lon="11.33895"><ele>884.0</ele><time>2026-04-18T14:37:00.652Z</time></trkpt><trkpt lat="44.1686167" lon="11.33903"><ele>884.0000000000001</ele><time>2026-04-18T14:37:01.652Z</time></trkpt><trkpt lat="44.1686933" lon="11.339125"><ele>884.0</ele><time>2026-04-18T14:37:03.651Z</time></trkpt><trkpt lat="44.1688033" lon="11.339205"><ele>885.1428571428572</ele><time>2026-04-18T14:37:05.65Z</time></trkpt><trkpt lat="44.1688733" lon="11.3392617"><ele>886.2857142857143</ele><time>2026-04-18T14:37:06.65Z</time></trkpt><trkpt lat="44.16894" lon="11.3393133"><ele>887.4285714285714</ele><time>2026-04-18T14:37:07.65Z</time></trkpt><trkpt lat="44.169005" lon="11.3393533"><ele>888.5714285714287</ele><time>2026-04-18T14:37:08.651Z</time></trkpt><trkpt lat="44.1690733" lon="11.339385"><ele>889.7142857142857</ele><time>2026-04-18T14:37:09.651Z</time></trkpt><trkpt lat="44.1691433" lon="11.3394117"><ele>890.8571428571429</ele><time>2026-04-18T14:37:10.65Z</time></trkpt><trkpt lat="44.1692117" lon="11.3394567"><ele>892.0</ele><time>2026-04-18T14:37:11.65Z</time></trkpt><trkpt lat="44.169275" lon="11.33951"><ele>893.4000000000001</ele><time>2026-04-18T14:37:12.651Z</time></trkpt><trkpt lat="44.169345" lon="11.3395867"><ele>894.8000000000001</ele><time>2026-04-18T14:37:13.65Z</time></trkpt><trkpt lat="44.1694067" lon="11.33968"><ele>896.2</ele><time>2026-04-18T14:37:14.65Z</time></trkpt><trkpt lat="44.1694733" lon="11.339795"><ele>897.6</ele><time>2026-04-18T14:37:15.651Z</time></trkpt><trkpt lat="44.169545" lon="11.33991"><ele>899.0</ele><time>2026-04-18T14:37:16.65Z</time></trkpt><trkpt lat="44.1696233" lon="11.3400433"><ele>900.6</ele><time>2026-04-18T14:37:17.65Z</time></trkpt><trkpt lat="44.169695" lon="11.3401783"><ele>902.2</ele><time>2026-04-18T14:37:18.65Z</time></trkpt><trkpt lat="44.1697583" lon="11.3403033"><ele>903.8000000000001</ele><time>2026-04-18T14:37:19.651Z</time></trkpt><trkpt lat="44.1698233" lon="11.340415"><ele>905.4000000000001</ele><time>2026-04-18T14:37:20.65Z</time></trkpt><trkpt lat="44.1698867" lon="11.3405267"><ele>907.0</ele><time>2026-04-18T14:37:21.65Z</time></trkpt><trkpt lat="44.1699383" lon="11.3406267"><ele>910.3333333333333</ele><time>2026-04-18T14:37:22.65Z</time></trkpt><trkpt lat="44.16998" lon="11.340715"><ele>913.6666666666666</ele><time>2026-04-18T14:37:23.65Z</time></trkpt><trkpt lat="44.170015" lon="11.3408117"><ele>917.0</ele><time>2026-04-18T14:37:24.65Z</time></trkpt><trkpt lat="44.170045" lon="11.3408933"><ele>920.3333333333333</ele><time>2026-04-18T14:37:25.651Z</time></trkpt><trkpt lat="44.1701117" lon="11.3410233"><ele>923.6666666666666</ele><time>2026-04-18T14:37:27.651Z</time></trkpt><trkpt lat="44.1701983" lon="11.3410867"><ele>927.0</ele><time>2026-04-18T14:37:29.65Z</time></trkpt><trkpt lat="44.17032" lon="11.34106"><ele>927.0</ele><time>2026-04-18T14:37:31.65Z</time></trkpt><trkpt lat="44.1703867" lon="11.3410517"><ele>927.0</ele><time>2026-04-18T14:37:32.65Z</time></trkpt><trkpt lat="44.170455" lon="11.3410733"><ele>927.0</ele><time>2026-04-18T14:37:33.65Z</time></trkpt><trkpt lat="44.170525" lon="11.3410983"><ele>927.0</ele><time>2026-04-18T14:37:34.65Z</time></trkpt><trkpt lat="44.17059" lon="11.3411383"><ele>927.0</ele><time>2026-04-18T14:37:35.65Z</time></trkpt><trkpt lat="44.1707067" lon="11.3412267"><ele>927.0</ele><time>2026-04-18T14:37:37.65Z</time></trkpt><trkpt lat="44.17077" lon="11.3412767"><ele>929.1666666666666</ele><time>2026-04-18T14:37:38.651Z</time></trkpt><trkpt lat="44.1708367" lon="11.3413167"><ele>931.3333333333333</ele><time>2026-04-18T14:37:39.65Z</time></trkpt><trkpt lat="44.1709083" lon="11.341335"><ele>933.5</ele><time>2026-04-18T14:37:40.65Z</time></trkpt><trkpt lat="44.1709867" lon="11.3413367"><ele>935.6666666666666</ele><time>2026-04-18T14:37:41.651Z</time></trkpt><trkpt lat="44.171075" lon="11.3413167"><ele>937.8333333333333</ele><time>2026-04-18T14:37:42.651Z</time></trkpt><trkpt lat="44.1711567" lon="11.3412917"><ele>940.0</ele><time>2026-04-18T14:37:43.65Z</time></trkpt><trkpt lat="44.1712433" lon="11.3412767"><ele>939.9999999999999</ele><time>2026-04-18T14:37:44.65Z</time></trkpt><trkpt lat="44.1713283" lon="11.3412783"><ele>940.0</ele><time>2026-04-18T14:37:45.65Z</time></trkpt><trkpt lat="44.1714117" lon="11.341285"><ele>940.0</ele><time>2026-04-18T14:37:46.65Z</time></trkpt><trkpt lat="44.1714883" lon="11.34129"><ele>940.0</ele><time>2026-04-18T14:37:47.65Z</time></trkpt><trkpt lat="44.17156" lon="11.3413267"><ele>939.9999999999999</ele><time>2026-04-18T14:37:48.65Z</time></trkpt><trkpt lat="44.171645" lon="11.3413733"><ele>940.0</ele><time>2026-04-18T14:37:49.65Z</time></trkpt><trkpt lat="44.171735" lon="11.3414217"><ele>945.75</ele><time>2026-04-18T14:37:50.651Z</time></trkpt><trkpt lat="44.171835" lon="11.34148"><ele>951.5</ele><time>2026-04-18T14:37:51.651Z</time></trkpt><trkpt lat="44.17194" lon="11.341555"><ele>957.25</ele><time>2026-04-18T14:37:52.65Z</time></trkpt><trkpt lat="44.1720417" lon="11.3416383"><ele>963.0</ele><time>2026-04-18T14:37:53.65Z</time></trkpt><trkpt lat="44.172125" lon="11.3417283"><ele>963.0</ele><time>2026-04-18T14:37:54.651Z</time></trkpt><trkpt lat="44.1721933" lon="11.3418033"><ele>963.0</ele><time>2026-04-18T14:37:55.651Z</time></trkpt><trkpt lat="44.17225" lon="11.341855"><ele>963.0</ele><time>2026-04-18T14:37:56.65Z</time></trkpt><trkpt lat="44.1723417" lon="11.3418717"><ele>963.0</ele><time>2026-04-18T14:37:58.65Z</time></trkpt><trkpt lat="44.1724083" lon="11.341875"><ele>963.0</ele><time>2026-04-18T14:38:00.651Z</time></trkpt><trkpt lat="44.1724767" lon="11.3418933"><ele>963.0</ele><time>2026-04-18T14:38:02.65Z</time></trkpt><trkpt lat="44.1725517" lon="11.3418933"><ele>963.5999999999999</ele><time>2026-04-18T14:38:04.651Z</time></trkpt><trkpt lat="44.172625" lon="11.3418733"><ele>964.1999999999999</ele><time>2026-04-18T14:38:06.65Z</time></trkpt><trkpt lat="44.17271" lon="11.3418467"><ele>964.8</ele><time>2026-04-18T14:38:08.651Z</time></trkpt><trkpt lat="44.1728017" lon="11.3418367"><ele>965.4</ele><time>2026-04-18T14:38:10.65Z</time></trkpt><trkpt lat="44.1729067" lon="11.3418417"><ele>966.0</ele><time>2026-04-18T14:38:12.651Z</time></trkpt><trkpt lat="44.17302" lon="11.341835"><ele>966.0</ele><time>2026-04-18T14:38:14.65Z</time></trkpt><trkpt lat="44.1730867" lon="11.3418167"><ele>966.0</ele><time>2026-04-18T14:38:15.65Z</time></trkpt><trkpt lat="44.17319" lon="11.3418183"><ele>966.0</ele><time>2026-04-18T14:38:17.651Z</time></trkpt><trkpt lat="44.1732417" lon="11.34187"><ele>966.0</ele><time>2026-04-18T14:38:19.65Z</time></trkpt><trkpt lat="44.1732633" lon="11.34198"><ele>966.0</ele><time>2026-04-18T14:38:21.65Z</time></trkpt><trkpt lat="44.1732717" lon="11.3420717"><ele>966.0</ele><time>2026-04-18T14:38:22.65Z</time></trkpt><trkpt lat="44.1732883" lon="11.3421783"><ele>963.5999999999999</ele><time>2026-04-18T14:38:23.65Z</time></trkpt><trkpt lat="44.1733133" lon="11.3422933"><ele>961.1999999999999</ele><time>2026-04-18T14:38:24.65Z</time></trkpt><trkpt lat="44.17336" lon="11.3424133"><ele>958.8000000000001</ele><time>2026-04-18T14:38:25.65Z</time></trkpt><trkpt lat="44.1734117" lon="11.3425433"><ele>956.4000000000001</ele><time>2026-04-18T14:38:26.65Z</time></trkpt><trkpt lat="44.1734717" lon="11.3426867"><ele>954.0</ele><time>2026-04-18T14:38:27.65Z</time></trkpt><trkpt lat="44.1735333" lon="11.342825"><ele>954.0</ele><time>2026-04-18T14:38:28.65Z</time></trkpt><trkpt lat="44.1735983" lon="11.342965"><ele>954.0</ele><time>2026-04-18T14:38:29.65Z</time></trkpt><trkpt lat="44.1736583" lon="11.3431"><ele>954.0</ele><time>2026-04-18T14:38:30.651Z</time></trkpt><trkpt lat="44.173725" lon="11.343255"><ele>954.0</ele><time>2026-04-18T14:38:31.65Z</time></trkpt><trkpt lat="44.1738033" lon="11.34341"><ele>954.75</ele><time>2026-04-18T14:38:32.65Z</time></trkpt><trkpt lat="44.1739" lon="11.3435583"><ele>955.5</ele><time>2026-04-18T14:38:33.65Z</time></trkpt><trkpt lat="44.174" lon="11.3436883"><ele>956.25</ele><time>2026-04-18T14:38:34.651Z</time></trkpt><trkpt lat="44.1741067" lon="11.3438083"><ele>957.0</ele><time>2026-04-18T14:38:35.651Z</time></trkpt><trkpt lat="44.1742283" lon="11.3439083"><ele>953.3333333333333</ele><time>2026-04-18T14:38:36.651Z</time></trkpt><trkpt lat="44.1743583" lon="11.3440033"><ele>949.6666666666666</ele><time>2026-04-18T14:38:37.651Z</time></trkpt><trkpt lat="44.1745017" lon="11.3440767"><ele>946.0</ele><time>2026-04-18T14:38:38.651Z</time></trkpt><trkpt lat="44.1746533" lon="11.3441483"><ele>946.0</ele><time>2026-04-18T14:38:39.65Z</time></trkpt><trkpt lat="44.17482" lon="11.3441967"><ele>946.0</ele><time>2026-04-18T14:38:40.65Z</time></trkpt><trkpt lat="44.174975" lon="11.344225"><ele>946.0</ele><time>2026-04-18T14:38:41.651Z</time></trkpt><trkpt lat="44.1751233" lon="11.3442617"><ele>942.6666666666666</ele><time>2026-04-18T14:38:42.65Z</time></trkpt><trkpt lat="44.1752733" lon="11.3442983"><ele>939.3333333333333</ele><time>2026-04-18T14:38:43.651Z</time></trkpt><trkpt lat="44.1754217" lon="11.3443367"><ele>936.0</ele><time>2026-04-18T14:38:44.65Z</time></trkpt><trkpt lat="44.1755783" lon="11.3443767"><ele>932.3333333333333</ele><time>2026-04-18T14:38:45.651Z</time></trkpt><trkpt lat="44.17573" lon="11.3444383"><ele>928.6666666666666</ele><time>2026-04-18T14:38:46.65Z</time></trkpt><trkpt lat="44.1758833" lon="11.3445033"><ele>925.0</ele><time>2026-04-18T14:38:47.651Z</time></trkpt><trkpt lat="44.176035" lon="11.3445817"><ele>925.0</ele><time>2026-04-18T14:38:48.65Z</time></trkpt><trkpt lat="44.1761783" lon="11.3446667"><ele>925.0</ele><time>2026-04-18T14:38:49.651Z</time></trkpt><trkpt lat="44.176315" lon="11.3447533"><ele>925.0</ele><time>2026-04-18T14:38:50.651Z</time></trkpt><trkpt lat="44.1764467" lon="11.3448467"><ele>925.5</ele><time>2026-04-18T14:38:51.65Z</time></trkpt><trkpt lat="44.1765683" lon="11.3449383"><ele>926.0</ele><time>2026-04-18T14:38:52.65Z</time></trkpt><trkpt lat="44.17668" lon="11.3450317"><ele>926.5</ele><time>2026-04-18T14:38:53.65Z</time></trkpt><trkpt lat="44.1767933" lon="11.3451267"><ele>927.0</ele><time>2026-04-18T14:38:54.651Z</time></trkpt><trkpt lat="44.1768917" lon="11.3452383"><ele>927.0</ele><time>2026-04-18T14:38:55.65Z</time></trkpt><trkpt lat="44.1769883" lon="11.34535"><ele>927.0</ele><time>2026-04-18T14:38:56.65Z</time></trkpt><trkpt lat="44.1770883" lon="11.3454867"><ele>927.0</ele><time>2026-04-18T14:38:57.651Z</time></trkpt><trkpt lat="44.1771783" lon="11.3456217"><ele>927.0</ele><time>2026-04-18T14:38:58.65Z</time></trkpt><trkpt lat="44.17728" lon="11.34573"><ele>925.25</ele><time>2026-04-18T14:38:59.651Z</time></trkpt><trkpt lat="44.1774" lon="11.3457933"><ele>923.5</ele><time>2026-04-18T14:39:00.65Z</time></trkpt><trkpt lat="44.177535" lon="11.3458283"><ele>921.75</ele><time>2026-04-18T14:39:01.65Z</time></trkpt><trkpt lat="44.177665" lon="11.3458483"><ele>920.0</ele><time>2026-04-18T14:39:02.65Z</time></trkpt><trkpt lat="44.1777917" lon="11.345865"><ele>920.0</ele><time>2026-04-18T14:39:03.651Z</time></trkpt><trkpt lat="44.177915" lon="11.3458833"><ele>920.0</ele><time>2026-04-18T14:39:04.65Z</time></trkpt><trkpt lat="44.1780317" lon="11.3459067"><ele>920.0</ele><time>2026-04-18T14:39:05.65Z</time></trkpt><trkpt lat="44.1781417" lon="11.34593"><ele>920.0</ele><time>2026-04-18T14:39:06.65Z</time></trkpt><trkpt lat="44.1782433" lon="11.34599"><ele>919.6</ele><time>2026-04-18T14:39:07.65Z</time></trkpt><trkpt lat="44.17833" lon="11.346075"><ele>919.2</ele><time>2026-04-18T14:39:08.651Z</time></trkpt><trkpt lat="44.1783917" lon="11.3461983"><ele>918.8</ele><time>2026-04-18T14:39:09.65Z</time></trkpt><trkpt lat="44.178435" lon="11.34634"><ele>918.4</ele><time>2026-04-18T14:39:10.651Z</time></trkpt><trkpt lat="44.17847" lon="11.3464933"><ele>918.0</ele><time>2026-04-18T14:39:11.65Z</time></trkpt><trkpt lat="44.178525" lon="11.346635"><ele>918.0</ele><time>2026-04-18T14:39:12.65Z</time></trkpt><trkpt lat="44.1786083" lon="11.346745"><ele>918.0</ele><time>2026-04-18T14:39:13.651Z</time></trkpt><trkpt lat="44.17871" lon="11.34682"><ele>918.0</ele><time>2026-04-18T14:39:14.65Z</time></trkpt><trkpt lat="44.1788133" lon="11.3468617"><ele>918.0</ele><time>2026-04-18T14:39:15.65Z</time></trkpt><trkpt lat="44.17891" lon="11.3468817"><ele>918.0</ele><time>2026-04-18T14:39:16.651Z</time></trkpt><trkpt lat="44.17901" lon="11.3468917"><ele>914.8</ele><time>2026-04-18T14:39:17.65Z</time></trkpt><trkpt lat="44.1791133" lon="11.3469033"><ele>911.5999999999999</ele><time>2026-04-18T14:39:18.65Z</time></trkpt><trkpt lat="44.17921" lon="11.34692"><ele>908.4000000000001</ele><time>2026-04-18T14:39:19.65Z</time></trkpt><trkpt lat="44.179305" lon="11.3469333"><ele>905.2</ele><time>2026-04-18T14:39:20.65Z</time></trkpt><trkpt lat="44.1793983" lon="11.346955"><ele>902.0</ele><time>2026-04-18T14:39:21.65Z</time></trkpt><trkpt lat="44.179485" lon="11.3470167"><ele>902.0</ele><time>2026-04-18T14:39:22.651Z</time></trkpt><trkpt lat="44.1795717" lon="11.3471067"><ele>902.0</ele><time>2026-04-18T14:39:23.65Z</time></trkpt><trkpt lat="44.1796383" lon="11.3472283"><ele>902.0</ele><time>2026-04-18T14:39:24.651Z</time></trkpt><trkpt lat="44.1796933" lon="11.3473833"><ele>902.0</ele><time>2026-04-18T14:39:25.651Z</time></trkpt><trkpt lat="44.179765" lon="11.3475417"><ele>901.0</ele><time>2026-04-18T14:39:26.65Z</time></trkpt><trkpt lat="44.17986" lon="11.3476517"><ele>900.0</ele><time>2026-04-18T14:39:27.65Z</time></trkpt><trkpt lat="44.1799817" lon="11.3476983"><ele>899.0</ele><time>2026-04-18T14:39:28.65Z</time></trkpt><trkpt lat="44.1801167" lon="11.3477067"><ele>898.0</ele><time>2026-04-18T14:39:29.651Z</time></trkpt><trkpt lat="44.1802467" lon="11.3477067"><ele>898.0</ele><time>2026-04-18T14:39:30.651Z</time></trkpt><trkpt lat="44.1803683" lon="11.347705"><ele>898.0</ele><time>2026-04-18T14:39:31.651Z</time></trkpt><trkpt lat="44.1804833" lon="11.34771"><ele>898.0</ele><time>2026-04-18T14:39:32.65Z</time></trkpt><trkpt lat="44.1806067" lon="11.3477183"><ele>898.0</ele><time>2026-04-18T14:39:33.65Z</time></trkpt><trkpt lat="44.180725" lon="11.3477383"><ele>895.0</ele><time>2026-04-18T14:39:34.65Z</time></trkpt><trkpt lat="44.1808483" lon="11.3477733"><ele>892.0</ele><time>2026-04-18T14:39:35.65Z</time></trkpt><trkpt lat="44.180965" lon="11.3478317"><ele>889.0</ele><time>2026-04-18T14:39:36.651Z</time></trkpt><trkpt lat="44.1810917" lon="11.3479117"><ele>886.0</ele><time>2026-04-18T14:39:37.65Z</time></trkpt><trkpt lat="44.1812183" lon="11.3480017"><ele>887.0</ele><time>2026-04-18T14:39:38.65Z</time></trkpt><trkpt lat="44.1813333" lon="11.3480983"><ele>888.0</ele><time>2026-04-18T14:39:39.651Z</time></trkpt><trkpt lat="44.18145" lon="11.3482033"><ele>889.0</ele><time>2026-04-18T14:39:40.65Z</time></trkpt><trkpt lat="44.181565" lon="11.3482983"><ele>890.0</ele><time>2026-04-18T14:39:41.651Z</time></trkpt><trkpt lat="44.181675" lon="11.3483983"><ele>890.0</ele><time>2026-04-18T14:39:42.65Z</time></trkpt><trkpt lat="44.18178" lon="11.348495"><ele>890.0</ele><time>2026-04-18T14:39:43.651Z</time></trkpt><trkpt lat="44.18187" lon="11.3485883"><ele>890.0</ele><time>2026-04-18T14:39:44.65Z</time></trkpt><trkpt lat="44.181945" lon="11.3486767"><ele>890.0</ele><time>2026-04-18T14:39:45.651Z</time></trkpt><trkpt lat="44.181995" lon="11.3487617"><ele>890.0</ele><time>2026-04-18T14:39:46.651Z</time></trkpt><trkpt lat="44.1820283" lon="11.3488383"><ele>893.4</ele><time>2026-04-18T14:39:47.65Z</time></trkpt><trkpt lat="44.182075" lon="11.3489667"><ele>896.8</ele><time>2026-04-18T14:39:49.65Z</time></trkpt><trkpt lat="44.1821017" lon="11.3490783"><ele>900.2</ele><time>2026-04-18T14:39:51.651Z</time></trkpt><trkpt lat="44.1821283" lon="11.3491883"><ele>903.6</ele><time>2026-04-18T14:39:53.651Z</time></trkpt><trkpt lat="44.1822067" lon="11.349305"><ele>907.0</ele><time>2026-04-18T14:39:55.65Z</time></trkpt><trkpt lat="44.1822567" lon="11.34937"><ele>906.9999999999999</ele><time>2026-04-18T14:39:56.65Z</time></trkpt><trkpt lat="44.1823083" lon="11.3494383"><ele>907.0</ele><time>2026-04-18T14:39:57.649Z</time></trkpt><trkpt lat="44.18235" lon="11.3495133"><ele>907.0</ele><time>2026-04-18T14:39:58.649Z</time></trkpt><trkpt lat="44.1823883" lon="11.349595"><ele>907.0</ele><time>2026-04-18T14:39:59.65Z</time></trkpt><trkpt lat="44.1824333" lon="11.3496817"><ele>906.9999999999999</ele><time>2026-04-18T14:40:00.649Z</time></trkpt><trkpt lat="44.18248" lon="11.3497733"><ele>907.0</ele><time>2026-04-18T14:40:01.65Z</time></trkpt><trkpt lat="44.1825417" lon="11.3498717"><ele>903.0</ele><time>2026-04-18T14:40:02.65Z</time></trkpt><trkpt lat="44.1826083" lon="11.3499667"><ele>899.0</ele><time>2026-04-18T14:40:03.649Z</time></trkpt><trkpt lat="44.1826783" lon="11.3500617"><ele>895.0</ele><time>2026-04-18T14:40:04.649Z</time></trkpt><trkpt lat="44.1827567" lon="11.3501517"><ele>891.0</ele><time>2026-04-18T14:40:05.65Z</time></trkpt><trkpt lat="44.1828333" lon="11.3502483"><ele>887.0</ele><time>2026-04-18T14:40:06.649Z</time></trkpt><trkpt lat="44.182925" lon="11.3503467"><ele>887.0</ele><time>2026-04-18T14:40:07.649Z</time></trkpt><trkpt lat="44.1830083" lon="11.3504467"><ele>887.0</ele><time>2026-04-18T14:40:08.649Z</time></trkpt><trkpt lat="44.183095" lon="11.3505417"><ele>887.0</ele><time>2026-04-18T14:40:09.65Z</time></trkpt><trkpt lat="44.18318" lon="11.350635"><ele>887.0</ele><time>2026-04-18T14:40:10.649Z</time></trkpt><trkpt lat="44.183265" lon="11.3507333"><ele>887.0</ele><time>2026-04-18T14:40:11.649Z</time></trkpt><trkpt lat="44.1833483" lon="11.3508283"><ele>885.2</ele><time>2026-04-18T14:40:12.649Z</time></trkpt><trkpt lat="44.183435" lon="11.35092"><ele>883.4000000000001</ele><time>2026-04-18T14:40:13.65Z</time></trkpt><trkpt lat="44.1835183" lon="11.351015"><ele>881.5999999999999</ele><time>2026-04-18T14:40:14.65Z</time></trkpt><trkpt lat="44.183595" lon="11.35111"><ele>879.8</ele><time>2026-04-18T14:40:15.65Z</time></trkpt><trkpt lat="44.18368" lon="11.3512083"><ele>878.0</ele><time>2026-04-18T14:40:16.65Z</time></trkpt><trkpt lat="44.183765" lon="11.3513017"><ele>876.5</ele><time>2026-04-18T14:40:17.65Z</time></trkpt><trkpt lat="44.1838667" lon="11.35139"><ele>875.0</ele><time>2026-04-18T14:40:18.649Z</time></trkpt><trkpt lat="44.18397" lon="11.3514667"><ele>873.5</ele><time>2026-04-18T14:40:19.649Z</time></trkpt><trkpt lat="44.1840783" lon="11.3515367"><ele>872.0</ele><time>2026-04-18T14:40:20.65Z</time></trkpt><trkpt lat="44.1841733" lon="11.3516067"><ele>872.0</ele><time>2026-04-18T14:40:21.649Z</time></trkpt><trkpt lat="44.18427" lon="11.3516767"><ele>872.0</ele><time>2026-04-18T14:40:22.65Z</time></trkpt><trkpt lat="44.1843583" lon="11.35175"><ele>872.0</ele><time>2026-04-18T14:40:23.649Z</time></trkpt><trkpt lat="44.1844467" lon="11.351835"><ele>872.0</ele><time>2026-04-18T14:40:24.649Z</time></trkpt><trkpt lat="44.1845217" lon="11.3519217"><ele>872.0</ele><time>2026-04-18T14:40:25.649Z</time></trkpt><trkpt lat="44.184585" lon="11.352015"><ele>872.0</ele><time>2026-04-18T14:40:26.65Z</time></trkpt><trkpt lat="44.1846417" lon="11.35214"><ele>872.0</ele><time>2026-04-18T14:40:27.65Z</time></trkpt><trkpt lat="44.1847083" lon="11.3522667"><ele>872.0</ele><time>2026-04-18T14:40:28.65Z</time></trkpt><trkpt lat="44.18478" lon="11.3523967"><ele>872.0</ele><time>2026-04-18T14:40:29.649Z</time></trkpt><trkpt lat="44.184865" lon="11.3525033"><ele>870.5</ele><time>2026-04-18T14:40:30.649Z</time></trkpt><trkpt lat="44.1849567" lon="11.3526117"><ele>869.0</ele><time>2026-04-18T14:40:31.649Z</time></trkpt><trkpt lat="44.1850483" lon="11.352705"><ele>867.5</ele><time>2026-04-18T14:40:32.649Z</time></trkpt><trkpt lat="44.1851417" lon="11.352795"><ele>866.0</ele><time>2026-04-18T14:40:33.649Z</time></trkpt><trkpt lat="44.1852417" lon="11.3528717"><ele>866.0</ele><time>2026-04-18T14:40:34.649Z</time></trkpt><trkpt lat="44.1853533" lon="11.3529233"><ele>866.0</ele><time>2026-04-18T14:40:35.65Z</time></trkpt><trkpt lat="44.1854767" lon="11.3529567"><ele>866.0</ele><time>2026-04-18T14:40:36.649Z</time></trkpt><trkpt lat="44.1855983" lon="11.35298"><ele>866.0</ele><time>2026-04-18T14:40:37.65Z</time></trkpt><trkpt lat="44.1857267" lon="11.3529833"><ele>863.75</ele><time>2026-04-18T14:40:38.65Z</time></trkpt><trkpt lat="44.185855" lon="11.35297"><ele>861.5</ele><time>2026-04-18T14:40:39.65Z</time></trkpt><trkpt lat="44.185985" lon="11.35294"><ele>859.25</ele><time>2026-04-18T14:40:40.649Z</time></trkpt><trkpt lat="44.1861083" lon="11.352915"><ele>857.0</ele><time>2026-04-18T14:40:41.65Z</time></trkpt><trkpt lat="44.1862283" lon="11.3528933"><ele>857.0</ele><time>2026-04-18T14:40:42.649Z</time></trkpt><trkpt lat="44.18634" lon="11.3528817"><ele>857.0</ele><time>2026-04-18T14:40:43.649Z</time></trkpt><trkpt lat="44.1864567" lon="11.3528617"><ele>857.0</ele><time>2026-04-18T14:40:44.649Z</time></trkpt><trkpt lat="44.18658" lon="11.3528333"><ele>857.0</ele><time>2026-04-18T14:40:45.65Z</time></trkpt><trkpt lat="44.1867" lon="11.3528133"><ele>855.25</ele><time>2026-04-18T14:40:46.65Z</time></trkpt><trkpt lat="44.18683" lon="11.3527867"><ele>853.5</ele><time>2026-04-18T14:40:47.65Z</time></trkpt><trkpt lat="44.1869617" lon="11.3527517"><ele>851.75</ele><time>2026-04-18T14:40:48.649Z</time></trkpt><trkpt lat="44.187095" lon="11.3527233"><ele>850.0</ele><time>2026-04-18T14:40:49.649Z</time></trkpt><trkpt lat="44.1872283" lon="11.3527233"><ele>848.8</ele><time>2026-04-18T14:40:50.649Z</time></trkpt><trkpt lat="44.1873517" lon="11.3527367"><ele>847.6</ele><time>2026-04-18T14:40:51.65Z</time></trkpt><trkpt lat="44.1874633" lon="11.3527933"><ele>846.4000000000001</ele><time>2026-04-18T14:40:52.649Z</time></trkpt><trkpt lat="44.1875483" lon="11.3528583"><ele>845.2</ele><time>2026-04-18T14:40:53.65Z</time></trkpt><trkpt lat="44.1876217" lon="11.3529333"><ele>844.0</ele><time>2026-04-18T14:40:54.649Z</time></trkpt><trkpt lat="44.18768" lon="11.3530133"><ele>843.9999999999999</ele><time>2026-04-18T14:40:55.65Z</time></trkpt><trkpt lat="44.1877317" lon="11.3530967"><ele>844.0</ele><time>2026-04-18T14:40:56.65Z</time></trkpt><trkpt lat="44.1877817" lon="11.353175"><ele>844.0</ele><time>2026-04-18T14:40:57.65Z</time></trkpt><trkpt lat="44.18786" lon="11.3532433"><ele>844.0</ele><time>2026-04-18T14:40:59.649Z</time></trkpt><trkpt lat="44.18791" lon="11.3531817"><ele>843.9999999999999</ele><time>2026-04-18T14:41:13.649Z</time></trkpt><trkpt lat="44.1879433" lon="11.3530833"><ele>844.0</ele><time>2026-04-18T14:41:15.649Z</time></trkpt><trkpt lat="44.1879533" lon="11.3529617"><ele>844.0</ele><time>2026-04-18T14:41:17.649Z</time></trkpt><trkpt lat="44.1879383" lon="11.3528233"><ele>844.0</ele><time>2026-04-18T14:41:19.65Z</time></trkpt><trkpt lat="44.187865" lon="11.3527233"><ele>844.0</ele><time>2026-04-18T14:41:21.649Z</time></trkpt><trkpt lat="44.1877717" lon="11.35265"><ele>844.0</ele><time>2026-04-18T14:41:23.65Z</time></trkpt><trkpt lat="44.187675" lon="11.3525833"><ele>844.0</ele><time>2026-04-18T14:41:25.65Z</time></trkpt><trkpt lat="44.1875683" lon="11.3525067"><ele>844.0</ele><time>2026-04-18T14:41:27.65Z</time></trkpt><trkpt lat="44.187515" lon="11.3524567"><ele>844.0</ele><time>2026-04-18T14:41:28.65Z</time></trkpt><trkpt lat="44.187445" lon="11.3523133"><ele>844.0</ele><time>2026-04-18T14:41:30.65Z</time></trkpt><trkpt lat="44.187445" lon="11.3521683"><ele>844.0</ele><time>2026-04-18T14:41:32.649Z</time></trkpt><trkpt lat="44.1875133" lon="11.3520767"><ele>844.0</ele><time>2026-04-18T14:41:34.649Z</time></trkpt><trkpt lat="44.1875733" lon="11.3520433"><ele>843.9999999999999</ele><time>2026-04-18T14:41:35.65Z</time></trkpt><trkpt lat="44.18764" lon="11.3520333"><ele>844.0</ele><time>2026-04-18T14:41:36.65Z</time></trkpt><trkpt lat="44.1877583" lon="11.3520683"><ele>844.0</ele><time>2026-04-18T14:41:38.65Z</time></trkpt><trkpt lat="44.18781" lon="11.3521233"><ele>844.0</ele><time>2026-04-18T14:41:39.65Z</time></trkpt><trkpt lat="44.1878667" lon="11.3521967"><ele>843.9999999999999</ele><time>2026-04-18T14:41:40.649Z</time></trkpt><trkpt lat="44.1879317" lon="11.3522833"><ele>844.0</ele><time>2026-04-18T14:41:41.649Z</time></trkpt><trkpt lat="44.188" lon="11.3523717"><ele>844.0</ele><time>2026-04-18T14:41:42.649Z</time></trkpt><trkpt lat="44.1880783" lon="11.3524233"><ele>844.0</ele><time>2026-04-18T14:41:43.65Z</time></trkpt><trkpt lat="44.1881667" lon="11.35245"><ele>844.0</ele><time>2026-04-18T14:41:44.649Z</time></trkpt><trkpt lat="44.1882567" lon="11.3524633"><ele>844.0</ele><time>2026-04-18T14:41:45.649Z</time></trkpt><trkpt lat="44.1883483" lon="11.3524633"><ele>844.0</ele><time>2026-04-18T14:41:46.649Z</time></trkpt><trkpt lat="44.1884417" lon="11.3524417"><ele>841.2</ele><time>2026-04-18T14:41:47.65Z</time></trkpt><trkpt lat="44.1885267" lon="11.3523967"><ele>838.4000000000001</ele><time>2026-04-18T14:41:48.649Z</time></trkpt><trkpt lat="44.1886117" lon="11.3523417"><ele>835.6</ele><time>2026-04-18T14:41:49.649Z</time></trkpt><trkpt lat="44.1886967" lon="11.3522767"><ele>832.8</ele><time>2026-04-18T14:41:50.65Z</time></trkpt><trkpt lat="44.1887817" lon="11.3522183"><ele>830.0</ele><time>2026-04-18T14:41:51.649Z</time></trkpt><trkpt lat="44.18886" lon="11.3521583"><ele>828.2</ele><time>2026-04-18T14:41:52.649Z</time></trkpt><trkpt lat="44.1889417" lon="11.3520967"><ele>826.4</ele><time>2026-04-18T14:41:53.65Z</time></trkpt><trkpt lat="44.1890283" lon="11.3520367"><ele>824.5999999999999</ele><time>2026-04-18T14:41:54.649Z</time></trkpt><trkpt lat="44.1891183" lon="11.3519767"><ele>822.8</ele><time>2026-04-18T14:41:55.65Z</time></trkpt><trkpt lat="44.1892" lon="11.35191"><ele>821.0</ele><time>2026-04-18T14:41:56.649Z</time></trkpt><trkpt lat="44.1892783" lon="11.3518533"><ele>820.3333333333334</ele><time>2026-04-18T14:41:57.649Z</time></trkpt><trkpt lat="44.189345" lon="11.3517833"><ele>819.6666666666667</ele><time>2026-04-18T14:41:58.649Z</time></trkpt><trkpt lat="44.1894033" lon="11.351705"><ele>819.0</ele><time>2026-04-18T14:41:59.649Z</time></trkpt><trkpt lat="44.18945" lon="11.3516067"><ele>818.3333333333333</ele><time>2026-04-18T14:42:00.649Z</time></trkpt><trkpt lat="44.189455" lon="11.3515117"><ele>817.6666666666666</ele><time>2026-04-18T14:42:01.649Z</time></trkpt><trkpt lat="44.1894317" lon="11.3514217"><ele>817.0</ele><time>2026-04-18T14:42:02.649Z</time></trkpt><trkpt lat="44.1893817" lon="11.351345"><ele>815.6666666666666</ele><time>2026-04-18T14:42:03.65Z</time></trkpt><trkpt lat="44.1893167" lon="11.35129"><ele>814.3333333333333</ele><time>2026-04-18T14:42:04.649Z</time></trkpt><trkpt lat="44.1892383" lon="11.3512583"><ele>813.0</ele><time>2026-04-18T14:42:05.65Z</time></trkpt><trkpt lat="44.189155" lon="11.351255"><ele>811.6666666666667</ele><time>2026-04-18T14:42:06.65Z</time></trkpt><trkpt lat="44.1890683" lon="11.3512633"><ele>810.3333333333334</ele><time>2026-04-18T14:42:07.649Z</time></trkpt><trkpt lat="44.1889717" lon="11.3512767"><ele>809.0</ele><time>2026-04-18T14:42:08.649Z</time></trkpt><trkpt lat="44.1888867" lon="11.3512683"><ele>809.0000000000001</ele><time>2026-04-18T14:42:09.649Z</time></trkpt><trkpt lat="44.1888" lon="11.3512317"><ele>809.0</ele><time>2026-04-18T14:42:10.65Z</time></trkpt><trkpt lat="44.1887217" lon="11.3511783"><ele>809.0</ele><time>2026-04-18T14:42:11.649Z</time></trkpt><trkpt lat="44.188655" lon="11.3511017"><ele>809.0</ele><time>2026-04-18T14:42:12.649Z</time></trkpt><trkpt lat="44.1886" lon="11.3510217"><ele>809.0000000000001</ele><time>2026-04-18T14:42:13.649Z</time></trkpt><trkpt lat="44.18854" lon="11.350935"><ele>809.0</ele><time>2026-04-18T14:42:14.649Z</time></trkpt><trkpt lat="44.1884783" lon="11.3508467"><ele>809.0000000000001</ele><time>2026-04-18T14:42:15.649Z</time></trkpt><trkpt lat="44.1884217" lon="11.3507583"><ele>809.0</ele><time>2026-04-18T14:42:16.65Z</time></trkpt><trkpt lat="44.1883667" lon="11.3506717"><ele>809.0</ele><time>2026-04-18T14:42:17.65Z</time></trkpt><trkpt lat="44.18831" lon="11.350585"><ele>809.0</ele><time>2026-04-18T14:42:18.649Z</time></trkpt><trkpt lat="44.1882533" lon="11.350495"><ele>809.0000000000001</ele><time>2026-04-18T14:42:19.649Z</time></trkpt><trkpt lat="44.1882" lon="11.3504017"><ele>809.0</ele><time>2026-04-18T14:42:20.649Z</time></trkpt><trkpt lat="44.1881467" lon="11.3503133"><ele>809.0000000000001</ele><time>2026-04-18T14:42:21.649Z</time></trkpt><trkpt lat="44.1881017" lon="11.3502217"><ele>809.0</ele><time>2026-04-18T14:42:22.649Z</time></trkpt><trkpt lat="44.1880617" lon="11.3501217"><ele>809.0</ele><time>2026-04-18T14:42:23.65Z</time></trkpt><trkpt lat="44.1880317" lon="11.3500083"><ele>809.0</ele><time>2026-04-18T14:42:24.65Z</time></trkpt><trkpt lat="44.1880233" lon="11.3499017"><ele>809.0000000000001</ele><time>2026-04-18T14:42:25.65Z</time></trkpt><trkpt lat="44.18804" lon="11.34978"><ele>809.0</ele><time>2026-04-18T14:42:26.649Z</time></trkpt><trkpt lat="44.188055" lon="11.3496617"><ele>807.6666666666667</ele><time>2026-04-18T14:42:27.649Z</time></trkpt><trkpt lat="44.18807" lon="11.349535"><ele>806.3333333333334</ele><time>2026-04-18T14:42:28.649Z</time></trkpt><trkpt lat="44.1880767" lon="11.349415"><ele>805.0</ele><time>2026-04-18T14:42:29.65Z</time></trkpt><trkpt lat="44.1880817" lon="11.3493017"><ele>803.6666666666667</ele><time>2026-04-18T14:42:30.649Z</time></trkpt><trkpt lat="44.1880867" lon="11.3491717"><ele>802.3333333333334</ele><time>2026-04-18T14:42:31.649Z</time></trkpt><trkpt lat="44.1880933" lon="11.349045"><ele>801.0</ele><time>2026-04-18T14:42:32.649Z</time></trkpt><trkpt lat="44.1880967" lon="11.3489133"><ele>799.6666666666666</ele><time>2026-04-18T14:42:33.649Z</time></trkpt><trkpt lat="44.1881" lon="11.3487867"><ele>798.3333333333333</ele><time>2026-04-18T14:42:34.65Z</time></trkpt><trkpt lat="44.1880983" lon="11.34867"><ele>797.0</ele><time>2026-04-18T14:42:35.649Z</time></trkpt><trkpt lat="44.1880917" lon="11.3485633"><ele>795.6666666666666</ele><time>2026-04-18T14:42:36.649Z</time></trkpt><trkpt lat="44.1880933" lon="11.3484483"><ele>794.3333333333333</ele><time>2026-04-18T14:42:37.649Z</time></trkpt><trkpt lat="44.1880933" lon="11.34832"><ele>793.0</ele><time>2026-04-18T14:42:38.65Z</time></trkpt><trkpt lat="44.1880783" lon="11.348185"><ele>792.9999999999999</ele><time>2026-04-18T14:42:39.65Z</time></trkpt><trkpt lat="44.188055" lon="11.34806"><ele>793.0</ele><time>2026-04-18T14:42:40.649Z</time></trkpt><trkpt lat="44.1880183" lon="11.3479383"><ele>793.0</ele><time>2026-04-18T14:42:41.65Z</time></trkpt><trkpt lat="44.1879683" lon="11.3478467"><ele>793.0</ele><time>2026-04-18T14:42:42.649Z</time></trkpt><trkpt lat="44.18792" lon="11.3477433"><ele>792.9999999999999</ele><time>2026-04-18T14:42:43.65Z</time></trkpt><trkpt lat="44.187865" lon="11.34765"><ele>793.0</ele><time>2026-04-18T14:42:44.65Z</time></trkpt><trkpt lat="44.1878033" lon="11.34756"><ele>790.8333333333333</ele><time>2026-04-18T14:42:45.649Z</time></trkpt><trkpt lat="44.18774" lon="11.347495"><ele>788.6666666666666</ele><time>2026-04-18T14:42:46.649Z</time></trkpt><trkpt lat="44.1876733" lon="11.3474167"><ele>786.5</ele><time>2026-04-18T14:42:47.649Z</time></trkpt><trkpt lat="44.1876083" lon="11.347345"><ele>784.3333333333333</ele><time>2026-04-18T14:42:48.65Z</time></trkpt><trkpt lat="44.1875433" lon="11.3472867"><ele>782.1666666666666</ele><time>2026-04-18T14:42:49.649Z</time></trkpt><trkpt lat="44.1874767" lon="11.3472317"><ele>780.0</ele><time>2026-04-18T14:42:50.65Z</time></trkpt><trkpt lat="44.1874133" lon="11.3471717"><ele>780.3333333333334</ele><time>2026-04-18T14:42:51.649Z</time></trkpt><trkpt lat="44.1873517" lon="11.3471033"><ele>780.6666666666667</ele><time>2026-04-18T14:42:52.649Z</time></trkpt><trkpt lat="44.187305" lon="11.34703"><ele>781.0</ele><time>2026-04-18T14:42:53.649Z</time></trkpt><trkpt lat="44.187265" lon="11.3469417"><ele>781.3333333333334</ele><time>2026-04-18T14:42:54.649Z</time></trkpt><trkpt lat="44.1872433" lon="11.3468383"><ele>781.6666666666667</ele><time>2026-04-18T14:42:55.65Z</time></trkpt><trkpt lat="44.187225" lon="11.346725"><ele>782.0</ele><time>2026-04-18T14:42:56.65Z</time></trkpt><trkpt lat="44.187215" lon="11.3466017"><ele>782.0000000000001</ele><time>2026-04-18T14:42:57.648Z</time></trkpt><trkpt lat="44.1872183" lon="11.3464933"><ele>782.0</ele><time>2026-04-18T14:42:58.649Z</time></trkpt><trkpt lat="44.1872283" lon="11.3463683"><ele>782.0</ele><time>2026-04-18T14:42:59.649Z</time></trkpt><trkpt lat="44.187245" lon="11.346255"><ele>782.0</ele><time>2026-04-18T14:43:00.648Z</time></trkpt><trkpt lat="44.1872667" lon="11.3461433"><ele>782.0000000000001</ele><time>2026-04-18T14:43:01.648Z</time></trkpt><trkpt lat="44.1872983" lon="11.3460233"><ele>782.0</ele><time>2026-04-18T14:43:02.649Z</time></trkpt><trkpt lat="44.1873267" lon="11.3459117"><ele>778.6666666666667</ele><time>2026-04-18T14:43:03.649Z</time></trkpt><trkpt lat="44.187355" lon="11.3458083"><ele>775.3333333333334</ele><time>2026-04-18T14:43:04.649Z</time></trkpt><trkpt lat="44.1873883" lon="11.345695"><ele>772.0</ele><time>2026-04-18T14:43:05.649Z</time></trkpt><trkpt lat="44.187425" lon="11.3455833"><ele>768.6666666666667</ele><time>2026-04-18T14:43:06.649Z</time></trkpt><trkpt lat="44.1874583" lon="11.3454683"><ele>765.3333333333334</ele><time>2026-04-18T14:43:07.648Z</time></trkpt><trkpt lat="44.1874933" lon="11.3453533"><ele>762.0</ele><time>2026-04-18T14:43:08.649Z</time></trkpt><trkpt lat="44.1875183" lon="11.3452367"><ele>761.6</ele><time>2026-04-18T14:43:09.648Z</time></trkpt><trkpt lat="44.18753" lon="11.3451167"><ele>761.2</ele><time>2026-04-18T14:43:10.649Z</time></trkpt><trkpt lat="44.1875233" lon="11.3450117"><ele>760.8</ele><time>2026-04-18T14:43:11.649Z</time></trkpt><trkpt lat="44.187495" lon="11.3449117"><ele>760.4</ele><time>2026-04-18T14:43:12.648Z</time></trkpt><trkpt lat="44.1874433" lon="11.3447617"><ele>760.0</ele><time>2026-04-18T14:43:14.649Z</time></trkpt><trkpt lat="44.1874817" lon="11.344625"><ele>760.0</ele><time>2026-04-18T14:43:16.648Z</time></trkpt><trkpt lat="44.1875683" lon="11.3446083"><ele>760.0</ele><time>2026-04-18T14:43:18.649Z</time></trkpt><trkpt lat="44.1876733" lon="11.3446867"><ele>760.0</ele><time>2026-04-18T14:43:20.648Z</time></trkpt><trkpt lat="44.1877367" lon="11.3447433"><ele>760.0</ele><time>2026-04-18T14:43:21.648Z</time></trkpt><trkpt lat="44.1878" lon="11.3447917"><ele>760.0</ele><time>2026-04-18T14:43:22.648Z</time></trkpt><trkpt lat="44.1878667" lon="11.3448417"><ele>760.0</ele><time>2026-04-18T14:43:23.649Z</time></trkpt><trkpt lat="44.1879333" lon="11.3448667"><ele>760.0</ele><time>2026-04-18T14:43:24.648Z</time></trkpt><trkpt lat="44.1880033" lon="11.34489"><ele>760.0</ele><time>2026-04-18T14:43:25.649Z</time></trkpt><trkpt lat="44.1880817" lon="11.3449183"><ele>760.0</ele><time>2026-04-18T14:43:26.649Z</time></trkpt><trkpt lat="44.1881583" lon="11.3449433"><ele>760.0</ele><time>2026-04-18T14:43:27.648Z</time></trkpt><trkpt lat="44.18824" lon="11.34497"><ele>760.0</ele><time>2026-04-18T14:43:28.648Z</time></trkpt><trkpt lat="44.1883167" lon="11.3450017"><ele>760.0</ele><time>2026-04-18T14:43:29.648Z</time></trkpt><trkpt lat="44.188395" lon="11.3450217"><ele>757.8333333333334</ele><time>2026-04-18T14:43:30.649Z</time></trkpt><trkpt lat="44.1884617" lon="11.3450417"><ele>755.6666666666667</ele><time>2026-04-18T14:43:31.649Z</time></trkpt><trkpt lat="44.18853" lon="11.3450667"><ele>753.5</ele><time>2026-04-18T14:43:32.649Z</time></trkpt><trkpt lat="44.18861" lon="11.3450917"><ele>751.3333333333334</ele><time>2026-04-18T14:43:33.649Z</time></trkpt><trkpt lat="44.1886867" lon="11.3451167"><ele>749.1666666666666</ele><time>2026-04-18T14:43:34.649Z</time></trkpt><trkpt lat="44.1887617" lon="11.345155"><ele>747.0</ele><time>2026-04-18T14:43:35.648Z</time></trkpt><trkpt lat="44.18886" lon="11.3452083"><ele>747.0</ele><time>2026-04-18T14:43:36.648Z</time></trkpt><trkpt lat="44.1889717" lon="11.3452583"><ele>747.0</ele><time>2026-04-18T14:43:37.649Z</time></trkpt><trkpt lat="44.1890733" lon="11.3453117"><ele>747.0</ele><time>2026-04-18T14:43:38.648Z</time></trkpt><trkpt lat="44.1891683" lon="11.3453533"><ele>747.0</ele><time>2026-04-18T14:43:39.648Z</time></trkpt><trkpt lat="44.1892567" lon="11.345385"><ele>747.0</ele><time>2026-04-18T14:43:40.648Z</time></trkpt><trkpt lat="44.1893367" lon="11.3454083"><ele>745.5</ele><time>2026-04-18T14:43:41.648Z</time></trkpt><trkpt lat="44.18941" lon="11.3454167"><ele>744.0</ele><time>2026-04-18T14:43:42.648Z</time></trkpt><trkpt lat="44.189475" lon="11.3453883"><ele>742.5</ele><time>2026-04-18T14:43:43.649Z</time></trkpt><trkpt lat="44.1895517" lon="11.3452983"><ele>741.0</ele><time>2026-04-18T14:43:45.648Z</time></trkpt><trkpt lat="44.18959" lon="11.3451617"><ele>739.5</ele><time>2026-04-18T14:43:47.648Z</time></trkpt><trkpt lat="44.1896183" lon="11.3450733"><ele>738.0</ele><time>2026-04-18T14:43:48.649Z</time></trkpt><trkpt lat="44.1896517" lon="11.344975"><ele>738.0</ele><time>2026-04-18T14:43:49.648Z</time></trkpt><trkpt lat="44.1896883" lon="11.34489"><ele>738.0</ele><time>2026-04-18T14:43:50.648Z</time></trkpt><trkpt lat="44.1897283" lon="11.344805"><ele>738.0</ele><time>2026-04-18T14:43:51.649Z</time></trkpt><trkpt lat="44.189785" lon="11.34471"><ele>738.0</ele><time>2026-04-18T14:43:52.649Z</time></trkpt><trkpt lat="44.1898283" lon="11.3446183"><ele>738.0</ele><time>2026-04-18T14:43:53.648Z</time></trkpt><trkpt lat="44.1898567" lon="11.34453"><ele>738.0</ele><time>2026-04-18T14:43:54.648Z</time></trkpt><trkpt lat="44.1898817" lon="11.3444283"><ele>735.8333333333334</ele><time>2026-04-18T14:43:55.649Z</time></trkpt><trkpt lat="44.1899033" lon="11.3443217"><ele>733.6666666666666</ele><time>2026-04-18T14:43:56.649Z</time></trkpt><trkpt lat="44.1899167" lon="11.3442067"><ele>731.5</ele><time>2026-04-18T14:43:57.649Z</time></trkpt><trkpt lat="44.1899233" lon="11.3440867"><ele>729.3333333333333</ele><time>2026-04-18T14:43:58.649Z</time></trkpt><trkpt lat="44.1899333" lon="11.343965"><ele>727.1666666666666</ele><time>2026-04-18T14:43:59.648Z</time></trkpt><trkpt lat="44.1899417" lon="11.3438283"><ele>725.0</ele><time>2026-04-18T14:44:00.649Z</time></trkpt><trkpt lat="44.18994" lon="11.3436883"><ele>725.2</ele><time>2026-04-18T14:44:01.649Z</time></trkpt><trkpt lat="44.1899333" lon="11.343555"><ele>725.4</ele><time>2026-04-18T14:44:02.648Z</time></trkpt><trkpt lat="44.1899317" lon="11.3434317"><ele>725.5999999999999</ele><time>2026-04-18T14:44:03.648Z</time></trkpt><trkpt lat="44.18994" lon="11.3432933"><ele>725.8</ele><time>2026-04-18T14:44:04.649Z</time></trkpt><trkpt lat="44.1899483" lon="11.3431483"><ele>726.0</ele><time>2026-04-18T14:44:05.649Z</time></trkpt><trkpt lat="44.189965" lon="11.343015"><ele>726.0</ele><time>2026-04-18T14:44:06.649Z</time></trkpt><trkpt lat="44.189975" lon="11.3428933"><ele>726.0</ele><time>2026-04-18T14:44:07.648Z</time></trkpt><trkpt lat="44.1899967" lon="11.3427983"><ele>726.0</ele><time>2026-04-18T14:44:08.649Z</time></trkpt><trkpt lat="44.190055" lon="11.3426517"><ele>726.0</ele><time>2026-04-18T14:44:10.649Z</time></trkpt><trkpt lat="44.1900983" lon="11.3425783"><ele>726.0</ele><time>2026-04-18T14:44:11.648Z</time></trkpt><trkpt lat="44.1901467" lon="11.3424967"><ele>726.0</ele><time>2026-04-18T14:44:12.649Z</time></trkpt><trkpt lat="44.1902017" lon="11.3424183"><ele>726.0</ele><time>2026-04-18T14:44:13.648Z</time></trkpt><trkpt lat="44.190255" lon="11.3423367"><ele>726.0</ele><time>2026-04-18T14:44:14.649Z</time></trkpt><trkpt lat="44.190315" lon="11.3422433"><ele>726.0</ele><time>2026-04-18T14:44:15.649Z</time></trkpt><trkpt lat="44.19037" lon="11.3421417"><ele>726.0</ele><time>2026-04-18T14:44:16.648Z</time></trkpt><trkpt lat="44.1904267" lon="11.34204"><ele>726.0</ele><time>2026-04-18T14:44:17.649Z</time></trkpt><trkpt lat="44.19049" lon="11.3419483"><ele>726.0</ele><time>2026-04-18T14:44:18.649Z</time></trkpt><trkpt lat="44.190535" lon="11.3418583"><ele>727.5999999999999</ele><time>2026-04-18T14:44:19.649Z</time></trkpt><trkpt lat="44.1905667" lon="11.34176"><ele>729.2</ele><time>2026-04-18T14:44:20.648Z</time></trkpt><trkpt lat="44.19059" lon="11.3416417"><ele>730.8</ele><time>2026-04-18T14:44:21.648Z</time></trkpt><trkpt lat="44.1905917" lon="11.3414917"><ele>732.4000000000001</ele><time>2026-04-18T14:44:22.648Z</time></trkpt><trkpt lat="44.19059" lon="11.34134"><ele>734.0</ele><time>2026-04-18T14:44:23.649Z</time></trkpt><trkpt lat="44.1905967" lon="11.3411983"><ele>734.8000000000001</ele><time>2026-04-18T14:44:24.649Z</time></trkpt><trkpt lat="44.1906017" lon="11.34108"><ele>735.6</ele><time>2026-04-18T14:44:25.649Z</time></trkpt><trkpt lat="44.1906017" lon="11.340915"><ele>736.4</ele><time>2026-04-18T14:44:27.648Z</time></trkpt><trkpt lat="44.19065" lon="11.34081"><ele>737.2</ele><time>2026-04-18T14:44:28.648Z</time></trkpt><trkpt lat="44.190695" lon="11.3407017"><ele>738.0</ele><time>2026-04-18T14:44:29.649Z</time></trkpt><trkpt lat="44.19075" lon="11.340585"><ele>736.8</ele><time>2026-04-18T14:44:30.648Z</time></trkpt><trkpt lat="44.1908033" lon="11.3404817"><ele>735.5999999999999</ele><time>2026-04-18T14:44:31.648Z</time></trkpt><trkpt lat="44.1908567" lon="11.3403633"><ele>734.4000000000001</ele><time>2026-04-18T14:44:32.648Z</time></trkpt><trkpt lat="44.1909167" lon="11.3402367"><ele>733.2</ele><time>2026-04-18T14:44:33.649Z</time></trkpt><trkpt lat="44.190995" lon="11.340075"><ele>732.0</ele><time>2026-04-18T14:44:34.648Z</time></trkpt><trkpt lat="44.1910717" lon="11.3398883"><ele>733.0</ele><time>2026-04-18T14:44:35.649Z</time></trkpt><trkpt lat="44.1911483" lon="11.3396983"><ele>734.0</ele><time>2026-04-18T14:44:36.648Z</time></trkpt><trkpt lat="44.1912133" lon="11.3395267"><ele>735.0</ele><time>2026-04-18T14:44:37.648Z</time></trkpt><trkpt lat="44.1912617" lon="11.3393917"><ele>736.0</ele><time>2026-04-18T14:44:38.648Z</time></trkpt><trkpt lat="44.1912933" lon="11.33928"><ele>736.0</ele><time>2026-04-18T14:44:39.649Z</time></trkpt><trkpt lat="44.191325" lon="11.339195"><ele>736.0</ele><time>2026-04-18T14:44:40.649Z</time></trkpt><trkpt lat="44.1914133" lon="11.3391817"><ele>736.0</ele><time>2026-04-18T14:44:43.648Z</time></trkpt><trkpt lat="44.1914667" lon="11.3392317"><ele>736.0</ele><time>2026-04-18T14:44:44.648Z</time></trkpt><trkpt lat="44.1915267" lon="11.3392833"><ele>736.0</ele><time>2026-04-18T14:44:45.648Z</time></trkpt><trkpt lat="44.1916033" lon="11.3393433"><ele>736.0</ele><time>2026-04-18T14:44:46.649Z</time></trkpt><trkpt lat="44.1916967" lon="11.3393983"><ele>735.0</ele><time>2026-04-18T14:44:47.648Z</time></trkpt><trkpt lat="44.1917983" lon="11.3394533"><ele>734.0</ele><time>2026-04-18T14:44:48.649Z</time></trkpt><trkpt lat="44.1918967" lon="11.339505"><ele>733.0</ele><time>2026-04-18T14:44:49.649Z</time></trkpt><trkpt lat="44.1919983" lon="11.3395617"><ele>732.0</ele><time>2026-04-18T14:44:50.648Z</time></trkpt><trkpt lat="44.19211" lon="11.3396167"><ele>731.0</ele><time>2026-04-18T14:44:51.648Z</time></trkpt><trkpt lat="44.19222" lon="11.3396717"><ele>729.0</ele><time>2026-04-18T14:44:52.648Z</time></trkpt><trkpt lat="44.192325" lon="11.3397233"><ele>727.0</ele><time>2026-04-18T14:44:53.649Z</time></trkpt><trkpt lat="44.19244" lon="11.3397783"><ele>725.0</ele><time>2026-04-18T14:44:54.648Z</time></trkpt><trkpt lat="44.1925483" lon="11.3398367"><ele>723.0</ele><time>2026-04-18T14:44:55.649Z</time></trkpt><trkpt lat="44.1926483" lon="11.339915"><ele>721.2</ele><time>2026-04-18T14:44:56.649Z</time></trkpt><trkpt lat="44.192745" lon="11.34"><ele>719.4</ele><time>2026-04-18T14:44:57.648Z</time></trkpt><trkpt lat="44.1928267" lon="11.3401017"><ele>717.6</ele><time>2026-04-18T14:44:58.649Z</time></trkpt><trkpt lat="44.192905" lon="11.3402167"><ele>715.8000000000001</ele><time>2026-04-18T14:44:59.649Z</time></trkpt><trkpt lat="44.1929783" lon="11.34032"><ele>714.0</ele><time>2026-04-18T14:45:00.648Z</time></trkpt><trkpt lat="44.1930567" lon="11.3404217"><ele>714.0</ele><time>2026-04-18T14:45:01.649Z</time></trkpt><trkpt lat="44.1931267" lon="11.3405267"><ele>714.0</ele><time>2026-04-18T14:45:02.648Z</time></trkpt><trkpt lat="44.1932017" lon="11.3406217"><ele>714.0</ele><time>2026-04-18T14:45:03.649Z</time></trkpt><trkpt lat="44.1932783" lon="11.3407233"><ele>714.0</ele><time>2026-04-18T14:45:04.648Z</time></trkpt><trkpt lat="44.1933567" lon="11.3408317"><ele>714.0</ele><time>2026-04-18T14:45:05.648Z</time></trkpt><trkpt lat="44.1934317" lon="11.3409367"><ele>711.8333333333334</ele><time>2026-04-18T14:45:06.648Z</time></trkpt><trkpt lat="44.1935033" lon="11.3410317"><ele>709.6666666666666</ele><time>2026-04-18T14:45:07.648Z</time></trkpt><trkpt lat="44.1935733" lon="11.3411217"><ele>707.5</ele><time>2026-04-18T14:45:08.649Z</time></trkpt><trkpt lat="44.1936283" lon="11.3412217"><ele>705.3333333333333</ele><time>2026-04-18T14:45:09.648Z</time></trkpt><trkpt lat="44.1936817" lon="11.3413067"><ele>703.1666666666666</ele><time>2026-04-18T14:45:10.649Z</time></trkpt><trkpt lat="44.1937283" lon="11.3413883"><ele>701.0</ele><time>2026-04-18T14:45:11.648Z</time></trkpt><trkpt lat="44.1937833" lon="11.341435"><ele>700.8</ele><time>2026-04-18T14:45:12.649Z</time></trkpt><trkpt lat="44.1938483" lon="11.34146"><ele>700.5999999999999</ele><time>2026-04-18T14:45:13.648Z</time></trkpt><trkpt lat="44.1939217" lon="11.3414583"><ele>700.4</ele><time>2026-04-18T14:45:14.649Z</time></trkpt><trkpt lat="44.1940067" lon="11.3414333"><ele>700.2</ele><time>2026-04-18T14:45:15.648Z</time></trkpt><trkpt lat="44.1941067" lon="11.3413983"><ele>700.0</ele><time>2026-04-18T14:45:16.648Z</time></trkpt><trkpt lat="44.1942283" lon="11.3413533"><ele>697.75</ele><time>2026-04-18T14:45:17.648Z</time></trkpt><trkpt lat="44.19436" lon="11.3412967"><ele>695.5</ele><time>2026-04-18T14:45:18.648Z</time></trkpt><trkpt lat="44.1944983" lon="11.3412567"><ele>693.25</ele><time>2026-04-18T14:45:19.649Z</time></trkpt><trkpt lat="44.1946333" lon="11.3412267"><ele>691.0</ele><time>2026-04-18T14:45:20.648Z</time></trkpt><trkpt lat="44.1947833" lon="11.3411867"><ele>688.75</ele><time>2026-04-18T14:45:21.648Z</time></trkpt><trkpt lat="44.1949333" lon="11.341145"><ele>686.5</ele><time>2026-04-18T14:45:22.648Z</time></trkpt><trkpt lat="44.19507" lon="11.3411117"><ele>684.25</ele><time>2026-04-18T14:45:23.648Z</time></trkpt><trkpt lat="44.1951917" lon="11.3410867"><ele>682.0</ele><time>2026-04-18T14:45:24.648Z</time></trkpt><trkpt lat="44.1952917" lon="11.3410683"><ele>682.0</ele><time>2026-04-18T14:45:25.649Z</time></trkpt><trkpt lat="44.1953817" lon="11.3410583"><ele>682.0</ele><time>2026-04-18T14:45:26.648Z</time></trkpt><trkpt lat="44.1954633" lon="11.3410633"><ele>682.0</ele><time>2026-04-18T14:45:27.648Z</time></trkpt><trkpt lat="44.1955533" lon="11.3410717"><ele>682.0</ele><time>2026-04-18T14:45:28.649Z</time></trkpt><trkpt lat="44.1956417" lon="11.3410933"><ele>682.0</ele><time>2026-04-18T14:45:29.648Z</time></trkpt><trkpt lat="44.1957283" lon="11.34112"><ele>682.0</ele><time>2026-04-18T14:45:30.649Z</time></trkpt><trkpt lat="44.1958317" lon="11.3411483"><ele>680.6</ele><time>2026-04-18T14:45:31.648Z</time></trkpt><trkpt lat="44.195925" lon="11.3411717"><ele>679.2</ele><time>2026-04-18T14:45:32.648Z</time></trkpt><trkpt lat="44.1960217" lon="11.3411967"><ele>677.8</ele><time>2026-04-18T14:45:33.648Z</time></trkpt><trkpt lat="44.1961167" lon="11.3412383"><ele>676.4</ele><time>2026-04-18T14:45:34.648Z</time></trkpt><trkpt lat="44.1962283" lon="11.3412733"><ele>675.0</ele><time>2026-04-18T14:45:35.648Z</time></trkpt><trkpt lat="44.1963433" lon="11.3413183"><ele>675.0</ele><time>2026-04-18T14:45:36.649Z</time></trkpt><trkpt lat="44.1964583" lon="11.3413517"><ele>675.0</ele><time>2026-04-18T14:45:37.648Z</time></trkpt><trkpt lat="44.19659" lon="11.3413967"><ele>675.0</ele><time>2026-04-18T14:45:38.648Z</time></trkpt><trkpt lat="44.1967367" lon="11.3414433"><ele>675.0</ele><time>2026-04-18T14:45:39.648Z</time></trkpt><trkpt lat="44.196875" lon="11.3414917"><ele>672.0</ele><time>2026-04-18T14:45:40.648Z</time></trkpt><trkpt lat="44.197" lon="11.3415333"><ele>669.0</ele><time>2026-04-18T14:45:41.648Z</time></trkpt><trkpt lat="44.197125" lon="11.3415617"><ele>666.0</ele><time>2026-04-18T14:45:42.648Z</time></trkpt><trkpt lat="44.1972267" lon="11.3416067"><ele>663.0</ele><time>2026-04-18T14:45:43.648Z</time></trkpt><trkpt lat="44.19732" lon="11.34164"><ele>661.5999999999999</ele><time>2026-04-18T14:45:44.649Z</time></trkpt><trkpt lat="44.1974117" lon="11.3416933"><ele>660.1999999999999</ele><time>2026-04-18T14:45:45.648Z</time></trkpt><trkpt lat="44.1975017" lon="11.3417617"><ele>658.8</ele><time>2026-04-18T14:45:46.649Z</time></trkpt><trkpt lat="44.1975783" lon="11.3418467"><ele>657.4</ele><time>2026-04-18T14:45:47.649Z</time></trkpt><trkpt lat="44.1976433" lon="11.3419333"><ele>656.0</ele><time>2026-04-18T14:45:48.649Z</time></trkpt><trkpt lat="44.1977083" lon="11.3420183"><ele>656.0</ele><time>2026-04-18T14:45:49.649Z</time></trkpt><trkpt lat="44.1977833" lon="11.3420783"><ele>656.0</ele><time>2026-04-18T14:45:50.648Z</time></trkpt><trkpt lat="44.1978717" lon="11.3421267"><ele>656.0</ele><time>2026-04-18T14:45:51.648Z</time></trkpt><trkpt lat="44.1979683" lon="11.3421517"><ele>656.0</ele><time>2026-04-18T14:45:52.649Z</time></trkpt><trkpt lat="44.198065" lon="11.3421633"><ele>656.0</ele><time>2026-04-18T14:45:53.648Z</time></trkpt><trkpt lat="44.1981583" lon="11.342185"><ele>655.5</ele><time>2026-04-18T14:45:54.648Z</time></trkpt><trkpt lat="44.1982517" lon="11.3421967"><ele>655.0</ele><time>2026-04-18T14:45:55.649Z</time></trkpt><trkpt lat="44.198335" lon="11.34222"><ele>654.5</ele><time>2026-04-18T14:45:56.649Z</time></trkpt><trkpt lat="44.1984133" lon="11.342255"><ele>654.0</ele><time>2026-04-18T14:45:57.649Z</time></trkpt><trkpt lat="44.1984933" lon="11.3423083"><ele>653.5</ele><time>2026-04-18T14:45:58.649Z</time></trkpt><trkpt lat="44.1985767" lon="11.342375"><ele>653.0</ele><time>2026-04-18T14:45:59.648Z</time></trkpt><trkpt lat="44.19866" lon="11.3424367"><ele>651.0</ele><time>2026-04-18T14:46:00.649Z</time></trkpt><trkpt lat="44.1987317" lon="11.3425117"><ele>649.0</ele><time>2026-04-18T14:46:01.648Z</time></trkpt><trkpt lat="44.19879" lon="11.3425983"><ele>647.0</ele><time>2026-04-18T14:46:02.648Z</time></trkpt><trkpt lat="44.1988433" lon="11.34266"><ele>645.0</ele><time>2026-04-18T14:46:03.649Z</time></trkpt><trkpt lat="44.1989117" lon="11.342705"><ele>643.0</ele><time>2026-04-18T14:46:04.649Z</time></trkpt><trkpt lat="44.198985" lon="11.3427133"><ele>641.0</ele><time>2026-04-18T14:46:05.649Z</time></trkpt><trkpt lat="44.1990567" lon="11.342715"><ele>640.1999999999999</ele><time>2026-04-18T14:46:06.649Z</time></trkpt><trkpt lat="44.1991317" lon="11.3426983"><ele>639.4</ele><time>2026-04-18T14:46:07.649Z</time></trkpt><trkpt lat="44.1992267" lon="11.34267"><ele>638.6</ele><time>2026-04-18T14:46:08.648Z</time></trkpt><trkpt lat="44.1993083" lon="11.3426367"><ele>637.8</ele><time>2026-04-18T14:46:09.647Z</time></trkpt><trkpt lat="44.1994033" lon="11.342625"><ele>637.0</ele><time>2026-04-18T14:46:10.647Z</time></trkpt><trkpt lat="44.1995" lon="11.3426267"><ele>637.0</ele><time>2026-04-18T14:46:11.647Z</time></trkpt><trkpt lat="44.1995967" lon="11.3426483"><ele>637.0</ele><time>2026-04-18T14:46:12.647Z</time></trkpt><trkpt lat="44.1996917" lon="11.3426983"><ele>637.0</ele><time>2026-04-18T14:46:13.648Z</time></trkpt><trkpt lat="44.1997867" lon="11.342755"><ele>637.0</ele><time>2026-04-18T14:46:14.647Z</time></trkpt><trkpt lat="44.1998817" lon="11.3428033"><ele>637.0</ele><time>2026-04-18T14:46:15.647Z</time></trkpt><trkpt lat="44.1999617" lon="11.3428683"><ele>634.8333333333334</ele><time>2026-04-18T14:46:16.648Z</time></trkpt><trkpt lat="44.2000417" lon="11.34293"><ele>632.6666666666667</ele><time>2026-04-18T14:46:17.648Z</time></trkpt><trkpt lat="44.2001217" lon="11.3429767"><ele>630.5</ele><time>2026-04-18T14:46:18.648Z</time></trkpt><trkpt lat="44.2002017" lon="11.3429983"><ele>628.3333333333334</ele><time>2026-04-18T14:46:19.647Z</time></trkpt><trkpt lat="44.2002817" lon="11.3429867"><ele>626.1666666666666</ele><time>2026-04-18T14:46:20.648Z</time></trkpt><trkpt lat="44.2003517" lon="11.3429483"><ele>624.0</ele><time>2026-04-18T14:46:21.648Z</time></trkpt><trkpt lat="44.2004133" lon="11.3428767"><ele>624.0</ele><time>2026-04-18T14:46:22.647Z</time></trkpt><trkpt lat="44.2004667" lon="11.3427767"><ele>624.0</ele><time>2026-04-18T14:46:23.647Z</time></trkpt><trkpt lat="44.2005183" lon="11.3426467"><ele>624.0</ele><time>2026-04-18T14:46:24.646Z</time></trkpt><trkpt lat="44.20057" lon="11.34252"><ele>624.0</ele><time>2026-04-18T14:46:25.647Z</time></trkpt><trkpt lat="44.2006283" lon="11.3424133"><ele>624.0</ele><time>2026-04-18T14:46:26.648Z</time></trkpt><trkpt lat="44.2006933" lon="11.3423267"><ele>622.1666666666666</ele><time>2026-04-18T14:46:27.648Z</time></trkpt><trkpt lat="44.2007617" lon="11.3422733"><ele>620.3333333333334</ele><time>2026-04-18T14:46:28.648Z</time></trkpt><trkpt lat="44.2008317" lon="11.342245"><ele>618.5</ele><time>2026-04-18T14:46:29.647Z</time></trkpt><trkpt lat="44.2009067" lon="11.342235"><ele>616.6666666666667</ele><time>2026-04-18T14:46:30.647Z</time></trkpt><trkpt lat="44.2009933" lon="11.34224"><ele>614.8333333333334</ele><time>2026-04-18T14:46:31.647Z</time></trkpt><trkpt lat="44.2010817" lon="11.3422683"><ele>613.0</ele><time>2026-04-18T14:46:32.647Z</time></trkpt><trkpt lat="44.2011667" lon="11.342295"><ele>613.0</ele><time>2026-04-18T14:46:33.647Z</time></trkpt><trkpt lat="44.2012433" lon="11.342325"><ele>613.0</ele><time>2026-04-18T14:46:34.647Z</time></trkpt><trkpt lat="44.2013183" lon="11.34236"><ele>613.0</ele><time>2026-04-18T14:46:35.648Z</time></trkpt><trkpt lat="44.20138" lon="11.3423883"><ele>613.0</ele><time>2026-04-18T14:46:36.648Z</time></trkpt><trkpt lat="44.201455" lon="11.342415"><ele>613.0</ele><time>2026-04-18T14:46:37.648Z</time></trkpt><trkpt lat="44.2015317" lon="11.34243"><ele>613.0</ele><time>2026-04-18T14:46:38.648Z</time></trkpt><trkpt lat="44.201625" lon="11.3424233"><ele>611.6666666666667</ele><time>2026-04-18T14:46:39.648Z</time></trkpt><trkpt lat="44.2016983" lon="11.3423983"><ele>610.3333333333334</ele><time>2026-04-18T14:46:40.647Z</time></trkpt><trkpt lat="44.2017617" lon="11.3423333"><ele>609.0</ele><time>2026-04-18T14:46:41.648Z</time></trkpt><trkpt lat="44.2018067" lon="11.3422383"><ele>607.6666666666666</ele><time>2026-04-18T14:46:42.647Z</time></trkpt><trkpt lat="44.2018417" lon="11.3421517"><ele>606.3333333333333</ele><time>2026-04-18T14:46:43.647Z</time></trkpt><trkpt lat="44.2018767" lon="11.3420617"><ele>605.0</ele><time>2026-04-18T14:46:44.647Z</time></trkpt><trkpt lat="44.2019783" lon="11.3420183"><ele>605.0</ele><time>2026-04-18T14:46:46.647Z</time></trkpt><trkpt lat="44.202045" lon="11.3420433"><ele>605.0</ele><time>2026-04-18T14:46:47.648Z</time></trkpt><trkpt lat="44.20211" lon="11.3420933"><ele>605.0</ele><time>2026-04-18T14:46:48.648Z</time></trkpt><trkpt lat="44.2021917" lon="11.342145"><ele>605.0</ele><time>2026-04-18T14:46:49.647Z</time></trkpt><trkpt lat="44.2022783" lon="11.3422017"><ele>605.0</ele><time>2026-04-18T14:46:50.647Z</time></trkpt><trkpt lat="44.2023767" lon="11.3422583"><ele>605.0</ele><time>2026-04-18T14:46:51.647Z</time></trkpt><trkpt lat="44.2024583" lon="11.3422967"><ele>600.8</ele><time>2026-04-18T14:46:52.648Z</time></trkpt><trkpt lat="44.202545" lon="11.3423183"><ele>596.6</ele><time>2026-04-18T14:46:53.648Z</time></trkpt><trkpt lat="44.2026383" lon="11.3423283"><ele>592.4</ele><time>2026-04-18T14:46:54.648Z</time></trkpt><trkpt lat="44.2027267" lon="11.3423283"><ele>588.2</ele><time>2026-04-18T14:46:55.647Z</time></trkpt><trkpt lat="44.2028183" lon="11.3423233"><ele>584.0</ele><time>2026-04-18T14:46:56.647Z</time></trkpt><trkpt lat="44.2029133" lon="11.34233"><ele>584.0</ele><time>2026-04-18T14:46:57.647Z</time></trkpt><trkpt lat="44.2030083" lon="11.34233"><ele>584.0</ele><time>2026-04-18T14:46:58.647Z</time></trkpt><trkpt lat="44.2031017" lon="11.3423383"><ele>584.0</ele><time>2026-04-18T14:46:59.648Z</time></trkpt><trkpt lat="44.2031883" lon="11.342355"><ele>584.0</ele><time>2026-04-18T14:47:00.647Z</time></trkpt><trkpt lat="44.2032717" lon="11.3423767"><ele>584.0</ele><time>2026-04-18T14:47:01.647Z</time></trkpt><trkpt lat="44.20336" lon="11.3423917"><ele>582.1666666666666</ele><time>2026-04-18T14:47:02.647Z</time></trkpt><trkpt lat="44.2034533" lon="11.3424117"><ele>580.3333333333333</ele><time>2026-04-18T14:47:03.647Z</time></trkpt><trkpt lat="44.20353" lon="11.3423983"><ele>578.5</ele><time>2026-04-18T14:47:04.648Z</time></trkpt><trkpt lat="44.2036017" lon="11.3423833"><ele>576.6666666666666</ele><time>2026-04-18T14:47:05.647Z</time></trkpt><trkpt lat="44.203715" lon="11.3424317"><ele>574.8333333333334</ele><time>2026-04-18T14:47:07.647Z</time></trkpt><trkpt lat="44.2037717" lon="11.3424933"><ele>573.0</ele><time>2026-04-18T14:47:08.648Z</time></trkpt><trkpt lat="44.2038167" lon="11.3425633"><ele>573.0</ele><time>2026-04-18T14:47:09.647Z</time></trkpt><trkpt lat="44.2038683" lon="11.3426283"><ele>573.0</ele><time>2026-04-18T14:47:10.647Z</time></trkpt><trkpt lat="44.2039483" lon="11.3426833"><ele>573.0</ele><time>2026-04-18T14:47:11.647Z</time></trkpt><trkpt lat="44.2040383" lon="11.3427383"><ele>573.0</ele><time>2026-04-18T14:47:12.647Z</time></trkpt><trkpt lat="44.2041233" lon="11.3428067"><ele>573.0</ele><time>2026-04-18T14:47:13.647Z</time></trkpt><trkpt lat="44.2042083" lon="11.342875"><ele>570.6</ele><time>2026-04-18T14:47:14.648Z</time></trkpt><trkpt lat="44.2043017" lon="11.3429333"><ele>568.1999999999999</ele><time>2026-04-18T14:47:15.648Z</time></trkpt><trkpt lat="44.20439" lon="11.3430033"><ele>565.8</ele><time>2026-04-18T14:47:16.647Z</time></trkpt><trkpt lat="44.2044867" lon="11.3430583"><ele>563.4</ele><time>2026-04-18T14:47:17.647Z</time></trkpt><trkpt lat="44.2045783" lon="11.3431333"><ele>561.0</ele><time>2026-04-18T14:47:18.647Z</time></trkpt><trkpt lat="44.204665" lon="11.3432083"><ele>561.0</ele><time>2026-04-18T14:47:19.647Z</time></trkpt><trkpt lat="44.2047483" lon="11.343275"><ele>561.0</ele><time>2026-04-18T14:47:20.648Z</time></trkpt><trkpt lat="44.2048233" lon="11.3433617"><ele>561.0</ele><time>2026-04-18T14:47:21.647Z</time></trkpt><trkpt lat="44.20489" lon="11.3434683"><ele>561.0</ele><time>2026-04-18T14:47:22.647Z</time></trkpt><trkpt lat="44.20495" lon="11.3435783"><ele>561.0</ele><time>2026-04-18T14:47:23.648Z</time></trkpt><trkpt lat="44.205015" lon="11.3436767"><ele>557.8</ele><time>2026-04-18T14:47:24.647Z</time></trkpt><trkpt lat="44.2050783" lon="11.3437733"><ele>554.6</ele><time>2026-04-18T14:47:25.647Z</time></trkpt><trkpt lat="44.205125" lon="11.34389"><ele>551.4</ele><time>2026-04-18T14:47:26.647Z</time></trkpt><trkpt lat="44.2051683" lon="11.3440033"><ele>548.2</ele><time>2026-04-18T14:47:27.647Z</time></trkpt><trkpt lat="44.2052067" lon="11.3441117"><ele>545.0</ele><time>2026-04-18T14:47:28.648Z</time></trkpt><trkpt lat="44.205235" lon="11.3442383"><ele>544.75</ele><time>2026-04-18T14:47:29.648Z</time></trkpt><trkpt lat="44.2052617" lon="11.344385"><ele>544.5</ele><time>2026-04-18T14:47:30.647Z</time></trkpt><trkpt lat="44.2052883" lon="11.3445333"><ele>544.25</ele><time>2026-04-18T14:47:31.647Z</time></trkpt><trkpt lat="44.205325" lon="11.3447"><ele>544.0</ele><time>2026-04-18T14:47:32.647Z</time></trkpt><trkpt lat="44.2053817" lon="11.344885"><ele>544.0</ele><time>2026-04-18T14:47:33.648Z</time></trkpt><trkpt lat="44.205435" lon="11.3450433"><ele>544.0</ele><time>2026-04-18T14:47:34.647Z</time></trkpt><trkpt lat="44.2054633" lon="11.345185"><ele>544.0</ele><time>2026-04-18T14:47:35.647Z</time></trkpt><trkpt lat="44.205455" lon="11.3453133"><ele>544.0</ele><time>2026-04-18T14:47:36.647Z</time></trkpt><trkpt lat="44.20544" lon="11.3454217"><ele>544.0</ele><time>2026-04-18T14:47:37.648Z</time></trkpt><trkpt lat="44.20549" lon="11.3455533"><ele>545.8</ele><time>2026-04-18T14:47:39.647Z</time></trkpt><trkpt lat="44.2055633" lon="11.3455867"><ele>547.5999999999999</ele><time>2026-04-18T14:47:40.647Z</time></trkpt><trkpt lat="44.2056467" lon="11.3456183"><ele>549.4</ele><time>2026-04-18T14:47:41.647Z</time></trkpt><trkpt lat="44.2057467" lon="11.345655"><ele>551.1999999999999</ele><time>2026-04-18T14:47:42.648Z</time></trkpt><trkpt lat="44.2058733" lon="11.3456683"><ele>553.0</ele><time>2026-04-18T14:47:43.647Z</time></trkpt><trkpt lat="44.206015" lon="11.3456583"><ele>553.0</ele><time>2026-04-18T14:47:44.648Z</time></trkpt><trkpt lat="44.206155" lon="11.3456417"><ele>553.0</ele><time>2026-04-18T14:47:45.648Z</time></trkpt><trkpt lat="44.2063083" lon="11.345635"><ele>553.0</ele><time>2026-04-18T14:47:46.647Z</time></trkpt><trkpt lat="44.2064517" lon="11.3456217"><ele>553.0</ele><time>2026-04-18T14:47:47.647Z</time></trkpt><trkpt lat="44.2065783" lon="11.3456333"><ele>553.25</ele><time>2026-04-18T14:47:48.648Z</time></trkpt><trkpt lat="44.2067117" lon="11.3456317"><ele>553.5</ele><time>2026-04-18T14:47:49.647Z</time></trkpt><trkpt lat="44.2068283" lon="11.3456383"><ele>553.75</ele><time>2026-04-18T14:47:50.648Z</time></trkpt><trkpt lat="44.2069317" lon="11.345645"><ele>554.0</ele><time>2026-04-18T14:47:51.648Z</time></trkpt><trkpt lat="44.2070383" lon="11.34562"><ele>554.0</ele><time>2026-04-18T14:47:52.648Z</time></trkpt><trkpt lat="44.2071433" lon="11.3455867"><ele>554.0</ele><time>2026-04-18T14:47:53.648Z</time></trkpt><trkpt lat="44.207255" lon="11.345525"><ele>554.0</ele><time>2026-04-18T14:47:54.647Z</time></trkpt><trkpt lat="44.207365" lon="11.34547"><ele>554.0</ele><time>2026-04-18T14:47:55.648Z</time></trkpt><trkpt lat="44.2074633" lon="11.34542"><ele>554.0</ele><time>2026-04-18T14:47:56.647Z</time></trkpt><trkpt lat="44.2075567" lon="11.3453933"><ele>554.6</ele><time>2026-04-18T14:47:57.648Z</time></trkpt><trkpt lat="44.20765" lon="11.3453833"><ele>555.2</ele><time>2026-04-18T14:47:58.647Z</time></trkpt><trkpt lat="44.2077433" lon="11.3454"><ele>555.8000000000001</ele><time>2026-04-18T14:47:59.647Z</time></trkpt><trkpt lat="44.2078267" lon="11.3454467"><ele>556.4</ele><time>2026-04-18T14:48:00.648Z</time></trkpt><trkpt lat="44.2079067" lon="11.3455217"><ele>557.0</ele><time>2026-04-18T14:48:01.648Z</time></trkpt><trkpt lat="44.2079917" lon="11.345635"><ele>557.0</ele><time>2026-04-18T14:48:02.647Z</time></trkpt><trkpt lat="44.2080733" lon="11.34576"><ele>557.0</ele><time>2026-04-18T14:48:03.647Z</time></trkpt><trkpt lat="44.20813" lon="11.345865"><ele>557.0</ele><time>2026-04-18T14:48:04.647Z</time></trkpt><trkpt lat="44.20818" lon="11.3459683"><ele>557.0</ele><time>2026-04-18T14:48:05.647Z</time></trkpt><trkpt lat="44.2082117" lon="11.3460883"><ele>557.0</ele><time>2026-04-18T14:48:06.648Z</time></trkpt><trkpt lat="44.2082333" lon="11.34621"><ele>557.5714285714286</ele><time>2026-04-18T14:48:07.647Z</time></trkpt><trkpt lat="44.2082367" lon="11.34634"><ele>558.1428571428571</ele><time>2026-04-18T14:48:08.647Z</time></trkpt><trkpt lat="44.20825" lon="11.3464533"><ele>558.7142857142857</ele><time>2026-04-18T14:48:09.648Z</time></trkpt><trkpt lat="44.2082833" lon="11.3465283"><ele>559.2857142857142</ele><time>2026-04-18T14:48:10.647Z</time></trkpt><trkpt lat="44.2083433" lon="11.3465583"><ele>559.8571428571428</ele><time>2026-04-18T14:48:11.647Z</time></trkpt><trkpt lat="44.2084133" lon="11.346565"><ele>560.4285714285714</ele><time>2026-04-18T14:48:12.647Z</time></trkpt><trkpt lat="44.2084817" lon="11.346565"><ele>561.0</ele><time>2026-04-18T14:48:13.647Z</time></trkpt><trkpt lat="44.2085483" lon="11.346565"><ele>561.0</ele><time>2026-04-18T14:48:14.648Z</time></trkpt><trkpt lat="44.208625" lon="11.34657"><ele>561.0</ele><time>2026-04-18T14:48:16.647Z</time></trkpt><trkpt lat="44.2087333" lon="11.34654"><ele>561.0</ele><time>2026-04-18T14:48:18.648Z</time></trkpt><trkpt lat="44.208825" lon="11.3465117"><ele>561.0</ele><time>2026-04-18T14:48:19.647Z</time></trkpt><trkpt lat="44.2089217" lon="11.3464767"><ele>561.0</ele><time>2026-04-18T14:48:20.648Z</time></trkpt><trkpt lat="44.2090117" lon="11.3464333"><ele>560.2</ele><time>2026-04-18T14:48:21.647Z</time></trkpt><trkpt lat="44.2090983" lon="11.3464067"><ele>559.4000000000001</ele><time>2026-04-18T14:48:22.648Z</time></trkpt><trkpt lat="44.2091983" lon="11.3464"><ele>558.6</ele><time>2026-04-18T14:48:23.648Z</time></trkpt><trkpt lat="44.2093017" lon="11.346425"><ele>557.8000000000001</ele><time>2026-04-18T14:48:24.647Z</time></trkpt><trkpt lat="44.2094" lon="11.3464883"><ele>557.0</ele><time>2026-04-18T14:48:25.647Z</time></trkpt><trkpt lat="44.2094883" lon="11.3465533"><ele>557.0</ele><time>2026-04-18T14:48:26.648Z</time></trkpt><trkpt lat="44.2095567" lon="11.3466417"><ele>557.0</ele><time>2026-04-18T14:48:27.648Z</time></trkpt><trkpt lat="44.209605" lon="11.3467083"><ele>557.0</ele><time>2026-04-18T14:48:28.648Z</time></trkpt><trkpt lat="44.2096833" lon="11.34678"><ele>557.0</ele><time>2026-04-18T14:48:30.648Z</time></trkpt><trkpt lat="44.209635" lon="11.3468383"><ele>557.0</ele><time>2026-04-18T14:48:33.648Z</time></trkpt><trkpt lat="44.2095617" lon="11.346845"><ele>557.0</ele><time>2026-04-18T14:48:35.647Z</time></trkpt><trkpt lat="44.20949" lon="11.34694"><ele>557.0</ele><time>2026-04-18T14:48:37.647Z</time></trkpt><trkpt lat="44.2094533" lon="11.3470233"><ele>557.0</ele><time>2026-04-18T14:48:38.648Z</time></trkpt><trkpt lat="44.20941" lon="11.3471167"><ele>557.0</ele><time>2026-04-18T14:48:39.648Z</time></trkpt><trkpt lat="44.2093583" lon="11.3471967"><ele>557.0</ele><time>2026-04-18T14:48:40.648Z</time></trkpt><trkpt lat="44.2092967" lon="11.3472817"><ele>557.0</ele><time>2026-04-18T14:48:41.647Z</time></trkpt><trkpt lat="44.20924" lon="11.3473567"><ele>557.0</ele><time>2026-04-18T14:48:42.648Z</time></trkpt><trkpt lat="44.20918" lon="11.3474033"><ele>559.2</ele><time>2026-04-18T14:48:43.648Z</time></trkpt><trkpt lat="44.20907" lon="11.3474033"><ele>561.4000000000001</ele><time>2026-04-18T14:48:45.647Z</time></trkpt><trkpt lat="44.2090083" lon="11.3474367"><ele>563.5999999999999</ele><time>2026-04-18T14:48:47.647Z</time></trkpt><trkpt lat="44.208985" lon="11.3475533"><ele>565.8</ele><time>2026-04-18T14:48:49.647Z</time></trkpt><trkpt lat="44.2089717" lon="11.3477317"><ele>568.0</ele><time>2026-04-18T14:48:51.647Z</time></trkpt><trkpt lat="44.2089617" lon="11.34785"><ele>568.0</ele><time>2026-04-18T14:48:52.647Z</time></trkpt><trkpt lat="44.2089533" lon="11.34798"><ele>568.0</ele><time>2026-04-18T14:48:53.647Z</time></trkpt><trkpt lat="44.2089433" lon="11.3481067"><ele>568.0</ele><time>2026-04-18T14:48:54.647Z</time></trkpt><trkpt lat="44.2089267" lon="11.3482183"><ele>568.0</ele><time>2026-04-18T14:48:55.647Z</time></trkpt><trkpt lat="44.2089117" lon="11.3483217"><ele>568.0</ele><time>2026-04-18T14:48:56.648Z</time></trkpt><trkpt lat="44.208885" lon="11.348425"><ele>568.0</ele><time>2026-04-18T14:48:57.647Z</time></trkpt><trkpt lat="44.2088483" lon="11.3485217"><ele>570.8</ele><time>2026-04-18T14:48:58.647Z</time></trkpt><trkpt lat="44.2088017" lon="11.34859"><ele>573.5999999999999</ele><time>2026-04-18T14:48:59.647Z</time></trkpt><trkpt lat="44.20876" lon="11.3487267"><ele>576.4000000000001</ele><time>2026-04-18T14:49:01.647Z</time></trkpt><trkpt lat="44.2087783" lon="11.3489033"><ele>579.2</ele><time>2026-04-18T14:49:03.647Z</time></trkpt><trkpt lat="44.2088183" lon="11.3490317"><ele>582.0</ele><time>2026-04-18T14:49:04.647Z</time></trkpt><trkpt lat="44.20885" lon="11.3491733"><ele>585.0</ele><time>2026-04-18T14:49:05.648Z</time></trkpt><trkpt lat="44.208875" lon="11.349325"><ele>588.0</ele><time>2026-04-18T14:49:06.648Z</time></trkpt><trkpt lat="44.208895" lon="11.349465"><ele>591.0</ele><time>2026-04-18T14:49:07.647Z</time></trkpt><trkpt lat="44.2089083" lon="11.3495817"><ele>594.0</ele><time>2026-04-18T14:49:08.647Z</time></trkpt><trkpt lat="44.2088983" lon="11.3496967"><ele>597.0</ele><time>2026-04-18T14:49:09.648Z</time></trkpt><trkpt lat="44.208855" lon="11.3497967"><ele>599.8000000000001</ele><time>2026-04-18T14:49:11.647Z</time></trkpt><trkpt lat="44.2087983" lon="11.3498767"><ele>602.6</ele><time>2026-04-18T14:49:19.647Z</time></trkpt><trkpt lat="44.2087883" lon="11.3500117"><ele>605.4000000000001</ele><time>2026-04-18T14:49:22.647Z</time></trkpt><trkpt lat="44.2087717" lon="11.35018"><ele>608.2</ele><time>2026-04-18T14:49:24.647Z</time></trkpt><trkpt lat="44.208765" lon="11.35028"><ele>611.0</ele><time>2026-04-18T14:49:25.648Z</time></trkpt><trkpt lat="44.208755" lon="11.3503967"><ele>611.0</ele><time>2026-04-18T14:49:26.647Z</time></trkpt><trkpt lat="44.2087483" lon="11.3505117"><ele>611.0</ele><time>2026-04-18T14:49:27.648Z</time></trkpt><trkpt lat="44.20875" lon="11.35065"><ele>611.0</ele><time>2026-04-18T14:49:28.646Z</time></trkpt><trkpt lat="44.20877" lon="11.3507883"><ele>611.0</ele><time>2026-04-18T14:49:29.647Z</time></trkpt><trkpt lat="44.2088083" lon="11.3509233"><ele>611.0</ele><time>2026-04-18T14:49:30.647Z</time></trkpt><trkpt lat="44.2088667" lon="11.351045"><ele>612.8</ele><time>2026-04-18T14:49:31.647Z</time></trkpt><trkpt lat="44.208935" lon="11.3511567"><ele>614.6</ele><time>2026-04-18T14:49:32.647Z</time></trkpt><trkpt lat="44.2090167" lon="11.3512467"><ele>616.4</ele><time>2026-04-18T14:49:33.647Z</time></trkpt><trkpt lat="44.2091167" lon="11.3513267"><ele>618.2</ele><time>2026-04-18T14:49:34.647Z</time></trkpt><trkpt lat="44.2092333" lon="11.3513767"><ele>620.0</ele><time>2026-04-18T14:49:35.646Z</time></trkpt><trkpt lat="44.209355" lon="11.3514117"><ele>620.25</ele><time>2026-04-18T14:49:36.646Z</time></trkpt><trkpt lat="44.2094783" lon="11.35142"><ele>620.5</ele><time>2026-04-18T14:49:37.647Z</time></trkpt><trkpt lat="44.2095917" lon="11.351415"><ele>620.75</ele><time>2026-04-18T14:49:38.647Z</time></trkpt><trkpt lat="44.2096967" lon="11.3513967"><ele>621.0</ele><time>2026-04-18T14:49:39.647Z</time></trkpt><trkpt lat="44.209805" lon="11.351385"><ele>620.0</ele><time>2026-04-18T14:49:40.646Z</time></trkpt><trkpt lat="44.2099217" lon="11.3513917"><ele>619.0</ele><time>2026-04-18T14:49:41.646Z</time></trkpt><trkpt lat="44.2100383" lon="11.3514217"><ele>618.0</ele><time>2026-04-18T14:49:42.646Z</time></trkpt><trkpt lat="44.2101567" lon="11.3514833"><ele>617.0</ele><time>2026-04-18T14:49:43.646Z</time></trkpt><trkpt lat="44.2102683" lon="11.351585"><ele>617.0</ele><time>2026-04-18T14:49:44.646Z</time></trkpt><trkpt lat="44.2103533" lon="11.35171"><ele>617.0</ele><time>2026-04-18T14:49:45.647Z</time></trkpt><trkpt lat="44.2104083" lon="11.3518867"><ele>617.0</ele><time>2026-04-18T14:49:46.647Z</time></trkpt><trkpt lat="44.2104283" lon="11.35208"><ele>617.0</ele><time>2026-04-18T14:49:47.646Z</time></trkpt><trkpt lat="44.2104233" lon="11.3522717"><ele>618.5</ele><time>2026-04-18T14:49:48.646Z</time></trkpt><trkpt lat="44.21038" lon="11.352455"><ele>620.0</ele><time>2026-04-18T14:49:49.647Z</time></trkpt><trkpt lat="44.2103183" lon="11.3526117"><ele>621.5</ele><time>2026-04-18T14:49:50.646Z</time></trkpt><trkpt lat="44.2102367" lon="11.35275"><ele>623.0</ele><time>2026-04-18T14:49:51.646Z</time></trkpt><trkpt lat="44.2101333" lon="11.35288"><ele>623.0</ele><time>2026-04-18T14:49:52.646Z</time></trkpt><trkpt lat="44.210005" lon="11.3529983"><ele>623.0</ele><time>2026-04-18T14:49:53.646Z</time></trkpt><trkpt lat="44.2098817" lon="11.35311"><ele>623.0</ele><time>2026-04-18T14:49:54.647Z</time></trkpt><trkpt lat="44.20978" lon="11.3532417"><ele>623.0</ele><time>2026-04-18T14:49:55.646Z</time></trkpt><trkpt lat="44.2097183" lon="11.3533983"><ele>625.75</ele><time>2026-04-18T14:49:56.646Z</time></trkpt><trkpt lat="44.2097" lon="11.3535617"><ele>628.5</ele><time>2026-04-18T14:49:57.646Z</time></trkpt><trkpt lat="44.2097083" lon="11.3537367"><ele>631.25</ele><time>2026-04-18T14:49:58.647Z</time></trkpt><trkpt lat="44.209745" lon="11.3539"><ele>634.0</ele><time>2026-04-18T14:49:59.646Z</time></trkpt><trkpt lat="44.2098067" lon="11.35405"><ele>631.5</ele><time>2026-04-18T14:50:00.646Z</time></trkpt><trkpt lat="44.2098817" lon="11.35419"><ele>629.0</ele><time>2026-04-18T14:50:01.646Z</time></trkpt><trkpt lat="44.20996" lon="11.3543217"><ele>626.5</ele><time>2026-04-18T14:50:02.646Z</time></trkpt><trkpt lat="44.2100417" lon="11.3544533"><ele>624.0</ele><time>2026-04-18T14:50:03.647Z</time></trkpt><trkpt lat="44.2101233" lon="11.3545833"><ele>626.25</ele><time>2026-04-18T14:50:04.647Z</time></trkpt><trkpt lat="44.2102" lon="11.3547133"><ele>628.5</ele><time>2026-04-18T14:50:05.646Z</time></trkpt><trkpt lat="44.2102733" lon="11.3548483"><ele>630.75</ele><time>2026-04-18T14:50:06.646Z</time></trkpt><trkpt lat="44.2103317" lon="11.355005"><ele>633.0</ele><time>2026-04-18T14:50:07.646Z</time></trkpt><trkpt lat="44.2103817" lon="11.355175"><ele>633.0</ele><time>2026-04-18T14:50:08.647Z</time></trkpt><trkpt lat="44.21041" lon="11.35537"><ele>633.0</ele><time>2026-04-18T14:50:09.647Z</time></trkpt><trkpt lat="44.2104217" lon="11.3555567"><ele>633.0</ele><time>2026-04-18T14:50:10.646Z</time></trkpt><trkpt lat="44.210435" lon="11.3557467"><ele>633.0</ele><time>2026-04-18T14:50:11.646Z</time></trkpt><trkpt lat="44.2104567" lon="11.3559433"><ele>635.6666666666666</ele><time>2026-04-18T14:50:12.647Z</time></trkpt><trkpt lat="44.2105017" lon="11.3561483"><ele>638.3333333333333</ele><time>2026-04-18T14:50:13.646Z</time></trkpt><trkpt lat="44.210565" lon="11.35635"><ele>641.0</ele><time>2026-04-18T14:50:14.646Z</time></trkpt><trkpt lat="44.210645" lon="11.35655"><ele>640.5</ele><time>2026-04-18T14:50:15.647Z</time></trkpt><trkpt lat="44.2107183" lon="11.3567483"><ele>640.0</ele><time>2026-04-18T14:50:16.646Z</time></trkpt><trkpt lat="44.21078" lon="11.3569433"><ele>639.5</ele><time>2026-04-18T14:50:17.646Z</time></trkpt><trkpt lat="44.2108367" lon="11.3571033"><ele>639.0</ele><time>2026-04-18T14:50:18.646Z</time></trkpt><trkpt lat="44.2108833" lon="11.3572467"><ele>642.0</ele><time>2026-04-18T14:50:19.646Z</time></trkpt><trkpt lat="44.2109583" lon="11.3573733"><ele>645.0</ele><time>2026-04-18T14:50:20.647Z</time></trkpt><trkpt lat="44.2110417" lon="11.357475"><ele>648.0</ele><time>2026-04-18T14:50:21.646Z</time></trkpt><trkpt lat="44.2111533" lon="11.3575333"><ele>651.0</ele><time>2026-04-18T14:50:22.646Z</time></trkpt><trkpt lat="44.2112783" lon="11.357555"><ele>651.0</ele><time>2026-04-18T14:50:23.646Z</time></trkpt><trkpt lat="44.2114" lon="11.3575717"><ele>651.0</ele><time>2026-04-18T14:50:24.646Z</time></trkpt><trkpt lat="44.2115383" lon="11.3575733"><ele>651.0</ele><time>2026-04-18T14:50:25.647Z</time></trkpt><trkpt lat="44.2116717" lon="11.357615"><ele>651.0</ele><time>2026-04-18T14:50:26.646Z</time></trkpt><trkpt lat="44.21179" lon="11.35768"><ele>650.5</ele><time>2026-04-18T14:50:27.646Z</time></trkpt><trkpt lat="44.21187" lon="11.3578133"><ele>650.0</ele><time>2026-04-18T14:50:28.646Z</time></trkpt><trkpt lat="44.2119417" lon="11.3579717"><ele>649.5</ele><time>2026-04-18T14:50:29.646Z</time></trkpt><trkpt lat="44.2119933" lon="11.3581483"><ele>649.0</ele><time>2026-04-18T14:50:30.646Z</time></trkpt><trkpt lat="44.212015" lon="11.3583233"><ele>652.0</ele><time>2026-04-18T14:50:31.647Z</time></trkpt><trkpt lat="44.2120383" lon="11.358495"><ele>655.0</ele><time>2026-04-18T14:50:32.646Z</time></trkpt><trkpt lat="44.21206" lon="11.358675"><ele>658.0</ele><time>2026-04-18T14:50:33.646Z</time></trkpt><trkpt lat="44.2120867" lon="11.3588483"><ele>661.0</ele><time>2026-04-18T14:50:34.647Z</time></trkpt><trkpt lat="44.2121183" lon="11.3590067"><ele>660.25</ele><time>2026-04-18T14:50:35.646Z</time></trkpt><trkpt lat="44.212165" lon="11.3591633"><ele>659.5</ele><time>2026-04-18T14:50:36.646Z</time></trkpt><trkpt lat="44.212235" lon="11.3593"><ele>658.75</ele><time>2026-04-18T14:50:37.647Z</time></trkpt><trkpt lat="44.2123233" lon="11.3594167"><ele>658.0</ele><time>2026-04-18T14:50:38.647Z</time></trkpt><trkpt lat="44.21237" lon="11.359545"><ele>658.0</ele><time>2026-04-18T14:50:39.647Z</time></trkpt><trkpt lat="44.2123933" lon="11.3596567"><ele>658.0</ele><time>2026-04-18T14:50:40.646Z</time></trkpt><trkpt lat="44.2123867" lon="11.3597517"><ele>658.0</ele><time>2026-04-18T14:50:41.646Z</time></trkpt><trkpt lat="44.2123367" lon="11.3598783"><ele>658.0</ele><time>2026-04-18T14:50:43.646Z</time></trkpt><trkpt lat="44.2122967" lon="11.3599633"><ele>658.0</ele><time>2026-04-18T14:50:45.646Z</time></trkpt><trkpt lat="44.2122717" lon="11.3600683"><ele>658.0</ele><time>2026-04-18T14:50:47.646Z</time></trkpt><trkpt lat="44.2122317" lon="11.3602167"><ele>661.6666666666667</ele><time>2026-04-18T14:50:49.646Z</time></trkpt><trkpt lat="44.212205" lon="11.3603017"><ele>665.3333333333334</ele><time>2026-04-18T14:50:50.646Z</time></trkpt><trkpt lat="44.2121767" lon="11.3604"><ele>669.0</ele><time>2026-04-18T14:50:51.646Z</time></trkpt><trkpt lat="44.2121467" lon="11.3604817"><ele>672.6666666666666</ele><time>2026-04-18T14:50:52.647Z</time></trkpt><trkpt lat="44.2121217" lon="11.3606117"><ele>676.3333333333333</ele><time>2026-04-18T14:50:54.646Z</time></trkpt><trkpt lat="44.212175" lon="11.3606617"><ele>680.0</ele><time>2026-04-18T14:50:56.646Z</time></trkpt><trkpt lat="44.21229" lon="11.3606633"><ele>679.0</ele><time>2026-04-18T14:50:58.646Z</time></trkpt><trkpt lat="44.2123667" lon="11.36067"><ele>678.0</ele><time>2026-04-18T14:50:59.647Z</time></trkpt><trkpt lat="44.212455" lon="11.360695"><ele>677.0</ele><time>2026-04-18T14:51:00.646Z</time></trkpt><trkpt lat="44.2125467" lon="11.3607383"><ele>676.0</ele><time>2026-04-18T14:51:01.647Z</time></trkpt><trkpt lat="44.2126367" lon="11.36079"><ele>675.0</ele><time>2026-04-18T14:51:02.646Z</time></trkpt><trkpt lat="44.212715" lon="11.3608283"><ele>674.0</ele><time>2026-04-18T14:51:03.646Z</time></trkpt><trkpt lat="44.2127933" lon="11.360865"><ele>674.0</ele><time>2026-04-18T14:51:04.647Z</time></trkpt><trkpt lat="44.2128917" lon="11.3608967"><ele>674.0</ele><time>2026-04-18T14:51:05.647Z</time></trkpt><trkpt lat="44.2129917" lon="11.360915"><ele>674.0</ele><time>2026-04-18T14:51:06.646Z</time></trkpt><trkpt lat="44.2130967" lon="11.3609317"><ele>674.0</ele><time>2026-04-18T14:51:07.646Z</time></trkpt><trkpt lat="44.2132067" lon="11.3609533"><ele>674.0</ele><time>2026-04-18T14:51:08.646Z</time></trkpt><trkpt lat="44.2133283" lon="11.360975"><ele>671.75</ele><time>2026-04-18T14:51:09.646Z</time></trkpt><trkpt lat="44.2134517" lon="11.3610017"><ele>669.5</ele><time>2026-04-18T14:51:10.646Z</time></trkpt><trkpt lat="44.2135683" lon="11.3610233"><ele>667.25</ele><time>2026-04-18T14:51:11.647Z</time></trkpt><trkpt lat="44.2136817" lon="11.361035"><ele>665.0</ele><time>2026-04-18T14:51:12.646Z</time></trkpt><trkpt lat="44.2137817" lon="11.3610517"><ele>665.0</ele><time>2026-04-18T14:51:13.647Z</time></trkpt><trkpt lat="44.2138717" lon="11.361055"><ele>665.0</ele><time>2026-04-18T14:51:14.646Z</time></trkpt><trkpt lat="44.2139733" lon="11.3610667"><ele>665.0</ele><time>2026-04-18T14:51:15.647Z</time></trkpt><trkpt lat="44.2140767" lon="11.3610717"><ele>665.0</ele><time>2026-04-18T14:51:16.646Z</time></trkpt><trkpt lat="44.2141883" lon="11.361075"><ele>665.0</ele><time>2026-04-18T14:51:17.646Z</time></trkpt><trkpt lat="44.2142883" lon="11.3610783"><ele>663.1666666666666</ele><time>2026-04-18T14:51:18.647Z</time></trkpt><trkpt lat="44.2143967" lon="11.3610933"><ele>661.3333333333333</ele><time>2026-04-18T14:51:19.647Z</time></trkpt><trkpt lat="44.2144967" lon="11.361105"><ele>659.5</ele><time>2026-04-18T14:51:20.646Z</time></trkpt><trkpt lat="44.2145883" lon="11.3611067"><ele>657.6666666666666</ele><time>2026-04-18T14:51:21.646Z</time></trkpt><trkpt lat="44.2146683" lon="11.3611033"><ele>655.8333333333334</ele><time>2026-04-18T14:51:22.647Z</time></trkpt><trkpt lat="44.214735" lon="11.3611067"><ele>654.0</ele><time>2026-04-18T14:51:23.646Z</time></trkpt><trkpt lat="44.2148017" lon="11.3611133"><ele>652.2</ele><time>2026-04-18T14:51:24.647Z</time></trkpt><trkpt lat="44.2149117" lon="11.361155"><ele>650.4000000000001</ele><time>2026-04-18T14:51:26.647Z</time></trkpt><trkpt lat="44.21503" lon="11.3612317"><ele>648.6</ele><time>2026-04-18T14:51:28.647Z</time></trkpt><trkpt lat="44.215085" lon="11.3612883"><ele>646.8</ele><time>2026-04-18T14:51:29.647Z</time></trkpt><trkpt lat="44.2151367" lon="11.361345"><ele>645.0</ele><time>2026-04-18T14:51:30.647Z</time></trkpt><trkpt lat="44.2152" lon="11.36141"><ele>645.0</ele><time>2026-04-18T14:51:32.647Z</time></trkpt><trkpt lat="44.2153067" lon="11.361365"><ele>645.0</ele><time>2026-04-18T14:51:34.647Z</time></trkpt><trkpt lat="44.21538" lon="11.3613167"><ele>645.0</ele><time>2026-04-18T14:51:35.646Z</time></trkpt><trkpt lat="44.2154617" lon="11.36126"><ele>645.0</ele><time>2026-04-18T14:51:36.646Z</time></trkpt><trkpt lat="44.2155417" lon="11.3612033"><ele>645.0</ele><time>2026-04-18T14:51:37.647Z</time></trkpt><trkpt lat="44.2156117" lon="11.3611533"><ele>643.2857142857143</ele><time>2026-04-18T14:51:38.646Z</time></trkpt><trkpt lat="44.2156883" lon="11.36112"><ele>641.5714285714286</ele><time>2026-04-18T14:51:39.647Z</time></trkpt><trkpt lat="44.21576" lon="11.3610883"><ele>639.8571428571429</ele><time>2026-04-18T14:51:40.647Z</time></trkpt><trkpt lat="44.2158133" lon="11.361035"><ele>638.1428571428571</ele><time>2026-04-18T14:51:41.646Z</time></trkpt><trkpt lat="44.215855" lon="11.360965"><ele>636.4285714285714</ele><time>2026-04-18T14:51:42.647Z</time></trkpt><trkpt lat="44.2158833" lon="11.3608583"><ele>634.7142857142857</ele><time>2026-04-18T14:51:43.647Z</time></trkpt><trkpt lat="44.215895" lon="11.3607467"><ele>633.0</ele><time>2026-04-18T14:51:44.646Z</time></trkpt><trkpt lat="44.2158917" lon="11.3606333"><ele>631.8</ele><time>2026-04-18T14:51:45.647Z</time></trkpt><trkpt lat="44.2158517" lon="11.3605117"><ele>630.5999999999999</ele><time>2026-04-18T14:51:46.646Z</time></trkpt><trkpt lat="44.2158083" lon="11.3604117"><ele>629.4000000000001</ele><time>2026-04-18T14:51:47.646Z</time></trkpt><trkpt lat="44.2157667" lon="11.3603317"><ele>628.2</ele><time>2026-04-18T14:51:48.646Z</time></trkpt><trkpt lat="44.21573" lon="11.3602167"><ele>627.0</ele><time>2026-04-18T14:51:50.647Z</time></trkpt><trkpt lat="44.2157933" lon="11.36009"><ele>627.0</ele><time>2026-04-18T14:51:52.647Z</time></trkpt><trkpt lat="44.215865" lon="11.3600267"><ele>627.0</ele><time>2026-04-18T14:51:53.647Z</time></trkpt><trkpt lat="44.2159433" lon="11.3599933"><ele>627.0</ele><time>2026-04-18T14:51:54.646Z</time></trkpt><trkpt lat="44.2160267" lon="11.3599683"><ele>627.0</ele><time>2026-04-18T14:51:55.647Z</time></trkpt><trkpt lat="44.2161083" lon="11.35996"><ele>627.0</ele><time>2026-04-18T14:51:56.647Z</time></trkpt><trkpt lat="44.2161833" lon="11.3599617"><ele>627.0</ele><time>2026-04-18T14:51:57.647Z</time></trkpt><trkpt lat="44.2162617" lon="11.3599517"><ele>627.0</ele><time>2026-04-18T14:51:58.646Z</time></trkpt><trkpt lat="44.2163333" lon="11.3599483"><ele>627.0</ele><time>2026-04-18T14:51:59.646Z</time></trkpt><trkpt lat="44.2164483" lon="11.3599983"><ele>627.0</ele><time>2026-04-18T14:52:01.646Z</time></trkpt><trkpt lat="44.2165333" lon="11.3600517"><ele>627.0</ele><time>2026-04-18T14:52:03.646Z</time></trkpt><trkpt lat="44.216595" lon="11.36011"><ele>627.0</ele><time>2026-04-18T14:52:30.646Z</time></trkpt><trkpt lat="44.2166967" lon="11.360235"><ele>625.1666666666666</ele><time>2026-04-18T14:52:32.646Z</time></trkpt><trkpt lat="44.2167533" lon="11.3603"><ele>623.3333333333334</ele><time>2026-04-18T14:52:33.646Z</time></trkpt><trkpt lat="44.2168117" lon="11.3603783"><ele>621.5</ele><time>2026-04-18T14:52:34.647Z</time></trkpt><trkpt lat="44.216865" lon="11.360445"><ele>619.6666666666667</ele><time>2026-04-18T14:52:35.647Z</time></trkpt><trkpt lat="44.2169133" lon="11.3605133"><ele>617.8333333333334</ele><time>2026-04-18T14:52:36.646Z</time></trkpt><trkpt lat="44.2169967" lon="11.3606367"><ele>616.0</ele><time>2026-04-18T14:52:38.647Z</time></trkpt><trkpt lat="44.2170783" lon="11.36075"><ele>616.0</ele><time>2026-04-18T14:52:40.647Z</time></trkpt><trkpt lat="44.2171383" lon="11.360875"><ele>616.0</ele><time>2026-04-18T14:52:42.646Z</time></trkpt><trkpt lat="44.2171717" lon="11.3609817"><ele>616.0</ele><time>2026-04-18T14:52:44.646Z</time></trkpt><trkpt lat="44.2172217" lon="11.361045"><ele>616.0</ele><time>2026-04-18T14:52:46.645Z</time></trkpt><trkpt lat="44.2173383" lon="11.3610483"><ele>616.0</ele><time>2026-04-18T14:52:48.645Z</time></trkpt><trkpt lat="44.21742" lon="11.361025"><ele>613.0</ele><time>2026-04-18T14:52:49.645Z</time></trkpt><trkpt lat="44.2174983" lon="11.3609933"><ele>610.0</ele><time>2026-04-18T14:52:50.646Z</time></trkpt><trkpt lat="44.21757" lon="11.3609433"><ele>607.0</ele><time>2026-04-18T14:52:51.645Z</time></trkpt><trkpt lat="44.2176283" lon="11.3608833"><ele>604.0</ele><time>2026-04-18T14:52:52.645Z</time></trkpt><trkpt lat="44.2177367" lon="11.36079"><ele>601.0</ele><time>2026-04-18T14:52:54.646Z</time></trkpt><trkpt lat="44.2177867" lon="11.3607317"><ele>598.0</ele><time>2026-04-18T14:52:55.645Z</time></trkpt><trkpt lat="44.2178333" lon="11.36067"><ele>598.0</ele><time>2026-04-18T14:52:56.646Z</time></trkpt><trkpt lat="44.2179167" lon="11.360585"><ele>598.0</ele><time>2026-04-18T14:52:58.645Z</time></trkpt><trkpt lat="44.2180117" lon="11.360565"><ele>598.0</ele><time>2026-04-18T14:53:00.646Z</time></trkpt><trkpt lat="44.2181317" lon="11.360615"><ele>598.0</ele><time>2026-04-18T14:53:02.645Z</time></trkpt><trkpt lat="44.2182317" lon="11.3607067"><ele>598.0</ele><time>2026-04-18T14:53:04.646Z</time></trkpt><trkpt lat="44.2183283" lon="11.3607933"><ele>595.6666666666667</ele><time>2026-04-18T14:53:06.646Z</time></trkpt><trkpt lat="44.2184433" lon="11.3607883"><ele>593.3333333333334</ele><time>2026-04-18T14:53:08.646Z</time></trkpt><trkpt lat="44.2185033" lon="11.3607433"><ele>591.0</ele><time>2026-04-18T14:53:09.645Z</time></trkpt><trkpt lat="44.2185733" lon="11.36068"><ele>588.6666666666666</ele><time>2026-04-18T14:53:10.645Z</time></trkpt><trkpt lat="44.2186417" lon="11.3606417"><ele>586.3333333333333</ele><time>2026-04-18T14:53:11.645Z</time></trkpt><trkpt lat="44.218715" lon="11.3606333"><ele>584.0</ele><time>2026-04-18T14:53:12.646Z</time></trkpt><trkpt lat="44.21879" lon="11.3606317"><ele>584.0</ele><time>2026-04-18T14:53:13.646Z</time></trkpt><trkpt lat="44.218875" lon="11.3606317"><ele>584.0</ele><time>2026-04-18T14:53:14.645Z</time></trkpt><trkpt lat="44.2189533" lon="11.3606133"><ele>584.0</ele><time>2026-04-18T14:53:15.645Z</time></trkpt><trkpt lat="44.219035" lon="11.3605733"><ele>584.0</ele><time>2026-04-18T14:53:16.646Z</time></trkpt><trkpt lat="44.2191133" lon="11.3605417"><ele>584.0</ele><time>2026-04-18T14:53:17.645Z</time></trkpt><trkpt lat="44.2191983" lon="11.3605233"><ele>584.0</ele><time>2026-04-18T14:53:18.646Z</time></trkpt><trkpt lat="44.2192783" lon="11.3605233"><ele>581.4</ele><time>2026-04-18T14:53:19.646Z</time></trkpt><trkpt lat="44.2193533" lon="11.3605267"><ele>578.8</ele><time>2026-04-18T14:53:20.646Z</time></trkpt><trkpt lat="44.2194417" lon="11.3605667"><ele>576.2</ele><time>2026-04-18T14:53:22.645Z</time></trkpt><trkpt lat="44.2194633" lon="11.3606767"><ele>573.6</ele><time>2026-04-18T14:53:24.645Z</time></trkpt><trkpt lat="44.2194567" lon="11.360825"><ele>571.0</ele><time>2026-04-18T14:53:26.645Z</time></trkpt><trkpt lat="44.2194467" lon="11.3609833"><ele>570.8333333333334</ele><time>2026-04-18T14:53:28.646Z</time></trkpt><trkpt lat="44.219445" lon="11.361135"><ele>570.6666666666667</ele><time>2026-04-18T14:53:30.646Z</time></trkpt><trkpt lat="44.2194417" lon="11.3612317"><ele>570.5</ele><time>2026-04-18T14:53:31.646Z</time></trkpt><trkpt lat="44.2194367" lon="11.3613217"><ele>570.3333333333334</ele><time>2026-04-18T14:53:32.646Z</time></trkpt><trkpt lat="44.2194183" lon="11.361415"><ele>570.1666666666666</ele><time>2026-04-18T14:53:33.646Z</time></trkpt><trkpt lat="44.2193867" lon="11.3615817"><ele>570.0</ele><time>2026-04-18T14:53:35.645Z</time></trkpt><trkpt lat="44.21936" lon="11.3616683"><ele>568.8333333333334</ele><time>2026-04-18T14:53:36.645Z</time></trkpt><trkpt lat="44.2193317" lon="11.3617533"><ele>567.6666666666666</ele><time>2026-04-18T14:53:37.645Z</time></trkpt><trkpt lat="44.21927" lon="11.3619217"><ele>566.5</ele><time>2026-04-18T14:53:39.646Z</time></trkpt><trkpt lat="44.219235" lon="11.3620083"><ele>565.3333333333333</ele><time>2026-04-18T14:53:40.645Z</time></trkpt><trkpt lat="44.2192017" lon="11.3621133"><ele>564.1666666666666</ele><time>2026-04-18T14:53:41.645Z</time></trkpt><trkpt lat="44.219175" lon="11.362235"><ele>563.0</ele><time>2026-04-18T14:53:42.645Z</time></trkpt><trkpt lat="44.2191633" lon="11.3623667"><ele>561.5</ele><time>2026-04-18T14:53:43.645Z</time></trkpt><trkpt lat="44.2191683" lon="11.362515"><ele>560.0</ele><time>2026-04-18T14:53:44.645Z</time></trkpt><trkpt lat="44.219175" lon="11.3626817"><ele>558.5</ele><time>2026-04-18T14:53:45.645Z</time></trkpt><trkpt lat="44.2191733" lon="11.3628667"><ele>557.0</ele><time>2026-04-18T14:53:46.645Z</time></trkpt><trkpt lat="44.2191583" lon="11.3630733"><ele>557.0</ele><time>2026-04-18T14:53:47.645Z</time></trkpt><trkpt lat="44.21915" lon="11.363265"><ele>557.0</ele><time>2026-04-18T14:53:48.646Z</time></trkpt><trkpt lat="44.219135" lon="11.3634533"><ele>557.0</ele><time>2026-04-18T14:53:49.646Z</time></trkpt><trkpt lat="44.21912" lon="11.36364"><ele>557.0</ele><time>2026-04-18T14:53:50.645Z</time></trkpt><trkpt lat="44.2191117" lon="11.3638233"><ele>557.4</ele><time>2026-04-18T14:53:51.645Z</time></trkpt><trkpt lat="44.2191117" lon="11.363985"><ele>557.8000000000001</ele><time>2026-04-18T14:53:52.646Z</time></trkpt><trkpt lat="44.219135" lon="11.364135"><ele>558.2</ele><time>2026-04-18T14:53:53.645Z</time></trkpt><trkpt lat="44.219195" lon="11.3642483"><ele>558.6</ele><time>2026-04-18T14:53:54.645Z</time></trkpt><trkpt lat="44.2192783" lon="11.364325"><ele>559.0</ele><time>2026-04-18T14:53:55.645Z</time></trkpt><trkpt lat="44.21936" lon="11.3643733"><ele>559.0</ele><time>2026-04-18T14:53:56.646Z</time></trkpt><trkpt lat="44.2194317" lon="11.3644133"><ele>559.0</ele><time>2026-04-18T14:53:57.646Z</time></trkpt><trkpt lat="44.219485" lon="11.364475"><ele>559.0</ele><time>2026-04-18T14:53:58.646Z</time></trkpt><trkpt lat="44.2195483" lon="11.36454"><ele>559.0</ele><time>2026-04-18T14:53:59.645Z</time></trkpt><trkpt lat="44.21962" lon="11.3646083"><ele>559.0</ele><time>2026-04-18T14:54:00.646Z</time></trkpt><trkpt lat="44.2197033" lon="11.3646867"><ele>559.0</ele><time>2026-04-18T14:54:01.645Z</time></trkpt><trkpt lat="44.2197783" lon="11.364785"><ele>558.2</ele><time>2026-04-18T14:54:02.645Z</time></trkpt><trkpt lat="44.219845" lon="11.364885"><ele>557.4</ele><time>2026-04-18T14:54:03.646Z</time></trkpt><trkpt lat="44.2198967" lon="11.364985"><ele>556.6</ele><time>2026-04-18T14:54:04.645Z</time></trkpt><trkpt lat="44.2199283" lon="11.3651017"><ele>555.8</ele><time>2026-04-18T14:54:05.645Z</time></trkpt><trkpt lat="44.21994" lon="11.3652183"><ele>555.0</ele><time>2026-04-18T14:54:06.645Z</time></trkpt><trkpt lat="44.2199283" lon="11.3653467"><ele>555.0</ele><time>2026-04-18T14:54:07.645Z</time></trkpt><trkpt lat="44.2199083" lon="11.3654883"><ele>555.0</ele><time>2026-04-18T14:54:08.646Z</time></trkpt><trkpt lat="44.219885" lon="11.36563"><ele>555.0</ele><time>2026-04-18T14:54:09.645Z</time></trkpt><trkpt lat="44.21986" lon="11.3657683"><ele>555.0</ele><time>2026-04-18T14:54:10.645Z</time></trkpt><trkpt lat="44.2198433" lon="11.365905"><ele>555.0</ele><time>2026-04-18T14:54:11.645Z</time></trkpt><trkpt lat="44.21984" lon="11.3660317"><ele>555.1666666666666</ele><time>2026-04-18T14:54:12.646Z</time></trkpt><trkpt lat="44.2198567" lon="11.3661417"><ele>555.3333333333334</ele><time>2026-04-18T14:54:13.646Z</time></trkpt><trkpt lat="44.219905" lon="11.3662083"><ele>555.5</ele><time>2026-04-18T14:54:14.646Z</time></trkpt><trkpt lat="44.2199767" lon="11.3662267"><ele>555.6666666666667</ele><time>2026-04-18T14:54:15.645Z</time></trkpt><trkpt lat="44.2200733" lon="11.36622"><ele>555.8333333333334</ele><time>2026-04-18T14:54:16.645Z</time></trkpt><trkpt lat="44.2201767" lon="11.3662033"><ele>556.0</ele><time>2026-04-18T14:54:17.645Z</time></trkpt><trkpt lat="44.2202883" lon="11.366165"><ele>556.0</ele><time>2026-04-18T14:54:18.645Z</time></trkpt><trkpt lat="44.2204" lon="11.3661433"><ele>556.0</ele><time>2026-04-18T14:54:19.646Z</time></trkpt><trkpt lat="44.2205133" lon="11.3661867"><ele>556.0</ele><time>2026-04-18T14:54:20.645Z</time></trkpt><trkpt lat="44.2206133" lon="11.3662267"><ele>556.0</ele><time>2026-04-18T14:54:21.646Z</time></trkpt><trkpt lat="44.2207133" lon="11.36627"><ele>556.0</ele><time>2026-04-18T14:54:22.646Z</time></trkpt><trkpt lat="44.2208083" lon="11.3663067"><ele>555.8333333333334</ele><time>2026-04-18T14:54:23.646Z</time></trkpt><trkpt lat="44.220895" lon="11.3663633"><ele>555.6666666666667</ele><time>2026-04-18T14:54:24.645Z</time></trkpt><trkpt lat="44.220965" lon="11.3664383"><ele>555.5</ele><time>2026-04-18T14:54:25.645Z</time></trkpt><trkpt lat="44.221025" lon="11.3665167"><ele>555.3333333333334</ele><time>2026-04-18T14:54:26.645Z</time></trkpt><trkpt lat="44.221075" lon="11.3665967"><ele>555.1666666666666</ele><time>2026-04-18T14:54:27.646Z</time></trkpt><trkpt lat="44.2211317" lon="11.3666667"><ele>555.0</ele><time>2026-04-18T14:54:28.646Z</time></trkpt><trkpt lat="44.221185" lon="11.3667367"><ele>555.0</ele><time>2026-04-18T14:54:29.645Z</time></trkpt><trkpt lat="44.221235" lon="11.3668067"><ele>555.0</ele><time>2026-04-18T14:54:30.645Z</time></trkpt><trkpt lat="44.221295" lon="11.36687"><ele>555.0</ele><time>2026-04-18T14:54:31.645Z</time></trkpt><trkpt lat="44.2213533" lon="11.3669467"><ele>555.0</ele><time>2026-04-18T14:54:32.646Z</time></trkpt><trkpt lat="44.2214083" lon="11.36702"><ele>555.0</ele><time>2026-04-18T14:54:33.646Z</time></trkpt><trkpt lat="44.2214667" lon="11.3671"><ele>555.0</ele><time>2026-04-18T14:54:34.646Z</time></trkpt><trkpt lat="44.2215267" lon="11.367175"><ele>554.1666666666666</ele><time>2026-04-18T14:54:35.645Z</time></trkpt><trkpt lat="44.221585" lon="11.3672667"><ele>553.3333333333334</ele><time>2026-04-18T14:54:36.645Z</time></trkpt><trkpt lat="44.2216433" lon="11.3673717"><ele>552.5</ele><time>2026-04-18T14:54:37.646Z</time></trkpt><trkpt lat="44.2216917" lon="11.36749"><ele>551.6666666666667</ele><time>2026-04-18T14:54:38.645Z</time></trkpt><trkpt lat="44.2217367" lon="11.3675883"><ele>550.8333333333334</ele><time>2026-04-18T14:54:39.646Z</time></trkpt><trkpt lat="44.22178" lon="11.367685"><ele>550.0</ele><time>2026-04-18T14:54:40.646Z</time></trkpt><trkpt lat="44.2218317" lon="11.36778"><ele>550.0</ele><time>2026-04-18T14:54:41.646Z</time></trkpt><trkpt lat="44.2218917" lon="11.3678683"><ele>550.0</ele><time>2026-04-18T14:54:42.646Z</time></trkpt><trkpt lat="44.22196" lon="11.3679367"><ele>550.0</ele><time>2026-04-18T14:54:43.645Z</time></trkpt><trkpt lat="44.222025" lon="11.3679983"><ele>550.0</ele><time>2026-04-18T14:54:44.645Z</time></trkpt><trkpt lat="44.2220733" lon="11.3680833"><ele>550.0</ele><time>2026-04-18T14:54:45.646Z</time></trkpt><trkpt lat="44.2221183" lon="11.3681817"><ele>550.0</ele><time>2026-04-18T14:54:46.645Z</time></trkpt><trkpt lat="44.2221617" lon="11.3682933"><ele>549.5</ele><time>2026-04-18T14:54:47.645Z</time></trkpt><trkpt lat="44.222205" lon="11.368425"><ele>549.0</ele><time>2026-04-18T14:54:48.646Z</time></trkpt><trkpt lat="44.2222417" lon="11.3685267"><ele>548.5</ele><time>2026-04-18T14:54:49.645Z</time></trkpt><trkpt lat="44.2222817" lon="11.368615"><ele>548.0</ele><time>2026-04-18T14:54:50.645Z</time></trkpt><trkpt lat="44.222325" lon="11.3686917"><ele>547.5</ele><time>2026-04-18T14:54:51.646Z</time></trkpt><trkpt lat="44.2223733" lon="11.36884"><ele>547.0</ele><time>2026-04-18T14:54:53.646Z</time></trkpt><trkpt lat="44.2223783" lon="11.3689967"><ele>547.4</ele><time>2026-04-18T14:54:55.646Z</time></trkpt><trkpt lat="44.2223233" lon="11.36915"><ele>547.8000000000001</ele><time>2026-04-18T14:54:57.645Z</time></trkpt><trkpt lat="44.2222733" lon="11.3692117"><ele>548.2</ele><time>2026-04-18T14:54:58.645Z</time></trkpt><trkpt lat="44.2222233" lon="11.3693633"><ele>548.6</ele><time>2026-04-18T14:55:00.645Z</time></trkpt><trkpt lat="44.222245" lon="11.3695167"><ele>549.0</ele><time>2026-04-18T14:55:02.645Z</time></trkpt><trkpt lat="44.2222733" lon="11.3696033"><ele>548.6666666666666</ele><time>2026-04-18T14:55:03.645Z</time></trkpt><trkpt lat="44.2223067" lon="11.3697"><ele>548.3333333333334</ele><time>2026-04-18T14:55:04.645Z</time></trkpt><trkpt lat="44.222345" lon="11.3697983"><ele>548.0</ele><time>2026-04-18T14:55:05.645Z</time></trkpt><trkpt lat="44.2223683" lon="11.3698967"><ele>547.6666666666667</ele><time>2026-04-18T14:55:06.645Z</time></trkpt><trkpt lat="44.2223867" lon="11.3699867"><ele>547.3333333333334</ele><time>2026-04-18T14:55:07.645Z</time></trkpt><trkpt lat="44.2224433" lon="11.3701"><ele>547.0</ele><time>2026-04-18T14:55:09.645Z</time></trkpt><trkpt lat="44.2225283" lon="11.3701533"><ele>547.0</ele><time>2026-04-18T14:55:11.646Z</time></trkpt><trkpt lat="44.2226233" lon="11.3701233"><ele>547.0</ele><time>2026-04-18T14:55:13.645Z</time></trkpt><trkpt lat="44.222685" lon="11.3700867"><ele>547.0</ele><time>2026-04-18T14:55:14.645Z</time></trkpt><trkpt lat="44.2227517" lon="11.3700367"><ele>547.0</ele><time>2026-04-18T14:55:15.645Z</time></trkpt><trkpt lat="44.2228283" lon="11.3699933"><ele>547.0</ele><time>2026-04-18T14:55:16.645Z</time></trkpt><trkpt lat="44.2229333" lon="11.3699383"><ele>547.0</ele><time>2026-04-18T14:55:18.646Z</time></trkpt><trkpt lat="44.223035" lon="11.3699467"><ele>547.0</ele><time>2026-04-18T14:55:20.645Z</time></trkpt><trkpt lat="44.22314" lon="11.3699683"><ele>547.0</ele><time>2026-04-18T14:55:22.646Z</time></trkpt><trkpt lat="44.223245" lon="11.3700033"><ele>547.0</ele><time>2026-04-18T14:55:24.646Z</time></trkpt><trkpt lat="44.223335" lon="11.370045"><ele>547.0</ele><time>2026-04-18T14:55:26.646Z</time></trkpt><trkpt lat="44.2234283" lon="11.3701083"><ele>547.0</ele><time>2026-04-18T14:55:28.645Z</time></trkpt><trkpt lat="44.22353" lon="11.3701917"><ele>548.25</ele><time>2026-04-18T14:55:30.645Z</time></trkpt><trkpt lat="44.2236283" lon="11.3702717"><ele>549.5</ele><time>2026-04-18T14:55:32.645Z</time></trkpt><trkpt lat="44.223745" lon="11.370315"><ele>550.75</ele><time>2026-04-18T14:55:34.645Z</time></trkpt><trkpt lat="44.2238617" lon="11.3703667"><ele>552.0</ele><time>2026-04-18T14:55:36.646Z</time></trkpt><trkpt lat="44.2239533" lon="11.3704233"><ele>552.3333333333334</ele><time>2026-04-18T14:55:38.645Z</time></trkpt><trkpt lat="44.2240433" lon="11.3704933"><ele>552.6666666666666</ele><time>2026-04-18T14:55:40.645Z</time></trkpt><trkpt lat="44.2241217" lon="11.3706233"><ele>553.0</ele><time>2026-04-18T14:55:42.645Z</time></trkpt><trkpt lat="44.22418" lon="11.3706883"><ele>553.3333333333333</ele><time>2026-04-18T14:55:43.646Z</time></trkpt><trkpt lat="44.2242367" lon="11.37075"><ele>553.6666666666666</ele><time>2026-04-18T14:55:44.646Z</time></trkpt><trkpt lat="44.2242967" lon="11.3707933"><ele>554.0</ele><time>2026-04-18T14:55:45.645Z</time></trkpt><trkpt lat="44.22436" lon="11.3708233"><ele>556.8333333333333</ele><time>2026-04-18T14:55:46.645Z</time></trkpt><trkpt lat="44.2244267" lon="11.3708383"><ele>559.6666666666666</ele><time>2026-04-18T14:55:47.645Z</time></trkpt><trkpt lat="44.22455" lon="11.3708483"><ele>562.5</ele><time>2026-04-18T14:55:49.646Z</time></trkpt><trkpt lat="44.2246133" lon="11.3708683"><ele>565.3333333333334</ele><time>2026-04-18T14:55:50.646Z</time></trkpt><trkpt lat="44.2247233" lon="11.3709383"><ele>568.1666666666667</ele><time>2026-04-18T14:55:52.646Z</time></trkpt><trkpt lat="44.2247683" lon="11.371"><ele>571.0</ele><time>2026-04-18T14:55:53.645Z</time></trkpt><trkpt lat="44.2248067" lon="11.3711467"><ele>571.8</ele><time>2026-04-18T14:55:55.645Z</time></trkpt><trkpt lat="44.224855" lon="11.371275"><ele>572.6</ele><time>2026-04-18T14:55:57.645Z</time></trkpt><trkpt lat="44.22492" lon="11.3713267"><ele>573.4</ele><time>2026-04-18T14:55:59.644Z</time></trkpt><trkpt lat="44.2250067" lon="11.3713367"><ele>574.2</ele><time>2026-04-18T14:56:01.645Z</time></trkpt><trkpt lat="44.2251267" lon="11.371325"><ele>575.0</ele><time>2026-04-18T14:56:03.645Z</time></trkpt><trkpt lat="44.2251983" lon="11.37132"><ele>575.0</ele><time>2026-04-18T14:56:04.644Z</time></trkpt><trkpt lat="44.2252767" lon="11.371335"><ele>575.0</ele><time>2026-04-18T14:56:05.645Z</time></trkpt><trkpt lat="44.2253517" lon="11.3713583"><ele>575.0</ele><time>2026-04-18T14:56:06.644Z</time></trkpt><trkpt lat="44.2254633" lon="11.3713783"><ele>575.0</ele><time>2026-04-18T14:56:08.644Z</time></trkpt><trkpt lat="44.2255283" lon="11.3714183"><ele>575.0</ele><time>2026-04-18T14:58:01.645Z</time></trkpt><trkpt lat="44.2256267" lon="11.371435"><ele>575.0</ele><time>2026-04-18T14:58:05.644Z</time></trkpt><trkpt lat="44.2257083" lon="11.3715217"><ele>576.5</ele><time>2026-04-18T14:58:07.644Z</time></trkpt><trkpt lat="44.2257983" lon="11.37165"><ele>578.0</ele><time>2026-04-18T14:58:09.644Z</time></trkpt><trkpt lat="44.2258767" lon="11.37174"><ele>579.5</ele><time>2026-04-18T14:58:11.644Z</time></trkpt><trkpt lat="44.22597" lon="11.371795"><ele>581.0</ele><time>2026-04-18T14:58:13.644Z</time></trkpt><trkpt lat="44.226085" lon="11.371845"><ele>581.0</ele><time>2026-04-18T14:58:15.644Z</time></trkpt><trkpt lat="44.2261583" lon="11.3718567"><ele>581.0</ele><time>2026-04-18T14:58:16.644Z</time></trkpt><trkpt lat="44.2262317" lon="11.3718683"><ele>581.0</ele><time>2026-04-18T14:58:17.645Z</time></trkpt><trkpt lat="44.2263517" lon="11.371925"><ele>581.0</ele><time>2026-04-18T14:58:19.644Z</time></trkpt><trkpt lat="44.22646" lon="11.3720067"><ele>581.0</ele><time>2026-04-18T14:58:21.644Z</time></trkpt><trkpt lat="44.2265167" lon="11.3720617"><ele>580.1428571428571</ele><time>2026-04-18T14:58:22.644Z</time></trkpt><trkpt lat="44.2265717" lon="11.3721317"><ele>579.2857142857142</ele><time>2026-04-18T14:58:23.644Z</time></trkpt><trkpt lat="44.2266167" lon="11.3721967"><ele>578.4285714285714</ele><time>2026-04-18T14:58:24.645Z</time></trkpt><trkpt lat="44.2266667" lon="11.37227"><ele>577.5714285714286</ele><time>2026-04-18T14:58:25.644Z</time></trkpt><trkpt lat="44.2267217" lon="11.3723233"><ele>576.7142857142857</ele><time>2026-04-18T14:58:26.644Z</time></trkpt><trkpt lat="44.22678" lon="11.3723717"><ele>575.8571428571429</ele><time>2026-04-18T14:58:27.644Z</time></trkpt><trkpt lat="44.22684" lon="11.37241"><ele>575.0</ele><time>2026-04-18T14:58:28.644Z</time></trkpt><trkpt lat="44.2269" lon="11.3724417"><ele>575.0</ele><time>2026-04-18T14:58:29.645Z</time></trkpt><trkpt lat="44.2269617" lon="11.3724633"><ele>575.0</ele><time>2026-04-18T14:58:30.645Z</time></trkpt><trkpt lat="44.22708" lon="11.3725067"><ele>575.0</ele><time>2026-04-18T14:58:32.645Z</time></trkpt><trkpt lat="44.2271483" lon="11.37252"><ele>575.0</ele><time>2026-04-18T14:58:33.644Z</time></trkpt><trkpt lat="44.2272117" lon="11.37254"><ele>575.0</ele><time>2026-04-18T14:58:34.645Z</time></trkpt><trkpt lat="44.2273217" lon="11.372585"><ele>575.0</ele><time>2026-04-18T14:58:36.645Z</time></trkpt><trkpt lat="44.2274267" lon="11.3726167"><ele>572.25</ele><time>2026-04-18T14:58:38.645Z</time></trkpt><trkpt lat="44.2275533" lon="11.3726183"><ele>569.5</ele><time>2026-04-18T14:58:40.644Z</time></trkpt><trkpt lat="44.2276667" lon="11.372585"><ele>566.75</ele><time>2026-04-18T14:58:42.645Z</time></trkpt><trkpt lat="44.22777" lon="11.3725483"><ele>564.0</ele><time>2026-04-18T14:58:44.644Z</time></trkpt><trkpt lat="44.227875" lon="11.37254"><ele>564.0</ele><time>2026-04-18T14:58:46.645Z</time></trkpt><trkpt lat="44.227995" lon="11.3725283"><ele>564.0</ele><time>2026-04-18T14:58:48.644Z</time></trkpt><trkpt lat="44.2281067" lon="11.37251"><ele>564.0</ele><time>2026-04-18T14:58:50.644Z</time></trkpt><trkpt lat="44.2282117" lon="11.3724917"><ele>564.0</ele><time>2026-04-18T14:58:52.645Z</time></trkpt><trkpt lat="44.2282817" lon="11.372475"><ele>564.0</ele><time>2026-04-18T14:58:53.644Z</time></trkpt><trkpt lat="44.2283517" lon="11.3724533"><ele>562.0</ele><time>2026-04-18T14:58:54.645Z</time></trkpt><trkpt lat="44.228415" lon="11.3724333"><ele>560.0</ele><time>2026-04-18T14:58:55.644Z</time></trkpt><trkpt lat="44.2284783" lon="11.3724133"><ele>558.0</ele><time>2026-04-18T14:58:56.644Z</time></trkpt><trkpt lat="44.2285417" lon="11.3724"><ele>556.0</ele><time>2026-04-18T14:58:57.645Z</time></trkpt><trkpt lat="44.2286067" lon="11.3723733"><ele>554.0</ele><time>2026-04-18T14:58:58.645Z</time></trkpt><trkpt lat="44.2286767" lon="11.3723483"><ele>552.0</ele><time>2026-04-18T14:58:59.645Z</time></trkpt><trkpt lat="44.2287883" lon="11.3723033"><ele>552.0</ele><time>2026-04-18T14:59:01.644Z</time></trkpt><trkpt lat="44.2288767" lon="11.3722567"><ele>552.0</ele><time>2026-04-18T14:59:03.644Z</time></trkpt><trkpt lat="44.2289617" lon="11.3722017"><ele>552.0</ele><time>2026-04-18T14:59:05.644Z</time></trkpt><trkpt lat="44.229035" lon="11.37215"><ele>552.0</ele><time>2026-04-18T14:59:07.644Z</time></trkpt><trkpt lat="44.2290983" lon="11.3721217"><ele>552.0</ele><time>2026-04-18T14:59:09.644Z</time></trkpt><trkpt lat="44.2291667" lon="11.3720717"><ele>552.0</ele><time>2026-04-18T14:59:11.644Z</time></trkpt><trkpt lat="44.229235" lon="11.3720083"><ele>549.0</ele><time>2026-04-18T14:59:13.644Z</time></trkpt><trkpt lat="44.2293" lon="11.3719733"><ele>546.0</ele><time>2026-04-18T14:59:15.643Z</time></trkpt><trkpt lat="44.2293667" lon="11.3719617"><ele>543.0</ele><time>2026-04-18T14:59:17.644Z</time></trkpt><trkpt lat="44.2294467" lon="11.3719417"><ele>540.0</ele><time>2026-04-18T14:59:19.643Z</time></trkpt><trkpt lat="44.2295133" lon="11.371915"><ele>537.0</ele><time>2026-04-18T14:59:21.643Z</time></trkpt><trkpt lat="44.229595" lon="11.3718933"><ele>534.0</ele><time>2026-04-18T14:59:24.644Z</time></trkpt><trkpt lat="44.2296583" lon="11.3718617"><ele>531.0</ele><time>2026-04-18T14:59:26.643Z</time></trkpt><trkpt lat="44.2297333" lon="11.3718283"><ele>531.0</ele><time>2026-04-18T14:59:28.643Z</time></trkpt><trkpt lat="44.2298017" lon="11.371795"><ele>531.0</ele><time>2026-04-18T14:59:30.643Z</time></trkpt><trkpt lat="44.2298717" lon="11.3717583"><ele>531.0</ele><time>2026-04-18T14:59:33.643Z</time></trkpt><trkpt lat="44.2299317" lon="11.3717267"><ele>531.0</ele><time>2026-04-18T14:59:35.643Z</time></trkpt><trkpt lat="44.2300167" lon="11.3716917"><ele>531.0</ele><time>2026-04-18T14:59:37.643Z</time></trkpt><trkpt lat="44.23009" lon="11.3716683"><ele>531.0</ele><time>2026-04-18T14:59:39.643Z</time></trkpt><trkpt lat="44.230155" lon="11.3716517"><ele>531.0</ele><time>2026-04-18T14:59:41.644Z</time></trkpt><trkpt lat="44.2302233" lon="11.3716583"><ele>529.2857142857143</ele><time>2026-04-18T14:59:43.643Z</time></trkpt><trkpt lat="44.23029" lon="11.3716717"><ele>527.5714285714287</ele><time>2026-04-18T14:59:45.643Z</time></trkpt><trkpt lat="44.2303683" lon="11.3716433"><ele>525.8571428571429</ele><time>2026-04-18T14:59:48.644Z</time></trkpt><trkpt lat="44.2304283" lon="11.371595"><ele>524.1428571428571</ele><time>2026-04-18T14:59:50.644Z</time></trkpt><trkpt lat="44.23049" lon="11.37151"><ele>522.4285714285713</ele><time>2026-04-18T14:59:53.643Z</time></trkpt><trkpt lat="44.2305467" lon="11.3714417"><ele>520.7142857142857</ele><time>2026-04-18T14:59:55.644Z</time></trkpt><trkpt lat="44.2306017" lon="11.3713833"><ele>519.0</ele><time>2026-04-18T14:59:58.643Z</time></trkpt><trkpt lat="44.2306567" lon="11.3713267"><ele>515.3333333333334</ele><time>2026-04-18T15:00:01.643Z</time></trkpt><trkpt lat="44.23072" lon="11.3712933"><ele>511.66666666666663</ele><time>2026-04-18T15:00:04.644Z</time></trkpt><trkpt lat="44.2308" lon="11.3712233"><ele>508.0</ele><time>2026-04-18T15:00:07.644Z</time></trkpt><trkpt lat="44.23086" lon="11.3711717"><ele>504.3333333333333</ele><time>2026-04-18T15:00:09.643Z</time></trkpt><trkpt lat="44.2309733" lon="11.3711417"><ele>500.66666666666663</ele><time>2026-04-18T15:00:16.643Z</time></trkpt><trkpt lat="44.231045" lon="11.3711633"><ele>497.0</ele><time>2026-04-18T15:00:20.644Z</time></trkpt><trkpt lat="44.231115" lon="11.3711667"><ele>497.0</ele><time>2026-04-18T15:00:23.643Z</time></trkpt><trkpt lat="44.2311833" lon="11.3711967"><ele>497.0</ele><time>2026-04-18T15:00:26.644Z</time></trkpt><trkpt lat="44.2312683" lon="11.3712283"><ele>497.0</ele><time>2026-04-18T15:00:29.643Z</time></trkpt><trkpt lat="44.2313333" lon="11.3712433"><ele>497.0</ele><time>2026-04-18T15:00:31.644Z</time></trkpt><trkpt lat="44.231395" lon="11.3712783"><ele>497.0</ele><time>2026-04-18T15:00:33.643Z</time></trkpt><trkpt lat="44.23147" lon="11.37131"><ele>497.0</ele><time>2026-04-18T15:00:35.643Z</time></trkpt><trkpt lat="44.2315483" lon="11.371325"><ele>497.0</ele><time>2026-04-18T15:00:37.643Z</time></trkpt><trkpt lat="44.2316467" lon="11.3713667"><ele>495.99999999999994</ele><time>2026-04-18T15:00:40.643Z</time></trkpt><trkpt lat="44.2317217" lon="11.371425"><ele>495.0</ele><time>2026-04-18T15:00:43.643Z</time></trkpt><trkpt lat="44.23176" lon="11.3715167"><ele>494.0</ele><time>2026-04-18T15:00:45.643Z</time></trkpt><trkpt lat="44.2318267" lon="11.3715967"><ele>493.0</ele><time>2026-04-18T15:00:47.643Z</time></trkpt><trkpt lat="44.2318983" lon="11.371655"><ele>491.99999999999994</ele><time>2026-04-18T15:00:49.644Z</time></trkpt><trkpt lat="44.2319833" lon="11.371705"><ele>491.0</ele><time>2026-04-18T15:00:51.644Z</time></trkpt><trkpt lat="44.2320733" lon="11.3717517"><ele>490.99999999999994</ele><time>2026-04-18T15:00:53.643Z</time></trkpt><trkpt lat="44.232125" lon="11.3718317"><ele>491.0</ele><time>2026-04-18T15:00:55.643Z</time></trkpt><trkpt lat="44.2321633" lon="11.3719133"><ele>491.0</ele><time>2026-04-18T15:00:57.643Z</time></trkpt><trkpt lat="44.2321583" lon="11.3720117"><ele>491.0</ele><time>2026-04-18T15:00:59.643Z</time></trkpt><trkpt lat="44.2320867" lon="11.37208"><ele>490.99999999999994</ele><time>2026-04-18T15:01:01.643Z</time></trkpt><trkpt lat="44.232025" lon="11.3721217"><ele>491.0</ele><time>2026-04-18T15:01:02.644Z</time></trkpt><trkpt lat="44.2319567" lon="11.37217"><ele>489.49999999999994</ele><time>2026-04-18T15:01:03.643Z</time></trkpt><trkpt lat="44.23188" lon="11.3722317"><ele>488.0</ele><time>2026-04-18T15:01:04.643Z</time></trkpt><trkpt lat="44.2318083" lon="11.3722867"><ele>486.5</ele><time>2026-04-18T15:01:05.643Z</time></trkpt><trkpt lat="44.2317367" lon="11.3723467"><ele>485.0</ele><time>2026-04-18T15:01:06.644Z</time></trkpt><trkpt lat="44.23167" lon="11.3723967"><ele>483.49999999999994</ele><time>2026-04-18T15:01:07.644Z</time></trkpt><trkpt lat="44.23161" lon="11.3724517"><ele>482.0</ele><time>2026-04-18T15:01:08.643Z</time></trkpt><trkpt lat="44.2315633" lon="11.3725117"><ele>482.0</ele><time>2026-04-18T15:01:09.643Z</time></trkpt><trkpt lat="44.2315083" lon="11.3726117"><ele>482.00000000000006</ele><time>2026-04-18T15:01:11.643Z</time></trkpt><trkpt lat="44.2314633" lon="11.3727017"><ele>482.0</ele><time>2026-04-18T15:01:13.643Z</time></trkpt><trkpt lat="44.2314567" lon="11.372795"><ele>482.0</ele><time>2026-04-18T15:01:15.643Z</time></trkpt><trkpt lat="44.2314967" lon="11.37289"><ele>482.00000000000006</ele><time>2026-04-18T15:01:17.644Z</time></trkpt><trkpt lat="44.2315433" lon="11.3729517"><ele>482.0</ele><time>2026-04-18T15:01:18.643Z</time></trkpt><trkpt lat="44.231595" lon="11.373015"><ele>482.0</ele><time>2026-04-18T15:01:19.643Z</time></trkpt><trkpt lat="44.231645" lon="11.3730883"><ele>481.66666666666663</ele><time>2026-04-18T15:01:20.644Z</time></trkpt><trkpt lat="44.2317017" lon="11.3731717"><ele>481.3333333333333</ele><time>2026-04-18T15:01:21.644Z</time></trkpt><trkpt lat="44.231765" lon="11.37327"><ele>481.0</ele><time>2026-04-18T15:01:22.643Z</time></trkpt><trkpt lat="44.231835" lon="11.37337"><ele>480.66666666666663</ele><time>2026-04-18T15:01:23.644Z</time></trkpt><trkpt lat="44.2319017" lon="11.37346"><ele>480.3333333333333</ele><time>2026-04-18T15:01:24.643Z</time></trkpt><trkpt lat="44.231955" lon="11.373525"><ele>480.0</ele><time>2026-04-18T15:01:25.644Z</time></trkpt><trkpt lat="44.2320567" lon="11.3735567"><ele>480.0</ele><time>2026-04-18T15:01:27.644Z</time></trkpt><trkpt lat="44.2321633" lon="11.37348"><ele>480.0</ele><time>2026-04-18T15:01:29.644Z</time></trkpt><trkpt lat="44.232255" lon="11.373375"><ele>480.0</ele><time>2026-04-18T15:01:31.644Z</time></trkpt><trkpt lat="44.2323433" lon="11.3733317"><ele>480.0</ele><time>2026-04-18T15:01:33.643Z</time></trkpt><trkpt lat="44.2323983" lon="11.3733933"><ele>480.0</ele><time>2026-04-18T15:01:35.643Z</time></trkpt><trkpt lat="44.2324033" lon="11.3735033"><ele>477.8</ele><time>2026-04-18T15:01:37.643Z</time></trkpt><trkpt lat="44.23239" lon="11.3736567"><ele>475.6</ele><time>2026-04-18T15:01:39.643Z</time></trkpt><trkpt lat="44.23236" lon="11.3738133"><ele>473.4</ele><time>2026-04-18T15:01:41.643Z</time></trkpt><trkpt lat="44.2323333" lon="11.3739667"><ele>471.2</ele><time>2026-04-18T15:01:43.643Z</time></trkpt><trkpt lat="44.2323533" lon="11.3740933"><ele>469.0</ele><time>2026-04-18T15:01:45.643Z</time></trkpt><trkpt lat="44.2324167" lon="11.37417"><ele>469.0</ele><time>2026-04-18T15:01:47.644Z</time></trkpt><trkpt lat="44.23252" lon="11.3742117"><ele>469.0</ele><time>2026-04-18T15:01:49.643Z</time></trkpt><trkpt lat="44.2326233" lon="11.3742483"><ele>469.0</ele><time>2026-04-18T15:01:51.644Z</time></trkpt><trkpt lat="44.2326733" lon="11.3743033"><ele>469.0</ele><time>2026-04-18T15:01:52.643Z</time></trkpt><trkpt lat="44.2327517" lon="11.37443"><ele>469.0</ele><time>2026-04-18T15:01:54.644Z</time></trkpt><trkpt lat="44.23286" lon="11.374525"><ele>469.0</ele><time>2026-04-18T15:01:56.643Z</time></trkpt><trkpt lat="44.2329433" lon="11.374575"><ele>469.0</ele><time>2026-04-18T15:01:57.643Z</time></trkpt><trkpt lat="44.2330483" lon="11.37462"><ele>469.0</ele><time>2026-04-18T15:01:58.643Z</time></trkpt><trkpt lat="44.2331533" lon="11.374665"><ele>469.0</ele><time>2026-04-18T15:01:59.644Z</time></trkpt><trkpt lat="44.2332483" lon="11.3747083"><ele>469.0</ele><time>2026-04-18T15:02:00.643Z</time></trkpt><trkpt lat="44.233345" lon="11.374755"><ele>469.6</ele><time>2026-04-18T15:02:01.644Z</time></trkpt><trkpt lat="44.2334467" lon="11.3747917"><ele>470.2</ele><time>2026-04-18T15:02:02.643Z</time></trkpt><trkpt lat="44.2335467" lon="11.374805"><ele>470.80000000000007</ele><time>2026-04-18T15:02:03.644Z</time></trkpt><trkpt lat="44.2336417" lon="11.3747983"><ele>471.40000000000003</ele><time>2026-04-18T15:02:04.643Z</time></trkpt><trkpt lat="44.2337217" lon="11.3748033"><ele>472.0</ele><time>2026-04-18T15:02:05.643Z</time></trkpt><trkpt lat="44.2338067" lon="11.37482"><ele>472.00000000000006</ele><time>2026-04-18T15:02:06.644Z</time></trkpt><trkpt lat="44.233885" lon="11.3748367"><ele>472.0</ele><time>2026-04-18T15:02:07.644Z</time></trkpt><trkpt lat="44.2339533" lon="11.3748667"><ele>472.0</ele><time>2026-04-18T15:02:08.643Z</time></trkpt><trkpt lat="44.2340133" lon="11.3749217"><ele>472.0</ele><time>2026-04-18T15:02:09.643Z</time></trkpt><trkpt lat="44.2340833" lon="11.3750517"><ele>472.00000000000006</ele><time>2026-04-18T15:02:11.644Z</time></trkpt><trkpt lat="44.2341317" lon="11.3751167"><ele>472.0</ele><time>2026-04-18T15:02:12.644Z</time></trkpt><trkpt lat="44.2341817" lon="11.3751967"><ele>472.40000000000003</ele><time>2026-04-18T15:02:13.643Z</time></trkpt><trkpt lat="44.2342883" lon="11.37527"><ele>472.80000000000007</ele><time>2026-04-18T15:02:15.643Z</time></trkpt><trkpt lat="44.2344033" lon="11.3752533"><ele>473.2</ele><time>2026-04-18T15:02:17.643Z</time></trkpt><trkpt lat="44.2345067" lon="11.3751467"><ele>473.6</ele><time>2026-04-18T15:02:19.644Z</time></trkpt><trkpt lat="44.2345417" lon="11.3750633"><ele>474.0</ele><time>2026-04-18T15:02:20.644Z</time></trkpt><trkpt lat="44.234585" lon="11.37498"><ele>474.0</ele><time>2026-04-18T15:02:21.643Z</time></trkpt><trkpt lat="44.2345783" lon="11.3748467"><ele>474.0</ele><time>2026-04-18T15:02:23.644Z</time></trkpt><trkpt lat="44.234465" lon="11.374735"><ele>474.0</ele><time>2026-04-18T15:02:25.644Z</time></trkpt><trkpt lat="44.2343933" lon="11.3746683"><ele>474.0</ele><time>2026-04-18T15:02:26.643Z</time></trkpt><trkpt lat="44.234345" lon="11.3746033"><ele>474.0</ele><time>2026-04-18T15:02:27.643Z</time></trkpt><trkpt lat="44.23431" lon="11.374455"><ele>470.2</ele><time>2026-04-18T15:02:29.643Z</time></trkpt><trkpt lat="44.2343867" lon="11.3743717"><ele>466.4</ele><time>2026-04-18T15:02:31.643Z</time></trkpt><trkpt lat="44.2344667" lon="11.3744067"><ele>462.6</ele><time>2026-04-18T15:02:32.642Z</time></trkpt><trkpt lat="44.2345667" lon="11.3744767"><ele>458.8</ele><time>2026-04-18T15:02:33.642Z</time></trkpt><trkpt lat="44.2346617" lon="11.374515"><ele>455.0</ele><time>2026-04-18T15:02:34.643Z</time></trkpt><trkpt lat="44.2347533" lon="11.3745333"><ele>454.49999999999994</ele><time>2026-04-18T15:02:35.642Z</time></trkpt><trkpt lat="44.2348433" lon="11.3745333"><ele>454.0</ele><time>2026-04-18T15:02:36.642Z</time></trkpt><trkpt lat="44.234925" lon="11.37452"><ele>453.5</ele><time>2026-04-18T15:02:37.643Z</time></trkpt><trkpt lat="44.235005" lon="11.3744967"><ele>453.0</ele><time>2026-04-18T15:02:38.643Z</time></trkpt><trkpt lat="44.2350817" lon="11.3744417"><ele>452.49999999999994</ele><time>2026-04-18T15:02:39.643Z</time></trkpt><trkpt lat="44.2351433" lon="11.37437"><ele>452.0</ele><time>2026-04-18T15:02:40.642Z</time></trkpt><trkpt lat="44.2352133" lon="11.3742683"><ele>452.0</ele><time>2026-04-18T15:02:41.643Z</time></trkpt><trkpt lat="44.235265" lon="11.3741583"><ele>452.00000000000006</ele><time>2026-04-18T15:02:42.642Z</time></trkpt><trkpt lat="44.2353083" lon="11.3740433"><ele>452.00000000000006</ele><time>2026-04-18T15:02:43.643Z</time></trkpt><trkpt lat="44.2353483" lon="11.373925"><ele>452.0</ele><time>2026-04-18T15:02:44.643Z</time></trkpt><trkpt lat="44.2353833" lon="11.373815"><ele>452.0</ele><time>2026-04-18T15:02:45.642Z</time></trkpt><trkpt lat="44.23542" lon="11.3737033"><ele>449.8333333333333</ele><time>2026-04-18T15:02:46.643Z</time></trkpt><trkpt lat="44.2354683" lon="11.3735883"><ele>447.66666666666663</ele><time>2026-04-18T15:02:47.643Z</time></trkpt><trkpt lat="44.2355117" lon="11.373475"><ele>445.5</ele><time>2026-04-18T15:02:48.642Z</time></trkpt><trkpt lat="44.2355467" lon="11.3733683"><ele>443.33333333333337</ele><time>2026-04-18T15:02:49.642Z</time></trkpt><trkpt lat="44.2355733" lon="11.373275"><ele>441.1666666666667</ele><time>2026-04-18T15:02:50.642Z</time></trkpt><trkpt lat="44.2356133" lon="11.3731733"><ele>439.0</ele><time>2026-04-18T15:02:51.642Z</time></trkpt><trkpt lat="44.23567" lon="11.3730717"><ele>437.79999999999995</ele><time>2026-04-18T15:02:52.643Z</time></trkpt><trkpt lat="44.2357383" lon="11.3729967"><ele>436.59999999999997</ele><time>2026-04-18T15:02:53.642Z</time></trkpt><trkpt lat="44.2358233" lon="11.3729317"><ele>435.4</ele><time>2026-04-18T15:02:54.642Z</time></trkpt><trkpt lat="44.235915" lon="11.3728583"><ele>434.2</ele><time>2026-04-18T15:02:55.642Z</time></trkpt><trkpt lat="44.236" lon="11.3727783"><ele>433.0</ele><time>2026-04-18T15:02:56.643Z</time></trkpt><trkpt lat="44.2360617" lon="11.3726767"><ele>433.0</ele><time>2026-04-18T15:02:57.643Z</time></trkpt><trkpt lat="44.236125" lon="11.372565"><ele>432.99999999999994</ele><time>2026-04-18T15:02:58.642Z</time></trkpt><trkpt lat="44.2361667" lon="11.37245"><ele>432.99999999999994</ele><time>2026-04-18T15:02:59.643Z</time></trkpt><trkpt lat="44.2361883" lon="11.3723117"><ele>433.0</ele><time>2026-04-18T15:03:00.642Z</time></trkpt><trkpt lat="44.2361983" lon="11.3721667"><ele>433.0</ele><time>2026-04-18T15:03:01.642Z</time></trkpt><trkpt lat="44.2362" lon="11.3720283"><ele>431.0</ele><time>2026-04-18T15:03:02.643Z</time></trkpt><trkpt lat="44.23621" lon="11.3719017"><ele>428.99999999999994</ele><time>2026-04-18T15:03:03.642Z</time></trkpt><trkpt lat="44.2362333" lon="11.3717717"><ele>427.0</ele><time>2026-04-18T15:03:04.643Z</time></trkpt><trkpt lat="44.236295" lon="11.3716517"><ele>425.0</ele><time>2026-04-18T15:03:05.642Z</time></trkpt><trkpt lat="44.2363733" lon="11.3715367"><ele>423.0</ele><time>2026-04-18T15:03:06.643Z</time></trkpt><trkpt lat="44.236475" lon="11.3714133"><ele>419.33333333333337</ele><time>2026-04-18T15:03:07.643Z</time></trkpt><trkpt lat="44.2365817" lon="11.371235"><ele>415.6666666666667</ele><time>2026-04-18T15:03:08.643Z</time></trkpt><trkpt lat="44.23667" lon="11.3710417"><ele>412.0</ele><time>2026-04-18T15:03:09.642Z</time></trkpt><trkpt lat="44.2367433" lon="11.3708633"><ele>412.0</ele><time>2026-04-18T15:03:10.642Z</time></trkpt><trkpt lat="44.2368033" lon="11.37069"><ele>412.0</ele><time>2026-04-18T15:03:11.643Z</time></trkpt><trkpt lat="44.23687" lon="11.3705383"><ele>412.0</ele><time>2026-04-18T15:03:12.643Z</time></trkpt><trkpt lat="44.236945" lon="11.3703983"><ele>412.0</ele><time>2026-04-18T15:03:13.642Z</time></trkpt><trkpt lat="44.2370333" lon="11.3702767"><ele>409.40000000000003</ele><time>2026-04-18T15:03:14.642Z</time></trkpt><trkpt lat="44.2371133" lon="11.3702017"><ele>406.8</ele><time>2026-04-18T15:03:15.642Z</time></trkpt><trkpt lat="44.2372" lon="11.370155"><ele>404.2</ele><time>2026-04-18T15:03:16.642Z</time></trkpt><trkpt lat="44.2372933" lon="11.3701233"><ele>401.6</ele><time>2026-04-18T15:03:17.642Z</time></trkpt><trkpt lat="44.2373883" lon="11.3701233"><ele>399.0</ele><time>2026-04-18T15:03:18.643Z</time></trkpt><trkpt lat="44.2375" lon="11.3701383"><ele>398.0</ele><time>2026-04-18T15:03:19.642Z</time></trkpt><trkpt lat="44.2376133" lon="11.3701583"><ele>397.0</ele><time>2026-04-18T15:03:20.642Z</time></trkpt><trkpt lat="44.2377333" lon="11.3701717"><ele>396.0</ele><time>2026-04-18T15:03:21.642Z</time></trkpt><trkpt lat="44.2378467" lon="11.3701583"><ele>395.0</ele><time>2026-04-18T15:03:22.642Z</time></trkpt><trkpt lat="44.2379567" lon="11.370125"><ele>395.0</ele><time>2026-04-18T15:03:23.643Z</time></trkpt><trkpt lat="44.2380767" lon="11.3700667"><ele>395.0</ele><time>2026-04-18T15:03:24.642Z</time></trkpt><trkpt lat="44.2381967" lon="11.370005"><ele>395.0</ele><time>2026-04-18T15:03:25.643Z</time></trkpt><trkpt lat="44.23832" lon="11.3699433"><ele>395.0</ele><time>2026-04-18T15:03:26.643Z</time></trkpt><trkpt lat="44.23844" lon="11.3698883"><ele>392.6</ele><time>2026-04-18T15:03:27.642Z</time></trkpt><trkpt lat="44.23856" lon="11.3698383"><ele>390.2</ele><time>2026-04-18T15:03:28.642Z</time></trkpt><trkpt lat="44.2386567" lon="11.3698133"><ele>387.79999999999995</ele><time>2026-04-18T15:03:29.642Z</time></trkpt><trkpt lat="44.2387467" lon="11.369775"><ele>385.4</ele><time>2026-04-18T15:03:30.642Z</time></trkpt><trkpt lat="44.2388167" lon="11.3697283"><ele>383.0</ele><time>2026-04-18T15:03:31.643Z</time></trkpt><trkpt lat="44.238835" lon="11.3695967"><ele>381.59999999999997</ele><time>2026-04-18T15:03:33.643Z</time></trkpt><trkpt lat="44.23876" lon="11.3694833"><ele>380.2</ele><time>2026-04-18T15:03:35.642Z</time></trkpt><trkpt lat="44.2386783" lon="11.3694483"><ele>378.8</ele><time>2026-04-18T15:03:36.642Z</time></trkpt><trkpt lat="44.2385767" lon="11.36942"><ele>377.4</ele><time>2026-04-18T15:03:37.642Z</time></trkpt><trkpt lat="44.2384817" lon="11.36939"><ele>376.0</ele><time>2026-04-18T15:03:38.642Z</time></trkpt><trkpt lat="44.2384033" lon="11.3693317"><ele>376.0</ele><time>2026-04-18T15:03:39.642Z</time></trkpt><trkpt lat="44.2383433" lon="11.36926"><ele>376.0</ele><time>2026-04-18T15:03:40.642Z</time></trkpt><trkpt lat="44.2383033" lon="11.3691633"><ele>376.0</ele><time>2026-04-18T15:03:41.642Z</time></trkpt><trkpt lat="44.2382983" lon="11.3690517"><ele>376.0</ele><time>2026-04-18T15:03:42.642Z</time></trkpt><trkpt lat="44.238335" lon="11.3689433"><ele>376.0</ele><time>2026-04-18T15:03:43.642Z</time></trkpt><trkpt lat="44.2383967" lon="11.3688583"><ele>376.0</ele><time>2026-04-18T15:03:44.643Z</time></trkpt><trkpt lat="44.2384933" lon="11.3688217"><ele>372.5</ele><time>2026-04-18T15:03:45.642Z</time></trkpt><trkpt lat="44.2386117" lon="11.368805"><ele>369.0</ele><time>2026-04-18T15:03:46.643Z</time></trkpt><trkpt lat="44.2387667" lon="11.3688133"><ele>365.5</ele><time>2026-04-18T15:03:47.643Z</time></trkpt><trkpt lat="44.2389267" lon="11.3688033"><ele>362.0</ele><time>2026-04-18T15:03:48.642Z</time></trkpt><trkpt lat="44.239085" lon="11.3687917"><ele>361.0</ele><time>2026-04-18T15:03:49.642Z</time></trkpt><trkpt lat="44.2392417" lon="11.368755"><ele>360.0</ele><time>2026-04-18T15:03:50.642Z</time></trkpt><trkpt lat="44.239385" lon="11.3687283"><ele>359.0</ele><time>2026-04-18T15:03:51.643Z</time></trkpt><trkpt lat="44.239515" lon="11.3686917"><ele>358.0</ele><time>2026-04-18T15:03:52.642Z</time></trkpt><trkpt lat="44.239635" lon="11.3686817"><ele>358.0</ele><time>2026-04-18T15:03:53.642Z</time></trkpt><trkpt lat="44.239755" lon="11.3686817"><ele>358.0</ele><time>2026-04-18T15:03:54.643Z</time></trkpt><trkpt lat="44.2398733" lon="11.3687017"><ele>358.0</ele><time>2026-04-18T15:03:55.643Z</time></trkpt><trkpt lat="44.2399883" lon="11.368735"><ele>358.0</ele><time>2026-04-18T15:03:56.642Z</time></trkpt><trkpt lat="44.240105" lon="11.3687767"><ele>356.5</ele><time>2026-04-18T15:03:57.642Z</time></trkpt><trkpt lat="44.2402167" lon="11.3688333"><ele>355.0</ele><time>2026-04-18T15:03:58.642Z</time></trkpt><trkpt lat="44.2403333" lon="11.3688733"><ele>353.5</ele><time>2026-04-18T15:03:59.643Z</time></trkpt><trkpt lat="44.2404583" lon="11.3689467"><ele>352.0</ele><time>2026-04-18T15:04:00.643Z</time></trkpt><trkpt lat="44.2405883" lon="11.3690317"><ele>352.0</ele><time>2026-04-18T15:04:01.642Z</time></trkpt><trkpt lat="44.2407133" lon="11.3691317"><ele>352.0</ele><time>2026-04-18T15:04:02.642Z</time></trkpt><trkpt lat="44.24083" lon="11.3692267"><ele>352.0</ele><time>2026-04-18T15:04:03.643Z</time></trkpt><trkpt lat="44.2409617" lon="11.36931"><ele>352.0</ele><time>2026-04-18T15:04:04.643Z</time></trkpt><trkpt lat="44.2410817" lon="11.3694"><ele>352.0</ele><time>2026-04-18T15:04:05.642Z</time></trkpt><trkpt lat="44.2412083" lon="11.3694783"><ele>352.0</ele><time>2026-04-18T15:04:06.642Z</time></trkpt><trkpt lat="44.241335" lon="11.3695667"><ele>352.0</ele><time>2026-04-18T15:04:07.642Z</time></trkpt><trkpt lat="44.2414867" lon="11.36964"><ele>352.0</ele><time>2026-04-18T15:04:08.643Z</time></trkpt><trkpt lat="44.2416233" lon="11.3697183"><ele>351.5</ele><time>2026-04-18T15:04:09.642Z</time></trkpt><trkpt lat="44.2417533" lon="11.369795"><ele>351.0</ele><time>2026-04-18T15:04:10.643Z</time></trkpt><trkpt lat="44.2418617" lon="11.3698883"><ele>350.5</ele><time>2026-04-18T15:04:11.643Z</time></trkpt><trkpt lat="44.2419767" lon="11.3699483"><ele>350.0</ele><time>2026-04-18T15:04:12.643Z</time></trkpt><trkpt lat="44.2421067" lon="11.3699883"><ele>350.0</ele><time>2026-04-18T15:04:13.642Z</time></trkpt><trkpt lat="44.242245" lon="11.3700033"><ele>350.0</ele><time>2026-04-18T15:04:14.642Z</time></trkpt><trkpt lat="44.2423967" lon="11.3700233"><ele>350.0</ele><time>2026-04-18T15:04:15.643Z</time></trkpt><trkpt lat="44.2425467" lon="11.3700467"><ele>350.0</ele><time>2026-04-18T15:04:16.643Z</time></trkpt><trkpt lat="44.24268" lon="11.3700517"><ele>348.0</ele><time>2026-04-18T15:04:17.642Z</time></trkpt><trkpt lat="44.242815" lon="11.3700383"><ele>346.0</ele><time>2026-04-18T15:04:18.642Z</time></trkpt><trkpt lat="44.2429383" lon="11.3700017"><ele>344.0</ele><time>2026-04-18T15:04:19.642Z</time></trkpt><trkpt lat="44.2430433" lon="11.36993"><ele>342.0</ele><time>2026-04-18T15:04:20.642Z</time></trkpt><trkpt lat="44.243125" lon="11.3698433"><ele>341.8333333333333</ele><time>2026-04-18T15:04:21.642Z</time></trkpt><trkpt lat="44.2431967" lon="11.3697367"><ele>341.6666666666667</ele><time>2026-04-18T15:04:22.642Z</time></trkpt><trkpt lat="44.243255" lon="11.369635"><ele>341.5</ele><time>2026-04-18T15:04:23.642Z</time></trkpt><trkpt lat="44.2433067" lon="11.3695567"><ele>341.33333333333337</ele><time>2026-04-18T15:04:24.643Z</time></trkpt><trkpt lat="44.2433717" lon="11.3694883"><ele>341.1666666666667</ele><time>2026-04-18T15:04:25.643Z</time></trkpt><trkpt lat="44.2434333" lon="11.3694667"><ele>341.0</ele><time>2026-04-18T15:04:26.642Z</time></trkpt><trkpt lat="44.2435283" lon="11.3694833"><ele>341.0</ele><time>2026-04-18T15:04:27.642Z</time></trkpt><trkpt lat="44.2436317" lon="11.3695467"><ele>341.0</ele><time>2026-04-18T15:04:28.642Z</time></trkpt><trkpt lat="44.2437333" lon="11.3696233"><ele>341.0</ele><time>2026-04-18T15:04:29.642Z</time></trkpt><trkpt lat="44.24383" lon="11.36969"><ele>341.0</ele><time>2026-04-18T15:04:30.643Z</time></trkpt><trkpt lat="44.2439317" lon="11.36974"><ele>341.0</ele><time>2026-04-18T15:04:31.642Z</time></trkpt><trkpt lat="44.24402" lon="11.3698067"><ele>342.0</ele><time>2026-04-18T15:04:32.642Z</time></trkpt><trkpt lat="44.2440983" lon="11.3698867"><ele>343.0</ele><time>2026-04-18T15:04:33.643Z</time></trkpt><trkpt lat="44.2441567" lon="11.3699733"><ele>344.0</ele><time>2026-04-18T15:04:34.642Z</time></trkpt><trkpt lat="44.24422" lon="11.37009"><ele>345.0</ele><time>2026-04-18T15:04:36.642Z</time></trkpt><trkpt lat="44.2442933" lon="11.370065"><ele>346.0</ele><time>2026-04-18T15:04:39.642Z</time></trkpt><trkpt lat="44.2442883" lon="11.3699483"><ele>347.0</ele><time>2026-04-18T15:04:46.643Z</time></trkpt><trkpt lat="44.2442417" lon="11.3698367"><ele>347.0</ele><time>2026-04-18T15:04:48.642Z</time></trkpt><trkpt lat="44.2442167" lon="11.36974"><ele>347.0</ele><time>2026-04-18T15:04:50.642Z</time></trkpt><trkpt lat="44.244305" lon="11.3697183"><ele>347.0</ele><time>2026-04-18T15:05:37.642Z</time></trkpt><trkpt lat="44.244385" lon="11.3697233"><ele>347.0</ele><time>2026-04-18T15:05:38.642Z</time></trkpt><trkpt lat="44.244475" lon="11.3697217"><ele>347.0</ele><time>2026-04-18T15:05:39.643Z</time></trkpt><trkpt lat="44.2445733" lon="11.3697117"><ele>347.0</ele><time>2026-04-18T15:05:40.641Z</time></trkpt><trkpt lat="44.2446733" lon="11.36971"><ele>347.0</ele><time>2026-04-18T15:05:41.641Z</time></trkpt><trkpt lat="44.2447767" lon="11.369715"><ele>347.0</ele><time>2026-04-18T15:05:42.641Z</time></trkpt><trkpt lat="44.2448967" lon="11.369705"><ele>347.0</ele><time>2026-04-18T15:05:43.641Z</time></trkpt><trkpt lat="44.24502" lon="11.3696967"><ele>347.0</ele><time>2026-04-18T15:05:44.641Z</time></trkpt><trkpt lat="44.2451583" lon="11.3696867"><ele>349.0</ele><time>2026-04-18T15:05:45.641Z</time></trkpt><trkpt lat="44.245285" lon="11.3696817"><ele>351.0</ele><time>2026-04-18T15:05:46.642Z</time></trkpt><trkpt lat="44.2454033" lon="11.3697017"><ele>353.0</ele><time>2026-04-18T15:05:47.641Z</time></trkpt><trkpt lat="44.245505" lon="11.36976"><ele>355.0</ele><time>2026-04-18T15:05:48.641Z</time></trkpt><trkpt lat="44.2456267" lon="11.3698317"><ele>356.75</ele><time>2026-04-18T15:05:49.641Z</time></trkpt><trkpt lat="44.2457467" lon="11.3699333"><ele>358.5</ele><time>2026-04-18T15:05:50.641Z</time></trkpt><trkpt lat="44.24586" lon="11.3700233"><ele>360.25</ele><time>2026-04-18T15:05:51.642Z</time></trkpt><trkpt lat="44.2459767" lon="11.3700967"><ele>362.0</ele><time>2026-04-18T15:05:52.642Z</time></trkpt><trkpt lat="44.2460983" lon="11.3701667"><ele>362.0</ele><time>2026-04-18T15:05:53.642Z</time></trkpt><trkpt lat="44.2462233" lon="11.3702417"><ele>362.0</ele><time>2026-04-18T15:05:54.641Z</time></trkpt><trkpt lat="44.246335" lon="11.3703267"><ele>362.0</ele><time>2026-04-18T15:05:55.642Z</time></trkpt><trkpt lat="44.2464367" lon="11.3704067"><ele>362.0</ele><time>2026-04-18T15:05:56.641Z</time></trkpt><trkpt lat="44.2465367" lon="11.3704933"><ele>362.40000000000003</ele><time>2026-04-18T15:05:57.641Z</time></trkpt><trkpt lat="44.246625" lon="11.3705867"><ele>362.8</ele><time>2026-04-18T15:05:58.641Z</time></trkpt><trkpt lat="44.2467117" lon="11.3706667"><ele>363.2</ele><time>2026-04-18T15:05:59.641Z</time></trkpt><trkpt lat="44.2468067" lon="11.3707417"><ele>363.6</ele><time>2026-04-18T15:06:00.641Z</time></trkpt><trkpt lat="44.2468933" lon="11.3708167"><ele>364.0</ele><time>2026-04-18T15:06:01.641Z</time></trkpt><trkpt lat="44.24699" lon="11.3708867"><ele>364.0</ele><time>2026-04-18T15:06:02.642Z</time></trkpt><trkpt lat="44.2470917" lon="11.3709533"><ele>364.0</ele><time>2026-04-18T15:06:03.642Z</time></trkpt><trkpt lat="44.2472033" lon="11.3710333"><ele>364.0</ele><time>2026-04-18T15:06:04.641Z</time></trkpt><trkpt lat="44.2473067" lon="11.3711167"><ele>364.0</ele><time>2026-04-18T15:06:05.641Z</time></trkpt><trkpt lat="44.247405" lon="11.37119"><ele>364.25</ele><time>2026-04-18T15:06:06.641Z</time></trkpt><trkpt lat="44.2475067" lon="11.371285"><ele>364.5</ele><time>2026-04-18T15:06:07.641Z</time></trkpt><trkpt lat="44.2476017" lon="11.371375"><ele>364.75</ele><time>2026-04-18T15:06:08.642Z</time></trkpt><trkpt lat="44.2477017" lon="11.3714733"><ele>365.0</ele><time>2026-04-18T15:06:09.641Z</time></trkpt><trkpt lat="44.2477917" lon="11.3715583"><ele>365.0</ele><time>2026-04-18T15:06:10.641Z</time></trkpt><trkpt lat="44.2478767" lon="11.371635"><ele>365.0</ele><time>2026-04-18T15:06:11.641Z</time></trkpt><trkpt lat="44.2479567" lon="11.371705"><ele>365.0</ele><time>2026-04-18T15:06:12.642Z</time></trkpt><trkpt lat="44.2480267" lon="11.3717683"><ele>365.0</ele><time>2026-04-18T15:06:13.641Z</time></trkpt><trkpt lat="44.2480933" lon="11.3718217"><ele>365.0</ele><time>2026-04-18T15:06:14.641Z</time></trkpt><trkpt lat="44.2481583" lon="11.3718483"><ele>365.0</ele><time>2026-04-18T15:06:15.642Z</time></trkpt><trkpt lat="44.2482383" lon="11.3718117"><ele>366.33333333333337</ele><time>2026-04-18T15:06:17.641Z</time></trkpt><trkpt lat="44.2482883" lon="11.37174"><ele>367.6666666666667</ele><time>2026-04-18T15:06:19.641Z</time></trkpt><trkpt lat="44.2483383" lon="11.3716567"><ele>369.0</ele><time>2026-04-18T15:06:21.642Z</time></trkpt><trkpt lat="44.2484017" lon="11.3715783"><ele>370.3333333333333</ele><time>2026-04-18T15:06:23.641Z</time></trkpt><trkpt lat="44.2484667" lon="11.3715017"><ele>371.66666666666663</ele><time>2026-04-18T15:06:25.641Z</time></trkpt><trkpt lat="44.2485533" lon="11.371395"><ele>373.0</ele><time>2026-04-18T15:06:27.642Z</time></trkpt><trkpt lat="44.2486167" lon="11.3713483"><ele>374.66666666666663</ele><time>2026-04-18T15:06:28.641Z</time></trkpt><trkpt lat="44.2486883" lon="11.3712967"><ele>376.3333333333333</ele><time>2026-04-18T15:06:29.641Z</time></trkpt><trkpt lat="44.248765" lon="11.371245"><ele>378.0</ele><time>2026-04-18T15:06:30.642Z</time></trkpt><trkpt lat="44.2488383" lon="11.3712017"><ele>379.6666666666667</ele><time>2026-04-18T15:06:31.641Z</time></trkpt><trkpt lat="44.2489" lon="11.3711683"><ele>381.33333333333337</ele><time>2026-04-18T15:06:32.642Z</time></trkpt><trkpt lat="44.248965" lon="11.3711183"><ele>383.0</ele><time>2026-04-18T15:06:33.641Z</time></trkpt><trkpt lat="44.24903" lon="11.3710483"><ele>384.59999999999997</ele><time>2026-04-18T15:06:34.642Z</time></trkpt><trkpt lat="44.2491183" lon="11.3709383"><ele>386.2</ele><time>2026-04-18T15:06:36.641Z</time></trkpt><trkpt lat="44.2491417" lon="11.3707883"><ele>387.8</ele><time>2026-04-18T15:06:38.641Z</time></trkpt><trkpt lat="44.24913" lon="11.3706733"><ele>389.4</ele><time>2026-04-18T15:06:39.641Z</time></trkpt><trkpt lat="44.2491067" lon="11.3705667"><ele>391.0</ele><time>2026-04-18T15:06:40.641Z</time></trkpt><trkpt lat="44.2490933" lon="11.3704583"><ele>393.20000000000005</ele><time>2026-04-18T15:06:41.641Z</time></trkpt><trkpt lat="44.249095" lon="11.3703417"><ele>395.40000000000003</ele><time>2026-04-18T15:06:42.641Z</time></trkpt><trkpt lat="44.2491133" lon="11.3702333"><ele>397.6</ele><time>2026-04-18T15:06:43.641Z</time></trkpt><trkpt lat="44.24915" lon="11.37012"><ele>399.8</ele><time>2026-04-18T15:06:44.642Z</time></trkpt><trkpt lat="44.2492033" lon="11.3700067"><ele>402.0</ele><time>2026-04-18T15:06:45.641Z</time></trkpt><trkpt lat="44.2492617" lon="11.3698833"><ele>402.0</ele><time>2026-04-18T15:06:46.642Z</time></trkpt><trkpt lat="44.2493083" lon="11.3697833"><ele>402.0</ele><time>2026-04-18T15:06:47.641Z</time></trkpt><trkpt lat="44.2493483" lon="11.3696967"><ele>402.0</ele><time>2026-04-18T15:06:48.642Z</time></trkpt><trkpt lat="44.2494217" lon="11.369565"><ele>402.0</ele><time>2026-04-18T15:06:50.641Z</time></trkpt><trkpt lat="44.249525" lon="11.369535"><ele>402.0</ele><time>2026-04-18T15:06:52.642Z</time></trkpt><trkpt lat="44.249595" lon="11.369565"><ele>403.0</ele><time>2026-04-18T15:06:53.641Z</time></trkpt><trkpt lat="44.2496717" lon="11.369615"><ele>404.0</ele><time>2026-04-18T15:06:54.641Z</time></trkpt><trkpt lat="44.2497583" lon="11.3696833"><ele>405.0</ele><time>2026-04-18T15:06:55.642Z</time></trkpt><trkpt lat="44.2498383" lon="11.3697383"><ele>406.0</ele><time>2026-04-18T15:06:56.642Z</time></trkpt><trkpt lat="44.249915" lon="11.3698067"><ele>407.0</ele><time>2026-04-18T15:06:57.641Z</time></trkpt><trkpt lat="44.2499767" lon="11.3698933"><ele>407.0</ele><time>2026-04-18T15:06:58.641Z</time></trkpt><trkpt lat="44.2500217" lon="11.369995"><ele>407.0</ele><time>2026-04-18T15:06:59.641Z</time></trkpt><trkpt lat="44.2500467" lon="11.370105"><ele>407.0</ele><time>2026-04-18T15:07:00.641Z</time></trkpt><trkpt lat="44.250105" lon="11.370225"><ele>407.0</ele><time>2026-04-18T15:07:02.641Z</time></trkpt><trkpt lat="44.2502217" lon="11.3702817"><ele>407.0</ele><time>2026-04-18T15:07:04.641Z</time></trkpt><trkpt lat="44.2502817" lon="11.370345"><ele>406.99999999999994</ele><time>2026-04-18T15:07:05.641Z</time></trkpt><trkpt lat="44.2503567" lon="11.3704117"><ele>407.0</ele><time>2026-04-18T15:07:06.641Z</time></trkpt><trkpt lat="44.2504367" lon="11.3704833"><ele>407.0</ele><time>2026-04-18T15:07:07.641Z</time></trkpt><trkpt lat="44.250515" lon="11.3705483"><ele>407.0</ele><time>2026-04-18T15:07:08.641Z</time></trkpt><trkpt lat="44.250575" lon="11.3705817"><ele>406.99999999999994</ele><time>2026-04-18T15:07:09.641Z</time></trkpt><trkpt lat="44.2506433" lon="11.37059"><ele>407.0</ele><time>2026-04-18T15:07:11.641Z</time></trkpt><trkpt lat="44.25067" lon="11.37051"><ele>409.8333333333333</ele><time>2026-04-18T15:07:14.641Z</time></trkpt><trkpt lat="44.2506617" lon="11.3704067"><ele>412.66666666666663</ele><time>2026-04-18T15:07:16.641Z</time></trkpt><trkpt lat="44.2506417" lon="11.3702617"><ele>415.5</ele><time>2026-04-18T15:07:18.641Z</time></trkpt><trkpt lat="44.250645" lon="11.3701733"><ele>418.33333333333337</ele><time>2026-04-18T15:07:19.642Z</time></trkpt><trkpt lat="44.2506517" lon="11.37008"><ele>421.1666666666667</ele><time>2026-04-18T15:07:20.641Z</time></trkpt><trkpt lat="44.2506567" lon="11.3699833"><ele>424.0</ele><time>2026-04-18T15:07:21.642Z</time></trkpt><trkpt lat="44.250665" lon="11.3698717"><ele>424.00000000000006</ele><time>2026-04-18T15:07:22.641Z</time></trkpt><trkpt lat="44.25067" lon="11.3697567"><ele>424.0</ele><time>2026-04-18T15:07:23.642Z</time></trkpt><trkpt lat="44.2506867" lon="11.3696533"><ele>424.0</ele><time>2026-04-18T15:07:24.641Z</time></trkpt><trkpt lat="44.2507017" lon="11.369555"><ele>424.0</ele><time>2026-04-18T15:07:25.641Z</time></trkpt><trkpt lat="44.2507233" lon="11.3694517"><ele>424.00000000000006</ele><time>2026-04-18T15:07:26.641Z</time></trkpt><trkpt lat="44.2507467" lon="11.369355"><ele>424.0</ele><time>2026-04-18T15:07:27.641Z</time></trkpt><trkpt lat="44.2507683" lon="11.369255"><ele>423.6666666666667</ele><time>2026-04-18T15:07:28.642Z</time></trkpt><trkpt lat="44.2507733" lon="11.3691667"><ele>423.33333333333337</ele><time>2026-04-18T15:07:29.642Z</time></trkpt><trkpt lat="44.25074" lon="11.36904"><ele>423.0</ele><time>2026-04-18T15:07:31.642Z</time></trkpt><trkpt lat="44.2506883" lon="11.368975"><ele>422.66666666666663</ele><time>2026-04-18T15:07:32.642Z</time></trkpt><trkpt lat="44.2506267" lon="11.368925"><ele>422.3333333333333</ele><time>2026-04-18T15:07:33.641Z</time></trkpt><trkpt lat="44.2505667" lon="11.368865"><ele>422.0</ele><time>2026-04-18T15:07:34.641Z</time></trkpt><trkpt lat="44.250505" lon="11.3687983"><ele>424.99999999999994</ele><time>2026-04-18T15:07:35.641Z</time></trkpt><trkpt lat="44.25045" lon="11.368725"><ele>428.0</ele><time>2026-04-18T15:07:36.642Z</time></trkpt><trkpt lat="44.250405" lon="11.3686533"><ele>431.0</ele><time>2026-04-18T15:07:37.641Z</time></trkpt><trkpt lat="44.2503617" lon="11.368515"><ele>434.0</ele><time>2026-04-18T15:07:39.641Z</time></trkpt><trkpt lat="44.2503367" lon="11.3683617"><ele>436.99999999999994</ele><time>2026-04-18T15:07:41.641Z</time></trkpt><trkpt lat="44.25035" lon="11.3682667"><ele>440.0</ele><time>2026-04-18T15:07:42.641Z</time></trkpt><trkpt lat="44.25038" lon="11.3681633"><ele>439.99999999999994</ele><time>2026-04-18T15:07:43.642Z</time></trkpt><trkpt lat="44.2504167" lon="11.3680717"><ele>440.0</ele><time>2026-04-18T15:07:44.641Z</time></trkpt><trkpt lat="44.250465" lon="11.368005"><ele>440.0</ele><time>2026-04-18T15:07:45.641Z</time></trkpt><trkpt lat="44.25058" lon="11.3679667"><ele>440.0</ele><time>2026-04-18T15:07:47.642Z</time></trkpt><trkpt lat="44.250685" lon="11.36791"><ele>439.99999999999994</ele><time>2026-04-18T15:07:49.642Z</time></trkpt><trkpt lat="44.2506767" lon="11.36781"><ele>440.0</ele><time>2026-04-18T15:07:52.641Z</time></trkpt><trkpt lat="44.25056" lon="11.36773"><ele>443.0</ele><time>2026-04-18T15:07:54.642Z</time></trkpt><trkpt lat="44.2504717" lon="11.3676767"><ele>446.0</ele><time>2026-04-18T15:07:55.641Z</time></trkpt><trkpt lat="44.2503717" lon="11.36763"><ele>449.0</ele><time>2026-04-18T15:07:56.641Z</time></trkpt><trkpt lat="44.2502583" lon="11.3676133"><ele>452.0</ele><time>2026-04-18T15:07:57.642Z</time></trkpt><trkpt lat="44.2501117" lon="11.3676133"><ele>452.0</ele><time>2026-04-18T15:07:58.642Z</time></trkpt><trkpt lat="44.24994" lon="11.3676067"><ele>452.0</ele><time>2026-04-18T15:07:59.642Z</time></trkpt><trkpt lat="44.2497767" lon="11.3675983"><ele>452.0</ele><time>2026-04-18T15:08:00.641Z</time></trkpt><trkpt lat="44.2496233" lon="11.3675917"><ele>452.6</ele><time>2026-04-18T15:08:01.642Z</time></trkpt><trkpt lat="44.2494983" lon="11.3675917"><ele>453.20000000000005</ele><time>2026-04-18T15:08:02.642Z</time></trkpt><trkpt lat="44.2493933" lon="11.36755"><ele>453.8</ele><time>2026-04-18T15:08:03.641Z</time></trkpt><trkpt lat="44.2492983" lon="11.36748"><ele>454.4</ele><time>2026-04-18T15:08:04.642Z</time></trkpt><trkpt lat="44.2492133" lon="11.3674083"><ele>455.0</ele><time>2026-04-18T15:08:05.642Z</time></trkpt><trkpt lat="44.249145" lon="11.3673417"><ele>455.0</ele><time>2026-04-18T15:08:06.641Z</time></trkpt><trkpt lat="44.2490883" lon="11.3672683"><ele>455.0</ele><time>2026-04-18T15:08:07.642Z</time></trkpt><trkpt lat="44.249035" lon="11.3672"><ele>455.0</ele><time>2026-04-18T15:08:08.642Z</time></trkpt><trkpt lat="44.2489833" lon="11.367135"><ele>455.0</ele><time>2026-04-18T15:08:09.641Z</time></trkpt><trkpt lat="44.2489317" lon="11.36706"><ele>455.0</ele><time>2026-04-18T15:08:10.641Z</time></trkpt><trkpt lat="44.2488817" lon="11.366985"><ele>455.0</ele><time>2026-04-18T15:08:11.642Z</time></trkpt><trkpt lat="44.2488383" lon="11.3669117"><ele>455.0</ele><time>2026-04-18T15:08:12.641Z</time></trkpt><trkpt lat="44.248775" lon="11.3667883"><ele>455.8</ele><time>2026-04-18T15:08:14.642Z</time></trkpt><trkpt lat="44.2488033" lon="11.3666817"><ele>456.6</ele><time>2026-04-18T15:08:16.641Z</time></trkpt><trkpt lat="44.24884" lon="11.3665367"><ele>457.4</ele><time>2026-04-18T15:08:18.641Z</time></trkpt><trkpt lat="44.2488483" lon="11.3663717"><ele>458.2</ele><time>2026-04-18T15:08:20.642Z</time></trkpt><trkpt lat="44.2488333" lon="11.3661967"><ele>459.0</ele><time>2026-04-18T15:08:22.642Z</time></trkpt><trkpt lat="44.248795" lon="11.3660567"><ele>459.6666666666667</ele><time>2026-04-18T15:08:24.641Z</time></trkpt><trkpt lat="44.248775" lon="11.3659683"><ele>460.33333333333337</ele><time>2026-04-18T15:08:25.641Z</time></trkpt><trkpt lat="44.2487483" lon="11.36588"><ele>461.0</ele><time>2026-04-18T15:08:26.641Z</time></trkpt><trkpt lat="44.24873" lon="11.3657883"><ele>461.6666666666667</ele><time>2026-04-18T15:08:27.641Z</time></trkpt><trkpt lat="44.2486917" lon="11.3656067"><ele>462.33333333333337</ele><time>2026-04-18T15:08:29.641Z</time></trkpt><trkpt lat="44.2486517" lon="11.3655033"><ele>463.0</ele><time>2026-04-18T15:08:30.641Z</time></trkpt><trkpt lat="44.2486067" lon="11.3653933"><ele>465.50000000000006</ele><time>2026-04-18T15:08:31.641Z</time></trkpt><trkpt lat="44.2485617" lon="11.36527"><ele>468.0</ele><time>2026-04-18T15:08:32.641Z</time></trkpt><trkpt lat="44.2485067" lon="11.3651567"><ele>470.5</ele><time>2026-04-18T15:08:33.641Z</time></trkpt><trkpt lat="44.2484583" lon="11.3650617"><ele>473.0</ele><time>2026-04-18T15:08:34.641Z</time></trkpt><trkpt lat="44.2484133" lon="11.3649733"><ele>475.50000000000006</ele><time>2026-04-18T15:08:35.641Z</time></trkpt><trkpt lat="44.2483783" lon="11.3648917"><ele>478.0</ele><time>2026-04-18T15:08:36.642Z</time></trkpt><trkpt lat="44.2483467" lon="11.3648067"><ele>477.79999999999995</ele><time>2026-04-18T15:08:37.641Z</time></trkpt><trkpt lat="44.248295" lon="11.3646517"><ele>477.59999999999997</ele><time>2026-04-18T15:08:39.641Z</time></trkpt><trkpt lat="44.2482333" lon="11.3644933"><ele>477.40000000000003</ele><time>2026-04-18T15:08:41.642Z</time></trkpt><trkpt lat="44.24819" lon="11.3644133"><ele>477.20000000000005</ele><time>2026-04-18T15:08:42.641Z</time></trkpt><trkpt lat="44.2481383" lon="11.3643383"><ele>477.0</ele><time>2026-04-18T15:08:43.641Z</time></trkpt><trkpt lat="44.24809" lon="11.364265"><ele>477.0</ele><time>2026-04-18T15:08:44.642Z</time></trkpt><trkpt lat="44.2480167" lon="11.3641433"><ele>477.0</ele><time>2026-04-18T15:08:46.641Z</time></trkpt><trkpt lat="44.2479433" lon="11.36407"><ele>477.0</ele><time>2026-04-18T15:08:48.641Z</time></trkpt><trkpt lat="44.2478833" lon="11.3640383"><ele>477.0</ele><time>2026-04-18T15:08:50.642Z</time></trkpt><trkpt lat="44.2477867" lon="11.3640133"><ele>477.0</ele><time>2026-04-18T15:08:52.641Z</time></trkpt><trkpt lat="44.2477183" lon="11.363995"><ele>477.0</ele><time>2026-04-18T15:08:53.641Z</time></trkpt><trkpt lat="44.2476567" lon="11.3639567"><ele>477.0</ele><time>2026-04-18T15:08:54.642Z</time></trkpt><trkpt lat="44.247595" lon="11.3639183"><ele>477.0</ele><time>2026-04-18T15:08:55.642Z</time></trkpt><trkpt lat="44.2474933" lon="11.36387"><ele>477.0</ele><time>2026-04-18T15:08:57.641Z</time></trkpt><trkpt lat="44.2473883" lon="11.3638683"><ele>477.0</ele><time>2026-04-18T15:08:59.64Z</time></trkpt><trkpt lat="44.2473167" lon="11.363865"><ele>477.0</ele><time>2026-04-18T15:09:00.641Z</time></trkpt><trkpt lat="44.2472433" lon="11.3638583"><ele>477.0</ele><time>2026-04-18T15:09:01.641Z</time></trkpt><trkpt lat="44.24718" lon="11.3638467"><ele>477.8333333333333</ele><time>2026-04-18T15:09:02.64Z</time></trkpt><trkpt lat="44.2470983" lon="11.3637733"><ele>478.66666666666663</ele><time>2026-04-18T15:09:04.64Z</time></trkpt><trkpt lat="44.24706" lon="11.36367"><ele>479.5</ele><time>2026-04-18T15:09:06.641Z</time></trkpt><trkpt lat="44.2470967" lon="11.3635533"><ele>480.3333333333333</ele><time>2026-04-18T15:09:09.641Z</time></trkpt><trkpt lat="44.247135" lon="11.3634717"><ele>481.16666666666663</ele><time>2026-04-18T15:09:11.64Z</time></trkpt><trkpt lat="44.2471333" lon="11.3633817"><ele>482.0</ele><time>2026-04-18T15:09:13.641Z</time></trkpt><trkpt lat="44.2470983" lon="11.3632833"><ele>481.99999999999994</ele><time>2026-04-18T15:09:15.64Z</time></trkpt><trkpt lat="44.2470667" lon="11.36316"><ele>482.0</ele><time>2026-04-18T15:09:17.641Z</time></trkpt><trkpt lat="44.2470567" lon="11.3630433"><ele>482.0</ele><time>2026-04-18T15:09:19.64Z</time></trkpt><trkpt lat="44.2470517" lon="11.3629117"><ele>482.0</ele><time>2026-04-18T15:09:21.64Z</time></trkpt><trkpt lat="44.2470417" lon="11.3627917"><ele>481.99999999999994</ele><time>2026-04-18T15:09:23.64Z</time></trkpt><trkpt lat="44.247015" lon="11.3626767"><ele>482.0</ele><time>2026-04-18T15:09:25.64Z</time></trkpt><trkpt lat="44.24698" lon="11.3625583"><ele>486.8</ele><time>2026-04-18T15:09:27.64Z</time></trkpt><trkpt lat="44.2469233" lon="11.3624417"><ele>491.6</ele><time>2026-04-18T15:09:29.641Z</time></trkpt><trkpt lat="44.2468433" lon="11.362315"><ele>496.40000000000003</ele><time>2026-04-18T15:09:31.64Z</time></trkpt><trkpt lat="44.2467733" lon="11.362215"><ele>501.20000000000005</ele><time>2026-04-18T15:09:33.641Z</time></trkpt><trkpt lat="44.2467267" lon="11.36211"><ele>506.0</ele><time>2026-04-18T15:09:35.641Z</time></trkpt><trkpt lat="44.24668" lon="11.3619967"><ele>509.0</ele><time>2026-04-18T15:09:37.64Z</time></trkpt><trkpt lat="44.24658" lon="11.3619233"><ele>512.0</ele><time>2026-04-18T15:09:39.64Z</time></trkpt><trkpt lat="44.2465167" lon="11.3618917"><ele>515.0</ele><time>2026-04-18T15:09:40.64Z</time></trkpt><trkpt lat="44.2464083" lon="11.3618367"><ele>518.0</ele><time>2026-04-18T15:09:42.641Z</time></trkpt><trkpt lat="44.246325" lon="11.3618017"><ele>521.0</ele><time>2026-04-18T15:09:44.64Z</time></trkpt><trkpt lat="44.2462283" lon="11.3617783"><ele>521.0</ele><time>2026-04-18T15:09:47.64Z</time></trkpt><trkpt lat="44.246125" lon="11.3617667"><ele>521.0</ele><time>2026-04-18T15:09:49.64Z</time></trkpt><trkpt lat="44.2460333" lon="11.3617267"><ele>521.0</ele><time>2026-04-18T15:09:51.641Z</time></trkpt><trkpt lat="44.2459483" lon="11.3616533"><ele>521.0</ele><time>2026-04-18T15:09:53.64Z</time></trkpt><trkpt lat="44.245875" lon="11.3615733"><ele>521.0</ele><time>2026-04-18T15:09:55.641Z</time></trkpt><trkpt lat="44.2458117" lon="11.3614783"><ele>521.0</ele><time>2026-04-18T15:09:57.641Z</time></trkpt><trkpt lat="44.2457283" lon="11.361375"><ele>521.0</ele><time>2026-04-18T15:09:59.64Z</time></trkpt><trkpt lat="44.2456317" lon="11.3612567"><ele>521.0</ele><time>2026-04-18T15:10:01.641Z</time></trkpt><trkpt lat="44.2455833" lon="11.361195"><ele>521.0</ele><time>2026-04-18T15:10:02.641Z</time></trkpt><trkpt lat="44.2455067" lon="11.3611083"><ele>521.0</ele><time>2026-04-18T15:10:04.64Z</time></trkpt><trkpt lat="44.2454217" lon="11.3610633"><ele>525.8333333333333</ele><time>2026-04-18T15:10:06.641Z</time></trkpt><trkpt lat="44.2453083" lon="11.3610533"><ele>530.6666666666666</ele><time>2026-04-18T15:10:08.641Z</time></trkpt><trkpt lat="44.2452333" lon="11.3610667"><ele>535.5</ele><time>2026-04-18T15:10:09.64Z</time></trkpt><trkpt lat="44.24517" lon="11.3610867"><ele>540.3333333333334</ele><time>2026-04-18T15:10:10.64Z</time></trkpt><trkpt lat="44.2450583" lon="11.3611"><ele>545.1666666666667</ele><time>2026-04-18T15:10:12.64Z</time></trkpt><trkpt lat="44.2449933" lon="11.36108"><ele>550.0</ele><time>2026-04-18T15:10:13.64Z</time></trkpt><trkpt lat="44.2448767" lon="11.3610417"><ele>550.0</ele><time>2026-04-18T15:10:15.64Z</time></trkpt><trkpt lat="44.2448133" lon="11.3610333"><ele>550.0</ele><time>2026-04-18T15:10:16.64Z</time></trkpt><trkpt lat="44.244745" lon="11.361035"><ele>550.0</ele><time>2026-04-18T15:10:17.64Z</time></trkpt><trkpt lat="44.244675" lon="11.3610433"><ele>550.0</ele><time>2026-04-18T15:10:18.64Z</time></trkpt><trkpt lat="44.244585" lon="11.3610517"><ele>550.0</ele><time>2026-04-18T15:10:20.64Z</time></trkpt><trkpt lat="44.2445183" lon="11.3610167"><ele>550.0</ele><time>2026-04-18T15:10:23.641Z</time></trkpt><trkpt lat="44.2445367" lon="11.360915"><ele>550.0</ele><time>2026-04-18T15:10:25.641Z</time></trkpt><trkpt lat="44.2445817" lon="11.3607683"><ele>549.0</ele><time>2026-04-18T15:10:27.64Z</time></trkpt><trkpt lat="44.244605" lon="11.360605"><ele>548.0</ele><time>2026-04-18T15:10:29.64Z</time></trkpt><trkpt lat="44.2445533" lon="11.3604683"><ele>547.0</ele><time>2026-04-18T15:10:31.64Z</time></trkpt><trkpt lat="44.2445083" lon="11.360405"><ele>546.0</ele><time>2026-04-18T15:10:32.641Z</time></trkpt><trkpt lat="44.24446" lon="11.360335"><ele>545.0</ele><time>2026-04-18T15:10:33.64Z</time></trkpt><trkpt lat="44.2444183" lon="11.3602617"><ele>544.0</ele><time>2026-04-18T15:10:34.641Z</time></trkpt><trkpt lat="44.244375" lon="11.3600983"><ele>546.8</ele><time>2026-04-18T15:10:36.641Z</time></trkpt><trkpt lat="44.244365" lon="11.3599317"><ele>549.5999999999999</ele><time>2026-04-18T15:10:38.64Z</time></trkpt><trkpt lat="44.2444067" lon="11.3597717"><ele>552.4</ele><time>2026-04-18T15:10:40.64Z</time></trkpt><trkpt lat="44.2444667" lon="11.359645"><ele>555.1999999999999</ele><time>2026-04-18T15:10:42.64Z</time></trkpt><trkpt lat="44.2445383" lon="11.3595917"><ele>558.0</ele><time>2026-04-18T15:10:44.64Z</time></trkpt><trkpt lat="44.2446167" lon="11.3596433"><ele>558.0</ele><time>2026-04-18T15:10:46.64Z</time></trkpt><trkpt lat="44.2446833" lon="11.359795"><ele>558.0</ele><time>2026-04-18T15:10:48.641Z</time></trkpt><trkpt lat="44.244725" lon="11.3598767"><ele>558.0</ele><time>2026-04-18T15:10:49.641Z</time></trkpt><trkpt lat="44.2447733" lon="11.359935"><ele>558.0</ele><time>2026-04-18T15:10:50.641Z</time></trkpt><trkpt lat="44.2448783" lon="11.35998"><ele>558.0</ele><time>2026-04-18T15:10:52.64Z</time></trkpt><trkpt lat="44.244975" lon="11.359945"><ele>560.1666666666666</ele><time>2026-04-18T15:10:54.64Z</time></trkpt><trkpt lat="44.2450483" lon="11.35984"><ele>562.3333333333334</ele><time>2026-04-18T15:10:56.64Z</time></trkpt><trkpt lat="44.2450833" lon="11.3597417"><ele>564.5</ele><time>2026-04-18T15:10:58.641Z</time></trkpt><trkpt lat="44.2450467" lon="11.3596483"><ele>566.6666666666667</ele><time>2026-04-18T15:11:00.64Z</time></trkpt><trkpt lat="44.245005" lon="11.3595767"><ele>568.8333333333334</ele><time>2026-04-18T15:11:02.641Z</time></trkpt><trkpt lat="44.2450283" lon="11.3594683"><ele>571.0</ele><time>2026-04-18T15:11:04.64Z</time></trkpt><trkpt lat="44.245075" lon="11.359365"><ele>574.0</ele><time>2026-04-18T15:11:06.641Z</time></trkpt><trkpt lat="44.24511" lon="11.3592617"><ele>577.0</ele><time>2026-04-18T15:11:08.64Z</time></trkpt><trkpt lat="44.2451233" lon="11.3591467"><ele>580.0</ele><time>2026-04-18T15:11:11.64Z</time></trkpt><trkpt lat="44.245225" lon="11.359145"><ele>583.0</ele><time>2026-04-18T15:11:37.64Z</time></trkpt><trkpt lat="44.24535" lon="11.3591983"><ele>586.0</ele><time>2026-04-18T15:11:39.64Z</time></trkpt><trkpt lat="44.2454283" lon="11.3592267"><ele>586.0</ele><time>2026-04-18T15:11:40.64Z</time></trkpt><trkpt lat="44.2455033" lon="11.3592483"><ele>586.0</ele><time>2026-04-18T15:11:41.641Z</time></trkpt><trkpt lat="44.245575" lon="11.3592583"><ele>586.0</ele><time>2026-04-18T15:11:42.641Z</time></trkpt><trkpt lat="44.2456467" lon="11.3592783"><ele>586.0</ele><time>2026-04-18T15:11:43.64Z</time></trkpt><trkpt lat="44.2457117" lon="11.3592983"><ele>586.0</ele><time>2026-04-18T15:11:44.64Z</time></trkpt><trkpt lat="44.2457833" lon="11.359315"><ele>586.0</ele><time>2026-04-18T15:11:45.64Z</time></trkpt><trkpt lat="44.2459017" lon="11.3593433"><ele>588.3333333333334</ele><time>2026-04-18T15:11:47.641Z</time></trkpt><trkpt lat="44.24597" lon="11.3593717"><ele>590.6666666666667</ele><time>2026-04-18T15:11:48.641Z</time></trkpt><trkpt lat="44.2460733" lon="11.3594083"><ele>593.0</ele><time>2026-04-18T15:11:50.641Z</time></trkpt><trkpt lat="44.2461567" lon="11.3594283"><ele>595.3333333333334</ele><time>2026-04-18T15:11:52.641Z</time></trkpt><trkpt lat="44.2461817" lon="11.3593467"><ele>597.6666666666666</ele><time>2026-04-18T15:11:56.64Z</time></trkpt><trkpt lat="44.24613" lon="11.359295"><ele>600.0</ele><time>2026-04-18T15:11:58.641Z</time></trkpt><trkpt lat="44.246055" lon="11.3592317"><ele>600.0</ele><time>2026-04-18T15:12:00.64Z</time></trkpt><trkpt lat="44.2459967" lon="11.3591433"><ele>600.0</ele><time>2026-04-18T15:12:02.641Z</time></trkpt><trkpt lat="44.2459433" lon="11.3590533"><ele>600.0</ele><time>2026-04-18T15:12:04.641Z</time></trkpt><trkpt lat="44.2459" lon="11.3589633"><ele>600.0</ele><time>2026-04-18T15:12:06.641Z</time></trkpt><trkpt lat="44.2458667" lon="11.3588567"><ele>600.0</ele><time>2026-04-18T15:12:08.64Z</time></trkpt><trkpt lat="44.2458433" lon="11.358725"><ele>600.0</ele><time>2026-04-18T15:12:10.641Z</time></trkpt><trkpt lat="44.2458417" lon="11.358585"><ele>603.3333333333334</ele><time>2026-04-18T15:12:12.64Z</time></trkpt><trkpt lat="44.2458633" lon="11.3584417"><ele>606.6666666666666</ele><time>2026-04-18T15:12:14.64Z</time></trkpt><trkpt lat="44.2458783" lon="11.3583467"><ele>610.0</ele><time>2026-04-18T15:12:15.641Z</time></trkpt><trkpt lat="44.2458983" lon="11.3582333"><ele>613.3333333333333</ele><time>2026-04-18T15:12:16.64Z</time></trkpt><trkpt lat="44.24592" lon="11.35812"><ele>616.6666666666666</ele><time>2026-04-18T15:12:17.641Z</time></trkpt><trkpt lat="44.24594" lon="11.35799"><ele>620.0</ele><time>2026-04-18T15:12:18.64Z</time></trkpt><trkpt lat="44.2459633" lon="11.3578567"><ele>622.5</ele><time>2026-04-18T15:12:19.64Z</time></trkpt><trkpt lat="44.2459833" lon="11.35774"><ele>625.0</ele><time>2026-04-18T15:12:20.64Z</time></trkpt><trkpt lat="44.2459983" lon="11.3576333"><ele>627.5</ele><time>2026-04-18T15:12:21.64Z</time></trkpt><trkpt lat="44.2460133" lon="11.3575167"><ele>630.0</ele><time>2026-04-18T15:12:22.64Z</time></trkpt><trkpt lat="44.2460183" lon="11.3574233"><ele>632.5</ele><time>2026-04-18T15:12:23.64Z</time></trkpt><trkpt lat="44.24602" lon="11.3573267"><ele>635.0</ele><time>2026-04-18T15:12:24.64Z</time></trkpt><trkpt lat="44.246015" lon="11.3572367"><ele>635.8333333333333</ele><time>2026-04-18T15:12:25.639Z</time></trkpt><trkpt lat="44.2460067" lon="11.3571467"><ele>636.6666666666666</ele><time>2026-04-18T15:12:26.639Z</time></trkpt><trkpt lat="44.2460067" lon="11.3570517"><ele>637.5</ele><time>2026-04-18T15:12:27.64Z</time></trkpt><trkpt lat="44.246015" lon="11.356875"><ele>638.3333333333334</ele><time>2026-04-18T15:12:29.64Z</time></trkpt><trkpt lat="44.2460167" lon="11.3567867"><ele>639.1666666666667</ele><time>2026-04-18T15:12:30.64Z</time></trkpt><trkpt lat="44.2460217" lon="11.35666"><ele>640.0</ele><time>2026-04-18T15:12:32.64Z</time></trkpt><trkpt lat="44.2459617" lon="11.3565617"><ele>640.0</ele><time>2026-04-18T15:12:35.64Z</time></trkpt><trkpt lat="44.245915" lon="11.3564933"><ele>640.0</ele><time>2026-04-18T15:12:37.64Z</time></trkpt><trkpt lat="44.24589" lon="11.3563867"><ele>640.0</ele><time>2026-04-18T15:12:39.64Z</time></trkpt><trkpt lat="44.2459067" lon="11.3562817"><ele>640.0</ele><time>2026-04-18T15:12:42.639Z</time></trkpt><trkpt lat="44.2460033" lon="11.356305"><ele>640.0</ele><time>2026-04-18T15:12:45.639Z</time></trkpt><trkpt lat="44.2460733" lon="11.3563167"><ele>640.0</ele><time>2026-04-18T15:12:47.639Z</time></trkpt><trkpt lat="44.2461567" lon="11.3562017"><ele>641.3333333333334</ele><time>2026-04-18T15:12:49.64Z</time></trkpt><trkpt lat="44.2462167" lon="11.3561083"><ele>642.6666666666667</ele><time>2026-04-18T15:12:50.64Z</time></trkpt><trkpt lat="44.246275" lon="11.356"><ele>644.0</ele><time>2026-04-18T15:12:51.64Z</time></trkpt><trkpt lat="44.2463433" lon="11.3559183"><ele>645.3333333333334</ele><time>2026-04-18T15:12:52.639Z</time></trkpt><trkpt lat="44.2464117" lon="11.3558667"><ele>646.6666666666666</ele><time>2026-04-18T15:12:53.639Z</time></trkpt><trkpt lat="44.2464833" lon="11.355825"><ele>648.0</ele><time>2026-04-18T15:12:54.639Z</time></trkpt><trkpt lat="44.2465533" lon="11.3557767"><ele>649.3333333333334</ele><time>2026-04-18T15:12:55.639Z</time></trkpt><trkpt lat="44.2466117" lon="11.3557233"><ele>650.6666666666666</ele><time>2026-04-18T15:12:56.639Z</time></trkpt><trkpt lat="44.2466917" lon="11.3556583"><ele>652.0</ele><time>2026-04-18T15:12:58.639Z</time></trkpt><trkpt lat="44.246755" lon="11.3555283"><ele>653.3333333333333</ele><time>2026-04-18T15:13:00.64Z</time></trkpt><trkpt lat="44.2467733" lon="11.3554283"><ele>654.6666666666666</ele><time>2026-04-18T15:13:01.639Z</time></trkpt><trkpt lat="44.2467833" lon="11.355315"><ele>656.0</ele><time>2026-04-18T15:13:02.639Z</time></trkpt><trkpt lat="44.2467917" lon="11.3551867"><ele>660.25</ele><time>2026-04-18T15:13:03.639Z</time></trkpt><trkpt lat="44.246805" lon="11.35502"><ele>664.5</ele><time>2026-04-18T15:13:04.639Z</time></trkpt><trkpt lat="44.2468233" lon="11.3548633"><ele>668.75</ele><time>2026-04-18T15:13:05.639Z</time></trkpt><trkpt lat="44.24684" lon="11.3547167"><ele>673.0</ele><time>2026-04-18T15:13:06.639Z</time></trkpt><trkpt lat="44.2468783" lon="11.35455"><ele>674.0</ele><time>2026-04-18T15:13:07.639Z</time></trkpt><trkpt lat="44.2469333" lon="11.3543817"><ele>675.0</ele><time>2026-04-18T15:13:08.64Z</time></trkpt><trkpt lat="44.24699" lon="11.3542333"><ele>676.0</ele><time>2026-04-18T15:13:09.639Z</time></trkpt><trkpt lat="44.247055" lon="11.354105"><ele>677.0</ele><time>2026-04-18T15:13:10.64Z</time></trkpt><trkpt lat="44.2471083" lon="11.3539883"><ele>677.0</ele><time>2026-04-18T15:13:11.639Z</time></trkpt><trkpt lat="44.24715" lon="11.35388"><ele>677.0</ele><time>2026-04-18T15:13:12.639Z</time></trkpt><trkpt lat="44.2471767" lon="11.3537583"><ele>677.0</ele><time>2026-04-18T15:13:13.64Z</time></trkpt><trkpt lat="44.2471817" lon="11.3536467"><ele>677.0</ele><time>2026-04-18T15:13:14.64Z</time></trkpt><trkpt lat="44.2471567" lon="11.3535567"><ele>677.0</ele><time>2026-04-18T15:13:15.639Z</time></trkpt><trkpt lat="44.2471167" lon="11.3534117"><ele>677.0</ele><time>2026-04-18T15:13:17.639Z</time></trkpt><trkpt lat="44.2471667" lon="11.3532733"><ele>677.0</ele><time>2026-04-18T15:13:19.639Z</time></trkpt><trkpt lat="44.2472117" lon="11.353195"><ele>677.0</ele><time>2026-04-18T15:13:20.639Z</time></trkpt><trkpt lat="44.24726" lon="11.35312"><ele>677.0</ele><time>2026-04-18T15:13:21.639Z</time></trkpt><trkpt lat="44.2473183" lon="11.3530317"><ele>677.0</ele><time>2026-04-18T15:13:22.64Z</time></trkpt><trkpt lat="44.2473867" lon="11.3529467"><ele>677.0</ele><time>2026-04-18T15:13:23.64Z</time></trkpt><trkpt lat="44.2474467" lon="11.3528833"><ele>677.0</ele><time>2026-04-18T15:13:24.639Z</time></trkpt><trkpt lat="44.2475" lon="11.352805"><ele>679.5</ele><time>2026-04-18T15:13:26.64Z</time></trkpt><trkpt lat="44.2474483" lon="11.35275"><ele>682.0</ele><time>2026-04-18T15:13:29.639Z</time></trkpt><trkpt lat="44.24735" lon="11.35277"><ele>684.5</ele><time>2026-04-18T15:13:31.639Z</time></trkpt><trkpt lat="44.2472733" lon="11.3528017"><ele>687.0</ele><time>2026-04-18T15:13:32.639Z</time></trkpt><trkpt lat="44.2471917" lon="11.3528283"><ele>689.5</ele><time>2026-04-18T15:13:33.64Z</time></trkpt><trkpt lat="44.247095" lon="11.35285"><ele>692.0</ele><time>2026-04-18T15:13:34.64Z</time></trkpt><trkpt lat="44.2469817" lon="11.35287"><ele>692.0</ele><time>2026-04-18T15:13:35.64Z</time></trkpt><trkpt lat="44.246865" lon="11.352895"><ele>692.0</ele><time>2026-04-18T15:13:36.639Z</time></trkpt><trkpt lat="44.246725" lon="11.3529333"><ele>692.0</ele><time>2026-04-18T15:13:37.639Z</time></trkpt><trkpt lat="44.24659" lon="11.352975"><ele>692.0</ele><time>2026-04-18T15:13:38.64Z</time></trkpt><trkpt lat="44.2464533" lon="11.3530233"><ele>691.75</ele><time>2026-04-18T15:13:39.639Z</time></trkpt><trkpt lat="44.2463133" lon="11.3530917"><ele>691.5</ele><time>2026-04-18T15:13:40.639Z</time></trkpt><trkpt lat="44.2461783" lon="11.3531783"><ele>691.25</ele><time>2026-04-18T15:13:41.64Z</time></trkpt><trkpt lat="44.24606" lon="11.353285"><ele>691.0</ele><time>2026-04-18T15:13:42.639Z</time></trkpt><trkpt lat="44.2459733" lon="11.3533933"><ele>691.0</ele><time>2026-04-18T15:13:43.639Z</time></trkpt><trkpt lat="44.2459017" lon="11.3534983"><ele>691.0</ele><time>2026-04-18T15:13:44.639Z</time></trkpt><trkpt lat="44.245835" lon="11.353575"><ele>691.0</ele><time>2026-04-18T15:13:45.639Z</time></trkpt><trkpt lat="44.2457683" lon="11.3536033"><ele>691.0</ele><time>2026-04-18T15:13:46.64Z</time></trkpt><trkpt lat="44.245665" lon="11.353545"><ele>691.0</ele><time>2026-04-18T15:13:48.639Z</time></trkpt><trkpt lat="44.2456267" lon="11.3534483"><ele>693.25</ele><time>2026-04-18T15:13:49.639Z</time></trkpt><trkpt lat="44.2456033" lon="11.3533133"><ele>695.5</ele><time>2026-04-18T15:13:50.64Z</time></trkpt><trkpt lat="44.2456133" lon="11.35313"><ele>697.75</ele><time>2026-04-18T15:13:51.64Z</time></trkpt><trkpt lat="44.245645" lon="11.3529567"><ele>700.0</ele><time>2026-04-18T15:13:52.64Z</time></trkpt><trkpt lat="44.245705" lon="11.3527917"><ele>700.5</ele><time>2026-04-18T15:13:53.64Z</time></trkpt><trkpt lat="44.24575" lon="11.3526217"><ele>701.0</ele><time>2026-04-18T15:13:54.639Z</time></trkpt><trkpt lat="44.2457783" lon="11.3524467"><ele>701.5</ele><time>2026-04-18T15:13:55.639Z</time></trkpt><trkpt lat="44.2457917" lon="11.3522417"><ele>702.0</ele><time>2026-04-18T15:13:56.639Z</time></trkpt><trkpt lat="44.245795" lon="11.35207"><ele>703.3333333333334</ele><time>2026-04-18T15:13:57.639Z</time></trkpt><trkpt lat="44.2458017" lon="11.351955"><ele>704.6666666666666</ele><time>2026-04-18T15:13:58.639Z</time></trkpt><trkpt lat="44.2458383" lon="11.35187"><ele>706.0</ele><time>2026-04-18T15:13:59.639Z</time></trkpt><trkpt lat="44.2458967" lon="11.3517983"><ele>707.3333333333333</ele><time>2026-04-18T15:14:00.639Z</time></trkpt><trkpt lat="44.2459617" lon="11.35173"><ele>708.6666666666666</ele><time>2026-04-18T15:14:01.639Z</time></trkpt><trkpt lat="44.24602" lon="11.35165"><ele>710.0</ele><time>2026-04-18T15:14:02.639Z</time></trkpt><trkpt lat="44.246075" lon="11.35155"><ele>710.0</ele><time>2026-04-18T15:14:03.639Z</time></trkpt><trkpt lat="44.2461133" lon="11.35146"><ele>710.0</ele><time>2026-04-18T15:14:04.64Z</time></trkpt><trkpt lat="44.2461383" lon="11.3513633"><ele>710.0</ele><time>2026-04-18T15:14:05.64Z</time></trkpt><trkpt lat="44.2461617" lon="11.351255"><ele>710.0</ele><time>2026-04-18T15:14:06.64Z</time></trkpt><trkpt lat="44.246175" lon="11.3511383"><ele>710.0</ele><time>2026-04-18T15:14:07.639Z</time></trkpt><trkpt lat="44.2461683" lon="11.3510217"><ele>710.0</ele><time>2026-04-18T15:14:08.64Z</time></trkpt><trkpt lat="44.2461417" lon="11.350905"><ele>710.6</ele><time>2026-04-18T15:14:09.639Z</time></trkpt><trkpt lat="44.2460833" lon="11.3508017"><ele>711.2</ele><time>2026-04-18T15:14:10.639Z</time></trkpt><trkpt lat="44.24601" lon="11.350695"><ele>711.8</ele><time>2026-04-18T15:14:11.639Z</time></trkpt><trkpt lat="44.2459283" lon="11.3505967"><ele>712.4</ele><time>2026-04-18T15:14:12.639Z</time></trkpt><trkpt lat="44.2458517" lon="11.3504967"><ele>713.0</ele><time>2026-04-18T15:14:13.64Z</time></trkpt><trkpt lat="44.2457967" lon="11.3503967"><ele>713.4</ele><time>2026-04-18T15:14:14.639Z</time></trkpt><trkpt lat="44.2457717" lon="11.3502883"><ele>713.8</ele><time>2026-04-18T15:14:15.639Z</time></trkpt><trkpt lat="44.2457733" lon="11.350165"><ele>714.2</ele><time>2026-04-18T15:14:16.64Z</time></trkpt><trkpt lat="44.2458117" lon="11.350035"><ele>714.6</ele><time>2026-04-18T15:14:17.639Z</time></trkpt><trkpt lat="44.24586" lon="11.3498933"><ele>715.0</ele><time>2026-04-18T15:14:18.639Z</time></trkpt><trkpt lat="44.2459017" lon="11.34974"><ele>717.4</ele><time>2026-04-18T15:14:19.64Z</time></trkpt><trkpt lat="44.245925" lon="11.3495767"><ele>719.8</ele><time>2026-04-18T15:14:20.64Z</time></trkpt><trkpt lat="44.2459217" lon="11.3494217"><ele>722.2</ele><time>2026-04-18T15:14:21.639Z</time></trkpt><trkpt lat="44.2459133" lon="11.3492783"><ele>724.6</ele><time>2026-04-18T15:14:22.64Z</time></trkpt><trkpt lat="44.2458967" lon="11.3491517"><ele>727.0</ele><time>2026-04-18T15:14:23.639Z</time></trkpt><trkpt lat="44.2458967" lon="11.3490283"><ele>727.0</ele><time>2026-04-18T15:14:24.639Z</time></trkpt><trkpt lat="44.245915" lon="11.3488967"><ele>727.0</ele><time>2026-04-18T15:14:25.639Z</time></trkpt><trkpt lat="44.2459333" lon="11.3487833"><ele>727.0</ele><time>2026-04-18T15:14:26.64Z</time></trkpt><trkpt lat="44.2459433" lon="11.3486867"><ele>727.0</ele><time>2026-04-18T15:14:27.64Z</time></trkpt><trkpt lat="44.2459433" lon="11.3485917"><ele>727.0</ele><time>2026-04-18T15:14:29.64Z</time></trkpt><trkpt lat="44.245875" lon="11.3485517"><ele>727.0</ele><time>2026-04-18T15:14:33.639Z</time></trkpt><trkpt lat="44.2459567" lon="11.3485167"><ele>727.1666666666667</ele><time>2026-04-18T15:14:55.639Z</time></trkpt><trkpt lat="44.2460183" lon="11.3484333"><ele>727.3333333333334</ele><time>2026-04-18T15:14:58.639Z</time></trkpt><trkpt lat="44.246075" lon="11.3483217"><ele>727.5</ele><time>2026-04-18T15:15:01.639Z</time></trkpt><trkpt lat="44.24611" lon="11.3482483"><ele>727.6666666666666</ele><time>2026-04-18T15:15:03.64Z</time></trkpt><trkpt lat="44.2461767" lon="11.348155"><ele>727.8333333333333</ele><time>2026-04-18T15:15:06.64Z</time></trkpt><trkpt lat="44.2462267" lon="11.348065"><ele>728.0</ele><time>2026-04-18T15:15:08.639Z</time></trkpt><trkpt lat="44.2462617" lon="11.34799"><ele>727.3333333333333</ele><time>2026-04-18T15:15:10.64Z</time></trkpt><trkpt lat="44.246315" lon="11.3478933"><ele>726.6666666666666</ele><time>2026-04-18T15:15:13.64Z</time></trkpt><trkpt lat="44.2463583" lon="11.3477783"><ele>726.0</ele><time>2026-04-18T15:15:16.639Z</time></trkpt><trkpt lat="44.24639" lon="11.34769"><ele>725.3333333333334</ele><time>2026-04-18T15:15:18.639Z</time></trkpt><trkpt lat="44.2464283" lon="11.3475817"><ele>724.6666666666667</ele><time>2026-04-18T15:15:20.639Z</time></trkpt><trkpt lat="44.246465" lon="11.3474667"><ele>724.0</ele><time>2026-04-18T15:15:22.639Z</time></trkpt><trkpt lat="44.24651" lon="11.347345"><ele>720.6666666666667</ele><time>2026-04-18T15:15:24.64Z</time></trkpt><trkpt lat="44.246545" lon="11.347215"><ele>717.3333333333334</ele><time>2026-04-18T15:15:26.639Z</time></trkpt><trkpt lat="44.2465583" lon="11.3471117"><ele>714.0</ele><time>2026-04-18T15:15:28.639Z</time></trkpt><trkpt lat="44.2465733" lon="11.3469933"><ele>710.6666666666666</ele><time>2026-04-18T15:15:30.639Z</time></trkpt><trkpt lat="44.2465833" lon="11.34687"><ele>707.3333333333333</ele><time>2026-04-18T15:15:32.639Z</time></trkpt><trkpt lat="44.2465883" lon="11.3467567"><ele>704.0</ele><time>2026-04-18T15:15:34.639Z</time></trkpt><trkpt lat="44.2465983" lon="11.346625"><ele>702.8333333333333</ele><time>2026-04-18T15:15:36.639Z</time></trkpt><trkpt lat="44.2465983" lon="11.34649"><ele>701.6666666666666</ele><time>2026-04-18T15:15:38.639Z</time></trkpt><trkpt lat="44.2466033" lon="11.34637"><ele>700.5</ele><time>2026-04-18T15:15:40.639Z</time></trkpt><trkpt lat="44.2465933" lon="11.3462617"><ele>699.3333333333334</ele><time>2026-04-18T15:15:42.639Z</time></trkpt><trkpt lat="44.2465767" lon="11.3461617"><ele>698.1666666666667</ele><time>2026-04-18T15:15:44.639Z</time></trkpt><trkpt lat="44.2465267" lon="11.34606"><ele>697.0</ele><time>2026-04-18T15:15:47.639Z</time></trkpt><trkpt lat="44.2464683" lon="11.345955"><ele>696.0</ele><time>2026-04-18T15:15:50.638Z</time></trkpt><trkpt lat="44.24645" lon="11.3458633"><ele>695.0</ele><time>2026-04-18T15:15:52.638Z</time></trkpt><trkpt lat="44.2464533" lon="11.3457683"><ele>694.0</ele><time>2026-04-18T15:15:54.639Z</time></trkpt><trkpt lat="44.2464817" lon="11.3456333"><ele>693.0</ele><time>2026-04-18T15:15:57.638Z</time></trkpt><trkpt lat="44.2464967" lon="11.345525"><ele>692.0</ele><time>2026-04-18T15:15:59.638Z</time></trkpt><trkpt lat="44.2465283" lon="11.3454183"><ele>691.0</ele><time>2026-04-18T15:16:02.638Z</time></trkpt><trkpt lat="44.24655" lon="11.3453267"><ele>687.0</ele><time>2026-04-18T15:16:04.639Z</time></trkpt><trkpt lat="44.2465433" lon="11.3452283"><ele>683.0</ele><time>2026-04-18T15:16:06.639Z</time></trkpt><trkpt lat="44.246545" lon="11.347215"><ele>685.3333333333333</ele><time>2026-04-18T15:15:26.639Z</time></trkpt><trkpt lat="44.2465583" lon="11.3471117"><ele>687.6666666666666</ele><time>2026-04-18T15:15:28.639Z</time></trkpt><trkpt lat="44.2465733" lon="11.3469933"><ele>690.0</ele><time>2026-04-18T15:15:30.639Z</time></trkpt><trkpt lat="44.2465833" lon="11.34687"><ele>692.3333333333334</ele><time>2026-04-18T15:15:32.639Z</time></trkpt><trkpt lat="44.2465883" lon="11.3467567"><ele>694.6666666666667</ele><time>2026-04-18T15:15:34.639Z</time></trkpt><trkpt lat="44.2465983" lon="11.346625"><ele>697.0</ele><time>2026-04-18T15:15:36.639Z</time></trkpt><trkpt lat="44.2465983" lon="11.34649"><ele>696.0</ele><time>2026-04-18T15:15:38.639Z</time></trkpt><trkpt lat="44.2466033" lon="11.34637"><ele>695.0</ele><time>2026-04-18T15:15:40.639Z</time></trkpt><trkpt lat="44.2465933" lon="11.3462617"><ele>694.0</ele><time>2026-04-18T15:15:42.639Z</time></trkpt><trkpt lat="44.2465767" lon="11.3461617"><ele>693.0</ele><time>2026-04-18T15:15:44.639Z</time></trkpt><trkpt lat="44.2465267" lon="11.34606"><ele>692.0</ele><time>2026-04-18T15:15:47.639Z</time></trkpt><trkpt lat="44.2464683" lon="11.345955"><ele>691.0</ele><time>2026-04-18T15:15:50.638Z</time></trkpt><trkpt lat="44.24645" lon="11.3458633"><ele>691.0</ele><time>2026-04-18T15:15:52.638Z</time></trkpt><trkpt lat="44.2464533" lon="11.3457683"><ele>691.0</ele><time>2026-04-18T15:15:54.639Z</time></trkpt><trkpt lat="44.2464817" lon="11.3456333"><ele>691.0</ele><time>2026-04-18T15:15:57.638Z</time></trkpt><trkpt lat="44.2464967" lon="11.345525"><ele>691.0</ele><time>2026-04-18T15:15:59.638Z</time></trkpt><trkpt lat="44.2465283" lon="11.3454183"><ele>691.0</ele><time>2026-04-18T15:16:02.638Z</time></trkpt><trkpt lat="44.24655" lon="11.3453267"><ele>691.0</ele><time>2026-04-18T15:16:04.639Z</time></trkpt><trkpt lat="44.2465433" lon="11.3452283"><ele>689.4</ele><time>2026-04-18T15:16:06.639Z</time></trkpt><trkpt lat="44.246515" lon="11.3451117"><ele>687.8</ele><time>2026-04-18T15:16:08.639Z</time></trkpt><trkpt lat="44.2464717" lon="11.344965"><ele>686.1999999999999</ele><time>2026-04-18T15:16:10.638Z</time></trkpt><trkpt lat="44.2464467" lon="11.3448183"><ele>684.5999999999999</ele><time>2026-04-18T15:16:12.638Z</time></trkpt><trkpt lat="44.2464733" lon="11.344685"><ele>683.0</ele><time>2026-04-18T15:16:14.638Z</time></trkpt><trkpt lat="44.246545" lon="11.34454"><ele>682.3333333333333</ele><time>2026-04-18T15:16:16.638Z</time></trkpt><trkpt lat="44.246595" lon="11.3444683"><ele>681.6666666666666</ele><time>2026-04-18T15:16:17.639Z</time></trkpt><trkpt lat="44.2466333" lon="11.344385"><ele>681.0</ele><time>2026-04-18T15:16:18.638Z</time></trkpt><trkpt lat="44.246655" lon="11.3442933"><ele>680.3333333333334</ele><time>2026-04-18T15:16:19.638Z</time></trkpt><trkpt lat="44.2466817" lon="11.3441367"><ele>679.6666666666667</ele><time>2026-04-18T15:16:21.639Z</time></trkpt><trkpt lat="44.246745" lon="11.3440433"><ele>679.0</ele><time>2026-04-18T15:16:23.639Z</time></trkpt><trkpt lat="44.2468367" lon="11.344015"><ele>679.0</ele><time>2026-04-18T15:16:25.638Z</time></trkpt><trkpt lat="44.2469517" lon="11.3439533"><ele>679.0</ele><time>2026-04-18T15:16:27.638Z</time></trkpt><trkpt lat="44.24709" lon="11.3439367"><ele>679.0</ele><time>2026-04-18T15:16:29.639Z</time></trkpt><trkpt lat="44.2471767" lon="11.3439483"><ele>679.0</ele><time>2026-04-18T15:16:30.638Z</time></trkpt><trkpt lat="44.247265" lon="11.3439533"><ele>679.0</ele><time>2026-04-18T15:16:31.638Z</time></trkpt><trkpt lat="44.24734" lon="11.34396"><ele>678.0</ele><time>2026-04-18T15:16:32.639Z</time></trkpt><trkpt lat="44.2474617" lon="11.3439517"><ele>677.0</ele><time>2026-04-18T15:16:34.638Z</time></trkpt><trkpt lat="44.247525" lon="11.3439233"><ele>676.0</ele><time>2026-04-18T15:16:35.638Z</time></trkpt><trkpt lat="44.2476467" lon="11.3438783"><ele>675.0</ele><time>2026-04-18T15:16:37.639Z</time></trkpt><trkpt lat="44.2477717" lon="11.3438133"><ele>674.0</ele><time>2026-04-18T15:16:39.638Z</time></trkpt><trkpt lat="44.2478533" lon="11.3437517"><ele>675.5</ele><time>2026-04-18T15:16:40.638Z</time></trkpt><trkpt lat="44.2479333" lon="11.3437067"><ele>677.0</ele><time>2026-04-18T15:16:41.638Z</time></trkpt><trkpt lat="44.2480083" lon="11.34366"><ele>678.5</ele><time>2026-04-18T15:16:42.638Z</time></trkpt><trkpt lat="44.2480733" lon="11.3436083"><ele>680.0</ele><time>2026-04-18T15:16:43.638Z</time></trkpt><trkpt lat="44.2481317" lon="11.343555"><ele>681.5</ele><time>2026-04-18T15:16:44.639Z</time></trkpt><trkpt lat="44.2482167" lon="11.343435"><ele>683.0</ele><time>2026-04-18T15:16:46.638Z</time></trkpt><trkpt lat="44.248315" lon="11.343305"><ele>683.0</ele><time>2026-04-18T15:16:48.639Z</time></trkpt><trkpt lat="44.24837" lon="11.3432317"><ele>683.0</ele><time>2026-04-18T15:16:49.639Z</time></trkpt><trkpt lat="44.2484233" lon="11.3431617"><ele>683.0</ele><time>2026-04-18T15:16:50.638Z</time></trkpt><trkpt lat="44.248485" lon="11.3430517"><ele>683.0</ele><time>2026-04-18T15:16:52.638Z</time></trkpt><trkpt lat="44.2485" lon="11.34296"><ele>683.0</ele><time>2026-04-18T15:16:54.638Z</time></trkpt><trkpt lat="44.2484983" lon="11.3428283"><ele>683.0</ele><time>2026-04-18T15:16:57.638Z</time></trkpt><trkpt lat="44.248505" lon="11.34273"><ele>684.1666666666666</ele><time>2026-04-18T15:16:59.638Z</time></trkpt><trkpt lat="44.2485067" lon="11.3426317"><ele>685.3333333333333</ele><time>2026-04-18T15:17:01.639Z</time></trkpt><trkpt lat="44.2485217" lon="11.342525"><ele>686.5</ele><time>2026-04-18T15:17:03.638Z</time></trkpt><trkpt lat="44.2485283" lon="11.3424283"><ele>687.6666666666666</ele><time>2026-04-18T15:17:05.639Z</time></trkpt><trkpt lat="44.248505" lon="11.342325"><ele>688.8333333333334</ele><time>2026-04-18T15:17:07.638Z</time></trkpt><trkpt lat="44.2485017" lon="11.3422167"><ele>690.0</ele><time>2026-04-18T15:17:09.638Z</time></trkpt><trkpt lat="44.24852" lon="11.3420783"><ele>691.0</ele><time>2026-04-18T15:17:11.639Z</time></trkpt><trkpt lat="44.2485167" lon="11.3419267"><ele>692.0</ele><time>2026-04-18T15:17:13.639Z</time></trkpt><trkpt lat="44.2485067" lon="11.3418383"><ele>693.0</ele><time>2026-04-18T15:17:14.638Z</time></trkpt><trkpt lat="44.2484883" lon="11.341675"><ele>694.0</ele><time>2026-04-18T15:17:16.639Z</time></trkpt><trkpt lat="44.2485017" lon="11.3415483"><ele>695.0</ele><time>2026-04-18T15:17:18.639Z</time></trkpt><trkpt lat="44.2485333" lon="11.3414283"><ele>694.8333333333333</ele><time>2026-04-18T15:17:20.638Z</time></trkpt><trkpt lat="44.2485533" lon="11.34129"><ele>694.6666666666666</ele><time>2026-04-18T15:17:22.638Z</time></trkpt><trkpt lat="44.24855" lon="11.3411983"><ele>694.5</ele><time>2026-04-18T15:17:23.638Z</time></trkpt><trkpt lat="44.2485367" lon="11.3411067"><ele>694.3333333333334</ele><time>2026-04-18T15:17:24.639Z</time></trkpt><trkpt lat="44.248535" lon="11.3410183"><ele>694.1666666666667</ele><time>2026-04-18T15:17:25.638Z</time></trkpt><trkpt lat="44.24852" lon="11.3408717"><ele>694.0</ele><time>2026-04-18T15:17:27.638Z</time></trkpt><trkpt lat="44.2484817" lon="11.340765"><ele>694.0</ele><time>2026-04-18T15:17:29.638Z</time></trkpt><trkpt lat="44.24844" lon="11.34069"><ele>694.0</ele><time>2026-04-18T15:17:31.638Z</time></trkpt><trkpt lat="44.2484783" lon="11.3405967"><ele>694.0</ele><time>2026-04-18T15:17:34.639Z</time></trkpt><trkpt lat="44.24854" lon="11.3405783"><ele>694.0</ele><time>2026-04-18T15:17:36.639Z</time></trkpt><trkpt lat="44.24861" lon="11.3405567"><ele>694.0</ele><time>2026-04-18T15:17:38.638Z</time></trkpt><trkpt lat="44.248675" lon="11.34052"><ele>694.0</ele><time>2026-04-18T15:17:40.639Z</time></trkpt><trkpt lat="44.2487633" lon="11.3404883"><ele>694.0</ele><time>2026-04-18T15:17:43.638Z</time></trkpt><trkpt lat="44.2488383" lon="11.340475"><ele>693.2</ele><time>2026-04-18T15:17:45.639Z</time></trkpt><trkpt lat="44.2489217" lon="11.3404567"><ele>692.4000000000001</ele><time>2026-04-18T15:17:47.638Z</time></trkpt><trkpt lat="44.24903" lon="11.3404567"><ele>691.6</ele><time>2026-04-18T15:17:49.638Z</time></trkpt><trkpt lat="44.2491383" lon="11.340505"><ele>690.8</ele><time>2026-04-18T15:17:51.638Z</time></trkpt><trkpt lat="44.249225" lon="11.340545"><ele>690.0</ele><time>2026-04-18T15:17:53.639Z</time></trkpt><trkpt lat="44.2492867" lon="11.3405683"><ele>688.1666666666666</ele><time>2026-04-18T15:17:55.638Z</time></trkpt><trkpt lat="44.2493517" lon="11.3406067"><ele>686.3333333333334</ele><time>2026-04-18T15:17:57.638Z</time></trkpt><trkpt lat="44.249425" lon="11.340665"><ele>684.5</ele><time>2026-04-18T15:17:59.638Z</time></trkpt><trkpt lat="44.2495067" lon="11.34071"><ele>682.6666666666667</ele><time>2026-04-18T15:18:01.638Z</time></trkpt><trkpt lat="44.2495883" lon="11.340735"><ele>680.8333333333334</ele><time>2026-04-18T15:18:03.639Z</time></trkpt><trkpt lat="44.2496517" lon="11.34072"><ele>679.0</ele><time>2026-04-18T15:18:05.638Z</time></trkpt><trkpt lat="44.249705" lon="11.34082"><ele>679.0</ele><time>2026-04-18T15:18:08.639Z</time></trkpt><trkpt lat="44.2497617" lon="11.3409317"><ele>679.0</ele><time>2026-04-18T15:18:10.638Z</time></trkpt><trkpt lat="44.2498383" lon="11.34105"><ele>679.0</ele><time>2026-04-18T15:18:12.639Z</time></trkpt><trkpt lat="44.24991" lon="11.3411833"><ele>679.0</ele><time>2026-04-18T15:18:14.639Z</time></trkpt><trkpt lat="44.25" lon="11.34129"><ele>680.0</ele><time>2026-04-18T15:18:16.639Z</time></trkpt><trkpt lat="44.2500783" lon="11.3413817"><ele>681.0</ele><time>2026-04-18T15:18:18.638Z</time></trkpt><trkpt lat="44.2501583" lon="11.34143"><ele>682.0</ele><time>2026-04-18T15:18:20.639Z</time></trkpt><trkpt lat="44.25023" lon="11.3414067"><ele>683.0</ele><time>2026-04-18T15:18:22.638Z</time></trkpt><trkpt lat="44.2502883" lon="11.3413667"><ele>684.0</ele><time>2026-04-18T15:18:24.638Z</time></trkpt><trkpt lat="44.25036" lon="11.3413317"><ele>685.0</ele><time>2026-04-18T15:18:26.639Z</time></trkpt><trkpt lat="44.250445" lon="11.3413233"><ele>685.0</ele><time>2026-04-18T15:18:29.638Z</time></trkpt><trkpt lat="44.2505217" lon="11.3413183"><ele>685.0</ele><time>2026-04-18T15:18:31.638Z</time></trkpt><trkpt lat="44.2506183" lon="11.3413367"><ele>685.0</ele><time>2026-04-18T15:18:33.639Z</time></trkpt><trkpt lat="44.2506717" lon="11.3414167"><ele>685.0</ele><time>2026-04-18T15:18:35.639Z</time></trkpt><trkpt lat="44.25067" lon="11.341555"><ele>685.0</ele><time>2026-04-18T15:18:37.639Z</time></trkpt><trkpt lat="44.2506633" lon="11.3416717"><ele>685.0</ele><time>2026-04-18T15:18:38.638Z</time></trkpt><trkpt lat="44.2506617" lon="11.3417967"><ele>683.5</ele><time>2026-04-18T15:18:39.638Z</time></trkpt><trkpt lat="44.2506533" lon="11.3419317"><ele>682.0</ele><time>2026-04-18T15:18:40.639Z</time></trkpt><trkpt lat="44.2506483" lon="11.3420833"><ele>680.5</ele><time>2026-04-18T15:18:41.638Z</time></trkpt><trkpt lat="44.250635" lon="11.3422617"><ele>679.0</ele><time>2026-04-18T15:18:42.638Z</time></trkpt><trkpt lat="44.2506317" lon="11.342445"><ele>677.25</ele><time>2026-04-18T15:18:43.639Z</time></trkpt><trkpt lat="44.2506267" lon="11.34264"><ele>675.5</ele><time>2026-04-18T15:18:44.639Z</time></trkpt><trkpt lat="44.2506233" lon="11.3428217"><ele>673.75</ele><time>2026-04-18T15:18:45.638Z</time></trkpt><trkpt lat="44.2506167" lon="11.3429967"><ele>672.0</ele><time>2026-04-18T15:18:46.638Z</time></trkpt><trkpt lat="44.2506033" lon="11.3431667"><ele>668.0</ele><time>2026-04-18T15:18:47.639Z</time></trkpt><trkpt lat="44.2505833" lon="11.3433283"><ele>664.0</ele><time>2026-04-18T15:18:48.639Z</time></trkpt><trkpt lat="44.25055" lon="11.3434817"><ele>660.0</ele><time>2026-04-18T15:18:49.638Z</time></trkpt><trkpt lat="44.2505017" lon="11.3436233"><ele>656.0</ele><time>2026-04-18T15:18:50.639Z</time></trkpt><trkpt lat="44.2504583" lon="11.3437517"><ele>652.0</ele><time>2026-04-18T15:18:51.639Z</time></trkpt><trkpt lat="44.2504433" lon="11.3438483"><ele>652.0</ele><time>2026-04-18T15:18:52.638Z</time></trkpt><trkpt lat="44.2504383" lon="11.3439417"><ele>652.0</ele><time>2026-04-18T15:18:53.639Z</time></trkpt><trkpt lat="44.25045" lon="11.34405"><ele>652.0</ele><time>2026-04-18T15:18:54.638Z</time></trkpt><trkpt lat="44.2505033" lon="11.3441367"><ele>652.0</ele><time>2026-04-18T15:18:55.639Z</time></trkpt><trkpt lat="44.2505783" lon="11.3442133"><ele>652.0</ele><time>2026-04-18T15:18:56.638Z</time></trkpt><trkpt lat="44.2506683" lon="11.3443133"><ele>652.0</ele><time>2026-04-18T15:18:57.638Z</time></trkpt><trkpt lat="44.25077" lon="11.3444367"><ele>652.0</ele><time>2026-04-18T15:18:58.638Z</time></trkpt><trkpt lat="44.2508617" lon="11.3445833"><ele>652.0</ele><time>2026-04-18T15:18:59.639Z</time></trkpt><trkpt lat="44.2509483" lon="11.344755"><ele>652.0</ele><time>2026-04-18T15:19:00.639Z</time></trkpt><trkpt lat="44.2510333" lon="11.3449283"><ele>652.0</ele><time>2026-04-18T15:19:01.639Z</time></trkpt><trkpt lat="44.2511133" lon="11.3450817"><ele>652.8</ele><time>2026-04-18T15:19:02.638Z</time></trkpt><trkpt lat="44.2511833" lon="11.3452117"><ele>653.6</ele><time>2026-04-18T15:19:03.638Z</time></trkpt><trkpt lat="44.2512683" lon="11.3453117"><ele>654.4</ele><time>2026-04-18T15:19:04.638Z</time></trkpt><trkpt lat="44.25136" lon="11.345385"><ele>655.1999999999999</ele><time>2026-04-18T15:19:05.638Z</time></trkpt><trkpt lat="44.2514567" lon="11.3454117"><ele>656.0</ele><time>2026-04-18T15:19:06.638Z</time></trkpt><trkpt lat="44.2515633" lon="11.345375"><ele>656.0</ele><time>2026-04-18T15:19:07.639Z</time></trkpt><trkpt lat="44.251675" lon="11.3453217"><ele>656.0</ele><time>2026-04-18T15:19:08.638Z</time></trkpt><trkpt lat="44.2517783" lon="11.3453"><ele>656.0</ele><time>2026-04-18T15:19:09.638Z</time></trkpt><trkpt lat="44.2518767" lon="11.3453233"><ele>656.0</ele><time>2026-04-18T15:19:10.639Z</time></trkpt><trkpt lat="44.25196" lon="11.3453783"><ele>656.0</ele><time>2026-04-18T15:19:11.638Z</time></trkpt><trkpt lat="44.2520717" lon="11.345455"><ele>656.0</ele><time>2026-04-18T15:19:12.638Z</time></trkpt><trkpt lat="44.2521933" lon="11.3455283"><ele>656.0</ele><time>2026-04-18T15:19:13.638Z</time></trkpt><trkpt lat="44.2523167" lon="11.3455867"><ele>656.0</ele><time>2026-04-18T15:19:14.639Z</time></trkpt><trkpt lat="44.2524333" lon="11.3456383"><ele>656.0</ele><time>2026-04-18T15:19:15.638Z</time></trkpt><trkpt lat="44.2525317" lon="11.345685"><ele>654.1999999999999</ele><time>2026-04-18T15:19:16.639Z</time></trkpt><trkpt lat="44.2526367" lon="11.3457217"><ele>652.4</ele><time>2026-04-18T15:19:17.638Z</time></trkpt><trkpt lat="44.2527383" lon="11.3457617"><ele>650.6</ele><time>2026-04-18T15:19:18.637Z</time></trkpt><trkpt lat="44.2528433" lon="11.3457967"><ele>648.8</ele><time>2026-04-18T15:19:19.637Z</time></trkpt><trkpt lat="44.25295" lon="11.3458633"><ele>647.0</ele><time>2026-04-18T15:19:20.638Z</time></trkpt><trkpt lat="44.2530367" lon="11.345945"><ele>647.0</ele><time>2026-04-18T15:19:21.637Z</time></trkpt><trkpt lat="44.25311" lon="11.3460467"><ele>647.0</ele><time>2026-04-18T15:19:22.637Z</time></trkpt><trkpt lat="44.2531883" lon="11.3461533"><ele>647.0</ele><time>2026-04-18T15:19:23.637Z</time></trkpt><trkpt lat="44.25327" lon="11.3462567"><ele>647.0</ele><time>2026-04-18T15:19:24.637Z</time></trkpt><trkpt lat="44.2533483" lon="11.3463583"><ele>647.0</ele><time>2026-04-18T15:19:25.637Z</time></trkpt><trkpt lat="44.2534333" lon="11.3464467"><ele>645.4</ele><time>2026-04-18T15:19:26.637Z</time></trkpt><trkpt lat="44.253505" lon="11.3465283"><ele>643.8000000000001</ele><time>2026-04-18T15:19:27.637Z</time></trkpt><trkpt lat="44.2535883" lon="11.34657"><ele>642.2</ele><time>2026-04-18T15:19:28.638Z</time></trkpt><trkpt lat="44.2536833" lon="11.3465917"><ele>640.6</ele><time>2026-04-18T15:19:29.637Z</time></trkpt><trkpt lat="44.253785" lon="11.3465767"><ele>639.0</ele><time>2026-04-18T15:19:30.637Z</time></trkpt><trkpt lat="44.2539017" lon="11.346565"><ele>642.0</ele><time>2026-04-18T15:19:31.638Z</time></trkpt><trkpt lat="44.25402" lon="11.3465567"><ele>645.0</ele><time>2026-04-18T15:19:32.638Z</time></trkpt><trkpt lat="44.2541367" lon="11.3465567"><ele>648.0</ele><time>2026-04-18T15:19:33.637Z</time></trkpt><trkpt lat="44.2542517" lon="11.3466083"><ele>651.0</ele><time>2026-04-18T15:19:34.637Z</time></trkpt><trkpt lat="44.2543633" lon="11.3466717"><ele>651.0</ele><time>2026-04-18T15:19:35.637Z</time></trkpt><trkpt lat="44.2544733" lon="11.3467417"><ele>651.0</ele><time>2026-04-18T15:19:36.637Z</time></trkpt><trkpt lat="44.2545783" lon="11.34678"><ele>651.0</ele><time>2026-04-18T15:19:37.638Z</time></trkpt><trkpt lat="44.2546783" lon="11.3468183"><ele>651.0</ele><time>2026-04-18T15:19:38.637Z</time></trkpt><trkpt lat="44.25478" lon="11.3468283"><ele>651.0</ele><time>2026-04-18T15:19:39.638Z</time></trkpt><trkpt lat="44.2548967" lon="11.34681"><ele>654.0</ele><time>2026-04-18T15:19:40.637Z</time></trkpt><trkpt lat="44.255025" lon="11.3468067"><ele>657.0</ele><time>2026-04-18T15:19:41.638Z</time></trkpt><trkpt lat="44.2551467" lon="11.3468167"><ele>660.0</ele><time>2026-04-18T15:19:42.638Z</time></trkpt><trkpt lat="44.2552567" lon="11.3468517"><ele>663.0</ele><time>2026-04-18T15:19:43.637Z</time></trkpt><trkpt lat="44.2553617" lon="11.346915"><ele>663.0</ele><time>2026-04-18T15:19:44.637Z</time></trkpt><trkpt lat="44.2554567" lon="11.3469667"><ele>663.0</ele><time>2026-04-18T15:19:45.637Z</time></trkpt><trkpt lat="44.25551" lon="11.3470217"><ele>663.0</ele><time>2026-04-18T15:19:46.637Z</time></trkpt><trkpt lat="44.25556" lon="11.3470783"><ele>663.0</ele><time>2026-04-18T15:20:01.637Z</time></trkpt><trkpt lat="44.2555783" lon="11.3471717"><ele>663.0</ele><time>2026-04-18T15:20:03.637Z</time></trkpt><trkpt lat="44.255605" lon="11.34731"><ele>663.0</ele><time>2026-04-18T15:20:05.637Z</time></trkpt><trkpt lat="44.2556583" lon="11.3474517"><ele>660.0</ele><time>2026-04-18T15:20:07.638Z</time></trkpt><trkpt lat="44.2556933" lon="11.3475333"><ele>657.0</ele><time>2026-04-18T15:20:08.637Z</time></trkpt><trkpt lat="44.2557333" lon="11.347605"><ele>654.0</ele><time>2026-04-18T15:20:09.637Z</time></trkpt><trkpt lat="44.25583" lon="11.3477283"><ele>651.0</ele><time>2026-04-18T15:20:11.638Z</time></trkpt><trkpt lat="44.2558967" lon="11.3477933"><ele>648.0</ele><time>2026-04-18T15:20:12.637Z</time></trkpt><trkpt lat="44.25597" lon="11.3478517"><ele>645.0</ele><time>2026-04-18T15:20:13.637Z</time></trkpt><trkpt lat="44.2560617" lon="11.3479083"><ele>645.0</ele><time>2026-04-18T15:20:14.638Z</time></trkpt><trkpt lat="44.2561767" lon="11.34799"><ele>645.0</ele><time>2026-04-18T15:20:15.638Z</time></trkpt><trkpt lat="44.2563067" lon="11.348055"><ele>645.0</ele><time>2026-04-18T15:20:16.637Z</time></trkpt><trkpt lat="44.25643" lon="11.3481233"><ele>645.0</ele><time>2026-04-18T15:20:17.637Z</time></trkpt><trkpt lat="44.2565367" lon="11.3481883"><ele>642.8333333333334</ele><time>2026-04-18T15:20:18.638Z</time></trkpt><trkpt lat="44.2566117" lon="11.3482567"><ele>640.6666666666666</ele><time>2026-04-18T15:20:19.637Z</time></trkpt><trkpt lat="44.2566717" lon="11.348335"><ele>638.5</ele><time>2026-04-18T15:20:20.637Z</time></trkpt><trkpt lat="44.256725" lon="11.3484283"><ele>636.3333333333333</ele><time>2026-04-18T15:20:21.637Z</time></trkpt><trkpt lat="44.2567667" lon="11.3485217"><ele>634.1666666666666</ele><time>2026-04-18T15:20:22.637Z</time></trkpt><trkpt lat="44.25681" lon="11.34861"><ele>632.0</ele><time>2026-04-18T15:20:23.637Z</time></trkpt><trkpt lat="44.2568267" lon="11.3487133"><ele>632.0</ele><time>2026-04-18T15:20:24.637Z</time></trkpt><trkpt lat="44.2568317" lon="11.348815"><ele>632.0</ele><time>2026-04-18T15:20:25.637Z</time></trkpt><trkpt lat="44.256835" lon="11.3489117"><ele>632.0</ele><time>2026-04-18T15:20:26.637Z</time></trkpt><trkpt lat="44.2568517" lon="11.349065"><ele>632.0</ele><time>2026-04-18T15:20:28.637Z</time></trkpt><trkpt lat="44.256845" lon="11.3492183"><ele>632.0</ele><time>2026-04-18T15:20:30.638Z</time></trkpt><trkpt lat="44.2568167" lon="11.3493567"><ele>630.5</ele><time>2026-04-18T15:20:32.637Z</time></trkpt><trkpt lat="44.256775" lon="11.3494817"><ele>629.0</ele><time>2026-04-18T15:20:34.637Z</time></trkpt><trkpt lat="44.25674" lon="11.34959"><ele>627.5</ele><time>2026-04-18T15:20:36.638Z</time></trkpt><trkpt lat="44.2567117" lon="11.3497017"><ele>626.0</ele><time>2026-04-18T15:20:38.637Z</time></trkpt><trkpt lat="44.2566883" lon="11.3498117"><ele>624.5</ele><time>2026-04-18T15:20:40.637Z</time></trkpt><trkpt lat="44.2566867" lon="11.3499067"><ele>623.0</ele><time>2026-04-18T15:20:42.638Z</time></trkpt><trkpt lat="44.2567117" lon="11.3499983"><ele>620.1999999999999</ele><time>2026-04-18T15:20:45.638Z</time></trkpt><trkpt lat="44.256765" lon="11.35009"><ele>617.4</ele><time>2026-04-18T15:20:47.637Z</time></trkpt><trkpt lat="44.2568167" lon="11.3502267"><ele>614.5999999999999</ele><time>2026-04-18T15:20:49.637Z</time></trkpt><trkpt lat="44.25689" lon="11.3503517"><ele>611.8</ele><time>2026-04-18T15:20:51.638Z</time></trkpt><trkpt lat="44.256995" lon="11.3504533"><ele>609.0</ele><time>2026-04-18T15:20:53.638Z</time></trkpt><trkpt lat="44.2570817" lon="11.35057"><ele>607.2</ele><time>2026-04-18T15:20:55.637Z</time></trkpt><trkpt lat="44.25715" lon="11.3506983"><ele>605.4</ele><time>2026-04-18T15:20:57.638Z</time></trkpt><trkpt lat="44.2572033" lon="11.3508433"><ele>603.6</ele><time>2026-04-18T15:20:59.637Z</time></trkpt><trkpt lat="44.2572467" lon="11.35099"><ele>601.8</ele><time>2026-04-18T15:21:01.637Z</time></trkpt><trkpt lat="44.2572683" lon="11.3510833"><ele>600.0</ele><time>2026-04-18T15:21:02.637Z</time></trkpt><trkpt lat="44.2572883" lon="11.3511933"><ele>598.6</ele><time>2026-04-18T15:21:03.637Z</time></trkpt><trkpt lat="44.25732" lon="11.351305"><ele>597.2</ele><time>2026-04-18T15:21:04.638Z</time></trkpt><trkpt lat="44.25736" lon="11.3514317"><ele>595.8</ele><time>2026-04-18T15:21:05.637Z</time></trkpt><trkpt lat="44.2574217" lon="11.35156"><ele>594.4</ele><time>2026-04-18T15:21:06.637Z</time></trkpt><trkpt lat="44.2574917" lon="11.351685"><ele>593.0</ele><time>2026-04-18T15:21:07.637Z</time></trkpt><trkpt lat="44.2575583" lon="11.3517967"><ele>592.0</ele><time>2026-04-18T15:21:08.637Z</time></trkpt><trkpt lat="44.2576283" lon="11.3519067"><ele>591.0</ele><time>2026-04-18T15:21:09.638Z</time></trkpt><trkpt lat="44.2576883" lon="11.3519983"><ele>590.0</ele><time>2026-04-18T15:21:10.637Z</time></trkpt><trkpt lat="44.2577383" lon="11.352085"><ele>589.0</ele><time>2026-04-18T15:21:11.637Z</time></trkpt><trkpt lat="44.25779" lon="11.3521667"><ele>588.0</ele><time>2026-04-18T15:21:12.638Z</time></trkpt><trkpt lat="44.2578383" lon="11.3522467"><ele>587.0</ele><time>2026-04-18T15:21:13.637Z</time></trkpt><trkpt lat="44.2578833" lon="11.3523233"><ele>584.1666666666666</ele><time>2026-04-18T15:21:14.638Z</time></trkpt><trkpt lat="44.25797" lon="11.3524567"><ele>581.3333333333333</ele><time>2026-04-18T15:21:16.638Z</time></trkpt><trkpt lat="44.2580183" lon="11.35252"><ele>578.5</ele><time>2026-04-18T15:21:17.638Z</time></trkpt><trkpt lat="44.2580717" lon="11.3525983"><ele>575.6666666666666</ele><time>2026-04-18T15:21:18.637Z</time></trkpt><trkpt lat="44.25813" lon="11.35268"><ele>572.8333333333334</ele><time>2026-04-18T15:21:19.637Z</time></trkpt><trkpt lat="44.25819" lon="11.352765"><ele>570.0</ele><time>2026-04-18T15:21:20.638Z</time></trkpt><trkpt lat="44.25825" lon="11.3528483"><ele>569.2</ele><time>2026-04-18T15:21:21.637Z</time></trkpt><trkpt lat="44.2583033" lon="11.3529183"><ele>568.4</ele><time>2026-04-18T15:21:22.638Z</time></trkpt><trkpt lat="44.258375" lon="11.3530467"><ele>567.6</ele><time>2026-04-18T15:21:24.637Z</time></trkpt><trkpt lat="44.2583733" lon="11.3531683"><ele>566.8</ele><time>2026-04-18T15:21:26.638Z</time></trkpt><trkpt lat="44.2582867" lon="11.35324"><ele>566.0</ele><time>2026-04-18T15:21:28.637Z</time></trkpt><trkpt lat="44.2581617" lon="11.3532817"><ele>562.6</ele><time>2026-04-18T15:21:30.637Z</time></trkpt><trkpt lat="44.2580833" lon="11.3533183"><ele>559.2</ele><time>2026-04-18T15:21:31.637Z</time></trkpt><trkpt lat="44.2579983" lon="11.3533467"><ele>555.8</ele><time>2026-04-18T15:21:32.637Z</time></trkpt><trkpt lat="44.2579017" lon="11.3533767"><ele>552.4</ele><time>2026-04-18T15:21:33.637Z</time></trkpt><trkpt lat="44.2578067" lon="11.3534167"><ele>549.0</ele><time>2026-04-18T15:21:34.637Z</time></trkpt><trkpt lat="44.2577217" lon="11.3534683"><ele>549.0</ele><time>2026-04-18T15:21:35.638Z</time></trkpt><trkpt lat="44.257635" lon="11.35352"><ele>549.0</ele><time>2026-04-18T15:21:36.638Z</time></trkpt><trkpt lat="44.2575517" lon="11.3535617"><ele>549.0</ele><time>2026-04-18T15:21:37.637Z</time></trkpt><trkpt lat="44.257475" lon="11.3536117"><ele>549.0</ele><time>2026-04-18T15:21:38.637Z</time></trkpt><trkpt lat="44.2574067" lon="11.3536683"><ele>549.0</ele><time>2026-04-18T15:21:39.637Z</time></trkpt><trkpt lat="44.2573467" lon="11.3537233"><ele>549.0</ele><time>2026-04-18T15:21:40.637Z</time></trkpt><trkpt lat="44.2572967" lon="11.3537817"><ele>549.6666666666666</ele><time>2026-04-18T15:21:41.637Z</time></trkpt><trkpt lat="44.25724" lon="11.3538783"><ele>550.3333333333334</ele><time>2026-04-18T15:21:43.637Z</time></trkpt><trkpt lat="44.2572167" lon="11.3539667"><ele>551.0</ele><time>2026-04-18T15:21:45.637Z</time></trkpt><trkpt lat="44.2571967" lon="11.3540567"><ele>551.6666666666667</ele><time>2026-04-18T15:21:47.637Z</time></trkpt><trkpt lat="44.257175" lon="11.354225"><ele>552.3333333333334</ele><time>2026-04-18T15:21:49.637Z</time></trkpt><trkpt lat="44.2571583" lon="11.354345"><ele>553.0</ele><time>2026-04-18T15:21:50.638Z</time></trkpt><trkpt lat="44.257135" lon="11.3544667"><ele>553.0</ele><time>2026-04-18T15:21:51.637Z</time></trkpt><trkpt lat="44.25711" lon="11.354595"><ele>553.0</ele><time>2026-04-18T15:21:52.638Z</time></trkpt><trkpt lat="44.2570783" lon="11.3547333"><ele>553.0</ele><time>2026-04-18T15:21:53.637Z</time></trkpt><trkpt lat="44.2570483" lon="11.3548983"><ele>553.0</ele><time>2026-04-18T15:21:54.637Z</time></trkpt><trkpt lat="44.2570283" lon="11.3550783"><ele>553.1666666666667</ele><time>2026-04-18T15:21:55.637Z</time></trkpt><trkpt lat="44.2570133" lon="11.355235"><ele>553.3333333333334</ele><time>2026-04-18T15:21:56.637Z</time></trkpt><trkpt lat="44.2570017" lon="11.3553667"><ele>553.5</ele><time>2026-04-18T15:21:57.638Z</time></trkpt><trkpt lat="44.2569967" lon="11.3554767"><ele>553.6666666666666</ele><time>2026-04-18T15:21:58.638Z</time></trkpt><trkpt lat="44.2570133" lon="11.3555817"><ele>553.8333333333333</ele><time>2026-04-18T15:21:59.637Z</time></trkpt><trkpt lat="44.25704" lon="11.3556867"><ele>554.0</ele><time>2026-04-18T15:22:00.637Z</time></trkpt><trkpt lat="44.25708" lon="11.3558033"><ele>554.0</ele><time>2026-04-18T15:22:01.637Z</time></trkpt><trkpt lat="44.257115" lon="11.35593"><ele>554.0</ele><time>2026-04-18T15:22:02.638Z</time></trkpt><trkpt lat="44.2571533" lon="11.3560767"><ele>554.0</ele><time>2026-04-18T15:22:03.638Z</time></trkpt><trkpt lat="44.2571767" lon="11.356245"><ele>554.0</ele><time>2026-04-18T15:22:04.637Z</time></trkpt><trkpt lat="44.2571883" lon="11.3564267"><ele>552.6666666666666</ele><time>2026-04-18T15:22:05.637Z</time></trkpt><trkpt lat="44.2571967" lon="11.3566417"><ele>551.3333333333334</ele><time>2026-04-18T15:22:06.637Z</time></trkpt><trkpt lat="44.257205" lon="11.35687"><ele>550.0</ele><time>2026-04-18T15:22:07.637Z</time></trkpt><trkpt lat="44.2572133" lon="11.3570833"><ele>550.5</ele><time>2026-04-18T15:22:08.637Z</time></trkpt><trkpt lat="44.257215" lon="11.3572633"><ele>551.0</ele><time>2026-04-18T15:22:09.638Z</time></trkpt><trkpt lat="44.257215" lon="11.35742"><ele>551.5</ele><time>2026-04-18T15:22:10.637Z</time></trkpt><trkpt lat="44.257195" lon="11.357595"><ele>552.0</ele><time>2026-04-18T15:22:11.637Z</time></trkpt><trkpt lat="44.25717" lon="11.3577717"><ele>552.0</ele><time>2026-04-18T15:22:12.637Z</time></trkpt><trkpt lat="44.257135" lon="11.357925"><ele>552.0</ele><time>2026-04-18T15:22:13.637Z</time></trkpt><trkpt lat="44.2570967" lon="11.3580767"><ele>552.0</ele><time>2026-04-18T15:22:14.638Z</time></trkpt><trkpt lat="44.2570583" lon="11.3582233"><ele>552.0</ele><time>2026-04-18T15:22:15.637Z</time></trkpt><trkpt lat="44.257025" lon="11.3583783"><ele>552.75</ele><time>2026-04-18T15:22:16.638Z</time></trkpt><trkpt lat="44.256995" lon="11.3585417"><ele>553.5</ele><time>2026-04-18T15:22:17.638Z</time></trkpt><trkpt lat="44.256965" lon="11.3587083"><ele>554.25</ele><time>2026-04-18T15:22:18.637Z</time></trkpt><trkpt lat="44.2569267" lon="11.3589033"><ele>555.0</ele><time>2026-04-18T15:22:19.638Z</time></trkpt><trkpt lat="44.2568967" lon="11.3591117"><ele>555.0</ele><time>2026-04-18T15:22:20.638Z</time></trkpt><trkpt lat="44.2568767" lon="11.359285"><ele>555.0</ele><time>2026-04-18T15:22:21.638Z</time></trkpt><trkpt lat="44.2568617" lon="11.3594117"><ele>555.0</ele><time>2026-04-18T15:22:22.638Z</time></trkpt><trkpt lat="44.2568483" lon="11.35953"><ele>555.0</ele><time>2026-04-18T15:22:23.637Z</time></trkpt><trkpt lat="44.2568283" lon="11.359645"><ele>555.0</ele><time>2026-04-18T15:22:24.637Z</time></trkpt><trkpt lat="44.25681" lon="11.35976"><ele>554.7142857142858</ele><time>2026-04-18T15:22:25.638Z</time></trkpt><trkpt lat="44.25678" lon="11.359865"><ele>554.4285714285714</ele><time>2026-04-18T15:22:26.637Z</time></trkpt><trkpt lat="44.2567583" lon="11.3599533"><ele>554.1428571428571</ele><time>2026-04-18T15:22:27.637Z</time></trkpt><trkpt lat="44.256735" lon="11.3600367"><ele>553.8571428571429</ele><time>2026-04-18T15:22:28.637Z</time></trkpt><trkpt lat="44.25671" lon="11.3601267"><ele>553.5714285714286</ele><time>2026-04-18T15:22:29.638Z</time></trkpt><trkpt lat="44.2566883" lon="11.3602233"><ele>553.2857142857143</ele><time>2026-04-18T15:22:30.637Z</time></trkpt><trkpt lat="44.256675" lon="11.3603133"><ele>553.0</ele><time>2026-04-18T15:22:31.638Z</time></trkpt><trkpt lat="44.2566617" lon="11.3604017"><ele>553.0</ele><time>2026-04-18T15:22:32.637Z</time></trkpt><trkpt lat="44.2566283" lon="11.3604983"><ele>553.0</ele><time>2026-04-18T15:22:33.637Z</time></trkpt><trkpt lat="44.2565683" lon="11.3606333"><ele>553.0</ele><time>2026-04-18T15:22:35.638Z</time></trkpt><trkpt lat="44.2566317" lon="11.360735"><ele>553.0</ele><time>2026-04-18T15:23:03.637Z</time></trkpt><trkpt lat="44.2567367" lon="11.3607783"><ele>553.0</ele><time>2026-04-18T15:23:06.637Z</time></trkpt><trkpt lat="44.2568033" lon="11.36083"><ele>552.5</ele><time>2026-04-18T15:23:07.637Z</time></trkpt><trkpt lat="44.2568883" lon="11.3608817"><ele>552.0</ele><time>2026-04-18T15:23:08.636Z</time></trkpt><trkpt lat="44.256995" lon="11.3609217"><ele>551.5</ele><time>2026-04-18T15:23:09.636Z</time></trkpt><trkpt lat="44.2571217" lon="11.3609467"><ele>551.0</ele><time>2026-04-18T15:23:10.636Z</time></trkpt><trkpt lat="44.2572567" lon="11.3609633"><ele>548.75</ele><time>2026-04-18T15:23:11.636Z</time></trkpt><trkpt lat="44.2573817" lon="11.3609817"><ele>546.5</ele><time>2026-04-18T15:23:12.636Z</time></trkpt><trkpt lat="44.2575117" lon="11.3610067"><ele>544.25</ele><time>2026-04-18T15:23:13.636Z</time></trkpt><trkpt lat="44.2576167" lon="11.361035"><ele>542.0</ele><time>2026-04-18T15:23:14.637Z</time></trkpt><trkpt lat="44.2577133" lon="11.3610617"><ele>542.0</ele><time>2026-04-18T15:23:15.636Z</time></trkpt><trkpt lat="44.257795" lon="11.3610767"><ele>542.0</ele><time>2026-04-18T15:23:16.636Z</time></trkpt><trkpt lat="44.2578633" lon="11.3611067"><ele>542.0</ele><time>2026-04-18T15:23:17.636Z</time></trkpt><trkpt lat="44.2579317" lon="11.3611283"><ele>542.0</ele><time>2026-04-18T15:23:18.637Z</time></trkpt><trkpt lat="44.2580283" lon="11.36116"><ele>542.0</ele><time>2026-04-18T15:23:20.637Z</time></trkpt><trkpt lat="44.258085" lon="11.3612367"><ele>542.0</ele><time>2026-04-18T15:23:22.637Z</time></trkpt><trkpt lat="44.2580817" lon="11.3613467"><ele>540.8000000000001</ele><time>2026-04-18T15:23:24.637Z</time></trkpt><trkpt lat="44.25801" lon="11.361495"><ele>539.6</ele><time>2026-04-18T15:23:26.637Z</time></trkpt><trkpt lat="44.2579667" lon="11.36156"><ele>538.4000000000001</ele><time>2026-04-18T15:23:27.637Z</time></trkpt><trkpt lat="44.2579217" lon="11.3617133"><ele>537.2</ele><time>2026-04-18T15:23:29.636Z</time></trkpt><trkpt lat="44.2579617" lon="11.36187"><ele>536.0</ele><time>2026-04-18T15:23:31.636Z</time></trkpt><trkpt lat="44.2580117" lon="11.3619633"><ele>536.0</ele><time>2026-04-18T15:23:32.637Z</time></trkpt><trkpt lat="44.2580633" lon="11.362075"><ele>536.0</ele><time>2026-04-18T15:23:33.636Z</time></trkpt><trkpt lat="44.2580933" lon="11.3621783"><ele>536.0</ele><time>2026-04-18T15:23:34.636Z</time></trkpt><trkpt lat="44.2581067" lon="11.3622767"><ele>536.0</ele><time>2026-04-18T15:23:35.637Z</time></trkpt><trkpt lat="44.2580983" lon="11.3623667"><ele>536.0</ele><time>2026-04-18T15:23:36.637Z</time></trkpt><trkpt lat="44.25807" lon="11.3624567"><ele>536.0</ele><time>2026-04-18T15:23:37.637Z</time></trkpt><trkpt lat="44.25803" lon="11.36253"><ele>536.0</ele><time>2026-04-18T15:23:38.636Z</time></trkpt><trkpt lat="44.25798" lon="11.3625967"><ele>535.0</ele><time>2026-04-18T15:23:39.637Z</time></trkpt><trkpt lat="44.2579017" lon="11.3627117"><ele>534.0</ele><time>2026-04-18T15:23:41.637Z</time></trkpt><trkpt lat="44.2579183" lon="11.3628317"><ele>533.0</ele><time>2026-04-18T15:23:43.637Z</time></trkpt><trkpt lat="44.257965" lon="11.36291"><ele>532.0</ele><time>2026-04-18T15:23:44.636Z</time></trkpt><trkpt lat="44.2580183" lon="11.363"><ele>531.0</ele><time>2026-04-18T15:23:45.636Z</time></trkpt><trkpt lat="44.25807" lon="11.3630883"><ele>530.0</ele><time>2026-04-18T15:23:46.636Z</time></trkpt><trkpt lat="44.258125" lon="11.3631767"><ele>528.6666666666666</ele><time>2026-04-18T15:23:47.636Z</time></trkpt><trkpt lat="44.2581933" lon="11.36325"><ele>527.3333333333333</ele><time>2026-04-18T15:23:48.637Z</time></trkpt><trkpt lat="44.2582633" lon="11.3633017"><ele>526.0</ele><time>2026-04-18T15:23:49.636Z</time></trkpt><trkpt lat="44.2583333" lon="11.3633267"><ele>524.6666666666666</ele><time>2026-04-18T15:23:50.636Z</time></trkpt><trkpt lat="44.2584167" lon="11.3633233"><ele>523.3333333333334</ele><time>2026-04-18T15:23:51.636Z</time></trkpt><trkpt lat="44.258515" lon="11.3633"><ele>522.0</ele><time>2026-04-18T15:23:52.636Z</time></trkpt><trkpt lat="44.258585" lon="11.3633067"><ele>522.0</ele><time>2026-04-18T15:23:53.636Z</time></trkpt><trkpt lat="44.2586533" lon="11.3633117"><ele>522.0</ele><time>2026-04-18T15:23:54.637Z</time></trkpt><trkpt lat="44.258725" lon="11.3633133"><ele>522.0</ele><time>2026-04-18T15:23:55.636Z</time></trkpt><trkpt lat="44.25879" lon="11.363325"><ele>522.0</ele><time>2026-04-18T15:23:56.636Z</time></trkpt><trkpt lat="44.25886" lon="11.3633483"><ele>522.0</ele><time>2026-04-18T15:23:57.636Z</time></trkpt><trkpt lat="44.25893" lon="11.3633967"><ele>522.0</ele><time>2026-04-18T15:23:58.636Z</time></trkpt><trkpt lat="44.258995" lon="11.363455"><ele>522.0</ele><time>2026-04-18T15:23:59.636Z</time></trkpt><trkpt lat="44.25906" lon="11.3635067"><ele>520.6666666666666</ele><time>2026-04-18T15:24:00.637Z</time></trkpt><trkpt lat="44.25912" lon="11.3635833"><ele>519.3333333333334</ele><time>2026-04-18T15:24:01.637Z</time></trkpt><trkpt lat="44.2591683" lon="11.3636567"><ele>518.0</ele><time>2026-04-18T15:24:02.636Z</time></trkpt><trkpt lat="44.259195" lon="11.3637517"><ele>516.6666666666667</ele><time>2026-04-18T15:24:03.636Z</time></trkpt><trkpt lat="44.259205" lon="11.3638617"><ele>515.3333333333334</ele><time>2026-04-18T15:24:04.636Z</time></trkpt><trkpt lat="44.2592183" lon="11.363975"><ele>514.0</ele><time>2026-04-18T15:24:05.637Z</time></trkpt><trkpt lat="44.2592417" lon="11.364085"><ele>511.75</ele><time>2026-04-18T15:24:06.637Z</time></trkpt><trkpt lat="44.2592817" lon="11.3642"><ele>509.5</ele><time>2026-04-18T15:24:07.636Z</time></trkpt><trkpt lat="44.2593633" lon="11.364315"><ele>507.25</ele><time>2026-04-18T15:24:08.637Z</time></trkpt><trkpt lat="44.2594633" lon="11.3644283"><ele>505.0</ele><time>2026-04-18T15:24:09.636Z</time></trkpt><trkpt lat="44.259585" lon="11.36454"><ele>505.0</ele><time>2026-04-18T15:24:10.636Z</time></trkpt><trkpt lat="44.2597067" lon="11.36466"><ele>505.0</ele><time>2026-04-18T15:24:11.636Z</time></trkpt><trkpt lat="44.2598083" lon="11.36479"><ele>505.0</ele><time>2026-04-18T15:24:12.636Z</time></trkpt><trkpt lat="44.2598983" lon="11.3649017"><ele>505.0</ele><time>2026-04-18T15:24:13.636Z</time></trkpt><trkpt lat="44.2599667" lon="11.36501"><ele>504.4</ele><time>2026-04-18T15:24:14.636Z</time></trkpt><trkpt lat="44.2600233" lon="11.3651433"><ele>503.8</ele><time>2026-04-18T15:24:15.636Z</time></trkpt><trkpt lat="44.260055" lon="11.365285"><ele>503.20000000000005</ele><time>2026-04-18T15:24:16.637Z</time></trkpt><trkpt lat="44.2600617" lon="11.365415"><ele>502.6</ele><time>2026-04-18T15:24:17.636Z</time></trkpt><trkpt lat="44.260075" lon="11.365535"><ele>502.0</ele><time>2026-04-18T15:24:18.637Z</time></trkpt><trkpt lat="44.2600983" lon="11.3656583"><ele>502.0</ele><time>2026-04-18T15:24:19.636Z</time></trkpt><trkpt lat="44.2601483" lon="11.3657717"><ele>502.00000000000006</ele><time>2026-04-18T15:24:20.636Z</time></trkpt><trkpt lat="44.2602167" lon="11.3658667"><ele>502.00000000000006</ele><time>2026-04-18T15:24:21.636Z</time></trkpt><trkpt lat="44.2602983" lon="11.36594"><ele>502.0</ele><time>2026-04-18T15:24:22.636Z</time></trkpt><trkpt lat="44.2603683" lon="11.3660117"><ele>502.0</ele><time>2026-04-18T15:24:23.637Z</time></trkpt><trkpt lat="44.2604317" lon="11.36607"><ele>502.00000000000006</ele><time>2026-04-18T15:24:24.636Z</time></trkpt><trkpt lat="44.2604867" lon="11.3661483"><ele>502.0</ele><time>2026-04-18T15:24:25.636Z</time></trkpt><trkpt lat="44.2605317" lon="11.3662233"><ele>502.0</ele><time>2026-04-18T15:24:26.636Z</time></trkpt><trkpt lat="44.2605617" lon="11.3663117"><ele>502.0</ele><time>2026-04-18T15:24:27.636Z</time></trkpt><trkpt lat="44.2605783" lon="11.3664083"><ele>502.00000000000006</ele><time>2026-04-18T15:24:28.636Z</time></trkpt><trkpt lat="44.2605917" lon="11.3665117"><ele>502.0</ele><time>2026-04-18T15:24:29.637Z</time></trkpt><trkpt lat="44.2606417" lon="11.3666533"><ele>501.0</ele><time>2026-04-18T15:24:31.636Z</time></trkpt><trkpt lat="44.260715" lon="11.366725"><ele>500.00000000000006</ele><time>2026-04-18T15:24:33.637Z</time></trkpt><trkpt lat="44.2608233" lon="11.3667333"><ele>499.00000000000006</ele><time>2026-04-18T15:24:35.637Z</time></trkpt><trkpt lat="44.260915" lon="11.36678"><ele>498.0</ele><time>2026-04-18T15:24:37.637Z</time></trkpt><trkpt lat="44.2609583" lon="11.3668817"><ele>497.0</ele><time>2026-04-18T15:24:39.637Z</time></trkpt><trkpt lat="44.2609267" lon="11.3669883"><ele>497.0</ele><time>2026-04-18T15:24:41.636Z</time></trkpt><trkpt lat="44.2608667" lon="11.3670833"><ele>497.00000000000006</ele><time>2026-04-18T15:24:43.637Z</time></trkpt><trkpt lat="44.2608667" lon="11.3672"><ele>497.00000000000006</ele><time>2026-04-18T15:24:45.636Z</time></trkpt><trkpt lat="44.2609317" lon="11.36727"><ele>497.0</ele><time>2026-04-18T15:24:47.636Z</time></trkpt><trkpt lat="44.26103" lon="11.3673267"><ele>497.0</ele><time>2026-04-18T15:24:49.636Z</time></trkpt><trkpt lat="44.261105" lon="11.367435"><ele>496.66666666666663</ele><time>2026-04-18T15:24:51.636Z</time></trkpt><trkpt lat="44.2611717" lon="11.36754"><ele>496.3333333333333</ele><time>2026-04-18T15:24:53.637Z</time></trkpt><trkpt lat="44.2612267" lon="11.3676367"><ele>496.0</ele><time>2026-04-18T15:24:55.636Z</time></trkpt><trkpt lat="44.2613083" lon="11.3677167"><ele>495.66666666666663</ele><time>2026-04-18T15:24:57.636Z</time></trkpt><trkpt lat="44.2613483" lon="11.3678067"><ele>495.3333333333333</ele><time>2026-04-18T15:24:59.637Z</time></trkpt><trkpt lat="44.2613267" lon="11.3678933"><ele>495.0</ele><time>2026-04-18T15:25:01.636Z</time></trkpt><trkpt lat="44.2612567" lon="11.368"><ele>493.0</ele><time>2026-04-18T15:25:03.636Z</time></trkpt><trkpt lat="44.2612083" lon="11.3681433"><ele>491.0</ele><time>2026-04-18T15:25:05.636Z</time></trkpt><trkpt lat="44.26122" lon="11.3683067"><ele>489.0</ele><time>2026-04-18T15:25:07.636Z</time></trkpt><trkpt lat="44.2612633" lon="11.368395"><ele>487.0</ele><time>2026-04-18T15:25:08.636Z</time></trkpt><trkpt lat="44.261315" lon="11.3684633"><ele>485.0</ele><time>2026-04-18T15:25:09.636Z</time></trkpt><trkpt lat="44.2613817" lon="11.3685267"><ele>485.2</ele><time>2026-04-18T15:25:10.636Z</time></trkpt><trkpt lat="44.26146" lon="11.36858"><ele>485.4</ele><time>2026-04-18T15:25:11.637Z</time></trkpt><trkpt lat="44.2615383" lon="11.3686383"><ele>485.6</ele><time>2026-04-18T15:25:12.637Z</time></trkpt><trkpt lat="44.26163" lon="11.3687133"><ele>485.8</ele><time>2026-04-18T15:25:13.636Z</time></trkpt><trkpt lat="44.26172" lon="11.368795"><ele>486.0</ele><time>2026-04-18T15:25:14.637Z</time></trkpt><trkpt lat="44.2618083" lon="11.36886"><ele>484.6666666666667</ele><time>2026-04-18T15:25:15.636Z</time></trkpt><trkpt lat="44.2618933" lon="11.3689233"><ele>483.33333333333337</ele><time>2026-04-18T15:25:16.636Z</time></trkpt><trkpt lat="44.2619783" lon="11.3689833"><ele>482.0</ele><time>2026-04-18T15:25:17.637Z</time></trkpt><trkpt lat="44.26205" lon="11.36904"><ele>480.6666666666667</ele><time>2026-04-18T15:25:18.637Z</time></trkpt><trkpt lat="44.2621183" lon="11.3690833"><ele>479.33333333333337</ele><time>2026-04-18T15:25:19.637Z</time></trkpt><trkpt lat="44.262185" lon="11.36909"><ele>478.0</ele><time>2026-04-18T15:25:20.637Z</time></trkpt><trkpt lat="44.2622817" lon="11.369035"><ele>478.0</ele><time>2026-04-18T15:25:22.637Z</time></trkpt><trkpt lat="44.2623367" lon="11.3689483"><ele>477.99999999999994</ele><time>2026-04-18T15:25:25.637Z</time></trkpt><trkpt lat="44.2624267" lon="11.3690117"><ele>477.99999999999994</ele><time>2026-04-18T15:25:28.637Z</time></trkpt><trkpt lat="44.2624917" lon="11.3691067"><ele>478.0</ele><time>2026-04-18T15:25:30.637Z</time></trkpt><trkpt lat="44.2625733" lon="11.3692383"><ele>478.0</ele><time>2026-04-18T15:25:32.637Z</time></trkpt><trkpt lat="44.26264" lon="11.3693467"><ele>478.0</ele><time>2026-04-18T15:25:33.636Z</time></trkpt><trkpt lat="44.26272" lon="11.3694833"><ele>478.0</ele><time>2026-04-18T15:25:34.637Z</time></trkpt><trkpt lat="44.2628133" lon="11.3696667"><ele>478.0</ele><time>2026-04-18T15:25:35.636Z</time></trkpt><trkpt lat="44.2628917" lon="11.36982"><ele>478.0</ele><time>2026-04-18T15:25:36.636Z</time></trkpt><trkpt lat="44.2629467" lon="11.3699433"><ele>477.4</ele><time>2026-04-18T15:25:37.637Z</time></trkpt><trkpt lat="44.26298" lon="11.3700583"><ele>476.79999999999995</ele><time>2026-04-18T15:25:38.637Z</time></trkpt><trkpt lat="44.262985" lon="11.37016"><ele>476.2</ele><time>2026-04-18T15:25:39.637Z</time></trkpt><trkpt lat="44.26296" lon="11.370305"><ele>475.6</ele><time>2026-04-18T15:25:41.637Z</time></trkpt><trkpt lat="44.2628933" lon="11.3704433"><ele>475.0</ele><time>2026-04-18T15:25:43.636Z</time></trkpt><trkpt lat="44.2628467" lon="11.370535"><ele>474.0</ele><time>2026-04-18T15:25:44.637Z</time></trkpt><trkpt lat="44.2627867" lon="11.3706367"><ele>473.0</ele><time>2026-04-18T15:25:45.637Z</time></trkpt><trkpt lat="44.2627183" lon="11.3707567"><ele>472.0</ele><time>2026-04-18T15:25:46.637Z</time></trkpt><trkpt lat="44.2626533" lon="11.3708683"><ele>471.0</ele><time>2026-04-18T15:25:47.636Z</time></trkpt><trkpt lat="44.2625867" lon="11.3709717"><ele>470.0</ele><time>2026-04-18T15:25:48.637Z</time></trkpt><trkpt lat="44.262525" lon="11.3710933"><ele>470.0</ele><time>2026-04-18T15:25:49.637Z</time></trkpt><trkpt lat="44.26246" lon="11.3712133"><ele>470.0</ele><time>2026-04-18T15:25:50.637Z</time></trkpt><trkpt lat="44.2623983" lon="11.3713133"><ele>470.0</ele><time>2026-04-18T15:25:51.637Z</time></trkpt><trkpt lat="44.2623467" lon="11.3714"><ele>470.0</ele><time>2026-04-18T15:25:52.637Z</time></trkpt><trkpt lat="44.26229" lon="11.3714917"><ele>470.0</ele><time>2026-04-18T15:25:53.637Z</time></trkpt><trkpt lat="44.2622417" lon="11.3715867"><ele>465.0</ele><time>2026-04-18T15:25:54.636Z</time></trkpt><trkpt lat="44.2621883" lon="11.3716883"><ele>460.0</ele><time>2026-04-18T15:25:55.637Z</time></trkpt><trkpt lat="44.26214" lon="11.3717817"><ele>455.0</ele><time>2026-04-18T15:25:56.637Z</time></trkpt><trkpt lat="44.2620933" lon="11.371865"><ele>450.0</ele><time>2026-04-18T15:25:57.636Z</time></trkpt><trkpt lat="44.2620583" lon="11.3719617"><ele>445.0</ele><time>2026-04-18T15:25:58.636Z</time></trkpt><trkpt lat="44.2620783" lon="11.3721333"><ele>443.50000000000006</ele><time>2026-04-18T15:26:00.637Z</time></trkpt><trkpt lat="44.26211" lon="11.3722433"><ele>442.0</ele><time>2026-04-18T15:26:01.636Z</time></trkpt><trkpt lat="44.2621533" lon="11.372365"><ele>440.5</ele><time>2026-04-18T15:26:02.637Z</time></trkpt><trkpt lat="44.2621867" lon="11.3724783"><ele>439.0</ele><time>2026-04-18T15:26:03.637Z</time></trkpt><trkpt lat="44.262215" lon="11.3725917"><ele>437.50000000000006</ele><time>2026-04-18T15:26:04.637Z</time></trkpt><trkpt lat="44.262235" lon="11.3726967"><ele>436.0</ele><time>2026-04-18T15:26:05.636Z</time></trkpt><trkpt lat="44.2622533" lon="11.372795"><ele>436.00000000000006</ele><time>2026-04-18T15:26:06.637Z</time></trkpt><trkpt lat="44.2622683" lon="11.3728883"><ele>436.0</ele><time>2026-04-18T15:26:07.636Z</time></trkpt><trkpt lat="44.2623183" lon="11.3730417"><ele>436.0</ele><time>2026-04-18T15:26:09.636Z</time></trkpt><trkpt lat="44.262345" lon="11.373125"><ele>436.0</ele><time>2026-04-18T15:26:10.636Z</time></trkpt><trkpt lat="44.2623783" lon="11.373245"><ele>436.00000000000006</ele><time>2026-04-18T15:26:12.636Z</time></trkpt><trkpt lat="44.262405" lon="11.3733367"><ele>436.0</ele><time>2026-04-18T15:26:14.636Z</time></trkpt><trkpt lat="44.26242" lon="11.3734367"><ele>437.00000000000006</ele><time>2026-04-18T15:26:29.636Z</time></trkpt><trkpt lat="44.26248" lon="11.373495"><ele>438.0</ele><time>2026-04-18T15:26:50.635Z</time></trkpt><trkpt lat="44.262565" lon="11.373555"><ele>439.0</ele><time>2026-04-18T15:26:53.635Z</time></trkpt><trkpt lat="44.262635" lon="11.373605"><ele>440.0</ele><time>2026-04-18T15:26:55.635Z</time></trkpt><trkpt lat="44.2627233" lon="11.373685"><ele>441.00000000000006</ele><time>2026-04-18T15:26:57.636Z</time></trkpt><trkpt lat="44.2627933" lon="11.3737683"><ele>442.0</ele><time>2026-04-18T15:26:59.636Z</time></trkpt><trkpt lat="44.2628283" lon="11.3738617"><ele>439.00000000000006</ele><time>2026-04-18T15:27:01.636Z</time></trkpt><trkpt lat="44.2628567" lon="11.3739583"><ele>436.0</ele><time>2026-04-18T15:27:04.635Z</time></trkpt><trkpt lat="44.2628883" lon="11.3740367"><ele>433.0</ele><time>2026-04-18T15:27:06.635Z</time></trkpt><trkpt lat="44.26293" lon="11.3741067"><ele>430.0</ele><time>2026-04-18T15:27:08.635Z</time></trkpt><trkpt lat="44.2629633" lon="11.3742"><ele>427.0</ele><time>2026-04-18T15:27:10.636Z</time></trkpt><trkpt lat="44.2629883" lon="11.3743083"><ele>424.00000000000006</ele><time>2026-04-18T15:27:12.636Z</time></trkpt><trkpt lat="44.263005" lon="11.37442"><ele>421.0</ele><time>2026-04-18T15:27:14.635Z</time></trkpt><trkpt lat="44.2630267" lon="11.37452"><ele>421.00000000000006</ele><time>2026-04-18T15:27:16.635Z</time></trkpt><trkpt lat="44.2630683" lon="11.3746033"><ele>421.0</ele><time>2026-04-18T15:27:18.635Z</time></trkpt><trkpt lat="44.263125" lon="11.3746517"><ele>421.0</ele><time>2026-04-18T15:27:20.635Z</time></trkpt><trkpt lat="44.2632" lon="11.3746717"><ele>421.0</ele><time>2026-04-18T15:27:22.636Z</time></trkpt><trkpt lat="44.263285" lon="11.37469"><ele>421.00000000000006</ele><time>2026-04-18T15:27:24.636Z</time></trkpt><trkpt lat="44.263405" lon="11.3747217"><ele>421.0</ele><time>2026-04-18T15:27:26.636Z</time></trkpt><trkpt lat="44.263515" lon="11.3748"><ele>419.42857142857144</ele><time>2026-04-18T15:27:28.636Z</time></trkpt><trkpt lat="44.2635717" lon="11.374865"><ele>417.8571428571429</ele><time>2026-04-18T15:27:29.635Z</time></trkpt><trkpt lat="44.26363" lon="11.37492"><ele>416.28571428571433</ele><time>2026-04-18T15:27:30.635Z</time></trkpt><trkpt lat="44.26369" lon="11.37496"><ele>414.7142857142857</ele><time>2026-04-18T15:27:31.635Z</time></trkpt><trkpt lat="44.2637567" lon="11.3749967"><ele>413.1428571428571</ele><time>2026-04-18T15:27:32.636Z</time></trkpt><trkpt lat="44.2638333" lon="11.37502"><ele>411.5714285714286</ele><time>2026-04-18T15:27:33.635Z</time></trkpt><trkpt lat="44.2638983" lon="11.3750433"><ele>410.0</ele><time>2026-04-18T15:27:34.636Z</time></trkpt><trkpt lat="44.26401" lon="11.3751167"><ele>409.2</ele><time>2026-04-18T15:27:36.635Z</time></trkpt><trkpt lat="44.2641017" lon="11.37522"><ele>408.4</ele><time>2026-04-18T15:27:38.635Z</time></trkpt><trkpt lat="44.2641417" lon="11.375305"><ele>407.6</ele><time>2026-04-18T15:27:39.636Z</time></trkpt><trkpt lat="44.26418" lon="11.375395"><ele>406.8</ele><time>2026-04-18T15:27:40.635Z</time></trkpt><trkpt lat="44.2642567" lon="11.3755383"><ele>406.0</ele><time>2026-04-18T15:27:42.635Z</time></trkpt><trkpt lat="44.2643067" lon="11.3756017"><ele>406.00000000000006</ele><time>2026-04-18T15:27:43.635Z</time></trkpt><trkpt lat="44.2644183" lon="11.3756683"><ele>406.0</ele><time>2026-04-18T15:27:45.635Z</time></trkpt><trkpt lat="44.26448" lon="11.375705"><ele>406.0</ele><time>2026-04-18T15:27:46.635Z</time></trkpt><trkpt lat="44.2645517" lon="11.3757383"><ele>406.0</ele><time>2026-04-18T15:27:47.636Z</time></trkpt><trkpt lat="44.2646267" lon="11.3757567"><ele>406.00000000000006</ele><time>2026-04-18T15:27:48.636Z</time></trkpt><trkpt lat="44.2647" lon="11.3757817"><ele>406.0</ele><time>2026-04-18T15:27:49.636Z</time></trkpt><trkpt lat="44.26478" lon="11.375805"><ele>406.5</ele><time>2026-04-18T15:27:50.636Z</time></trkpt><trkpt lat="44.2648767" lon="11.375825"><ele>407.0</ele><time>2026-04-18T15:27:51.635Z</time></trkpt><trkpt lat="44.265005" lon="11.3758383"><ele>407.5</ele><time>2026-04-18T15:27:52.635Z</time></trkpt><trkpt lat="44.2651433" lon="11.375845"><ele>408.0</ele><time>2026-04-18T15:27:53.635Z</time></trkpt><trkpt lat="44.2652767" lon="11.3758467"><ele>408.0</ele><time>2026-04-18T15:27:54.635Z</time></trkpt><trkpt lat="44.265385" lon="11.3758417"><ele>408.0</ele><time>2026-04-18T15:27:55.635Z</time></trkpt><trkpt lat="44.2654633" lon="11.3758617"><ele>408.0</ele><time>2026-04-18T15:27:56.635Z</time></trkpt><trkpt lat="44.2655333" lon="11.3759"><ele>408.0</ele><time>2026-04-18T15:27:57.636Z</time></trkpt><trkpt lat="44.2656" lon="11.3759633"><ele>408.0</ele><time>2026-04-18T15:27:58.635Z</time></trkpt><trkpt lat="44.2656717" lon="11.3760067"><ele>408.0</ele><time>2026-04-18T15:27:59.636Z</time></trkpt><trkpt lat="44.2657483" lon="11.3760283"><ele>407.3333333333333</ele><time>2026-04-18T15:28:00.636Z</time></trkpt><trkpt lat="44.265835" lon="11.3760333"><ele>406.66666666666663</ele><time>2026-04-18T15:28:01.635Z</time></trkpt><trkpt lat="44.2659317" lon="11.3760183"><ele>406.0</ele><time>2026-04-18T15:28:02.636Z</time></trkpt><trkpt lat="44.2660183" lon="11.3760183"><ele>405.3333333333333</ele><time>2026-04-18T15:28:03.636Z</time></trkpt><trkpt lat="44.2660917" lon="11.3760467"><ele>404.66666666666663</ele><time>2026-04-18T15:28:04.635Z</time></trkpt><trkpt lat="44.266155" lon="11.3760933"><ele>404.0</ele><time>2026-04-18T15:28:05.635Z</time></trkpt><trkpt lat="44.266215" lon="11.3761667"><ele>404.0</ele><time>2026-04-18T15:28:06.635Z</time></trkpt><trkpt lat="44.2662683" lon="11.3762683"><ele>404.0</ele><time>2026-04-18T15:28:07.636Z</time></trkpt><trkpt lat="44.26632" lon="11.3764"><ele>404.0</ele><time>2026-04-18T15:28:08.635Z</time></trkpt><trkpt lat="44.2663567" lon="11.3765367"><ele>404.0</ele><time>2026-04-18T15:28:09.636Z</time></trkpt><trkpt lat="44.2663917" lon="11.3766417"><ele>404.0</ele><time>2026-04-18T15:28:10.636Z</time></trkpt><trkpt lat="44.2664433" lon="11.3767283"><ele>400.8333333333333</ele><time>2026-04-18T15:28:11.635Z</time></trkpt><trkpt lat="44.2664967" lon="11.3768083"><ele>397.66666666666663</ele><time>2026-04-18T15:28:12.636Z</time></trkpt><trkpt lat="44.2665533" lon="11.3768733"><ele>394.5</ele><time>2026-04-18T15:28:13.636Z</time></trkpt><trkpt lat="44.266635" lon="11.37696"><ele>391.33333333333337</ele><time>2026-04-18T15:28:15.635Z</time></trkpt><trkpt lat="44.2666833" lon="11.377035"><ele>388.1666666666667</ele><time>2026-04-18T15:28:17.635Z</time></trkpt><trkpt lat="44.2666083" lon="11.377135"><ele>385.0</ele><time>2026-04-18T15:28:21.635Z</time></trkpt><trkpt lat="44.2664617" lon="11.3771167"><ele>383.6</ele><time>2026-04-18T15:28:23.635Z</time></trkpt><trkpt lat="44.2663617" lon="11.3770883"><ele>382.2</ele><time>2026-04-18T15:28:24.635Z</time></trkpt><trkpt lat="44.266255" lon="11.3770517"><ele>380.79999999999995</ele><time>2026-04-18T15:28:25.635Z</time></trkpt><trkpt lat="44.2661533" lon="11.377015"><ele>379.4</ele><time>2026-04-18T15:28:26.636Z</time></trkpt><trkpt lat="44.2660667" lon="11.3769733"><ele>378.0</ele><time>2026-04-18T15:28:27.635Z</time></trkpt><trkpt lat="44.2659933" lon="11.3769367"><ele>378.0</ele><time>2026-04-18T15:28:28.635Z</time></trkpt><trkpt lat="44.2659183" lon="11.3769133"><ele>378.0</ele><time>2026-04-18T15:28:29.636Z</time></trkpt><trkpt lat="44.2658517" lon="11.3769183"><ele>378.0</ele><time>2026-04-18T15:28:30.635Z</time></trkpt><trkpt lat="44.2657267" lon="11.3770017"><ele>378.0</ele><time>2026-04-18T15:28:32.635Z</time></trkpt><trkpt lat="44.2656583" lon="11.37709"><ele>378.0</ele><time>2026-04-18T15:28:33.635Z</time></trkpt><trkpt lat="44.265595" lon="11.3772017"><ele>375.8333333333333</ele><time>2026-04-18T15:28:34.636Z</time></trkpt><trkpt lat="44.2655417" lon="11.3773"><ele>373.6666666666667</ele><time>2026-04-18T15:28:35.635Z</time></trkpt><trkpt lat="44.26549" lon="11.377375"><ele>371.5</ele><time>2026-04-18T15:28:36.635Z</time></trkpt><trkpt lat="44.265435" lon="11.3774617"><ele>369.33333333333337</ele><time>2026-04-18T15:28:37.635Z</time></trkpt><trkpt lat="44.2653817" lon="11.3775383"><ele>367.1666666666667</ele><time>2026-04-18T15:28:38.635Z</time></trkpt><trkpt lat="44.2653167" lon="11.3775983"><ele>365.0</ele><time>2026-04-18T15:28:39.636Z</time></trkpt><trkpt lat="44.2652517" lon="11.3776517"><ele>365.00000000000006</ele><time>2026-04-18T15:28:40.635Z</time></trkpt><trkpt lat="44.2651933" lon="11.3777"><ele>365.0</ele><time>2026-04-18T15:28:41.636Z</time></trkpt><trkpt lat="44.2651267" lon="11.3777483"><ele>365.0</ele><time>2026-04-18T15:28:42.636Z</time></trkpt><trkpt lat="44.265055" lon="11.377805"><ele>365.0</ele><time>2026-04-18T15:28:43.636Z</time></trkpt><trkpt lat="44.264985" lon="11.377855"><ele>365.0</ele><time>2026-04-18T15:28:44.636Z</time></trkpt><trkpt lat="44.264915" lon="11.3778967"><ele>365.00000000000006</ele><time>2026-04-18T15:28:45.635Z</time></trkpt><trkpt lat="44.2648517" lon="11.3779333"><ele>365.0</ele><time>2026-04-18T15:28:46.636Z</time></trkpt><trkpt lat="44.2647517" lon="11.3779867"><ele>362.4</ele><time>2026-04-18T15:28:48.636Z</time></trkpt><trkpt lat="44.2647267" lon="11.378105"><ele>359.8</ele><time>2026-04-18T15:28:51.635Z</time></trkpt><trkpt lat="44.26483" lon="11.37818"><ele>357.20000000000005</ele><time>2026-04-18T15:28:53.636Z</time></trkpt><trkpt lat="44.2649133" lon="11.378185"><ele>354.6</ele><time>2026-04-18T15:28:54.635Z</time></trkpt><trkpt lat="44.265005" lon="11.3781817"><ele>352.0</ele><time>2026-04-18T15:28:55.636Z</time></trkpt><trkpt lat="44.2650967" lon="11.3781867"><ele>351.8333333333333</ele><time>2026-04-18T15:28:56.635Z</time></trkpt><trkpt lat="44.2651767" lon="11.3782067"><ele>351.66666666666663</ele><time>2026-04-18T15:28:57.635Z</time></trkpt><trkpt lat="44.26526" lon="11.3782333"><ele>351.5</ele><time>2026-04-18T15:28:58.635Z</time></trkpt><trkpt lat="44.2653367" lon="11.3782767"><ele>351.3333333333333</ele><time>2026-04-18T15:28:59.636Z</time></trkpt><trkpt lat="44.2654" lon="11.3783467"><ele>351.1666666666667</ele><time>2026-04-18T15:29:00.635Z</time></trkpt><trkpt lat="44.2654483" lon="11.3784333"><ele>351.0</ele><time>2026-04-18T15:29:01.636Z</time></trkpt><trkpt lat="44.2655283" lon="11.3785617"><ele>350.0</ele><time>2026-04-18T15:29:03.635Z</time></trkpt><trkpt lat="44.2656233" lon="11.3786"><ele>349.0</ele><time>2026-04-18T15:29:05.635Z</time></trkpt><trkpt lat="44.2656733" lon="11.3784967"><ele>348.0</ele><time>2026-04-18T15:29:07.635Z</time></trkpt><trkpt lat="44.2656783" lon="11.378405"><ele>347.0</ele><time>2026-04-18T15:29:08.636Z</time></trkpt><trkpt lat="44.265735" lon="11.378285"><ele>346.0</ele><time>2026-04-18T15:29:10.636Z</time></trkpt><trkpt lat="44.2658183" lon="11.37833"><ele>345.0</ele><time>2026-04-18T15:29:12.635Z</time></trkpt><trkpt lat="44.2658467" lon="11.3784117"><ele>345.0</ele><time>2026-04-18T15:29:13.635Z</time></trkpt><trkpt lat="44.265855" lon="11.3785233"><ele>345.0</ele><time>2026-04-18T15:29:14.636Z</time></trkpt><trkpt lat="44.2658633" lon="11.3786517"><ele>345.0</ele><time>2026-04-18T15:29:15.636Z</time></trkpt><trkpt lat="44.26588" lon="11.3787767"><ele>345.0</ele><time>2026-04-18T15:29:16.636Z</time></trkpt><trkpt lat="44.265915" lon="11.3788983"><ele>345.0</ele><time>2026-04-18T15:29:17.636Z</time></trkpt><trkpt lat="44.2659683" lon="11.3790067"><ele>342.8333333333333</ele><time>2026-04-18T15:29:18.635Z</time></trkpt><trkpt lat="44.26602" lon="11.3791117"><ele>340.6666666666667</ele><time>2026-04-18T15:29:19.636Z</time></trkpt><trkpt lat="44.2660383" lon="11.3792283"><ele>338.5</ele><time>2026-04-18T15:29:20.636Z</time></trkpt><trkpt lat="44.2660333" lon="11.3793367"><ele>336.33333333333337</ele><time>2026-04-18T15:29:21.635Z</time></trkpt><trkpt lat="44.266015" lon="11.3794417"><ele>334.1666666666667</ele><time>2026-04-18T15:29:22.636Z</time></trkpt><trkpt lat="44.2659833" lon="11.379535"><ele>332.0</ele><time>2026-04-18T15:29:23.635Z</time></trkpt><trkpt lat="44.2659367" lon="11.3796117"><ele>332.0</ele><time>2026-04-18T15:29:24.635Z</time></trkpt><trkpt lat="44.26588" lon="11.37967"><ele>332.0</ele><time>2026-04-18T15:29:25.635Z</time></trkpt><trkpt lat="44.2658067" lon="11.379715"><ele>332.0</ele><time>2026-04-18T15:29:26.635Z</time></trkpt><trkpt lat="44.26572" lon="11.3797417"><ele>332.0</ele><time>2026-04-18T15:29:27.635Z</time></trkpt><trkpt lat="44.2656217" lon="11.3797517"><ele>332.0</ele><time>2026-04-18T15:29:28.635Z</time></trkpt><trkpt lat="44.2654917" lon="11.3797367"><ele>327.75</ele><time>2026-04-18T15:29:29.636Z</time></trkpt><trkpt lat="44.2653583" lon="11.379725"><ele>323.5</ele><time>2026-04-18T15:29:30.636Z</time></trkpt><trkpt lat="44.2652183" lon="11.37973"><ele>319.25</ele><time>2026-04-18T15:29:31.635Z</time></trkpt><trkpt lat="44.26509" lon="11.37976"><ele>315.0</ele><time>2026-04-18T15:29:32.636Z</time></trkpt><trkpt lat="44.2649817" lon="11.3798083"><ele>315.0</ele><time>2026-04-18T15:29:33.635Z</time></trkpt><trkpt lat="44.2648867" lon="11.37984"><ele>315.0</ele><time>2026-04-18T15:29:34.635Z</time></trkpt><trkpt lat="44.2648133" lon="11.3798333"><ele>315.0</ele><time>2026-04-18T15:29:35.635Z</time></trkpt><trkpt lat="44.264745" lon="11.3798233"><ele>315.0</ele><time>2026-04-18T15:29:36.636Z</time></trkpt><trkpt lat="44.2646533" lon="11.3798433"><ele>315.0</ele><time>2026-04-18T15:29:38.635Z</time></trkpt><trkpt lat="44.26464" lon="11.3799483"><ele>315.0</ele><time>2026-04-18T15:29:41.636Z</time></trkpt><trkpt lat="44.2647217" lon="11.380045"><ele>315.0</ele><time>2026-04-18T15:29:43.635Z</time></trkpt><trkpt lat="44.2647917" lon="11.3800867"><ele>315.0</ele><time>2026-04-18T15:29:44.636Z</time></trkpt><trkpt lat="44.2648767" lon="11.3801333"><ele>315.0</ele><time>2026-04-18T15:29:45.635Z</time></trkpt><trkpt lat="44.2649717" lon="11.3801833"><ele>315.0</ele><time>2026-04-18T15:29:46.636Z</time></trkpt><trkpt lat="44.2650767" lon="11.3802417"><ele>315.0</ele><time>2026-04-18T15:29:47.635Z</time></trkpt><trkpt lat="44.2651817" lon="11.3803067"><ele>315.0</ele><time>2026-04-18T15:29:48.635Z</time></trkpt><trkpt lat="44.2652883" lon="11.3803733"><ele>315.0</ele><time>2026-04-18T15:29:49.636Z</time></trkpt><trkpt lat="44.2653833" lon="11.3804317"><ele>315.0</ele><time>2026-04-18T15:29:50.635Z</time></trkpt><trkpt lat="44.26547" lon="11.380485"><ele>315.0</ele><time>2026-04-18T15:29:51.636Z</time></trkpt><trkpt lat="44.2655433" lon="11.3805483"><ele>315.0</ele><time>2026-04-18T15:29:52.636Z</time></trkpt><trkpt lat="44.2656033" lon="11.3806067"><ele>312.0</ele><time>2026-04-18T15:29:53.636Z</time></trkpt><trkpt lat="44.2656483" lon="11.380675"><ele>309.0</ele><time>2026-04-18T15:29:54.635Z</time></trkpt><trkpt lat="44.265685" lon="11.3807617"><ele>306.0</ele><time>2026-04-18T15:29:55.636Z</time></trkpt><trkpt lat="44.2657267" lon="11.3808467"><ele>303.0</ele><time>2026-04-18T15:29:56.636Z</time></trkpt><trkpt lat="44.2657733" lon="11.3809283"><ele>300.0</ele><time>2026-04-18T15:29:57.636Z</time></trkpt><trkpt lat="44.2658333" lon="11.3810067"><ele>297.0</ele><time>2026-04-18T15:29:58.635Z</time></trkpt><trkpt lat="44.2659033" lon="11.3810733"><ele>297.0</ele><time>2026-04-18T15:29:59.636Z</time></trkpt><trkpt lat="44.2659683" lon="11.3811483"><ele>297.0</ele><time>2026-04-18T15:30:00.635Z</time></trkpt><trkpt lat="44.2660267" lon="11.3812167"><ele>297.0</ele><time>2026-04-18T15:30:01.635Z</time></trkpt><trkpt lat="44.266105" lon="11.3813233"><ele>297.0</ele><time>2026-04-18T15:30:03.636Z</time></trkpt><trkpt lat="44.26618" lon="11.3814217"><ele>297.0</ele><time>2026-04-18T15:30:06.635Z</time></trkpt><trkpt lat="44.266295" lon="11.3815317"><ele>296.25</ele><time>2026-04-18T15:30:08.636Z</time></trkpt><trkpt lat="44.2663967" lon="11.3816017"><ele>295.5</ele><time>2026-04-18T15:30:09.635Z</time></trkpt><trkpt lat="44.26651" lon="11.3816717"><ele>294.75</ele><time>2026-04-18T15:30:10.635Z</time></trkpt><trkpt lat="44.2666417" lon="11.381755"><ele>294.0</ele><time>2026-04-18T15:30:11.636Z</time></trkpt><trkpt lat="44.2667833" lon="11.3818383"><ele>294.0</ele><time>2026-04-18T15:30:12.635Z</time></trkpt><trkpt lat="44.2669183" lon="11.38191"><ele>294.0</ele><time>2026-04-18T15:30:13.635Z</time></trkpt><trkpt lat="44.267045" lon="11.381985"><ele>294.0</ele><time>2026-04-18T15:30:14.635Z</time></trkpt><trkpt lat="44.2671683" lon="11.3820517"><ele>294.0</ele><time>2026-04-18T15:30:15.635Z</time></trkpt><trkpt lat="44.2672833" lon="11.3821133"><ele>293.2</ele><time>2026-04-18T15:30:16.636Z</time></trkpt><trkpt lat="44.2674" lon="11.38215"><ele>292.4</ele><time>2026-04-18T15:30:17.635Z</time></trkpt><trkpt lat="44.2675117" lon="11.38218"><ele>291.6</ele><time>2026-04-18T15:30:18.634Z</time></trkpt><trkpt lat="44.2676267" lon="11.3821817"><ele>290.8</ele><time>2026-04-18T15:30:19.634Z</time></trkpt><trkpt lat="44.2677267" lon="11.38218"><ele>290.0</ele><time>2026-04-18T15:30:20.635Z</time></trkpt><trkpt lat="44.2678233" lon="11.3821917"><ele>290.0</ele><time>2026-04-18T15:30:21.635Z</time></trkpt><trkpt lat="44.2679167" lon="11.3822417"><ele>290.0</ele><time>2026-04-18T15:30:22.635Z</time></trkpt><trkpt lat="44.2680067" lon="11.38233"><ele>290.0</ele><time>2026-04-18T15:30:23.635Z</time></trkpt><trkpt lat="44.268085" lon="11.3824483"><ele>290.0</ele><time>2026-04-18T15:30:24.634Z</time></trkpt><trkpt lat="44.2681717" lon="11.38259"><ele>298.0</ele><time>2026-04-18T15:30:25.635Z</time></trkpt><trkpt lat="44.2682767" lon="11.3827333"><ele>306.0</ele><time>2026-04-18T15:30:26.635Z</time></trkpt><trkpt lat="44.2683983" lon="11.3828617"><ele>314.0</ele><time>2026-04-18T15:30:27.634Z</time></trkpt><trkpt lat="44.26853" lon="11.3829817"><ele>307.5</ele><time>2026-04-18T15:30:28.634Z</time></trkpt><trkpt lat="44.2686567" lon="11.3831083"><ele>301.0</ele><time>2026-04-18T15:30:29.634Z</time></trkpt><trkpt lat="44.2687667" lon="11.3832583"><ele>294.5</ele><time>2026-04-18T15:30:30.634Z</time></trkpt><trkpt lat="44.268845" lon="11.38341"><ele>288.0</ele><time>2026-04-18T15:30:31.634Z</time></trkpt><trkpt lat="44.2689117" lon="11.38356"><ele>286.75</ele><time>2026-04-18T15:30:32.635Z</time></trkpt><trkpt lat="44.26899" lon="11.3837017"><ele>285.5</ele><time>2026-04-18T15:30:33.635Z</time></trkpt><trkpt lat="44.2690817" lon="11.38381"><ele>284.25</ele><time>2026-04-18T15:30:34.634Z</time></trkpt><trkpt lat="44.26919" lon="11.3839017"><ele>283.0</ele><time>2026-04-18T15:30:35.634Z</time></trkpt><trkpt lat="44.2693133" lon="11.383975"><ele>283.0</ele><time>2026-04-18T15:30:36.634Z</time></trkpt><trkpt lat="44.269445" lon="11.384035"><ele>283.0</ele><time>2026-04-18T15:30:37.634Z</time></trkpt><trkpt lat="44.2695867" lon="11.3840783"><ele>283.0</ele><time>2026-04-18T15:30:38.634Z</time></trkpt><trkpt lat="44.269735" lon="11.3841117"><ele>283.0</ele><time>2026-04-18T15:30:39.635Z</time></trkpt><trkpt lat="44.269905" lon="11.384135"><ele>287.3333333333333</ele><time>2026-04-18T15:30:40.634Z</time></trkpt><trkpt lat="44.27008" lon="11.3841583"><ele>291.6666666666667</ele><time>2026-04-18T15:30:41.634Z</time></trkpt><trkpt lat="44.270235" lon="11.3842033"><ele>296.0</ele><time>2026-04-18T15:30:42.635Z</time></trkpt><trkpt lat="44.2703717" lon="11.384265"><ele>296.0</ele><time>2026-04-18T15:30:43.635Z</time></trkpt><trkpt lat="44.2705083" lon="11.3843317"><ele>296.0</ele><time>2026-04-18T15:30:44.635Z</time></trkpt><trkpt lat="44.270645" lon="11.384385"><ele>296.0</ele><time>2026-04-18T15:30:45.635Z</time></trkpt><trkpt lat="44.2707817" lon="11.38444"><ele>296.0</ele><time>2026-04-18T15:30:46.635Z</time></trkpt><trkpt lat="44.2709283" lon="11.38449"><ele>299.6666666666667</ele><time>2026-04-18T15:30:47.635Z</time></trkpt><trkpt lat="44.2710717" lon="11.3845467"><ele>303.3333333333333</ele><time>2026-04-18T15:30:48.635Z</time></trkpt><trkpt lat="44.271225" lon="11.3845817"><ele>307.0</ele><time>2026-04-18T15:30:49.634Z</time></trkpt><trkpt lat="44.271375" lon="11.3846167"><ele>308.0</ele><time>2026-04-18T15:30:50.634Z</time></trkpt><trkpt lat="44.2715183" lon="11.3846417"><ele>309.0</ele><time>2026-04-18T15:30:51.634Z</time></trkpt><trkpt lat="44.2716683" lon="11.3846483"><ele>310.0</ele><time>2026-04-18T15:30:52.635Z</time></trkpt><trkpt lat="44.2718133" lon="11.3846467"><ele>311.0</ele><time>2026-04-18T15:30:53.635Z</time></trkpt><trkpt lat="44.2719517" lon="11.3846517"><ele>308.25</ele><time>2026-04-18T15:30:54.635Z</time></trkpt><trkpt lat="44.2720833" lon="11.3846867"><ele>305.5</ele><time>2026-04-18T15:30:55.634Z</time></trkpt><trkpt lat="44.2722067" lon="11.38475"><ele>302.75</ele><time>2026-04-18T15:30:56.634Z</time></trkpt><trkpt lat="44.2723317" lon="11.3848317"><ele>300.0</ele><time>2026-04-18T15:30:57.634Z</time></trkpt><trkpt lat="44.2724433" lon="11.3849133"><ele>300.0</ele><time>2026-04-18T15:30:58.634Z</time></trkpt><trkpt lat="44.2725433" lon="11.38499"><ele>300.0</ele><time>2026-04-18T15:30:59.635Z</time></trkpt><trkpt lat="44.272635" lon="11.38508"><ele>300.0</ele><time>2026-04-18T15:31:00.635Z</time></trkpt><trkpt lat="44.2727017" lon="11.3851867"><ele>300.0</ele><time>2026-04-18T15:31:01.634Z</time></trkpt><trkpt lat="44.2727767" lon="11.3853533"><ele>295.25</ele><time>2026-04-18T15:31:02.634Z</time></trkpt><trkpt lat="44.2728233" lon="11.3855467"><ele>290.5</ele><time>2026-04-18T15:31:03.634Z</time></trkpt><trkpt lat="44.27285" lon="11.3857433"><ele>285.75</ele><time>2026-04-18T15:31:04.635Z</time></trkpt><trkpt lat="44.2728717" lon="11.3859433"><ele>281.0</ele><time>2026-04-18T15:31:05.634Z</time></trkpt><trkpt lat="44.27289" lon="11.38612"><ele>281.0</ele><time>2026-04-18T15:31:06.635Z</time></trkpt><trkpt lat="44.2728867" lon="11.3862967"><ele>281.0</ele><time>2026-04-18T15:31:07.635Z</time></trkpt><trkpt lat="44.2728517" lon="11.38647"><ele>281.0</ele><time>2026-04-18T15:31:08.634Z</time></trkpt><trkpt lat="44.2728033" lon="11.38664"><ele>281.0</ele><time>2026-04-18T15:31:09.634Z</time></trkpt><trkpt lat="44.2727683" lon="11.3867983"><ele>281.0</ele><time>2026-04-18T15:31:10.634Z</time></trkpt><trkpt lat="44.2727567" lon="11.3869517"><ele>281.0</ele><time>2026-04-18T15:31:11.634Z</time></trkpt><trkpt lat="44.2727667" lon="11.3870767"><ele>281.0</ele><time>2026-04-18T15:31:12.635Z</time></trkpt><trkpt lat="44.2728183" lon="11.3871733"><ele>281.0</ele><time>2026-04-18T15:31:13.635Z</time></trkpt><trkpt lat="44.2728833" lon="11.3872317"><ele>281.0</ele><time>2026-04-18T15:31:14.634Z</time></trkpt><trkpt lat="44.2729633" lon="11.3872617"><ele>281.0</ele><time>2026-04-18T15:31:15.635Z</time></trkpt><trkpt lat="44.2730633" lon="11.3872767"><ele>281.25</ele><time>2026-04-18T15:31:16.635Z</time></trkpt><trkpt lat="44.273185" lon="11.3872433"><ele>281.5</ele><time>2026-04-18T15:31:17.635Z</time></trkpt><trkpt lat="44.2733117" lon="11.3872083"><ele>281.75</ele><time>2026-04-18T15:31:18.634Z</time></trkpt><trkpt lat="44.27344" lon="11.387185"><ele>282.0</ele><time>2026-04-18T15:31:19.635Z</time></trkpt><trkpt lat="44.273555" lon="11.3871917"><ele>282.0</ele><time>2026-04-18T15:31:20.634Z</time></trkpt><trkpt lat="44.273655" lon="11.3872433"><ele>282.0</ele><time>2026-04-18T15:31:21.634Z</time></trkpt><trkpt lat="44.273755" lon="11.3873333"><ele>282.0</ele><time>2026-04-18T15:31:22.634Z</time></trkpt><trkpt lat="44.27384" lon="11.3874467"><ele>282.0</ele><time>2026-04-18T15:31:23.634Z</time></trkpt><trkpt lat="44.2739333" lon="11.387565"><ele>286.2</ele><time>2026-04-18T15:31:24.634Z</time></trkpt><trkpt lat="44.27403" lon="11.3876617"><ele>290.4</ele><time>2026-04-18T15:31:25.634Z</time></trkpt><trkpt lat="44.2741133" lon="11.3877383"><ele>294.6</ele><time>2026-04-18T15:31:26.634Z</time></trkpt><trkpt lat="44.2742" lon="11.38781"><ele>298.8</ele><time>2026-04-18T15:31:27.635Z</time></trkpt><trkpt lat="44.274275" lon="11.3878833"><ele>303.0</ele><time>2026-04-18T15:31:28.634Z</time></trkpt><trkpt lat="44.2743317" lon="11.3879617"><ele>297.8</ele><time>2026-04-18T15:31:29.634Z</time></trkpt><trkpt lat="44.27438" lon="11.3880433"><ele>292.6</ele><time>2026-04-18T15:31:30.634Z</time></trkpt><trkpt lat="44.2744167" lon="11.388135"><ele>287.4</ele><time>2026-04-18T15:31:31.634Z</time></trkpt><trkpt lat="44.2744217" lon="11.3883017"><ele>282.2</ele><time>2026-04-18T15:31:33.634Z</time></trkpt><trkpt lat="44.2743317" lon="11.388385"><ele>277.0</ele><time>2026-04-18T15:31:35.635Z</time></trkpt><trkpt lat="44.2742583" lon="11.38838"><ele>277.0</ele><time>2026-04-18T15:31:36.634Z</time></trkpt><trkpt lat="44.2741833" lon="11.3883883"><ele>277.0</ele><time>2026-04-18T15:31:37.635Z</time></trkpt><trkpt lat="44.274125" lon="11.388425"><ele>277.0</ele><time>2026-04-18T15:31:38.634Z</time></trkpt><trkpt lat="44.274085" lon="11.3885817"><ele>277.0</ele><time>2026-04-18T15:31:40.635Z</time></trkpt><trkpt lat="44.274095" lon="11.388675"><ele>277.0</ele><time>2026-04-18T15:31:41.635Z</time></trkpt><trkpt lat="44.2741117" lon="11.38876"><ele>277.0</ele><time>2026-04-18T15:31:42.634Z</time></trkpt><trkpt lat="44.274135" lon="11.388845"><ele>276.6</ele><time>2026-04-18T15:31:43.634Z</time></trkpt><trkpt lat="44.2741583" lon="11.388945"><ele>276.2</ele><time>2026-04-18T15:31:44.634Z</time></trkpt><trkpt lat="44.2741917" lon="11.3890683"><ele>275.8</ele><time>2026-04-18T15:31:45.634Z</time></trkpt><trkpt lat="44.2742083" lon="11.3892367"><ele>275.4</ele><time>2026-04-18T15:31:46.634Z</time></trkpt><trkpt lat="44.2742133" lon="11.38941"><ele>275.0</ele><time>2026-04-18T15:31:47.635Z</time></trkpt><trkpt lat="44.274225" lon="11.3895333"><ele>274.0</ele><time>2026-04-18T15:31:48.634Z</time></trkpt><trkpt lat="44.2742183" lon="11.3896833"><ele>273.0</ele><time>2026-04-18T15:31:49.635Z</time></trkpt><trkpt lat="44.2742067" lon="11.389815"><ele>272.0</ele><time>2026-04-18T15:31:50.634Z</time></trkpt><trkpt lat="44.274195" lon="11.3899333"><ele>271.0</ele><time>2026-04-18T15:31:51.634Z</time></trkpt><trkpt lat="44.2741833" lon="11.39005"><ele>270.0</ele><time>2026-04-18T15:31:52.634Z</time></trkpt><trkpt lat="44.2741783" lon="11.3901717"><ele>270.0</ele><time>2026-04-18T15:31:53.635Z</time></trkpt><trkpt lat="44.27418" lon="11.3902883"><ele>270.0</ele><time>2026-04-18T15:31:54.635Z</time></trkpt><trkpt lat="44.274195" lon="11.390375"><ele>270.0</ele><time>2026-04-18T15:31:55.635Z</time></trkpt><trkpt lat="44.274215" lon="11.3904683"><ele>270.0</ele><time>2026-04-18T15:31:56.634Z</time></trkpt><trkpt lat="44.2742583" lon="11.3905433"><ele>270.0</ele><time>2026-04-18T15:31:57.634Z</time></trkpt><trkpt lat="44.2743467" lon="11.3906617"><ele>270.0</ele><time>2026-04-18T15:31:59.634Z</time></trkpt><trkpt lat="44.2744233" lon="11.3907833"><ele>270.42857142857144</ele><time>2026-04-18T15:32:01.634Z</time></trkpt><trkpt lat="44.274465" lon="11.3908533"><ele>270.85714285714283</ele><time>2026-04-18T15:32:02.634Z</time></trkpt><trkpt lat="44.2745067" lon="11.39092"><ele>271.2857142857143</ele><time>2026-04-18T15:32:03.635Z</time></trkpt><trkpt lat="44.2745517" lon="11.39099"><ele>271.7142857142857</ele><time>2026-04-18T15:32:04.635Z</time></trkpt><trkpt lat="44.2745967" lon="11.3910567"><ele>272.1428571428571</ele><time>2026-04-18T15:32:05.634Z</time></trkpt><trkpt lat="44.27464" lon="11.3911217"><ele>272.57142857142856</ele><time>2026-04-18T15:32:06.634Z</time></trkpt><trkpt lat="44.2746833" lon="11.3911883"><ele>273.0</ele><time>2026-04-18T15:32:07.635Z</time></trkpt><trkpt lat="44.2747367" lon="11.3912483"><ele>273.0</ele><time>2026-04-18T15:32:08.634Z</time></trkpt><trkpt lat="44.2747917" lon="11.3913033"><ele>273.0</ele><time>2026-04-18T15:32:09.635Z</time></trkpt><trkpt lat="44.27485" lon="11.3913517"><ele>273.0</ele><time>2026-04-18T15:32:10.635Z</time></trkpt><trkpt lat="44.27492" lon="11.3913967"><ele>273.0</ele><time>2026-04-18T15:32:11.635Z</time></trkpt><trkpt lat="44.2749967" lon="11.391435"><ele>273.0</ele><time>2026-04-18T15:32:12.634Z</time></trkpt><trkpt lat="44.2750817" lon="11.3914667"><ele>273.0</ele><time>2026-04-18T15:32:13.635Z</time></trkpt><trkpt lat="44.2751617" lon="11.3914933"><ele>273.0</ele><time>2026-04-18T15:32:14.635Z</time></trkpt><trkpt lat="44.2752433" lon="11.3915167"><ele>273.0</ele><time>2026-04-18T15:32:15.635Z</time></trkpt><trkpt lat="44.2753217" lon="11.3915383"><ele>273.0</ele><time>2026-04-18T15:32:16.634Z</time></trkpt><trkpt lat="44.2753917" lon="11.3915467"><ele>273.0</ele><time>2026-04-18T15:32:17.635Z</time></trkpt><trkpt lat="44.2755267" lon="11.3915517"><ele>273.0</ele><time>2026-04-18T15:32:19.635Z</time></trkpt><trkpt lat="44.2756" lon="11.3915367"><ele>273.0</ele><time>2026-04-18T15:32:20.634Z</time></trkpt><trkpt lat="44.2756767" lon="11.3915217"><ele>272.5</ele><time>2026-04-18T15:32:21.635Z</time></trkpt><trkpt lat="44.2757533" lon="11.3915083"><ele>272.0</ele><time>2026-04-18T15:32:22.634Z</time></trkpt><trkpt lat="44.2758333" lon="11.3914917"><ele>271.5</ele><time>2026-04-18T15:32:23.634Z</time></trkpt><trkpt lat="44.27592" lon="11.3914733"><ele>271.0</ele><time>2026-04-18T15:32:24.634Z</time></trkpt><trkpt lat="44.2760117" lon="11.3914467"><ele>270.5</ele><time>2026-04-18T15:32:25.634Z</time></trkpt><trkpt lat="44.2761" lon="11.3914217"><ele>270.0</ele><time>2026-04-18T15:32:26.634Z</time></trkpt><trkpt lat="44.2761983" lon="11.3914"><ele>270.0</ele><time>2026-04-18T15:32:27.634Z</time></trkpt><trkpt lat="44.2763" lon="11.391375"><ele>270.0</ele><time>2026-04-18T15:32:28.635Z</time></trkpt><trkpt lat="44.2764083" lon="11.39135"><ele>270.0</ele><time>2026-04-18T15:32:29.634Z</time></trkpt><trkpt lat="44.2765167" lon="11.3913167"><ele>270.0</ele><time>2026-04-18T15:32:30.634Z</time></trkpt><trkpt lat="44.276625" lon="11.3912917"><ele>270.0</ele><time>2026-04-18T15:32:31.635Z</time></trkpt><trkpt lat="44.276725" lon="11.391275"><ele>269.2</ele><time>2026-04-18T15:32:32.635Z</time></trkpt><trkpt lat="44.2768367" lon="11.3912617"><ele>268.4</ele><time>2026-04-18T15:32:33.635Z</time></trkpt><trkpt lat="44.276945" lon="11.391255"><ele>267.6</ele><time>2026-04-18T15:32:34.635Z</time></trkpt><trkpt lat="44.27705" lon="11.39124"><ele>266.8</ele><time>2026-04-18T15:32:35.634Z</time></trkpt><trkpt lat="44.2771567" lon="11.39122"><ele>266.0</ele><time>2026-04-18T15:32:36.635Z</time></trkpt><trkpt lat="44.2772633" lon="11.3911933"><ele>264.25</ele><time>2026-04-18T15:32:37.634Z</time></trkpt><trkpt lat="44.2773767" lon="11.3911833"><ele>262.5</ele><time>2026-04-18T15:32:38.634Z</time></trkpt><trkpt lat="44.2774933" lon="11.3911683"><ele>260.75</ele><time>2026-04-18T15:32:39.634Z</time></trkpt><trkpt lat="44.2776117" lon="11.39116"><ele>259.0</ele><time>2026-04-18T15:32:40.634Z</time></trkpt><trkpt lat="44.2777267" lon="11.3911617"><ele>259.0</ele><time>2026-04-18T15:32:41.635Z</time></trkpt><trkpt lat="44.2778467" lon="11.391185"><ele>259.0</ele><time>2026-04-18T15:32:42.634Z</time></trkpt><trkpt lat="44.2779683" lon="11.3911933"><ele>259.0</ele><time>2026-04-18T15:32:43.634Z</time></trkpt><trkpt lat="44.2780817" lon="11.3912083"><ele>259.0</ele><time>2026-04-18T15:32:44.634Z</time></trkpt><trkpt lat="44.2781833" lon="11.39123"><ele>259.59999999999997</ele><time>2026-04-18T15:32:45.635Z</time></trkpt><trkpt lat="44.2782783" lon="11.3912567"><ele>260.2</ele><time>2026-04-18T15:32:46.634Z</time></trkpt><trkpt lat="44.2783733" lon="11.39127"><ele>260.79999999999995</ele><time>2026-04-18T15:32:47.634Z</time></trkpt><trkpt lat="44.27846" lon="11.3912783"><ele>261.4</ele><time>2026-04-18T15:32:48.634Z</time></trkpt><trkpt lat="44.2785533" lon="11.3912917"><ele>262.0</ele><time>2026-04-18T15:32:49.635Z</time></trkpt><trkpt lat="44.27865" lon="11.3913017"><ele>262.0</ele><time>2026-04-18T15:32:50.634Z</time></trkpt><trkpt lat="44.278745" lon="11.39131"><ele>262.0</ele><time>2026-04-18T15:32:51.635Z</time></trkpt><trkpt lat="44.2788367" lon="11.39132"><ele>262.0</ele><time>2026-04-18T15:32:52.634Z</time></trkpt><trkpt lat="44.2789267" lon="11.3913367"><ele>262.0</ele><time>2026-04-18T15:32:53.634Z</time></trkpt><trkpt lat="44.2790033" lon="11.391355"><ele>262.0</ele><time>2026-04-18T15:32:54.635Z</time></trkpt><trkpt lat="44.2790717" lon="11.3913733"><ele>262.0</ele><time>2026-04-18T15:32:55.634Z</time></trkpt><trkpt lat="44.2791617" lon="11.391395"><ele>261.4</ele><time>2026-04-18T15:32:57.635Z</time></trkpt><trkpt lat="44.2792333" lon="11.39144"><ele>260.79999999999995</ele><time>2026-04-18T15:33:00.634Z</time></trkpt><trkpt lat="44.2793233" lon="11.3914967"><ele>260.2</ele><time>2026-04-18T15:33:02.635Z</time></trkpt><trkpt lat="44.2794383" lon="11.3915667"><ele>259.59999999999997</ele><time>2026-04-18T15:33:04.635Z</time></trkpt><trkpt lat="44.2795033" lon="11.3916133"><ele>259.0</ele><time>2026-04-18T15:33:06.635Z</time></trkpt><trkpt lat="44.2795683" lon="11.3916767"><ele>259.0</ele><time>2026-04-18T15:33:18.635Z</time></trkpt><trkpt lat="44.2796583" lon="11.3916417"><ele>259.0</ele><time>2026-04-18T15:33:21.635Z</time></trkpt><trkpt lat="44.2797117" lon="11.391555"><ele>259.0</ele><time>2026-04-18T15:33:23.634Z</time></trkpt><trkpt lat="44.279795" lon="11.3914117"><ele>259.0</ele><time>2026-04-18T15:33:25.634Z</time></trkpt><trkpt lat="44.27984" lon="11.391325"><ele>259.0</ele><time>2026-04-18T15:33:26.635Z</time></trkpt><trkpt lat="44.2798967" lon="11.3912467"><ele>259.66666666666663</ele><time>2026-04-18T15:33:27.634Z</time></trkpt><trkpt lat="44.27996" lon="11.3911817"><ele>260.3333333333333</ele><time>2026-04-18T15:33:28.634Z</time></trkpt><trkpt lat="44.2800283" lon="11.391125"><ele>261.0</ele><time>2026-04-18T15:33:29.634Z</time></trkpt><trkpt lat="44.280095" lon="11.3910867"><ele>261.6666666666667</ele><time>2026-04-18T15:33:30.634Z</time></trkpt><trkpt lat="44.2801617" lon="11.3910433"><ele>262.33333333333337</ele><time>2026-04-18T15:33:31.635Z</time></trkpt><trkpt lat="44.2802433" lon="11.3909267"><ele>263.0</ele><time>2026-04-18T15:33:33.634Z</time></trkpt><trkpt lat="44.2802733" lon="11.39083"><ele>263.0</ele><time>2026-04-18T15:33:34.635Z</time></trkpt><trkpt lat="44.28029" lon="11.3907067"><ele>263.0</ele><time>2026-04-18T15:33:35.634Z</time></trkpt><trkpt lat="44.2803083" lon="11.3906033"><ele>263.0</ele><time>2026-04-18T15:33:36.634Z</time></trkpt><trkpt lat="44.280315" lon="11.390475"><ele>263.0</ele><time>2026-04-18T15:33:38.634Z</time></trkpt><trkpt lat="44.28038" lon="11.3904717"><ele>263.0</ele><time>2026-04-18T15:34:11.633Z</time></trkpt><trkpt lat="44.280445" lon="11.390495"><ele>263.0</ele><time>2026-04-18T15:34:12.633Z</time></trkpt><trkpt lat="44.2805217" lon="11.3905217"><ele>264.2</ele><time>2026-04-18T15:34:13.634Z</time></trkpt><trkpt lat="44.2806083" lon="11.390555"><ele>265.4</ele><time>2026-04-18T15:34:14.633Z</time></trkpt><trkpt lat="44.2807083" lon="11.3905783"><ele>266.59999999999997</ele><time>2026-04-18T15:34:15.634Z</time></trkpt><trkpt lat="44.2808117" lon="11.3906117"><ele>267.8</ele><time>2026-04-18T15:34:16.634Z</time></trkpt><trkpt lat="44.2809117" lon="11.39063"><ele>269.0</ele><time>2026-04-18T15:34:17.633Z</time></trkpt><trkpt lat="44.2810233" lon="11.3906583"><ele>269.0</ele><time>2026-04-18T15:34:18.633Z</time></trkpt><trkpt lat="44.2811433" lon="11.3907"><ele>269.0</ele><time>2026-04-18T15:34:19.633Z</time></trkpt><trkpt lat="44.28126" lon="11.39075"><ele>269.0</ele><time>2026-04-18T15:34:20.634Z</time></trkpt><trkpt lat="44.2813883" lon="11.3908133"><ele>269.0</ele><time>2026-04-18T15:34:21.633Z</time></trkpt><trkpt lat="44.2815117" lon="11.39088"><ele>269.75</ele><time>2026-04-18T15:34:22.633Z</time></trkpt><trkpt lat="44.28163" lon="11.3909583"><ele>270.5</ele><time>2026-04-18T15:34:23.634Z</time></trkpt><trkpt lat="44.2817583" lon="11.3910417"><ele>271.25</ele><time>2026-04-18T15:34:24.633Z</time></trkpt><trkpt lat="44.2818917" lon="11.39114"><ele>272.0</ele><time>2026-04-18T15:34:25.634Z</time></trkpt><trkpt lat="44.2820283" lon="11.391245"><ele>272.6666666666667</ele><time>2026-04-18T15:34:26.634Z</time></trkpt><trkpt lat="44.282165" lon="11.3913717"><ele>273.3333333333333</ele><time>2026-04-18T15:34:27.633Z</time></trkpt><trkpt lat="44.2823" lon="11.3915167"><ele>274.0</ele><time>2026-04-18T15:34:28.634Z</time></trkpt><trkpt lat="44.2824317" lon="11.3916533"><ele>274.0</ele><time>2026-04-18T15:34:29.633Z</time></trkpt><trkpt lat="44.2825617" lon="11.3918"><ele>274.0</ele><time>2026-04-18T15:34:30.634Z</time></trkpt><trkpt lat="44.2826967" lon="11.391905"><ele>274.0</ele><time>2026-04-18T15:34:31.633Z</time></trkpt><trkpt lat="44.2828267" lon="11.3919867"><ele>274.0</ele><time>2026-04-18T15:34:32.634Z</time></trkpt><trkpt lat="44.2829683" lon="11.3920367"><ele>274.0</ele><time>2026-04-18T15:34:33.633Z</time></trkpt><trkpt lat="44.2831283" lon="11.3920167"><ele>274.0</ele><time>2026-04-18T15:34:34.634Z</time></trkpt><trkpt lat="44.2833" lon="11.3919767"><ele>275.0</ele><time>2026-04-18T15:34:35.633Z</time></trkpt><trkpt lat="44.2834867" lon="11.3919183"><ele>276.0</ele><time>2026-04-18T15:34:36.633Z</time></trkpt><trkpt lat="44.2836633" lon="11.3918833"><ele>277.0</ele><time>2026-04-18T15:34:37.633Z</time></trkpt><trkpt lat="44.2838267" lon="11.3918767"><ele>279.66666666666663</ele><time>2026-04-18T15:34:38.634Z</time></trkpt><trkpt lat="44.2839783" lon="11.391905"><ele>282.3333333333333</ele><time>2026-04-18T15:34:39.634Z</time></trkpt><trkpt lat="44.2841267" lon="11.3919583"><ele>285.0</ele><time>2026-04-18T15:34:40.634Z</time></trkpt><trkpt lat="44.2842867" lon="11.392"><ele>285.0</ele><time>2026-04-18T15:34:41.634Z</time></trkpt><trkpt lat="44.2844333" lon="11.3920417"><ele>285.0</ele><time>2026-04-18T15:34:42.633Z</time></trkpt><trkpt lat="44.284565" lon="11.3921067"><ele>285.0</ele><time>2026-04-18T15:34:43.633Z</time></trkpt><trkpt lat="44.284685" lon="11.3921617"><ele>285.0</ele><time>2026-04-18T15:34:44.633Z</time></trkpt><trkpt lat="44.2847933" lon="11.3922233"><ele>281.6666666666667</ele><time>2026-04-18T15:34:45.633Z</time></trkpt><trkpt lat="44.2848817" lon="11.3922917"><ele>278.3333333333333</ele><time>2026-04-18T15:34:46.633Z</time></trkpt><trkpt lat="44.2849617" lon="11.3923633"><ele>275.0</ele><time>2026-04-18T15:34:47.633Z</time></trkpt><trkpt lat="44.2850283" lon="11.3924283"><ele>271.66666666666663</ele><time>2026-04-18T15:34:48.634Z</time></trkpt><trkpt lat="44.285085" lon="11.3924667"><ele>268.3333333333333</ele><time>2026-04-18T15:34:49.634Z</time></trkpt><trkpt lat="44.28515" lon="11.3924067"><ele>265.0</ele><time>2026-04-18T15:34:51.633Z</time></trkpt><trkpt lat="44.2851483" lon="11.3922733"><ele>269.0</ele><time>2026-04-18T15:34:53.634Z</time></trkpt><trkpt lat="44.2850617" lon="11.3921533"><ele>273.0</ele><time>2026-04-18T15:34:55.633Z</time></trkpt><trkpt lat="44.2849867" lon="11.3920917"><ele>277.0</ele><time>2026-04-18T15:34:56.634Z</time></trkpt><trkpt lat="44.2849" lon="11.3920317"><ele>281.0</ele><time>2026-04-18T15:34:57.633Z</time></trkpt><trkpt lat="44.2848033" lon="11.39197"><ele>285.0</ele><time>2026-04-18T15:34:58.634Z</time></trkpt><trkpt lat="44.2847133" lon="11.391915"><ele>285.0</ele><time>2026-04-18T15:34:59.633Z</time></trkpt><trkpt lat="44.2846417" lon="11.3918717"><ele>285.0</ele><time>2026-04-18T15:35:00.634Z</time></trkpt><trkpt lat="44.28457" lon="11.3918283"><ele>285.0</ele><time>2026-04-18T15:35:01.633Z</time></trkpt><trkpt lat="44.2845017" lon="11.3917767"><ele>285.0</ele><time>2026-04-18T15:35:02.634Z</time></trkpt><trkpt lat="44.284435" lon="11.3917383"><ele>285.0</ele><time>2026-04-18T15:35:03.634Z</time></trkpt><trkpt lat="44.2843733" lon="11.3916967"><ele>285.0</ele><time>2026-04-18T15:35:04.633Z</time></trkpt><trkpt lat="44.2843083" lon="11.39167"><ele>285.0</ele><time>2026-04-18T15:35:05.634Z</time></trkpt><trkpt lat="44.2842433" lon="11.3916367"><ele>285.0</ele><time>2026-04-18T15:35:06.633Z</time></trkpt><trkpt lat="44.2841783" lon="11.3916"><ele>285.0</ele><time>2026-04-18T15:35:07.633Z</time></trkpt><trkpt lat="44.284105" lon="11.3915717"><ele>285.0</ele><time>2026-04-18T15:35:08.633Z</time></trkpt><trkpt lat="44.28403" lon="11.391535"><ele>285.0</ele><time>2026-04-18T15:35:09.633Z</time></trkpt><trkpt lat="44.2839483" lon="11.391505"><ele>285.0</ele><time>2026-04-18T15:35:10.633Z</time></trkpt><trkpt lat="44.2838617" lon="11.3914683"><ele>285.0</ele><time>2026-04-18T15:35:11.633Z</time></trkpt><trkpt lat="44.28378" lon="11.391445"><ele>283.6666666666667</ele><time>2026-04-18T15:35:12.633Z</time></trkpt><trkpt lat="44.2836817" lon="11.391405"><ele>282.3333333333333</ele><time>2026-04-18T15:35:13.633Z</time></trkpt><trkpt lat="44.2835833" lon="11.3913767"><ele>281.0</ele><time>2026-04-18T15:35:14.633Z</time></trkpt><trkpt lat="44.2834967" lon="11.3913483"><ele>279.66666666666663</ele><time>2026-04-18T15:35:15.633Z</time></trkpt><trkpt lat="44.2834183" lon="11.3913233"><ele>278.3333333333333</ele><time>2026-04-18T15:35:16.633Z</time></trkpt><trkpt lat="44.2833533" lon="11.3912933"><ele>277.0</ele><time>2026-04-18T15:35:17.633Z</time></trkpt><trkpt lat="44.2832933" lon="11.391265"><ele>282.2</ele><time>2026-04-18T15:35:18.634Z</time></trkpt><trkpt lat="44.2832117" lon="11.39118"><ele>287.4</ele><time>2026-04-18T15:35:20.633Z</time></trkpt><trkpt lat="44.2832017" lon="11.391005"><ele>292.6</ele><time>2026-04-18T15:35:22.633Z</time></trkpt><trkpt lat="44.283225" lon="11.3909"><ele>297.8</ele><time>2026-04-18T15:35:23.634Z</time></trkpt><trkpt lat="44.2832717" lon="11.3908017"><ele>303.0</ele><time>2026-04-18T15:35:24.634Z</time></trkpt><trkpt lat="44.2833283" lon="11.390725"><ele>303.0</ele><time>2026-04-18T15:35:25.634Z</time></trkpt><trkpt lat="44.283405" lon="11.39067"><ele>303.0</ele><time>2026-04-18T15:35:26.633Z</time></trkpt><trkpt lat="44.2834817" lon="11.3906517"><ele>303.0</ele><time>2026-04-18T15:35:27.633Z</time></trkpt><trkpt lat="44.283565" lon="11.3906617"><ele>303.0</ele><time>2026-04-18T15:35:28.634Z</time></trkpt><trkpt lat="44.28365" lon="11.3906917"><ele>303.0</ele><time>2026-04-18T15:35:29.634Z</time></trkpt><trkpt lat="44.283725" lon="11.3907167"><ele>303.0</ele><time>2026-04-18T15:35:30.633Z</time></trkpt><trkpt lat="44.2837917" lon="11.3907083"><ele>303.0</ele><time>2026-04-18T15:35:31.633Z</time></trkpt><trkpt lat="44.283865" lon="11.3906367"><ele>303.0</ele><time>2026-04-18T15:35:33.634Z</time></trkpt><trkpt lat="44.28386" lon="11.3905467"><ele>303.0</ele><time>2026-04-18T15:35:35.633Z</time></trkpt><trkpt lat="44.2837533" lon="11.3904767"><ele>303.0</ele><time>2026-04-18T15:35:37.633Z</time></trkpt><trkpt lat="44.2836383" lon="11.3904217"><ele>303.0</ele><time>2026-04-18T15:35:38.633Z</time></trkpt><trkpt lat="44.2834933" lon="11.3903367"><ele>308.5</ele><time>2026-04-18T15:35:39.634Z</time></trkpt><trkpt lat="44.2833717" lon="11.390235"><ele>314.0</ele><time>2026-04-18T15:35:40.633Z</time></trkpt><trkpt lat="44.2832767" lon="11.39013"><ele>319.5</ele><time>2026-04-18T15:35:41.633Z</time></trkpt><trkpt lat="44.28321" lon="11.39"><ele>325.0</ele><time>2026-04-18T15:35:42.634Z</time></trkpt><trkpt lat="44.28317" lon="11.3898417"><ele>327.8</ele><time>2026-04-18T15:35:43.634Z</time></trkpt><trkpt lat="44.2831567" lon="11.389655"><ele>330.6</ele><time>2026-04-18T15:35:44.634Z</time></trkpt><trkpt lat="44.28315" lon="11.3894917"><ele>333.4</ele><time>2026-04-18T15:35:45.633Z</time></trkpt><trkpt lat="44.2831333" lon="11.3893467"><ele>336.2</ele><time>2026-04-18T15:35:46.633Z</time></trkpt><trkpt lat="44.28311" lon="11.389235"><ele>339.0</ele><time>2026-04-18T15:35:47.633Z</time></trkpt><trkpt lat="44.283075" lon="11.3891517"><ele>339.0</ele><time>2026-04-18T15:35:48.633Z</time></trkpt><trkpt lat="44.28303" lon="11.3890783"><ele>339.0</ele><time>2026-04-18T15:35:49.634Z</time></trkpt><trkpt lat="44.2829717" lon="11.3890333"><ele>339.0</ele><time>2026-04-18T15:35:50.633Z</time></trkpt><trkpt lat="44.282835" lon="11.389045"><ele>339.0</ele><time>2026-04-18T15:35:52.634Z</time></trkpt><trkpt lat="44.282745" lon="11.3891033"><ele>339.0</ele><time>2026-04-18T15:35:53.633Z</time></trkpt><trkpt lat="44.2826583" lon="11.3891683"><ele>339.0</ele><time>2026-04-18T15:35:54.633Z</time></trkpt><trkpt lat="44.28258" lon="11.3891933"><ele>339.0</ele><time>2026-04-18T15:35:55.633Z</time></trkpt><trkpt lat="44.282495" lon="11.3891967"><ele>339.0</ele><time>2026-04-18T15:35:56.634Z</time></trkpt><trkpt lat="44.2824017" lon="11.3891467"><ele>339.0</ele><time>2026-04-18T15:35:57.634Z</time></trkpt><trkpt lat="44.2823167" lon="11.3890783"><ele>339.0</ele><time>2026-04-18T15:35:58.633Z</time></trkpt><trkpt lat="44.2822517" lon="11.3890067"><ele>339.0</ele><time>2026-04-18T15:35:59.633Z</time></trkpt><trkpt lat="44.2822033" lon="11.3889333"><ele>338.6666666666667</ele><time>2026-04-18T15:36:00.633Z</time></trkpt><trkpt lat="44.2821767" lon="11.388835"><ele>338.3333333333333</ele><time>2026-04-18T15:36:01.633Z</time></trkpt><trkpt lat="44.2821617" lon="11.3887417"><ele>338.0</ele><time>2026-04-18T15:36:02.633Z</time></trkpt><trkpt lat="44.2821717" lon="11.3886533"><ele>337.66666666666663</ele><time>2026-04-18T15:36:03.633Z</time></trkpt><trkpt lat="44.2822117" lon="11.3885383"><ele>337.3333333333333</ele><time>2026-04-18T15:36:04.634Z</time></trkpt><trkpt lat="44.2822633" lon="11.388435"><ele>337.0</ele><time>2026-04-18T15:36:05.633Z</time></trkpt><trkpt lat="44.282325" lon="11.38835"><ele>337.8333333333333</ele><time>2026-04-18T15:36:06.634Z</time></trkpt><trkpt lat="44.2823817" lon="11.3882867"><ele>338.66666666666663</ele><time>2026-04-18T15:36:07.633Z</time></trkpt><trkpt lat="44.28244" lon="11.388215"><ele>339.5</ele><time>2026-04-18T15:36:08.634Z</time></trkpt><trkpt lat="44.282485" lon="11.388135"><ele>340.3333333333333</ele><time>2026-04-18T15:36:09.634Z</time></trkpt><trkpt lat="44.2825283" lon="11.3880367"><ele>341.1666666666667</ele><time>2026-04-18T15:36:10.634Z</time></trkpt><trkpt lat="44.28256" lon="11.3879233"><ele>342.0</ele><time>2026-04-18T15:36:11.634Z</time></trkpt><trkpt lat="44.282585" lon="11.3878"><ele>342.0</ele><time>2026-04-18T15:36:12.633Z</time></trkpt><trkpt lat="44.2826017" lon="11.38769"><ele>342.0</ele><time>2026-04-18T15:36:13.633Z</time></trkpt><trkpt lat="44.2826233" lon="11.38758"><ele>342.0</ele><time>2026-04-18T15:36:14.633Z</time></trkpt><trkpt lat="44.282655" lon="11.38748"><ele>342.0</ele><time>2026-04-18T15:36:15.633Z</time></trkpt><trkpt lat="44.282695" lon="11.3873733"><ele>342.0</ele><time>2026-04-18T15:36:16.634Z</time></trkpt><trkpt lat="44.2827383" lon="11.3872833"><ele>342.0</ele><time>2026-04-18T15:36:17.633Z</time></trkpt><trkpt lat="44.2827883" lon="11.3872033"><ele>340.6666666666667</ele><time>2026-04-18T15:36:18.633Z</time></trkpt><trkpt lat="44.28284" lon="11.3871167"><ele>339.3333333333333</ele><time>2026-04-18T15:36:19.634Z</time></trkpt><trkpt lat="44.2828833" lon="11.3870283"><ele>338.0</ele><time>2026-04-18T15:36:20.634Z</time></trkpt><trkpt lat="44.2829267" lon="11.38693"><ele>336.66666666666663</ele><time>2026-04-18T15:36:21.633Z</time></trkpt><trkpt lat="44.28297" lon="11.386815"><ele>335.3333333333333</ele><time>2026-04-18T15:36:22.633Z</time></trkpt><trkpt lat="44.2830067" lon="11.386685"><ele>334.0</ele><time>2026-04-18T15:36:23.634Z</time></trkpt><trkpt lat="44.2830483" lon="11.3865617"><ele>334.0</ele><time>2026-04-18T15:36:24.634Z</time></trkpt><trkpt lat="44.2830883" lon="11.3864433"><ele>334.0</ele><time>2026-04-18T15:36:25.633Z</time></trkpt><trkpt lat="44.2831183" lon="11.38632"><ele>334.0</ele><time>2026-04-18T15:36:26.633Z</time></trkpt><trkpt lat="44.2831367" lon="11.386195"><ele>334.0</ele><time>2026-04-18T15:36:27.634Z</time></trkpt><trkpt lat="44.2831383" lon="11.3860683"><ele>334.0</ele><time>2026-04-18T15:36:28.634Z</time></trkpt><trkpt lat="44.2831383" lon="11.3859217"><ele>333.6</ele><time>2026-04-18T15:36:29.633Z</time></trkpt><trkpt lat="44.2831283" lon="11.3857883"><ele>333.2</ele><time>2026-04-18T15:36:30.633Z</time></trkpt><trkpt lat="44.2831067" lon="11.3856617"><ele>332.8</ele><time>2026-04-18T15:36:31.634Z</time></trkpt><trkpt lat="44.2830917" lon="11.3855617"><ele>332.40000000000003</ele><time>2026-04-18T15:36:32.633Z</time></trkpt><trkpt lat="44.2830317" lon="11.3854383"><ele>332.0</ele><time>2026-04-18T15:36:34.633Z</time></trkpt><trkpt lat="44.28291" lon="11.3853733"><ele>332.85714285714283</ele><time>2026-04-18T15:36:36.633Z</time></trkpt><trkpt lat="44.2828367" lon="11.3853367"><ele>333.7142857142857</ele><time>2026-04-18T15:36:37.634Z</time></trkpt><trkpt lat="44.2827767" lon="11.3853067"><ele>334.57142857142856</ele><time>2026-04-18T15:36:38.634Z</time></trkpt><trkpt lat="44.282735" lon="11.3852333"><ele>335.42857142857144</ele><time>2026-04-18T15:36:39.633Z</time></trkpt><trkpt lat="44.2827117" lon="11.385135"><ele>336.2857142857143</ele><time>2026-04-18T15:36:40.633Z</time></trkpt><trkpt lat="44.2827117" lon="11.3850383"><ele>337.14285714285717</ele><time>2026-04-18T15:36:41.634Z</time></trkpt><trkpt lat="44.282735" lon="11.3849283"><ele>338.0</ele><time>2026-04-18T15:36:42.633Z</time></trkpt><trkpt lat="44.2827517" lon="11.38482"><ele>338.0</ele><time>2026-04-18T15:36:43.633Z</time></trkpt><trkpt lat="44.2827667" lon="11.3847"><ele>338.0</ele><time>2026-04-18T15:36:44.633Z</time></trkpt><trkpt lat="44.2827783" lon="11.3845783"><ele>338.0</ele><time>2026-04-18T15:36:45.633Z</time></trkpt><trkpt lat="44.2828" lon="11.3844483"><ele>338.0</ele><time>2026-04-18T15:36:46.634Z</time></trkpt><trkpt lat="44.2828167" lon="11.384315"><ele>338.0</ele><time>2026-04-18T15:36:47.634Z</time></trkpt><trkpt lat="44.282835" lon="11.3841867"><ele>340.2</ele><time>2026-04-18T15:36:48.633Z</time></trkpt><trkpt lat="44.282855" lon="11.3840683"><ele>342.4</ele><time>2026-04-18T15:36:49.634Z</time></trkpt><trkpt lat="44.2828817" lon="11.3839533"><ele>344.59999999999997</ele><time>2026-04-18T15:36:50.634Z</time></trkpt><trkpt lat="44.28293" lon="11.3838417"><ele>346.79999999999995</ele><time>2026-04-18T15:36:51.634Z</time></trkpt><trkpt lat="44.28298" lon="11.38374"><ele>349.0</ele><time>2026-04-18T15:36:52.634Z</time></trkpt><trkpt lat="44.2830317" lon="11.38363"><ele>348.6</ele><time>2026-04-18T15:36:53.633Z</time></trkpt><trkpt lat="44.2830683" lon="11.383505"><ele>348.2</ele><time>2026-04-18T15:36:54.633Z</time></trkpt><trkpt lat="44.2830917" lon="11.3833717"><ele>347.8</ele><time>2026-04-18T15:36:55.633Z</time></trkpt><trkpt lat="44.2831" lon="11.3832267"><ele>347.40000000000003</ele><time>2026-04-18T15:36:56.634Z</time></trkpt><trkpt lat="44.2831067" lon="11.3830683"><ele>347.0</ele><time>2026-04-18T15:36:57.634Z</time></trkpt><trkpt lat="44.2830983" lon="11.382905"><ele>347.0</ele><time>2026-04-18T15:36:58.633Z</time></trkpt><trkpt lat="44.2830967" lon="11.38273"><ele>347.0</ele><time>2026-04-18T15:36:59.634Z</time></trkpt><trkpt lat="44.2830883" lon="11.3825783"><ele>347.0</ele><time>2026-04-18T15:37:00.633Z</time></trkpt><trkpt lat="44.2830967" lon="11.38245"><ele>347.0</ele><time>2026-04-18T15:37:01.633Z</time></trkpt><trkpt lat="44.28312" lon="11.3823367"><ele>347.0</ele><time>2026-04-18T15:37:02.634Z</time></trkpt><trkpt lat="44.2831633" lon="11.3822167"><ele>347.8</ele><time>2026-04-18T15:37:03.633Z</time></trkpt><trkpt lat="44.2832167" lon="11.3820917"><ele>348.6</ele><time>2026-04-18T15:37:04.633Z</time></trkpt><trkpt lat="44.2832833" lon="11.3819633"><ele>349.40000000000003</ele><time>2026-04-18T15:37:05.633Z</time></trkpt><trkpt lat="44.2833533" lon="11.3818583"><ele>350.20000000000005</ele><time>2026-04-18T15:37:06.633Z</time></trkpt><trkpt lat="44.28343" lon="11.3817617"><ele>351.0</ele><time>2026-04-18T15:37:07.633Z</time></trkpt><trkpt lat="44.283495" lon="11.3816817"><ele>351.0</ele><time>2026-04-18T15:37:08.634Z</time></trkpt><trkpt lat="44.2835433" lon="11.38159"><ele>351.0</ele><time>2026-04-18T15:37:09.634Z</time></trkpt><trkpt lat="44.2835767" lon="11.3815033"><ele>351.0</ele><time>2026-04-18T15:37:10.634Z</time></trkpt><trkpt lat="44.2836033" lon="11.3814183"><ele>351.0</ele><time>2026-04-18T15:37:11.633Z</time></trkpt><trkpt lat="44.2836233" lon="11.3813317"><ele>351.0</ele><time>2026-04-18T15:37:12.633Z</time></trkpt><trkpt lat="44.2836633" lon="11.3811667"><ele>351.0</ele><time>2026-04-18T15:37:14.633Z</time></trkpt><trkpt lat="44.28367" lon="11.3810717"><ele>352.8333333333333</ele><time>2026-04-18T15:37:15.633Z</time></trkpt><trkpt lat="44.2836783" lon="11.3809733"><ele>354.6666666666667</ele><time>2026-04-18T15:37:16.634Z</time></trkpt><trkpt lat="44.2836867" lon="11.38088"><ele>356.5</ele><time>2026-04-18T15:37:17.634Z</time></trkpt><trkpt lat="44.283695" lon="11.3807733"><ele>358.33333333333337</ele><time>2026-04-18T15:37:18.633Z</time></trkpt><trkpt lat="44.2837083" lon="11.3806633"><ele>360.1666666666667</ele><time>2026-04-18T15:37:19.633Z</time></trkpt><trkpt lat="44.2837267" lon="11.3805467"><ele>362.0</ele><time>2026-04-18T15:37:20.634Z</time></trkpt><trkpt lat="44.2837433" lon="11.3804317"><ele>363.8</ele><time>2026-04-18T15:37:21.633Z</time></trkpt><trkpt lat="44.28376" lon="11.38031"><ele>365.6</ele><time>2026-04-18T15:37:22.633Z</time></trkpt><trkpt lat="44.2837783" lon="11.3801767"><ele>367.40000000000003</ele><time>2026-04-18T15:37:23.634Z</time></trkpt><trkpt lat="44.2837983" lon="11.3800483"><ele>369.20000000000005</ele><time>2026-04-18T15:37:24.634Z</time></trkpt><trkpt lat="44.2838183" lon="11.3799183"><ele>371.0</ele><time>2026-04-18T15:37:25.634Z</time></trkpt><trkpt lat="44.2838333" lon="11.3797983"><ele>371.0</ele><time>2026-04-18T15:37:26.633Z</time></trkpt><trkpt lat="44.2838467" lon="11.3796983"><ele>371.0</ele><time>2026-04-18T15:37:27.633Z</time></trkpt><trkpt lat="44.2838433" lon="11.3795567"><ele>371.0</ele><time>2026-04-18T15:37:29.633Z</time></trkpt><trkpt lat="44.28379" lon="11.3794667"><ele>371.0</ele><time>2026-04-18T15:37:31.633Z</time></trkpt><trkpt lat="44.2836817" lon="11.3794167"><ele>371.0</ele><time>2026-04-18T15:37:33.633Z</time></trkpt><trkpt lat="44.283605" lon="11.3793483"><ele>373.4</ele><time>2026-04-18T15:37:35.633Z</time></trkpt><trkpt lat="44.2835667" lon="11.37921"><ele>375.8</ele><time>2026-04-18T15:37:37.633Z</time></trkpt><trkpt lat="44.2835567" lon="11.3790567"><ele>378.2</ele><time>2026-04-18T15:37:39.633Z</time></trkpt><trkpt lat="44.2835533" lon="11.37892"><ele>380.59999999999997</ele><time>2026-04-18T15:37:41.633Z</time></trkpt><trkpt lat="44.2835333" lon="11.3787567"><ele>383.0</ele><time>2026-04-18T15:37:43.634Z</time></trkpt><trkpt lat="44.283505" lon="11.378575"><ele>385.0</ele><time>2026-04-18T15:37:45.633Z</time></trkpt><trkpt lat="44.2834933" lon="11.37848"><ele>387.0</ele><time>2026-04-18T15:37:46.633Z</time></trkpt><trkpt lat="44.28348" lon="11.37839"><ele>389.0</ele><time>2026-04-18T15:37:47.633Z</time></trkpt><trkpt lat="44.2834467" lon="11.3782417"><ele>391.0</ele><time>2026-04-18T15:37:49.633Z</time></trkpt><trkpt lat="44.2834167" lon="11.3781117"><ele>393.0</ele><time>2026-04-18T15:37:51.633Z</time></trkpt><trkpt lat="44.2833817" lon="11.3779683"><ele>395.79999999999995</ele><time>2026-04-18T15:37:53.634Z</time></trkpt><trkpt lat="44.283345" lon="11.377825"><ele>398.6</ele><time>2026-04-18T15:37:55.632Z</time></trkpt><trkpt lat="44.2833017" lon="11.3777017"><ele>401.4</ele><time>2026-04-18T15:37:57.632Z</time></trkpt><trkpt lat="44.2832533" lon="11.37763"><ele>404.20000000000005</ele><time>2026-04-18T15:37:59.633Z</time></trkpt><trkpt lat="44.28319" lon="11.37756"><ele>407.0</ele><time>2026-04-18T15:38:02.633Z</time></trkpt><trkpt lat="44.2831117" lon="11.3774583"><ele>405.8</ele><time>2026-04-18T15:38:04.632Z</time></trkpt><trkpt lat="44.2830467" lon="11.3773417"><ele>404.6</ele><time>2026-04-18T15:38:06.632Z</time></trkpt><trkpt lat="44.2830433" lon="11.377245"><ele>403.40000000000003</ele><time>2026-04-18T15:38:08.632Z</time></trkpt><trkpt lat="44.2830933" lon="11.3771583"><ele>402.20000000000005</ele><time>2026-04-18T15:38:10.633Z</time></trkpt><trkpt lat="44.28314" lon="11.37704"><ele>401.0</ele><time>2026-04-18T15:38:12.632Z</time></trkpt><trkpt lat="44.2831467" lon="11.3768717"><ele>403.66666666666663</ele><time>2026-04-18T15:38:14.632Z</time></trkpt><trkpt lat="44.2831433" lon="11.3767733"><ele>406.3333333333333</ele><time>2026-04-18T15:38:15.633Z</time></trkpt><trkpt lat="44.2831367" lon="11.3766567"><ele>409.0</ele><time>2026-04-18T15:38:16.632Z</time></trkpt><trkpt lat="44.2831217" lon="11.3765333"><ele>411.66666666666663</ele><time>2026-04-18T15:38:17.632Z</time></trkpt><trkpt lat="44.2830983" lon="11.3764117"><ele>414.3333333333333</ele><time>2026-04-18T15:38:18.632Z</time></trkpt><trkpt lat="44.2830717" lon="11.3762783"><ele>417.0</ele><time>2026-04-18T15:38:19.632Z</time></trkpt><trkpt lat="44.2830383" lon="11.3761467"><ele>417.0</ele><time>2026-04-18T15:38:20.632Z</time></trkpt><trkpt lat="44.2829983" lon="11.376025"><ele>417.0</ele><time>2026-04-18T15:38:21.633Z</time></trkpt><trkpt lat="44.2829567" lon="11.375915"><ele>417.0</ele><time>2026-04-18T15:38:22.632Z</time></trkpt><trkpt lat="44.282915" lon="11.3758167"><ele>417.0</ele><time>2026-04-18T15:38:23.632Z</time></trkpt><trkpt lat="44.2828633" lon="11.3757117"><ele>417.0</ele><time>2026-04-18T15:38:24.632Z</time></trkpt><trkpt lat="44.2828133" lon="11.3756283"><ele>417.0</ele><time>2026-04-18T15:38:25.633Z</time></trkpt><trkpt lat="44.282755" lon="11.3755317"><ele>420.25</ele><time>2026-04-18T15:38:27.633Z</time></trkpt><trkpt lat="44.2828417" lon="11.3754867"><ele>423.5</ele><time>2026-04-18T15:39:17.632Z</time></trkpt><trkpt lat="44.2829617" lon="11.3754617"><ele>426.75</ele><time>2026-04-18T15:39:19.632Z</time></trkpt><trkpt lat="44.2830767" lon="11.3754783"><ele>430.0</ele><time>2026-04-18T15:39:21.632Z</time></trkpt><trkpt lat="44.2831933" lon="11.3755533"><ele>430.0</ele><time>2026-04-18T15:39:23.633Z</time></trkpt><trkpt lat="44.2832583" lon="11.3756083"><ele>430.0</ele><time>2026-04-18T15:39:24.633Z</time></trkpt><trkpt lat="44.283365" lon="11.3756667"><ele>430.0</ele><time>2026-04-18T15:39:26.632Z</time></trkpt><trkpt lat="44.2834783" lon="11.3756917"><ele>430.0</ele><time>2026-04-18T15:39:28.632Z</time></trkpt><trkpt lat="44.2835717" lon="11.3757567"><ele>430.0</ele><time>2026-04-18T15:39:30.633Z</time></trkpt><trkpt lat="44.283625" lon="11.3758117"><ele>430.00000000000006</ele><time>2026-04-18T15:39:31.632Z</time></trkpt><trkpt lat="44.283695" lon="11.3758733"><ele>430.0</ele><time>2026-04-18T15:39:32.632Z</time></trkpt><trkpt lat="44.2837717" lon="11.375935"><ele>430.0</ele><time>2026-04-18T15:39:33.632Z</time></trkpt><trkpt lat="44.28384" lon="11.376005"><ele>430.0</ele><time>2026-04-18T15:39:34.632Z</time></trkpt><trkpt lat="44.2839133" lon="11.3760783"><ele>430.00000000000006</ele><time>2026-04-18T15:39:35.633Z</time></trkpt><trkpt lat="44.2839883" lon="11.3761617"><ele>430.0</ele><time>2026-04-18T15:39:36.632Z</time></trkpt><trkpt lat="44.2840633" lon="11.3762367"><ele>431.6666666666667</ele><time>2026-04-18T15:39:37.632Z</time></trkpt><trkpt lat="44.2841283" lon="11.376305"><ele>433.33333333333337</ele><time>2026-04-18T15:39:38.632Z</time></trkpt><trkpt lat="44.2841917" lon="11.3763733"><ele>435.0</ele><time>2026-04-18T15:39:39.632Z</time></trkpt><trkpt lat="44.2842517" lon="11.3764333"><ele>436.66666666666663</ele><time>2026-04-18T15:39:40.633Z</time></trkpt><trkpt lat="44.284315" lon="11.376495"><ele>438.3333333333333</ele><time>2026-04-18T15:39:41.633Z</time></trkpt><trkpt lat="44.284375" lon="11.3765533"><ele>440.0</ele><time>2026-04-18T15:39:42.632Z</time></trkpt><trkpt lat="44.2844283" lon="11.3766083"><ele>440.57142857142856</ele><time>2026-04-18T15:39:43.632Z</time></trkpt><trkpt lat="44.2844817" lon="11.37666"><ele>441.1428571428571</ele><time>2026-04-18T15:39:44.632Z</time></trkpt><trkpt lat="44.28454" lon="11.3767133"><ele>441.71428571428567</ele><time>2026-04-18T15:39:45.633Z</time></trkpt><trkpt lat="44.2845967" lon="11.376775"><ele>442.2857142857143</ele><time>2026-04-18T15:39:46.632Z</time></trkpt><trkpt lat="44.2846533" lon="11.376835"><ele>442.8571428571429</ele><time>2026-04-18T15:39:47.632Z</time></trkpt><trkpt lat="44.284705" lon="11.3768867"><ele>443.4285714285714</ele><time>2026-04-18T15:39:48.632Z</time></trkpt><trkpt lat="44.28479" lon="11.3769733"><ele>444.0</ele><time>2026-04-18T15:39:50.632Z</time></trkpt><trkpt lat="44.2848667" lon="11.3770633"><ele>444.79999999999995</ele><time>2026-04-18T15:39:52.633Z</time></trkpt><trkpt lat="44.2849517" lon="11.3771583"><ele>445.59999999999997</ele><time>2026-04-18T15:39:54.632Z</time></trkpt><trkpt lat="44.28504" lon="11.3772533"><ele>446.4</ele><time>2026-04-18T15:39:56.632Z</time></trkpt><trkpt lat="44.28514" lon="11.3773383"><ele>447.2</ele><time>2026-04-18T15:39:58.633Z</time></trkpt><trkpt lat="44.285195" lon="11.3773933"><ele>448.0</ele><time>2026-04-18T15:39:59.632Z</time></trkpt><trkpt lat="44.2852483" lon="11.3774533"><ele>448.0</ele><time>2026-04-18T15:40:00.633Z</time></trkpt><trkpt lat="44.2853517" lon="11.3775583"><ele>447.99999999999994</ele><time>2026-04-18T15:40:02.632Z</time></trkpt><trkpt lat="44.285445" lon="11.37765"><ele>447.99999999999994</ele><time>2026-04-18T15:40:04.633Z</time></trkpt><trkpt lat="44.285545" lon="11.3776917"><ele>448.0</ele><time>2026-04-18T15:40:06.633Z</time></trkpt><trkpt lat="44.28564" lon="11.3776667"><ele>448.0</ele><time>2026-04-18T15:40:08.632Z</time></trkpt><trkpt lat="44.2857467" lon="11.3776267"><ele>447.1666666666667</ele><time>2026-04-18T15:40:10.632Z</time></trkpt><trkpt lat="44.2858633" lon="11.37762"><ele>446.33333333333337</ele><time>2026-04-18T15:40:12.632Z</time></trkpt><trkpt lat="44.2859367" lon="11.377615"><ele>445.5</ele><time>2026-04-18T15:40:13.632Z</time></trkpt><trkpt lat="44.2860217" lon="11.3775983"><ele>444.66666666666663</ele><time>2026-04-18T15:40:14.633Z</time></trkpt><trkpt lat="44.28611" lon="11.377575"><ele>443.8333333333333</ele><time>2026-04-18T15:40:15.633Z</time></trkpt><trkpt lat="44.2861883" lon="11.377555"><ele>443.0</ele><time>2026-04-18T15:40:16.633Z</time></trkpt><trkpt lat="44.2862517" lon="11.3775483"><ele>442.99999999999994</ele><time>2026-04-18T15:40:17.632Z</time></trkpt><trkpt lat="44.2863167" lon="11.377535"><ele>443.0</ele><time>2026-04-18T15:40:18.632Z</time></trkpt><trkpt lat="44.2864383" lon="11.3775433"><ele>443.0</ele><time>2026-04-18T15:40:20.632Z</time></trkpt><trkpt lat="44.2865033" lon="11.37755"><ele>443.0</ele><time>2026-04-18T15:40:21.633Z</time></trkpt><trkpt lat="44.2865917" lon="11.3775367"><ele>442.99999999999994</ele><time>2026-04-18T15:40:23.632Z</time></trkpt><trkpt lat="44.2866117" lon="11.37745"><ele>443.0</ele><time>2026-04-18T15:40:25.633Z</time></trkpt><trkpt lat="44.286625" lon="11.3772567"><ele>441.2</ele><time>2026-04-18T15:40:27.632Z</time></trkpt><trkpt lat="44.2866567" lon="11.3771417"><ele>439.4</ele><time>2026-04-18T15:40:28.632Z</time></trkpt><trkpt lat="44.2867183" lon="11.3770517"><ele>437.59999999999997</ele><time>2026-04-18T15:40:29.633Z</time></trkpt><trkpt lat="44.286795" lon="11.376995"><ele>435.79999999999995</ele><time>2026-04-18T15:40:30.632Z</time></trkpt><trkpt lat="44.28688" lon="11.3769533"><ele>434.0</ele><time>2026-04-18T15:40:31.633Z</time></trkpt><trkpt lat="44.2869833" lon="11.3769317"><ele>434.0</ele><time>2026-04-18T15:40:32.632Z</time></trkpt><trkpt lat="44.2870867" lon="11.3769033"><ele>434.0</ele><time>2026-04-18T15:40:33.632Z</time></trkpt><trkpt lat="44.2871983" lon="11.3768467"><ele>434.0</ele><time>2026-04-18T15:40:34.632Z</time></trkpt><trkpt lat="44.2873" lon="11.3767617"><ele>434.0</ele><time>2026-04-18T15:40:35.632Z</time></trkpt><trkpt lat="44.2873933" lon="11.376665"><ele>435.6</ele><time>2026-04-18T15:40:36.632Z</time></trkpt><trkpt lat="44.2874833" lon="11.3765833"><ele>437.2</ele><time>2026-04-18T15:40:37.632Z</time></trkpt><trkpt lat="44.287585" lon="11.3765183"><ele>438.80000000000007</ele><time>2026-04-18T15:40:38.632Z</time></trkpt><trkpt lat="44.2876883" lon="11.3764717"><ele>440.40000000000003</ele><time>2026-04-18T15:40:39.633Z</time></trkpt><trkpt lat="44.28779" lon="11.3764567"><ele>442.0</ele><time>2026-04-18T15:40:40.633Z</time></trkpt><trkpt lat="44.2879" lon="11.376455"><ele>442.0</ele><time>2026-04-18T15:40:41.633Z</time></trkpt><trkpt lat="44.2880183" lon="11.3764617"><ele>442.0</ele><time>2026-04-18T15:40:42.633Z</time></trkpt><trkpt lat="44.2881517" lon="11.3764783"><ele>442.0</ele><time>2026-04-18T15:40:43.632Z</time></trkpt><trkpt lat="44.2882817" lon="11.37649"><ele>442.0</ele><time>2026-04-18T15:40:44.633Z</time></trkpt><trkpt lat="44.2884117" lon="11.376505"><ele>441.20000000000005</ele><time>2026-04-18T15:40:45.633Z</time></trkpt><trkpt lat="44.2885283" lon="11.3765217"><ele>440.40000000000003</ele><time>2026-04-18T15:40:46.632Z</time></trkpt><trkpt lat="44.2886233" lon="11.37656"><ele>439.59999999999997</ele><time>2026-04-18T15:40:47.633Z</time></trkpt><trkpt lat="44.28869" lon="11.37664"><ele>438.79999999999995</ele><time>2026-04-18T15:40:48.632Z</time></trkpt><trkpt lat="44.2887583" lon="11.3767317"><ele>438.0</ele><time>2026-04-18T15:40:49.632Z</time></trkpt><trkpt lat="44.288805" lon="11.3767967"><ele>438.0</ele><time>2026-04-18T15:40:50.632Z</time></trkpt><trkpt lat="44.288895" lon="11.3767817"><ele>437.99999999999994</ele><time>2026-04-18T15:40:52.633Z</time></trkpt><trkpt lat="44.2888983" lon="11.3766483"><ele>437.99999999999994</ele><time>2026-04-18T15:40:54.632Z</time></trkpt><trkpt lat="44.2888317" lon="11.3765117"><ele>438.0</ele><time>2026-04-18T15:40:56.632Z</time></trkpt><trkpt lat="44.2887567" lon="11.3764283"><ele>438.0</ele><time>2026-04-18T15:40:57.633Z</time></trkpt><trkpt lat="44.288655" lon="11.3763467"><ele>432.75</ele><time>2026-04-18T15:40:58.633Z</time></trkpt><trkpt lat="44.2885383" lon="11.3762567"><ele>427.5</ele><time>2026-04-18T15:40:59.632Z</time></trkpt><trkpt lat="44.2884183" lon="11.376155"><ele>422.25</ele><time>2026-04-18T15:41:00.633Z</time></trkpt><trkpt lat="44.2883067" lon="11.3760617"><ele>417.0</ele><time>2026-04-18T15:41:01.632Z</time></trkpt><trkpt lat="44.2882133" lon="11.3759617"><ele>417.0</ele><time>2026-04-18T15:41:02.632Z</time></trkpt><trkpt lat="44.2881267" lon="11.3758783"><ele>417.0</ele><time>2026-04-18T15:41:03.633Z</time></trkpt><trkpt lat="44.288045" lon="11.37581"><ele>417.0</ele><time>2026-04-18T15:41:04.633Z</time></trkpt><trkpt lat="44.2879583" lon="11.37575"><ele>417.0</ele><time>2026-04-18T15:41:05.633Z</time></trkpt><trkpt lat="44.287865" lon="11.3757167"><ele>417.0</ele><time>2026-04-18T15:41:06.632Z</time></trkpt><trkpt lat="44.28777" lon="11.375715"><ele>418.0</ele><time>2026-04-18T15:41:07.633Z</time></trkpt><trkpt lat="44.2876833" lon="11.37571"><ele>419.0</ele><time>2026-04-18T15:41:08.632Z</time></trkpt><trkpt lat="44.2876217" lon="11.3756667"><ele>420.0</ele><time>2026-04-18T15:41:09.633Z</time></trkpt><trkpt lat="44.28762" lon="11.3755417"><ele>421.0</ele><time>2026-04-18T15:41:11.632Z</time></trkpt><trkpt lat="44.287735" lon="11.3754367"><ele>422.0</ele><time>2026-04-18T15:41:13.632Z</time></trkpt><trkpt lat="44.28782" lon="11.3753667"><ele>419.20000000000005</ele><time>2026-04-18T15:41:14.632Z</time></trkpt><trkpt lat="44.28791" lon="11.3752883"><ele>416.4</ele><time>2026-04-18T15:41:15.632Z</time></trkpt><trkpt lat="44.2879917" lon="11.3752017"><ele>413.6</ele><time>2026-04-18T15:41:16.633Z</time></trkpt><trkpt lat="44.2880817" lon="11.375105"><ele>410.79999999999995</ele><time>2026-04-18T15:41:17.632Z</time></trkpt><trkpt lat="44.2881633" lon="11.3750017"><ele>408.0</ele><time>2026-04-18T15:41:18.632Z</time></trkpt><trkpt lat="44.28825" lon="11.37488"><ele>408.0</ele><time>2026-04-18T15:41:19.633Z</time></trkpt><trkpt lat="44.28834" lon="11.3747433"><ele>408.0</ele><time>2026-04-18T15:41:20.632Z</time></trkpt><trkpt lat="44.288425" lon="11.374595"><ele>408.0</ele><time>2026-04-18T15:41:21.633Z</time></trkpt><trkpt lat="44.28852" lon="11.3744417"><ele>408.0</ele><time>2026-04-18T15:41:22.632Z</time></trkpt><trkpt lat="44.2886183" lon="11.3743183"><ele>408.75</ele><time>2026-04-18T15:41:23.632Z</time></trkpt><trkpt lat="44.28872" lon="11.3742217"><ele>409.5</ele><time>2026-04-18T15:41:24.633Z</time></trkpt><trkpt lat="44.288835" lon="11.3741667"><ele>410.25</ele><time>2026-04-18T15:41:25.632Z</time></trkpt><trkpt lat="44.2889617" lon="11.3741483"><ele>411.0</ele><time>2026-04-18T15:41:26.633Z</time></trkpt><trkpt lat="44.28908" lon="11.374175"><ele>411.0</ele><time>2026-04-18T15:41:27.632Z</time></trkpt><trkpt lat="44.2892017" lon="11.3742067"><ele>411.0</ele><time>2026-04-18T15:41:28.633Z</time></trkpt><trkpt lat="44.289325" lon="11.3742217"><ele>411.0</ele><time>2026-04-18T15:41:29.633Z</time></trkpt><trkpt lat="44.28945" lon="11.3742117"><ele>411.0</ele><time>2026-04-18T15:41:30.633Z</time></trkpt><trkpt lat="44.2895783" lon="11.3741533"><ele>411.0</ele><time>2026-04-18T15:41:31.633Z</time></trkpt><trkpt lat="44.2897033" lon="11.3740567"><ele>411.0</ele><time>2026-04-18T15:41:32.633Z</time></trkpt><trkpt lat="44.2898233" lon="11.3739467"><ele>411.0</ele><time>2026-04-18T15:41:33.632Z</time></trkpt><trkpt lat="44.28994" lon="11.3738383"><ele>411.0</ele><time>2026-04-18T15:41:34.632Z</time></trkpt><trkpt lat="44.2900617" lon="11.3737467"><ele>414.0</ele><time>2026-04-18T15:41:35.633Z</time></trkpt><trkpt lat="44.2901867" lon="11.3736917"><ele>417.0</ele><time>2026-04-18T15:41:36.632Z</time></trkpt><trkpt lat="44.2903167" lon="11.3736933"><ele>420.0</ele><time>2026-04-18T15:41:37.633Z</time></trkpt><trkpt lat="44.2904283" lon="11.3737533"><ele>423.0</ele><time>2026-04-18T15:41:38.631Z</time></trkpt><trkpt lat="44.2905467" lon="11.3738167"><ele>419.0</ele><time>2026-04-18T15:41:39.632Z</time></trkpt><trkpt lat="44.290685" lon="11.37389"><ele>415.0</ele><time>2026-04-18T15:41:40.632Z</time></trkpt><trkpt lat="44.2908233" lon="11.3739167"><ele>411.0</ele><time>2026-04-18T15:41:41.632Z</time></trkpt><trkpt lat="44.29096" lon="11.3739217"><ele>407.0</ele><time>2026-04-18T15:41:42.631Z</time></trkpt><trkpt lat="44.2911" lon="11.3739083"><ele>407.0</ele><time>2026-04-18T15:41:43.631Z</time></trkpt><trkpt lat="44.2912467" lon="11.37388"><ele>407.0</ele><time>2026-04-18T15:41:44.632Z</time></trkpt><trkpt lat="44.2913817" lon="11.3738517"><ele>407.0</ele><time>2026-04-18T15:41:45.632Z</time></trkpt><trkpt lat="44.29152" lon="11.3738233"><ele>407.0</ele><time>2026-04-18T15:41:46.631Z</time></trkpt><trkpt lat="44.2916583" lon="11.3738017"><ele>406.75</ele><time>2026-04-18T15:41:47.631Z</time></trkpt><trkpt lat="44.2917967" lon="11.3737783"><ele>406.5</ele><time>2026-04-18T15:41:48.631Z</time></trkpt><trkpt lat="44.291935" lon="11.3737567"><ele>406.25</ele><time>2026-04-18T15:41:49.632Z</time></trkpt><trkpt lat="44.2920617" lon="11.37373"><ele>406.0</ele><time>2026-04-18T15:41:50.632Z</time></trkpt><trkpt lat="44.29218" lon="11.3736933"><ele>404.5</ele><time>2026-04-18T15:41:51.631Z</time></trkpt><trkpt lat="44.2922933" lon="11.3736617"><ele>403.0</ele><time>2026-04-18T15:41:52.632Z</time></trkpt><trkpt lat="44.2924133" lon="11.3736383"><ele>401.5</ele><time>2026-04-18T15:41:53.631Z</time></trkpt><trkpt lat="44.292535" lon="11.3736083"><ele>400.0</ele><time>2026-04-18T15:41:54.631Z</time></trkpt><trkpt lat="44.29266" lon="11.3735833"><ele>400.0</ele><time>2026-04-18T15:41:55.631Z</time></trkpt><trkpt lat="44.29278" lon="11.3735883"><ele>400.0</ele><time>2026-04-18T15:41:56.631Z</time></trkpt><trkpt lat="44.2929033" lon="11.3736017"><ele>400.0</ele><time>2026-04-18T15:41:57.632Z</time></trkpt><trkpt lat="44.293025" lon="11.373615"><ele>400.0</ele><time>2026-04-18T15:41:58.632Z</time></trkpt><trkpt lat="44.2931383" lon="11.3736333"><ele>399.25</ele><time>2026-04-18T15:41:59.631Z</time></trkpt><trkpt lat="44.2932567" lon="11.3736517"><ele>398.5</ele><time>2026-04-18T15:42:00.631Z</time></trkpt><trkpt lat="44.2933717" lon="11.3736667"><ele>397.75</ele><time>2026-04-18T15:42:01.631Z</time></trkpt><trkpt lat="44.2934817" lon="11.3736817"><ele>397.0</ele><time>2026-04-18T15:42:02.631Z</time></trkpt><trkpt lat="44.2936017" lon="11.3736917"><ele>397.0</ele><time>2026-04-18T15:42:03.631Z</time></trkpt><trkpt lat="44.2937183" lon="11.37371"><ele>397.0</ele><time>2026-04-18T15:42:04.632Z</time></trkpt><trkpt lat="44.2938417" lon="11.3737217"><ele>397.0</ele><time>2026-04-18T15:42:05.632Z</time></trkpt><trkpt lat="44.293975" lon="11.373725"><ele>397.0</ele><time>2026-04-18T15:42:06.631Z</time></trkpt><trkpt lat="44.2940983" lon="11.3737467"><ele>399.25</ele><time>2026-04-18T15:42:07.632Z</time></trkpt><trkpt lat="44.2942217" lon="11.373765"><ele>401.5</ele><time>2026-04-18T15:42:08.631Z</time></trkpt><trkpt lat="44.2943433" lon="11.37377"><ele>403.75</ele><time>2026-04-18T15:42:09.631Z</time></trkpt><trkpt lat="44.2944717" lon="11.3737833"><ele>406.0</ele><time>2026-04-18T15:42:10.631Z</time></trkpt><trkpt lat="44.294605" lon="11.3737967"><ele>406.0</ele><time>2026-04-18T15:42:11.632Z</time></trkpt><trkpt lat="44.2947433" lon="11.3738"><ele>406.0</ele><time>2026-04-18T15:42:12.631Z</time></trkpt><trkpt lat="44.2948783" lon="11.3738167"><ele>406.0</ele><time>2026-04-18T15:42:13.631Z</time></trkpt><trkpt lat="44.295015" lon="11.3738483"><ele>406.0</ele><time>2026-04-18T15:42:14.631Z</time></trkpt><trkpt lat="44.2951467" lon="11.37389"><ele>406.0</ele><time>2026-04-18T15:42:15.632Z</time></trkpt><trkpt lat="44.2952867" lon="11.3739483"><ele>406.0</ele><time>2026-04-18T15:42:16.631Z</time></trkpt><trkpt lat="44.2954233" lon="11.3740083"><ele>406.0</ele><time>2026-04-18T15:42:17.631Z</time></trkpt><trkpt lat="44.295565" lon="11.3740783"><ele>406.0</ele><time>2026-04-18T15:42:18.631Z</time></trkpt><trkpt lat="44.295705" lon="11.3741583"><ele>406.0</ele><time>2026-04-18T15:42:19.631Z</time></trkpt><trkpt lat="44.2958333" lon="11.3742467"><ele>406.0</ele><time>2026-04-18T15:42:20.631Z</time></trkpt><trkpt lat="44.29595" lon="11.37436"><ele>406.0</ele><time>2026-04-18T15:42:21.632Z</time></trkpt><trkpt lat="44.2960517" lon="11.3745067"><ele>406.0</ele><time>2026-04-18T15:42:22.631Z</time></trkpt><trkpt lat="44.2961633" lon="11.374665"><ele>408.33333333333337</ele><time>2026-04-18T15:42:23.632Z</time></trkpt><trkpt lat="44.2962867" lon="11.37485"><ele>410.66666666666663</ele><time>2026-04-18T15:42:24.631Z</time></trkpt><trkpt lat="44.296395" lon="11.3750533"><ele>413.0</ele><time>2026-04-18T15:42:25.632Z</time></trkpt><trkpt lat="44.296485" lon="11.3752533"><ele>413.0</ele><time>2026-04-18T15:42:26.632Z</time></trkpt><trkpt lat="44.29656" lon="11.3754467"><ele>413.0</ele><time>2026-04-18T15:42:27.631Z</time></trkpt><trkpt lat="44.2966233" lon="11.3756333"><ele>413.0</ele><time>2026-04-18T15:42:28.632Z</time></trkpt><trkpt lat="44.29668" lon="11.3758117"><ele>413.0</ele><time>2026-04-18T15:42:29.631Z</time></trkpt><trkpt lat="44.2967267" lon="11.375975"><ele>411.0</ele><time>2026-04-18T15:42:30.632Z</time></trkpt><trkpt lat="44.2967917" lon="11.3761333"><ele>409.0</ele><time>2026-04-18T15:42:31.631Z</time></trkpt><trkpt lat="44.296885" lon="11.3762733"><ele>407.0</ele><time>2026-04-18T15:42:32.631Z</time></trkpt><trkpt lat="44.2969883" lon="11.376365"><ele>405.0</ele><time>2026-04-18T15:42:33.631Z</time></trkpt><trkpt lat="44.29711" lon="11.3764317"><ele>403.0</ele><time>2026-04-18T15:42:34.631Z</time></trkpt><trkpt lat="44.29725" lon="11.3764417"><ele>401.0</ele><time>2026-04-18T15:42:35.631Z</time></trkpt><trkpt lat="44.2973967" lon="11.3764083"><ele>399.0</ele><time>2026-04-18T15:42:36.631Z</time></trkpt><trkpt lat="44.2975417" lon="11.37634"><ele>397.0</ele><time>2026-04-18T15:42:37.631Z</time></trkpt><trkpt lat="44.2976733" lon="11.3762617"><ele>401.25</ele><time>2026-04-18T15:42:38.631Z</time></trkpt><trkpt lat="44.297805" lon="11.3761933"><ele>405.5</ele><time>2026-04-18T15:42:39.631Z</time></trkpt><trkpt lat="44.2979267" lon="11.3761667"><ele>409.75</ele><time>2026-04-18T15:42:40.632Z</time></trkpt><trkpt lat="44.29804" lon="11.3761883"><ele>414.0</ele><time>2026-04-18T15:42:41.631Z</time></trkpt><trkpt lat="44.2981433" lon="11.3762617"><ele>409.25</ele><time>2026-04-18T15:42:42.631Z</time></trkpt><trkpt lat="44.2982433" lon="11.3763567"><ele>404.5</ele><time>2026-04-18T15:42:43.631Z</time></trkpt><trkpt lat="44.29834" lon="11.3764733"><ele>399.75</ele><time>2026-04-18T15:42:44.631Z</time></trkpt><trkpt lat="44.2984417" lon="11.3765683"><ele>395.0</ele><time>2026-04-18T15:42:45.631Z</time></trkpt><trkpt lat="44.2985583" lon="11.376635"><ele>395.0</ele><time>2026-04-18T15:42:46.631Z</time></trkpt><trkpt lat="44.2986817" lon="11.37666"><ele>395.0</ele><time>2026-04-18T15:42:47.631Z</time></trkpt><trkpt lat="44.298805" lon="11.37666"><ele>395.0</ele><time>2026-04-18T15:42:48.632Z</time></trkpt><trkpt lat="44.298935" lon="11.3766433"><ele>395.0</ele><time>2026-04-18T15:42:49.631Z</time></trkpt><trkpt lat="44.2990633" lon="11.376615"><ele>395.0</ele><time>2026-04-18T15:42:50.631Z</time></trkpt><trkpt lat="44.2991933" lon="11.37657"><ele>395.0</ele><time>2026-04-18T15:42:51.632Z</time></trkpt><trkpt lat="44.2993333" lon="11.3765133"><ele>395.0</ele><time>2026-04-18T15:42:52.632Z</time></trkpt><trkpt lat="44.2994783" lon="11.3764533"><ele>395.0</ele><time>2026-04-18T15:42:53.631Z</time></trkpt><trkpt lat="44.299615" lon="11.3764017"><ele>398.66666666666663</ele><time>2026-04-18T15:42:54.631Z</time></trkpt><trkpt lat="44.2997533" lon="11.3763383"><ele>402.33333333333337</ele><time>2026-04-18T15:42:55.631Z</time></trkpt><trkpt lat="44.299905" lon="11.3762717"><ele>406.0</ele><time>2026-04-18T15:42:56.632Z</time></trkpt><trkpt lat="44.3000483" lon="11.3762133"><ele>406.0</ele><time>2026-04-18T15:42:57.631Z</time></trkpt><trkpt lat="44.3001767" lon="11.37615"><ele>406.0</ele><time>2026-04-18T15:42:58.631Z</time></trkpt><trkpt lat="44.3002967" lon="11.376095"><ele>406.0</ele><time>2026-04-18T15:42:59.632Z</time></trkpt><trkpt lat="44.3004" lon="11.3760583"><ele>406.0</ele><time>2026-04-18T15:43:00.632Z</time></trkpt><trkpt lat="44.3004883" lon="11.376035"><ele>406.00000000000006</ele><time>2026-04-18T15:43:01.631Z</time></trkpt><trkpt lat="44.3005517" lon="11.3760383"><ele>406.0</ele><time>2026-04-18T15:43:02.632Z</time></trkpt><trkpt lat="44.3006433" lon="11.3760767"><ele>406.0</ele><time>2026-04-18T15:43:04.631Z</time></trkpt><trkpt lat="44.300695" lon="11.37613"><ele>406.0</ele><time>2026-04-18T15:43:06.632Z</time></trkpt><trkpt lat="44.3007467" lon="11.3761867"><ele>406.00000000000006</ele><time>2026-04-18T15:43:08.632Z</time></trkpt><trkpt lat="44.3008383" lon="11.3762483"><ele>406.0</ele><time>2026-04-18T15:43:10.631Z</time></trkpt><trkpt lat="44.3008933" lon="11.3762933"><ele>404.50000000000006</ele><time>2026-04-18T15:43:11.631Z</time></trkpt><trkpt lat="44.3009617" lon="11.3763417"><ele>403.0</ele><time>2026-04-18T15:43:12.632Z</time></trkpt><trkpt lat="44.3010367" lon="11.37639"><ele>401.5</ele><time>2026-04-18T15:43:13.631Z</time></trkpt><trkpt lat="44.301115" lon="11.3764383"><ele>400.0</ele><time>2026-04-18T15:43:14.631Z</time></trkpt><trkpt lat="44.301185" lon="11.376485"><ele>398.50000000000006</ele><time>2026-04-18T15:43:15.631Z</time></trkpt><trkpt lat="44.3012483" lon="11.37653"><ele>397.0</ele><time>2026-04-18T15:43:16.631Z</time></trkpt><trkpt lat="44.3013117" lon="11.376565"><ele>395.1666666666667</ele><time>2026-04-18T15:43:17.631Z</time></trkpt><trkpt lat="44.301375" lon="11.3765933"><ele>393.33333333333337</ele><time>2026-04-18T15:43:18.631Z</time></trkpt><trkpt lat="44.30144" lon="11.3766183"><ele>391.5</ele><time>2026-04-18T15:43:19.631Z</time></trkpt><trkpt lat="44.301505" lon="11.376645"><ele>389.66666666666663</ele><time>2026-04-18T15:43:20.631Z</time></trkpt><trkpt lat="44.3015767" lon="11.3766683"><ele>387.8333333333333</ele><time>2026-04-18T15:43:21.632Z</time></trkpt><trkpt lat="44.30164" lon="11.3766967"><ele>386.0</ele><time>2026-04-18T15:43:22.631Z</time></trkpt><trkpt lat="44.3017417" lon="11.376775"><ele>386.0</ele><time>2026-04-18T15:43:24.631Z</time></trkpt><trkpt lat="44.3018533" lon="11.37686"><ele>386.0</ele><time>2026-04-18T15:43:26.631Z</time></trkpt><trkpt lat="44.30193" lon="11.376895"><ele>386.0</ele><time>2026-04-18T15:43:27.631Z</time></trkpt><trkpt lat="44.3020117" lon="11.3769267"><ele>386.0</ele><time>2026-04-18T15:43:28.631Z</time></trkpt><trkpt lat="44.3021" lon="11.376955"><ele>386.0</ele><time>2026-04-18T15:43:29.632Z</time></trkpt><trkpt lat="44.302205" lon="11.376965"><ele>385.0</ele><time>2026-04-18T15:43:30.632Z</time></trkpt><trkpt lat="44.302325" lon="11.37697"><ele>384.0</ele><time>2026-04-18T15:43:31.632Z</time></trkpt><trkpt lat="44.3024633" lon="11.3769717"><ele>383.0</ele><time>2026-04-18T15:43:32.631Z</time></trkpt><trkpt lat="44.3025883" lon="11.3769833"><ele>382.0</ele><time>2026-04-18T15:43:33.631Z</time></trkpt><trkpt lat="44.3026967" lon="11.3770117"><ele>382.0</ele><time>2026-04-18T15:43:34.632Z</time></trkpt><trkpt lat="44.302805" lon="11.377055"><ele>382.0</ele><time>2026-04-18T15:43:35.632Z</time></trkpt><trkpt lat="44.3029133" lon="11.3771117"><ele>382.0</ele><time>2026-04-18T15:43:36.632Z</time></trkpt><trkpt lat="44.3030333" lon="11.3771817"><ele>382.0</ele><time>2026-04-18T15:43:37.631Z</time></trkpt><trkpt lat="44.3031467" lon="11.3772633"><ele>382.0</ele><time>2026-04-18T15:43:38.631Z</time></trkpt><trkpt lat="44.3032633" lon="11.3773433"><ele>382.0</ele><time>2026-04-18T15:43:39.632Z</time></trkpt><trkpt lat="44.3033783" lon="11.377425"><ele>382.0</ele><time>2026-04-18T15:43:40.631Z</time></trkpt><trkpt lat="44.3035083" lon="11.3775067"><ele>382.0</ele><time>2026-04-18T15:43:41.632Z</time></trkpt><trkpt lat="44.3036383" lon="11.3775933"><ele>382.0</ele><time>2026-04-18T15:43:42.631Z</time></trkpt><trkpt lat="44.30376" lon="11.3776583"><ele>382.0</ele><time>2026-04-18T15:43:43.631Z</time></trkpt><trkpt lat="44.303885" lon="11.377725"><ele>382.0</ele><time>2026-04-18T15:43:44.632Z</time></trkpt><trkpt lat="44.3040233" lon="11.3778017"><ele>382.0</ele><time>2026-04-18T15:43:45.632Z</time></trkpt><trkpt lat="44.3041667" lon="11.3778867"><ele>382.5</ele><time>2026-04-18T15:43:46.632Z</time></trkpt><trkpt lat="44.3042983" lon="11.3779717"><ele>383.0</ele><time>2026-04-18T15:43:47.631Z</time></trkpt><trkpt lat="44.304425" lon="11.378065"><ele>383.5</ele><time>2026-04-18T15:43:48.631Z</time></trkpt><trkpt lat="44.3045617" lon="11.37816"><ele>384.0</ele><time>2026-04-18T15:43:49.632Z</time></trkpt><trkpt lat="44.3046867" lon="11.378245"><ele>385.5</ele><time>2026-04-18T15:43:50.631Z</time></trkpt><trkpt lat="44.3048033" lon="11.3783117"><ele>387.0</ele><time>2026-04-18T15:43:51.631Z</time></trkpt><trkpt lat="44.3049117" lon="11.3783833"><ele>388.5</ele><time>2026-04-18T15:43:52.632Z</time></trkpt><trkpt lat="44.3050067" lon="11.3784467"><ele>390.0</ele><time>2026-04-18T15:43:53.631Z</time></trkpt><trkpt lat="44.3051017" lon="11.3785117"><ele>390.0</ele><time>2026-04-18T15:43:54.631Z</time></trkpt><trkpt lat="44.305195" lon="11.3785767"><ele>390.0</ele><time>2026-04-18T15:43:55.631Z</time></trkpt><trkpt lat="44.3052967" lon="11.3786417"><ele>390.0</ele><time>2026-04-18T15:43:56.632Z</time></trkpt><trkpt lat="44.3054017" lon="11.3787"><ele>390.0</ele><time>2026-04-18T15:43:57.631Z</time></trkpt><trkpt lat="44.3055033" lon="11.3787517"><ele>390.0</ele><time>2026-04-18T15:43:58.631Z</time></trkpt><trkpt lat="44.3056017" lon="11.378815"><ele>389.2</ele><time>2026-04-18T15:43:59.631Z</time></trkpt><trkpt lat="44.3056967" lon="11.37888"><ele>388.4</ele><time>2026-04-18T15:44:00.632Z</time></trkpt><trkpt lat="44.3057917" lon="11.3789483"><ele>387.6</ele><time>2026-04-18T15:44:01.632Z</time></trkpt><trkpt lat="44.30588" lon="11.3790283"><ele>386.8</ele><time>2026-04-18T15:44:02.631Z</time></trkpt><trkpt lat="44.3059817" lon="11.3791167"><ele>386.0</ele><time>2026-04-18T15:44:03.632Z</time></trkpt><trkpt lat="44.3060833" lon="11.3792133"><ele>386.0</ele><time>2026-04-18T15:44:04.632Z</time></trkpt><trkpt lat="44.3061883" lon="11.379325"><ele>386.0</ele><time>2026-04-18T15:44:05.631Z</time></trkpt><trkpt lat="44.3062917" lon="11.37943"><ele>386.0</ele><time>2026-04-18T15:44:06.632Z</time></trkpt><trkpt lat="44.3063883" lon="11.3795533"><ele>386.0</ele><time>2026-04-18T15:44:07.631Z</time></trkpt><trkpt lat="44.3065" lon="11.379675"><ele>386.75</ele><time>2026-04-18T15:44:08.631Z</time></trkpt><trkpt lat="44.3066117" lon="11.3798083"><ele>387.5</ele><time>2026-04-18T15:44:09.631Z</time></trkpt><trkpt lat="44.306725" lon="11.379935"><ele>388.25</ele><time>2026-04-18T15:44:10.631Z</time></trkpt><trkpt lat="44.30683" lon="11.380065"><ele>389.0</ele><time>2026-04-18T15:44:11.631Z</time></trkpt><trkpt lat="44.3069317" lon="11.38017"><ele>389.0</ele><time>2026-04-18T15:44:12.631Z</time></trkpt><trkpt lat="44.3070383" lon="11.3802733"><ele>389.0</ele><time>2026-04-18T15:44:13.632Z</time></trkpt><trkpt lat="44.30714" lon="11.3803833"><ele>389.0</ele><time>2026-04-18T15:44:14.632Z</time></trkpt><trkpt lat="44.3072433" lon="11.38049"><ele>389.0</ele><time>2026-04-18T15:44:15.632Z</time></trkpt><trkpt lat="44.3073417" lon="11.3805933"><ele>391.25</ele><time>2026-04-18T15:44:16.631Z</time></trkpt><trkpt lat="44.3074317" lon="11.380705"><ele>393.5</ele><time>2026-04-18T15:44:17.631Z</time></trkpt><trkpt lat="44.3075233" lon="11.3808217"><ele>395.75</ele><time>2026-04-18T15:44:18.631Z</time></trkpt><trkpt lat="44.3076233" lon="11.3809317"><ele>398.0</ele><time>2026-04-18T15:44:19.632Z</time></trkpt><trkpt lat="44.307725" lon="11.3810483"><ele>398.0</ele><time>2026-04-18T15:44:20.631Z</time></trkpt><trkpt lat="44.30783" lon="11.3811567"><ele>398.0</ele><time>2026-04-18T15:44:21.632Z</time></trkpt><trkpt lat="44.307935" lon="11.3812633"><ele>398.0</ele><time>2026-04-18T15:44:22.631Z</time></trkpt><trkpt lat="44.3080433" lon="11.381355"><ele>398.0</ele><time>2026-04-18T15:44:23.631Z</time></trkpt><trkpt lat="44.30815" lon="11.3814567"><ele>402.0</ele><time>2026-04-18T15:44:24.631Z</time></trkpt><trkpt lat="44.3082533" lon="11.3815633"><ele>406.0</ele><time>2026-04-18T15:44:25.631Z</time></trkpt><trkpt lat="44.3083533" lon="11.3816717"><ele>410.0</ele><time>2026-04-18T15:44:26.631Z</time></trkpt><trkpt lat="44.3084567" lon="11.38179"><ele>414.0</ele><time>2026-04-18T15:44:27.631Z</time></trkpt><trkpt lat="44.308555" lon="11.3819067"><ele>414.0</ele><time>2026-04-18T15:44:28.631Z</time></trkpt><trkpt lat="44.3086567" lon="11.382025"><ele>414.0</ele><time>2026-04-18T15:44:29.632Z</time></trkpt><trkpt lat="44.3087567" lon="11.3821267"><ele>414.0</ele><time>2026-04-18T15:44:30.632Z</time></trkpt><trkpt lat="44.3088583" lon="11.3822183"><ele>414.0</ele><time>2026-04-18T15:44:31.631Z</time></trkpt><trkpt lat="44.3089717" lon="11.38231"><ele>417.5</ele><time>2026-04-18T15:44:32.631Z</time></trkpt><trkpt lat="44.30909" lon="11.3823967"><ele>421.0</ele><time>2026-04-18T15:44:33.631Z</time></trkpt><trkpt lat="44.3092067" lon="11.382475"><ele>424.5</ele><time>2026-04-18T15:44:34.631Z</time></trkpt><trkpt lat="44.30932" lon="11.382545"><ele>428.0</ele><time>2026-04-18T15:44:35.631Z</time></trkpt><trkpt lat="44.3094317" lon="11.3826233"><ele>428.0</ele><time>2026-04-18T15:44:36.631Z</time></trkpt><trkpt lat="44.3095183" lon="11.3826933"><ele>427.99999999999994</ele><time>2026-04-18T15:44:37.631Z</time></trkpt><trkpt lat="44.3096267" lon="11.3827667"><ele>427.99999999999994</ele><time>2026-04-18T15:44:38.631Z</time></trkpt><trkpt lat="44.30973" lon="11.3828367"><ele>428.0</ele><time>2026-04-18T15:44:39.631Z</time></trkpt><trkpt lat="44.3098283" lon="11.3829017"><ele>428.0</ele><time>2026-04-18T15:44:40.632Z</time></trkpt><trkpt lat="44.3099283" lon="11.3829683"><ele>431.2</ele><time>2026-04-18T15:44:41.632Z</time></trkpt><trkpt lat="44.310025" lon="11.3830567"><ele>434.4</ele><time>2026-04-18T15:44:42.632Z</time></trkpt><trkpt lat="44.3101267" lon="11.3831383"><ele>437.59999999999997</ele><time>2026-04-18T15:44:43.631Z</time></trkpt><trkpt lat="44.3102267" lon="11.3832067"><ele>440.79999999999995</ele><time>2026-04-18T15:44:44.632Z</time></trkpt><trkpt lat="44.3103133" lon="11.3832717"><ele>444.0</ele><time>2026-04-18T15:44:45.631Z</time></trkpt><trkpt lat="44.31041" lon="11.3833383"><ele>444.0</ele><time>2026-04-18T15:44:46.632Z</time></trkpt><trkpt lat="44.310515" lon="11.3834067"><ele>444.0</ele><time>2026-04-18T15:44:47.632Z</time></trkpt><trkpt lat="44.310605" lon="11.3834767"><ele>444.0</ele><time>2026-04-18T15:44:48.631Z</time></trkpt><trkpt lat="44.3106967" lon="11.3835483"><ele>444.0</ele><time>2026-04-18T15:44:49.631Z</time></trkpt><trkpt lat="44.3107967" lon="11.3836233"><ele>444.0</ele><time>2026-04-18T15:44:50.632Z</time></trkpt><trkpt lat="44.3108967" lon="11.3836983"><ele>443.2</ele><time>2026-04-18T15:44:51.631Z</time></trkpt><trkpt lat="44.3109933" lon="11.3837683"><ele>442.4</ele><time>2026-04-18T15:44:52.631Z</time></trkpt><trkpt lat="44.3110933" lon="11.38384"><ele>441.6</ele><time>2026-04-18T15:44:53.631Z</time></trkpt><trkpt lat="44.3111883" lon="11.3839133"><ele>440.8</ele><time>2026-04-18T15:44:54.632Z</time></trkpt><trkpt lat="44.311285" lon="11.3839833"><ele>440.0</ele><time>2026-04-18T15:44:55.632Z</time></trkpt><trkpt lat="44.31138" lon="11.384045"><ele>441.8</ele><time>2026-04-18T15:44:56.631Z</time></trkpt><trkpt lat="44.31147" lon="11.3841067"><ele>443.6</ele><time>2026-04-18T15:44:57.631Z</time></trkpt><trkpt lat="44.3115633" lon="11.38416"><ele>445.4</ele><time>2026-04-18T15:44:58.631Z</time></trkpt><trkpt lat="44.311665" lon="11.3842083"><ele>447.2</ele><time>2026-04-18T15:44:59.631Z</time></trkpt><trkpt lat="44.3117683" lon="11.3842333"><ele>449.0</ele><time>2026-04-18T15:45:00.631Z</time></trkpt><trkpt lat="44.3118883" lon="11.3842483"><ele>449.0</ele><time>2026-04-18T15:45:01.631Z</time></trkpt><trkpt lat="44.31202" lon="11.3842633"><ele>449.0</ele><time>2026-04-18T15:45:02.631Z</time></trkpt><trkpt lat="44.3121533" lon="11.38427"><ele>449.0</ele><time>2026-04-18T15:45:03.631Z</time></trkpt><trkpt lat="44.3122767" lon="11.384285"><ele>449.0</ele><time>2026-04-18T15:45:04.632Z</time></trkpt><trkpt lat="44.3124017" lon="11.3842917"><ele>450.75</ele><time>2026-04-18T15:45:05.631Z</time></trkpt><trkpt lat="44.3125317" lon="11.3843017"><ele>452.5</ele><time>2026-04-18T15:45:06.631Z</time></trkpt><trkpt lat="44.312665" lon="11.384315"><ele>454.25</ele><time>2026-04-18T15:45:07.631Z</time></trkpt><trkpt lat="44.3127933" lon="11.3843367"><ele>456.0</ele><time>2026-04-18T15:45:08.631Z</time></trkpt><trkpt lat="44.3129183" lon="11.384355"><ele>456.0</ele><time>2026-04-18T15:45:09.631Z</time></trkpt><trkpt lat="44.313045" lon="11.38437"><ele>456.0</ele><time>2026-04-18T15:45:10.631Z</time></trkpt><trkpt lat="44.3131633" lon="11.38438"><ele>456.0</ele><time>2026-04-18T15:45:11.631Z</time></trkpt><trkpt lat="44.3132733" lon="11.384395"><ele>456.0</ele><time>2026-04-18T15:45:12.631Z</time></trkpt><trkpt lat="44.3133783" lon="11.3844133"><ele>458.20000000000005</ele><time>2026-04-18T15:45:13.631Z</time></trkpt><trkpt lat="44.31348" lon="11.3844583"><ele>460.40000000000003</ele><time>2026-04-18T15:45:14.631Z</time></trkpt><trkpt lat="44.313555" lon="11.3845283"><ele>462.6</ele><time>2026-04-18T15:45:15.631Z</time></trkpt><trkpt lat="44.3136117" lon="11.3846183"><ele>464.8</ele><time>2026-04-18T15:45:16.631Z</time></trkpt><trkpt lat="44.3136517" lon="11.3847267"><ele>467.0</ele><time>2026-04-18T15:45:17.632Z</time></trkpt><trkpt lat="44.3136767" lon="11.3848367"><ele>467.99999999999994</ele><time>2026-04-18T15:45:18.631Z</time></trkpt><trkpt lat="44.3137017" lon="11.3849267"><ele>469.0</ele><time>2026-04-18T15:45:19.632Z</time></trkpt><trkpt lat="44.3137233" lon="11.38502"><ele>470.0</ele><time>2026-04-18T15:45:20.631Z</time></trkpt><trkpt lat="44.313775" lon="11.3851"><ele>471.0</ele><time>2026-04-18T15:45:21.63Z</time></trkpt><trkpt lat="44.3138317" lon="11.3851517"><ele>471.99999999999994</ele><time>2026-04-18T15:45:22.63Z</time></trkpt><trkpt lat="44.3139633" lon="11.3851583"><ele>473.0</ele><time>2026-04-18T15:45:24.631Z</time></trkpt><trkpt lat="44.3140317" lon="11.3851167"><ele>474.49999999999994</ele><time>2026-04-18T15:45:25.63Z</time></trkpt><trkpt lat="44.3141083" lon="11.3850567"><ele>476.0</ele><time>2026-04-18T15:45:26.63Z</time></trkpt><trkpt lat="44.31418" lon="11.38501"><ele>477.5</ele><time>2026-04-18T15:45:27.63Z</time></trkpt><trkpt lat="44.3142433" lon="11.3849817"><ele>479.0</ele><time>2026-04-18T15:45:28.631Z</time></trkpt><trkpt lat="44.314335" lon="11.3850233"><ele>480.49999999999994</ele><time>2026-04-18T15:45:30.63Z</time></trkpt><trkpt lat="44.3143983" lon="11.3851567"><ele>482.0</ele><time>2026-04-18T15:45:32.63Z</time></trkpt><trkpt lat="44.3144883" lon="11.3852883"><ele>482.0</ele><time>2026-04-18T15:45:34.631Z</time></trkpt><trkpt lat="44.3145483" lon="11.385355"><ele>482.00000000000006</ele><time>2026-04-18T15:45:35.63Z</time></trkpt><trkpt lat="44.31462" lon="11.3854283"><ele>482.00000000000006</ele><time>2026-04-18T15:45:36.63Z</time></trkpt><trkpt lat="44.3147017" lon="11.385505"><ele>482.0</ele><time>2026-04-18T15:45:37.631Z</time></trkpt><trkpt lat="44.3147983" lon="11.3855833"><ele>482.0</ele><time>2026-04-18T15:45:38.63Z</time></trkpt><trkpt lat="44.3148967" lon="11.3856633"><ele>480.0</ele><time>2026-04-18T15:45:39.63Z</time></trkpt><trkpt lat="44.3149967" lon="11.38574"><ele>478.00000000000006</ele><time>2026-04-18T15:45:40.63Z</time></trkpt><trkpt lat="44.3151" lon="11.3858167"><ele>476.00000000000006</ele><time>2026-04-18T15:45:41.631Z</time></trkpt><trkpt lat="44.3152" lon="11.385865"><ele>474.0</ele><time>2026-04-18T15:45:42.63Z</time></trkpt><trkpt lat="44.3153" lon="11.3859083"><ele>472.0</ele><time>2026-04-18T15:45:43.631Z</time></trkpt><trkpt lat="44.3154" lon="11.38594"><ele>472.0</ele><time>2026-04-18T15:45:44.63Z</time></trkpt><trkpt lat="44.31551" lon="11.3859817"><ele>472.00000000000006</ele><time>2026-04-18T15:45:45.63Z</time></trkpt><trkpt lat="44.3156083" lon="11.3860217"><ele>472.00000000000006</ele><time>2026-04-18T15:45:46.63Z</time></trkpt><trkpt lat="44.315705" lon="11.3860483"><ele>472.0</ele><time>2026-04-18T15:45:47.63Z</time></trkpt><trkpt lat="44.31579" lon="11.3860783"><ele>472.0</ele><time>2026-04-18T15:45:48.63Z</time></trkpt><trkpt lat="44.31587" lon="11.3861067"><ele>473.83333333333337</ele><time>2026-04-18T15:45:49.631Z</time></trkpt><trkpt lat="44.3159483" lon="11.3861367"><ele>475.6666666666667</ele><time>2026-04-18T15:45:50.63Z</time></trkpt><trkpt lat="44.3160283" lon="11.3861683"><ele>477.5</ele><time>2026-04-18T15:45:51.63Z</time></trkpt><trkpt lat="44.3161117" lon="11.3861883"><ele>479.33333333333337</ele><time>2026-04-18T15:45:52.63Z</time></trkpt><trkpt lat="44.3161867" lon="11.3862133"><ele>481.1666666666667</ele><time>2026-04-18T15:45:53.63Z</time></trkpt><trkpt lat="44.31626" lon="11.3862367"><ele>483.0</ele><time>2026-04-18T15:45:54.63Z</time></trkpt><trkpt lat="44.3163383" lon="11.3862583"><ele>483.0</ele><time>2026-04-18T15:45:55.631Z</time></trkpt><trkpt lat="44.3164" lon="11.3862867"><ele>483.0</ele><time>2026-04-18T15:45:56.63Z</time></trkpt><trkpt lat="44.3164567" lon="11.38634"><ele>483.0</ele><time>2026-04-18T15:45:57.63Z</time></trkpt><trkpt lat="44.3165033" lon="11.386405"><ele>483.0</ele><time>2026-04-18T15:45:58.631Z</time></trkpt><trkpt lat="44.3165417" lon="11.3864833"><ele>483.0</ele><time>2026-04-18T15:45:59.631Z</time></trkpt><trkpt lat="44.316575" lon="11.3865833"><ele>483.0</ele><time>2026-04-18T15:46:00.631Z</time></trkpt><trkpt lat="44.3166033" lon="11.3866983"><ele>483.0</ele><time>2026-04-18T15:46:01.631Z</time></trkpt><trkpt lat="44.3166383" lon="11.38682"><ele>481.1666666666667</ele><time>2026-04-18T15:46:02.63Z</time></trkpt><trkpt lat="44.316685" lon="11.3869417"><ele>479.33333333333337</ele><time>2026-04-18T15:46:03.63Z</time></trkpt><trkpt lat="44.3167317" lon="11.38705"><ele>477.5</ele><time>2026-04-18T15:46:04.63Z</time></trkpt><trkpt lat="44.316775" lon="11.3871633"><ele>475.6666666666667</ele><time>2026-04-18T15:46:05.63Z</time></trkpt><trkpt lat="44.3168017" lon="11.387275"><ele>473.83333333333337</ele><time>2026-04-18T15:46:06.631Z</time></trkpt><trkpt lat="44.3168283" lon="11.3873717"><ele>472.0</ele><time>2026-04-18T15:46:07.631Z</time></trkpt><trkpt lat="44.3168583" lon="11.38747"><ele>470.33333333333337</ele><time>2026-04-18T15:46:08.631Z</time></trkpt><trkpt lat="44.316895" lon="11.3875567"><ele>468.6666666666667</ele><time>2026-04-18T15:46:09.631Z</time></trkpt><trkpt lat="44.3169467" lon="11.3876267"><ele>467.0</ele><time>2026-04-18T15:46:10.631Z</time></trkpt><trkpt lat="44.31701" lon="11.3876867"><ele>465.33333333333337</ele><time>2026-04-18T15:46:11.63Z</time></trkpt><trkpt lat="44.3170617" lon="11.3877433"><ele>463.6666666666667</ele><time>2026-04-18T15:46:12.63Z</time></trkpt><trkpt lat="44.3171233" lon="11.3878633"><ele>462.0</ele><time>2026-04-18T15:46:14.631Z</time></trkpt><trkpt lat="44.3171517" lon="11.3880467"><ele>460.0</ele><time>2026-04-18T15:46:16.63Z</time></trkpt><trkpt lat="44.3171483" lon="11.3881717"><ele>458.0</ele><time>2026-04-18T15:46:17.631Z</time></trkpt><trkpt lat="44.31714" lon="11.3883383"><ele>456.0</ele><time>2026-04-18T15:46:18.631Z</time></trkpt><trkpt lat="44.3171333" lon="11.388515"><ele>454.0</ele><time>2026-04-18T15:46:19.631Z</time></trkpt><trkpt lat="44.31715" lon="11.3886983"><ele>452.79999999999995</ele><time>2026-04-18T15:46:20.63Z</time></trkpt><trkpt lat="44.3171767" lon="11.388895"><ele>451.59999999999997</ele><time>2026-04-18T15:46:21.63Z</time></trkpt><trkpt lat="44.3171917" lon="11.3890567"><ele>450.4</ele><time>2026-04-18T15:46:22.63Z</time></trkpt><trkpt lat="44.3171983" lon="11.3891883"><ele>449.2</ele><time>2026-04-18T15:46:23.63Z</time></trkpt><trkpt lat="44.3172133" lon="11.3893117"><ele>448.0</ele><time>2026-04-18T15:46:24.631Z</time></trkpt><trkpt lat="44.3172283" lon="11.38942"><ele>449.6666666666667</ele><time>2026-04-18T15:46:25.63Z</time></trkpt><trkpt lat="44.3172517" lon="11.3895267"><ele>451.33333333333337</ele><time>2026-04-18T15:46:26.63Z</time></trkpt><trkpt lat="44.317295" lon="11.3896067"><ele>453.0</ele><time>2026-04-18T15:46:27.631Z</time></trkpt><trkpt lat="44.3173483" lon="11.38968"><ele>454.66666666666663</ele><time>2026-04-18T15:46:28.63Z</time></trkpt><trkpt lat="44.3174133" lon="11.3897533"><ele>456.3333333333333</ele><time>2026-04-18T15:46:29.63Z</time></trkpt><trkpt lat="44.317485" lon="11.38981"><ele>458.0</ele><time>2026-04-18T15:46:30.63Z</time></trkpt><trkpt lat="44.3175533" lon="11.3898433"><ele>457.99999999999994</ele><time>2026-04-18T15:46:31.63Z</time></trkpt><trkpt lat="44.3176283" lon="11.3898783"><ele>458.0</ele><time>2026-04-18T15:46:32.63Z</time></trkpt><trkpt lat="44.3177233" lon="11.389925"><ele>458.0</ele><time>2026-04-18T15:46:33.63Z</time></trkpt><trkpt lat="44.317815" lon="11.3899667"><ele>458.0</ele><time>2026-04-18T15:46:34.63Z</time></trkpt><trkpt lat="44.3178983" lon="11.3900033"><ele>457.99999999999994</ele><time>2026-04-18T15:46:35.63Z</time></trkpt><trkpt lat="44.31798" lon="11.3900267"><ele>458.0</ele><time>2026-04-18T15:46:36.631Z</time></trkpt><trkpt lat="44.3181033" lon="11.39006"><ele>459.5</ele><time>2026-04-18T15:46:37.63Z</time></trkpt><trkpt lat="44.3182383" lon="11.3900883"><ele>461.0</ele><time>2026-04-18T15:46:38.63Z</time></trkpt><trkpt lat="44.3183733" lon="11.3901183"><ele>462.5</ele><time>2026-04-18T15:46:39.631Z</time></trkpt><trkpt lat="44.3185083" lon="11.3901583"><ele>464.0</ele><time>2026-04-18T15:46:40.63Z</time></trkpt><trkpt lat="44.3186467" lon="11.3902117"><ele>464.0</ele><time>2026-04-18T15:46:41.63Z</time></trkpt><trkpt lat="44.31878" lon="11.3902517"><ele>464.0</ele><time>2026-04-18T15:46:42.631Z</time></trkpt><trkpt lat="44.31888" lon="11.3902767"><ele>464.0</ele><time>2026-04-18T15:46:43.63Z</time></trkpt><trkpt lat="44.31895" lon="11.3903083"><ele>464.0</ele><time>2026-04-18T15:46:44.63Z</time></trkpt><trkpt lat="44.319025" lon="11.3903367"><ele>464.0</ele><time>2026-04-18T15:46:46.631Z</time></trkpt><trkpt lat="44.3190917" lon="11.39033"><ele>464.8571428571429</ele><time>2026-04-18T15:46:48.631Z</time></trkpt><trkpt lat="44.3191733" lon="11.39033"><ele>465.7142857142857</ele><time>2026-04-18T15:46:50.631Z</time></trkpt><trkpt lat="44.3192583" lon="11.3903333"><ele>466.57142857142856</ele><time>2026-04-18T15:46:52.631Z</time></trkpt><trkpt lat="44.3193333" lon="11.3903183"><ele>467.42857142857144</ele><time>2026-04-18T15:46:54.63Z</time></trkpt><trkpt lat="44.3193933" lon="11.3902883"><ele>468.2857142857142</ele><time>2026-04-18T15:47:12.631Z</time></trkpt><trkpt lat="44.31946" lon="11.39028"><ele>469.1428571428571</ele><time>2026-04-18T15:47:18.63Z</time></trkpt><trkpt lat="44.3195333" lon="11.3902917"><ele>470.0</ele><time>2026-04-18T15:47:21.631Z</time></trkpt><trkpt lat="44.319595" lon="11.3903217"><ele>469.99999999999994</ele><time>2026-04-18T15:47:23.631Z</time></trkpt><trkpt lat="44.319655" lon="11.3903883"><ele>470.0</ele><time>2026-04-18T15:47:25.63Z</time></trkpt><trkpt lat="44.3197367" lon="11.39044"><ele>470.0</ele><time>2026-04-18T15:47:27.631Z</time></trkpt><trkpt lat="44.3198133" lon="11.3904983"><ele>470.0</ele><time>2026-04-18T15:47:29.63Z</time></trkpt><trkpt lat="44.3198833" lon="11.3905467"><ele>469.99999999999994</ele><time>2026-04-18T15:47:31.63Z</time></trkpt><trkpt lat="44.3199417" lon="11.3906283"><ele>470.0</ele><time>2026-04-18T15:47:34.63Z</time></trkpt><trkpt lat="44.3200033" lon="11.3906867"><ele>467.1428571428571</ele><time>2026-04-18T15:47:37.631Z</time></trkpt><trkpt lat="44.3200767" lon="11.390695"><ele>464.2857142857142</ele><time>2026-04-18T15:47:39.63Z</time></trkpt><trkpt lat="44.3201417" lon="11.3907067"><ele>461.42857142857144</ele><time>2026-04-18T15:47:41.63Z</time></trkpt><trkpt lat="44.3202067" lon="11.39074"><ele>458.57142857142856</ele><time>2026-04-18T15:47:43.63Z</time></trkpt><trkpt lat="44.3202867" lon="11.39077"><ele>455.7142857142857</ele><time>2026-04-18T15:47:45.63Z</time></trkpt><trkpt lat="44.3203517" lon="11.3907983"><ele>452.8571428571429</ele><time>2026-04-18T15:47:47.63Z</time></trkpt><trkpt lat="44.3204233" lon="11.39075"><ele>450.00000000000006</ele><time>2026-04-18T15:47:51.63Z</time></trkpt><trkpt lat="44.320485" lon="11.3907183"><ele>449.8</ele><time>2026-04-18T15:47:53.631Z</time></trkpt><trkpt lat="44.3205717" lon="11.39071"><ele>449.6</ele><time>2026-04-18T15:47:55.631Z</time></trkpt><trkpt lat="44.32068" lon="11.3907367"><ele>449.4</ele><time>2026-04-18T15:47:57.63Z</time></trkpt><trkpt lat="44.320745" lon="11.3907467"><ele>449.2</ele><time>2026-04-18T15:47:58.63Z</time></trkpt><trkpt lat="44.3208733" lon="11.3907717"><ele>449.0</ele><time>2026-04-18T15:48:00.631Z</time></trkpt><trkpt lat="44.3209433" lon="11.390795"><ele>448.99999999999994</ele><time>2026-04-18T15:48:01.63Z</time></trkpt><trkpt lat="44.3210017" lon="11.39083"><ele>449.0</ele><time>2026-04-18T15:48:02.631Z</time></trkpt><trkpt lat="44.3210983" lon="11.3909183"><ele>449.0</ele><time>2026-04-18T15:48:04.63Z</time></trkpt><trkpt lat="44.32115" lon="11.3909767"><ele>449.0</ele><time>2026-04-18T15:48:05.63Z</time></trkpt><trkpt lat="44.3212" lon="11.39104"><ele>448.99999999999994</ele><time>2026-04-18T15:48:06.63Z</time></trkpt><trkpt lat="44.3212517" lon="11.3911117"><ele>449.0</ele><time>2026-04-18T15:48:07.63Z</time></trkpt><trkpt lat="44.3213117" lon="11.3911817"><ele>448.99999999999994</ele><time>2026-04-18T15:48:08.63Z</time></trkpt><trkpt lat="44.3213817" lon="11.39125"><ele>449.0</ele><time>2026-04-18T15:48:09.631Z</time></trkpt><trkpt lat="44.3214483" lon="11.3912967"><ele>449.0</ele><time>2026-04-18T15:48:10.63Z</time></trkpt><trkpt lat="44.3215083" lon="11.39133"><ele>449.0</ele><time>2026-04-18T15:48:11.631Z</time></trkpt><trkpt lat="44.3216083" lon="11.3913583"><ele>448.99999999999994</ele><time>2026-04-18T15:48:13.63Z</time></trkpt><trkpt lat="44.3217083" lon="11.391355"><ele>449.0</ele><time>2026-04-18T15:48:37.63Z</time></trkpt><trkpt lat="44.3216717" lon="11.391435"><ele>446.3333333333333</ele><time>2026-04-18T15:48:42.631Z</time></trkpt><trkpt lat="44.3216583" lon="11.39155"><ele>443.66666666666663</ele><time>2026-04-18T15:48:46.63Z</time></trkpt><trkpt lat="44.3217417" lon="11.3916367"><ele>441.0</ele><time>2026-04-18T15:48:48.63Z</time></trkpt><trkpt lat="44.3217983" lon="11.3916883"><ele>438.33333333333337</ele><time>2026-04-18T15:48:49.63Z</time></trkpt><trkpt lat="44.321855" lon="11.3917383"><ele>435.6666666666667</ele><time>2026-04-18T15:48:50.63Z</time></trkpt><trkpt lat="44.3219067" lon="11.3917933"><ele>433.0</ele><time>2026-04-18T15:48:51.63Z</time></trkpt><trkpt lat="44.3219983" lon="11.3918983"><ele>433.0</ele><time>2026-04-18T15:48:53.63Z</time></trkpt><trkpt lat="44.3220867" lon="11.3919883"><ele>432.99999999999994</ele><time>2026-04-18T15:48:55.63Z</time></trkpt><trkpt lat="44.3221483" lon="11.392065"><ele>432.99999999999994</ele><time>2026-04-18T15:48:57.63Z</time></trkpt><trkpt lat="44.3221917" lon="11.3921633"><ele>433.0</ele><time>2026-04-18T15:48:59.631Z</time></trkpt><trkpt lat="44.322245" lon="11.3923283"><ele>433.0</ele><time>2026-04-18T15:49:01.631Z</time></trkpt><trkpt lat="44.3222783" lon="11.39241"><ele>429.00000000000006</ele><time>2026-04-18T15:49:02.631Z</time></trkpt><trkpt lat="44.3223117" lon="11.3924883"><ele>425.0</ele><time>2026-04-18T15:49:03.63Z</time></trkpt><trkpt lat="44.3223517" lon="11.392565"><ele>421.0</ele><time>2026-04-18T15:49:04.63Z</time></trkpt><trkpt lat="44.3224" lon="11.3926367"><ele>417.0</ele><time>2026-04-18T15:49:05.63Z</time></trkpt><trkpt lat="44.3224533" lon="11.3926967"><ele>413.00000000000006</ele><time>2026-04-18T15:49:06.63Z</time></trkpt><trkpt lat="44.322535" lon="11.3927817"><ele>409.0</ele><time>2026-04-18T15:49:08.63Z</time></trkpt><trkpt lat="44.3225883" lon="11.3929133"><ele>406.1666666666667</ele><time>2026-04-18T15:49:10.629Z</time></trkpt><trkpt lat="44.32263" lon="11.3930217"><ele>403.33333333333337</ele><time>2026-04-18T15:49:11.629Z</time></trkpt><trkpt lat="44.3226667" lon="11.3931283"><ele>400.5</ele><time>2026-04-18T15:49:12.629Z</time></trkpt><trkpt lat="44.3227067" lon="11.393235"><ele>397.66666666666663</ele><time>2026-04-18T15:49:13.629Z</time></trkpt><trkpt lat="44.32275" lon="11.3933333"><ele>394.8333333333333</ele><time>2026-04-18T15:49:14.629Z</time></trkpt><trkpt lat="44.322785" lon="11.393435"><ele>392.0</ele><time>2026-04-18T15:49:15.63Z</time></trkpt><trkpt lat="44.322825" lon="11.3935233"><ele>391.99999999999994</ele><time>2026-04-18T15:49:16.629Z</time></trkpt><trkpt lat="44.322895" lon="11.3936433"><ele>392.0</ele><time>2026-04-18T15:49:18.629Z</time></trkpt><trkpt lat="44.3229817" lon="11.39371"><ele>392.0</ele><time>2026-04-18T15:49:20.629Z</time></trkpt><trkpt lat="44.3230467" lon="11.3937167"><ele>392.0</ele><time>2026-04-18T15:49:21.629Z</time></trkpt><trkpt lat="44.3231283" lon="11.3937217"><ele>391.99999999999994</ele><time>2026-04-18T15:49:22.63Z</time></trkpt><trkpt lat="44.3232117" lon="11.3937367"><ele>392.0</ele><time>2026-04-18T15:49:23.629Z</time></trkpt><trkpt lat="44.323285" lon="11.39375"><ele>391.3333333333333</ele><time>2026-04-18T15:49:24.63Z</time></trkpt><trkpt lat="44.3233567" lon="11.39377"><ele>390.66666666666663</ele><time>2026-04-18T15:49:25.629Z</time></trkpt><trkpt lat="44.32343" lon="11.3937883"><ele>390.0</ele><time>2026-04-18T15:49:26.63Z</time></trkpt><trkpt lat="44.32351" lon="11.3938083"><ele>389.33333333333337</ele><time>2026-04-18T15:49:27.629Z</time></trkpt><trkpt lat="44.3235883" lon="11.3938167"><ele>388.6666666666667</ele><time>2026-04-18T15:49:28.629Z</time></trkpt><trkpt lat="44.323665" lon="11.3938267"><ele>388.0</ele><time>2026-04-18T15:49:29.629Z</time></trkpt><trkpt lat="44.3237383" lon="11.3938367"><ele>386.6666666666667</ele><time>2026-04-18T15:49:30.63Z</time></trkpt><trkpt lat="44.3238083" lon="11.3938417"><ele>385.33333333333337</ele><time>2026-04-18T15:49:31.629Z</time></trkpt><trkpt lat="44.3238733" lon="11.3938617"><ele>384.0</ele><time>2026-04-18T15:49:32.63Z</time></trkpt><trkpt lat="44.3239567" lon="11.39391"><ele>382.6666666666667</ele><time>2026-04-18T15:49:34.629Z</time></trkpt><trkpt lat="44.32401" lon="11.393975"><ele>381.33333333333337</ele><time>2026-04-18T15:49:36.629Z</time></trkpt><trkpt lat="44.3240433" lon="11.39405"><ele>380.0</ele><time>2026-04-18T15:49:39.629Z</time></trkpt><trkpt lat="44.3240033" lon="11.3941617"><ele>380.0</ele><time>2026-04-18T15:49:42.629Z</time></trkpt><trkpt lat="44.3239167" lon="11.3942967"><ele>380.0</ele><time>2026-04-18T15:49:44.629Z</time></trkpt><trkpt lat="44.323855" lon="11.3943883"><ele>380.0</ele><time>2026-04-18T15:49:45.629Z</time></trkpt><trkpt lat="44.3238" lon="11.394475"><ele>380.0</ele><time>2026-04-18T15:49:46.63Z</time></trkpt><trkpt lat="44.3237583" lon="11.3945683"><ele>380.0</ele><time>2026-04-18T15:49:47.629Z</time></trkpt><trkpt lat="44.3237317" lon="11.39466"><ele>376.33333333333337</ele><time>2026-04-18T15:49:48.63Z</time></trkpt><trkpt lat="44.323705" lon="11.394745"><ele>372.6666666666667</ele><time>2026-04-18T15:49:49.629Z</time></trkpt><trkpt lat="44.323685" lon="11.3948733"><ele>369.0</ele><time>2026-04-18T15:49:51.63Z</time></trkpt><trkpt lat="44.3236733" lon="11.39497"><ele>365.3333333333333</ele><time>2026-04-18T15:49:53.629Z</time></trkpt><trkpt lat="44.323655" lon="11.395085"><ele>361.66666666666663</ele><time>2026-04-18T15:49:55.629Z</time></trkpt><trkpt lat="44.323625" lon="11.3952083"><ele>358.0</ele><time>2026-04-18T15:49:57.63Z</time></trkpt><trkpt lat="44.3236017" lon="11.39535"><ele>358.0</ele><time>2026-04-18T15:49:59.629Z</time></trkpt><trkpt lat="44.3235833" lon="11.3954733"><ele>358.0</ele><time>2026-04-18T15:50:01.63Z</time></trkpt><trkpt lat="44.3235567" lon="11.3955683"><ele>358.0</ele><time>2026-04-18T15:50:03.63Z</time></trkpt><trkpt lat="44.3235367" lon="11.3956567"><ele>358.0</ele><time>2026-04-18T15:50:05.629Z</time></trkpt><trkpt lat="44.3235167" lon="11.3957483"><ele>358.0</ele><time>2026-04-18T15:50:08.629Z</time></trkpt><trkpt lat="44.32349" lon="11.39585"><ele>358.0</ele><time>2026-04-18T15:50:12.63Z</time></trkpt><trkpt lat="44.3234833" lon="11.39598"><ele>356.00000000000006</ele><time>2026-04-18T15:50:16.63Z</time></trkpt><trkpt lat="44.3234967" lon="11.3960833"><ele>354.0</ele><time>2026-04-18T15:50:18.629Z</time></trkpt><trkpt lat="44.323515" lon="11.396175"><ele>352.0</ele><time>2026-04-18T15:50:20.63Z</time></trkpt><trkpt lat="44.3235533" lon="11.3962483"><ele>350.0</ele><time>2026-04-18T15:50:22.629Z</time></trkpt><trkpt lat="44.32359" lon="11.396335"><ele>348.0</ele><time>2026-04-18T15:50:24.629Z</time></trkpt><trkpt lat="44.32363" lon="11.3964333"><ele>346.00000000000006</ele><time>2026-04-18T15:50:27.629Z</time></trkpt><trkpt lat="44.323665" lon="11.3965117"><ele>344.0</ele><time>2026-04-18T15:50:30.629Z</time></trkpt><trkpt lat="44.3236967" lon="11.3965983"><ele>342.5</ele><time>2026-04-18T15:50:32.629Z</time></trkpt><trkpt lat="44.3237467" lon="11.3967183"><ele>341.0</ele><time>2026-04-18T15:50:34.629Z</time></trkpt><trkpt lat="44.3237933" lon="11.3968183"><ele>339.5</ele><time>2026-04-18T15:50:36.63Z</time></trkpt><trkpt lat="44.32383" lon="11.396925"><ele>338.0</ele><time>2026-04-18T15:50:38.63Z</time></trkpt><trkpt lat="44.3238567" lon="11.3970067"><ele>336.5</ele><time>2026-04-18T15:50:40.63Z</time></trkpt><trkpt lat="44.3238833" lon="11.39712"><ele>335.0</ele><time>2026-04-18T15:50:43.629Z</time></trkpt><trkpt lat="44.323895" lon="11.3972167"><ele>334.1666666666667</ele><time>2026-04-18T15:50:46.629Z</time></trkpt><trkpt lat="44.3239167" lon="11.3973183"><ele>333.33333333333337</ele><time>2026-04-18T15:50:48.629Z</time></trkpt><trkpt lat="44.3239317" lon="11.397415"><ele>332.5</ele><time>2026-04-18T15:50:50.629Z</time></trkpt><trkpt lat="44.323955" lon="11.3975183"><ele>331.6666666666667</ele><time>2026-04-18T15:50:52.629Z</time></trkpt><trkpt lat="44.3239783" lon="11.39764"><ele>330.8333333333333</ele><time>2026-04-18T15:50:54.629Z</time></trkpt><trkpt lat="44.3240067" lon="11.397755"><ele>330.0</ele><time>2026-04-18T15:50:56.63Z</time></trkpt><trkpt lat="44.3240267" lon="11.3979"><ele>330.0</ele><time>2026-04-18T15:50:58.629Z</time></trkpt><trkpt lat="44.324035" lon="11.3979983"><ele>330.0</ele><time>2026-04-18T15:51:00.629Z</time></trkpt><trkpt lat="44.324035" lon="11.3981017"><ele>330.0</ele><time>2026-04-18T15:51:03.63Z</time></trkpt><trkpt lat="44.3240517" lon="11.3982133"><ele>330.0</ele><time>2026-04-18T15:51:05.629Z</time></trkpt><trkpt lat="44.324065" lon="11.3983283"><ele>330.0</ele><time>2026-04-18T15:51:07.629Z</time></trkpt><trkpt lat="44.3241067" lon="11.3984233"><ele>330.0</ele><time>2026-04-18T15:51:09.63Z</time></trkpt><trkpt lat="44.32412" lon="11.3985133"><ele>328.8333333333333</ele><time>2026-04-18T15:51:13.63Z</time></trkpt><trkpt lat="44.324055" lon="11.3985267"><ele>327.6666666666667</ele><time>2026-04-18T15:51:58.629Z</time></trkpt><trkpt lat="44.3239483" lon="11.3984467"><ele>326.5</ele><time>2026-04-18T15:52:00.629Z</time></trkpt><trkpt lat="44.3238783" lon="11.39841"><ele>325.33333333333337</ele><time>2026-04-18T15:52:01.629Z</time></trkpt><trkpt lat="44.323795" lon="11.3984017"><ele>324.1666666666667</ele><time>2026-04-18T15:52:02.63Z</time></trkpt><trkpt lat="44.3237183" lon="11.3984217"><ele>323.0</ele><time>2026-04-18T15:52:03.629Z</time></trkpt><trkpt lat="44.3236583" lon="11.3984633"><ele>322.4</ele><time>2026-04-18T15:52:04.63Z</time></trkpt><trkpt lat="44.3236083" lon="11.39858"><ele>321.79999999999995</ele><time>2026-04-18T15:52:06.63Z</time></trkpt><trkpt lat="44.323635" lon="11.3987283"><ele>321.2</ele><time>2026-04-18T15:52:08.63Z</time></trkpt><trkpt lat="44.3236667" lon="11.3988267"><ele>320.6</ele><time>2026-04-18T15:52:09.629Z</time></trkpt><trkpt lat="44.3237017" lon="11.3989267"><ele>320.0</ele><time>2026-04-18T15:52:10.63Z</time></trkpt><trkpt lat="44.3237483" lon="11.3990533"><ele>318.83333333333337</ele><time>2026-04-18T15:52:11.629Z</time></trkpt><trkpt lat="44.3237817" lon="11.39915"><ele>317.6666666666667</ele><time>2026-04-18T15:52:12.63Z</time></trkpt><trkpt lat="44.3238183" lon="11.3992733"><ele>316.5</ele><time>2026-04-18T15:52:13.629Z</time></trkpt><trkpt lat="44.323855" lon="11.39938"><ele>315.3333333333333</ele><time>2026-04-18T15:52:14.629Z</time></trkpt><trkpt lat="44.3238967" lon="11.39947"><ele>314.16666666666663</ele><time>2026-04-18T15:52:15.629Z</time></trkpt><trkpt lat="44.32394" lon="11.399555"><ele>313.0</ele><time>2026-04-18T15:52:16.629Z</time></trkpt><trkpt lat="44.3239683" lon="11.3996483"><ele>310.16666666666663</ele><time>2026-04-18T15:52:17.63Z</time></trkpt><trkpt lat="44.3239767" lon="11.39974"><ele>307.3333333333333</ele><time>2026-04-18T15:52:18.63Z</time></trkpt><trkpt lat="44.3239683" lon="11.399845"><ele>304.5</ele><time>2026-04-18T15:52:19.629Z</time></trkpt><trkpt lat="44.3239517" lon="11.3999533"><ele>301.6666666666667</ele><time>2026-04-18T15:52:20.629Z</time></trkpt><trkpt lat="44.32394" lon="11.400075"><ele>298.83333333333337</ele><time>2026-04-18T15:52:21.629Z</time></trkpt><trkpt lat="44.32395" lon="11.4002083"><ele>296.0</ele><time>2026-04-18T15:52:22.629Z</time></trkpt><trkpt lat="44.3239783" lon="11.4003383"><ele>296.0</ele><time>2026-04-18T15:52:23.629Z</time></trkpt><trkpt lat="44.3240233" lon="11.4004517"><ele>296.0</ele><time>2026-04-18T15:52:24.63Z</time></trkpt><trkpt lat="44.3240883" lon="11.4005483"><ele>296.0</ele><time>2026-04-18T15:52:25.629Z</time></trkpt><trkpt lat="44.3241633" lon="11.4006383"><ele>296.0</ele><time>2026-04-18T15:52:26.629Z</time></trkpt><trkpt lat="44.3242517" lon="11.4007183"><ele>296.0</ele><time>2026-04-18T15:52:27.629Z</time></trkpt><trkpt lat="44.3243467" lon="11.4008017"><ele>291.75</ele><time>2026-04-18T15:52:28.629Z</time></trkpt><trkpt lat="44.324445" lon="11.400885"><ele>287.5</ele><time>2026-04-18T15:52:29.629Z</time></trkpt><trkpt lat="44.3245417" lon="11.4009833"><ele>283.25</ele><time>2026-04-18T15:52:30.629Z</time></trkpt><trkpt lat="44.32463" lon="11.40108"><ele>279.0</ele><time>2026-04-18T15:52:31.629Z</time></trkpt><trkpt lat="44.324725" lon="11.4011683"><ele>278.75</ele><time>2026-04-18T15:52:32.629Z</time></trkpt><trkpt lat="44.3248367" lon="11.4012217"><ele>278.5</ele><time>2026-04-18T15:52:33.629Z</time></trkpt><trkpt lat="44.3249567" lon="11.4012533"><ele>278.25</ele><time>2026-04-18T15:52:34.63Z</time></trkpt><trkpt lat="44.3250783" lon="11.4012683"><ele>278.0</ele><time>2026-04-18T15:52:35.629Z</time></trkpt><trkpt lat="44.325195" lon="11.401255"><ele>278.0</ele><time>2026-04-18T15:52:36.629Z</time></trkpt><trkpt lat="44.3253033" lon="11.4012267"><ele>278.0</ele><time>2026-04-18T15:52:37.63Z</time></trkpt><trkpt lat="44.3254017" lon="11.40122"><ele>278.0</ele><time>2026-04-18T15:52:38.63Z</time></trkpt><trkpt lat="44.32548" lon="11.4012317"><ele>278.0</ele><time>2026-04-18T15:52:39.629Z</time></trkpt><trkpt lat="44.325545" lon="11.4012767"><ele>278.0</ele><time>2026-04-18T15:52:40.629Z</time></trkpt><trkpt lat="44.3255783" lon="11.4013633"><ele>278.0</ele><time>2026-04-18T15:52:41.63Z</time></trkpt><trkpt lat="44.3255917" lon="11.4014583"><ele>274.6</ele><time>2026-04-18T15:52:42.629Z</time></trkpt><trkpt lat="44.3255733" lon="11.4015617"><ele>271.20000000000005</ele><time>2026-04-18T15:52:43.63Z</time></trkpt><trkpt lat="44.32555" lon="11.4016933"><ele>267.8</ele><time>2026-04-18T15:52:44.63Z</time></trkpt><trkpt lat="44.325535" lon="11.4018317"><ele>264.40000000000003</ele><time>2026-04-18T15:52:45.63Z</time></trkpt><trkpt lat="44.3255083" lon="11.40197"><ele>261.0</ele><time>2026-04-18T15:52:46.63Z</time></trkpt><trkpt lat="44.3254767" lon="11.4021083"><ele>258.40000000000003</ele><time>2026-04-18T15:52:47.629Z</time></trkpt><trkpt lat="44.3254467" lon="11.402235"><ele>255.8</ele><time>2026-04-18T15:52:48.63Z</time></trkpt><trkpt lat="44.3254017" lon="11.402335"><ele>253.20000000000002</ele><time>2026-04-18T15:52:49.63Z</time></trkpt><trkpt lat="44.325335" lon="11.402425"><ele>250.60000000000002</ele><time>2026-04-18T15:52:50.629Z</time></trkpt><trkpt lat="44.325255" lon="11.4024867"><ele>248.0</ele><time>2026-04-18T15:52:51.629Z</time></trkpt><trkpt lat="44.3251583" lon="11.4025267"><ele>248.0</ele><time>2026-04-18T15:52:52.629Z</time></trkpt><trkpt lat="44.3250667" lon="11.402545"><ele>248.0</ele><time>2026-04-18T15:52:53.629Z</time></trkpt><trkpt lat="44.324975" lon="11.40253"><ele>248.0</ele><time>2026-04-18T15:52:54.629Z</time></trkpt><trkpt lat="44.3248867" lon="11.402505"><ele>248.0</ele><time>2026-04-18T15:52:55.63Z</time></trkpt><trkpt lat="44.3248017" lon="11.4024733"><ele>248.0</ele><time>2026-04-18T15:52:56.629Z</time></trkpt><trkpt lat="44.324715" lon="11.402465"><ele>247.66666666666669</ele><time>2026-04-18T15:52:57.629Z</time></trkpt><trkpt lat="44.324625" lon="11.4024967"><ele>247.33333333333334</ele><time>2026-04-18T15:52:58.628Z</time></trkpt><trkpt lat="44.3245517" lon="11.4025467"><ele>247.0</ele><time>2026-04-18T15:52:59.628Z</time></trkpt><trkpt lat="44.324475" lon="11.402605"><ele>246.66666666666669</ele><time>2026-04-18T15:53:00.628Z</time></trkpt><trkpt lat="44.3244033" lon="11.402665"><ele>246.33333333333334</ele><time>2026-04-18T15:53:01.628Z</time></trkpt><trkpt lat="44.32432" lon="11.4027217"><ele>246.0</ele><time>2026-04-18T15:53:02.629Z</time></trkpt><trkpt lat="44.3242317" lon="11.4027667"><ele>246.0</ele><time>2026-04-18T15:53:03.628Z</time></trkpt><trkpt lat="44.3241333" lon="11.40282"><ele>246.00000000000003</ele><time>2026-04-18T15:53:04.629Z</time></trkpt><trkpt lat="44.3240267" lon="11.40287"><ele>246.00000000000003</ele><time>2026-04-18T15:53:05.628Z</time></trkpt><trkpt lat="44.3239217" lon="11.4029117"><ele>246.0</ele><time>2026-04-18T15:53:06.629Z</time></trkpt><trkpt lat="44.323815" lon="11.4029317"><ele>246.0</ele><time>2026-04-18T15:53:07.628Z</time></trkpt><trkpt lat="44.3237133" lon="11.4029183"><ele>244.4</ele><time>2026-04-18T15:53:08.629Z</time></trkpt><trkpt lat="44.3236133" lon="11.4028583"><ele>242.8</ele><time>2026-04-18T15:53:09.629Z</time></trkpt><trkpt lat="44.32353" lon="11.4027817"><ele>241.20000000000002</ele><time>2026-04-18T15:53:10.628Z</time></trkpt><trkpt lat="44.32344" lon="11.4027317"><ele>239.60000000000002</ele><time>2026-04-18T15:53:11.628Z</time></trkpt><trkpt lat="44.3233617" lon="11.4027033"><ele>238.0</ele><time>2026-04-18T15:53:12.628Z</time></trkpt><trkpt lat="44.3232817" lon="11.4026983"><ele>237.99999999999997</ele><time>2026-04-18T15:53:13.628Z</time></trkpt><trkpt lat="44.3232133" lon="11.4027433"><ele>238.0</ele><time>2026-04-18T15:53:14.629Z</time></trkpt><trkpt lat="44.323155" lon="11.4028167"><ele>238.0</ele><time>2026-04-18T15:53:15.629Z</time></trkpt><trkpt lat="44.3231017" lon="11.4029167"><ele>238.0</ele><time>2026-04-18T15:53:16.628Z</time></trkpt><trkpt lat="44.3230467" lon="11.4030183"><ele>237.99999999999997</ele><time>2026-04-18T15:53:17.629Z</time></trkpt><trkpt lat="44.322985" lon="11.4031133"><ele>238.0</ele><time>2026-04-18T15:53:18.628Z</time></trkpt><trkpt lat="44.3228983" lon="11.40318"><ele>233.99999999999997</ele><time>2026-04-18T15:53:19.628Z</time></trkpt><trkpt lat="44.3228" lon="11.40321"><ele>230.0</ele><time>2026-04-18T15:53:20.628Z</time></trkpt><trkpt lat="44.3227033" lon="11.4032217"><ele>226.0</ele><time>2026-04-18T15:53:21.628Z</time></trkpt><trkpt lat="44.3226" lon="11.4032133"><ele>222.0</ele><time>2026-04-18T15:53:22.629Z</time></trkpt><trkpt lat="44.322525" lon="11.4032183"><ele>217.99999999999997</ele><time>2026-04-18T15:53:23.629Z</time></trkpt><trkpt lat="44.32246" lon="11.403245"><ele>214.0</ele><time>2026-04-18T15:53:24.628Z</time></trkpt><trkpt lat="44.32237" lon="11.403325"><ele>213.99999999999997</ele><time>2026-04-18T15:53:26.629Z</time></trkpt><trkpt lat="44.3224083" lon="11.4034133"><ele>214.0</ele><time>2026-04-18T15:53:28.628Z</time></trkpt><trkpt lat="44.3225317" lon="11.4034383"><ele>214.0</ele><time>2026-04-18T15:53:30.628Z</time></trkpt><trkpt lat="44.3226083" lon="11.403435"><ele>214.0</ele><time>2026-04-18T15:53:31.628Z</time></trkpt><trkpt lat="44.3226867" lon="11.40343"><ele>213.99999999999997</ele><time>2026-04-18T15:53:32.628Z</time></trkpt><trkpt lat="44.32275" lon="11.4034283"><ele>214.0</ele><time>2026-04-18T15:53:33.628Z</time></trkpt><trkpt lat="44.3228167" lon="11.4034317"><ele>214.00000000000003</ele><time>2026-04-18T15:53:34.628Z</time></trkpt><trkpt lat="44.3228833" lon="11.403445"><ele>214.0</ele><time>2026-04-18T15:53:35.629Z</time></trkpt><trkpt lat="44.322945" lon="11.403485"><ele>214.0</ele><time>2026-04-18T15:53:36.628Z</time></trkpt><trkpt lat="44.323005" lon="11.4035517"><ele>214.0</ele><time>2026-04-18T15:53:37.629Z</time></trkpt><trkpt lat="44.3230517" lon="11.4036367"><ele>214.0</ele><time>2026-04-18T15:53:38.628Z</time></trkpt><trkpt lat="44.3230867" lon="11.40373"><ele>214.00000000000003</ele><time>2026-04-18T15:53:39.629Z</time></trkpt><trkpt lat="44.3231217" lon="11.4038317"><ele>214.0</ele><time>2026-04-18T15:53:40.628Z</time></trkpt><trkpt lat="44.3231617" lon="11.4039433"><ele>213.66666666666666</ele><time>2026-04-18T15:53:41.628Z</time></trkpt><trkpt lat="44.32321" lon="11.4040367"><ele>213.33333333333331</ele><time>2026-04-18T15:53:42.629Z</time></trkpt><trkpt lat="44.32325" lon="11.4041217"><ele>213.0</ele><time>2026-04-18T15:53:43.628Z</time></trkpt><trkpt lat="44.3232883" lon="11.4041933"><ele>212.66666666666669</ele><time>2026-04-18T15:53:44.628Z</time></trkpt><trkpt lat="44.3233683" lon="11.4043067"><ele>212.33333333333334</ele><time>2026-04-18T15:53:46.628Z</time></trkpt><trkpt lat="44.3234533" lon="11.4043983"><ele>212.0</ele><time>2026-04-18T15:53:48.628Z</time></trkpt><trkpt lat="44.3235183" lon="11.4044683"><ele>212.00000000000003</ele><time>2026-04-18T15:53:50.628Z</time></trkpt><trkpt lat="44.32357" lon="11.40453"><ele>212.0</ele><time>2026-04-18T15:53:52.629Z</time></trkpt><trkpt lat="44.3236233" lon="11.40459"><ele>212.0</ele><time>2026-04-18T15:53:54.628Z</time></trkpt><trkpt lat="44.3236717" lon="11.40465"><ele>212.0</ele><time>2026-04-18T15:53:57.629Z</time></trkpt><trkpt lat="44.3237333" lon="11.4047183"><ele>212.00000000000003</ele><time>2026-04-18T15:54:03.628Z</time></trkpt><trkpt lat="44.3238133" lon="11.4047033"><ele>212.0</ele><time>2026-04-18T15:54:05.629Z</time></trkpt><trkpt lat="44.3239333" lon="11.4046567"><ele>211.2</ele><time>2026-04-18T15:54:07.628Z</time></trkpt><trkpt lat="44.3240167" lon="11.404635"><ele>210.39999999999998</ele><time>2026-04-18T15:54:08.628Z</time></trkpt><trkpt lat="44.324105" lon="11.4046083"><ele>209.60000000000002</ele><time>2026-04-18T15:54:09.628Z</time></trkpt><trkpt lat="44.3242" lon="11.4045733"><ele>208.8</ele><time>2026-04-18T15:54:10.628Z</time></trkpt><trkpt lat="44.3243067" lon="11.40454"><ele>208.0</ele><time>2026-04-18T15:54:11.629Z</time></trkpt><trkpt lat="44.3244183" lon="11.40451"><ele>208.0</ele><time>2026-04-18T15:54:12.628Z</time></trkpt><trkpt lat="44.3245417" lon="11.4044917"><ele>208.0</ele><time>2026-04-18T15:54:13.628Z</time></trkpt><trkpt lat="44.3246567" lon="11.4044867"><ele>208.0</ele><time>2026-04-18T15:54:14.628Z</time></trkpt><trkpt lat="44.3247717" lon="11.404495"><ele>208.0</ele><time>2026-04-18T15:54:15.628Z</time></trkpt><trkpt lat="44.3248833" lon="11.4045183"><ele>208.0</ele><time>2026-04-18T15:54:16.629Z</time></trkpt><trkpt lat="44.3249917" lon="11.404555"><ele>208.0</ele><time>2026-04-18T15:54:17.629Z</time></trkpt><trkpt lat="44.3250967" lon="11.404585"><ele>208.0</ele><time>2026-04-18T15:54:18.629Z</time></trkpt><trkpt lat="44.3252017" lon="11.4046233"><ele>208.0</ele><time>2026-04-18T15:54:19.629Z</time></trkpt><trkpt lat="44.3253117" lon="11.4046683"><ele>208.0</ele><time>2026-04-18T15:54:20.629Z</time></trkpt><trkpt lat="44.3254233" lon="11.4046967"><ele>208.5</ele><time>2026-04-18T15:54:21.628Z</time></trkpt><trkpt lat="44.32554" lon="11.4047233"><ele>209.0</ele><time>2026-04-18T15:54:22.629Z</time></trkpt><trkpt lat="44.3256517" lon="11.4047417"><ele>209.5</ele><time>2026-04-18T15:54:23.628Z</time></trkpt><trkpt lat="44.3257717" lon="11.4047583"><ele>210.0</ele><time>2026-04-18T15:54:24.628Z</time></trkpt><trkpt lat="44.325895" lon="11.40475"><ele>210.0</ele><time>2026-04-18T15:54:25.628Z</time></trkpt><trkpt lat="44.3260167" lon="11.40474"><ele>210.0</ele><time>2026-04-18T15:54:26.628Z</time></trkpt><trkpt lat="44.3261417" lon="11.404745"><ele>210.0</ele><time>2026-04-18T15:54:27.628Z</time></trkpt><trkpt lat="44.3262667" lon="11.40474"><ele>210.0</ele><time>2026-04-18T15:54:28.628Z</time></trkpt><trkpt lat="44.32639" lon="11.40473"><ele>210.0</ele><time>2026-04-18T15:54:29.628Z</time></trkpt><trkpt lat="44.3265067" lon="11.4047333"><ele>210.0</ele><time>2026-04-18T15:54:30.628Z</time></trkpt><trkpt lat="44.3266317" lon="11.4047333"><ele>210.0</ele><time>2026-04-18T15:54:31.628Z</time></trkpt><trkpt lat="44.3267533" lon="11.4047283"><ele>210.0</ele><time>2026-04-18T15:54:32.629Z</time></trkpt><trkpt lat="44.3268783" lon="11.4047317"><ele>210.0</ele><time>2026-04-18T15:54:33.629Z</time></trkpt><trkpt lat="44.3270083" lon="11.4047517"><ele>210.0</ele><time>2026-04-18T15:54:34.629Z</time></trkpt><trkpt lat="44.3271417" lon="11.40477"><ele>210.0</ele><time>2026-04-18T15:54:35.629Z</time></trkpt><trkpt lat="44.3272817" lon="11.4047883"><ele>210.0</ele><time>2026-04-18T15:54:36.628Z</time></trkpt><trkpt lat="44.327415" lon="11.4048117"><ele>208.75</ele><time>2026-04-18T15:54:37.629Z</time></trkpt><trkpt lat="44.3275483" lon="11.4048483"><ele>207.5</ele><time>2026-04-18T15:54:38.629Z</time></trkpt><trkpt lat="44.3276767" lon="11.4048883"><ele>206.25</ele><time>2026-04-18T15:54:39.628Z</time></trkpt><trkpt lat="44.3277933" lon="11.4049617"><ele>205.0</ele><time>2026-04-18T15:54:40.629Z</time></trkpt><trkpt lat="44.3279067" lon="11.40507"><ele>205.0</ele><time>2026-04-18T15:54:41.628Z</time></trkpt><trkpt lat="44.3280117" lon="11.4051917"><ele>205.0</ele><time>2026-04-18T15:54:42.629Z</time></trkpt><trkpt lat="44.328105" lon="11.405325"><ele>205.0</ele><time>2026-04-18T15:54:43.628Z</time></trkpt><trkpt lat="44.328185" lon="11.4054817"><ele>205.0</ele><time>2026-04-18T15:54:44.628Z</time></trkpt><trkpt lat="44.328255" lon="11.4056317"><ele>205.0</ele><time>2026-04-18T15:54:45.628Z</time></trkpt><trkpt lat="44.328315" lon="11.4057983"><ele>205.0</ele><time>2026-04-18T15:54:46.628Z</time></trkpt><trkpt lat="44.3283633" lon="11.40597"><ele>205.0</ele><time>2026-04-18T15:54:47.628Z</time></trkpt><trkpt lat="44.328415" lon="11.406135"><ele>205.0</ele><time>2026-04-18T15:54:48.628Z</time></trkpt><trkpt lat="44.3284633" lon="11.4062883"><ele>205.16666666666666</ele><time>2026-04-18T15:54:49.628Z</time></trkpt><trkpt lat="44.3284883" lon="11.4064183"><ele>205.33333333333331</ele><time>2026-04-18T15:54:50.629Z</time></trkpt><trkpt lat="44.3285167" lon="11.4065467"><ele>205.5</ele><time>2026-04-18T15:54:51.628Z</time></trkpt><trkpt lat="44.328545" lon="11.4066467"><ele>205.66666666666669</ele><time>2026-04-18T15:54:52.628Z</time></trkpt><trkpt lat="44.3286033" lon="11.40676"><ele>205.83333333333334</ele><time>2026-04-18T15:54:54.628Z</time></trkpt><trkpt lat="44.32868" lon="11.4067567"><ele>206.0</ele><time>2026-04-18T15:54:56.628Z</time></trkpt><trkpt lat="44.3288083" lon="11.406715"><ele>206.00000000000003</ele><time>2026-04-18T15:54:58.628Z</time></trkpt><trkpt lat="44.3288917" lon="11.4066883"><ele>206.0</ele><time>2026-04-18T15:54:59.629Z</time></trkpt><trkpt lat="44.328975" lon="11.406665"><ele>206.0</ele><time>2026-04-18T15:55:00.628Z</time></trkpt><trkpt lat="44.3290567" lon="11.4066383"><ele>206.0</ele><time>2026-04-18T15:55:01.628Z</time></trkpt><trkpt lat="44.3291367" lon="11.4066067"><ele>206.00000000000003</ele><time>2026-04-18T15:55:02.629Z</time></trkpt><trkpt lat="44.3292233" lon="11.40657"><ele>206.0</ele><time>2026-04-18T15:55:03.629Z</time></trkpt><trkpt lat="44.3293133" lon="11.4065333"><ele>205.16666666666669</ele><time>2026-04-18T15:55:04.628Z</time></trkpt><trkpt lat="44.3294017" lon="11.4065117"><ele>204.33333333333334</ele><time>2026-04-18T15:55:05.629Z</time></trkpt><trkpt lat="44.329485" lon="11.4064933"><ele>203.5</ele><time>2026-04-18T15:55:06.628Z</time></trkpt><trkpt lat="44.3295667" lon="11.4064683"><ele>202.66666666666669</ele><time>2026-04-18T15:55:07.628Z</time></trkpt><trkpt lat="44.3296417" lon="11.406435"><ele>201.83333333333334</ele><time>2026-04-18T15:55:08.629Z</time></trkpt><trkpt lat="44.32975" lon="11.4063967"><ele>201.0</ele><time>2026-04-18T15:55:10.628Z</time></trkpt><trkpt lat="44.329825" lon="11.4063767"><ele>199.0</ele><time>2026-04-18T15:55:12.629Z</time></trkpt><trkpt lat="44.3298933" lon="11.40637"><ele>199.0</ele><time>2026-04-18T15:55:14.628Z</time></trkpt></trkseg></trk></gpx>